<?xml version="1.0" encoding="UTF-8" standalone="no" ?>
<gpx xmlns="http://www.topografix.com/GPX/1/1" xmlns:xsi="http://www.w3.org/2001/XMLSchema-instance" xsi:schemaLocation="http://www.topografix.com/GPX/1/1 http://www.topografix.com/GPX/1/1/gpx.xsd" version="1.1" creator="VisuGPX - https://www.visugpx.com">
  <metadata>
    <name>2026-05-12 - Boucle dans le Massif du Pilat Jour 3</name>
    <desc><![CDATA[Parcours intéressant au sud-est de Bourg-Argental et au nord-ouest d\'Annonay. C\'est un bel itinéraire avec de grosses montées dans la première partie entre le 10ème et le 15ème kilomètre. Le passage sur les crêtes avant d\'arriver à Burdignes se fait en face d\'un paysage époustouflant. Quelques descentes sportives et très raides.]]></desc>
  </metadata>
  <trk>
    <name><![CDATA[Vtt Monts du Pilat jour 3]]></name>
    <trkseg>
      <trkpt lat="45.32308" lon="4.60573">
        <ele>667</ele>
        <time>2026-05-12T07:30:55.000Z</time>
      </trkpt>
      <trkpt lat="45.32309" lon="4.60578">
        <ele>666.59997558594</ele>
        <time>2026-05-12T07:30:56.000Z</time>
      </trkpt>
      <trkpt lat="45.32309" lon="4.60584">
        <ele>666.20001220703</ele>
        <time>2026-05-12T07:30:57.000Z</time>
      </trkpt>
      <trkpt lat="45.3231" lon="4.60592">
        <ele>665.79998779297</ele>
        <time>2026-05-12T07:30:58.000Z</time>
      </trkpt>
      <trkpt lat="45.32311" lon="4.606">
        <ele>665</ele>
        <time>2026-05-12T07:30:59.000Z</time>
      </trkpt>
      <trkpt lat="45.32311" lon="4.60608">
        <ele>664.40002441406</ele>
        <time>2026-05-12T07:31:00.000Z</time>
      </trkpt>
      <trkpt lat="45.32311" lon="4.60616">
        <ele>663.79998779297</ele>
        <time>2026-05-12T07:31:01.000Z</time>
      </trkpt>
      <trkpt lat="45.32311" lon="4.60625">
        <ele>662.79998779297</ele>
        <time>2026-05-12T07:31:02.000Z</time>
      </trkpt>
      <trkpt lat="45.3231" lon="4.60633">
        <ele>662</ele>
        <time>2026-05-12T07:31:03.000Z</time>
      </trkpt>
      <trkpt lat="45.32308" lon="4.60641">
        <ele>661.20001220703</ele>
        <time>2026-05-12T07:31:04.000Z</time>
      </trkpt>
      <trkpt lat="45.32306" lon="4.60649">
        <ele>660.40002441406</ele>
        <time>2026-05-12T07:31:05.000Z</time>
      </trkpt>
      <trkpt lat="45.32302" lon="4.60657">
        <ele>659.59997558594</ele>
        <time>2026-05-12T07:31:06.000Z</time>
      </trkpt>
      <trkpt lat="45.32297" lon="4.60665">
        <ele>658.40002441406</ele>
        <time>2026-05-12T07:31:07.000Z</time>
      </trkpt>
      <trkpt lat="45.32291" lon="4.60673">
        <ele>657.20001220703</ele>
        <time>2026-05-12T07:31:08.000Z</time>
      </trkpt>
      <trkpt lat="45.32284" lon="4.6068">
        <ele>655.59997558594</ele>
        <time>2026-05-12T07:31:09.000Z</time>
      </trkpt>
      <trkpt lat="45.32277" lon="4.60688">
        <ele>654</ele>
        <time>2026-05-12T07:31:10.000Z</time>
      </trkpt>
      <trkpt lat="45.32271" lon="4.60697">
        <ele>652.59997558594</ele>
        <time>2026-05-12T07:31:11.000Z</time>
      </trkpt>
      <trkpt lat="45.32265" lon="4.60705">
        <ele>651.20001220703</ele>
        <time>2026-05-12T07:31:12.000Z</time>
      </trkpt>
      <trkpt lat="45.32259" lon="4.60712">
        <ele>650</ele>
        <time>2026-05-12T07:31:13.000Z</time>
      </trkpt>
      <trkpt lat="45.32254" lon="4.60719">
        <ele>649.20001220703</ele>
        <time>2026-05-12T07:31:14.000Z</time>
      </trkpt>
      <trkpt lat="45.32249" lon="4.60727">
        <ele>648.40002441406</ele>
        <time>2026-05-12T07:31:15.000Z</time>
      </trkpt>
      <trkpt lat="45.32247" lon="4.60734">
        <ele>647.79998779297</ele>
        <time>2026-05-12T07:31:16.000Z</time>
      </trkpt>
      <trkpt lat="45.32245" lon="4.60742">
        <ele>647</ele>
        <time>2026-05-12T07:31:17.000Z</time>
      </trkpt>
      <trkpt lat="45.32246" lon="4.60751">
        <ele>646.40002441406</ele>
        <time>2026-05-12T07:31:18.000Z</time>
      </trkpt>
      <trkpt lat="45.32248" lon="4.6076">
        <ele>645.59997558594</ele>
        <time>2026-05-12T07:31:19.000Z</time>
      </trkpt>
      <trkpt lat="45.3225" lon="4.60769">
        <ele>644.79998779297</ele>
        <time>2026-05-12T07:31:20.000Z</time>
      </trkpt>
      <trkpt lat="45.32254" lon="4.60778">
        <ele>644</ele>
        <time>2026-05-12T07:31:21.000Z</time>
      </trkpt>
      <trkpt lat="45.32257" lon="4.60788">
        <ele>643.20001220703</ele>
        <time>2026-05-12T07:31:22.000Z</time>
      </trkpt>
      <trkpt lat="45.3226" lon="4.60799">
        <ele>642.40002441406</ele>
        <time>2026-05-12T07:31:23.000Z</time>
      </trkpt>
      <trkpt lat="45.32263" lon="4.60809">
        <ele>641.59997558594</ele>
        <time>2026-05-12T07:31:24.000Z</time>
      </trkpt>
      <trkpt lat="45.32266" lon="4.60818">
        <ele>640.79998779297</ele>
        <time>2026-05-12T07:31:25.000Z</time>
      </trkpt>
      <trkpt lat="45.32269" lon="4.60827">
        <ele>640.20001220703</ele>
        <time>2026-05-12T07:31:26.000Z</time>
      </trkpt>
      <trkpt lat="45.32271" lon="4.60834">
        <ele>639.59997558594</ele>
        <time>2026-05-12T07:31:27.000Z</time>
      </trkpt>
      <trkpt lat="45.32274" lon="4.60842">
        <ele>639</ele>
        <time>2026-05-12T07:31:28.000Z</time>
      </trkpt>
      <trkpt lat="45.32278" lon="4.6085">
        <ele>638.59997558594</ele>
        <time>2026-05-12T07:31:29.000Z</time>
      </trkpt>
      <trkpt lat="45.32281" lon="4.60858">
        <ele>638</ele>
        <time>2026-05-12T07:31:30.000Z</time>
      </trkpt>
      <trkpt lat="45.32285" lon="4.60866">
        <ele>637.40002441406</ele>
        <time>2026-05-12T07:31:31.000Z</time>
      </trkpt>
      <trkpt lat="45.32289" lon="4.60873">
        <ele>636.59997558594</ele>
        <time>2026-05-12T07:31:32.000Z</time>
      </trkpt>
      <trkpt lat="45.32293" lon="4.6088">
        <ele>636</ele>
        <time>2026-05-12T07:31:33.000Z</time>
      </trkpt>
      <trkpt lat="45.32297" lon="4.60886">
        <ele>635.20001220703</ele>
        <time>2026-05-12T07:31:34.000Z</time>
      </trkpt>
      <trkpt lat="45.32301" lon="4.60892">
        <ele>634.59997558594</ele>
        <time>2026-05-12T07:31:35.000Z</time>
      </trkpt>
      <trkpt lat="45.32305" lon="4.60897">
        <ele>634.20001220703</ele>
        <time>2026-05-12T07:31:36.000Z</time>
      </trkpt>
      <trkpt lat="45.32308" lon="4.60903">
        <ele>633.59997558594</ele>
        <time>2026-05-12T07:31:37.000Z</time>
      </trkpt>
      <trkpt lat="45.32312" lon="4.60908">
        <ele>633.20001220703</ele>
        <time>2026-05-12T07:31:38.000Z</time>
      </trkpt>
      <trkpt lat="45.32315" lon="4.60914">
        <ele>632.79998779297</ele>
        <time>2026-05-12T07:31:39.000Z</time>
      </trkpt>
      <trkpt lat="45.32317" lon="4.6092">
        <ele>632.20001220703</ele>
        <time>2026-05-12T07:31:40.000Z</time>
      </trkpt>
      <trkpt lat="45.32316" lon="4.60928">
        <ele>631.59997558594</ele>
        <time>2026-05-12T07:31:41.000Z</time>
      </trkpt>
      <trkpt lat="45.32314" lon="4.60936">
        <ele>631.20001220703</ele>
        <time>2026-05-12T07:31:42.000Z</time>
      </trkpt>
      <trkpt lat="45.32311" lon="4.60943">
        <ele>630.59997558594</ele>
        <time>2026-05-12T07:31:43.000Z</time>
      </trkpt>
      <trkpt lat="45.32307" lon="4.6095">
        <ele>629.79998779297</ele>
        <time>2026-05-12T07:31:44.000Z</time>
      </trkpt>
      <trkpt lat="45.32304" lon="4.60959">
        <ele>629.20001220703</ele>
        <time>2026-05-12T07:31:45.000Z</time>
      </trkpt>
      <trkpt lat="45.32303" lon="4.60969">
        <ele>628.40002441406</ele>
        <time>2026-05-12T07:31:46.000Z</time>
      </trkpt>
      <trkpt lat="45.32303" lon="4.60979">
        <ele>627.59997558594</ele>
        <time>2026-05-12T07:31:47.000Z</time>
      </trkpt>
      <trkpt lat="45.32303" lon="4.6099">
        <ele>626.79998779297</ele>
        <time>2026-05-12T07:31:48.000Z</time>
      </trkpt>
      <trkpt lat="45.32305" lon="4.61">
        <ele>625.79998779297</ele>
        <time>2026-05-12T07:31:49.000Z</time>
      </trkpt>
      <trkpt lat="45.32309" lon="4.61011">
        <ele>625</ele>
        <time>2026-05-12T07:31:50.000Z</time>
      </trkpt>
      <trkpt lat="45.32313" lon="4.61021">
        <ele>624.20001220703</ele>
        <time>2026-05-12T07:31:51.000Z</time>
      </trkpt>
      <trkpt lat="45.32319" lon="4.6103">
        <ele>623.40002441406</ele>
        <time>2026-05-12T07:31:52.000Z</time>
      </trkpt>
      <trkpt lat="45.32325" lon="4.61038">
        <ele>622.59997558594</ele>
        <time>2026-05-12T07:31:53.000Z</time>
      </trkpt>
      <trkpt lat="45.32333" lon="4.61044">
        <ele>622</ele>
        <time>2026-05-12T07:31:54.000Z</time>
      </trkpt>
      <trkpt lat="45.32341" lon="4.6105">
        <ele>621.40002441406</ele>
        <time>2026-05-12T07:31:55.000Z</time>
      </trkpt>
      <trkpt lat="45.32349" lon="4.61054">
        <ele>620.79998779297</ele>
        <time>2026-05-12T07:31:56.000Z</time>
      </trkpt>
      <trkpt lat="45.32357" lon="4.61058">
        <ele>620.20001220703</ele>
        <time>2026-05-12T07:31:57.000Z</time>
      </trkpt>
      <trkpt lat="45.32364" lon="4.61062">
        <ele>619.79998779297</ele>
        <time>2026-05-12T07:31:58.000Z</time>
      </trkpt>
      <trkpt lat="45.32372" lon="4.61066">
        <ele>619.40002441406</ele>
        <time>2026-05-12T07:31:59.000Z</time>
      </trkpt>
      <trkpt lat="45.32381" lon="4.61069">
        <ele>618.79998779297</ele>
        <time>2026-05-12T07:32:00.000Z</time>
      </trkpt>
      <trkpt lat="45.32389" lon="4.61072">
        <ele>618.40002441406</ele>
        <time>2026-05-12T07:32:01.000Z</time>
      </trkpt>
      <trkpt lat="45.32397" lon="4.61075">
        <ele>618</ele>
        <time>2026-05-12T07:32:02.000Z</time>
      </trkpt>
      <trkpt lat="45.32406" lon="4.61078">
        <ele>617.40002441406</ele>
        <time>2026-05-12T07:32:03.000Z</time>
      </trkpt>
      <trkpt lat="45.32414" lon="4.61081">
        <ele>617</ele>
        <time>2026-05-12T07:32:04.000Z</time>
      </trkpt>
      <trkpt lat="45.32421" lon="4.61083">
        <ele>616.79998779297</ele>
        <time>2026-05-12T07:32:05.000Z</time>
      </trkpt>
      <trkpt lat="45.32426" lon="4.61085">
        <ele>616.79998779297</ele>
        <time>2026-05-12T07:32:06.000Z</time>
      </trkpt>
      <trkpt lat="45.32429" lon="4.61087">
        <ele>616.79998779297</ele>
        <time>2026-05-12T07:32:07.000Z</time>
      </trkpt>
      <trkpt lat="45.32432" lon="4.61087">
        <ele>617</ele>
        <time>2026-05-12T07:32:08.000Z</time>
      </trkpt>
      <trkpt lat="45.32434" lon="4.61087">
        <ele>617.20001220703</ele>
        <time>2026-05-12T07:32:09.000Z</time>
      </trkpt>
      <trkpt lat="45.32436" lon="4.61086">
        <ele>617.40002441406</ele>
        <time>2026-05-12T07:32:10.000Z</time>
      </trkpt>
      <trkpt lat="45.32436" lon="4.61084">
        <ele>617.40002441406</ele>
        <time>2026-05-12T07:32:11.000Z</time>
      </trkpt>
      <trkpt lat="45.32435" lon="4.61082">
        <ele>617.40002441406</ele>
        <time>2026-05-12T07:32:12.000Z</time>
      </trkpt>
      <trkpt lat="45.32433" lon="4.61081">
        <ele>617.40002441406</ele>
        <time>2026-05-12T07:32:13.000Z</time>
      </trkpt>
      <trkpt lat="45.3243" lon="4.61081">
        <ele>617.40002441406</ele>
        <time>2026-05-12T07:32:14.000Z</time>
      </trkpt>
      <trkpt lat="45.32428" lon="4.61081">
        <ele>617.40002441406</ele>
        <time>2026-05-12T07:32:15.000Z</time>
      </trkpt>
      <trkpt lat="45.32426" lon="4.61081">
        <ele>617.59997558594</ele>
        <time>2026-05-12T07:32:16.000Z</time>
      </trkpt>
      <trkpt lat="45.32423" lon="4.6108">
        <ele>617.59997558594</ele>
        <time>2026-05-12T07:32:17.000Z</time>
      </trkpt>
      <trkpt lat="45.3242" lon="4.61079">
        <ele>617.59997558594</ele>
        <time>2026-05-12T07:32:18.000Z</time>
      </trkpt>
      <trkpt lat="45.32418" lon="4.61078">
        <ele>617.59997558594</ele>
        <time>2026-05-12T07:32:19.000Z</time>
      </trkpt>
      <trkpt lat="45.32416" lon="4.61078">
        <ele>617.59997558594</ele>
        <time>2026-05-12T07:32:20.000Z</time>
      </trkpt>
      <trkpt lat="45.32413" lon="4.61077">
        <ele>617.79998779297</ele>
        <time>2026-05-12T07:32:21.000Z</time>
      </trkpt>
      <trkpt lat="45.32411" lon="4.61077">
        <ele>617.79998779297</ele>
        <time>2026-05-12T07:32:22.000Z</time>
      </trkpt>
      <trkpt lat="45.32408" lon="4.61076">
        <ele>618</ele>
        <time>2026-05-12T07:32:23.000Z</time>
      </trkpt>
      <trkpt lat="45.32405" lon="4.61076">
        <ele>618.20001220703</ele>
        <time>2026-05-12T07:32:24.000Z</time>
      </trkpt>
      <trkpt lat="45.32403" lon="4.61076">
        <ele>618.59997558594</ele>
        <time>2026-05-12T07:32:25.000Z</time>
      </trkpt>
      <trkpt lat="45.32401" lon="4.61077">
        <ele>618.79998779297</ele>
        <time>2026-05-12T07:32:26.000Z</time>
      </trkpt>
      <trkpt lat="45.32399" lon="4.61078">
        <ele>618.79998779297</ele>
        <time>2026-05-12T07:32:27.000Z</time>
      </trkpt>
      <trkpt lat="45.32398" lon="4.6108">
        <ele>619</ele>
        <time>2026-05-12T07:32:28.000Z</time>
      </trkpt>
      <trkpt lat="45.32396" lon="4.61082">
        <ele>619</ele>
        <time>2026-05-12T07:32:29.000Z</time>
      </trkpt>
      <trkpt lat="45.32395" lon="4.61084">
        <ele>619</ele>
        <time>2026-05-12T07:32:30.000Z</time>
      </trkpt>
      <trkpt lat="45.32393" lon="4.61085">
        <ele>619</ele>
        <time>2026-05-12T07:32:31.000Z</time>
      </trkpt>
      <trkpt lat="45.32392" lon="4.61087">
        <ele>618.79998779297</ele>
        <time>2026-05-12T07:32:32.000Z</time>
      </trkpt>
      <trkpt lat="45.32391" lon="4.61089">
        <ele>618.79998779297</ele>
        <time>2026-05-12T07:32:33.000Z</time>
      </trkpt>
      <trkpt lat="45.32389" lon="4.61091">
        <ele>618.59997558594</ele>
        <time>2026-05-12T07:32:34.000Z</time>
      </trkpt>
      <trkpt lat="45.32388" lon="4.61093">
        <ele>618.59997558594</ele>
        <time>2026-05-12T07:32:35.000Z</time>
      </trkpt>
      <trkpt lat="45.32386" lon="4.61096">
        <ele>618.40002441406</ele>
        <time>2026-05-12T07:32:36.000Z</time>
      </trkpt>
      <trkpt lat="45.32384" lon="4.61098">
        <ele>618.20001220703</ele>
        <time>2026-05-12T07:32:37.000Z</time>
      </trkpt>
      <trkpt lat="45.32383" lon="4.61101">
        <ele>618</ele>
        <time>2026-05-12T07:32:38.000Z</time>
      </trkpt>
      <trkpt lat="45.32381" lon="4.61104">
        <ele>618</ele>
        <time>2026-05-12T07:32:39.000Z</time>
      </trkpt>
      <trkpt lat="45.32378" lon="4.61105">
        <ele>617.79998779297</ele>
        <time>2026-05-12T07:32:40.000Z</time>
      </trkpt>
      <trkpt lat="45.32376" lon="4.61106">
        <ele>617.79998779297</ele>
        <time>2026-05-12T07:32:41.000Z</time>
      </trkpt>
      <trkpt lat="45.32373" lon="4.61106">
        <ele>617.79998779297</ele>
        <time>2026-05-12T07:32:42.000Z</time>
      </trkpt>
      <trkpt lat="45.32371" lon="4.61106">
        <ele>617.59997558594</ele>
        <time>2026-05-12T07:32:43.000Z</time>
      </trkpt>
      <trkpt lat="45.32368" lon="4.61106">
        <ele>617.59997558594</ele>
        <time>2026-05-12T07:32:44.000Z</time>
      </trkpt>
      <trkpt lat="45.32366" lon="4.61108">
        <ele>617.59997558594</ele>
        <time>2026-05-12T07:32:45.000Z</time>
      </trkpt>
      <trkpt lat="45.32364" lon="4.61111">
        <ele>617.40002441406</ele>
        <time>2026-05-12T07:32:46.000Z</time>
      </trkpt>
      <trkpt lat="45.32363" lon="4.61115">
        <ele>617.20001220703</ele>
        <time>2026-05-12T07:32:47.000Z</time>
      </trkpt>
      <trkpt lat="45.32361" lon="4.6112">
        <ele>616.79998779297</ele>
        <time>2026-05-12T07:32:48.000Z</time>
      </trkpt>
      <trkpt lat="45.32359" lon="4.61125">
        <ele>616.40002441406</ele>
        <time>2026-05-12T07:32:49.000Z</time>
      </trkpt>
      <trkpt lat="45.32356" lon="4.61129">
        <ele>616</ele>
        <time>2026-05-12T07:32:50.000Z</time>
      </trkpt>
      <trkpt lat="45.32353" lon="4.61133">
        <ele>615.79998779297</ele>
        <time>2026-05-12T07:32:51.000Z</time>
      </trkpt>
      <trkpt lat="45.32349" lon="4.61135">
        <ele>615.59997558594</ele>
        <time>2026-05-12T07:32:52.000Z</time>
      </trkpt>
      <trkpt lat="45.32345" lon="4.61137">
        <ele>615</ele>
        <time>2026-05-12T07:32:53.000Z</time>
      </trkpt>
      <trkpt lat="45.32341" lon="4.61138">
        <ele>614.79998779297</ele>
        <time>2026-05-12T07:32:54.000Z</time>
      </trkpt>
      <trkpt lat="45.32338" lon="4.61137">
        <ele>614.59997558594</ele>
        <time>2026-05-12T07:32:55.000Z</time>
      </trkpt>
      <trkpt lat="45.32334" lon="4.61136">
        <ele>614.40002441406</ele>
        <time>2026-05-12T07:32:56.000Z</time>
      </trkpt>
      <trkpt lat="45.32331" lon="4.61136">
        <ele>614.40002441406</ele>
        <time>2026-05-12T07:32:57.000Z</time>
      </trkpt>
      <trkpt lat="45.32328" lon="4.61137">
        <ele>614.40002441406</ele>
        <time>2026-05-12T07:32:58.000Z</time>
      </trkpt>
      <trkpt lat="45.32325" lon="4.61138">
        <ele>614.40002441406</ele>
        <time>2026-05-12T07:32:59.000Z</time>
      </trkpt>
      <trkpt lat="45.32324" lon="4.6114">
        <ele>614.40002441406</ele>
        <time>2026-05-12T07:33:00.000Z</time>
      </trkpt>
      <trkpt lat="45.32323" lon="4.61143">
        <ele>614.40002441406</ele>
        <time>2026-05-12T07:33:01.000Z</time>
      </trkpt>
      <trkpt lat="45.32323" lon="4.61147">
        <ele>614.40002441406</ele>
        <time>2026-05-12T07:33:02.000Z</time>
      </trkpt>
      <trkpt lat="45.32322" lon="4.61152">
        <ele>614.20001220703</ele>
        <time>2026-05-12T07:33:03.000Z</time>
      </trkpt>
      <trkpt lat="45.32321" lon="4.61158">
        <ele>614</ele>
        <time>2026-05-12T07:33:04.000Z</time>
      </trkpt>
      <trkpt lat="45.32321" lon="4.61164">
        <ele>613.59997558594</ele>
        <time>2026-05-12T07:33:05.000Z</time>
      </trkpt>
      <trkpt lat="45.3232" lon="4.61171">
        <ele>613</ele>
        <time>2026-05-12T07:33:06.000Z</time>
      </trkpt>
      <trkpt lat="45.32319" lon="4.61178">
        <ele>612.40002441406</ele>
        <time>2026-05-12T07:33:07.000Z</time>
      </trkpt>
      <trkpt lat="45.32318" lon="4.61187">
        <ele>611.79998779297</ele>
        <time>2026-05-12T07:33:08.000Z</time>
      </trkpt>
      <trkpt lat="45.32317" lon="4.61195">
        <ele>611</ele>
        <time>2026-05-12T07:33:09.000Z</time>
      </trkpt>
      <trkpt lat="45.32316" lon="4.61205">
        <ele>610.40002441406</ele>
        <time>2026-05-12T07:33:10.000Z</time>
      </trkpt>
      <trkpt lat="45.32315" lon="4.61213">
        <ele>609.79998779297</ele>
        <time>2026-05-12T07:33:11.000Z</time>
      </trkpt>
      <trkpt lat="45.32314" lon="4.61222">
        <ele>609.20001220703</ele>
        <time>2026-05-12T07:33:12.000Z</time>
      </trkpt>
      <trkpt lat="45.32311" lon="4.61229">
        <ele>608.79998779297</ele>
        <time>2026-05-12T07:33:13.000Z</time>
      </trkpt>
      <trkpt lat="45.32308" lon="4.61236">
        <ele>608.40002441406</ele>
        <time>2026-05-12T07:33:14.000Z</time>
      </trkpt>
      <trkpt lat="45.32304" lon="4.61241">
        <ele>608.20001220703</ele>
        <time>2026-05-12T07:33:15.000Z</time>
      </trkpt>
      <trkpt lat="45.323" lon="4.61246">
        <ele>607.79998779297</ele>
        <time>2026-05-12T07:33:16.000Z</time>
      </trkpt>
      <trkpt lat="45.32296" lon="4.61251">
        <ele>607.40002441406</ele>
        <time>2026-05-12T07:33:17.000Z</time>
      </trkpt>
      <trkpt lat="45.32293" lon="4.61258">
        <ele>607</ele>
        <time>2026-05-12T07:33:18.000Z</time>
      </trkpt>
      <trkpt lat="45.32291" lon="4.61265">
        <ele>606.59997558594</ele>
        <time>2026-05-12T07:33:19.000Z</time>
      </trkpt>
      <trkpt lat="45.3229" lon="4.61274">
        <ele>606.20001220703</ele>
        <time>2026-05-12T07:33:20.000Z</time>
      </trkpt>
      <trkpt lat="45.3229" lon="4.61283">
        <ele>605.79998779297</ele>
        <time>2026-05-12T07:33:21.000Z</time>
      </trkpt>
      <trkpt lat="45.3229" lon="4.61291">
        <ele>605.40002441406</ele>
        <time>2026-05-12T07:33:22.000Z</time>
      </trkpt>
      <trkpt lat="45.3229" lon="4.61299">
        <ele>605</ele>
        <time>2026-05-12T07:33:23.000Z</time>
      </trkpt>
      <trkpt lat="45.32291" lon="4.61307">
        <ele>604.79998779297</ele>
        <time>2026-05-12T07:33:24.000Z</time>
      </trkpt>
      <trkpt lat="45.32291" lon="4.61313">
        <ele>604.59997558594</ele>
        <time>2026-05-12T07:33:25.000Z</time>
      </trkpt>
      <trkpt lat="45.32291" lon="4.61319">
        <ele>604.40002441406</ele>
        <time>2026-05-12T07:33:26.000Z</time>
      </trkpt>
      <trkpt lat="45.32291" lon="4.61324">
        <ele>604</ele>
        <time>2026-05-12T07:33:27.000Z</time>
      </trkpt>
      <trkpt lat="45.32291" lon="4.6133">
        <ele>603.79998779297</ele>
        <time>2026-05-12T07:33:28.000Z</time>
      </trkpt>
      <trkpt lat="45.32291" lon="4.61335">
        <ele>603.40002441406</ele>
        <time>2026-05-12T07:33:29.000Z</time>
      </trkpt>
      <trkpt lat="45.3229" lon="4.6134">
        <ele>603</ele>
        <time>2026-05-12T07:33:30.000Z</time>
      </trkpt>
      <trkpt lat="45.32288" lon="4.61344">
        <ele>602.59997558594</ele>
        <time>2026-05-12T07:33:31.000Z</time>
      </trkpt>
      <trkpt lat="45.32286" lon="4.61348">
        <ele>602.20001220703</ele>
        <time>2026-05-12T07:33:32.000Z</time>
      </trkpt>
      <trkpt lat="45.32283" lon="4.61354">
        <ele>601.79998779297</ele>
        <time>2026-05-12T07:33:33.000Z</time>
      </trkpt>
      <trkpt lat="45.32281" lon="4.61359">
        <ele>601.40002441406</ele>
        <time>2026-05-12T07:33:34.000Z</time>
      </trkpt>
      <trkpt lat="45.32279" lon="4.61363">
        <ele>601</ele>
        <time>2026-05-12T07:33:35.000Z</time>
      </trkpt>
      <trkpt lat="45.32277" lon="4.61366">
        <ele>600.59997558594</ele>
        <time>2026-05-12T07:33:36.000Z</time>
      </trkpt>
      <trkpt lat="45.32276" lon="4.61368">
        <ele>600.40002441406</ele>
        <time>2026-05-12T07:33:37.000Z</time>
      </trkpt>
      <trkpt lat="45.32275" lon="4.61369">
        <ele>600.20001220703</ele>
        <time>2026-05-12T07:33:38.000Z</time>
      </trkpt>
      <trkpt lat="45.32274" lon="4.61371">
        <ele>600</ele>
        <time>2026-05-12T07:33:39.000Z</time>
      </trkpt>
      <trkpt lat="45.32274" lon="4.61372">
        <ele>599.79998779297</ele>
        <time>2026-05-12T07:33:40.000Z</time>
      </trkpt>
      <trkpt lat="45.32273" lon="4.61374">
        <ele>599.59997558594</ele>
        <time>2026-05-12T07:33:41.000Z</time>
      </trkpt>
      <trkpt lat="45.32272" lon="4.61377">
        <ele>599.40002441406</ele>
        <time>2026-05-12T07:33:42.000Z</time>
      </trkpt>
      <trkpt lat="45.32271" lon="4.61381">
        <ele>599</ele>
        <time>2026-05-12T07:33:43.000Z</time>
      </trkpt>
      <trkpt lat="45.3227" lon="4.61384">
        <ele>598.59997558594</ele>
        <time>2026-05-12T07:33:44.000Z</time>
      </trkpt>
      <trkpt lat="45.32269" lon="4.61386">
        <ele>598.20001220703</ele>
        <time>2026-05-12T07:33:45.000Z</time>
      </trkpt>
      <trkpt lat="45.32268" lon="4.61389">
        <ele>597.79998779297</ele>
        <time>2026-05-12T07:33:46.000Z</time>
      </trkpt>
      <trkpt lat="45.32267" lon="4.61392">
        <ele>597.40002441406</ele>
        <time>2026-05-12T07:33:47.000Z</time>
      </trkpt>
      <trkpt lat="45.32265" lon="4.61396">
        <ele>597</ele>
        <time>2026-05-12T07:33:48.000Z</time>
      </trkpt>
      <trkpt lat="45.32263" lon="4.614">
        <ele>596.59997558594</ele>
        <time>2026-05-12T07:33:49.000Z</time>
      </trkpt>
      <trkpt lat="45.3226" lon="4.61403">
        <ele>596.20001220703</ele>
        <time>2026-05-12T07:33:50.000Z</time>
      </trkpt>
      <trkpt lat="45.32257" lon="4.61407">
        <ele>595.79998779297</ele>
        <time>2026-05-12T07:33:51.000Z</time>
      </trkpt>
      <trkpt lat="45.32254" lon="4.61411">
        <ele>595.59997558594</ele>
        <time>2026-05-12T07:33:52.000Z</time>
      </trkpt>
      <trkpt lat="45.32251" lon="4.61414">
        <ele>595.40002441406</ele>
        <time>2026-05-12T07:33:53.000Z</time>
      </trkpt>
      <trkpt lat="45.32248" lon="4.61418">
        <ele>595.20001220703</ele>
        <time>2026-05-12T07:33:54.000Z</time>
      </trkpt>
      <trkpt lat="45.32245" lon="4.61421">
        <ele>595</ele>
        <time>2026-05-12T07:33:55.000Z</time>
      </trkpt>
      <trkpt lat="45.32242" lon="4.61425">
        <ele>594.79998779297</ele>
        <time>2026-05-12T07:33:56.000Z</time>
      </trkpt>
      <trkpt lat="45.32239" lon="4.61429">
        <ele>594.59997558594</ele>
        <time>2026-05-12T07:33:57.000Z</time>
      </trkpt>
      <trkpt lat="45.32235" lon="4.61432">
        <ele>594.59997558594</ele>
        <time>2026-05-12T07:33:58.000Z</time>
      </trkpt>
      <trkpt lat="45.32232" lon="4.61437">
        <ele>594.40002441406</ele>
        <time>2026-05-12T07:33:59.000Z</time>
      </trkpt>
      <trkpt lat="45.32228" lon="4.6144">
        <ele>594.20001220703</ele>
        <time>2026-05-12T07:34:00.000Z</time>
      </trkpt>
      <trkpt lat="45.32224" lon="4.61443">
        <ele>594.20001220703</ele>
        <time>2026-05-12T07:34:01.000Z</time>
      </trkpt>
      <trkpt lat="45.3222" lon="4.61446">
        <ele>594</ele>
        <time>2026-05-12T07:34:02.000Z</time>
      </trkpt>
      <trkpt lat="45.32216" lon="4.61449">
        <ele>593.79998779297</ele>
        <time>2026-05-12T07:34:03.000Z</time>
      </trkpt>
      <trkpt lat="45.32212" lon="4.61451">
        <ele>593.79998779297</ele>
        <time>2026-05-12T07:34:04.000Z</time>
      </trkpt>
      <trkpt lat="45.32208" lon="4.61453">
        <ele>593.59997558594</ele>
        <time>2026-05-12T07:34:05.000Z</time>
      </trkpt>
      <trkpt lat="45.32205" lon="4.61455">
        <ele>593.59997558594</ele>
        <time>2026-05-12T07:34:06.000Z</time>
      </trkpt>
      <trkpt lat="45.32202" lon="4.61457">
        <ele>593.59997558594</ele>
        <time>2026-05-12T07:34:07.000Z</time>
      </trkpt>
      <trkpt lat="45.32199" lon="4.61459">
        <ele>593.40002441406</ele>
        <time>2026-05-12T07:34:08.000Z</time>
      </trkpt>
      <trkpt lat="45.32197" lon="4.61461">
        <ele>593.40002441406</ele>
        <time>2026-05-12T07:34:09.000Z</time>
      </trkpt>
      <trkpt lat="45.32194" lon="4.61462">
        <ele>593.40002441406</ele>
        <time>2026-05-12T07:34:10.000Z</time>
      </trkpt>
      <trkpt lat="45.32191" lon="4.61463">
        <ele>593.20001220703</ele>
        <time>2026-05-12T07:34:11.000Z</time>
      </trkpt>
      <trkpt lat="45.32189" lon="4.61462">
        <ele>593.20001220703</ele>
        <time>2026-05-12T07:34:12.000Z</time>
      </trkpt>
      <trkpt lat="45.32186" lon="4.61463">
        <ele>593.20001220703</ele>
        <time>2026-05-12T07:34:13.000Z</time>
      </trkpt>
      <trkpt lat="45.32184" lon="4.61464">
        <ele>593.40002441406</ele>
        <time>2026-05-12T07:34:14.000Z</time>
      </trkpt>
      <trkpt lat="45.32182" lon="4.61465">
        <ele>593.40002441406</ele>
        <time>2026-05-12T07:34:15.000Z</time>
      </trkpt>
      <trkpt lat="45.3218" lon="4.61466">
        <ele>593.59997558594</ele>
        <time>2026-05-12T07:34:16.000Z</time>
      </trkpt>
      <trkpt lat="45.32178" lon="4.61466">
        <ele>593.59997558594</ele>
        <time>2026-05-12T07:34:17.000Z</time>
      </trkpt>
      <trkpt lat="45.32175" lon="4.61467">
        <ele>593.59997558594</ele>
        <time>2026-05-12T07:34:18.000Z</time>
      </trkpt>
      <trkpt lat="45.32173" lon="4.61468">
        <ele>593.79998779297</ele>
        <time>2026-05-12T07:34:19.000Z</time>
      </trkpt>
      <trkpt lat="45.32171" lon="4.61471">
        <ele>593.79998779297</ele>
        <time>2026-05-12T07:34:20.000Z</time>
      </trkpt>
      <trkpt lat="45.32168" lon="4.61473">
        <ele>593.79998779297</ele>
        <time>2026-05-12T07:34:21.000Z</time>
      </trkpt>
      <trkpt lat="45.32166" lon="4.61474">
        <ele>594</ele>
        <time>2026-05-12T07:34:22.000Z</time>
      </trkpt>
      <trkpt lat="45.32164" lon="4.61476">
        <ele>594</ele>
        <time>2026-05-12T07:34:23.000Z</time>
      </trkpt>
      <trkpt lat="45.32163" lon="4.61479">
        <ele>594</ele>
        <time>2026-05-12T07:34:24.000Z</time>
      </trkpt>
      <trkpt lat="45.32162" lon="4.61481">
        <ele>594.20001220703</ele>
        <time>2026-05-12T07:34:25.000Z</time>
      </trkpt>
      <trkpt lat="45.3216" lon="4.61483">
        <ele>594.20001220703</ele>
        <time>2026-05-12T07:34:26.000Z</time>
      </trkpt>
      <trkpt lat="45.32157" lon="4.61484">
        <ele>594.40002441406</ele>
        <time>2026-05-12T07:34:27.000Z</time>
      </trkpt>
      <trkpt lat="45.32154" lon="4.61484">
        <ele>594.40002441406</ele>
        <time>2026-05-12T07:34:28.000Z</time>
      </trkpt>
      <trkpt lat="45.32152" lon="4.61486">
        <ele>594.59997558594</ele>
        <time>2026-05-12T07:34:29.000Z</time>
      </trkpt>
      <trkpt lat="45.3215" lon="4.61487">
        <ele>594.59997558594</ele>
        <time>2026-05-12T07:34:30.000Z</time>
      </trkpt>
      <trkpt lat="45.32148" lon="4.61489">
        <ele>594.79998779297</ele>
        <time>2026-05-12T07:34:31.000Z</time>
      </trkpt>
      <trkpt lat="45.32145" lon="4.61491">
        <ele>595</ele>
        <time>2026-05-12T07:34:32.000Z</time>
      </trkpt>
      <trkpt lat="45.32143" lon="4.61493">
        <ele>595</ele>
        <time>2026-05-12T07:34:33.000Z</time>
      </trkpt>
      <trkpt lat="45.32142" lon="4.61495">
        <ele>595.20001220703</ele>
        <time>2026-05-12T07:34:34.000Z</time>
      </trkpt>
      <trkpt lat="45.32139" lon="4.61497">
        <ele>595.40002441406</ele>
        <time>2026-05-12T07:34:35.000Z</time>
      </trkpt>
      <trkpt lat="45.32136" lon="4.61498">
        <ele>595.59997558594</ele>
        <time>2026-05-12T07:34:36.000Z</time>
      </trkpt>
      <trkpt lat="45.32134" lon="4.61499">
        <ele>595.59997558594</ele>
        <time>2026-05-12T07:34:37.000Z</time>
      </trkpt>
      <trkpt lat="45.32131" lon="4.61501">
        <ele>595.79998779297</ele>
        <time>2026-05-12T07:34:38.000Z</time>
      </trkpt>
      <trkpt lat="45.32129" lon="4.61503">
        <ele>595.79998779297</ele>
        <time>2026-05-12T07:34:39.000Z</time>
      </trkpt>
      <trkpt lat="45.32126" lon="4.61505">
        <ele>596</ele>
        <time>2026-05-12T07:34:40.000Z</time>
      </trkpt>
      <trkpt lat="45.32124" lon="4.61507">
        <ele>596.20001220703</ele>
        <time>2026-05-12T07:34:41.000Z</time>
      </trkpt>
      <trkpt lat="45.32122" lon="4.61509">
        <ele>596.20001220703</ele>
        <time>2026-05-12T07:34:42.000Z</time>
      </trkpt>
      <trkpt lat="45.32119" lon="4.61511">
        <ele>596.40002441406</ele>
        <time>2026-05-12T07:34:43.000Z</time>
      </trkpt>
      <trkpt lat="45.32117" lon="4.61513">
        <ele>596.59997558594</ele>
        <time>2026-05-12T07:34:44.000Z</time>
      </trkpt>
      <trkpt lat="45.32116" lon="4.61515">
        <ele>596.79998779297</ele>
        <time>2026-05-12T07:34:45.000Z</time>
      </trkpt>
      <trkpt lat="45.32114" lon="4.61518">
        <ele>597</ele>
        <time>2026-05-12T07:34:46.000Z</time>
      </trkpt>
      <trkpt lat="45.32112" lon="4.61521">
        <ele>597</ele>
        <time>2026-05-12T07:34:47.000Z</time>
      </trkpt>
      <trkpt lat="45.32111" lon="4.61523">
        <ele>597.20001220703</ele>
        <time>2026-05-12T07:34:48.000Z</time>
      </trkpt>
      <trkpt lat="45.32109" lon="4.61525">
        <ele>597.20001220703</ele>
        <time>2026-05-12T07:34:49.000Z</time>
      </trkpt>
      <trkpt lat="45.32107" lon="4.61528">
        <ele>597.40002441406</ele>
        <time>2026-05-12T07:34:50.000Z</time>
      </trkpt>
      <trkpt lat="45.32106" lon="4.61531">
        <ele>597.40002441406</ele>
        <time>2026-05-12T07:34:51.000Z</time>
      </trkpt>
      <trkpt lat="45.32104" lon="4.61534">
        <ele>597.20001220703</ele>
        <time>2026-05-12T07:34:52.000Z</time>
      </trkpt>
      <trkpt lat="45.32101" lon="4.61538">
        <ele>597</ele>
        <time>2026-05-12T07:34:53.000Z</time>
      </trkpt>
      <trkpt lat="45.32098" lon="4.61543">
        <ele>596.79998779297</ele>
        <time>2026-05-12T07:34:54.000Z</time>
      </trkpt>
      <trkpt lat="45.32095" lon="4.61548">
        <ele>596.40002441406</ele>
        <time>2026-05-12T07:34:55.000Z</time>
      </trkpt>
      <trkpt lat="45.32091" lon="4.61553">
        <ele>595.79998779297</ele>
        <time>2026-05-12T07:34:56.000Z</time>
      </trkpt>
      <trkpt lat="45.32087" lon="4.61559">
        <ele>595.20001220703</ele>
        <time>2026-05-12T07:34:57.000Z</time>
      </trkpt>
      <trkpt lat="45.32083" lon="4.61565">
        <ele>594.59997558594</ele>
        <time>2026-05-12T07:34:58.000Z</time>
      </trkpt>
      <trkpt lat="45.32079" lon="4.61571">
        <ele>594</ele>
        <time>2026-05-12T07:34:59.000Z</time>
      </trkpt>
      <trkpt lat="45.32075" lon="4.61577">
        <ele>593.40002441406</ele>
        <time>2026-05-12T07:35:00.000Z</time>
      </trkpt>
      <trkpt lat="45.3207" lon="4.61584">
        <ele>593</ele>
        <time>2026-05-12T07:35:01.000Z</time>
      </trkpt>
      <trkpt lat="45.32065" lon="4.6159">
        <ele>592.59997558594</ele>
        <time>2026-05-12T07:35:02.000Z</time>
      </trkpt>
      <trkpt lat="45.32059" lon="4.61596">
        <ele>592.20001220703</ele>
        <time>2026-05-12T07:35:03.000Z</time>
      </trkpt>
      <trkpt lat="45.32054" lon="4.61602">
        <ele>591.79998779297</ele>
        <time>2026-05-12T07:35:04.000Z</time>
      </trkpt>
      <trkpt lat="45.32048" lon="4.61608">
        <ele>591.59997558594</ele>
        <time>2026-05-12T07:35:05.000Z</time>
      </trkpt>
      <trkpt lat="45.32042" lon="4.61614">
        <ele>591.20001220703</ele>
        <time>2026-05-12T07:35:06.000Z</time>
      </trkpt>
      <trkpt lat="45.32036" lon="4.61619">
        <ele>590.79998779297</ele>
        <time>2026-05-12T07:35:07.000Z</time>
      </trkpt>
      <trkpt lat="45.3203" lon="4.61624">
        <ele>590.59997558594</ele>
        <time>2026-05-12T07:35:08.000Z</time>
      </trkpt>
      <trkpt lat="45.32024" lon="4.61629">
        <ele>590.20001220703</ele>
        <time>2026-05-12T07:35:09.000Z</time>
      </trkpt>
      <trkpt lat="45.32018" lon="4.61635">
        <ele>589.79998779297</ele>
        <time>2026-05-12T07:35:10.000Z</time>
      </trkpt>
      <trkpt lat="45.32013" lon="4.6164">
        <ele>589.40002441406</ele>
        <time>2026-05-12T07:35:11.000Z</time>
      </trkpt>
      <trkpt lat="45.32007" lon="4.61645">
        <ele>589</ele>
        <time>2026-05-12T07:35:12.000Z</time>
      </trkpt>
      <trkpt lat="45.32001" lon="4.6165">
        <ele>588.59997558594</ele>
        <time>2026-05-12T07:35:13.000Z</time>
      </trkpt>
      <trkpt lat="45.31996" lon="4.61655">
        <ele>588.40002441406</ele>
        <time>2026-05-12T07:35:14.000Z</time>
      </trkpt>
      <trkpt lat="45.31991" lon="4.6166">
        <ele>588.20001220703</ele>
        <time>2026-05-12T07:35:15.000Z</time>
      </trkpt>
      <trkpt lat="45.31987" lon="4.61665">
        <ele>588</ele>
        <time>2026-05-12T07:35:16.000Z</time>
      </trkpt>
      <trkpt lat="45.31983" lon="4.6167">
        <ele>587.59997558594</ele>
        <time>2026-05-12T07:35:17.000Z</time>
      </trkpt>
      <trkpt lat="45.31979" lon="4.61674">
        <ele>587.40002441406</ele>
        <time>2026-05-12T07:35:18.000Z</time>
      </trkpt>
      <trkpt lat="45.31975" lon="4.61679">
        <ele>587</ele>
        <time>2026-05-12T07:35:19.000Z</time>
      </trkpt>
      <trkpt lat="45.31972" lon="4.61684">
        <ele>586.40002441406</ele>
        <time>2026-05-12T07:35:20.000Z</time>
      </trkpt>
      <trkpt lat="45.31969" lon="4.61688">
        <ele>585.79998779297</ele>
        <time>2026-05-12T07:35:21.000Z</time>
      </trkpt>
      <trkpt lat="45.31966" lon="4.61692">
        <ele>585.20001220703</ele>
        <time>2026-05-12T07:35:22.000Z</time>
      </trkpt>
      <trkpt lat="45.31963" lon="4.61696">
        <ele>584.79998779297</ele>
        <time>2026-05-12T07:35:23.000Z</time>
      </trkpt>
      <trkpt lat="45.31961" lon="4.61698">
        <ele>584.40002441406</ele>
        <time>2026-05-12T07:35:24.000Z</time>
      </trkpt>
      <trkpt lat="45.31959" lon="4.61701">
        <ele>584.20001220703</ele>
        <time>2026-05-12T07:35:25.000Z</time>
      </trkpt>
      <trkpt lat="45.31958" lon="4.61703">
        <ele>584</ele>
        <time>2026-05-12T07:35:26.000Z</time>
      </trkpt>
      <trkpt lat="45.31956" lon="4.61706">
        <ele>583.79998779297</ele>
        <time>2026-05-12T07:35:27.000Z</time>
      </trkpt>
      <trkpt lat="45.31955" lon="4.61709">
        <ele>583.59997558594</ele>
        <time>2026-05-12T07:35:28.000Z</time>
      </trkpt>
      <trkpt lat="45.31954" lon="4.61712">
        <ele>583.59997558594</ele>
        <time>2026-05-12T07:35:29.000Z</time>
      </trkpt>
      <trkpt lat="45.31953" lon="4.61717">
        <ele>583.40002441406</ele>
        <time>2026-05-12T07:35:30.000Z</time>
      </trkpt>
      <trkpt lat="45.31952" lon="4.61722">
        <ele>583.20001220703</ele>
        <time>2026-05-12T07:35:31.000Z</time>
      </trkpt>
      <trkpt lat="45.31951" lon="4.61728">
        <ele>583</ele>
        <time>2026-05-12T07:35:32.000Z</time>
      </trkpt>
      <trkpt lat="45.3195" lon="4.61735">
        <ele>582.59997558594</ele>
        <time>2026-05-12T07:35:33.000Z</time>
      </trkpt>
      <trkpt lat="45.31948" lon="4.61741">
        <ele>582.20001220703</ele>
        <time>2026-05-12T07:35:34.000Z</time>
      </trkpt>
      <trkpt lat="45.31946" lon="4.61747">
        <ele>581.79998779297</ele>
        <time>2026-05-12T07:35:35.000Z</time>
      </trkpt>
      <trkpt lat="45.31943" lon="4.61753">
        <ele>581.59997558594</ele>
        <time>2026-05-12T07:35:36.000Z</time>
      </trkpt>
      <trkpt lat="45.3194" lon="4.61759">
        <ele>581.20001220703</ele>
        <time>2026-05-12T07:35:37.000Z</time>
      </trkpt>
      <trkpt lat="45.31936" lon="4.61765">
        <ele>580.79998779297</ele>
        <time>2026-05-12T07:35:38.000Z</time>
      </trkpt>
      <trkpt lat="45.31933" lon="4.61771">
        <ele>580.59997558594</ele>
        <time>2026-05-12T07:35:39.000Z</time>
      </trkpt>
      <trkpt lat="45.31929" lon="4.61776">
        <ele>580.40002441406</ele>
        <time>2026-05-12T07:35:40.000Z</time>
      </trkpt>
      <trkpt lat="45.31925" lon="4.61781">
        <ele>580.20001220703</ele>
        <time>2026-05-12T07:35:41.000Z</time>
      </trkpt>
      <trkpt lat="45.31921" lon="4.61785">
        <ele>580</ele>
        <time>2026-05-12T07:35:42.000Z</time>
      </trkpt>
      <trkpt lat="45.31917" lon="4.6179">
        <ele>579.79998779297</ele>
        <time>2026-05-12T07:35:43.000Z</time>
      </trkpt>
      <trkpt lat="45.31913" lon="4.61795">
        <ele>579.79998779297</ele>
        <time>2026-05-12T07:35:44.000Z</time>
      </trkpt>
      <trkpt lat="45.31909" lon="4.618">
        <ele>579.79998779297</ele>
        <time>2026-05-12T07:35:45.000Z</time>
      </trkpt>
      <trkpt lat="45.31905" lon="4.61805">
        <ele>579.59997558594</ele>
        <time>2026-05-12T07:35:46.000Z</time>
      </trkpt>
      <trkpt lat="45.31902" lon="4.61809">
        <ele>579.59997558594</ele>
        <time>2026-05-12T07:35:47.000Z</time>
      </trkpt>
      <trkpt lat="45.31898" lon="4.61814">
        <ele>579.59997558594</ele>
        <time>2026-05-12T07:35:48.000Z</time>
      </trkpt>
      <trkpt lat="45.31894" lon="4.61818">
        <ele>579.59997558594</ele>
        <time>2026-05-12T07:35:49.000Z</time>
      </trkpt>
      <trkpt lat="45.3189" lon="4.61822">
        <ele>579.40002441406</ele>
        <time>2026-05-12T07:35:50.000Z</time>
      </trkpt>
      <trkpt lat="45.31885" lon="4.61825">
        <ele>579.40002441406</ele>
        <time>2026-05-12T07:35:51.000Z</time>
      </trkpt>
      <trkpt lat="45.31881" lon="4.61829">
        <ele>579.20001220703</ele>
        <time>2026-05-12T07:35:52.000Z</time>
      </trkpt>
      <trkpt lat="45.31877" lon="4.61833">
        <ele>579.20001220703</ele>
        <time>2026-05-12T07:35:53.000Z</time>
      </trkpt>
      <trkpt lat="45.31874" lon="4.61837">
        <ele>579</ele>
        <time>2026-05-12T07:35:54.000Z</time>
      </trkpt>
      <trkpt lat="45.31871" lon="4.61842">
        <ele>578.79998779297</ele>
        <time>2026-05-12T07:35:55.000Z</time>
      </trkpt>
      <trkpt lat="45.31869" lon="4.61848">
        <ele>578.40002441406</ele>
        <time>2026-05-12T07:35:56.000Z</time>
      </trkpt>
      <trkpt lat="45.31867" lon="4.61855">
        <ele>578</ele>
        <time>2026-05-12T07:35:57.000Z</time>
      </trkpt>
      <trkpt lat="45.31864" lon="4.61863">
        <ele>577.59997558594</ele>
        <time>2026-05-12T07:35:58.000Z</time>
      </trkpt>
      <trkpt lat="45.31862" lon="4.6187">
        <ele>577</ele>
        <time>2026-05-12T07:35:59.000Z</time>
      </trkpt>
      <trkpt lat="45.31859" lon="4.61878">
        <ele>576.20001220703</ele>
        <time>2026-05-12T07:36:00.000Z</time>
      </trkpt>
      <trkpt lat="45.31856" lon="4.61886">
        <ele>575.59997558594</ele>
        <time>2026-05-12T07:36:01.000Z</time>
      </trkpt>
      <trkpt lat="45.31853" lon="4.61895">
        <ele>575</ele>
        <time>2026-05-12T07:36:02.000Z</time>
      </trkpt>
      <trkpt lat="45.3185" lon="4.61904">
        <ele>574.40002441406</ele>
        <time>2026-05-12T07:36:03.000Z</time>
      </trkpt>
      <trkpt lat="45.31847" lon="4.61913">
        <ele>573.79998779297</ele>
        <time>2026-05-12T07:36:04.000Z</time>
      </trkpt>
      <trkpt lat="45.31843" lon="4.61922">
        <ele>573.40002441406</ele>
        <time>2026-05-12T07:36:05.000Z</time>
      </trkpt>
      <trkpt lat="45.31839" lon="4.61931">
        <ele>572.40002441406</ele>
        <time>2026-05-12T07:36:06.000Z</time>
      </trkpt>
      <trkpt lat="45.31835" lon="4.61941">
        <ele>571.20001220703</ele>
        <time>2026-05-12T07:36:07.000Z</time>
      </trkpt>
      <trkpt lat="45.31831" lon="4.61951">
        <ele>570.20001220703</ele>
        <time>2026-05-12T07:36:08.000Z</time>
      </trkpt>
      <trkpt lat="45.31826" lon="4.61961">
        <ele>569.40002441406</ele>
        <time>2026-05-12T07:36:09.000Z</time>
      </trkpt>
      <trkpt lat="45.31822" lon="4.61971">
        <ele>568.59997558594</ele>
        <time>2026-05-12T07:36:10.000Z</time>
      </trkpt>
      <trkpt lat="45.31817" lon="4.61981">
        <ele>568.20001220703</ele>
        <time>2026-05-12T07:36:11.000Z</time>
      </trkpt>
      <trkpt lat="45.31813" lon="4.61991">
        <ele>567.79998779297</ele>
        <time>2026-05-12T07:36:12.000Z</time>
      </trkpt>
      <trkpt lat="45.31809" lon="4.62001">
        <ele>567.40002441406</ele>
        <time>2026-05-12T07:36:13.000Z</time>
      </trkpt>
      <trkpt lat="45.31805" lon="4.6201">
        <ele>567.20001220703</ele>
        <time>2026-05-12T07:36:14.000Z</time>
      </trkpt>
      <trkpt lat="45.31801" lon="4.6202">
        <ele>567.20001220703</ele>
        <time>2026-05-12T07:36:15.000Z</time>
      </trkpt>
      <trkpt lat="45.31797" lon="4.62029">
        <ele>567.20001220703</ele>
        <time>2026-05-12T07:36:16.000Z</time>
      </trkpt>
      <trkpt lat="45.31793" lon="4.62038">
        <ele>567</ele>
        <time>2026-05-12T07:36:17.000Z</time>
      </trkpt>
      <trkpt lat="45.31789" lon="4.62047">
        <ele>567</ele>
        <time>2026-05-12T07:36:18.000Z</time>
      </trkpt>
      <trkpt lat="45.31785" lon="4.62056">
        <ele>566.79998779297</ele>
        <time>2026-05-12T07:36:19.000Z</time>
      </trkpt>
      <trkpt lat="45.31781" lon="4.62064">
        <ele>566.79998779297</ele>
        <time>2026-05-12T07:36:20.000Z</time>
      </trkpt>
      <trkpt lat="45.31777" lon="4.62072">
        <ele>566.59997558594</ele>
        <time>2026-05-12T07:36:21.000Z</time>
      </trkpt>
      <trkpt lat="45.31772" lon="4.62078">
        <ele>566.59997558594</ele>
        <time>2026-05-12T07:36:22.000Z</time>
      </trkpt>
      <trkpt lat="45.31768" lon="4.62084">
        <ele>566.59997558594</ele>
        <time>2026-05-12T07:36:23.000Z</time>
      </trkpt>
      <trkpt lat="45.31764" lon="4.62089">
        <ele>566.79998779297</ele>
        <time>2026-05-12T07:36:24.000Z</time>
      </trkpt>
      <trkpt lat="45.3176" lon="4.62095">
        <ele>567.20001220703</ele>
        <time>2026-05-12T07:36:25.000Z</time>
      </trkpt>
      <trkpt lat="45.31757" lon="4.621">
        <ele>567.40002441406</ele>
        <time>2026-05-12T07:36:26.000Z</time>
      </trkpt>
      <trkpt lat="45.31755" lon="4.62103">
        <ele>567.79998779297</ele>
        <time>2026-05-12T07:36:27.000Z</time>
      </trkpt>
      <trkpt lat="45.31753" lon="4.62106">
        <ele>568.20001220703</ele>
        <time>2026-05-12T07:36:28.000Z</time>
      </trkpt>
      <trkpt lat="45.31752" lon="4.62108">
        <ele>568.59997558594</ele>
        <time>2026-05-12T07:36:29.000Z</time>
      </trkpt>
      <trkpt lat="45.31751" lon="4.62111">
        <ele>569.20001220703</ele>
        <time>2026-05-12T07:36:30.000Z</time>
      </trkpt>
      <trkpt lat="45.31749" lon="4.62113">
        <ele>569.59997558594</ele>
        <time>2026-05-12T07:36:31.000Z</time>
      </trkpt>
      <trkpt lat="45.31748" lon="4.62115">
        <ele>570</ele>
        <time>2026-05-12T07:36:32.000Z</time>
      </trkpt>
      <trkpt lat="45.31746" lon="4.62118">
        <ele>570</ele>
        <time>2026-05-12T07:36:33.000Z</time>
      </trkpt>
      <trkpt lat="45.31744" lon="4.62121">
        <ele>570.20001220703</ele>
        <time>2026-05-12T07:36:34.000Z</time>
      </trkpt>
      <trkpt lat="45.31742" lon="4.62124">
        <ele>570.20001220703</ele>
        <time>2026-05-12T07:36:35.000Z</time>
      </trkpt>
      <trkpt lat="45.3174" lon="4.62127">
        <ele>570.20001220703</ele>
        <time>2026-05-12T07:36:36.000Z</time>
      </trkpt>
      <trkpt lat="45.31738" lon="4.62129">
        <ele>570.20001220703</ele>
        <time>2026-05-12T07:36:37.000Z</time>
      </trkpt>
      <trkpt lat="45.31736" lon="4.62132">
        <ele>570.20001220703</ele>
        <time>2026-05-12T07:36:38.000Z</time>
      </trkpt>
      <trkpt lat="45.31733" lon="4.62136">
        <ele>570</ele>
        <time>2026-05-12T07:36:39.000Z</time>
      </trkpt>
      <trkpt lat="45.31731" lon="4.62139">
        <ele>570</ele>
        <time>2026-05-12T07:36:40.000Z</time>
      </trkpt>
      <trkpt lat="45.31729" lon="4.62143">
        <ele>570</ele>
        <time>2026-05-12T07:36:41.000Z</time>
      </trkpt>
      <trkpt lat="45.31728" lon="4.62146">
        <ele>570</ele>
        <time>2026-05-12T07:36:42.000Z</time>
      </trkpt>
      <trkpt lat="45.31727" lon="4.62149">
        <ele>570</ele>
        <time>2026-05-12T07:36:43.000Z</time>
      </trkpt>
      <trkpt lat="45.31724" lon="4.62154">
        <ele>570.20001220703</ele>
        <time>2026-05-12T07:36:44.000Z</time>
      </trkpt>
      <trkpt lat="45.31722" lon="4.62158">
        <ele>570.20001220703</ele>
        <time>2026-05-12T07:36:45.000Z</time>
      </trkpt>
      <trkpt lat="45.3172" lon="4.62162">
        <ele>570.20001220703</ele>
        <time>2026-05-12T07:36:46.000Z</time>
      </trkpt>
      <trkpt lat="45.31719" lon="4.62165">
        <ele>570.20001220703</ele>
        <time>2026-05-12T07:36:47.000Z</time>
      </trkpt>
      <trkpt lat="45.31718" lon="4.62169">
        <ele>570.20001220703</ele>
        <time>2026-05-12T07:36:48.000Z</time>
      </trkpt>
      <trkpt lat="45.31716" lon="4.62173">
        <ele>570.20001220703</ele>
        <time>2026-05-12T07:36:49.000Z</time>
      </trkpt>
      <trkpt lat="45.31715" lon="4.62177">
        <ele>570.20001220703</ele>
        <time>2026-05-12T07:36:50.000Z</time>
      </trkpt>
      <trkpt lat="45.31713" lon="4.62181">
        <ele>570.40002441406</ele>
        <time>2026-05-12T07:36:51.000Z</time>
      </trkpt>
      <trkpt lat="45.31712" lon="4.62185">
        <ele>570.20001220703</ele>
        <time>2026-05-12T07:36:52.000Z</time>
      </trkpt>
      <trkpt lat="45.3171" lon="4.6219">
        <ele>570.20001220703</ele>
        <time>2026-05-12T07:36:53.000Z</time>
      </trkpt>
      <trkpt lat="45.31708" lon="4.62194">
        <ele>570.20001220703</ele>
        <time>2026-05-12T07:36:54.000Z</time>
      </trkpt>
      <trkpt lat="45.31706" lon="4.622">
        <ele>570.20001220703</ele>
        <time>2026-05-12T07:36:55.000Z</time>
      </trkpt>
      <trkpt lat="45.31704" lon="4.62205">
        <ele>570.20001220703</ele>
        <time>2026-05-12T07:36:56.000Z</time>
      </trkpt>
      <trkpt lat="45.31702" lon="4.62209">
        <ele>570.20001220703</ele>
        <time>2026-05-12T07:36:57.000Z</time>
      </trkpt>
      <trkpt lat="45.31701" lon="4.62214">
        <ele>570.20001220703</ele>
        <time>2026-05-12T07:36:58.000Z</time>
      </trkpt>
      <trkpt lat="45.317" lon="4.62218">
        <ele>570</ele>
        <time>2026-05-12T07:36:59.000Z</time>
      </trkpt>
      <trkpt lat="45.31698" lon="4.62224">
        <ele>570</ele>
        <time>2026-05-12T07:37:00.000Z</time>
      </trkpt>
      <trkpt lat="45.31698" lon="4.62229">
        <ele>570</ele>
        <time>2026-05-12T07:37:01.000Z</time>
      </trkpt>
      <trkpt lat="45.31697" lon="4.62235">
        <ele>570</ele>
        <time>2026-05-12T07:37:02.000Z</time>
      </trkpt>
      <trkpt lat="45.31697" lon="4.6224">
        <ele>570</ele>
        <time>2026-05-12T07:37:03.000Z</time>
      </trkpt>
      <trkpt lat="45.31695" lon="4.62245">
        <ele>570</ele>
        <time>2026-05-12T07:37:04.000Z</time>
      </trkpt>
      <trkpt lat="45.31693" lon="4.62252">
        <ele>570</ele>
        <time>2026-05-12T07:37:05.000Z</time>
      </trkpt>
      <trkpt lat="45.31691" lon="4.62257">
        <ele>570</ele>
        <time>2026-05-12T07:37:06.000Z</time>
      </trkpt>
      <trkpt lat="45.31689" lon="4.62262">
        <ele>569.79998779297</ele>
        <time>2026-05-12T07:37:07.000Z</time>
      </trkpt>
      <trkpt lat="45.31688" lon="4.62268">
        <ele>569.79998779297</ele>
        <time>2026-05-12T07:37:08.000Z</time>
      </trkpt>
      <trkpt lat="45.31687" lon="4.62274">
        <ele>569.59997558594</ele>
        <time>2026-05-12T07:37:09.000Z</time>
      </trkpt>
      <trkpt lat="45.31686" lon="4.6228">
        <ele>569.59997558594</ele>
        <time>2026-05-12T07:37:10.000Z</time>
      </trkpt>
      <trkpt lat="45.31685" lon="4.62286">
        <ele>569.40002441406</ele>
        <time>2026-05-12T07:37:11.000Z</time>
      </trkpt>
      <trkpt lat="45.31684" lon="4.62292">
        <ele>569.20001220703</ele>
        <time>2026-05-12T07:37:12.000Z</time>
      </trkpt>
      <trkpt lat="45.31682" lon="4.62298">
        <ele>569.20001220703</ele>
        <time>2026-05-12T07:37:13.000Z</time>
      </trkpt>
      <trkpt lat="45.31679" lon="4.62305">
        <ele>569</ele>
        <time>2026-05-12T07:37:14.000Z</time>
      </trkpt>
      <trkpt lat="45.31677" lon="4.6231">
        <ele>568.79998779297</ele>
        <time>2026-05-12T07:37:15.000Z</time>
      </trkpt>
      <trkpt lat="45.31675" lon="4.62315">
        <ele>568.79998779297</ele>
        <time>2026-05-12T07:37:16.000Z</time>
      </trkpt>
      <trkpt lat="45.31673" lon="4.6232">
        <ele>568.59997558594</ele>
        <time>2026-05-12T07:37:17.000Z</time>
      </trkpt>
      <trkpt lat="45.31671" lon="4.62325">
        <ele>568.40002441406</ele>
        <time>2026-05-12T07:37:18.000Z</time>
      </trkpt>
      <trkpt lat="45.31669" lon="4.62331">
        <ele>568.20001220703</ele>
        <time>2026-05-12T07:37:19.000Z</time>
      </trkpt>
      <trkpt lat="45.31667" lon="4.62337">
        <ele>568</ele>
        <time>2026-05-12T07:37:20.000Z</time>
      </trkpt>
      <trkpt lat="45.31664" lon="4.62342">
        <ele>567.79998779297</ele>
        <time>2026-05-12T07:37:21.000Z</time>
      </trkpt>
      <trkpt lat="45.31662" lon="4.62346">
        <ele>567.79998779297</ele>
        <time>2026-05-12T07:37:22.000Z</time>
      </trkpt>
      <trkpt lat="45.3166" lon="4.62351">
        <ele>567.59997558594</ele>
        <time>2026-05-12T07:37:23.000Z</time>
      </trkpt>
      <trkpt lat="45.31657" lon="4.62356">
        <ele>567.59997558594</ele>
        <time>2026-05-12T07:37:24.000Z</time>
      </trkpt>
      <trkpt lat="45.31656" lon="4.62362">
        <ele>567.59997558594</ele>
        <time>2026-05-12T07:37:25.000Z</time>
      </trkpt>
      <trkpt lat="45.31655" lon="4.62367">
        <ele>567.59997558594</ele>
        <time>2026-05-12T07:37:26.000Z</time>
      </trkpt>
      <trkpt lat="45.31654" lon="4.62372">
        <ele>567.59997558594</ele>
        <time>2026-05-12T07:37:27.000Z</time>
      </trkpt>
      <trkpt lat="45.31653" lon="4.62377">
        <ele>567.59997558594</ele>
        <time>2026-05-12T07:37:28.000Z</time>
      </trkpt>
      <trkpt lat="45.31653" lon="4.62381">
        <ele>567.59997558594</ele>
        <time>2026-05-12T07:37:29.000Z</time>
      </trkpt>
      <trkpt lat="45.31652" lon="4.62386">
        <ele>567.79998779297</ele>
        <time>2026-05-12T07:37:30.000Z</time>
      </trkpt>
      <trkpt lat="45.31652" lon="4.6239">
        <ele>567.79998779297</ele>
        <time>2026-05-12T07:37:31.000Z</time>
      </trkpt>
      <trkpt lat="45.31652" lon="4.62395">
        <ele>568</ele>
        <time>2026-05-12T07:37:32.000Z</time>
      </trkpt>
      <trkpt lat="45.31652" lon="4.62399">
        <ele>568</ele>
        <time>2026-05-12T07:37:33.000Z</time>
      </trkpt>
      <trkpt lat="45.31652" lon="4.62403">
        <ele>568</ele>
        <time>2026-05-12T07:37:34.000Z</time>
      </trkpt>
      <trkpt lat="45.31651" lon="4.62407">
        <ele>568.20001220703</ele>
        <time>2026-05-12T07:37:35.000Z</time>
      </trkpt>
      <trkpt lat="45.3165" lon="4.62411">
        <ele>568.40002441406</ele>
        <time>2026-05-12T07:37:36.000Z</time>
      </trkpt>
      <trkpt lat="45.31648" lon="4.62416">
        <ele>568.40002441406</ele>
        <time>2026-05-12T07:37:37.000Z</time>
      </trkpt>
      <trkpt lat="45.31647" lon="4.6242">
        <ele>568.59997558594</ele>
        <time>2026-05-12T07:37:38.000Z</time>
      </trkpt>
      <trkpt lat="45.31647" lon="4.62425">
        <ele>568.59997558594</ele>
        <time>2026-05-12T07:37:39.000Z</time>
      </trkpt>
      <trkpt lat="45.31647" lon="4.62431">
        <ele>568.79998779297</ele>
        <time>2026-05-12T07:37:40.000Z</time>
      </trkpt>
      <trkpt lat="45.31646" lon="4.62437">
        <ele>568.79998779297</ele>
        <time>2026-05-12T07:37:41.000Z</time>
      </trkpt>
      <trkpt lat="45.31644" lon="4.62442">
        <ele>568.79998779297</ele>
        <time>2026-05-12T07:37:42.000Z</time>
      </trkpt>
      <trkpt lat="45.31643" lon="4.62447">
        <ele>569</ele>
        <time>2026-05-12T07:37:43.000Z</time>
      </trkpt>
      <trkpt lat="45.31643" lon="4.62451">
        <ele>569</ele>
        <time>2026-05-12T07:37:44.000Z</time>
      </trkpt>
      <trkpt lat="45.31643" lon="4.62457">
        <ele>569.20001220703</ele>
        <time>2026-05-12T07:37:45.000Z</time>
      </trkpt>
      <trkpt lat="45.31642" lon="4.62463">
        <ele>569.20001220703</ele>
        <time>2026-05-12T07:37:46.000Z</time>
      </trkpt>
      <trkpt lat="45.3164" lon="4.62469">
        <ele>569.20001220703</ele>
        <time>2026-05-12T07:37:47.000Z</time>
      </trkpt>
      <trkpt lat="45.31643" lon="4.62474">
        <ele>569.40002441406</ele>
        <time>2026-05-12T07:37:48.000Z</time>
      </trkpt>
      <trkpt lat="45.31641" lon="4.62478">
        <ele>569.40002441406</ele>
        <time>2026-05-12T07:37:49.000Z</time>
      </trkpt>
      <trkpt lat="45.3164" lon="4.62484">
        <ele>569.40002441406</ele>
        <time>2026-05-12T07:37:50.000Z</time>
      </trkpt>
      <trkpt lat="45.31638" lon="4.62489">
        <ele>569.40002441406</ele>
        <time>2026-05-12T07:37:51.000Z</time>
      </trkpt>
      <trkpt lat="45.31637" lon="4.62493">
        <ele>569.59997558594</ele>
        <time>2026-05-12T07:37:52.000Z</time>
      </trkpt>
      <trkpt lat="45.31636" lon="4.62498">
        <ele>569.59997558594</ele>
        <time>2026-05-12T07:37:53.000Z</time>
      </trkpt>
      <trkpt lat="45.31635" lon="4.62503">
        <ele>569.59997558594</ele>
        <time>2026-05-12T07:37:54.000Z</time>
      </trkpt>
      <trkpt lat="45.31634" lon="4.62507">
        <ele>569.79998779297</ele>
        <time>2026-05-12T07:37:55.000Z</time>
      </trkpt>
      <trkpt lat="45.31632" lon="4.62513">
        <ele>569.79998779297</ele>
        <time>2026-05-12T07:37:56.000Z</time>
      </trkpt>
      <trkpt lat="45.31629" lon="4.62517">
        <ele>569.79998779297</ele>
        <time>2026-05-12T07:37:57.000Z</time>
      </trkpt>
      <trkpt lat="45.31629" lon="4.62521">
        <ele>570</ele>
        <time>2026-05-12T07:37:58.000Z</time>
      </trkpt>
      <trkpt lat="45.3163" lon="4.62524">
        <ele>570</ele>
        <time>2026-05-12T07:37:59.000Z</time>
      </trkpt>
      <trkpt lat="45.3163" lon="4.62528">
        <ele>570</ele>
        <time>2026-05-12T07:38:00.000Z</time>
      </trkpt>
      <trkpt lat="45.31629" lon="4.62532">
        <ele>570.20001220703</ele>
        <time>2026-05-12T07:38:01.000Z</time>
      </trkpt>
      <trkpt lat="45.31628" lon="4.62538">
        <ele>570.40002441406</ele>
        <time>2026-05-12T07:38:02.000Z</time>
      </trkpt>
      <trkpt lat="45.31626" lon="4.62542">
        <ele>570.40002441406</ele>
        <time>2026-05-12T07:38:03.000Z</time>
      </trkpt>
      <trkpt lat="45.31625" lon="4.62547">
        <ele>570.59997558594</ele>
        <time>2026-05-12T07:38:04.000Z</time>
      </trkpt>
      <trkpt lat="45.31626" lon="4.6255">
        <ele>570.59997558594</ele>
        <time>2026-05-12T07:38:05.000Z</time>
      </trkpt>
      <trkpt lat="45.31625" lon="4.62554">
        <ele>570.59997558594</ele>
        <time>2026-05-12T07:38:06.000Z</time>
      </trkpt>
      <trkpt lat="45.31625" lon="4.62559">
        <ele>570.59997558594</ele>
        <time>2026-05-12T07:38:07.000Z</time>
      </trkpt>
      <trkpt lat="45.31625" lon="4.62564">
        <ele>570.59997558594</ele>
        <time>2026-05-12T07:38:08.000Z</time>
      </trkpt>
      <trkpt lat="45.31624" lon="4.6257">
        <ele>570.59997558594</ele>
        <time>2026-05-12T07:38:09.000Z</time>
      </trkpt>
      <trkpt lat="45.31624" lon="4.62575">
        <ele>570.59997558594</ele>
        <time>2026-05-12T07:38:10.000Z</time>
      </trkpt>
      <trkpt lat="45.31624" lon="4.62579">
        <ele>570.59997558594</ele>
        <time>2026-05-12T07:38:11.000Z</time>
      </trkpt>
      <trkpt lat="45.31622" lon="4.62583">
        <ele>570.59997558594</ele>
        <time>2026-05-12T07:38:12.000Z</time>
      </trkpt>
      <trkpt lat="45.31621" lon="4.62587">
        <ele>570.59997558594</ele>
        <time>2026-05-12T07:38:13.000Z</time>
      </trkpt>
      <trkpt lat="45.31621" lon="4.62592">
        <ele>570.79998779297</ele>
        <time>2026-05-12T07:38:14.000Z</time>
      </trkpt>
      <trkpt lat="45.3162" lon="4.62596">
        <ele>570.79998779297</ele>
        <time>2026-05-12T07:38:15.000Z</time>
      </trkpt>
      <trkpt lat="45.3162" lon="4.62601">
        <ele>570.79998779297</ele>
        <time>2026-05-12T07:38:16.000Z</time>
      </trkpt>
      <trkpt lat="45.31619" lon="4.62604">
        <ele>571</ele>
        <time>2026-05-12T07:38:17.000Z</time>
      </trkpt>
      <trkpt lat="45.31617" lon="4.62608">
        <ele>571</ele>
        <time>2026-05-12T07:38:18.000Z</time>
      </trkpt>
      <trkpt lat="45.31616" lon="4.62613">
        <ele>571.20001220703</ele>
        <time>2026-05-12T07:38:19.000Z</time>
      </trkpt>
      <trkpt lat="45.31615" lon="4.62617">
        <ele>571.20001220703</ele>
        <time>2026-05-12T07:38:20.000Z</time>
      </trkpt>
      <trkpt lat="45.31614" lon="4.62622">
        <ele>571.20001220703</ele>
        <time>2026-05-12T07:38:21.000Z</time>
      </trkpt>
      <trkpt lat="45.31614" lon="4.62625">
        <ele>571.40002441406</ele>
        <time>2026-05-12T07:38:22.000Z</time>
      </trkpt>
      <trkpt lat="45.31614" lon="4.62628">
        <ele>571.40002441406</ele>
        <time>2026-05-12T07:38:23.000Z</time>
      </trkpt>
      <trkpt lat="45.31613" lon="4.62631">
        <ele>571.40002441406</ele>
        <time>2026-05-12T07:38:24.000Z</time>
      </trkpt>
      <trkpt lat="45.31613" lon="4.62634">
        <ele>571.40002441406</ele>
        <time>2026-05-12T07:38:25.000Z</time>
      </trkpt>
      <trkpt lat="45.31613" lon="4.62637">
        <ele>571.40002441406</ele>
        <time>2026-05-12T07:38:26.000Z</time>
      </trkpt>
      <trkpt lat="45.31613" lon="4.6264">
        <ele>571.59997558594</ele>
        <time>2026-05-12T07:38:27.000Z</time>
      </trkpt>
      <trkpt lat="45.31613" lon="4.62642">
        <ele>571.59997558594</ele>
        <time>2026-05-12T07:38:28.000Z</time>
      </trkpt>
      <trkpt lat="45.31612" lon="4.62645">
        <ele>571.59997558594</ele>
        <time>2026-05-12T07:38:29.000Z</time>
      </trkpt>
      <trkpt lat="45.31611" lon="4.62649">
        <ele>571.59997558594</ele>
        <time>2026-05-12T07:38:30.000Z</time>
      </trkpt>
      <trkpt lat="45.3161" lon="4.62655">
        <ele>571.40002441406</ele>
        <time>2026-05-12T07:38:31.000Z</time>
      </trkpt>
      <trkpt lat="45.3161" lon="4.62659">
        <ele>571.40002441406</ele>
        <time>2026-05-12T07:38:32.000Z</time>
      </trkpt>
      <trkpt lat="45.3161" lon="4.62664">
        <ele>571.40002441406</ele>
        <time>2026-05-12T07:38:33.000Z</time>
      </trkpt>
      <trkpt lat="45.31609" lon="4.62668">
        <ele>571.40002441406</ele>
        <time>2026-05-12T07:38:34.000Z</time>
      </trkpt>
      <trkpt lat="45.31609" lon="4.62673">
        <ele>571.59997558594</ele>
        <time>2026-05-12T07:38:35.000Z</time>
      </trkpt>
      <trkpt lat="45.31608" lon="4.62678">
        <ele>571.59997558594</ele>
        <time>2026-05-12T07:38:36.000Z</time>
      </trkpt>
      <trkpt lat="45.31607" lon="4.62683">
        <ele>571.79998779297</ele>
        <time>2026-05-12T07:38:37.000Z</time>
      </trkpt>
      <trkpt lat="45.31607" lon="4.62687">
        <ele>571.79998779297</ele>
        <time>2026-05-12T07:38:38.000Z</time>
      </trkpt>
      <trkpt lat="45.31606" lon="4.62692">
        <ele>572</ele>
        <time>2026-05-12T07:38:39.000Z</time>
      </trkpt>
      <trkpt lat="45.31605" lon="4.62696">
        <ele>572</ele>
        <time>2026-05-12T07:38:40.000Z</time>
      </trkpt>
      <trkpt lat="45.31605" lon="4.62702">
        <ele>572</ele>
        <time>2026-05-12T07:38:41.000Z</time>
      </trkpt>
      <trkpt lat="45.31605" lon="4.62707">
        <ele>572</ele>
        <time>2026-05-12T07:38:42.000Z</time>
      </trkpt>
      <trkpt lat="45.31605" lon="4.62711">
        <ele>572</ele>
        <time>2026-05-12T07:38:43.000Z</time>
      </trkpt>
      <trkpt lat="45.31606" lon="4.62715">
        <ele>572</ele>
        <time>2026-05-12T07:38:44.000Z</time>
      </trkpt>
      <trkpt lat="45.31606" lon="4.6272">
        <ele>572.20001220703</ele>
        <time>2026-05-12T07:38:45.000Z</time>
      </trkpt>
      <trkpt lat="45.31605" lon="4.62725">
        <ele>572.20001220703</ele>
        <time>2026-05-12T07:38:46.000Z</time>
      </trkpt>
      <trkpt lat="45.31604" lon="4.6273">
        <ele>572.40002441406</ele>
        <time>2026-05-12T07:38:47.000Z</time>
      </trkpt>
      <trkpt lat="45.31602" lon="4.62733">
        <ele>572.40002441406</ele>
        <time>2026-05-12T07:38:48.000Z</time>
      </trkpt>
      <trkpt lat="45.31601" lon="4.62737">
        <ele>572.59997558594</ele>
        <time>2026-05-12T07:38:49.000Z</time>
      </trkpt>
      <trkpt lat="45.31599" lon="4.62741">
        <ele>572.59997558594</ele>
        <time>2026-05-12T07:38:50.000Z</time>
      </trkpt>
      <trkpt lat="45.31597" lon="4.62745">
        <ele>572.59997558594</ele>
        <time>2026-05-12T07:38:51.000Z</time>
      </trkpt>
      <trkpt lat="45.31595" lon="4.6275">
        <ele>572.40002441406</ele>
        <time>2026-05-12T07:38:52.000Z</time>
      </trkpt>
      <trkpt lat="45.31593" lon="4.62755">
        <ele>572.20001220703</ele>
        <time>2026-05-12T07:38:53.000Z</time>
      </trkpt>
      <trkpt lat="45.31591" lon="4.62761">
        <ele>572</ele>
        <time>2026-05-12T07:38:54.000Z</time>
      </trkpt>
      <trkpt lat="45.3159" lon="4.62767">
        <ele>571.79998779297</ele>
        <time>2026-05-12T07:38:55.000Z</time>
      </trkpt>
      <trkpt lat="45.3159" lon="4.62772">
        <ele>571.59997558594</ele>
        <time>2026-05-12T07:38:56.000Z</time>
      </trkpt>
      <trkpt lat="45.3159" lon="4.62778">
        <ele>571.40002441406</ele>
        <time>2026-05-12T07:38:57.000Z</time>
      </trkpt>
      <trkpt lat="45.31591" lon="4.62783">
        <ele>571.20001220703</ele>
        <time>2026-05-12T07:38:58.000Z</time>
      </trkpt>
      <trkpt lat="45.31591" lon="4.62788">
        <ele>571.20001220703</ele>
        <time>2026-05-12T07:38:59.000Z</time>
      </trkpt>
      <trkpt lat="45.31591" lon="4.62792">
        <ele>571.40002441406</ele>
        <time>2026-05-12T07:39:00.000Z</time>
      </trkpt>
      <trkpt lat="45.31591" lon="4.62797">
        <ele>571.40002441406</ele>
        <time>2026-05-12T07:39:01.000Z</time>
      </trkpt>
      <trkpt lat="45.31591" lon="4.62802">
        <ele>571.59997558594</ele>
        <time>2026-05-12T07:39:02.000Z</time>
      </trkpt>
      <trkpt lat="45.3159" lon="4.62807">
        <ele>571.59997558594</ele>
        <time>2026-05-12T07:39:03.000Z</time>
      </trkpt>
      <trkpt lat="45.31589" lon="4.62812">
        <ele>571.79998779297</ele>
        <time>2026-05-12T07:39:04.000Z</time>
      </trkpt>
      <trkpt lat="45.31588" lon="4.62817">
        <ele>571.79998779297</ele>
        <time>2026-05-12T07:39:05.000Z</time>
      </trkpt>
      <trkpt lat="45.31588" lon="4.62822">
        <ele>571.79998779297</ele>
        <time>2026-05-12T07:39:06.000Z</time>
      </trkpt>
      <trkpt lat="45.31587" lon="4.62826">
        <ele>571.79998779297</ele>
        <time>2026-05-12T07:39:07.000Z</time>
      </trkpt>
      <trkpt lat="45.31586" lon="4.62831">
        <ele>571.79998779297</ele>
        <time>2026-05-12T07:39:08.000Z</time>
      </trkpt>
      <trkpt lat="45.31586" lon="4.62835">
        <ele>571.79998779297</ele>
        <time>2026-05-12T07:39:09.000Z</time>
      </trkpt>
      <trkpt lat="45.31586" lon="4.62839">
        <ele>571.79998779297</ele>
        <time>2026-05-12T07:39:10.000Z</time>
      </trkpt>
      <trkpt lat="45.31585" lon="4.62843">
        <ele>571.79998779297</ele>
        <time>2026-05-12T07:39:11.000Z</time>
      </trkpt>
      <trkpt lat="45.31584" lon="4.62846">
        <ele>571.79998779297</ele>
        <time>2026-05-12T07:39:12.000Z</time>
      </trkpt>
      <trkpt lat="45.31584" lon="4.62849">
        <ele>571.79998779297</ele>
        <time>2026-05-12T07:39:13.000Z</time>
      </trkpt>
      <trkpt lat="45.31583" lon="4.62852">
        <ele>572</ele>
        <time>2026-05-12T07:39:14.000Z</time>
      </trkpt>
      <trkpt lat="45.31583" lon="4.62855">
        <ele>572</ele>
        <time>2026-05-12T07:39:15.000Z</time>
      </trkpt>
      <trkpt lat="45.31582" lon="4.62858">
        <ele>572</ele>
        <time>2026-05-12T07:39:16.000Z</time>
      </trkpt>
      <trkpt lat="45.31582" lon="4.6286">
        <ele>572</ele>
        <time>2026-05-12T07:39:17.000Z</time>
      </trkpt>
      <trkpt lat="45.31581" lon="4.62863">
        <ele>572</ele>
        <time>2026-05-12T07:39:18.000Z</time>
      </trkpt>
      <trkpt lat="45.31581" lon="4.62865">
        <ele>572</ele>
        <time>2026-05-12T07:39:19.000Z</time>
      </trkpt>
      <trkpt lat="45.3158" lon="4.62868">
        <ele>572</ele>
        <time>2026-05-12T07:39:20.000Z</time>
      </trkpt>
      <trkpt lat="45.31578" lon="4.62871">
        <ele>572</ele>
        <time>2026-05-12T07:39:21.000Z</time>
      </trkpt>
      <trkpt lat="45.31578" lon="4.62873">
        <ele>572.20001220703</ele>
        <time>2026-05-12T07:39:22.000Z</time>
      </trkpt>
      <trkpt lat="45.31577" lon="4.62876">
        <ele>572.20001220703</ele>
        <time>2026-05-12T07:39:23.000Z</time>
      </trkpt>
      <trkpt lat="45.31576" lon="4.62879">
        <ele>572.40002441406</ele>
        <time>2026-05-12T07:39:24.000Z</time>
      </trkpt>
      <trkpt lat="45.31575" lon="4.62882">
        <ele>572.59997558594</ele>
        <time>2026-05-12T07:39:25.000Z</time>
      </trkpt>
      <trkpt lat="45.31575" lon="4.62885">
        <ele>573</ele>
        <time>2026-05-12T07:39:26.000Z</time>
      </trkpt>
      <trkpt lat="45.31575" lon="4.62888">
        <ele>573.20001220703</ele>
        <time>2026-05-12T07:39:27.000Z</time>
      </trkpt>
      <trkpt lat="45.31575" lon="4.62891">
        <ele>573.79998779297</ele>
        <time>2026-05-12T07:39:28.000Z</time>
      </trkpt>
      <trkpt lat="45.31574" lon="4.62894">
        <ele>574.20001220703</ele>
        <time>2026-05-12T07:39:29.000Z</time>
      </trkpt>
      <trkpt lat="45.31573" lon="4.62897">
        <ele>574.59997558594</ele>
        <time>2026-05-12T07:39:30.000Z</time>
      </trkpt>
      <trkpt lat="45.31572" lon="4.629">
        <ele>574.79998779297</ele>
        <time>2026-05-12T07:39:31.000Z</time>
      </trkpt>
      <trkpt lat="45.31571" lon="4.62903">
        <ele>575.20001220703</ele>
        <time>2026-05-12T07:39:32.000Z</time>
      </trkpt>
      <trkpt lat="45.3157" lon="4.62906">
        <ele>575.59997558594</ele>
        <time>2026-05-12T07:39:33.000Z</time>
      </trkpt>
      <trkpt lat="45.31569" lon="4.62909">
        <ele>575.79998779297</ele>
        <time>2026-05-12T07:39:34.000Z</time>
      </trkpt>
      <trkpt lat="45.31567" lon="4.62911">
        <ele>576.20001220703</ele>
        <time>2026-05-12T07:39:35.000Z</time>
      </trkpt>
      <trkpt lat="45.31566" lon="4.62915">
        <ele>576.40002441406</ele>
        <time>2026-05-12T07:39:36.000Z</time>
      </trkpt>
      <trkpt lat="45.31565" lon="4.62917">
        <ele>576.59997558594</ele>
        <time>2026-05-12T07:39:37.000Z</time>
      </trkpt>
      <trkpt lat="45.31564" lon="4.6292">
        <ele>576.79998779297</ele>
        <time>2026-05-12T07:39:38.000Z</time>
      </trkpt>
      <trkpt lat="45.31563" lon="4.62922">
        <ele>577</ele>
        <time>2026-05-12T07:39:39.000Z</time>
      </trkpt>
      <trkpt lat="45.31562" lon="4.62924">
        <ele>577.20001220703</ele>
        <time>2026-05-12T07:39:40.000Z</time>
      </trkpt>
      <trkpt lat="45.31561" lon="4.62926">
        <ele>577.40002441406</ele>
        <time>2026-05-12T07:39:41.000Z</time>
      </trkpt>
      <trkpt lat="45.31561" lon="4.62928">
        <ele>577.59997558594</ele>
        <time>2026-05-12T07:39:42.000Z</time>
      </trkpt>
      <trkpt lat="45.3156" lon="4.6293">
        <ele>577.79998779297</ele>
        <time>2026-05-12T07:39:43.000Z</time>
      </trkpt>
      <trkpt lat="45.31559" lon="4.62933">
        <ele>578</ele>
        <time>2026-05-12T07:39:44.000Z</time>
      </trkpt>
      <trkpt lat="45.31559" lon="4.62936">
        <ele>578.40002441406</ele>
        <time>2026-05-12T07:39:45.000Z</time>
      </trkpt>
      <trkpt lat="45.31558" lon="4.6294">
        <ele>578.59997558594</ele>
        <time>2026-05-12T07:39:46.000Z</time>
      </trkpt>
      <trkpt lat="45.31558" lon="4.62943">
        <ele>579</ele>
        <time>2026-05-12T07:39:47.000Z</time>
      </trkpt>
      <trkpt lat="45.31558" lon="4.62946">
        <ele>579.20001220703</ele>
        <time>2026-05-12T07:39:48.000Z</time>
      </trkpt>
      <trkpt lat="45.31558" lon="4.6295">
        <ele>579.59997558594</ele>
        <time>2026-05-12T07:39:49.000Z</time>
      </trkpt>
      <trkpt lat="45.31558" lon="4.62954">
        <ele>579.79998779297</ele>
        <time>2026-05-12T07:39:50.000Z</time>
      </trkpt>
      <trkpt lat="45.31558" lon="4.62958">
        <ele>580</ele>
        <time>2026-05-12T07:39:51.000Z</time>
      </trkpt>
      <trkpt lat="45.31557" lon="4.62961">
        <ele>580.20001220703</ele>
        <time>2026-05-12T07:39:52.000Z</time>
      </trkpt>
      <trkpt lat="45.31557" lon="4.62964">
        <ele>580.59997558594</ele>
        <time>2026-05-12T07:39:53.000Z</time>
      </trkpt>
      <trkpt lat="45.31557" lon="4.62968">
        <ele>580.79998779297</ele>
        <time>2026-05-12T07:39:54.000Z</time>
      </trkpt>
      <trkpt lat="45.31556" lon="4.62971">
        <ele>581.20001220703</ele>
        <time>2026-05-12T07:39:55.000Z</time>
      </trkpt>
      <trkpt lat="45.31555" lon="4.62974">
        <ele>581.40002441406</ele>
        <time>2026-05-12T07:39:56.000Z</time>
      </trkpt>
      <trkpt lat="45.31554" lon="4.62977">
        <ele>581.79998779297</ele>
        <time>2026-05-12T07:39:57.000Z</time>
      </trkpt>
      <trkpt lat="45.31554" lon="4.62979">
        <ele>582</ele>
        <time>2026-05-12T07:39:58.000Z</time>
      </trkpt>
      <trkpt lat="45.31553" lon="4.62982">
        <ele>582.20001220703</ele>
        <time>2026-05-12T07:39:59.000Z</time>
      </trkpt>
      <trkpt lat="45.31552" lon="4.62985">
        <ele>582.59997558594</ele>
        <time>2026-05-12T07:40:00.000Z</time>
      </trkpt>
      <trkpt lat="45.31551" lon="4.62988">
        <ele>582.79998779297</ele>
        <time>2026-05-12T07:40:01.000Z</time>
      </trkpt>
      <trkpt lat="45.3155" lon="4.62991">
        <ele>583</ele>
        <time>2026-05-12T07:40:02.000Z</time>
      </trkpt>
      <trkpt lat="45.3155" lon="4.62994">
        <ele>583.40002441406</ele>
        <time>2026-05-12T07:40:03.000Z</time>
      </trkpt>
      <trkpt lat="45.31549" lon="4.62997">
        <ele>583.59997558594</ele>
        <time>2026-05-12T07:40:04.000Z</time>
      </trkpt>
      <trkpt lat="45.31548" lon="4.63">
        <ele>584</ele>
        <time>2026-05-12T07:40:05.000Z</time>
      </trkpt>
      <trkpt lat="45.31548" lon="4.63003">
        <ele>584.20001220703</ele>
        <time>2026-05-12T07:40:06.000Z</time>
      </trkpt>
      <trkpt lat="45.31547" lon="4.63006">
        <ele>584.40002441406</ele>
        <time>2026-05-12T07:40:07.000Z</time>
      </trkpt>
      <trkpt lat="45.31545" lon="4.63009">
        <ele>584.79998779297</ele>
        <time>2026-05-12T07:40:08.000Z</time>
      </trkpt>
      <trkpt lat="45.31544" lon="4.63012">
        <ele>585</ele>
        <time>2026-05-12T07:40:09.000Z</time>
      </trkpt>
      <trkpt lat="45.31542" lon="4.63015">
        <ele>585.40002441406</ele>
        <time>2026-05-12T07:40:10.000Z</time>
      </trkpt>
      <trkpt lat="45.31541" lon="4.63018">
        <ele>585.59997558594</ele>
        <time>2026-05-12T07:40:11.000Z</time>
      </trkpt>
      <trkpt lat="45.3154" lon="4.63021">
        <ele>586</ele>
        <time>2026-05-12T07:40:12.000Z</time>
      </trkpt>
      <trkpt lat="45.31538" lon="4.63023">
        <ele>586.20001220703</ele>
        <time>2026-05-12T07:40:13.000Z</time>
      </trkpt>
      <trkpt lat="45.31537" lon="4.63026">
        <ele>586.59997558594</ele>
        <time>2026-05-12T07:40:14.000Z</time>
      </trkpt>
      <trkpt lat="45.31535" lon="4.63029">
        <ele>586.79998779297</ele>
        <time>2026-05-12T07:40:15.000Z</time>
      </trkpt>
      <trkpt lat="45.31534" lon="4.63032">
        <ele>587.20001220703</ele>
        <time>2026-05-12T07:40:16.000Z</time>
      </trkpt>
      <trkpt lat="45.31532" lon="4.63034">
        <ele>587.40002441406</ele>
        <time>2026-05-12T07:40:17.000Z</time>
      </trkpt>
      <trkpt lat="45.31531" lon="4.63037">
        <ele>587.59997558594</ele>
        <time>2026-05-12T07:40:18.000Z</time>
      </trkpt>
      <trkpt lat="45.31529" lon="4.63039">
        <ele>587.79998779297</ele>
        <time>2026-05-12T07:40:19.000Z</time>
      </trkpt>
      <trkpt lat="45.31527" lon="4.63042">
        <ele>588</ele>
        <time>2026-05-12T07:40:20.000Z</time>
      </trkpt>
      <trkpt lat="45.31526" lon="4.63045">
        <ele>588.20001220703</ele>
        <time>2026-05-12T07:40:21.000Z</time>
      </trkpt>
      <trkpt lat="45.31524" lon="4.63048">
        <ele>588.40002441406</ele>
        <time>2026-05-12T07:40:22.000Z</time>
      </trkpt>
      <trkpt lat="45.31522" lon="4.63051">
        <ele>588.40002441406</ele>
        <time>2026-05-12T07:40:23.000Z</time>
      </trkpt>
      <trkpt lat="45.3152" lon="4.63054">
        <ele>588.59997558594</ele>
        <time>2026-05-12T07:40:24.000Z</time>
      </trkpt>
      <trkpt lat="45.31518" lon="4.63056">
        <ele>588.59997558594</ele>
        <time>2026-05-12T07:40:25.000Z</time>
      </trkpt>
      <trkpt lat="45.31516" lon="4.63059">
        <ele>588.59997558594</ele>
        <time>2026-05-12T07:40:26.000Z</time>
      </trkpt>
      <trkpt lat="45.31514" lon="4.63062">
        <ele>588.59997558594</ele>
        <time>2026-05-12T07:40:27.000Z</time>
      </trkpt>
      <trkpt lat="45.31511" lon="4.63065">
        <ele>588.59997558594</ele>
        <time>2026-05-12T07:40:28.000Z</time>
      </trkpt>
      <trkpt lat="45.31509" lon="4.63068">
        <ele>588.59997558594</ele>
        <time>2026-05-12T07:40:29.000Z</time>
      </trkpt>
      <trkpt lat="45.31506" lon="4.6307">
        <ele>588.59997558594</ele>
        <time>2026-05-12T07:40:30.000Z</time>
      </trkpt>
      <trkpt lat="45.31504" lon="4.63073">
        <ele>588.59997558594</ele>
        <time>2026-05-12T07:40:31.000Z</time>
      </trkpt>
      <trkpt lat="45.31502" lon="4.63074">
        <ele>588.59997558594</ele>
        <time>2026-05-12T07:40:32.000Z</time>
      </trkpt>
      <trkpt lat="45.31499" lon="4.63075">
        <ele>588.40002441406</ele>
        <time>2026-05-12T07:40:33.000Z</time>
      </trkpt>
      <trkpt lat="45.31497" lon="4.63075">
        <ele>588.40002441406</ele>
        <time>2026-05-12T07:40:34.000Z</time>
      </trkpt>
      <trkpt lat="45.31495" lon="4.63075">
        <ele>588.59997558594</ele>
        <time>2026-05-12T07:40:35.000Z</time>
      </trkpt>
      <trkpt lat="45.31492" lon="4.63074">
        <ele>588.59997558594</ele>
        <time>2026-05-12T07:40:36.000Z</time>
      </trkpt>
      <trkpt lat="45.31491" lon="4.63072">
        <ele>588.59997558594</ele>
        <time>2026-05-12T07:40:37.000Z</time>
      </trkpt>
      <trkpt lat="45.31489" lon="4.6307">
        <ele>588.79998779297</ele>
        <time>2026-05-12T07:40:38.000Z</time>
      </trkpt>
      <trkpt lat="45.31488" lon="4.63066">
        <ele>589</ele>
        <time>2026-05-12T07:40:39.000Z</time>
      </trkpt>
      <trkpt lat="45.31487" lon="4.63063">
        <ele>589.20001220703</ele>
        <time>2026-05-12T07:40:40.000Z</time>
      </trkpt>
      <trkpt lat="45.31486" lon="4.6306">
        <ele>589.40002441406</ele>
        <time>2026-05-12T07:40:41.000Z</time>
      </trkpt>
      <trkpt lat="45.31485" lon="4.63057">
        <ele>589.79998779297</ele>
        <time>2026-05-12T07:40:42.000Z</time>
      </trkpt>
      <trkpt lat="45.31484" lon="4.63055">
        <ele>590.20001220703</ele>
        <time>2026-05-12T07:40:43.000Z</time>
      </trkpt>
      <trkpt lat="45.31484" lon="4.63054">
        <ele>590.40002441406</ele>
        <time>2026-05-12T07:40:44.000Z</time>
      </trkpt>
      <trkpt lat="45.31484" lon="4.63054">
        <ele>590.79998779297</ele>
        <time>2026-05-12T07:40:45.000Z</time>
      </trkpt>
      <trkpt lat="45.31485" lon="4.63087">
        <ele>587.20001220703</ele>
        <time>2026-05-12T07:42:03.000Z</time>
      </trkpt>
      <trkpt lat="45.31482" lon="4.63089">
        <ele>586.79998779297</ele>
        <time>2026-05-12T07:42:04.000Z</time>
      </trkpt>
      <trkpt lat="45.3148" lon="4.6309">
        <ele>586.40002441406</ele>
        <time>2026-05-12T07:42:05.000Z</time>
      </trkpt>
      <trkpt lat="45.31476" lon="4.63092">
        <ele>586</ele>
        <time>2026-05-12T07:42:06.000Z</time>
      </trkpt>
      <trkpt lat="45.31473" lon="4.63094">
        <ele>585.59997558594</ele>
        <time>2026-05-12T07:42:07.000Z</time>
      </trkpt>
      <trkpt lat="45.3147" lon="4.63095">
        <ele>585.40002441406</ele>
        <time>2026-05-12T07:42:08.000Z</time>
      </trkpt>
      <trkpt lat="45.31468" lon="4.63097">
        <ele>585.20001220703</ele>
        <time>2026-05-12T07:42:09.000Z</time>
      </trkpt>
      <trkpt lat="45.31466" lon="4.63099">
        <ele>585</ele>
        <time>2026-05-12T07:42:10.000Z</time>
      </trkpt>
      <trkpt lat="45.31464" lon="4.631">
        <ele>584.79998779297</ele>
        <time>2026-05-12T07:42:11.000Z</time>
      </trkpt>
      <trkpt lat="45.31461" lon="4.63102">
        <ele>584.59997558594</ele>
        <time>2026-05-12T07:42:12.000Z</time>
      </trkpt>
      <trkpt lat="45.31459" lon="4.63103">
        <ele>584.40002441406</ele>
        <time>2026-05-12T07:42:13.000Z</time>
      </trkpt>
      <trkpt lat="45.31456" lon="4.63105">
        <ele>584.20001220703</ele>
        <time>2026-05-12T07:42:14.000Z</time>
      </trkpt>
      <trkpt lat="45.31454" lon="4.63106">
        <ele>584</ele>
        <time>2026-05-12T07:42:15.000Z</time>
      </trkpt>
      <trkpt lat="45.31451" lon="4.63108">
        <ele>583.79998779297</ele>
        <time>2026-05-12T07:42:16.000Z</time>
      </trkpt>
      <trkpt lat="45.31449" lon="4.63109">
        <ele>583.59997558594</ele>
        <time>2026-05-12T07:42:17.000Z</time>
      </trkpt>
      <trkpt lat="45.31446" lon="4.6311">
        <ele>583.20001220703</ele>
        <time>2026-05-12T07:42:18.000Z</time>
      </trkpt>
      <trkpt lat="45.31444" lon="4.6311">
        <ele>583</ele>
        <time>2026-05-12T07:42:19.000Z</time>
      </trkpt>
      <trkpt lat="45.31441" lon="4.6311">
        <ele>582.79998779297</ele>
        <time>2026-05-12T07:42:20.000Z</time>
      </trkpt>
      <trkpt lat="45.31439" lon="4.6311">
        <ele>582.59997558594</ele>
        <time>2026-05-12T07:42:21.000Z</time>
      </trkpt>
      <trkpt lat="45.31437" lon="4.63111">
        <ele>582.40002441406</ele>
        <time>2026-05-12T07:42:22.000Z</time>
      </trkpt>
      <trkpt lat="45.31434" lon="4.63111">
        <ele>582.20001220703</ele>
        <time>2026-05-12T07:42:23.000Z</time>
      </trkpt>
      <trkpt lat="45.31431" lon="4.63112">
        <ele>581.79998779297</ele>
        <time>2026-05-12T07:42:24.000Z</time>
      </trkpt>
      <trkpt lat="45.31429" lon="4.63112">
        <ele>581.59997558594</ele>
        <time>2026-05-12T07:42:25.000Z</time>
      </trkpt>
      <trkpt lat="45.31427" lon="4.63113">
        <ele>581.40002441406</ele>
        <time>2026-05-12T07:42:26.000Z</time>
      </trkpt>
      <trkpt lat="45.31425" lon="4.63113">
        <ele>581</ele>
        <time>2026-05-12T07:42:27.000Z</time>
      </trkpt>
      <trkpt lat="45.31422" lon="4.63114">
        <ele>580.79998779297</ele>
        <time>2026-05-12T07:42:28.000Z</time>
      </trkpt>
      <trkpt lat="45.31421" lon="4.63114">
        <ele>580.59997558594</ele>
        <time>2026-05-12T07:42:29.000Z</time>
      </trkpt>
      <trkpt lat="45.31419" lon="4.63114">
        <ele>580.20001220703</ele>
        <time>2026-05-12T07:42:30.000Z</time>
      </trkpt>
      <trkpt lat="45.31417" lon="4.63115">
        <ele>580</ele>
        <time>2026-05-12T07:42:31.000Z</time>
      </trkpt>
      <trkpt lat="45.31415" lon="4.63116">
        <ele>579.59997558594</ele>
        <time>2026-05-12T07:42:32.000Z</time>
      </trkpt>
      <trkpt lat="45.31413" lon="4.63116">
        <ele>579.40002441406</ele>
        <time>2026-05-12T07:42:33.000Z</time>
      </trkpt>
      <trkpt lat="45.31411" lon="4.63116">
        <ele>579</ele>
        <time>2026-05-12T07:42:34.000Z</time>
      </trkpt>
      <trkpt lat="45.31409" lon="4.63117">
        <ele>578.59997558594</ele>
        <time>2026-05-12T07:42:35.000Z</time>
      </trkpt>
      <trkpt lat="45.31407" lon="4.63118">
        <ele>578.40002441406</ele>
        <time>2026-05-12T07:42:36.000Z</time>
      </trkpt>
      <trkpt lat="45.31405" lon="4.63119">
        <ele>578</ele>
        <time>2026-05-12T07:42:37.000Z</time>
      </trkpt>
      <trkpt lat="45.31403" lon="4.6312">
        <ele>577.79998779297</ele>
        <time>2026-05-12T07:42:38.000Z</time>
      </trkpt>
      <trkpt lat="45.31402" lon="4.63122">
        <ele>577.40002441406</ele>
        <time>2026-05-12T07:42:39.000Z</time>
      </trkpt>
      <trkpt lat="45.314" lon="4.63125">
        <ele>577.20001220703</ele>
        <time>2026-05-12T07:42:40.000Z</time>
      </trkpt>
      <trkpt lat="45.31398" lon="4.63128">
        <ele>576.79998779297</ele>
        <time>2026-05-12T07:42:41.000Z</time>
      </trkpt>
      <trkpt lat="45.31396" lon="4.63131">
        <ele>576.40002441406</ele>
        <time>2026-05-12T07:42:42.000Z</time>
      </trkpt>
      <trkpt lat="45.31394" lon="4.63134">
        <ele>576.20001220703</ele>
        <time>2026-05-12T07:42:43.000Z</time>
      </trkpt>
      <trkpt lat="45.31392" lon="4.63137">
        <ele>575.79998779297</ele>
        <time>2026-05-12T07:42:44.000Z</time>
      </trkpt>
      <trkpt lat="45.3139" lon="4.6314">
        <ele>575.59997558594</ele>
        <time>2026-05-12T07:42:45.000Z</time>
      </trkpt>
      <trkpt lat="45.31389" lon="4.63143">
        <ele>575.20001220703</ele>
        <time>2026-05-12T07:42:46.000Z</time>
      </trkpt>
      <trkpt lat="45.31388" lon="4.63145">
        <ele>575</ele>
        <time>2026-05-12T07:42:47.000Z</time>
      </trkpt>
      <trkpt lat="45.31386" lon="4.63149">
        <ele>574.59997558594</ele>
        <time>2026-05-12T07:42:48.000Z</time>
      </trkpt>
      <trkpt lat="45.31384" lon="4.63151">
        <ele>574.40002441406</ele>
        <time>2026-05-12T07:42:49.000Z</time>
      </trkpt>
      <trkpt lat="45.31383" lon="4.63153">
        <ele>574</ele>
        <time>2026-05-12T07:42:50.000Z</time>
      </trkpt>
      <trkpt lat="45.31381" lon="4.63155">
        <ele>573.59997558594</ele>
        <time>2026-05-12T07:42:51.000Z</time>
      </trkpt>
      <trkpt lat="45.31379" lon="4.63159">
        <ele>573</ele>
        <time>2026-05-12T07:42:52.000Z</time>
      </trkpt>
      <trkpt lat="45.31375" lon="4.63164">
        <ele>572.59997558594</ele>
        <time>2026-05-12T07:42:53.000Z</time>
      </trkpt>
      <trkpt lat="45.31373" lon="4.63167">
        <ele>572.20001220703</ele>
        <time>2026-05-12T07:42:54.000Z</time>
      </trkpt>
      <trkpt lat="45.3137" lon="4.6317">
        <ele>571.79998779297</ele>
        <time>2026-05-12T07:42:55.000Z</time>
      </trkpt>
      <trkpt lat="45.31368" lon="4.63173">
        <ele>571.40002441406</ele>
        <time>2026-05-12T07:42:56.000Z</time>
      </trkpt>
      <trkpt lat="45.31365" lon="4.63177">
        <ele>571</ele>
        <time>2026-05-12T07:42:57.000Z</time>
      </trkpt>
      <trkpt lat="45.31362" lon="4.63181">
        <ele>570.59997558594</ele>
        <time>2026-05-12T07:42:58.000Z</time>
      </trkpt>
      <trkpt lat="45.31359" lon="4.63185">
        <ele>570</ele>
        <time>2026-05-12T07:42:59.000Z</time>
      </trkpt>
      <trkpt lat="45.31357" lon="4.63188">
        <ele>569.59997558594</ele>
        <time>2026-05-12T07:43:00.000Z</time>
      </trkpt>
      <trkpt lat="45.31355" lon="4.63192">
        <ele>569.20001220703</ele>
        <time>2026-05-12T07:43:01.000Z</time>
      </trkpt>
      <trkpt lat="45.31353" lon="4.63195">
        <ele>568.59997558594</ele>
        <time>2026-05-12T07:43:02.000Z</time>
      </trkpt>
      <trkpt lat="45.31352" lon="4.63198">
        <ele>568.20001220703</ele>
        <time>2026-05-12T07:43:03.000Z</time>
      </trkpt>
      <trkpt lat="45.3135" lon="4.63201">
        <ele>567.59997558594</ele>
        <time>2026-05-12T07:43:04.000Z</time>
      </trkpt>
      <trkpt lat="45.31348" lon="4.63205">
        <ele>567</ele>
        <time>2026-05-12T07:43:05.000Z</time>
      </trkpt>
      <trkpt lat="45.31347" lon="4.63207">
        <ele>566.40002441406</ele>
        <time>2026-05-12T07:43:06.000Z</time>
      </trkpt>
      <trkpt lat="45.31345" lon="4.6321">
        <ele>565.79998779297</ele>
        <time>2026-05-12T07:43:07.000Z</time>
      </trkpt>
      <trkpt lat="45.31343" lon="4.63213">
        <ele>565.20001220703</ele>
        <time>2026-05-12T07:43:08.000Z</time>
      </trkpt>
      <trkpt lat="45.3134" lon="4.63216">
        <ele>564.59997558594</ele>
        <time>2026-05-12T07:43:09.000Z</time>
      </trkpt>
      <trkpt lat="45.31336" lon="4.6322">
        <ele>564</ele>
        <time>2026-05-12T07:43:10.000Z</time>
      </trkpt>
      <trkpt lat="45.31333" lon="4.63223">
        <ele>563.40002441406</ele>
        <time>2026-05-12T07:43:11.000Z</time>
      </trkpt>
      <trkpt lat="45.31331" lon="4.63226">
        <ele>563</ele>
        <time>2026-05-12T07:43:12.000Z</time>
      </trkpt>
      <trkpt lat="45.3133" lon="4.6323">
        <ele>562.40002441406</ele>
        <time>2026-05-12T07:43:13.000Z</time>
      </trkpt>
      <trkpt lat="45.31327" lon="4.63234">
        <ele>562</ele>
        <time>2026-05-12T07:43:14.000Z</time>
      </trkpt>
      <trkpt lat="45.31325" lon="4.63236">
        <ele>561.40002441406</ele>
        <time>2026-05-12T07:43:15.000Z</time>
      </trkpt>
      <trkpt lat="45.31324" lon="4.63238">
        <ele>561</ele>
        <time>2026-05-12T07:43:16.000Z</time>
      </trkpt>
      <trkpt lat="45.3132" lon="4.63242">
        <ele>560.40002441406</ele>
        <time>2026-05-12T07:43:17.000Z</time>
      </trkpt>
      <trkpt lat="45.31318" lon="4.63245">
        <ele>560</ele>
        <time>2026-05-12T07:43:18.000Z</time>
      </trkpt>
      <trkpt lat="45.31316" lon="4.63247">
        <ele>559.40002441406</ele>
        <time>2026-05-12T07:43:19.000Z</time>
      </trkpt>
      <trkpt lat="45.31314" lon="4.6325">
        <ele>558.79998779297</ele>
        <time>2026-05-12T07:43:20.000Z</time>
      </trkpt>
      <trkpt lat="45.31312" lon="4.63253">
        <ele>558.40002441406</ele>
        <time>2026-05-12T07:43:21.000Z</time>
      </trkpt>
      <trkpt lat="45.3131" lon="4.63256">
        <ele>557.79998779297</ele>
        <time>2026-05-12T07:43:22.000Z</time>
      </trkpt>
      <trkpt lat="45.31308" lon="4.63259">
        <ele>557.20001220703</ele>
        <time>2026-05-12T07:43:23.000Z</time>
      </trkpt>
      <trkpt lat="45.31306" lon="4.63262">
        <ele>556.79998779297</ele>
        <time>2026-05-12T07:43:24.000Z</time>
      </trkpt>
      <trkpt lat="45.31305" lon="4.63264">
        <ele>556.40002441406</ele>
        <time>2026-05-12T07:43:25.000Z</time>
      </trkpt>
      <trkpt lat="45.31303" lon="4.63266">
        <ele>556</ele>
        <time>2026-05-12T07:43:26.000Z</time>
      </trkpt>
      <trkpt lat="45.31301" lon="4.63268">
        <ele>555.40002441406</ele>
        <time>2026-05-12T07:43:27.000Z</time>
      </trkpt>
      <trkpt lat="45.31299" lon="4.6327">
        <ele>555</ele>
        <time>2026-05-12T07:43:28.000Z</time>
      </trkpt>
      <trkpt lat="45.31297" lon="4.63272">
        <ele>554.59997558594</ele>
        <time>2026-05-12T07:43:29.000Z</time>
      </trkpt>
      <trkpt lat="45.31294" lon="4.63273">
        <ele>554</ele>
        <time>2026-05-12T07:43:30.000Z</time>
      </trkpt>
      <trkpt lat="45.31291" lon="4.63274">
        <ele>553.40002441406</ele>
        <time>2026-05-12T07:43:31.000Z</time>
      </trkpt>
      <trkpt lat="45.31288" lon="4.63274">
        <ele>552.79998779297</ele>
        <time>2026-05-12T07:43:32.000Z</time>
      </trkpt>
      <trkpt lat="45.31285" lon="4.63274">
        <ele>552.20001220703</ele>
        <time>2026-05-12T07:43:33.000Z</time>
      </trkpt>
      <trkpt lat="45.31281" lon="4.63274">
        <ele>551.40002441406</ele>
        <time>2026-05-12T07:43:34.000Z</time>
      </trkpt>
      <trkpt lat="45.31278" lon="4.63273">
        <ele>550.79998779297</ele>
        <time>2026-05-12T07:43:35.000Z</time>
      </trkpt>
      <trkpt lat="45.31275" lon="4.63273">
        <ele>550.20001220703</ele>
        <time>2026-05-12T07:43:36.000Z</time>
      </trkpt>
      <trkpt lat="45.31272" lon="4.63274">
        <ele>549.59997558594</ele>
        <time>2026-05-12T07:43:37.000Z</time>
      </trkpt>
      <trkpt lat="45.31269" lon="4.63273">
        <ele>549.20001220703</ele>
        <time>2026-05-12T07:43:38.000Z</time>
      </trkpt>
      <trkpt lat="45.31265" lon="4.63273">
        <ele>548.79998779297</ele>
        <time>2026-05-12T07:43:39.000Z</time>
      </trkpt>
      <trkpt lat="45.31261" lon="4.63274">
        <ele>548.59997558594</ele>
        <time>2026-05-12T07:43:40.000Z</time>
      </trkpt>
      <trkpt lat="45.31258" lon="4.63275">
        <ele>548.20001220703</ele>
        <time>2026-05-12T07:43:41.000Z</time>
      </trkpt>
      <trkpt lat="45.31254" lon="4.63278">
        <ele>548</ele>
        <time>2026-05-12T07:43:42.000Z</time>
      </trkpt>
      <trkpt lat="45.3125" lon="4.6328">
        <ele>547.59997558594</ele>
        <time>2026-05-12T07:43:43.000Z</time>
      </trkpt>
      <trkpt lat="45.31247" lon="4.63283">
        <ele>547.59997558594</ele>
        <time>2026-05-12T07:43:44.000Z</time>
      </trkpt>
      <trkpt lat="45.31244" lon="4.63286">
        <ele>547.40002441406</ele>
        <time>2026-05-12T07:43:45.000Z</time>
      </trkpt>
      <trkpt lat="45.31241" lon="4.63289">
        <ele>547.40002441406</ele>
        <time>2026-05-12T07:43:46.000Z</time>
      </trkpt>
      <trkpt lat="45.31239" lon="4.63291">
        <ele>547.59997558594</ele>
        <time>2026-05-12T07:43:47.000Z</time>
      </trkpt>
      <trkpt lat="45.31236" lon="4.63293">
        <ele>547.79998779297</ele>
        <time>2026-05-12T07:43:48.000Z</time>
      </trkpt>
      <trkpt lat="45.31233" lon="4.63294">
        <ele>547.79998779297</ele>
        <time>2026-05-12T07:43:49.000Z</time>
      </trkpt>
      <trkpt lat="45.3123" lon="4.63296">
        <ele>548</ele>
        <time>2026-05-12T07:43:50.000Z</time>
      </trkpt>
      <trkpt lat="45.31227" lon="4.63297">
        <ele>548.20001220703</ele>
        <time>2026-05-12T07:43:51.000Z</time>
      </trkpt>
      <trkpt lat="45.31224" lon="4.63299">
        <ele>548.40002441406</ele>
        <time>2026-05-12T07:43:52.000Z</time>
      </trkpt>
      <trkpt lat="45.31221" lon="4.633">
        <ele>548.59997558594</ele>
        <time>2026-05-12T07:43:53.000Z</time>
      </trkpt>
      <trkpt lat="45.31218" lon="4.63301">
        <ele>548.79998779297</ele>
        <time>2026-05-12T07:43:54.000Z</time>
      </trkpt>
      <trkpt lat="45.31215" lon="4.63302">
        <ele>548.79998779297</ele>
        <time>2026-05-12T07:43:55.000Z</time>
      </trkpt>
      <trkpt lat="45.31212" lon="4.63303">
        <ele>549</ele>
        <time>2026-05-12T07:43:56.000Z</time>
      </trkpt>
      <trkpt lat="45.3121" lon="4.63304">
        <ele>549</ele>
        <time>2026-05-12T07:43:57.000Z</time>
      </trkpt>
      <trkpt lat="45.31207" lon="4.63304">
        <ele>549</ele>
        <time>2026-05-12T07:43:58.000Z</time>
      </trkpt>
      <trkpt lat="45.31204" lon="4.63305">
        <ele>549.20001220703</ele>
        <time>2026-05-12T07:43:59.000Z</time>
      </trkpt>
      <trkpt lat="45.31202" lon="4.63305">
        <ele>549.20001220703</ele>
        <time>2026-05-12T07:44:00.000Z</time>
      </trkpt>
      <trkpt lat="45.312" lon="4.63305">
        <ele>549.40002441406</ele>
        <time>2026-05-12T07:44:01.000Z</time>
      </trkpt>
      <trkpt lat="45.31198" lon="4.63304">
        <ele>549.59997558594</ele>
        <time>2026-05-12T07:44:02.000Z</time>
      </trkpt>
      <trkpt lat="45.31196" lon="4.63303">
        <ele>549.79998779297</ele>
        <time>2026-05-12T07:44:03.000Z</time>
      </trkpt>
      <trkpt lat="45.31194" lon="4.63301">
        <ele>550</ele>
        <time>2026-05-12T07:44:04.000Z</time>
      </trkpt>
      <trkpt lat="45.31192" lon="4.63301">
        <ele>550.20001220703</ele>
        <time>2026-05-12T07:44:05.000Z</time>
      </trkpt>
      <trkpt lat="45.31191" lon="4.63301">
        <ele>550.40002441406</ele>
        <time>2026-05-12T07:44:06.000Z</time>
      </trkpt>
      <trkpt lat="45.31191" lon="4.63301">
        <ele>550.59997558594</ele>
        <time>2026-05-12T07:44:07.000Z</time>
      </trkpt>
      <trkpt lat="45.31191" lon="4.63301">
        <ele>550.79998779297</ele>
        <time>2026-05-12T07:44:08.000Z</time>
      </trkpt>
      <trkpt lat="45.31186" lon="4.63309">
        <ele>550.59997558594</ele>
        <time>2026-05-12T07:44:17.000Z</time>
      </trkpt>
      <trkpt lat="45.31184" lon="4.6331">
        <ele>550.40002441406</ele>
        <time>2026-05-12T07:44:18.000Z</time>
      </trkpt>
      <trkpt lat="45.31182" lon="4.6331">
        <ele>550.20001220703</ele>
        <time>2026-05-12T07:44:19.000Z</time>
      </trkpt>
      <trkpt lat="45.31181" lon="4.63311">
        <ele>550.20001220703</ele>
        <time>2026-05-12T07:44:20.000Z</time>
      </trkpt>
      <trkpt lat="45.31179" lon="4.63311">
        <ele>550.20001220703</ele>
        <time>2026-05-12T07:44:21.000Z</time>
      </trkpt>
      <trkpt lat="45.31177" lon="4.63311">
        <ele>550</ele>
        <time>2026-05-12T07:44:22.000Z</time>
      </trkpt>
      <trkpt lat="45.31175" lon="4.63312">
        <ele>550</ele>
        <time>2026-05-12T07:44:23.000Z</time>
      </trkpt>
      <trkpt lat="45.31173" lon="4.63312">
        <ele>550</ele>
        <time>2026-05-12T07:44:24.000Z</time>
      </trkpt>
      <trkpt lat="45.3117" lon="4.63313">
        <ele>550</ele>
        <time>2026-05-12T07:44:25.000Z</time>
      </trkpt>
      <trkpt lat="45.31167" lon="4.63313">
        <ele>549.79998779297</ele>
        <time>2026-05-12T07:44:26.000Z</time>
      </trkpt>
      <trkpt lat="45.31163" lon="4.63314">
        <ele>549.79998779297</ele>
        <time>2026-05-12T07:44:27.000Z</time>
      </trkpt>
      <trkpt lat="45.31159" lon="4.63315">
        <ele>549.59997558594</ele>
        <time>2026-05-12T07:44:28.000Z</time>
      </trkpt>
      <trkpt lat="45.31156" lon="4.63315">
        <ele>549.59997558594</ele>
        <time>2026-05-12T07:44:29.000Z</time>
      </trkpt>
      <trkpt lat="45.31152" lon="4.63316">
        <ele>549.59997558594</ele>
        <time>2026-05-12T07:44:30.000Z</time>
      </trkpt>
      <trkpt lat="45.31148" lon="4.63316">
        <ele>549.40002441406</ele>
        <time>2026-05-12T07:44:31.000Z</time>
      </trkpt>
      <trkpt lat="45.31144" lon="4.63317">
        <ele>549.40002441406</ele>
        <time>2026-05-12T07:44:32.000Z</time>
      </trkpt>
      <trkpt lat="45.3114" lon="4.63317">
        <ele>549.40002441406</ele>
        <time>2026-05-12T07:44:33.000Z</time>
      </trkpt>
      <trkpt lat="45.31137" lon="4.63317">
        <ele>549.40002441406</ele>
        <time>2026-05-12T07:44:34.000Z</time>
      </trkpt>
      <trkpt lat="45.31133" lon="4.63318">
        <ele>549.40002441406</ele>
        <time>2026-05-12T07:44:35.000Z</time>
      </trkpt>
      <trkpt lat="45.3113" lon="4.63318">
        <ele>549.40002441406</ele>
        <time>2026-05-12T07:44:36.000Z</time>
      </trkpt>
      <trkpt lat="45.31126" lon="4.63318">
        <ele>549.40002441406</ele>
        <time>2026-05-12T07:44:37.000Z</time>
      </trkpt>
      <trkpt lat="45.31123" lon="4.63319">
        <ele>549.40002441406</ele>
        <time>2026-05-12T07:44:38.000Z</time>
      </trkpt>
      <trkpt lat="45.31119" lon="4.63319">
        <ele>549.20001220703</ele>
        <time>2026-05-12T07:44:39.000Z</time>
      </trkpt>
      <trkpt lat="45.31116" lon="4.6332">
        <ele>549.20001220703</ele>
        <time>2026-05-12T07:44:40.000Z</time>
      </trkpt>
      <trkpt lat="45.31112" lon="4.6332">
        <ele>549.20001220703</ele>
        <time>2026-05-12T07:44:41.000Z</time>
      </trkpt>
      <trkpt lat="45.31109" lon="4.6332">
        <ele>549</ele>
        <time>2026-05-12T07:44:42.000Z</time>
      </trkpt>
      <trkpt lat="45.31105" lon="4.63321">
        <ele>549.20001220703</ele>
        <time>2026-05-12T07:44:43.000Z</time>
      </trkpt>
      <trkpt lat="45.31102" lon="4.63321">
        <ele>549</ele>
        <time>2026-05-12T07:44:44.000Z</time>
      </trkpt>
      <trkpt lat="45.31098" lon="4.63322">
        <ele>549</ele>
        <time>2026-05-12T07:44:45.000Z</time>
      </trkpt>
      <trkpt lat="45.31095" lon="4.63322">
        <ele>549</ele>
        <time>2026-05-12T07:44:46.000Z</time>
      </trkpt>
      <trkpt lat="45.31091" lon="4.63323">
        <ele>548.79998779297</ele>
        <time>2026-05-12T07:44:47.000Z</time>
      </trkpt>
      <trkpt lat="45.31087" lon="4.63324">
        <ele>548.79998779297</ele>
        <time>2026-05-12T07:44:48.000Z</time>
      </trkpt>
      <trkpt lat="45.31084" lon="4.63325">
        <ele>548.79998779297</ele>
        <time>2026-05-12T07:44:49.000Z</time>
      </trkpt>
      <trkpt lat="45.3108" lon="4.63325">
        <ele>548.79998779297</ele>
        <time>2026-05-12T07:44:50.000Z</time>
      </trkpt>
      <trkpt lat="45.31076" lon="4.63326">
        <ele>548.79998779297</ele>
        <time>2026-05-12T07:44:51.000Z</time>
      </trkpt>
      <trkpt lat="45.31073" lon="4.63328">
        <ele>548.79998779297</ele>
        <time>2026-05-12T07:44:52.000Z</time>
      </trkpt>
      <trkpt lat="45.31069" lon="4.63329">
        <ele>548.59997558594</ele>
        <time>2026-05-12T07:44:53.000Z</time>
      </trkpt>
      <trkpt lat="45.31065" lon="4.6333">
        <ele>548.59997558594</ele>
        <time>2026-05-12T07:44:54.000Z</time>
      </trkpt>
      <trkpt lat="45.31061" lon="4.63331">
        <ele>548.59997558594</ele>
        <time>2026-05-12T07:44:55.000Z</time>
      </trkpt>
      <trkpt lat="45.31057" lon="4.63332">
        <ele>548.40002441406</ele>
        <time>2026-05-12T07:44:56.000Z</time>
      </trkpt>
      <trkpt lat="45.31053" lon="4.63333">
        <ele>548.40002441406</ele>
        <time>2026-05-12T07:44:57.000Z</time>
      </trkpt>
      <trkpt lat="45.3105" lon="4.63333">
        <ele>548.40002441406</ele>
        <time>2026-05-12T07:44:58.000Z</time>
      </trkpt>
      <trkpt lat="45.31046" lon="4.63334">
        <ele>548.40002441406</ele>
        <time>2026-05-12T07:44:59.000Z</time>
      </trkpt>
      <trkpt lat="45.31042" lon="4.63335">
        <ele>548.20001220703</ele>
        <time>2026-05-12T07:45:00.000Z</time>
      </trkpt>
      <trkpt lat="45.31039" lon="4.63335">
        <ele>548.40002441406</ele>
        <time>2026-05-12T07:45:01.000Z</time>
      </trkpt>
      <trkpt lat="45.31036" lon="4.63335">
        <ele>548.40002441406</ele>
        <time>2026-05-12T07:45:02.000Z</time>
      </trkpt>
      <trkpt lat="45.31033" lon="4.63335">
        <ele>548.40002441406</ele>
        <time>2026-05-12T07:45:03.000Z</time>
      </trkpt>
      <trkpt lat="45.3103" lon="4.63334">
        <ele>548.59997558594</ele>
        <time>2026-05-12T07:45:04.000Z</time>
      </trkpt>
      <trkpt lat="45.31027" lon="4.63333">
        <ele>548.59997558594</ele>
        <time>2026-05-12T07:45:05.000Z</time>
      </trkpt>
      <trkpt lat="45.31025" lon="4.63332">
        <ele>548.59997558594</ele>
        <time>2026-05-12T07:45:06.000Z</time>
      </trkpt>
      <trkpt lat="45.31022" lon="4.63331">
        <ele>548.59997558594</ele>
        <time>2026-05-12T07:45:07.000Z</time>
      </trkpt>
      <trkpt lat="45.3102" lon="4.63329">
        <ele>548.59997558594</ele>
        <time>2026-05-12T07:45:08.000Z</time>
      </trkpt>
      <trkpt lat="45.31017" lon="4.63328">
        <ele>548.59997558594</ele>
        <time>2026-05-12T07:45:09.000Z</time>
      </trkpt>
      <trkpt lat="45.31015" lon="4.63325">
        <ele>548.40002441406</ele>
        <time>2026-05-12T07:45:10.000Z</time>
      </trkpt>
      <trkpt lat="45.31012" lon="4.63322">
        <ele>548.20001220703</ele>
        <time>2026-05-12T07:45:11.000Z</time>
      </trkpt>
      <trkpt lat="45.31009" lon="4.63319">
        <ele>548</ele>
        <time>2026-05-12T07:45:12.000Z</time>
      </trkpt>
      <trkpt lat="45.31006" lon="4.63314">
        <ele>547.79998779297</ele>
        <time>2026-05-12T07:45:13.000Z</time>
      </trkpt>
      <trkpt lat="45.31003" lon="4.63309">
        <ele>547.40002441406</ele>
        <time>2026-05-12T07:45:14.000Z</time>
      </trkpt>
      <trkpt lat="45.31001" lon="4.63305">
        <ele>547</ele>
        <time>2026-05-12T07:45:15.000Z</time>
      </trkpt>
      <trkpt lat="45.30998" lon="4.633">
        <ele>546.59997558594</ele>
        <time>2026-05-12T07:45:16.000Z</time>
      </trkpt>
      <trkpt lat="45.30995" lon="4.63296">
        <ele>546.40002441406</ele>
        <time>2026-05-12T07:45:17.000Z</time>
      </trkpt>
      <trkpt lat="45.30992" lon="4.63294">
        <ele>546.20001220703</ele>
        <time>2026-05-12T07:45:18.000Z</time>
      </trkpt>
      <trkpt lat="45.30989" lon="4.63294">
        <ele>546</ele>
        <time>2026-05-12T07:45:19.000Z</time>
      </trkpt>
      <trkpt lat="45.30986" lon="4.63296">
        <ele>545.79998779297</ele>
        <time>2026-05-12T07:45:20.000Z</time>
      </trkpt>
      <trkpt lat="45.30984" lon="4.633">
        <ele>545.59997558594</ele>
        <time>2026-05-12T07:45:21.000Z</time>
      </trkpt>
      <trkpt lat="45.30983" lon="4.63303">
        <ele>545.79998779297</ele>
        <time>2026-05-12T07:45:22.000Z</time>
      </trkpt>
      <trkpt lat="45.30982" lon="4.63306">
        <ele>546</ele>
        <time>2026-05-12T07:45:23.000Z</time>
      </trkpt>
      <trkpt lat="45.3098" lon="4.63309">
        <ele>546.20001220703</ele>
        <time>2026-05-12T07:45:24.000Z</time>
      </trkpt>
      <trkpt lat="45.30979" lon="4.63311">
        <ele>546.59997558594</ele>
        <time>2026-05-12T07:45:25.000Z</time>
      </trkpt>
      <trkpt lat="45.30978" lon="4.63313">
        <ele>546.79998779297</ele>
        <time>2026-05-12T07:45:26.000Z</time>
      </trkpt>
      <trkpt lat="45.30976" lon="4.63315">
        <ele>547.20001220703</ele>
        <time>2026-05-12T07:45:27.000Z</time>
      </trkpt>
      <trkpt lat="45.30976" lon="4.63318">
        <ele>547.40002441406</ele>
        <time>2026-05-12T07:45:28.000Z</time>
      </trkpt>
      <trkpt lat="45.30975" lon="4.63321">
        <ele>547.79998779297</ele>
        <time>2026-05-12T07:45:29.000Z</time>
      </trkpt>
      <trkpt lat="45.30973" lon="4.63323">
        <ele>548</ele>
        <time>2026-05-12T07:45:30.000Z</time>
      </trkpt>
      <trkpt lat="45.30972" lon="4.63325">
        <ele>548.40002441406</ele>
        <time>2026-05-12T07:45:31.000Z</time>
      </trkpt>
      <trkpt lat="45.30971" lon="4.63328">
        <ele>548.59997558594</ele>
        <time>2026-05-12T07:45:32.000Z</time>
      </trkpt>
      <trkpt lat="45.30969" lon="4.6333">
        <ele>549</ele>
        <time>2026-05-12T07:45:33.000Z</time>
      </trkpt>
      <trkpt lat="45.30968" lon="4.63331">
        <ele>549.20001220703</ele>
        <time>2026-05-12T07:45:34.000Z</time>
      </trkpt>
      <trkpt lat="45.30966" lon="4.63333">
        <ele>549.59997558594</ele>
        <time>2026-05-12T07:45:35.000Z</time>
      </trkpt>
      <trkpt lat="45.30964" lon="4.63335">
        <ele>549.79998779297</ele>
        <time>2026-05-12T07:45:36.000Z</time>
      </trkpt>
      <trkpt lat="45.30963" lon="4.63336">
        <ele>550</ele>
        <time>2026-05-12T07:45:37.000Z</time>
      </trkpt>
      <trkpt lat="45.30963" lon="4.63337">
        <ele>550.20001220703</ele>
        <time>2026-05-12T07:45:38.000Z</time>
      </trkpt>
      <trkpt lat="45.30963" lon="4.63337">
        <ele>550.40002441406</ele>
        <time>2026-05-12T07:45:39.000Z</time>
      </trkpt>
      <trkpt lat="45.30963" lon="4.63337">
        <ele>550.59997558594</ele>
        <time>2026-05-12T07:45:40.000Z</time>
      </trkpt>
      <trkpt lat="45.30959" lon="4.63342">
        <ele>550.79998779297</ele>
        <time>2026-05-12T07:47:14.000Z</time>
      </trkpt>
      <trkpt lat="45.30958" lon="4.63344">
        <ele>550.79998779297</ele>
        <time>2026-05-12T07:47:15.000Z</time>
      </trkpt>
      <trkpt lat="45.30956" lon="4.63345">
        <ele>551</ele>
        <time>2026-05-12T07:47:16.000Z</time>
      </trkpt>
      <trkpt lat="45.30955" lon="4.63346">
        <ele>551</ele>
        <time>2026-05-12T07:47:17.000Z</time>
      </trkpt>
      <trkpt lat="45.30953" lon="4.63347">
        <ele>551</ele>
        <time>2026-05-12T07:47:18.000Z</time>
      </trkpt>
      <trkpt lat="45.30951" lon="4.63349">
        <ele>551.20001220703</ele>
        <time>2026-05-12T07:47:19.000Z</time>
      </trkpt>
      <trkpt lat="45.3095" lon="4.6335">
        <ele>551.20001220703</ele>
        <time>2026-05-12T07:47:20.000Z</time>
      </trkpt>
      <trkpt lat="45.30948" lon="4.63351">
        <ele>551.20001220703</ele>
        <time>2026-05-12T07:47:21.000Z</time>
      </trkpt>
      <trkpt lat="45.30946" lon="4.63352">
        <ele>551.40002441406</ele>
        <time>2026-05-12T07:47:22.000Z</time>
      </trkpt>
      <trkpt lat="45.30945" lon="4.63353">
        <ele>551.40002441406</ele>
        <time>2026-05-12T07:47:23.000Z</time>
      </trkpt>
      <trkpt lat="45.30943" lon="4.63355">
        <ele>551.40002441406</ele>
        <time>2026-05-12T07:47:24.000Z</time>
      </trkpt>
      <trkpt lat="45.30941" lon="4.63356">
        <ele>551.40002441406</ele>
        <time>2026-05-12T07:47:25.000Z</time>
      </trkpt>
      <trkpt lat="45.30939" lon="4.63358">
        <ele>551.40002441406</ele>
        <time>2026-05-12T07:47:26.000Z</time>
      </trkpt>
      <trkpt lat="45.30937" lon="4.6336">
        <ele>551.40002441406</ele>
        <time>2026-05-12T07:47:27.000Z</time>
      </trkpt>
      <trkpt lat="45.30934" lon="4.63363">
        <ele>551.40002441406</ele>
        <time>2026-05-12T07:47:28.000Z</time>
      </trkpt>
      <trkpt lat="45.30932" lon="4.63366">
        <ele>551.59997558594</ele>
        <time>2026-05-12T07:47:29.000Z</time>
      </trkpt>
      <trkpt lat="45.30929" lon="4.63367">
        <ele>551.59997558594</ele>
        <time>2026-05-12T07:47:30.000Z</time>
      </trkpt>
      <trkpt lat="45.30926" lon="4.6337">
        <ele>551.59997558594</ele>
        <time>2026-05-12T07:47:31.000Z</time>
      </trkpt>
      <trkpt lat="45.30923" lon="4.63372">
        <ele>551.79998779297</ele>
        <time>2026-05-12T07:47:32.000Z</time>
      </trkpt>
      <trkpt lat="45.3092" lon="4.63374">
        <ele>551.79998779297</ele>
        <time>2026-05-12T07:47:33.000Z</time>
      </trkpt>
      <trkpt lat="45.30917" lon="4.63376">
        <ele>552</ele>
        <time>2026-05-12T07:47:34.000Z</time>
      </trkpt>
      <trkpt lat="45.30914" lon="4.63377">
        <ele>552</ele>
        <time>2026-05-12T07:47:35.000Z</time>
      </trkpt>
      <trkpt lat="45.30911" lon="4.63379">
        <ele>552.20001220703</ele>
        <time>2026-05-12T07:47:36.000Z</time>
      </trkpt>
      <trkpt lat="45.30908" lon="4.63381">
        <ele>552.40002441406</ele>
        <time>2026-05-12T07:47:37.000Z</time>
      </trkpt>
      <trkpt lat="45.30905" lon="4.63384">
        <ele>552.40002441406</ele>
        <time>2026-05-12T07:47:38.000Z</time>
      </trkpt>
      <trkpt lat="45.30902" lon="4.63386">
        <ele>552.59997558594</ele>
        <time>2026-05-12T07:47:39.000Z</time>
      </trkpt>
      <trkpt lat="45.30899" lon="4.63387">
        <ele>552.79998779297</ele>
        <time>2026-05-12T07:47:40.000Z</time>
      </trkpt>
      <trkpt lat="45.30896" lon="4.6339">
        <ele>552.79998779297</ele>
        <time>2026-05-12T07:47:41.000Z</time>
      </trkpt>
      <trkpt lat="45.30894" lon="4.63392">
        <ele>553</ele>
        <time>2026-05-12T07:47:42.000Z</time>
      </trkpt>
      <trkpt lat="45.30891" lon="4.63394">
        <ele>553.20001220703</ele>
        <time>2026-05-12T07:47:43.000Z</time>
      </trkpt>
      <trkpt lat="45.30888" lon="4.63396">
        <ele>553.40002441406</ele>
        <time>2026-05-12T07:47:44.000Z</time>
      </trkpt>
      <trkpt lat="45.30886" lon="4.63398">
        <ele>553.40002441406</ele>
        <time>2026-05-12T07:47:45.000Z</time>
      </trkpt>
      <trkpt lat="45.30883" lon="4.634">
        <ele>553.59997558594</ele>
        <time>2026-05-12T07:47:46.000Z</time>
      </trkpt>
      <trkpt lat="45.30881" lon="4.63402">
        <ele>553.79998779297</ele>
        <time>2026-05-12T07:47:47.000Z</time>
      </trkpt>
      <trkpt lat="45.30879" lon="4.63405">
        <ele>554</ele>
        <time>2026-05-12T07:47:48.000Z</time>
      </trkpt>
      <trkpt lat="45.30877" lon="4.63407">
        <ele>554.20001220703</ele>
        <time>2026-05-12T07:47:49.000Z</time>
      </trkpt>
      <trkpt lat="45.30874" lon="4.6341">
        <ele>554.40002441406</ele>
        <time>2026-05-12T07:47:50.000Z</time>
      </trkpt>
      <trkpt lat="45.30872" lon="4.63412">
        <ele>554.59997558594</ele>
        <time>2026-05-12T07:47:51.000Z</time>
      </trkpt>
      <trkpt lat="45.3087" lon="4.63415">
        <ele>554.79998779297</ele>
        <time>2026-05-12T07:47:52.000Z</time>
      </trkpt>
      <trkpt lat="45.30868" lon="4.63417">
        <ele>555</ele>
        <time>2026-05-12T07:47:53.000Z</time>
      </trkpt>
      <trkpt lat="45.30866" lon="4.63419">
        <ele>555</ele>
        <time>2026-05-12T07:47:54.000Z</time>
      </trkpt>
      <trkpt lat="45.30864" lon="4.6342">
        <ele>555.20001220703</ele>
        <time>2026-05-12T07:47:55.000Z</time>
      </trkpt>
      <trkpt lat="45.30862" lon="4.63423">
        <ele>555.40002441406</ele>
        <time>2026-05-12T07:47:56.000Z</time>
      </trkpt>
      <trkpt lat="45.3086" lon="4.63424">
        <ele>555.59997558594</ele>
        <time>2026-05-12T07:47:57.000Z</time>
      </trkpt>
      <trkpt lat="45.30858" lon="4.63426">
        <ele>555.79998779297</ele>
        <time>2026-05-12T07:47:58.000Z</time>
      </trkpt>
      <trkpt lat="45.30855" lon="4.63428">
        <ele>555.79998779297</ele>
        <time>2026-05-12T07:47:59.000Z</time>
      </trkpt>
      <trkpt lat="45.30853" lon="4.63431">
        <ele>556</ele>
        <time>2026-05-12T07:48:00.000Z</time>
      </trkpt>
      <trkpt lat="45.30851" lon="4.63433">
        <ele>556.20001220703</ele>
        <time>2026-05-12T07:48:01.000Z</time>
      </trkpt>
      <trkpt lat="45.30849" lon="4.63435">
        <ele>556.20001220703</ele>
        <time>2026-05-12T07:48:02.000Z</time>
      </trkpt>
      <trkpt lat="45.30847" lon="4.63437">
        <ele>556.40002441406</ele>
        <time>2026-05-12T07:48:03.000Z</time>
      </trkpt>
      <trkpt lat="45.30845" lon="4.63439">
        <ele>556.40002441406</ele>
        <time>2026-05-12T07:48:04.000Z</time>
      </trkpt>
      <trkpt lat="45.30843" lon="4.63441">
        <ele>556.59997558594</ele>
        <time>2026-05-12T07:48:05.000Z</time>
      </trkpt>
      <trkpt lat="45.30841" lon="4.63443">
        <ele>556.59997558594</ele>
        <time>2026-05-12T07:48:06.000Z</time>
      </trkpt>
      <trkpt lat="45.30839" lon="4.63444">
        <ele>556.59997558594</ele>
        <time>2026-05-12T07:48:07.000Z</time>
      </trkpt>
      <trkpt lat="45.30838" lon="4.63446">
        <ele>556.79998779297</ele>
        <time>2026-05-12T07:48:08.000Z</time>
      </trkpt>
      <trkpt lat="45.30836" lon="4.63447">
        <ele>556.79998779297</ele>
        <time>2026-05-12T07:48:09.000Z</time>
      </trkpt>
      <trkpt lat="45.30834" lon="4.63449">
        <ele>557</ele>
        <time>2026-05-12T07:48:10.000Z</time>
      </trkpt>
      <trkpt lat="45.30831" lon="4.63451">
        <ele>557</ele>
        <time>2026-05-12T07:48:11.000Z</time>
      </trkpt>
      <trkpt lat="45.30829" lon="4.63453">
        <ele>557.20001220703</ele>
        <time>2026-05-12T07:48:12.000Z</time>
      </trkpt>
      <trkpt lat="45.30827" lon="4.63454">
        <ele>557.20001220703</ele>
        <time>2026-05-12T07:48:13.000Z</time>
      </trkpt>
      <trkpt lat="45.30825" lon="4.63456">
        <ele>557.40002441406</ele>
        <time>2026-05-12T07:48:14.000Z</time>
      </trkpt>
      <trkpt lat="45.30823" lon="4.63458">
        <ele>557.40002441406</ele>
        <time>2026-05-12T07:48:15.000Z</time>
      </trkpt>
      <trkpt lat="45.30821" lon="4.6346">
        <ele>557.59997558594</ele>
        <time>2026-05-12T07:48:16.000Z</time>
      </trkpt>
      <trkpt lat="45.3082" lon="4.63462">
        <ele>557.59997558594</ele>
        <time>2026-05-12T07:48:17.000Z</time>
      </trkpt>
      <trkpt lat="45.30817" lon="4.63464">
        <ele>557.59997558594</ele>
        <time>2026-05-12T07:48:18.000Z</time>
      </trkpt>
      <trkpt lat="45.30815" lon="4.63465">
        <ele>557.79998779297</ele>
        <time>2026-05-12T07:48:19.000Z</time>
      </trkpt>
      <trkpt lat="45.30812" lon="4.63467">
        <ele>557.79998779297</ele>
        <time>2026-05-12T07:48:20.000Z</time>
      </trkpt>
      <trkpt lat="45.30811" lon="4.63468">
        <ele>558</ele>
        <time>2026-05-12T07:48:21.000Z</time>
      </trkpt>
      <trkpt lat="45.30809" lon="4.6347">
        <ele>558</ele>
        <time>2026-05-12T07:48:22.000Z</time>
      </trkpt>
      <trkpt lat="45.30806" lon="4.63471">
        <ele>558.20001220703</ele>
        <time>2026-05-12T07:48:23.000Z</time>
      </trkpt>
      <trkpt lat="45.30803" lon="4.63472">
        <ele>558.40002441406</ele>
        <time>2026-05-12T07:48:24.000Z</time>
      </trkpt>
      <trkpt lat="45.308" lon="4.63473">
        <ele>558.40002441406</ele>
        <time>2026-05-12T07:48:25.000Z</time>
      </trkpt>
      <trkpt lat="45.30798" lon="4.63475">
        <ele>558.59997558594</ele>
        <time>2026-05-12T07:48:26.000Z</time>
      </trkpt>
      <trkpt lat="45.30795" lon="4.63476">
        <ele>558.79998779297</ele>
        <time>2026-05-12T07:48:27.000Z</time>
      </trkpt>
      <trkpt lat="45.30792" lon="4.63476">
        <ele>559</ele>
        <time>2026-05-12T07:48:28.000Z</time>
      </trkpt>
      <trkpt lat="45.30789" lon="4.63477">
        <ele>559.20001220703</ele>
        <time>2026-05-12T07:48:29.000Z</time>
      </trkpt>
      <trkpt lat="45.30785" lon="4.63478">
        <ele>559.20001220703</ele>
        <time>2026-05-12T07:48:30.000Z</time>
      </trkpt>
      <trkpt lat="45.30783" lon="4.63479">
        <ele>559.40002441406</ele>
        <time>2026-05-12T07:48:31.000Z</time>
      </trkpt>
      <trkpt lat="45.30779" lon="4.63479">
        <ele>559.59997558594</ele>
        <time>2026-05-12T07:48:32.000Z</time>
      </trkpt>
      <trkpt lat="45.30777" lon="4.63479">
        <ele>559.79998779297</ele>
        <time>2026-05-12T07:48:33.000Z</time>
      </trkpt>
      <trkpt lat="45.30774" lon="4.63479">
        <ele>559.79998779297</ele>
        <time>2026-05-12T07:48:34.000Z</time>
      </trkpt>
      <trkpt lat="45.30772" lon="4.63479">
        <ele>560</ele>
        <time>2026-05-12T07:48:35.000Z</time>
      </trkpt>
      <trkpt lat="45.30769" lon="4.63479">
        <ele>560</ele>
        <time>2026-05-12T07:48:36.000Z</time>
      </trkpt>
      <trkpt lat="45.30766" lon="4.63479">
        <ele>560.20001220703</ele>
        <time>2026-05-12T07:48:37.000Z</time>
      </trkpt>
      <trkpt lat="45.30764" lon="4.63478">
        <ele>560.20001220703</ele>
        <time>2026-05-12T07:48:38.000Z</time>
      </trkpt>
      <trkpt lat="45.30761" lon="4.63478">
        <ele>560.40002441406</ele>
        <time>2026-05-12T07:48:39.000Z</time>
      </trkpt>
      <trkpt lat="45.30759" lon="4.63478">
        <ele>560.40002441406</ele>
        <time>2026-05-12T07:48:40.000Z</time>
      </trkpt>
      <trkpt lat="45.30756" lon="4.63478">
        <ele>560.59997558594</ele>
        <time>2026-05-12T07:48:41.000Z</time>
      </trkpt>
      <trkpt lat="45.30753" lon="4.63478">
        <ele>560.79998779297</ele>
        <time>2026-05-12T07:48:42.000Z</time>
      </trkpt>
      <trkpt lat="45.3075" lon="4.6348">
        <ele>560.79998779297</ele>
        <time>2026-05-12T07:48:43.000Z</time>
      </trkpt>
      <trkpt lat="45.30747" lon="4.63481">
        <ele>561</ele>
        <time>2026-05-12T07:48:44.000Z</time>
      </trkpt>
      <trkpt lat="45.30745" lon="4.63484">
        <ele>561</ele>
        <time>2026-05-12T07:48:45.000Z</time>
      </trkpt>
      <trkpt lat="45.30744" lon="4.63487">
        <ele>561.20001220703</ele>
        <time>2026-05-12T07:48:46.000Z</time>
      </trkpt>
      <trkpt lat="45.30742" lon="4.63489">
        <ele>561.20001220703</ele>
        <time>2026-05-12T07:48:47.000Z</time>
      </trkpt>
      <trkpt lat="45.30741" lon="4.63492">
        <ele>561.40002441406</ele>
        <time>2026-05-12T07:48:48.000Z</time>
      </trkpt>
      <trkpt lat="45.3074" lon="4.63495">
        <ele>561.59997558594</ele>
        <time>2026-05-12T07:48:49.000Z</time>
      </trkpt>
      <trkpt lat="45.30738" lon="4.63497">
        <ele>561.79998779297</ele>
        <time>2026-05-12T07:48:50.000Z</time>
      </trkpt>
      <trkpt lat="45.30736" lon="4.635">
        <ele>562</ele>
        <time>2026-05-12T07:48:51.000Z</time>
      </trkpt>
      <trkpt lat="45.30735" lon="4.63503">
        <ele>562.20001220703</ele>
        <time>2026-05-12T07:48:52.000Z</time>
      </trkpt>
      <trkpt lat="45.30733" lon="4.63506">
        <ele>562.40002441406</ele>
        <time>2026-05-12T07:48:53.000Z</time>
      </trkpt>
      <trkpt lat="45.30731" lon="4.63509">
        <ele>562.59997558594</ele>
        <time>2026-05-12T07:48:54.000Z</time>
      </trkpt>
      <trkpt lat="45.30729" lon="4.63512">
        <ele>562.79998779297</ele>
        <time>2026-05-12T07:48:55.000Z</time>
      </trkpt>
      <trkpt lat="45.30728" lon="4.63515">
        <ele>563</ele>
        <time>2026-05-12T07:48:56.000Z</time>
      </trkpt>
      <trkpt lat="45.30726" lon="4.63517">
        <ele>563.20001220703</ele>
        <time>2026-05-12T07:48:57.000Z</time>
      </trkpt>
      <trkpt lat="45.30724" lon="4.6352">
        <ele>563.40002441406</ele>
        <time>2026-05-12T07:48:58.000Z</time>
      </trkpt>
      <trkpt lat="45.30723" lon="4.63523">
        <ele>563.59997558594</ele>
        <time>2026-05-12T07:48:59.000Z</time>
      </trkpt>
      <trkpt lat="45.30722" lon="4.63526">
        <ele>563.79998779297</ele>
        <time>2026-05-12T07:49:00.000Z</time>
      </trkpt>
      <trkpt lat="45.3072" lon="4.63529">
        <ele>564</ele>
        <time>2026-05-12T07:49:01.000Z</time>
      </trkpt>
      <trkpt lat="45.30719" lon="4.63531">
        <ele>564.20001220703</ele>
        <time>2026-05-12T07:49:02.000Z</time>
      </trkpt>
      <trkpt lat="45.30718" lon="4.63534">
        <ele>564.40002441406</ele>
        <time>2026-05-12T07:49:03.000Z</time>
      </trkpt>
      <trkpt lat="45.30717" lon="4.63537">
        <ele>564.59997558594</ele>
        <time>2026-05-12T07:49:04.000Z</time>
      </trkpt>
      <trkpt lat="45.30716" lon="4.6354">
        <ele>564.79998779297</ele>
        <time>2026-05-12T07:49:05.000Z</time>
      </trkpt>
      <trkpt lat="45.30715" lon="4.63542">
        <ele>565.20001220703</ele>
        <time>2026-05-12T07:49:06.000Z</time>
      </trkpt>
      <trkpt lat="45.30713" lon="4.63545">
        <ele>565.40002441406</ele>
        <time>2026-05-12T07:49:07.000Z</time>
      </trkpt>
      <trkpt lat="45.30712" lon="4.63548">
        <ele>565.59997558594</ele>
        <time>2026-05-12T07:49:08.000Z</time>
      </trkpt>
      <trkpt lat="45.3071" lon="4.6355">
        <ele>565.79998779297</ele>
        <time>2026-05-12T07:49:09.000Z</time>
      </trkpt>
      <trkpt lat="45.30708" lon="4.63552">
        <ele>566</ele>
        <time>2026-05-12T07:49:10.000Z</time>
      </trkpt>
      <trkpt lat="45.30706" lon="4.63554">
        <ele>566.20001220703</ele>
        <time>2026-05-12T07:49:11.000Z</time>
      </trkpt>
      <trkpt lat="45.30705" lon="4.63556">
        <ele>566.40002441406</ele>
        <time>2026-05-12T07:49:12.000Z</time>
      </trkpt>
      <trkpt lat="45.30703" lon="4.63558">
        <ele>566.59997558594</ele>
        <time>2026-05-12T07:49:13.000Z</time>
      </trkpt>
      <trkpt lat="45.30701" lon="4.63559">
        <ele>566.79998779297</ele>
        <time>2026-05-12T07:49:14.000Z</time>
      </trkpt>
      <trkpt lat="45.30699" lon="4.6356">
        <ele>567</ele>
        <time>2026-05-12T07:49:15.000Z</time>
      </trkpt>
      <trkpt lat="45.30697" lon="4.63562">
        <ele>567.20001220703</ele>
        <time>2026-05-12T07:49:16.000Z</time>
      </trkpt>
      <trkpt lat="45.30695" lon="4.63564">
        <ele>567.20001220703</ele>
        <time>2026-05-12T07:49:17.000Z</time>
      </trkpt>
      <trkpt lat="45.30693" lon="4.63565">
        <ele>567.40002441406</ele>
        <time>2026-05-12T07:49:18.000Z</time>
      </trkpt>
      <trkpt lat="45.30691" lon="4.63566">
        <ele>567.59997558594</ele>
        <time>2026-05-12T07:49:19.000Z</time>
      </trkpt>
      <trkpt lat="45.30688" lon="4.63567">
        <ele>567.59997558594</ele>
        <time>2026-05-12T07:49:20.000Z</time>
      </trkpt>
      <trkpt lat="45.30686" lon="4.63568">
        <ele>567.79998779297</ele>
        <time>2026-05-12T07:49:21.000Z</time>
      </trkpt>
      <trkpt lat="45.30684" lon="4.63569">
        <ele>568</ele>
        <time>2026-05-12T07:49:22.000Z</time>
      </trkpt>
      <trkpt lat="45.30681" lon="4.6357">
        <ele>568</ele>
        <time>2026-05-12T07:49:23.000Z</time>
      </trkpt>
      <trkpt lat="45.30679" lon="4.63571">
        <ele>568.20001220703</ele>
        <time>2026-05-12T07:49:24.000Z</time>
      </trkpt>
      <trkpt lat="45.30677" lon="4.63571">
        <ele>568.40002441406</ele>
        <time>2026-05-12T07:49:25.000Z</time>
      </trkpt>
      <trkpt lat="45.30674" lon="4.63572">
        <ele>568.40002441406</ele>
        <time>2026-05-12T07:49:26.000Z</time>
      </trkpt>
      <trkpt lat="45.30672" lon="4.63572">
        <ele>568.59997558594</ele>
        <time>2026-05-12T07:49:27.000Z</time>
      </trkpt>
      <trkpt lat="45.3067" lon="4.63572">
        <ele>568.79998779297</ele>
        <time>2026-05-12T07:49:28.000Z</time>
      </trkpt>
      <trkpt lat="45.30668" lon="4.63572">
        <ele>569</ele>
        <time>2026-05-12T07:49:29.000Z</time>
      </trkpt>
      <trkpt lat="45.30666" lon="4.63573">
        <ele>569.20001220703</ele>
        <time>2026-05-12T07:49:30.000Z</time>
      </trkpt>
      <trkpt lat="45.30663" lon="4.63573">
        <ele>569.40002441406</ele>
        <time>2026-05-12T07:49:31.000Z</time>
      </trkpt>
      <trkpt lat="45.30661" lon="4.63573">
        <ele>569.59997558594</ele>
        <time>2026-05-12T07:49:32.000Z</time>
      </trkpt>
      <trkpt lat="45.30659" lon="4.63572">
        <ele>569.79998779297</ele>
        <time>2026-05-12T07:49:33.000Z</time>
      </trkpt>
      <trkpt lat="45.30657" lon="4.63572">
        <ele>569.79998779297</ele>
        <time>2026-05-12T07:49:34.000Z</time>
      </trkpt>
      <trkpt lat="45.30655" lon="4.63571">
        <ele>570</ele>
        <time>2026-05-12T07:49:35.000Z</time>
      </trkpt>
      <trkpt lat="45.30653" lon="4.6357">
        <ele>570.20001220703</ele>
        <time>2026-05-12T07:49:36.000Z</time>
      </trkpt>
      <trkpt lat="45.30651" lon="4.63569">
        <ele>570.20001220703</ele>
        <time>2026-05-12T07:49:37.000Z</time>
      </trkpt>
      <trkpt lat="45.30649" lon="4.63568">
        <ele>570.40002441406</ele>
        <time>2026-05-12T07:49:38.000Z</time>
      </trkpt>
      <trkpt lat="45.30647" lon="4.63567">
        <ele>570.40002441406</ele>
        <time>2026-05-12T07:49:39.000Z</time>
      </trkpt>
      <trkpt lat="45.30645" lon="4.63566">
        <ele>570.59997558594</ele>
        <time>2026-05-12T07:49:40.000Z</time>
      </trkpt>
      <trkpt lat="45.30643" lon="4.63565">
        <ele>570.79998779297</ele>
        <time>2026-05-12T07:49:41.000Z</time>
      </trkpt>
      <trkpt lat="45.30641" lon="4.63565">
        <ele>571</ele>
        <time>2026-05-12T07:49:42.000Z</time>
      </trkpt>
      <trkpt lat="45.30639" lon="4.63565">
        <ele>571.20001220703</ele>
        <time>2026-05-12T07:49:43.000Z</time>
      </trkpt>
      <trkpt lat="45.30636" lon="4.63565">
        <ele>571.40002441406</ele>
        <time>2026-05-12T07:49:44.000Z</time>
      </trkpt>
      <trkpt lat="45.30634" lon="4.63565">
        <ele>571.79998779297</ele>
        <time>2026-05-12T07:49:45.000Z</time>
      </trkpt>
      <trkpt lat="45.30632" lon="4.63564">
        <ele>572</ele>
        <time>2026-05-12T07:49:46.000Z</time>
      </trkpt>
      <trkpt lat="45.3063" lon="4.63564">
        <ele>572.20001220703</ele>
        <time>2026-05-12T07:49:47.000Z</time>
      </trkpt>
      <trkpt lat="45.30628" lon="4.63564">
        <ele>572.59997558594</ele>
        <time>2026-05-12T07:49:48.000Z</time>
      </trkpt>
      <trkpt lat="45.30626" lon="4.63564">
        <ele>572.79998779297</ele>
        <time>2026-05-12T07:49:49.000Z</time>
      </trkpt>
      <trkpt lat="45.30624" lon="4.63564">
        <ele>573</ele>
        <time>2026-05-12T07:49:50.000Z</time>
      </trkpt>
      <trkpt lat="45.30622" lon="4.63564">
        <ele>573.20001220703</ele>
        <time>2026-05-12T07:49:51.000Z</time>
      </trkpt>
      <trkpt lat="45.3062" lon="4.63563">
        <ele>573.40002441406</ele>
        <time>2026-05-12T07:49:52.000Z</time>
      </trkpt>
      <trkpt lat="45.30618" lon="4.63563">
        <ele>573.79998779297</ele>
        <time>2026-05-12T07:49:53.000Z</time>
      </trkpt>
      <trkpt lat="45.30615" lon="4.63563">
        <ele>574</ele>
        <time>2026-05-12T07:49:54.000Z</time>
      </trkpt>
      <trkpt lat="45.30613" lon="4.63563">
        <ele>574.20001220703</ele>
        <time>2026-05-12T07:49:55.000Z</time>
      </trkpt>
      <trkpt lat="45.30611" lon="4.63563">
        <ele>574.40002441406</ele>
        <time>2026-05-12T07:49:56.000Z</time>
      </trkpt>
      <trkpt lat="45.30609" lon="4.63563">
        <ele>574.59997558594</ele>
        <time>2026-05-12T07:49:57.000Z</time>
      </trkpt>
      <trkpt lat="45.30607" lon="4.63564">
        <ele>575</ele>
        <time>2026-05-12T07:49:58.000Z</time>
      </trkpt>
      <trkpt lat="45.30605" lon="4.63563">
        <ele>575.20001220703</ele>
        <time>2026-05-12T07:49:59.000Z</time>
      </trkpt>
      <trkpt lat="45.30603" lon="4.63563">
        <ele>575.40002441406</ele>
        <time>2026-05-12T07:50:00.000Z</time>
      </trkpt>
      <trkpt lat="45.30601" lon="4.63563">
        <ele>575.59997558594</ele>
        <time>2026-05-12T07:50:01.000Z</time>
      </trkpt>
      <trkpt lat="45.30599" lon="4.63563">
        <ele>575.79998779297</ele>
        <time>2026-05-12T07:50:02.000Z</time>
      </trkpt>
      <trkpt lat="45.30598" lon="4.63563">
        <ele>576</ele>
        <time>2026-05-12T07:50:03.000Z</time>
      </trkpt>
      <trkpt lat="45.30595" lon="4.63563">
        <ele>576.20001220703</ele>
        <time>2026-05-12T07:50:04.000Z</time>
      </trkpt>
      <trkpt lat="45.30593" lon="4.63563">
        <ele>576.59997558594</ele>
        <time>2026-05-12T07:50:05.000Z</time>
      </trkpt>
      <trkpt lat="45.30591" lon="4.63563">
        <ele>576.79998779297</ele>
        <time>2026-05-12T07:50:06.000Z</time>
      </trkpt>
      <trkpt lat="45.30589" lon="4.63562">
        <ele>577</ele>
        <time>2026-05-12T07:50:07.000Z</time>
      </trkpt>
      <trkpt lat="45.30587" lon="4.63562">
        <ele>577.20001220703</ele>
        <time>2026-05-12T07:50:08.000Z</time>
      </trkpt>
      <trkpt lat="45.30585" lon="4.63562">
        <ele>577.59997558594</ele>
        <time>2026-05-12T07:50:09.000Z</time>
      </trkpt>
      <trkpt lat="45.30583" lon="4.63563">
        <ele>577.79998779297</ele>
        <time>2026-05-12T07:50:10.000Z</time>
      </trkpt>
      <trkpt lat="45.30581" lon="4.63563">
        <ele>578</ele>
        <time>2026-05-12T07:50:11.000Z</time>
      </trkpt>
      <trkpt lat="45.30579" lon="4.63563">
        <ele>578.20001220703</ele>
        <time>2026-05-12T07:50:12.000Z</time>
      </trkpt>
      <trkpt lat="45.30577" lon="4.63563">
        <ele>578.40002441406</ele>
        <time>2026-05-12T07:50:13.000Z</time>
      </trkpt>
      <trkpt lat="45.30574" lon="4.63562">
        <ele>578.59997558594</ele>
        <time>2026-05-12T07:50:14.000Z</time>
      </trkpt>
      <trkpt lat="45.30572" lon="4.63562">
        <ele>578.79998779297</ele>
        <time>2026-05-12T07:50:15.000Z</time>
      </trkpt>
      <trkpt lat="45.3057" lon="4.63562">
        <ele>579</ele>
        <time>2026-05-12T07:50:16.000Z</time>
      </trkpt>
      <trkpt lat="45.30568" lon="4.63562">
        <ele>579.20001220703</ele>
        <time>2026-05-12T07:50:17.000Z</time>
      </trkpt>
      <trkpt lat="45.30566" lon="4.63562">
        <ele>579.20001220703</ele>
        <time>2026-05-12T07:50:18.000Z</time>
      </trkpt>
      <trkpt lat="45.30563" lon="4.63562">
        <ele>579.40002441406</ele>
        <time>2026-05-12T07:50:19.000Z</time>
      </trkpt>
      <trkpt lat="45.30561" lon="4.63562">
        <ele>579.59997558594</ele>
        <time>2026-05-12T07:50:20.000Z</time>
      </trkpt>
      <trkpt lat="45.30559" lon="4.63561">
        <ele>579.79998779297</ele>
        <time>2026-05-12T07:50:21.000Z</time>
      </trkpt>
      <trkpt lat="45.30556" lon="4.63561">
        <ele>579.79998779297</ele>
        <time>2026-05-12T07:50:22.000Z</time>
      </trkpt>
      <trkpt lat="45.30554" lon="4.63561">
        <ele>580</ele>
        <time>2026-05-12T07:50:23.000Z</time>
      </trkpt>
      <trkpt lat="45.30552" lon="4.63561">
        <ele>580.20001220703</ele>
        <time>2026-05-12T07:50:24.000Z</time>
      </trkpt>
      <trkpt lat="45.3055" lon="4.63561">
        <ele>580.20001220703</ele>
        <time>2026-05-12T07:50:25.000Z</time>
      </trkpt>
      <trkpt lat="45.30547" lon="4.63561">
        <ele>580.20001220703</ele>
        <time>2026-05-12T07:50:26.000Z</time>
      </trkpt>
      <trkpt lat="45.30545" lon="4.63561">
        <ele>580.40002441406</ele>
        <time>2026-05-12T07:50:27.000Z</time>
      </trkpt>
      <trkpt lat="45.30543" lon="4.63561">
        <ele>580.40002441406</ele>
        <time>2026-05-12T07:50:28.000Z</time>
      </trkpt>
      <trkpt lat="45.3054" lon="4.63561">
        <ele>580.40002441406</ele>
        <time>2026-05-12T07:50:29.000Z</time>
      </trkpt>
      <trkpt lat="45.30538" lon="4.63561">
        <ele>580.59997558594</ele>
        <time>2026-05-12T07:50:30.000Z</time>
      </trkpt>
      <trkpt lat="45.30536" lon="4.63561">
        <ele>580.59997558594</ele>
        <time>2026-05-12T07:50:31.000Z</time>
      </trkpt>
      <trkpt lat="45.30533" lon="4.63561">
        <ele>580.59997558594</ele>
        <time>2026-05-12T07:50:32.000Z</time>
      </trkpt>
      <trkpt lat="45.30531" lon="4.6356">
        <ele>580.59997558594</ele>
        <time>2026-05-12T07:50:33.000Z</time>
      </trkpt>
      <trkpt lat="45.30529" lon="4.6356">
        <ele>580.59997558594</ele>
        <time>2026-05-12T07:50:34.000Z</time>
      </trkpt>
      <trkpt lat="45.30526" lon="4.6356">
        <ele>580.59997558594</ele>
        <time>2026-05-12T07:50:35.000Z</time>
      </trkpt>
      <trkpt lat="45.30524" lon="4.6356">
        <ele>580.59997558594</ele>
        <time>2026-05-12T07:50:36.000Z</time>
      </trkpt>
      <trkpt lat="45.30521" lon="4.6356">
        <ele>580.59997558594</ele>
        <time>2026-05-12T07:50:37.000Z</time>
      </trkpt>
      <trkpt lat="45.30519" lon="4.6356">
        <ele>580.79998779297</ele>
        <time>2026-05-12T07:50:38.000Z</time>
      </trkpt>
      <trkpt lat="45.30516" lon="4.63559">
        <ele>580.79998779297</ele>
        <time>2026-05-12T07:50:39.000Z</time>
      </trkpt>
      <trkpt lat="45.30514" lon="4.63559">
        <ele>580.79998779297</ele>
        <time>2026-05-12T07:50:40.000Z</time>
      </trkpt>
      <trkpt lat="45.30511" lon="4.63559">
        <ele>580.79998779297</ele>
        <time>2026-05-12T07:50:41.000Z</time>
      </trkpt>
      <trkpt lat="45.30509" lon="4.63558">
        <ele>580.79998779297</ele>
        <time>2026-05-12T07:50:42.000Z</time>
      </trkpt>
      <trkpt lat="45.30506" lon="4.63558">
        <ele>580.79998779297</ele>
        <time>2026-05-12T07:50:43.000Z</time>
      </trkpt>
      <trkpt lat="45.30504" lon="4.63557">
        <ele>580.79998779297</ele>
        <time>2026-05-12T07:50:44.000Z</time>
      </trkpt>
      <trkpt lat="45.30501" lon="4.63557">
        <ele>580.59997558594</ele>
        <time>2026-05-12T07:50:45.000Z</time>
      </trkpt>
      <trkpt lat="45.30499" lon="4.63556">
        <ele>580.59997558594</ele>
        <time>2026-05-12T07:50:46.000Z</time>
      </trkpt>
      <trkpt lat="45.30496" lon="4.63555">
        <ele>580.59997558594</ele>
        <time>2026-05-12T07:50:47.000Z</time>
      </trkpt>
      <trkpt lat="45.30494" lon="4.63555">
        <ele>580.59997558594</ele>
        <time>2026-05-12T07:50:48.000Z</time>
      </trkpt>
      <trkpt lat="45.30492" lon="4.63555">
        <ele>580.59997558594</ele>
        <time>2026-05-12T07:50:49.000Z</time>
      </trkpt>
      <trkpt lat="45.30489" lon="4.63554">
        <ele>580.40002441406</ele>
        <time>2026-05-12T07:50:50.000Z</time>
      </trkpt>
      <trkpt lat="45.30486" lon="4.63553">
        <ele>580.40002441406</ele>
        <time>2026-05-12T07:50:51.000Z</time>
      </trkpt>
      <trkpt lat="45.30483" lon="4.63553">
        <ele>580.40002441406</ele>
        <time>2026-05-12T07:50:52.000Z</time>
      </trkpt>
      <trkpt lat="45.30481" lon="4.63552">
        <ele>580.40002441406</ele>
        <time>2026-05-12T07:50:53.000Z</time>
      </trkpt>
      <trkpt lat="45.30478" lon="4.63551">
        <ele>580.20001220703</ele>
        <time>2026-05-12T07:50:54.000Z</time>
      </trkpt>
      <trkpt lat="45.30476" lon="4.63551">
        <ele>580.20001220703</ele>
        <time>2026-05-12T07:50:55.000Z</time>
      </trkpt>
      <trkpt lat="45.30473" lon="4.63552">
        <ele>580.20001220703</ele>
        <time>2026-05-12T07:50:56.000Z</time>
      </trkpt>
      <trkpt lat="45.3047" lon="4.63552">
        <ele>580.20001220703</ele>
        <time>2026-05-12T07:50:57.000Z</time>
      </trkpt>
      <trkpt lat="45.30467" lon="4.63552">
        <ele>580.20001220703</ele>
        <time>2026-05-12T07:50:58.000Z</time>
      </trkpt>
      <trkpt lat="45.30465" lon="4.63552">
        <ele>580.20001220703</ele>
        <time>2026-05-12T07:50:59.000Z</time>
      </trkpt>
      <trkpt lat="45.30462" lon="4.63553">
        <ele>580.40002441406</ele>
        <time>2026-05-12T07:51:00.000Z</time>
      </trkpt>
      <trkpt lat="45.3046" lon="4.63554">
        <ele>580.40002441406</ele>
        <time>2026-05-12T07:51:01.000Z</time>
      </trkpt>
      <trkpt lat="45.30457" lon="4.63555">
        <ele>580.40002441406</ele>
        <time>2026-05-12T07:51:02.000Z</time>
      </trkpt>
      <trkpt lat="45.30454" lon="4.63554">
        <ele>580.40002441406</ele>
        <time>2026-05-12T07:51:03.000Z</time>
      </trkpt>
      <trkpt lat="45.30452" lon="4.63553">
        <ele>580.40002441406</ele>
        <time>2026-05-12T07:51:04.000Z</time>
      </trkpt>
      <trkpt lat="45.30449" lon="4.63552">
        <ele>580.40002441406</ele>
        <time>2026-05-12T07:51:05.000Z</time>
      </trkpt>
      <trkpt lat="45.30447" lon="4.63551">
        <ele>580.59997558594</ele>
        <time>2026-05-12T07:51:06.000Z</time>
      </trkpt>
      <trkpt lat="45.30445" lon="4.6355">
        <ele>580.59997558594</ele>
        <time>2026-05-12T07:51:07.000Z</time>
      </trkpt>
      <trkpt lat="45.30442" lon="4.6355">
        <ele>580.59997558594</ele>
        <time>2026-05-12T07:51:08.000Z</time>
      </trkpt>
      <trkpt lat="45.3044" lon="4.6355">
        <ele>580.79998779297</ele>
        <time>2026-05-12T07:51:09.000Z</time>
      </trkpt>
      <trkpt lat="45.30437" lon="4.63549">
        <ele>580.79998779297</ele>
        <time>2026-05-12T07:51:10.000Z</time>
      </trkpt>
      <trkpt lat="45.30435" lon="4.63549">
        <ele>580.79998779297</ele>
        <time>2026-05-12T07:51:11.000Z</time>
      </trkpt>
      <trkpt lat="45.30433" lon="4.63548">
        <ele>580.79998779297</ele>
        <time>2026-05-12T07:51:12.000Z</time>
      </trkpt>
      <trkpt lat="45.3043" lon="4.63548">
        <ele>580.79998779297</ele>
        <time>2026-05-12T07:51:13.000Z</time>
      </trkpt>
      <trkpt lat="45.30428" lon="4.63547">
        <ele>581</ele>
        <time>2026-05-12T07:51:14.000Z</time>
      </trkpt>
      <trkpt lat="45.30426" lon="4.63547">
        <ele>581</ele>
        <time>2026-05-12T07:51:15.000Z</time>
      </trkpt>
      <trkpt lat="45.30424" lon="4.63546">
        <ele>581</ele>
        <time>2026-05-12T07:51:16.000Z</time>
      </trkpt>
      <trkpt lat="45.30423" lon="4.63544">
        <ele>581.20001220703</ele>
        <time>2026-05-12T07:51:17.000Z</time>
      </trkpt>
      <trkpt lat="45.30421" lon="4.63543">
        <ele>581.20001220703</ele>
        <time>2026-05-12T07:51:18.000Z</time>
      </trkpt>
      <trkpt lat="45.3042" lon="4.63541">
        <ele>581.20001220703</ele>
        <time>2026-05-12T07:51:19.000Z</time>
      </trkpt>
      <trkpt lat="45.30419" lon="4.63541">
        <ele>581.20001220703</ele>
        <time>2026-05-12T07:51:20.000Z</time>
      </trkpt>
      <trkpt lat="45.30419" lon="4.63541">
        <ele>581.20001220703</ele>
        <time>2026-05-12T07:51:21.000Z</time>
      </trkpt>
      <trkpt lat="45.30414" lon="4.6354">
        <ele>580.20001220703</ele>
        <time>2026-05-12T07:52:44.000Z</time>
      </trkpt>
      <trkpt lat="45.30413" lon="4.63539">
        <ele>580.20001220703</ele>
        <time>2026-05-12T07:52:45.000Z</time>
      </trkpt>
      <trkpt lat="45.30411" lon="4.63537">
        <ele>580</ele>
        <time>2026-05-12T07:52:46.000Z</time>
      </trkpt>
      <trkpt lat="45.30409" lon="4.63536">
        <ele>580</ele>
        <time>2026-05-12T07:52:47.000Z</time>
      </trkpt>
      <trkpt lat="45.30407" lon="4.63534">
        <ele>579.79998779297</ele>
        <time>2026-05-12T07:52:48.000Z</time>
      </trkpt>
      <trkpt lat="45.30405" lon="4.63533">
        <ele>579.79998779297</ele>
        <time>2026-05-12T07:52:49.000Z</time>
      </trkpt>
      <trkpt lat="45.30403" lon="4.63532">
        <ele>579.59997558594</ele>
        <time>2026-05-12T07:52:50.000Z</time>
      </trkpt>
      <trkpt lat="45.30401" lon="4.6353">
        <ele>579.59997558594</ele>
        <time>2026-05-12T07:52:51.000Z</time>
      </trkpt>
      <trkpt lat="45.30398" lon="4.63527">
        <ele>579.40002441406</ele>
        <time>2026-05-12T07:52:52.000Z</time>
      </trkpt>
      <trkpt lat="45.30395" lon="4.63524">
        <ele>579</ele>
        <time>2026-05-12T07:52:53.000Z</time>
      </trkpt>
      <trkpt lat="45.30391" lon="4.63521">
        <ele>578.59997558594</ele>
        <time>2026-05-12T07:52:54.000Z</time>
      </trkpt>
      <trkpt lat="45.30386" lon="4.63518">
        <ele>578.20001220703</ele>
        <time>2026-05-12T07:52:55.000Z</time>
      </trkpt>
      <trkpt lat="45.30382" lon="4.63515">
        <ele>577.79998779297</ele>
        <time>2026-05-12T07:52:56.000Z</time>
      </trkpt>
      <trkpt lat="45.30378" lon="4.63513">
        <ele>577.20001220703</ele>
        <time>2026-05-12T07:52:57.000Z</time>
      </trkpt>
      <trkpt lat="45.30373" lon="4.63511">
        <ele>576.79998779297</ele>
        <time>2026-05-12T07:52:58.000Z</time>
      </trkpt>
      <trkpt lat="45.30368" lon="4.63509">
        <ele>576.20001220703</ele>
        <time>2026-05-12T07:52:59.000Z</time>
      </trkpt>
      <trkpt lat="45.30363" lon="4.63507">
        <ele>575.59997558594</ele>
        <time>2026-05-12T07:53:00.000Z</time>
      </trkpt>
      <trkpt lat="45.30358" lon="4.63506">
        <ele>574.79998779297</ele>
        <time>2026-05-12T07:53:01.000Z</time>
      </trkpt>
      <trkpt lat="45.30352" lon="4.63506">
        <ele>574.20001220703</ele>
        <time>2026-05-12T07:53:02.000Z</time>
      </trkpt>
      <trkpt lat="45.30347" lon="4.63506">
        <ele>573.59997558594</ele>
        <time>2026-05-12T07:53:03.000Z</time>
      </trkpt>
      <trkpt lat="45.30342" lon="4.63506">
        <ele>573</ele>
        <time>2026-05-12T07:53:04.000Z</time>
      </trkpt>
      <trkpt lat="45.30337" lon="4.63506">
        <ele>572.40002441406</ele>
        <time>2026-05-12T07:53:05.000Z</time>
      </trkpt>
      <trkpt lat="45.30331" lon="4.63507">
        <ele>571.79998779297</ele>
        <time>2026-05-12T07:53:06.000Z</time>
      </trkpt>
      <trkpt lat="45.30325" lon="4.63507">
        <ele>571.20001220703</ele>
        <time>2026-05-12T07:53:07.000Z</time>
      </trkpt>
      <trkpt lat="45.30319" lon="4.63508">
        <ele>570.59997558594</ele>
        <time>2026-05-12T07:53:08.000Z</time>
      </trkpt>
      <trkpt lat="45.30313" lon="4.6351">
        <ele>570.20001220703</ele>
        <time>2026-05-12T07:53:09.000Z</time>
      </trkpt>
      <trkpt lat="45.30307" lon="4.63512">
        <ele>569.59997558594</ele>
        <time>2026-05-12T07:53:10.000Z</time>
      </trkpt>
      <trkpt lat="45.30301" lon="4.63514">
        <ele>569.20001220703</ele>
        <time>2026-05-12T07:53:11.000Z</time>
      </trkpt>
      <trkpt lat="45.30295" lon="4.63517">
        <ele>569</ele>
        <time>2026-05-12T07:53:12.000Z</time>
      </trkpt>
      <trkpt lat="45.30289" lon="4.6352">
        <ele>568.59997558594</ele>
        <time>2026-05-12T07:53:13.000Z</time>
      </trkpt>
      <trkpt lat="45.30282" lon="4.63523">
        <ele>568.20001220703</ele>
        <time>2026-05-12T07:53:14.000Z</time>
      </trkpt>
      <trkpt lat="45.30276" lon="4.63525">
        <ele>567.79998779297</ele>
        <time>2026-05-12T07:53:15.000Z</time>
      </trkpt>
      <trkpt lat="45.3027" lon="4.63528">
        <ele>567.40002441406</ele>
        <time>2026-05-12T07:53:16.000Z</time>
      </trkpt>
      <trkpt lat="45.30264" lon="4.63531">
        <ele>567</ele>
        <time>2026-05-12T07:53:17.000Z</time>
      </trkpt>
      <trkpt lat="45.30257" lon="4.63534">
        <ele>566.59997558594</ele>
        <time>2026-05-12T07:53:18.000Z</time>
      </trkpt>
      <trkpt lat="45.30251" lon="4.63537">
        <ele>566.20001220703</ele>
        <time>2026-05-12T07:53:19.000Z</time>
      </trkpt>
      <trkpt lat="45.30245" lon="4.63541">
        <ele>566</ele>
        <time>2026-05-12T07:53:20.000Z</time>
      </trkpt>
      <trkpt lat="45.30239" lon="4.63544">
        <ele>565.79998779297</ele>
        <time>2026-05-12T07:53:21.000Z</time>
      </trkpt>
      <trkpt lat="45.30233" lon="4.63547">
        <ele>565.59997558594</ele>
        <time>2026-05-12T07:53:22.000Z</time>
      </trkpt>
      <trkpt lat="45.30227" lon="4.6355">
        <ele>565.59997558594</ele>
        <time>2026-05-12T07:53:23.000Z</time>
      </trkpt>
      <trkpt lat="45.30222" lon="4.63553">
        <ele>565.40002441406</ele>
        <time>2026-05-12T07:53:24.000Z</time>
      </trkpt>
      <trkpt lat="45.30217" lon="4.63556">
        <ele>565.40002441406</ele>
        <time>2026-05-12T07:53:25.000Z</time>
      </trkpt>
      <trkpt lat="45.30211" lon="4.63558">
        <ele>565.40002441406</ele>
        <time>2026-05-12T07:53:26.000Z</time>
      </trkpt>
      <trkpt lat="45.30206" lon="4.6356">
        <ele>565.40002441406</ele>
        <time>2026-05-12T07:53:27.000Z</time>
      </trkpt>
      <trkpt lat="45.30201" lon="4.63562">
        <ele>565.40002441406</ele>
        <time>2026-05-12T07:53:28.000Z</time>
      </trkpt>
      <trkpt lat="45.30196" lon="4.63563">
        <ele>565.20001220703</ele>
        <time>2026-05-12T07:53:29.000Z</time>
      </trkpt>
      <trkpt lat="45.30191" lon="4.63564">
        <ele>565.20001220703</ele>
        <time>2026-05-12T07:53:30.000Z</time>
      </trkpt>
      <trkpt lat="45.30187" lon="4.63564">
        <ele>565.40002441406</ele>
        <time>2026-05-12T07:53:31.000Z</time>
      </trkpt>
      <trkpt lat="45.30183" lon="4.63565">
        <ele>565.40002441406</ele>
        <time>2026-05-12T07:53:32.000Z</time>
      </trkpt>
      <trkpt lat="45.3018" lon="4.63565">
        <ele>565.59997558594</ele>
        <time>2026-05-12T07:53:33.000Z</time>
      </trkpt>
      <trkpt lat="45.30176" lon="4.63565">
        <ele>565.79998779297</ele>
        <time>2026-05-12T07:53:34.000Z</time>
      </trkpt>
      <trkpt lat="45.30172" lon="4.63566">
        <ele>565.79998779297</ele>
        <time>2026-05-12T07:53:35.000Z</time>
      </trkpt>
      <trkpt lat="45.30169" lon="4.63566">
        <ele>566</ele>
        <time>2026-05-12T07:53:36.000Z</time>
      </trkpt>
      <trkpt lat="45.30165" lon="4.63566">
        <ele>566</ele>
        <time>2026-05-12T07:53:37.000Z</time>
      </trkpt>
      <trkpt lat="45.30161" lon="4.63567">
        <ele>566</ele>
        <time>2026-05-12T07:53:38.000Z</time>
      </trkpt>
      <trkpt lat="45.30157" lon="4.63567">
        <ele>566.20001220703</ele>
        <time>2026-05-12T07:53:39.000Z</time>
      </trkpt>
      <trkpt lat="45.30153" lon="4.63568">
        <ele>566.20001220703</ele>
        <time>2026-05-12T07:53:40.000Z</time>
      </trkpt>
      <trkpt lat="45.30149" lon="4.63568">
        <ele>566.20001220703</ele>
        <time>2026-05-12T07:53:41.000Z</time>
      </trkpt>
      <trkpt lat="45.30145" lon="4.63569">
        <ele>566.20001220703</ele>
        <time>2026-05-12T07:53:42.000Z</time>
      </trkpt>
      <trkpt lat="45.30141" lon="4.63569">
        <ele>566</ele>
        <time>2026-05-12T07:53:43.000Z</time>
      </trkpt>
      <trkpt lat="45.30137" lon="4.63569">
        <ele>566</ele>
        <time>2026-05-12T07:53:44.000Z</time>
      </trkpt>
      <trkpt lat="45.30133" lon="4.63569">
        <ele>566</ele>
        <time>2026-05-12T07:53:45.000Z</time>
      </trkpt>
      <trkpt lat="45.30129" lon="4.63569">
        <ele>565.79998779297</ele>
        <time>2026-05-12T07:53:46.000Z</time>
      </trkpt>
      <trkpt lat="45.30125" lon="4.63569">
        <ele>565.79998779297</ele>
        <time>2026-05-12T07:53:47.000Z</time>
      </trkpt>
      <trkpt lat="45.30122" lon="4.63569">
        <ele>565.79998779297</ele>
        <time>2026-05-12T07:53:48.000Z</time>
      </trkpt>
      <trkpt lat="45.30119" lon="4.63569">
        <ele>565.59997558594</ele>
        <time>2026-05-12T07:53:49.000Z</time>
      </trkpt>
      <trkpt lat="45.30116" lon="4.6357">
        <ele>565.59997558594</ele>
        <time>2026-05-12T07:53:50.000Z</time>
      </trkpt>
      <trkpt lat="45.30112" lon="4.6357">
        <ele>565.59997558594</ele>
        <time>2026-05-12T07:53:51.000Z</time>
      </trkpt>
      <trkpt lat="45.30108" lon="4.63571">
        <ele>565.79998779297</ele>
        <time>2026-05-12T07:53:52.000Z</time>
      </trkpt>
      <trkpt lat="45.30105" lon="4.63571">
        <ele>565.59997558594</ele>
        <time>2026-05-12T07:53:53.000Z</time>
      </trkpt>
      <trkpt lat="45.30101" lon="4.63572">
        <ele>565.59997558594</ele>
        <time>2026-05-12T07:53:54.000Z</time>
      </trkpt>
      <trkpt lat="45.30096" lon="4.63573">
        <ele>565.40002441406</ele>
        <time>2026-05-12T07:53:55.000Z</time>
      </trkpt>
      <trkpt lat="45.30092" lon="4.63574">
        <ele>565.40002441406</ele>
        <time>2026-05-12T07:53:56.000Z</time>
      </trkpt>
      <trkpt lat="45.30087" lon="4.63574">
        <ele>565.20001220703</ele>
        <time>2026-05-12T07:53:57.000Z</time>
      </trkpt>
      <trkpt lat="45.30083" lon="4.63574">
        <ele>565</ele>
        <time>2026-05-12T07:53:58.000Z</time>
      </trkpt>
      <trkpt lat="45.30079" lon="4.63574">
        <ele>565</ele>
        <time>2026-05-12T07:53:59.000Z</time>
      </trkpt>
      <trkpt lat="45.30075" lon="4.63574">
        <ele>564.79998779297</ele>
        <time>2026-05-12T07:54:00.000Z</time>
      </trkpt>
      <trkpt lat="45.30071" lon="4.63573">
        <ele>564.79998779297</ele>
        <time>2026-05-12T07:54:01.000Z</time>
      </trkpt>
      <trkpt lat="45.30068" lon="4.63573">
        <ele>565</ele>
        <time>2026-05-12T07:54:02.000Z</time>
      </trkpt>
      <trkpt lat="45.30064" lon="4.63572">
        <ele>565</ele>
        <time>2026-05-12T07:54:03.000Z</time>
      </trkpt>
      <trkpt lat="45.30061" lon="4.63571">
        <ele>565</ele>
        <time>2026-05-12T07:54:04.000Z</time>
      </trkpt>
      <trkpt lat="45.30057" lon="4.6357">
        <ele>565</ele>
        <time>2026-05-12T07:54:05.000Z</time>
      </trkpt>
      <trkpt lat="45.30054" lon="4.63569">
        <ele>565</ele>
        <time>2026-05-12T07:54:06.000Z</time>
      </trkpt>
      <trkpt lat="45.3005" lon="4.63568">
        <ele>565</ele>
        <time>2026-05-12T07:54:07.000Z</time>
      </trkpt>
      <trkpt lat="45.30046" lon="4.63566">
        <ele>565.20001220703</ele>
        <time>2026-05-12T07:54:08.000Z</time>
      </trkpt>
      <trkpt lat="45.30043" lon="4.63565">
        <ele>565.20001220703</ele>
        <time>2026-05-12T07:54:09.000Z</time>
      </trkpt>
      <trkpt lat="45.30039" lon="4.63563">
        <ele>565.40002441406</ele>
        <time>2026-05-12T07:54:10.000Z</time>
      </trkpt>
      <trkpt lat="45.30035" lon="4.63562">
        <ele>565.40002441406</ele>
        <time>2026-05-12T07:54:11.000Z</time>
      </trkpt>
      <trkpt lat="45.30031" lon="4.6356">
        <ele>565.40002441406</ele>
        <time>2026-05-12T07:54:12.000Z</time>
      </trkpt>
      <trkpt lat="45.30028" lon="4.63559">
        <ele>565.40002441406</ele>
        <time>2026-05-12T07:54:13.000Z</time>
      </trkpt>
      <trkpt lat="45.30025" lon="4.63557">
        <ele>565.40002441406</ele>
        <time>2026-05-12T07:54:14.000Z</time>
      </trkpt>
      <trkpt lat="45.30022" lon="4.63556">
        <ele>565.40002441406</ele>
        <time>2026-05-12T07:54:15.000Z</time>
      </trkpt>
      <trkpt lat="45.30019" lon="4.63555">
        <ele>565.40002441406</ele>
        <time>2026-05-12T07:54:16.000Z</time>
      </trkpt>
      <trkpt lat="45.30016" lon="4.63553">
        <ele>565.59997558594</ele>
        <time>2026-05-12T07:54:17.000Z</time>
      </trkpt>
      <trkpt lat="45.30013" lon="4.63552">
        <ele>565.59997558594</ele>
        <time>2026-05-12T07:54:18.000Z</time>
      </trkpt>
      <trkpt lat="45.30011" lon="4.6355">
        <ele>565.59997558594</ele>
        <time>2026-05-12T07:54:19.000Z</time>
      </trkpt>
      <trkpt lat="45.30009" lon="4.63549">
        <ele>565.59997558594</ele>
        <time>2026-05-12T07:54:20.000Z</time>
      </trkpt>
      <trkpt lat="45.30007" lon="4.63548">
        <ele>565.59997558594</ele>
        <time>2026-05-12T07:54:21.000Z</time>
      </trkpt>
      <trkpt lat="45.30005" lon="4.63547">
        <ele>565.79998779297</ele>
        <time>2026-05-12T07:54:22.000Z</time>
      </trkpt>
      <trkpt lat="45.30003" lon="4.63546">
        <ele>565.79998779297</ele>
        <time>2026-05-12T07:54:23.000Z</time>
      </trkpt>
      <trkpt lat="45.30001" lon="4.63545">
        <ele>565.59997558594</ele>
        <time>2026-05-12T07:54:24.000Z</time>
      </trkpt>
      <trkpt lat="45.29998" lon="4.63543">
        <ele>565.59997558594</ele>
        <time>2026-05-12T07:54:25.000Z</time>
      </trkpt>
      <trkpt lat="45.29996" lon="4.63542">
        <ele>565.40002441406</ele>
        <time>2026-05-12T07:54:26.000Z</time>
      </trkpt>
      <trkpt lat="45.29994" lon="4.63539">
        <ele>565.40002441406</ele>
        <time>2026-05-12T07:54:27.000Z</time>
      </trkpt>
      <trkpt lat="45.29993" lon="4.63537">
        <ele>565.40002441406</ele>
        <time>2026-05-12T07:54:28.000Z</time>
      </trkpt>
      <trkpt lat="45.29991" lon="4.63535">
        <ele>565.40002441406</ele>
        <time>2026-05-12T07:54:29.000Z</time>
      </trkpt>
      <trkpt lat="45.2999" lon="4.63533">
        <ele>565.40002441406</ele>
        <time>2026-05-12T07:54:30.000Z</time>
      </trkpt>
      <trkpt lat="45.29988" lon="4.63532">
        <ele>565.59997558594</ele>
        <time>2026-05-12T07:54:31.000Z</time>
      </trkpt>
      <trkpt lat="45.29987" lon="4.63533">
        <ele>565.59997558594</ele>
        <time>2026-05-12T07:54:32.000Z</time>
      </trkpt>
      <trkpt lat="45.29985" lon="4.63533">
        <ele>565.59997558594</ele>
        <time>2026-05-12T07:54:33.000Z</time>
      </trkpt>
      <trkpt lat="45.29983" lon="4.63534">
        <ele>565.59997558594</ele>
        <time>2026-05-12T07:54:34.000Z</time>
      </trkpt>
      <trkpt lat="45.29981" lon="4.63535">
        <ele>565.59997558594</ele>
        <time>2026-05-12T07:54:35.000Z</time>
      </trkpt>
      <trkpt lat="45.29978" lon="4.63536">
        <ele>565.40002441406</ele>
        <time>2026-05-12T07:54:36.000Z</time>
      </trkpt>
      <trkpt lat="45.29976" lon="4.63538">
        <ele>565</ele>
        <time>2026-05-12T07:54:37.000Z</time>
      </trkpt>
      <trkpt lat="45.29973" lon="4.63539">
        <ele>564.79998779297</ele>
        <time>2026-05-12T07:54:38.000Z</time>
      </trkpt>
      <trkpt lat="45.2997" lon="4.63541">
        <ele>564.40002441406</ele>
        <time>2026-05-12T07:54:39.000Z</time>
      </trkpt>
      <trkpt lat="45.29967" lon="4.63543">
        <ele>564.20001220703</ele>
        <time>2026-05-12T07:54:40.000Z</time>
      </trkpt>
      <trkpt lat="45.29963" lon="4.63545">
        <ele>563.79998779297</ele>
        <time>2026-05-12T07:54:41.000Z</time>
      </trkpt>
      <trkpt lat="45.29959" lon="4.63547">
        <ele>563.40002441406</ele>
        <time>2026-05-12T07:54:42.000Z</time>
      </trkpt>
      <trkpt lat="45.29955" lon="4.63549">
        <ele>563</ele>
        <time>2026-05-12T07:54:43.000Z</time>
      </trkpt>
      <trkpt lat="45.29951" lon="4.63551">
        <ele>562.59997558594</ele>
        <time>2026-05-12T07:54:44.000Z</time>
      </trkpt>
      <trkpt lat="45.29946" lon="4.63553">
        <ele>562.40002441406</ele>
        <time>2026-05-12T07:54:45.000Z</time>
      </trkpt>
      <trkpt lat="45.29941" lon="4.63555">
        <ele>561.79998779297</ele>
        <time>2026-05-12T07:54:46.000Z</time>
      </trkpt>
      <trkpt lat="45.29936" lon="4.63558">
        <ele>561.59997558594</ele>
        <time>2026-05-12T07:54:47.000Z</time>
      </trkpt>
      <trkpt lat="45.29931" lon="4.63561">
        <ele>561.20001220703</ele>
        <time>2026-05-12T07:54:48.000Z</time>
      </trkpt>
      <trkpt lat="45.29927" lon="4.63563">
        <ele>560.79998779297</ele>
        <time>2026-05-12T07:54:49.000Z</time>
      </trkpt>
      <trkpt lat="45.29922" lon="4.63566">
        <ele>560.20001220703</ele>
        <time>2026-05-12T07:54:50.000Z</time>
      </trkpt>
      <trkpt lat="45.29917" lon="4.63569">
        <ele>559.79998779297</ele>
        <time>2026-05-12T07:54:51.000Z</time>
      </trkpt>
      <trkpt lat="45.29912" lon="4.63572">
        <ele>559.20001220703</ele>
        <time>2026-05-12T07:54:52.000Z</time>
      </trkpt>
      <trkpt lat="45.29907" lon="4.63575">
        <ele>558.79998779297</ele>
        <time>2026-05-12T07:54:53.000Z</time>
      </trkpt>
      <trkpt lat="45.29902" lon="4.63577">
        <ele>558.20001220703</ele>
        <time>2026-05-12T07:54:54.000Z</time>
      </trkpt>
      <trkpt lat="45.29896" lon="4.6358">
        <ele>557.79998779297</ele>
        <time>2026-05-12T07:54:55.000Z</time>
      </trkpt>
      <trkpt lat="45.29891" lon="4.63584">
        <ele>557.40002441406</ele>
        <time>2026-05-12T07:54:56.000Z</time>
      </trkpt>
      <trkpt lat="45.29886" lon="4.63587">
        <ele>557</ele>
        <time>2026-05-12T07:54:57.000Z</time>
      </trkpt>
      <trkpt lat="45.29881" lon="4.63591">
        <ele>556.59997558594</ele>
        <time>2026-05-12T07:54:58.000Z</time>
      </trkpt>
      <trkpt lat="45.29876" lon="4.63595">
        <ele>556.20001220703</ele>
        <time>2026-05-12T07:54:59.000Z</time>
      </trkpt>
      <trkpt lat="45.29871" lon="4.63599">
        <ele>555.79998779297</ele>
        <time>2026-05-12T07:55:00.000Z</time>
      </trkpt>
      <trkpt lat="45.29866" lon="4.63603">
        <ele>555.40002441406</ele>
        <time>2026-05-12T07:55:01.000Z</time>
      </trkpt>
      <trkpt lat="45.29861" lon="4.63607">
        <ele>554.79998779297</ele>
        <time>2026-05-12T07:55:02.000Z</time>
      </trkpt>
      <trkpt lat="45.29856" lon="4.63612">
        <ele>554.40002441406</ele>
        <time>2026-05-12T07:55:03.000Z</time>
      </trkpt>
      <trkpt lat="45.29851" lon="4.63616">
        <ele>554</ele>
        <time>2026-05-12T07:55:04.000Z</time>
      </trkpt>
      <trkpt lat="45.29845" lon="4.63621">
        <ele>553.40002441406</ele>
        <time>2026-05-12T07:55:05.000Z</time>
      </trkpt>
      <trkpt lat="45.29841" lon="4.63625">
        <ele>553.20001220703</ele>
        <time>2026-05-12T07:55:06.000Z</time>
      </trkpt>
      <trkpt lat="45.29836" lon="4.63629">
        <ele>552.79998779297</ele>
        <time>2026-05-12T07:55:07.000Z</time>
      </trkpt>
      <trkpt lat="45.29832" lon="4.63633">
        <ele>552.59997558594</ele>
        <time>2026-05-12T07:55:08.000Z</time>
      </trkpt>
      <trkpt lat="45.29827" lon="4.63636">
        <ele>552.40002441406</ele>
        <time>2026-05-12T07:55:09.000Z</time>
      </trkpt>
      <trkpt lat="45.29823" lon="4.63639">
        <ele>552</ele>
        <time>2026-05-12T07:55:10.000Z</time>
      </trkpt>
      <trkpt lat="45.29818" lon="4.63642">
        <ele>551.79998779297</ele>
        <time>2026-05-12T07:55:11.000Z</time>
      </trkpt>
      <trkpt lat="45.29813" lon="4.63645">
        <ele>551.40002441406</ele>
        <time>2026-05-12T07:55:12.000Z</time>
      </trkpt>
      <trkpt lat="45.29807" lon="4.63648">
        <ele>551</ele>
        <time>2026-05-12T07:55:13.000Z</time>
      </trkpt>
      <trkpt lat="45.29802" lon="4.63652">
        <ele>550.40002441406</ele>
        <time>2026-05-12T07:55:14.000Z</time>
      </trkpt>
      <trkpt lat="45.29796" lon="4.63656">
        <ele>550</ele>
        <time>2026-05-12T07:55:15.000Z</time>
      </trkpt>
      <trkpt lat="45.2979" lon="4.63659">
        <ele>549.40002441406</ele>
        <time>2026-05-12T07:55:16.000Z</time>
      </trkpt>
      <trkpt lat="45.29785" lon="4.63663">
        <ele>548.79998779297</ele>
        <time>2026-05-12T07:55:17.000Z</time>
      </trkpt>
      <trkpt lat="45.29781" lon="4.63666">
        <ele>548.40002441406</ele>
        <time>2026-05-12T07:55:18.000Z</time>
      </trkpt>
      <trkpt lat="45.29776" lon="4.63669">
        <ele>548</ele>
        <time>2026-05-12T07:55:19.000Z</time>
      </trkpt>
      <trkpt lat="45.29772" lon="4.63672">
        <ele>547.59997558594</ele>
        <time>2026-05-12T07:55:20.000Z</time>
      </trkpt>
      <trkpt lat="45.29768" lon="4.63675">
        <ele>547.20001220703</ele>
        <time>2026-05-12T07:55:21.000Z</time>
      </trkpt>
      <trkpt lat="45.29764" lon="4.63678">
        <ele>546.79998779297</ele>
        <time>2026-05-12T07:55:22.000Z</time>
      </trkpt>
      <trkpt lat="45.2976" lon="4.63682">
        <ele>546.40002441406</ele>
        <time>2026-05-12T07:55:23.000Z</time>
      </trkpt>
      <trkpt lat="45.29756" lon="4.63685">
        <ele>546</ele>
        <time>2026-05-12T07:55:24.000Z</time>
      </trkpt>
      <trkpt lat="45.29752" lon="4.63689">
        <ele>545.79998779297</ele>
        <time>2026-05-12T07:55:25.000Z</time>
      </trkpt>
      <trkpt lat="45.29747" lon="4.63692">
        <ele>545.40002441406</ele>
        <time>2026-05-12T07:55:26.000Z</time>
      </trkpt>
      <trkpt lat="45.29743" lon="4.63695">
        <ele>545</ele>
        <time>2026-05-12T07:55:27.000Z</time>
      </trkpt>
      <trkpt lat="45.29738" lon="4.63699">
        <ele>544.79998779297</ele>
        <time>2026-05-12T07:55:28.000Z</time>
      </trkpt>
      <trkpt lat="45.29734" lon="4.63702">
        <ele>544.59997558594</ele>
        <time>2026-05-12T07:55:29.000Z</time>
      </trkpt>
      <trkpt lat="45.29729" lon="4.63705">
        <ele>544.20001220703</ele>
        <time>2026-05-12T07:55:30.000Z</time>
      </trkpt>
      <trkpt lat="45.29725" lon="4.63708">
        <ele>544</ele>
        <time>2026-05-12T07:55:31.000Z</time>
      </trkpt>
      <trkpt lat="45.2972" lon="4.63711">
        <ele>543.79998779297</ele>
        <time>2026-05-12T07:55:32.000Z</time>
      </trkpt>
      <trkpt lat="45.29716" lon="4.63714">
        <ele>543.79998779297</ele>
        <time>2026-05-12T07:55:33.000Z</time>
      </trkpt>
      <trkpt lat="45.29712" lon="4.63718">
        <ele>543.59997558594</ele>
        <time>2026-05-12T07:55:34.000Z</time>
      </trkpt>
      <trkpt lat="45.29708" lon="4.63721">
        <ele>543.40002441406</ele>
        <time>2026-05-12T07:55:35.000Z</time>
      </trkpt>
      <trkpt lat="45.29705" lon="4.63725">
        <ele>543</ele>
        <time>2026-05-12T07:55:36.000Z</time>
      </trkpt>
      <trkpt lat="45.29701" lon="4.63728">
        <ele>542.79998779297</ele>
        <time>2026-05-12T07:55:37.000Z</time>
      </trkpt>
      <trkpt lat="45.29698" lon="4.63732">
        <ele>542.79998779297</ele>
        <time>2026-05-12T07:55:38.000Z</time>
      </trkpt>
      <trkpt lat="45.29694" lon="4.63735">
        <ele>542.59997558594</ele>
        <time>2026-05-12T07:55:39.000Z</time>
      </trkpt>
      <trkpt lat="45.29691" lon="4.63737">
        <ele>542.59997558594</ele>
        <time>2026-05-12T07:55:40.000Z</time>
      </trkpt>
      <trkpt lat="45.29688" lon="4.6374">
        <ele>542.79998779297</ele>
        <time>2026-05-12T07:55:41.000Z</time>
      </trkpt>
      <trkpt lat="45.29685" lon="4.63741">
        <ele>542.79998779297</ele>
        <time>2026-05-12T07:55:42.000Z</time>
      </trkpt>
      <trkpt lat="45.29682" lon="4.63743">
        <ele>543</ele>
        <time>2026-05-12T07:55:43.000Z</time>
      </trkpt>
      <trkpt lat="45.29679" lon="4.63746">
        <ele>543</ele>
        <time>2026-05-12T07:55:44.000Z</time>
      </trkpt>
      <trkpt lat="45.29676" lon="4.63748">
        <ele>543.20001220703</ele>
        <time>2026-05-12T07:55:45.000Z</time>
      </trkpt>
      <trkpt lat="45.29673" lon="4.6375">
        <ele>543.20001220703</ele>
        <time>2026-05-12T07:55:46.000Z</time>
      </trkpt>
      <trkpt lat="45.2967" lon="4.63752">
        <ele>543.20001220703</ele>
        <time>2026-05-12T07:55:47.000Z</time>
      </trkpt>
      <trkpt lat="45.29667" lon="4.63755">
        <ele>543.40002441406</ele>
        <time>2026-05-12T07:55:48.000Z</time>
      </trkpt>
      <trkpt lat="45.29664" lon="4.63757">
        <ele>543.59997558594</ele>
        <time>2026-05-12T07:55:49.000Z</time>
      </trkpt>
      <trkpt lat="45.29661" lon="4.6376">
        <ele>543.79998779297</ele>
        <time>2026-05-12T07:55:50.000Z</time>
      </trkpt>
      <trkpt lat="45.29658" lon="4.63763">
        <ele>544</ele>
        <time>2026-05-12T07:55:51.000Z</time>
      </trkpt>
      <trkpt lat="45.29655" lon="4.63766">
        <ele>544.20001220703</ele>
        <time>2026-05-12T07:55:52.000Z</time>
      </trkpt>
      <trkpt lat="45.29652" lon="4.63768">
        <ele>544.40002441406</ele>
        <time>2026-05-12T07:55:53.000Z</time>
      </trkpt>
      <trkpt lat="45.2965" lon="4.6377">
        <ele>544.59997558594</ele>
        <time>2026-05-12T07:55:54.000Z</time>
      </trkpt>
      <trkpt lat="45.29647" lon="4.63772">
        <ele>545</ele>
        <time>2026-05-12T07:55:55.000Z</time>
      </trkpt>
      <trkpt lat="45.29645" lon="4.63774">
        <ele>545.20001220703</ele>
        <time>2026-05-12T07:55:56.000Z</time>
      </trkpt>
      <trkpt lat="45.29642" lon="4.63776">
        <ele>545.40002441406</ele>
        <time>2026-05-12T07:55:57.000Z</time>
      </trkpt>
      <trkpt lat="45.29638" lon="4.63778">
        <ele>545.59997558594</ele>
        <time>2026-05-12T07:55:58.000Z</time>
      </trkpt>
      <trkpt lat="45.29635" lon="4.6378">
        <ele>545.59997558594</ele>
        <time>2026-05-12T07:55:59.000Z</time>
      </trkpt>
      <trkpt lat="45.29633" lon="4.63782">
        <ele>545.79998779297</ele>
        <time>2026-05-12T07:56:00.000Z</time>
      </trkpt>
      <trkpt lat="45.2963" lon="4.63784">
        <ele>546</ele>
        <time>2026-05-12T07:56:01.000Z</time>
      </trkpt>
      <trkpt lat="45.29626" lon="4.63786">
        <ele>546.20001220703</ele>
        <time>2026-05-12T07:56:02.000Z</time>
      </trkpt>
      <trkpt lat="45.29623" lon="4.63788">
        <ele>546.40002441406</ele>
        <time>2026-05-12T07:56:03.000Z</time>
      </trkpt>
      <trkpt lat="45.2962" lon="4.63791">
        <ele>546.59997558594</ele>
        <time>2026-05-12T07:56:04.000Z</time>
      </trkpt>
      <trkpt lat="45.29617" lon="4.63793">
        <ele>546.79998779297</ele>
        <time>2026-05-12T07:56:05.000Z</time>
      </trkpt>
      <trkpt lat="45.29615" lon="4.63794">
        <ele>546.79998779297</ele>
        <time>2026-05-12T07:56:06.000Z</time>
      </trkpt>
      <trkpt lat="45.29612" lon="4.63796">
        <ele>547</ele>
        <time>2026-05-12T07:56:07.000Z</time>
      </trkpt>
      <trkpt lat="45.29609" lon="4.63797">
        <ele>547.20001220703</ele>
        <time>2026-05-12T07:56:08.000Z</time>
      </trkpt>
      <trkpt lat="45.29606" lon="4.63798">
        <ele>547.40002441406</ele>
        <time>2026-05-12T07:56:09.000Z</time>
      </trkpt>
      <trkpt lat="45.29603" lon="4.638">
        <ele>547.79998779297</ele>
        <time>2026-05-12T07:56:10.000Z</time>
      </trkpt>
      <trkpt lat="45.29601" lon="4.63801">
        <ele>548</ele>
        <time>2026-05-12T07:56:11.000Z</time>
      </trkpt>
      <trkpt lat="45.29598" lon="4.63803">
        <ele>548.20001220703</ele>
        <time>2026-05-12T07:56:12.000Z</time>
      </trkpt>
      <trkpt lat="45.29596" lon="4.63805">
        <ele>548.20001220703</ele>
        <time>2026-05-12T07:56:13.000Z</time>
      </trkpt>
      <trkpt lat="45.29593" lon="4.63807">
        <ele>548</ele>
        <time>2026-05-12T07:56:14.000Z</time>
      </trkpt>
      <trkpt lat="45.2959" lon="4.6381">
        <ele>548</ele>
        <time>2026-05-12T07:56:15.000Z</time>
      </trkpt>
      <trkpt lat="45.29587" lon="4.63812">
        <ele>548</ele>
        <time>2026-05-12T07:56:16.000Z</time>
      </trkpt>
      <trkpt lat="45.29584" lon="4.63814">
        <ele>548</ele>
        <time>2026-05-12T07:56:17.000Z</time>
      </trkpt>
      <trkpt lat="45.29581" lon="4.63816">
        <ele>548</ele>
        <time>2026-05-12T07:56:18.000Z</time>
      </trkpt>
      <trkpt lat="45.29577" lon="4.63818">
        <ele>548</ele>
        <time>2026-05-12T07:56:19.000Z</time>
      </trkpt>
      <trkpt lat="45.29574" lon="4.6382">
        <ele>548.20001220703</ele>
        <time>2026-05-12T07:56:20.000Z</time>
      </trkpt>
      <trkpt lat="45.29571" lon="4.63822">
        <ele>548.20001220703</ele>
        <time>2026-05-12T07:56:21.000Z</time>
      </trkpt>
      <trkpt lat="45.29568" lon="4.63823">
        <ele>548.40002441406</ele>
        <time>2026-05-12T07:56:22.000Z</time>
      </trkpt>
      <trkpt lat="45.29564" lon="4.63825">
        <ele>548.40002441406</ele>
        <time>2026-05-12T07:56:23.000Z</time>
      </trkpt>
      <trkpt lat="45.2956" lon="4.63827">
        <ele>548.59997558594</ele>
        <time>2026-05-12T07:56:24.000Z</time>
      </trkpt>
      <trkpt lat="45.29557" lon="4.63828">
        <ele>548.59997558594</ele>
        <time>2026-05-12T07:56:25.000Z</time>
      </trkpt>
      <trkpt lat="45.29554" lon="4.6383">
        <ele>548.79998779297</ele>
        <time>2026-05-12T07:56:26.000Z</time>
      </trkpt>
      <trkpt lat="45.29551" lon="4.63831">
        <ele>548.79998779297</ele>
        <time>2026-05-12T07:56:27.000Z</time>
      </trkpt>
      <trkpt lat="45.29547" lon="4.63833">
        <ele>549</ele>
        <time>2026-05-12T07:56:28.000Z</time>
      </trkpt>
      <trkpt lat="45.29544" lon="4.63834">
        <ele>549.20001220703</ele>
        <time>2026-05-12T07:56:29.000Z</time>
      </trkpt>
      <trkpt lat="45.2954" lon="4.63836">
        <ele>549.40002441406</ele>
        <time>2026-05-12T07:56:30.000Z</time>
      </trkpt>
      <trkpt lat="45.29537" lon="4.63837">
        <ele>549.59997558594</ele>
        <time>2026-05-12T07:56:31.000Z</time>
      </trkpt>
      <trkpt lat="45.29534" lon="4.63839">
        <ele>549.79998779297</ele>
        <time>2026-05-12T07:56:32.000Z</time>
      </trkpt>
      <trkpt lat="45.2953" lon="4.63841">
        <ele>549.79998779297</ele>
        <time>2026-05-12T07:56:33.000Z</time>
      </trkpt>
      <trkpt lat="45.29527" lon="4.63843">
        <ele>550</ele>
        <time>2026-05-12T07:56:34.000Z</time>
      </trkpt>
      <trkpt lat="45.29524" lon="4.63844">
        <ele>550</ele>
        <time>2026-05-12T07:56:35.000Z</time>
      </trkpt>
      <trkpt lat="45.29521" lon="4.63846">
        <ele>550.20001220703</ele>
        <time>2026-05-12T07:56:36.000Z</time>
      </trkpt>
      <trkpt lat="45.29519" lon="4.63849">
        <ele>550.40002441406</ele>
        <time>2026-05-12T07:56:37.000Z</time>
      </trkpt>
      <trkpt lat="45.29516" lon="4.63851">
        <ele>550.40002441406</ele>
        <time>2026-05-12T07:56:38.000Z</time>
      </trkpt>
      <trkpt lat="45.29513" lon="4.63853">
        <ele>550.59997558594</ele>
        <time>2026-05-12T07:56:39.000Z</time>
      </trkpt>
      <trkpt lat="45.29511" lon="4.63855">
        <ele>551</ele>
        <time>2026-05-12T07:56:40.000Z</time>
      </trkpt>
      <trkpt lat="45.29508" lon="4.63857">
        <ele>551.20001220703</ele>
        <time>2026-05-12T07:56:41.000Z</time>
      </trkpt>
      <trkpt lat="45.29505" lon="4.63859">
        <ele>551.20001220703</ele>
        <time>2026-05-12T07:56:42.000Z</time>
      </trkpt>
      <trkpt lat="45.29503" lon="4.63861">
        <ele>551.40002441406</ele>
        <time>2026-05-12T07:56:43.000Z</time>
      </trkpt>
      <trkpt lat="45.29501" lon="4.63863">
        <ele>551.59997558594</ele>
        <time>2026-05-12T07:56:44.000Z</time>
      </trkpt>
      <trkpt lat="45.29498" lon="4.63865">
        <ele>551.79998779297</ele>
        <time>2026-05-12T07:56:45.000Z</time>
      </trkpt>
      <trkpt lat="45.29496" lon="4.63866">
        <ele>551.79998779297</ele>
        <time>2026-05-12T07:56:46.000Z</time>
      </trkpt>
      <trkpt lat="45.29493" lon="4.63867">
        <ele>552</ele>
        <time>2026-05-12T07:56:47.000Z</time>
      </trkpt>
      <trkpt lat="45.29491" lon="4.63869">
        <ele>552</ele>
        <time>2026-05-12T07:56:48.000Z</time>
      </trkpt>
      <trkpt lat="45.29488" lon="4.63871">
        <ele>552</ele>
        <time>2026-05-12T07:56:49.000Z</time>
      </trkpt>
      <trkpt lat="45.29485" lon="4.63873">
        <ele>552</ele>
        <time>2026-05-12T07:56:50.000Z</time>
      </trkpt>
      <trkpt lat="45.29483" lon="4.63875">
        <ele>552</ele>
        <time>2026-05-12T07:56:51.000Z</time>
      </trkpt>
      <trkpt lat="45.2948" lon="4.63877">
        <ele>552</ele>
        <time>2026-05-12T07:56:52.000Z</time>
      </trkpt>
      <trkpt lat="45.29478" lon="4.6388">
        <ele>552</ele>
        <time>2026-05-12T07:56:53.000Z</time>
      </trkpt>
      <trkpt lat="45.29475" lon="4.63882">
        <ele>552</ele>
        <time>2026-05-12T07:56:54.000Z</time>
      </trkpt>
      <trkpt lat="45.29473" lon="4.63884">
        <ele>551.79998779297</ele>
        <time>2026-05-12T07:56:55.000Z</time>
      </trkpt>
      <trkpt lat="45.2947" lon="4.63886">
        <ele>551.79998779297</ele>
        <time>2026-05-12T07:56:56.000Z</time>
      </trkpt>
      <trkpt lat="45.29467" lon="4.63888">
        <ele>551.79998779297</ele>
        <time>2026-05-12T07:56:57.000Z</time>
      </trkpt>
      <trkpt lat="45.29465" lon="4.6389">
        <ele>551.59997558594</ele>
        <time>2026-05-12T07:56:58.000Z</time>
      </trkpt>
      <trkpt lat="45.29462" lon="4.63892">
        <ele>551.59997558594</ele>
        <time>2026-05-12T07:56:59.000Z</time>
      </trkpt>
      <trkpt lat="45.29459" lon="4.63894">
        <ele>551.40002441406</ele>
        <time>2026-05-12T07:57:00.000Z</time>
      </trkpt>
      <trkpt lat="45.29457" lon="4.63895">
        <ele>551.20001220703</ele>
        <time>2026-05-12T07:57:01.000Z</time>
      </trkpt>
      <trkpt lat="45.29454" lon="4.63896">
        <ele>551</ele>
        <time>2026-05-12T07:57:02.000Z</time>
      </trkpt>
      <trkpt lat="45.29451" lon="4.63897">
        <ele>550.79998779297</ele>
        <time>2026-05-12T07:57:03.000Z</time>
      </trkpt>
      <trkpt lat="45.29449" lon="4.63899">
        <ele>550.59997558594</ele>
        <time>2026-05-12T07:57:04.000Z</time>
      </trkpt>
      <trkpt lat="45.29447" lon="4.639">
        <ele>550.40002441406</ele>
        <time>2026-05-12T07:57:05.000Z</time>
      </trkpt>
      <trkpt lat="45.29445" lon="4.63901">
        <ele>550.20001220703</ele>
        <time>2026-05-12T07:57:06.000Z</time>
      </trkpt>
      <trkpt lat="45.29443" lon="4.63901">
        <ele>550</ele>
        <time>2026-05-12T07:57:07.000Z</time>
      </trkpt>
      <trkpt lat="45.29441" lon="4.63902">
        <ele>549.79998779297</ele>
        <time>2026-05-12T07:57:08.000Z</time>
      </trkpt>
      <trkpt lat="45.2944" lon="4.63902">
        <ele>549.59997558594</ele>
        <time>2026-05-12T07:57:09.000Z</time>
      </trkpt>
      <trkpt lat="45.29439" lon="4.63902">
        <ele>549.59997558594</ele>
        <time>2026-05-12T07:57:10.000Z</time>
      </trkpt>
      <trkpt lat="45.29438" lon="4.63903">
        <ele>549.40002441406</ele>
        <time>2026-05-12T07:57:11.000Z</time>
      </trkpt>
      <trkpt lat="45.29438" lon="4.63903">
        <ele>549.20001220703</ele>
        <time>2026-05-12T07:57:12.000Z</time>
      </trkpt>
      <trkpt lat="45.29438" lon="4.63903">
        <ele>549.20001220703</ele>
        <time>2026-05-12T07:57:13.000Z</time>
      </trkpt>
      <trkpt lat="45.29435" lon="4.63908">
        <ele>548.79998779297</ele>
        <time>2026-05-12T07:57:24.000Z</time>
      </trkpt>
      <trkpt lat="45.29432" lon="4.6391">
        <ele>548.40002441406</ele>
        <time>2026-05-12T07:57:25.000Z</time>
      </trkpt>
      <trkpt lat="45.29428" lon="4.63912">
        <ele>548</ele>
        <time>2026-05-12T07:57:26.000Z</time>
      </trkpt>
      <trkpt lat="45.29424" lon="4.63914">
        <ele>547.59997558594</ele>
        <time>2026-05-12T07:57:27.000Z</time>
      </trkpt>
      <trkpt lat="45.2942" lon="4.63916">
        <ele>547</ele>
        <time>2026-05-12T07:57:28.000Z</time>
      </trkpt>
      <trkpt lat="45.29416" lon="4.63917">
        <ele>546.59997558594</ele>
        <time>2026-05-12T07:57:29.000Z</time>
      </trkpt>
      <trkpt lat="45.29412" lon="4.63917">
        <ele>546</ele>
        <time>2026-05-12T07:57:30.000Z</time>
      </trkpt>
      <trkpt lat="45.29408" lon="4.63918">
        <ele>545.59997558594</ele>
        <time>2026-05-12T07:57:31.000Z</time>
      </trkpt>
      <trkpt lat="45.29404" lon="4.63918">
        <ele>545.20001220703</ele>
        <time>2026-05-12T07:57:32.000Z</time>
      </trkpt>
      <trkpt lat="45.294" lon="4.63918">
        <ele>544.79998779297</ele>
        <time>2026-05-12T07:57:33.000Z</time>
      </trkpt>
      <trkpt lat="45.29395" lon="4.63917">
        <ele>544.20001220703</ele>
        <time>2026-05-12T07:57:34.000Z</time>
      </trkpt>
      <trkpt lat="45.2939" lon="4.63916">
        <ele>543.59997558594</ele>
        <time>2026-05-12T07:57:35.000Z</time>
      </trkpt>
      <trkpt lat="45.29385" lon="4.63914">
        <ele>543</ele>
        <time>2026-05-12T07:57:36.000Z</time>
      </trkpt>
      <trkpt lat="45.29381" lon="4.63912">
        <ele>542.20001220703</ele>
        <time>2026-05-12T07:57:37.000Z</time>
      </trkpt>
      <trkpt lat="45.29377" lon="4.6391">
        <ele>541.59997558594</ele>
        <time>2026-05-12T07:57:38.000Z</time>
      </trkpt>
      <trkpt lat="45.29372" lon="4.63908">
        <ele>541.20001220703</ele>
        <time>2026-05-12T07:57:39.000Z</time>
      </trkpt>
      <trkpt lat="45.29369" lon="4.63906">
        <ele>540.59997558594</ele>
        <time>2026-05-12T07:57:40.000Z</time>
      </trkpt>
      <trkpt lat="45.29366" lon="4.63904">
        <ele>540.20001220703</ele>
        <time>2026-05-12T07:57:41.000Z</time>
      </trkpt>
      <trkpt lat="45.29362" lon="4.63901">
        <ele>539.79998779297</ele>
        <time>2026-05-12T07:57:42.000Z</time>
      </trkpt>
      <trkpt lat="45.29359" lon="4.63898">
        <ele>539.40002441406</ele>
        <time>2026-05-12T07:57:43.000Z</time>
      </trkpt>
      <trkpt lat="45.29356" lon="4.63894">
        <ele>539</ele>
        <time>2026-05-12T07:57:44.000Z</time>
      </trkpt>
      <trkpt lat="45.29353" lon="4.6389">
        <ele>538.40002441406</ele>
        <time>2026-05-12T07:57:45.000Z</time>
      </trkpt>
      <trkpt lat="45.29349" lon="4.63888">
        <ele>538</ele>
        <time>2026-05-12T07:57:46.000Z</time>
      </trkpt>
      <trkpt lat="45.29345" lon="4.63885">
        <ele>537.20001220703</ele>
        <time>2026-05-12T07:57:47.000Z</time>
      </trkpt>
      <trkpt lat="45.29342" lon="4.63881">
        <ele>536.59997558594</ele>
        <time>2026-05-12T07:57:48.000Z</time>
      </trkpt>
      <trkpt lat="45.29337" lon="4.63878">
        <ele>536</ele>
        <time>2026-05-12T07:57:49.000Z</time>
      </trkpt>
      <trkpt lat="45.29333" lon="4.63873">
        <ele>535.40002441406</ele>
        <time>2026-05-12T07:57:50.000Z</time>
      </trkpt>
      <trkpt lat="45.29328" lon="4.63869">
        <ele>534.59997558594</ele>
        <time>2026-05-12T07:57:51.000Z</time>
      </trkpt>
      <trkpt lat="45.29324" lon="4.63865">
        <ele>534</ele>
        <time>2026-05-12T07:57:52.000Z</time>
      </trkpt>
      <trkpt lat="45.2932" lon="4.63861">
        <ele>533.40002441406</ele>
        <time>2026-05-12T07:57:53.000Z</time>
      </trkpt>
      <trkpt lat="45.29316" lon="4.63856">
        <ele>532.79998779297</ele>
        <time>2026-05-12T07:57:54.000Z</time>
      </trkpt>
      <trkpt lat="45.29313" lon="4.63852">
        <ele>532.40002441406</ele>
        <time>2026-05-12T07:57:55.000Z</time>
      </trkpt>
      <trkpt lat="45.29309" lon="4.63847">
        <ele>532</ele>
        <time>2026-05-12T07:57:56.000Z</time>
      </trkpt>
      <trkpt lat="45.29307" lon="4.63843">
        <ele>531.79998779297</ele>
        <time>2026-05-12T07:57:57.000Z</time>
      </trkpt>
      <trkpt lat="45.29304" lon="4.63838">
        <ele>531.40002441406</ele>
        <time>2026-05-12T07:57:58.000Z</time>
      </trkpt>
      <trkpt lat="45.293" lon="4.63834">
        <ele>531</ele>
        <time>2026-05-12T07:57:59.000Z</time>
      </trkpt>
      <trkpt lat="45.29297" lon="4.6383">
        <ele>530.40002441406</ele>
        <time>2026-05-12T07:58:00.000Z</time>
      </trkpt>
      <trkpt lat="45.29293" lon="4.63826">
        <ele>530</ele>
        <time>2026-05-12T07:58:01.000Z</time>
      </trkpt>
      <trkpt lat="45.2929" lon="4.63822">
        <ele>529.40002441406</ele>
        <time>2026-05-12T07:58:02.000Z</time>
      </trkpt>
      <trkpt lat="45.29286" lon="4.63818">
        <ele>529</ele>
        <time>2026-05-12T07:58:03.000Z</time>
      </trkpt>
      <trkpt lat="45.29282" lon="4.63813">
        <ele>528.59997558594</ele>
        <time>2026-05-12T07:58:04.000Z</time>
      </trkpt>
      <trkpt lat="45.29278" lon="4.63809">
        <ele>528</ele>
        <time>2026-05-12T07:58:05.000Z</time>
      </trkpt>
      <trkpt lat="45.29275" lon="4.63805">
        <ele>527.59997558594</ele>
        <time>2026-05-12T07:58:06.000Z</time>
      </trkpt>
      <trkpt lat="45.29271" lon="4.63802">
        <ele>527.20001220703</ele>
        <time>2026-05-12T07:58:07.000Z</time>
      </trkpt>
      <trkpt lat="45.29268" lon="4.638">
        <ele>527</ele>
        <time>2026-05-12T07:58:08.000Z</time>
      </trkpt>
      <trkpt lat="45.29265" lon="4.63797">
        <ele>526.59997558594</ele>
        <time>2026-05-12T07:58:09.000Z</time>
      </trkpt>
      <trkpt lat="45.29262" lon="4.63795">
        <ele>526.20001220703</ele>
        <time>2026-05-12T07:58:10.000Z</time>
      </trkpt>
      <trkpt lat="45.29259" lon="4.63794">
        <ele>525.79998779297</ele>
        <time>2026-05-12T07:58:11.000Z</time>
      </trkpt>
      <trkpt lat="45.29255" lon="4.63792">
        <ele>525.40002441406</ele>
        <time>2026-05-12T07:58:12.000Z</time>
      </trkpt>
      <trkpt lat="45.29253" lon="4.6379">
        <ele>525</ele>
        <time>2026-05-12T07:58:13.000Z</time>
      </trkpt>
      <trkpt lat="45.29251" lon="4.63789">
        <ele>524.79998779297</ele>
        <time>2026-05-12T07:58:14.000Z</time>
      </trkpt>
      <trkpt lat="45.29249" lon="4.63787">
        <ele>524.40002441406</ele>
        <time>2026-05-12T07:58:15.000Z</time>
      </trkpt>
      <trkpt lat="45.29247" lon="4.63786">
        <ele>524.20001220703</ele>
        <time>2026-05-12T07:58:16.000Z</time>
      </trkpt>
      <trkpt lat="45.29244" lon="4.63785">
        <ele>524</ele>
        <time>2026-05-12T07:58:17.000Z</time>
      </trkpt>
      <trkpt lat="45.29242" lon="4.63783">
        <ele>523.59997558594</ele>
        <time>2026-05-12T07:58:18.000Z</time>
      </trkpt>
      <trkpt lat="45.2924" lon="4.63781">
        <ele>523.40002441406</ele>
        <time>2026-05-12T07:58:19.000Z</time>
      </trkpt>
      <trkpt lat="45.29237" lon="4.6378">
        <ele>523</ele>
        <time>2026-05-12T07:58:20.000Z</time>
      </trkpt>
      <trkpt lat="45.29235" lon="4.63778">
        <ele>522.59997558594</ele>
        <time>2026-05-12T07:58:21.000Z</time>
      </trkpt>
      <trkpt lat="45.29231" lon="4.63777">
        <ele>522</ele>
        <time>2026-05-12T07:58:22.000Z</time>
      </trkpt>
      <trkpt lat="45.29228" lon="4.63775">
        <ele>521.79998779297</ele>
        <time>2026-05-12T07:58:23.000Z</time>
      </trkpt>
      <trkpt lat="45.29225" lon="4.63774">
        <ele>521.40002441406</ele>
        <time>2026-05-12T07:58:24.000Z</time>
      </trkpt>
      <trkpt lat="45.29222" lon="4.63772">
        <ele>521</ele>
        <time>2026-05-12T07:58:25.000Z</time>
      </trkpt>
      <trkpt lat="45.29218" lon="4.63771">
        <ele>520.59997558594</ele>
        <time>2026-05-12T07:58:26.000Z</time>
      </trkpt>
      <trkpt lat="45.29215" lon="4.63768">
        <ele>520.20001220703</ele>
        <time>2026-05-12T07:58:27.000Z</time>
      </trkpt>
      <trkpt lat="45.29211" lon="4.63766">
        <ele>519.79998779297</ele>
        <time>2026-05-12T07:58:28.000Z</time>
      </trkpt>
      <trkpt lat="45.29208" lon="4.63763">
        <ele>519.40002441406</ele>
        <time>2026-05-12T07:58:29.000Z</time>
      </trkpt>
      <trkpt lat="45.29205" lon="4.6376">
        <ele>518.79998779297</ele>
        <time>2026-05-12T07:58:30.000Z</time>
      </trkpt>
      <trkpt lat="45.29201" lon="4.63758">
        <ele>518.40002441406</ele>
        <time>2026-05-12T07:58:31.000Z</time>
      </trkpt>
      <trkpt lat="45.29197" lon="4.63755">
        <ele>517.79998779297</ele>
        <time>2026-05-12T07:58:32.000Z</time>
      </trkpt>
      <trkpt lat="45.29193" lon="4.63752">
        <ele>517.40002441406</ele>
        <time>2026-05-12T07:58:33.000Z</time>
      </trkpt>
      <trkpt lat="45.29189" lon="4.6375">
        <ele>516.79998779297</ele>
        <time>2026-05-12T07:58:34.000Z</time>
      </trkpt>
      <trkpt lat="45.29186" lon="4.63747">
        <ele>516.20001220703</ele>
        <time>2026-05-12T07:58:35.000Z</time>
      </trkpt>
      <trkpt lat="45.29182" lon="4.63744">
        <ele>515.79998779297</ele>
        <time>2026-05-12T07:58:36.000Z</time>
      </trkpt>
      <trkpt lat="45.29178" lon="4.63741">
        <ele>515.20001220703</ele>
        <time>2026-05-12T07:58:37.000Z</time>
      </trkpt>
      <trkpt lat="45.29175" lon="4.63737">
        <ele>514.79998779297</ele>
        <time>2026-05-12T07:58:38.000Z</time>
      </trkpt>
      <trkpt lat="45.29171" lon="4.63734">
        <ele>514.20001220703</ele>
        <time>2026-05-12T07:58:39.000Z</time>
      </trkpt>
      <trkpt lat="45.29167" lon="4.63731">
        <ele>513.59997558594</ele>
        <time>2026-05-12T07:58:40.000Z</time>
      </trkpt>
      <trkpt lat="45.29162" lon="4.63728">
        <ele>513</ele>
        <time>2026-05-12T07:58:41.000Z</time>
      </trkpt>
      <trkpt lat="45.29158" lon="4.63726">
        <ele>512.40002441406</ele>
        <time>2026-05-12T07:58:42.000Z</time>
      </trkpt>
      <trkpt lat="45.29153" lon="4.63724">
        <ele>511.60000610352</ele>
        <time>2026-05-12T07:58:43.000Z</time>
      </trkpt>
      <trkpt lat="45.29148" lon="4.63722">
        <ele>511</ele>
        <time>2026-05-12T07:58:44.000Z</time>
      </trkpt>
      <trkpt lat="45.29143" lon="4.63719">
        <ele>510.20001220703</ele>
        <time>2026-05-12T07:58:45.000Z</time>
      </trkpt>
      <trkpt lat="45.29138" lon="4.63716">
        <ele>509.60000610352</ele>
        <time>2026-05-12T07:58:46.000Z</time>
      </trkpt>
      <trkpt lat="45.29133" lon="4.63712">
        <ele>508.79998779297</ele>
        <time>2026-05-12T07:58:47.000Z</time>
      </trkpt>
      <trkpt lat="45.29127" lon="4.63709">
        <ele>508</ele>
        <time>2026-05-12T07:58:48.000Z</time>
      </trkpt>
      <trkpt lat="45.29122" lon="4.63706">
        <ele>507.39999389648</ele>
        <time>2026-05-12T07:58:49.000Z</time>
      </trkpt>
      <trkpt lat="45.29117" lon="4.63702">
        <ele>506.79998779297</ele>
        <time>2026-05-12T07:58:50.000Z</time>
      </trkpt>
      <trkpt lat="45.29111" lon="4.63697">
        <ele>506</ele>
        <time>2026-05-12T07:58:51.000Z</time>
      </trkpt>
      <trkpt lat="45.29106" lon="4.63693">
        <ele>505.20001220703</ele>
        <time>2026-05-12T07:58:52.000Z</time>
      </trkpt>
      <trkpt lat="45.29101" lon="4.63688">
        <ele>504.60000610352</ele>
        <time>2026-05-12T07:58:53.000Z</time>
      </trkpt>
      <trkpt lat="45.29096" lon="4.63683">
        <ele>504</ele>
        <time>2026-05-12T07:58:54.000Z</time>
      </trkpt>
      <trkpt lat="45.29093" lon="4.63677">
        <ele>503.39999389648</ele>
        <time>2026-05-12T07:58:55.000Z</time>
      </trkpt>
      <trkpt lat="45.29089" lon="4.63671">
        <ele>502.79998779297</ele>
        <time>2026-05-12T07:58:56.000Z</time>
      </trkpt>
      <trkpt lat="45.29085" lon="4.63665">
        <ele>502.20001220703</ele>
        <time>2026-05-12T07:58:57.000Z</time>
      </trkpt>
      <trkpt lat="45.29081" lon="4.6366">
        <ele>501.79998779297</ele>
        <time>2026-05-12T07:58:58.000Z</time>
      </trkpt>
      <trkpt lat="45.29077" lon="4.63657">
        <ele>501.20001220703</ele>
        <time>2026-05-12T07:58:59.000Z</time>
      </trkpt>
      <trkpt lat="45.29073" lon="4.63655">
        <ele>500.79998779297</ele>
        <time>2026-05-12T07:59:00.000Z</time>
      </trkpt>
      <trkpt lat="45.29069" lon="4.63654">
        <ele>500.39999389648</ele>
        <time>2026-05-12T07:59:01.000Z</time>
      </trkpt>
      <trkpt lat="45.29065" lon="4.63652">
        <ele>500</ele>
        <time>2026-05-12T07:59:02.000Z</time>
      </trkpt>
      <trkpt lat="45.29061" lon="4.6365">
        <ele>499.60000610352</ele>
        <time>2026-05-12T07:59:03.000Z</time>
      </trkpt>
      <trkpt lat="45.29056" lon="4.63647">
        <ele>499</ele>
        <time>2026-05-12T07:59:04.000Z</time>
      </trkpt>
      <trkpt lat="45.29053" lon="4.63644">
        <ele>498.60000610352</ele>
        <time>2026-05-12T07:59:05.000Z</time>
      </trkpt>
      <trkpt lat="45.2905" lon="4.6364">
        <ele>498</ele>
        <time>2026-05-12T07:59:06.000Z</time>
      </trkpt>
      <trkpt lat="45.29046" lon="4.63638">
        <ele>497.60000610352</ele>
        <time>2026-05-12T07:59:07.000Z</time>
      </trkpt>
      <trkpt lat="45.29041" lon="4.63635">
        <ele>497.20001220703</ele>
        <time>2026-05-12T07:59:08.000Z</time>
      </trkpt>
      <trkpt lat="45.29038" lon="4.63633">
        <ele>496.79998779297</ele>
        <time>2026-05-12T07:59:09.000Z</time>
      </trkpt>
      <trkpt lat="45.29033" lon="4.6363">
        <ele>496.39999389648</ele>
        <time>2026-05-12T07:59:10.000Z</time>
      </trkpt>
      <trkpt lat="45.29029" lon="4.63628">
        <ele>496</ele>
        <time>2026-05-12T07:59:11.000Z</time>
      </trkpt>
      <trkpt lat="45.29026" lon="4.63626">
        <ele>495.60000610352</ele>
        <time>2026-05-12T07:59:12.000Z</time>
      </trkpt>
      <trkpt lat="45.29023" lon="4.63625">
        <ele>495.20001220703</ele>
        <time>2026-05-12T07:59:13.000Z</time>
      </trkpt>
      <trkpt lat="45.2902" lon="4.63622">
        <ele>494.79998779297</ele>
        <time>2026-05-12T07:59:14.000Z</time>
      </trkpt>
      <trkpt lat="45.29017" lon="4.63621">
        <ele>494.39999389648</ele>
        <time>2026-05-12T07:59:15.000Z</time>
      </trkpt>
      <trkpt lat="45.29015" lon="4.63619">
        <ele>494</ele>
        <time>2026-05-12T07:59:16.000Z</time>
      </trkpt>
      <trkpt lat="45.29012" lon="4.63617">
        <ele>493.60000610352</ele>
        <time>2026-05-12T07:59:17.000Z</time>
      </trkpt>
      <trkpt lat="45.29009" lon="4.63616">
        <ele>493.20001220703</ele>
        <time>2026-05-12T07:59:18.000Z</time>
      </trkpt>
      <trkpt lat="45.29006" lon="4.63614">
        <ele>493</ele>
        <time>2026-05-12T07:59:19.000Z</time>
      </trkpt>
      <trkpt lat="45.29003" lon="4.63611">
        <ele>492.60000610352</ele>
        <time>2026-05-12T07:59:20.000Z</time>
      </trkpt>
      <trkpt lat="45.28999" lon="4.63607">
        <ele>492.20001220703</ele>
        <time>2026-05-12T07:59:21.000Z</time>
      </trkpt>
      <trkpt lat="45.28995" lon="4.63604">
        <ele>491.60000610352</ele>
        <time>2026-05-12T07:59:22.000Z</time>
      </trkpt>
      <trkpt lat="45.28993" lon="4.636">
        <ele>491.39999389648</ele>
        <time>2026-05-12T07:59:23.000Z</time>
      </trkpt>
      <trkpt lat="45.2899" lon="4.63597">
        <ele>491.20001220703</ele>
        <time>2026-05-12T07:59:24.000Z</time>
      </trkpt>
      <trkpt lat="45.28988" lon="4.63595">
        <ele>491.20001220703</ele>
        <time>2026-05-12T07:59:25.000Z</time>
      </trkpt>
      <trkpt lat="45.28986" lon="4.63592">
        <ele>491.20001220703</ele>
        <time>2026-05-12T07:59:26.000Z</time>
      </trkpt>
      <trkpt lat="45.28984" lon="4.6359">
        <ele>491.39999389648</ele>
        <time>2026-05-12T07:59:27.000Z</time>
      </trkpt>
      <trkpt lat="45.28982" lon="4.63587">
        <ele>491.60000610352</ele>
        <time>2026-05-12T07:59:28.000Z</time>
      </trkpt>
      <trkpt lat="45.2898" lon="4.63584">
        <ele>491.79998779297</ele>
        <time>2026-05-12T07:59:29.000Z</time>
      </trkpt>
      <trkpt lat="45.28977" lon="4.63581">
        <ele>492</ele>
        <time>2026-05-12T07:59:30.000Z</time>
      </trkpt>
      <trkpt lat="45.28975" lon="4.63579">
        <ele>492.20001220703</ele>
        <time>2026-05-12T07:59:31.000Z</time>
      </trkpt>
      <trkpt lat="45.28972" lon="4.63576">
        <ele>492.39999389648</ele>
        <time>2026-05-12T07:59:32.000Z</time>
      </trkpt>
      <trkpt lat="45.2897" lon="4.63573">
        <ele>492.39999389648</ele>
        <time>2026-05-12T07:59:33.000Z</time>
      </trkpt>
      <trkpt lat="45.28968" lon="4.63571">
        <ele>492.60000610352</ele>
        <time>2026-05-12T07:59:34.000Z</time>
      </trkpt>
      <trkpt lat="45.28965" lon="4.63568">
        <ele>492.60000610352</ele>
        <time>2026-05-12T07:59:35.000Z</time>
      </trkpt>
      <trkpt lat="45.28963" lon="4.63566">
        <ele>492.60000610352</ele>
        <time>2026-05-12T07:59:36.000Z</time>
      </trkpt>
      <trkpt lat="45.2896" lon="4.63565">
        <ele>492.60000610352</ele>
        <time>2026-05-12T07:59:37.000Z</time>
      </trkpt>
      <trkpt lat="45.28957" lon="4.63563">
        <ele>492.60000610352</ele>
        <time>2026-05-12T07:59:38.000Z</time>
      </trkpt>
      <trkpt lat="45.28955" lon="4.6356">
        <ele>492.60000610352</ele>
        <time>2026-05-12T07:59:39.000Z</time>
      </trkpt>
      <trkpt lat="45.28952" lon="4.63558">
        <ele>492.60000610352</ele>
        <time>2026-05-12T07:59:40.000Z</time>
      </trkpt>
      <trkpt lat="45.2895" lon="4.63557">
        <ele>492.60000610352</ele>
        <time>2026-05-12T07:59:41.000Z</time>
      </trkpt>
      <trkpt lat="45.28947" lon="4.63556">
        <ele>492.60000610352</ele>
        <time>2026-05-12T07:59:42.000Z</time>
      </trkpt>
      <trkpt lat="45.28945" lon="4.63554">
        <ele>492.60000610352</ele>
        <time>2026-05-12T07:59:43.000Z</time>
      </trkpt>
      <trkpt lat="45.28942" lon="4.63553">
        <ele>492.60000610352</ele>
        <time>2026-05-12T07:59:44.000Z</time>
      </trkpt>
      <trkpt lat="45.2894" lon="4.63552">
        <ele>492.79998779297</ele>
        <time>2026-05-12T07:59:45.000Z</time>
      </trkpt>
      <trkpt lat="45.28937" lon="4.63551">
        <ele>493</ele>
        <time>2026-05-12T07:59:46.000Z</time>
      </trkpt>
      <trkpt lat="45.28936" lon="4.6355">
        <ele>493</ele>
        <time>2026-05-12T07:59:47.000Z</time>
      </trkpt>
      <trkpt lat="45.28933" lon="4.63548">
        <ele>493.20001220703</ele>
        <time>2026-05-12T07:59:48.000Z</time>
      </trkpt>
      <trkpt lat="45.28931" lon="4.63546">
        <ele>493.39999389648</ele>
        <time>2026-05-12T07:59:49.000Z</time>
      </trkpt>
      <trkpt lat="45.28929" lon="4.63545">
        <ele>493.60000610352</ele>
        <time>2026-05-12T07:59:50.000Z</time>
      </trkpt>
      <trkpt lat="45.28927" lon="4.63544">
        <ele>494</ele>
        <time>2026-05-12T07:59:51.000Z</time>
      </trkpt>
      <trkpt lat="45.28924" lon="4.63542">
        <ele>494.20001220703</ele>
        <time>2026-05-12T07:59:52.000Z</time>
      </trkpt>
      <trkpt lat="45.28921" lon="4.63541">
        <ele>494.20001220703</ele>
        <time>2026-05-12T07:59:53.000Z</time>
      </trkpt>
      <trkpt lat="45.28919" lon="4.6354">
        <ele>494.39999389648</ele>
        <time>2026-05-12T07:59:54.000Z</time>
      </trkpt>
      <trkpt lat="45.28917" lon="4.63538">
        <ele>494.60000610352</ele>
        <time>2026-05-12T07:59:55.000Z</time>
      </trkpt>
      <trkpt lat="45.28915" lon="4.63537">
        <ele>494.79998779297</ele>
        <time>2026-05-12T07:59:56.000Z</time>
      </trkpt>
      <trkpt lat="45.28913" lon="4.63536">
        <ele>494.79998779297</ele>
        <time>2026-05-12T07:59:57.000Z</time>
      </trkpt>
      <trkpt lat="45.28911" lon="4.63534">
        <ele>495</ele>
        <time>2026-05-12T07:59:58.000Z</time>
      </trkpt>
      <trkpt lat="45.28909" lon="4.63534">
        <ele>495.20001220703</ele>
        <time>2026-05-12T07:59:59.000Z</time>
      </trkpt>
      <trkpt lat="45.28908" lon="4.63532">
        <ele>495.39999389648</ele>
        <time>2026-05-12T08:00:00.000Z</time>
      </trkpt>
      <trkpt lat="45.28906" lon="4.63531">
        <ele>495.60000610352</ele>
        <time>2026-05-12T08:00:01.000Z</time>
      </trkpt>
      <trkpt lat="45.28904" lon="4.63529">
        <ele>495.79998779297</ele>
        <time>2026-05-12T08:00:02.000Z</time>
      </trkpt>
      <trkpt lat="45.28902" lon="4.63528">
        <ele>496</ele>
        <time>2026-05-12T08:00:03.000Z</time>
      </trkpt>
      <trkpt lat="45.28901" lon="4.63527">
        <ele>496</ele>
        <time>2026-05-12T08:00:04.000Z</time>
      </trkpt>
      <trkpt lat="45.28898" lon="4.63525">
        <ele>496.20001220703</ele>
        <time>2026-05-12T08:00:05.000Z</time>
      </trkpt>
      <trkpt lat="45.28896" lon="4.63523">
        <ele>496.39999389648</ele>
        <time>2026-05-12T08:00:06.000Z</time>
      </trkpt>
      <trkpt lat="45.28894" lon="4.63521">
        <ele>496.60000610352</ele>
        <time>2026-05-12T08:00:07.000Z</time>
      </trkpt>
      <trkpt lat="45.28891" lon="4.63519">
        <ele>496.60000610352</ele>
        <time>2026-05-12T08:00:08.000Z</time>
      </trkpt>
      <trkpt lat="45.28889" lon="4.63518">
        <ele>496.60000610352</ele>
        <time>2026-05-12T08:00:09.000Z</time>
      </trkpt>
      <trkpt lat="45.28887" lon="4.63516">
        <ele>496.79998779297</ele>
        <time>2026-05-12T08:00:10.000Z</time>
      </trkpt>
      <trkpt lat="45.28885" lon="4.63514">
        <ele>496.79998779297</ele>
        <time>2026-05-12T08:00:11.000Z</time>
      </trkpt>
      <trkpt lat="45.28883" lon="4.63513">
        <ele>497</ele>
        <time>2026-05-12T08:00:12.000Z</time>
      </trkpt>
      <trkpt lat="45.28881" lon="4.63511">
        <ele>497</ele>
        <time>2026-05-12T08:00:13.000Z</time>
      </trkpt>
      <trkpt lat="45.28879" lon="4.6351">
        <ele>497</ele>
        <time>2026-05-12T08:00:14.000Z</time>
      </trkpt>
      <trkpt lat="45.28877" lon="4.63508">
        <ele>497</ele>
        <time>2026-05-12T08:00:15.000Z</time>
      </trkpt>
      <trkpt lat="45.28875" lon="4.63507">
        <ele>497</ele>
        <time>2026-05-12T08:00:16.000Z</time>
      </trkpt>
      <trkpt lat="45.28873" lon="4.63505">
        <ele>497</ele>
        <time>2026-05-12T08:00:17.000Z</time>
      </trkpt>
      <trkpt lat="45.28871" lon="4.63503">
        <ele>497.20001220703</ele>
        <time>2026-05-12T08:00:18.000Z</time>
      </trkpt>
      <trkpt lat="45.28869" lon="4.63501">
        <ele>497.20001220703</ele>
        <time>2026-05-12T08:00:19.000Z</time>
      </trkpt>
      <trkpt lat="45.28867" lon="4.63498">
        <ele>497.20001220703</ele>
        <time>2026-05-12T08:00:20.000Z</time>
      </trkpt>
      <trkpt lat="45.28865" lon="4.63496">
        <ele>497.20001220703</ele>
        <time>2026-05-12T08:00:21.000Z</time>
      </trkpt>
      <trkpt lat="45.28863" lon="4.63494">
        <ele>497.20001220703</ele>
        <time>2026-05-12T08:00:22.000Z</time>
      </trkpt>
      <trkpt lat="45.2886" lon="4.63492">
        <ele>497.20001220703</ele>
        <time>2026-05-12T08:00:23.000Z</time>
      </trkpt>
      <trkpt lat="45.28858" lon="4.6349">
        <ele>497.20001220703</ele>
        <time>2026-05-12T08:00:24.000Z</time>
      </trkpt>
      <trkpt lat="45.28856" lon="4.63488">
        <ele>497.20001220703</ele>
        <time>2026-05-12T08:00:25.000Z</time>
      </trkpt>
      <trkpt lat="45.28853" lon="4.63486">
        <ele>497.20001220703</ele>
        <time>2026-05-12T08:00:26.000Z</time>
      </trkpt>
      <trkpt lat="45.28851" lon="4.63484">
        <ele>497.20001220703</ele>
        <time>2026-05-12T08:00:27.000Z</time>
      </trkpt>
      <trkpt lat="45.28848" lon="4.63482">
        <ele>497</ele>
        <time>2026-05-12T08:00:28.000Z</time>
      </trkpt>
      <trkpt lat="45.28844" lon="4.6348">
        <ele>496.79998779297</ele>
        <time>2026-05-12T08:00:29.000Z</time>
      </trkpt>
      <trkpt lat="45.28841" lon="4.63479">
        <ele>496.79998779297</ele>
        <time>2026-05-12T08:00:30.000Z</time>
      </trkpt>
      <trkpt lat="45.28837" lon="4.63477">
        <ele>496.60000610352</ele>
        <time>2026-05-12T08:00:31.000Z</time>
      </trkpt>
      <trkpt lat="45.28833" lon="4.63476">
        <ele>496.20001220703</ele>
        <time>2026-05-12T08:00:32.000Z</time>
      </trkpt>
      <trkpt lat="45.28829" lon="4.63474">
        <ele>495.79998779297</ele>
        <time>2026-05-12T08:00:33.000Z</time>
      </trkpt>
      <trkpt lat="45.28825" lon="4.63471">
        <ele>495.39999389648</ele>
        <time>2026-05-12T08:00:34.000Z</time>
      </trkpt>
      <trkpt lat="45.28821" lon="4.63467">
        <ele>495</ele>
        <time>2026-05-12T08:00:35.000Z</time>
      </trkpt>
      <trkpt lat="45.28817" lon="4.63464">
        <ele>494.79998779297</ele>
        <time>2026-05-12T08:00:36.000Z</time>
      </trkpt>
      <trkpt lat="45.28814" lon="4.6346">
        <ele>494.60000610352</ele>
        <time>2026-05-12T08:00:37.000Z</time>
      </trkpt>
      <trkpt lat="45.28811" lon="4.63456">
        <ele>494.39999389648</ele>
        <time>2026-05-12T08:00:38.000Z</time>
      </trkpt>
      <trkpt lat="45.28809" lon="4.63452">
        <ele>494.39999389648</ele>
        <time>2026-05-12T08:00:39.000Z</time>
      </trkpt>
      <trkpt lat="45.28807" lon="4.63448">
        <ele>494.39999389648</ele>
        <time>2026-05-12T08:00:40.000Z</time>
      </trkpt>
      <trkpt lat="45.28806" lon="4.63445">
        <ele>494.60000610352</ele>
        <time>2026-05-12T08:00:41.000Z</time>
      </trkpt>
      <trkpt lat="45.28803" lon="4.63441">
        <ele>494.60000610352</ele>
        <time>2026-05-12T08:00:42.000Z</time>
      </trkpt>
      <trkpt lat="45.28801" lon="4.63438">
        <ele>494.79998779297</ele>
        <time>2026-05-12T08:00:43.000Z</time>
      </trkpt>
      <trkpt lat="45.288" lon="4.63434">
        <ele>494.79998779297</ele>
        <time>2026-05-12T08:00:44.000Z</time>
      </trkpt>
      <trkpt lat="45.28798" lon="4.6343">
        <ele>494.79998779297</ele>
        <time>2026-05-12T08:00:45.000Z</time>
      </trkpt>
      <trkpt lat="45.28796" lon="4.63426">
        <ele>495</ele>
        <time>2026-05-12T08:00:46.000Z</time>
      </trkpt>
      <trkpt lat="45.28794" lon="4.63423">
        <ele>495</ele>
        <time>2026-05-12T08:00:47.000Z</time>
      </trkpt>
      <trkpt lat="45.28792" lon="4.63419">
        <ele>495</ele>
        <time>2026-05-12T08:00:48.000Z</time>
      </trkpt>
      <trkpt lat="45.2879" lon="4.63415">
        <ele>495.20001220703</ele>
        <time>2026-05-12T08:00:49.000Z</time>
      </trkpt>
      <trkpt lat="45.28788" lon="4.63411">
        <ele>495.20001220703</ele>
        <time>2026-05-12T08:00:50.000Z</time>
      </trkpt>
      <trkpt lat="45.28786" lon="4.63407">
        <ele>495.20001220703</ele>
        <time>2026-05-12T08:00:51.000Z</time>
      </trkpt>
      <trkpt lat="45.28785" lon="4.63404">
        <ele>495.20001220703</ele>
        <time>2026-05-12T08:00:52.000Z</time>
      </trkpt>
      <trkpt lat="45.28783" lon="4.63401">
        <ele>495.20001220703</ele>
        <time>2026-05-12T08:00:53.000Z</time>
      </trkpt>
      <trkpt lat="45.28781" lon="4.63397">
        <ele>495.20001220703</ele>
        <time>2026-05-12T08:00:54.000Z</time>
      </trkpt>
      <trkpt lat="45.28779" lon="4.63394">
        <ele>495.20001220703</ele>
        <time>2026-05-12T08:00:55.000Z</time>
      </trkpt>
      <trkpt lat="45.28778" lon="4.63391">
        <ele>495.20001220703</ele>
        <time>2026-05-12T08:00:56.000Z</time>
      </trkpt>
      <trkpt lat="45.28777" lon="4.63387">
        <ele>495.20001220703</ele>
        <time>2026-05-12T08:00:57.000Z</time>
      </trkpt>
      <trkpt lat="45.28775" lon="4.63383">
        <ele>495</ele>
        <time>2026-05-12T08:00:58.000Z</time>
      </trkpt>
      <trkpt lat="45.28775" lon="4.6338">
        <ele>495</ele>
        <time>2026-05-12T08:00:59.000Z</time>
      </trkpt>
      <trkpt lat="45.28775" lon="4.63376">
        <ele>494.79998779297</ele>
        <time>2026-05-12T08:01:00.000Z</time>
      </trkpt>
      <trkpt lat="45.28775" lon="4.63372">
        <ele>494.79998779297</ele>
        <time>2026-05-12T08:01:01.000Z</time>
      </trkpt>
      <trkpt lat="45.28776" lon="4.63367">
        <ele>494.39999389648</ele>
        <time>2026-05-12T08:01:02.000Z</time>
      </trkpt>
      <trkpt lat="45.28778" lon="4.63364">
        <ele>494.39999389648</ele>
        <time>2026-05-12T08:01:03.000Z</time>
      </trkpt>
      <trkpt lat="45.2878" lon="4.63361">
        <ele>494.20001220703</ele>
        <time>2026-05-12T08:01:04.000Z</time>
      </trkpt>
      <trkpt lat="45.28781" lon="4.63359">
        <ele>494</ele>
        <time>2026-05-12T08:01:05.000Z</time>
      </trkpt>
      <trkpt lat="45.28783" lon="4.63357">
        <ele>494</ele>
        <time>2026-05-12T08:01:06.000Z</time>
      </trkpt>
      <trkpt lat="45.28784" lon="4.63356">
        <ele>494</ele>
        <time>2026-05-12T08:01:07.000Z</time>
      </trkpt>
      <trkpt lat="45.28786" lon="4.63354">
        <ele>494.20001220703</ele>
        <time>2026-05-12T08:01:08.000Z</time>
      </trkpt>
      <trkpt lat="45.28787" lon="4.63353">
        <ele>494.20001220703</ele>
        <time>2026-05-12T08:01:09.000Z</time>
      </trkpt>
      <trkpt lat="45.28788" lon="4.63351">
        <ele>494.39999389648</ele>
        <time>2026-05-12T08:01:10.000Z</time>
      </trkpt>
      <trkpt lat="45.28789" lon="4.63349">
        <ele>494.39999389648</ele>
        <time>2026-05-12T08:01:11.000Z</time>
      </trkpt>
      <trkpt lat="45.2879" lon="4.63347">
        <ele>494.60000610352</ele>
        <time>2026-05-12T08:01:12.000Z</time>
      </trkpt>
      <trkpt lat="45.28792" lon="4.63345">
        <ele>494.60000610352</ele>
        <time>2026-05-12T08:01:13.000Z</time>
      </trkpt>
      <trkpt lat="45.28794" lon="4.63343">
        <ele>494.60000610352</ele>
        <time>2026-05-12T08:01:14.000Z</time>
      </trkpt>
      <trkpt lat="45.28795" lon="4.63341">
        <ele>494.79998779297</ele>
        <time>2026-05-12T08:01:15.000Z</time>
      </trkpt>
      <trkpt lat="45.28796" lon="4.6334">
        <ele>495</ele>
        <time>2026-05-12T08:01:16.000Z</time>
      </trkpt>
      <trkpt lat="45.28797" lon="4.63338">
        <ele>495</ele>
        <time>2026-05-12T08:01:17.000Z</time>
      </trkpt>
      <trkpt lat="45.28798" lon="4.63336">
        <ele>495.20001220703</ele>
        <time>2026-05-12T08:01:18.000Z</time>
      </trkpt>
      <trkpt lat="45.28799" lon="4.63334">
        <ele>495.39999389648</ele>
        <time>2026-05-12T08:01:19.000Z</time>
      </trkpt>
      <trkpt lat="45.28799" lon="4.63332">
        <ele>495.60000610352</ele>
        <time>2026-05-12T08:01:20.000Z</time>
      </trkpt>
      <trkpt lat="45.288" lon="4.6333">
        <ele>495.79998779297</ele>
        <time>2026-05-12T08:01:21.000Z</time>
      </trkpt>
      <trkpt lat="45.288" lon="4.63327">
        <ele>496</ele>
        <time>2026-05-12T08:01:22.000Z</time>
      </trkpt>
      <trkpt lat="45.288" lon="4.63325">
        <ele>496</ele>
        <time>2026-05-12T08:01:23.000Z</time>
      </trkpt>
      <trkpt lat="45.28801" lon="4.63323">
        <ele>496.20001220703</ele>
        <time>2026-05-12T08:01:24.000Z</time>
      </trkpt>
      <trkpt lat="45.288" lon="4.63321">
        <ele>496.20001220703</ele>
        <time>2026-05-12T08:01:25.000Z</time>
      </trkpt>
      <trkpt lat="45.288" lon="4.63319">
        <ele>496</ele>
        <time>2026-05-12T08:01:26.000Z</time>
      </trkpt>
      <trkpt lat="45.288" lon="4.63317">
        <ele>496</ele>
        <time>2026-05-12T08:01:27.000Z</time>
      </trkpt>
      <trkpt lat="45.28799" lon="4.63315">
        <ele>495.79998779297</ele>
        <time>2026-05-12T08:01:28.000Z</time>
      </trkpt>
      <trkpt lat="45.28798" lon="4.63314">
        <ele>495.79998779297</ele>
        <time>2026-05-12T08:01:29.000Z</time>
      </trkpt>
      <trkpt lat="45.28797" lon="4.63312">
        <ele>495.60000610352</ele>
        <time>2026-05-12T08:01:30.000Z</time>
      </trkpt>
      <trkpt lat="45.28797" lon="4.6331">
        <ele>495.20001220703</ele>
        <time>2026-05-12T08:01:31.000Z</time>
      </trkpt>
      <trkpt lat="45.28796" lon="4.63309">
        <ele>495</ele>
        <time>2026-05-12T08:01:32.000Z</time>
      </trkpt>
      <trkpt lat="45.28795" lon="4.63308">
        <ele>494.79998779297</ele>
        <time>2026-05-12T08:01:33.000Z</time>
      </trkpt>
      <trkpt lat="45.28794" lon="4.63306">
        <ele>494.39999389648</ele>
        <time>2026-05-12T08:01:34.000Z</time>
      </trkpt>
      <trkpt lat="45.28793" lon="4.63305">
        <ele>494.20001220703</ele>
        <time>2026-05-12T08:01:35.000Z</time>
      </trkpt>
      <trkpt lat="45.28792" lon="4.63303">
        <ele>494</ele>
        <time>2026-05-12T08:01:36.000Z</time>
      </trkpt>
      <trkpt lat="45.28791" lon="4.63301">
        <ele>493.60000610352</ele>
        <time>2026-05-12T08:01:37.000Z</time>
      </trkpt>
      <trkpt lat="45.2879" lon="4.63299">
        <ele>493.39999389648</ele>
        <time>2026-05-12T08:01:38.000Z</time>
      </trkpt>
      <trkpt lat="45.28788" lon="4.63297">
        <ele>493</ele>
        <time>2026-05-12T08:01:39.000Z</time>
      </trkpt>
      <trkpt lat="45.28787" lon="4.63295">
        <ele>492.60000610352</ele>
        <time>2026-05-12T08:01:40.000Z</time>
      </trkpt>
      <trkpt lat="45.28786" lon="4.63293">
        <ele>492.20001220703</ele>
        <time>2026-05-12T08:01:41.000Z</time>
      </trkpt>
      <trkpt lat="45.28785" lon="4.63291">
        <ele>491.79998779297</ele>
        <time>2026-05-12T08:01:42.000Z</time>
      </trkpt>
      <trkpt lat="45.28785" lon="4.63288">
        <ele>491.60000610352</ele>
        <time>2026-05-12T08:01:43.000Z</time>
      </trkpt>
      <trkpt lat="45.28784" lon="4.63285">
        <ele>491.20001220703</ele>
        <time>2026-05-12T08:01:44.000Z</time>
      </trkpt>
      <trkpt lat="45.28784" lon="4.63283">
        <ele>490.79998779297</ele>
        <time>2026-05-12T08:01:45.000Z</time>
      </trkpt>
      <trkpt lat="45.28784" lon="4.63281">
        <ele>490.60000610352</ele>
        <time>2026-05-12T08:01:46.000Z</time>
      </trkpt>
      <trkpt lat="45.28783" lon="4.63278">
        <ele>490.20001220703</ele>
        <time>2026-05-12T08:01:47.000Z</time>
      </trkpt>
      <trkpt lat="45.28783" lon="4.63275">
        <ele>490</ele>
        <time>2026-05-12T08:01:48.000Z</time>
      </trkpt>
      <trkpt lat="45.28783" lon="4.63273">
        <ele>489.79998779297</ele>
        <time>2026-05-12T08:01:49.000Z</time>
      </trkpt>
      <trkpt lat="45.28782" lon="4.63271">
        <ele>489.60000610352</ele>
        <time>2026-05-12T08:01:50.000Z</time>
      </trkpt>
      <trkpt lat="45.28782" lon="4.63269">
        <ele>489.39999389648</ele>
        <time>2026-05-12T08:01:51.000Z</time>
      </trkpt>
      <trkpt lat="45.28782" lon="4.63267">
        <ele>489.20001220703</ele>
        <time>2026-05-12T08:01:52.000Z</time>
      </trkpt>
      <trkpt lat="45.28782" lon="4.63265">
        <ele>489</ele>
        <time>2026-05-12T08:01:53.000Z</time>
      </trkpt>
      <trkpt lat="45.28782" lon="4.63263">
        <ele>488.79998779297</ele>
        <time>2026-05-12T08:01:54.000Z</time>
      </trkpt>
      <trkpt lat="45.28782" lon="4.63262">
        <ele>488.39999389648</ele>
        <time>2026-05-12T08:01:55.000Z</time>
      </trkpt>
      <trkpt lat="45.28783" lon="4.63261">
        <ele>488.20001220703</ele>
        <time>2026-05-12T08:01:56.000Z</time>
      </trkpt>
      <trkpt lat="45.28783" lon="4.63259">
        <ele>488</ele>
        <time>2026-05-12T08:01:57.000Z</time>
      </trkpt>
      <trkpt lat="45.28783" lon="4.63256">
        <ele>487.60000610352</ele>
        <time>2026-05-12T08:01:58.000Z</time>
      </trkpt>
      <trkpt lat="45.28783" lon="4.63253">
        <ele>487.20001220703</ele>
        <time>2026-05-12T08:01:59.000Z</time>
      </trkpt>
      <trkpt lat="45.28783" lon="4.6325">
        <ele>487</ele>
        <time>2026-05-12T08:02:00.000Z</time>
      </trkpt>
      <trkpt lat="45.28783" lon="4.63247">
        <ele>486.60000610352</ele>
        <time>2026-05-12T08:02:01.000Z</time>
      </trkpt>
      <trkpt lat="45.28784" lon="4.63243">
        <ele>486</ele>
        <time>2026-05-12T08:02:02.000Z</time>
      </trkpt>
      <trkpt lat="45.28784" lon="4.63239">
        <ele>485.60000610352</ele>
        <time>2026-05-12T08:02:03.000Z</time>
      </trkpt>
      <trkpt lat="45.28785" lon="4.63235">
        <ele>485.20001220703</ele>
        <time>2026-05-12T08:02:04.000Z</time>
      </trkpt>
      <trkpt lat="45.28786" lon="4.63231">
        <ele>484.79998779297</ele>
        <time>2026-05-12T08:02:05.000Z</time>
      </trkpt>
      <trkpt lat="45.28786" lon="4.63227">
        <ele>484.39999389648</ele>
        <time>2026-05-12T08:02:06.000Z</time>
      </trkpt>
      <trkpt lat="45.28787" lon="4.63223">
        <ele>483.79998779297</ele>
        <time>2026-05-12T08:02:07.000Z</time>
      </trkpt>
      <trkpt lat="45.28788" lon="4.63219">
        <ele>483.39999389648</ele>
        <time>2026-05-12T08:02:08.000Z</time>
      </trkpt>
      <trkpt lat="45.28789" lon="4.63216">
        <ele>483</ele>
        <time>2026-05-12T08:02:09.000Z</time>
      </trkpt>
      <trkpt lat="45.28789" lon="4.63213">
        <ele>482.79998779297</ele>
        <time>2026-05-12T08:02:10.000Z</time>
      </trkpt>
      <trkpt lat="45.2879" lon="4.6321">
        <ele>482.39999389648</ele>
        <time>2026-05-12T08:02:11.000Z</time>
      </trkpt>
      <trkpt lat="45.28791" lon="4.63207">
        <ele>482.20001220703</ele>
        <time>2026-05-12T08:02:12.000Z</time>
      </trkpt>
      <trkpt lat="45.28791" lon="4.63204">
        <ele>482</ele>
        <time>2026-05-12T08:02:13.000Z</time>
      </trkpt>
      <trkpt lat="45.28792" lon="4.63201">
        <ele>481.60000610352</ele>
        <time>2026-05-12T08:02:14.000Z</time>
      </trkpt>
      <trkpt lat="45.28793" lon="4.63197">
        <ele>481.20001220703</ele>
        <time>2026-05-12T08:02:15.000Z</time>
      </trkpt>
      <trkpt lat="45.28794" lon="4.63193">
        <ele>480.79998779297</ele>
        <time>2026-05-12T08:02:16.000Z</time>
      </trkpt>
      <trkpt lat="45.28795" lon="4.63188">
        <ele>480.20001220703</ele>
        <time>2026-05-12T08:02:17.000Z</time>
      </trkpt>
      <trkpt lat="45.28796" lon="4.63184">
        <ele>479.79998779297</ele>
        <time>2026-05-12T08:02:18.000Z</time>
      </trkpt>
      <trkpt lat="45.28797" lon="4.6318">
        <ele>479.20001220703</ele>
        <time>2026-05-12T08:02:19.000Z</time>
      </trkpt>
      <trkpt lat="45.28798" lon="4.63177">
        <ele>478.60000610352</ele>
        <time>2026-05-12T08:02:20.000Z</time>
      </trkpt>
      <trkpt lat="45.28799" lon="4.63173">
        <ele>478.20001220703</ele>
        <time>2026-05-12T08:02:21.000Z</time>
      </trkpt>
      <trkpt lat="45.28801" lon="4.63169">
        <ele>477.60000610352</ele>
        <time>2026-05-12T08:02:22.000Z</time>
      </trkpt>
      <trkpt lat="45.28803" lon="4.63166">
        <ele>477.20001220703</ele>
        <time>2026-05-12T08:02:23.000Z</time>
      </trkpt>
      <trkpt lat="45.28805" lon="4.63162">
        <ele>476.79998779297</ele>
        <time>2026-05-12T08:02:24.000Z</time>
      </trkpt>
      <trkpt lat="45.28807" lon="4.63159">
        <ele>476.39999389648</ele>
        <time>2026-05-12T08:02:25.000Z</time>
      </trkpt>
      <trkpt lat="45.2881" lon="4.63155">
        <ele>475.79998779297</ele>
        <time>2026-05-12T08:02:26.000Z</time>
      </trkpt>
      <trkpt lat="45.28812" lon="4.63151">
        <ele>475.39999389648</ele>
        <time>2026-05-12T08:02:27.000Z</time>
      </trkpt>
      <trkpt lat="45.28815" lon="4.63146">
        <ele>474.79998779297</ele>
        <time>2026-05-12T08:02:28.000Z</time>
      </trkpt>
      <trkpt lat="45.28818" lon="4.63142">
        <ele>474.20001220703</ele>
        <time>2026-05-12T08:02:29.000Z</time>
      </trkpt>
      <trkpt lat="45.28821" lon="4.63138">
        <ele>473.60000610352</ele>
        <time>2026-05-12T08:02:30.000Z</time>
      </trkpt>
      <trkpt lat="45.28823" lon="4.63135">
        <ele>473</ele>
        <time>2026-05-12T08:02:31.000Z</time>
      </trkpt>
      <trkpt lat="45.28825" lon="4.63131">
        <ele>472.60000610352</ele>
        <time>2026-05-12T08:02:32.000Z</time>
      </trkpt>
      <trkpt lat="45.28828" lon="4.63128">
        <ele>472.20001220703</ele>
        <time>2026-05-12T08:02:33.000Z</time>
      </trkpt>
      <trkpt lat="45.2883" lon="4.63125">
        <ele>471.79998779297</ele>
        <time>2026-05-12T08:02:34.000Z</time>
      </trkpt>
      <trkpt lat="45.28832" lon="4.63121">
        <ele>471.39999389648</ele>
        <time>2026-05-12T08:02:35.000Z</time>
      </trkpt>
      <trkpt lat="45.28835" lon="4.63118">
        <ele>471</ele>
        <time>2026-05-12T08:02:36.000Z</time>
      </trkpt>
      <trkpt lat="45.28837" lon="4.63115">
        <ele>470.60000610352</ele>
        <time>2026-05-12T08:02:37.000Z</time>
      </trkpt>
      <trkpt lat="45.28839" lon="4.63112">
        <ele>470.20001220703</ele>
        <time>2026-05-12T08:02:38.000Z</time>
      </trkpt>
      <trkpt lat="45.28842" lon="4.63109">
        <ele>469.79998779297</ele>
        <time>2026-05-12T08:02:39.000Z</time>
      </trkpt>
      <trkpt lat="45.28844" lon="4.63106">
        <ele>469.20001220703</ele>
        <time>2026-05-12T08:02:40.000Z</time>
      </trkpt>
      <trkpt lat="45.28846" lon="4.63102">
        <ele>468.79998779297</ele>
        <time>2026-05-12T08:02:41.000Z</time>
      </trkpt>
      <trkpt lat="45.28848" lon="4.63099">
        <ele>468.39999389648</ele>
        <time>2026-05-12T08:02:42.000Z</time>
      </trkpt>
      <trkpt lat="45.28851" lon="4.63095">
        <ele>467.79998779297</ele>
        <time>2026-05-12T08:02:43.000Z</time>
      </trkpt>
      <trkpt lat="45.28853" lon="4.63092">
        <ele>467.20001220703</ele>
        <time>2026-05-12T08:02:44.000Z</time>
      </trkpt>
      <trkpt lat="45.28856" lon="4.6309">
        <ele>466.79998779297</ele>
        <time>2026-05-12T08:02:45.000Z</time>
      </trkpt>
      <trkpt lat="45.28858" lon="4.63087">
        <ele>466.20001220703</ele>
        <time>2026-05-12T08:02:46.000Z</time>
      </trkpt>
      <trkpt lat="45.2886" lon="4.63083">
        <ele>465.60000610352</ele>
        <time>2026-05-12T08:02:47.000Z</time>
      </trkpt>
      <trkpt lat="45.28863" lon="4.6308">
        <ele>465</ele>
        <time>2026-05-12T08:02:48.000Z</time>
      </trkpt>
      <trkpt lat="45.28867" lon="4.63077">
        <ele>464.39999389648</ele>
        <time>2026-05-12T08:02:49.000Z</time>
      </trkpt>
      <trkpt lat="45.2887" lon="4.63075">
        <ele>463.79998779297</ele>
        <time>2026-05-12T08:02:50.000Z</time>
      </trkpt>
      <trkpt lat="45.28874" lon="4.63074">
        <ele>463.39999389648</ele>
        <time>2026-05-12T08:02:51.000Z</time>
      </trkpt>
      <trkpt lat="45.28877" lon="4.63072">
        <ele>463</ele>
        <time>2026-05-12T08:02:52.000Z</time>
      </trkpt>
      <trkpt lat="45.28881" lon="4.63071">
        <ele>462.60000610352</ele>
        <time>2026-05-12T08:02:53.000Z</time>
      </trkpt>
      <trkpt lat="45.28884" lon="4.63069">
        <ele>462.39999389648</ele>
        <time>2026-05-12T08:02:54.000Z</time>
      </trkpt>
      <trkpt lat="45.28888" lon="4.63067">
        <ele>462.20001220703</ele>
        <time>2026-05-12T08:02:55.000Z</time>
      </trkpt>
      <trkpt lat="45.28892" lon="4.63065">
        <ele>461.79998779297</ele>
        <time>2026-05-12T08:02:56.000Z</time>
      </trkpt>
      <trkpt lat="45.28895" lon="4.63063">
        <ele>461.60000610352</ele>
        <time>2026-05-12T08:02:57.000Z</time>
      </trkpt>
      <trkpt lat="45.28898" lon="4.63061">
        <ele>461.60000610352</ele>
        <time>2026-05-12T08:02:58.000Z</time>
      </trkpt>
      <trkpt lat="45.28901" lon="4.63059">
        <ele>461.60000610352</ele>
        <time>2026-05-12T08:02:59.000Z</time>
      </trkpt>
      <trkpt lat="45.28904" lon="4.63057">
        <ele>461.39999389648</ele>
        <time>2026-05-12T08:03:00.000Z</time>
      </trkpt>
      <trkpt lat="45.28907" lon="4.63056">
        <ele>461.39999389648</ele>
        <time>2026-05-12T08:03:01.000Z</time>
      </trkpt>
      <trkpt lat="45.2891" lon="4.63054">
        <ele>461.39999389648</ele>
        <time>2026-05-12T08:03:02.000Z</time>
      </trkpt>
      <trkpt lat="45.28913" lon="4.63052">
        <ele>461.39999389648</ele>
        <time>2026-05-12T08:03:03.000Z</time>
      </trkpt>
      <trkpt lat="45.28916" lon="4.63051">
        <ele>461.39999389648</ele>
        <time>2026-05-12T08:03:04.000Z</time>
      </trkpt>
      <trkpt lat="45.28919" lon="4.63049">
        <ele>461.39999389648</ele>
        <time>2026-05-12T08:03:05.000Z</time>
      </trkpt>
      <trkpt lat="45.28921" lon="4.63048">
        <ele>461.39999389648</ele>
        <time>2026-05-12T08:03:06.000Z</time>
      </trkpt>
      <trkpt lat="45.28924" lon="4.63046">
        <ele>461.20001220703</ele>
        <time>2026-05-12T08:03:07.000Z</time>
      </trkpt>
      <trkpt lat="45.28927" lon="4.63045">
        <ele>461.20001220703</ele>
        <time>2026-05-12T08:03:08.000Z</time>
      </trkpt>
      <trkpt lat="45.2893" lon="4.63044">
        <ele>461.20001220703</ele>
        <time>2026-05-12T08:03:09.000Z</time>
      </trkpt>
      <trkpt lat="45.28933" lon="4.63043">
        <ele>461</ele>
        <time>2026-05-12T08:03:10.000Z</time>
      </trkpt>
      <trkpt lat="45.28936" lon="4.63042">
        <ele>461</ele>
        <time>2026-05-12T08:03:11.000Z</time>
      </trkpt>
      <trkpt lat="45.28939" lon="4.63042">
        <ele>460.79998779297</ele>
        <time>2026-05-12T08:03:12.000Z</time>
      </trkpt>
      <trkpt lat="45.28942" lon="4.63041">
        <ele>460.60000610352</ele>
        <time>2026-05-12T08:03:13.000Z</time>
      </trkpt>
      <trkpt lat="45.28944" lon="4.6304">
        <ele>460.39999389648</ele>
        <time>2026-05-12T08:03:14.000Z</time>
      </trkpt>
      <trkpt lat="45.28947" lon="4.63039">
        <ele>460.20001220703</ele>
        <time>2026-05-12T08:03:15.000Z</time>
      </trkpt>
      <trkpt lat="45.28949" lon="4.63038">
        <ele>459.79998779297</ele>
        <time>2026-05-12T08:03:16.000Z</time>
      </trkpt>
      <trkpt lat="45.28952" lon="4.63037">
        <ele>459.60000610352</ele>
        <time>2026-05-12T08:03:17.000Z</time>
      </trkpt>
      <trkpt lat="45.28954" lon="4.63036">
        <ele>459.39999389648</ele>
        <time>2026-05-12T08:03:18.000Z</time>
      </trkpt>
      <trkpt lat="45.28956" lon="4.63036">
        <ele>459</ele>
        <time>2026-05-12T08:03:19.000Z</time>
      </trkpt>
      <trkpt lat="45.28959" lon="4.63035">
        <ele>458.79998779297</ele>
        <time>2026-05-12T08:03:20.000Z</time>
      </trkpt>
      <trkpt lat="45.28961" lon="4.63035">
        <ele>458.39999389648</ele>
        <time>2026-05-12T08:03:21.000Z</time>
      </trkpt>
      <trkpt lat="45.28963" lon="4.63035">
        <ele>458.20001220703</ele>
        <time>2026-05-12T08:03:22.000Z</time>
      </trkpt>
      <trkpt lat="45.28965" lon="4.63035">
        <ele>458</ele>
        <time>2026-05-12T08:03:23.000Z</time>
      </trkpt>
      <trkpt lat="45.28967" lon="4.63036">
        <ele>457.60000610352</ele>
        <time>2026-05-12T08:03:24.000Z</time>
      </trkpt>
      <trkpt lat="45.2897" lon="4.63037">
        <ele>457.20001220703</ele>
        <time>2026-05-12T08:03:25.000Z</time>
      </trkpt>
      <trkpt lat="45.28972" lon="4.63037">
        <ele>456.79998779297</ele>
        <time>2026-05-12T08:03:26.000Z</time>
      </trkpt>
      <trkpt lat="45.28975" lon="4.63038">
        <ele>456.39999389648</ele>
        <time>2026-05-12T08:03:27.000Z</time>
      </trkpt>
      <trkpt lat="45.28978" lon="4.63038">
        <ele>456</ele>
        <time>2026-05-12T08:03:28.000Z</time>
      </trkpt>
      <trkpt lat="45.2898" lon="4.63038">
        <ele>455.60000610352</ele>
        <time>2026-05-12T08:03:29.000Z</time>
      </trkpt>
      <trkpt lat="45.28983" lon="4.63037">
        <ele>455.39999389648</ele>
        <time>2026-05-12T08:03:30.000Z</time>
      </trkpt>
      <trkpt lat="45.28985" lon="4.63035">
        <ele>455</ele>
        <time>2026-05-12T08:03:31.000Z</time>
      </trkpt>
      <trkpt lat="45.28988" lon="4.63033">
        <ele>454.79998779297</ele>
        <time>2026-05-12T08:03:32.000Z</time>
      </trkpt>
      <trkpt lat="45.28991" lon="4.63029">
        <ele>454.39999389648</ele>
        <time>2026-05-12T08:03:33.000Z</time>
      </trkpt>
      <trkpt lat="45.28994" lon="4.63025">
        <ele>454.20001220703</ele>
        <time>2026-05-12T08:03:34.000Z</time>
      </trkpt>
      <trkpt lat="45.28997" lon="4.63021">
        <ele>454</ele>
        <time>2026-05-12T08:03:35.000Z</time>
      </trkpt>
      <trkpt lat="45.29" lon="4.63017">
        <ele>454</ele>
        <time>2026-05-12T08:03:36.000Z</time>
      </trkpt>
      <trkpt lat="45.29002" lon="4.63013">
        <ele>453.79998779297</ele>
        <time>2026-05-12T08:03:37.000Z</time>
      </trkpt>
      <trkpt lat="45.29005" lon="4.63011">
        <ele>453.79998779297</ele>
        <time>2026-05-12T08:03:38.000Z</time>
      </trkpt>
      <trkpt lat="45.29007" lon="4.63009">
        <ele>453.79998779297</ele>
        <time>2026-05-12T08:03:39.000Z</time>
      </trkpt>
      <trkpt lat="45.29009" lon="4.63007">
        <ele>453.79998779297</ele>
        <time>2026-05-12T08:03:40.000Z</time>
      </trkpt>
      <trkpt lat="45.29011" lon="4.63005">
        <ele>454</ele>
        <time>2026-05-12T08:03:41.000Z</time>
      </trkpt>
      <trkpt lat="45.29014" lon="4.63004">
        <ele>454</ele>
        <time>2026-05-12T08:03:42.000Z</time>
      </trkpt>
      <trkpt lat="45.29017" lon="4.63002">
        <ele>454.20001220703</ele>
        <time>2026-05-12T08:03:43.000Z</time>
      </trkpt>
      <trkpt lat="45.2902" lon="4.63001">
        <ele>454.39999389648</ele>
        <time>2026-05-12T08:03:44.000Z</time>
      </trkpt>
      <trkpt lat="45.29022" lon="4.63001">
        <ele>454.60000610352</ele>
        <time>2026-05-12T08:03:45.000Z</time>
      </trkpt>
      <trkpt lat="45.29024" lon="4.63001">
        <ele>454.79998779297</ele>
        <time>2026-05-12T08:03:46.000Z</time>
      </trkpt>
      <trkpt lat="45.29026" lon="4.63001">
        <ele>455.20001220703</ele>
        <time>2026-05-12T08:03:47.000Z</time>
      </trkpt>
      <trkpt lat="45.29028" lon="4.63001">
        <ele>455.39999389648</ele>
        <time>2026-05-12T08:03:48.000Z</time>
      </trkpt>
      <trkpt lat="45.2903" lon="4.63">
        <ele>455.79998779297</ele>
        <time>2026-05-12T08:03:49.000Z</time>
      </trkpt>
      <trkpt lat="45.29032" lon="4.62999">
        <ele>456.20001220703</ele>
        <time>2026-05-12T08:03:50.000Z</time>
      </trkpt>
      <trkpt lat="45.29035" lon="4.62999">
        <ele>456.39999389648</ele>
        <time>2026-05-12T08:03:51.000Z</time>
      </trkpt>
      <trkpt lat="45.29036" lon="4.62998">
        <ele>456.79998779297</ele>
        <time>2026-05-12T08:03:52.000Z</time>
      </trkpt>
      <trkpt lat="45.29038" lon="4.62998">
        <ele>457.20001220703</ele>
        <time>2026-05-12T08:03:53.000Z</time>
      </trkpt>
      <trkpt lat="45.2904" lon="4.62998">
        <ele>457.39999389648</ele>
        <time>2026-05-12T08:03:54.000Z</time>
      </trkpt>
      <trkpt lat="45.29042" lon="4.62997">
        <ele>457.79998779297</ele>
        <time>2026-05-12T08:03:55.000Z</time>
      </trkpt>
      <trkpt lat="45.29043" lon="4.62996">
        <ele>458</ele>
        <time>2026-05-12T08:03:56.000Z</time>
      </trkpt>
      <trkpt lat="45.29045" lon="4.62996">
        <ele>458.39999389648</ele>
        <time>2026-05-12T08:03:57.000Z</time>
      </trkpt>
      <trkpt lat="45.29047" lon="4.62995">
        <ele>458.60000610352</ele>
        <time>2026-05-12T08:03:58.000Z</time>
      </trkpt>
      <trkpt lat="45.29049" lon="4.62995">
        <ele>459</ele>
        <time>2026-05-12T08:03:59.000Z</time>
      </trkpt>
      <trkpt lat="45.2905" lon="4.62995">
        <ele>459.20001220703</ele>
        <time>2026-05-12T08:04:00.000Z</time>
      </trkpt>
      <trkpt lat="45.29052" lon="4.62995">
        <ele>459.39999389648</ele>
        <time>2026-05-12T08:04:01.000Z</time>
      </trkpt>
      <trkpt lat="45.29053" lon="4.62995">
        <ele>459.79998779297</ele>
        <time>2026-05-12T08:04:02.000Z</time>
      </trkpt>
      <trkpt lat="45.29055" lon="4.62995">
        <ele>460</ele>
        <time>2026-05-12T08:04:03.000Z</time>
      </trkpt>
      <trkpt lat="45.29056" lon="4.62994">
        <ele>460.20001220703</ele>
        <time>2026-05-12T08:04:04.000Z</time>
      </trkpt>
      <trkpt lat="45.29058" lon="4.62993">
        <ele>460.39999389648</ele>
        <time>2026-05-12T08:04:05.000Z</time>
      </trkpt>
      <trkpt lat="45.2906" lon="4.62993">
        <ele>460.60000610352</ele>
        <time>2026-05-12T08:04:06.000Z</time>
      </trkpt>
      <trkpt lat="45.29061" lon="4.62993">
        <ele>460.79998779297</ele>
        <time>2026-05-12T08:04:07.000Z</time>
      </trkpt>
      <trkpt lat="45.29063" lon="4.62992">
        <ele>461</ele>
        <time>2026-05-12T08:04:08.000Z</time>
      </trkpt>
      <trkpt lat="45.29065" lon="4.62992">
        <ele>461.39999389648</ele>
        <time>2026-05-12T08:04:09.000Z</time>
      </trkpt>
      <trkpt lat="45.29067" lon="4.62991">
        <ele>461.60000610352</ele>
        <time>2026-05-12T08:04:10.000Z</time>
      </trkpt>
      <trkpt lat="45.29069" lon="4.62991">
        <ele>461.79998779297</ele>
        <time>2026-05-12T08:04:11.000Z</time>
      </trkpt>
      <trkpt lat="45.2907" lon="4.62991">
        <ele>462</ele>
        <time>2026-05-12T08:04:12.000Z</time>
      </trkpt>
      <trkpt lat="45.29072" lon="4.6299">
        <ele>462.20001220703</ele>
        <time>2026-05-12T08:04:13.000Z</time>
      </trkpt>
      <trkpt lat="45.29074" lon="4.62989">
        <ele>462.20001220703</ele>
        <time>2026-05-12T08:04:14.000Z</time>
      </trkpt>
      <trkpt lat="45.29075" lon="4.62989">
        <ele>462.39999389648</ele>
        <time>2026-05-12T08:04:15.000Z</time>
      </trkpt>
      <trkpt lat="45.29077" lon="4.62988">
        <ele>462.39999389648</ele>
        <time>2026-05-12T08:04:16.000Z</time>
      </trkpt>
      <trkpt lat="45.29079" lon="4.62987">
        <ele>462.60000610352</ele>
        <time>2026-05-12T08:04:17.000Z</time>
      </trkpt>
      <trkpt lat="45.29081" lon="4.62987">
        <ele>462.60000610352</ele>
        <time>2026-05-12T08:04:18.000Z</time>
      </trkpt>
      <trkpt lat="45.29083" lon="4.62987">
        <ele>462.79998779297</ele>
        <time>2026-05-12T08:04:19.000Z</time>
      </trkpt>
      <trkpt lat="45.29085" lon="4.62986">
        <ele>462.79998779297</ele>
        <time>2026-05-12T08:04:20.000Z</time>
      </trkpt>
      <trkpt lat="45.29087" lon="4.62986">
        <ele>462.79998779297</ele>
        <time>2026-05-12T08:04:21.000Z</time>
      </trkpt>
      <trkpt lat="45.29089" lon="4.62985">
        <ele>462.79998779297</ele>
        <time>2026-05-12T08:04:22.000Z</time>
      </trkpt>
      <trkpt lat="45.29091" lon="4.62985">
        <ele>463</ele>
        <time>2026-05-12T08:04:23.000Z</time>
      </trkpt>
      <trkpt lat="45.29093" lon="4.62986">
        <ele>463</ele>
        <time>2026-05-12T08:04:24.000Z</time>
      </trkpt>
      <trkpt lat="45.29096" lon="4.62986">
        <ele>463.20001220703</ele>
        <time>2026-05-12T08:04:25.000Z</time>
      </trkpt>
      <trkpt lat="45.29097" lon="4.62986">
        <ele>463.20001220703</ele>
        <time>2026-05-12T08:04:26.000Z</time>
      </trkpt>
      <trkpt lat="45.29099" lon="4.62987">
        <ele>463.39999389648</ele>
        <time>2026-05-12T08:04:27.000Z</time>
      </trkpt>
      <trkpt lat="45.29101" lon="4.62988">
        <ele>463.60000610352</ele>
        <time>2026-05-12T08:04:28.000Z</time>
      </trkpt>
      <trkpt lat="45.29102" lon="4.62989">
        <ele>463.60000610352</ele>
        <time>2026-05-12T08:04:29.000Z</time>
      </trkpt>
      <trkpt lat="45.29104" lon="4.6299">
        <ele>463.79998779297</ele>
        <time>2026-05-12T08:04:30.000Z</time>
      </trkpt>
      <trkpt lat="45.29106" lon="4.62991">
        <ele>464</ele>
        <time>2026-05-12T08:04:31.000Z</time>
      </trkpt>
      <trkpt lat="45.29107" lon="4.62992">
        <ele>464.20001220703</ele>
        <time>2026-05-12T08:04:32.000Z</time>
      </trkpt>
      <trkpt lat="45.29109" lon="4.62993">
        <ele>464.39999389648</ele>
        <time>2026-05-12T08:04:33.000Z</time>
      </trkpt>
      <trkpt lat="45.2911" lon="4.62994">
        <ele>464.39999389648</ele>
        <time>2026-05-12T08:04:34.000Z</time>
      </trkpt>
      <trkpt lat="45.29111" lon="4.62996">
        <ele>464.60000610352</ele>
        <time>2026-05-12T08:04:35.000Z</time>
      </trkpt>
      <trkpt lat="45.29113" lon="4.62997">
        <ele>464.79998779297</ele>
        <time>2026-05-12T08:04:36.000Z</time>
      </trkpt>
      <trkpt lat="45.29114" lon="4.62997">
        <ele>465</ele>
        <time>2026-05-12T08:04:37.000Z</time>
      </trkpt>
      <trkpt lat="45.29115" lon="4.62997">
        <ele>465.20001220703</ele>
        <time>2026-05-12T08:04:38.000Z</time>
      </trkpt>
      <trkpt lat="45.29117" lon="4.62998">
        <ele>465.20001220703</ele>
        <time>2026-05-12T08:04:39.000Z</time>
      </trkpt>
      <trkpt lat="45.29118" lon="4.62999">
        <ele>465.39999389648</ele>
        <time>2026-05-12T08:04:40.000Z</time>
      </trkpt>
      <trkpt lat="45.2912" lon="4.63">
        <ele>465.60000610352</ele>
        <time>2026-05-12T08:04:41.000Z</time>
      </trkpt>
      <trkpt lat="45.29121" lon="4.63001">
        <ele>465.79998779297</ele>
        <time>2026-05-12T08:04:42.000Z</time>
      </trkpt>
      <trkpt lat="45.29123" lon="4.63002">
        <ele>466</ele>
        <time>2026-05-12T08:04:43.000Z</time>
      </trkpt>
      <trkpt lat="45.29124" lon="4.63004">
        <ele>466.20001220703</ele>
        <time>2026-05-12T08:04:44.000Z</time>
      </trkpt>
      <trkpt lat="45.29126" lon="4.63005">
        <ele>466.39999389648</ele>
        <time>2026-05-12T08:04:45.000Z</time>
      </trkpt>
      <trkpt lat="45.29127" lon="4.63007">
        <ele>466.60000610352</ele>
        <time>2026-05-12T08:04:46.000Z</time>
      </trkpt>
      <trkpt lat="45.29128" lon="4.63008">
        <ele>466.79998779297</ele>
        <time>2026-05-12T08:04:47.000Z</time>
      </trkpt>
      <trkpt lat="45.29129" lon="4.63008">
        <ele>467</ele>
        <time>2026-05-12T08:04:48.000Z</time>
      </trkpt>
      <trkpt lat="45.29131" lon="4.63009">
        <ele>467.20001220703</ele>
        <time>2026-05-12T08:04:49.000Z</time>
      </trkpt>
      <trkpt lat="45.29132" lon="4.63009">
        <ele>467.39999389648</ele>
        <time>2026-05-12T08:04:50.000Z</time>
      </trkpt>
      <trkpt lat="45.29134" lon="4.6301">
        <ele>467.39999389648</ele>
        <time>2026-05-12T08:04:51.000Z</time>
      </trkpt>
      <trkpt lat="45.29136" lon="4.6301">
        <ele>467.39999389648</ele>
        <time>2026-05-12T08:04:52.000Z</time>
      </trkpt>
      <trkpt lat="45.29138" lon="4.63011">
        <ele>467.39999389648</ele>
        <time>2026-05-12T08:04:53.000Z</time>
      </trkpt>
      <trkpt lat="45.2914" lon="4.63011">
        <ele>467.39999389648</ele>
        <time>2026-05-12T08:04:54.000Z</time>
      </trkpt>
      <trkpt lat="45.29142" lon="4.6301">
        <ele>467.39999389648</ele>
        <time>2026-05-12T08:04:55.000Z</time>
      </trkpt>
      <trkpt lat="45.29144" lon="4.6301">
        <ele>467.20001220703</ele>
        <time>2026-05-12T08:04:56.000Z</time>
      </trkpt>
      <trkpt lat="45.29147" lon="4.63009">
        <ele>467</ele>
        <time>2026-05-12T08:04:57.000Z</time>
      </trkpt>
      <trkpt lat="45.2915" lon="4.63009">
        <ele>466.79998779297</ele>
        <time>2026-05-12T08:04:58.000Z</time>
      </trkpt>
      <trkpt lat="45.29152" lon="4.63009">
        <ele>466.60000610352</ele>
        <time>2026-05-12T08:04:59.000Z</time>
      </trkpt>
      <trkpt lat="45.29155" lon="4.63008">
        <ele>466.20001220703</ele>
        <time>2026-05-12T08:05:00.000Z</time>
      </trkpt>
      <trkpt lat="45.29158" lon="4.63008">
        <ele>466</ele>
        <time>2026-05-12T08:05:01.000Z</time>
      </trkpt>
      <trkpt lat="45.29161" lon="4.63007">
        <ele>465.60000610352</ele>
        <time>2026-05-12T08:05:02.000Z</time>
      </trkpt>
      <trkpt lat="45.29164" lon="4.63007">
        <ele>465.39999389648</ele>
        <time>2026-05-12T08:05:03.000Z</time>
      </trkpt>
      <trkpt lat="45.29167" lon="4.63006">
        <ele>465</ele>
        <time>2026-05-12T08:05:04.000Z</time>
      </trkpt>
      <trkpt lat="45.2917" lon="4.63005">
        <ele>464.60000610352</ele>
        <time>2026-05-12T08:05:05.000Z</time>
      </trkpt>
      <trkpt lat="45.29172" lon="4.63005">
        <ele>464.20001220703</ele>
        <time>2026-05-12T08:05:06.000Z</time>
      </trkpt>
      <trkpt lat="45.29175" lon="4.63005">
        <ele>464</ele>
        <time>2026-05-12T08:05:07.000Z</time>
      </trkpt>
      <trkpt lat="45.29176" lon="4.63005">
        <ele>463.79998779297</ele>
        <time>2026-05-12T08:05:08.000Z</time>
      </trkpt>
      <trkpt lat="45.29178" lon="4.63004">
        <ele>463.39999389648</ele>
        <time>2026-05-12T08:05:09.000Z</time>
      </trkpt>
      <trkpt lat="45.29181" lon="4.63004">
        <ele>463.20001220703</ele>
        <time>2026-05-12T08:05:10.000Z</time>
      </trkpt>
      <trkpt lat="45.29182" lon="4.63003">
        <ele>463</ele>
        <time>2026-05-12T08:05:11.000Z</time>
      </trkpt>
      <trkpt lat="45.29184" lon="4.63002">
        <ele>462.60000610352</ele>
        <time>2026-05-12T08:05:12.000Z</time>
      </trkpt>
      <trkpt lat="45.29185" lon="4.63">
        <ele>462.39999389648</ele>
        <time>2026-05-12T08:05:13.000Z</time>
      </trkpt>
      <trkpt lat="45.29185" lon="4.62998">
        <ele>462.20001220703</ele>
        <time>2026-05-12T08:05:14.000Z</time>
      </trkpt>
      <trkpt lat="45.29183" lon="4.62996">
        <ele>461.79998779297</ele>
        <time>2026-05-12T08:05:15.000Z</time>
      </trkpt>
      <trkpt lat="45.29181" lon="4.62994">
        <ele>461.60000610352</ele>
        <time>2026-05-12T08:05:16.000Z</time>
      </trkpt>
      <trkpt lat="45.29179" lon="4.62991">
        <ele>461.20001220703</ele>
        <time>2026-05-12T08:05:17.000Z</time>
      </trkpt>
      <trkpt lat="45.29177" lon="4.62988">
        <ele>460.60000610352</ele>
        <time>2026-05-12T08:05:18.000Z</time>
      </trkpt>
      <trkpt lat="45.29176" lon="4.62985">
        <ele>460.20001220703</ele>
        <time>2026-05-12T08:05:19.000Z</time>
      </trkpt>
      <trkpt lat="45.29176" lon="4.62981">
        <ele>459.60000610352</ele>
        <time>2026-05-12T08:05:20.000Z</time>
      </trkpt>
      <trkpt lat="45.29176" lon="4.62977">
        <ele>459.20001220703</ele>
        <time>2026-05-12T08:05:21.000Z</time>
      </trkpt>
      <trkpt lat="45.29177" lon="4.62974">
        <ele>458.79998779297</ele>
        <time>2026-05-12T08:05:22.000Z</time>
      </trkpt>
      <trkpt lat="45.29178" lon="4.62971">
        <ele>458.20001220703</ele>
        <time>2026-05-12T08:05:23.000Z</time>
      </trkpt>
      <trkpt lat="45.29181" lon="4.62969">
        <ele>457.79998779297</ele>
        <time>2026-05-12T08:05:24.000Z</time>
      </trkpt>
      <trkpt lat="45.29184" lon="4.62967">
        <ele>457.39999389648</ele>
        <time>2026-05-12T08:05:25.000Z</time>
      </trkpt>
      <trkpt lat="45.29187" lon="4.62966">
        <ele>457</ele>
        <time>2026-05-12T08:05:26.000Z</time>
      </trkpt>
      <trkpt lat="45.2919" lon="4.62964">
        <ele>456.79998779297</ele>
        <time>2026-05-12T08:05:27.000Z</time>
      </trkpt>
      <trkpt lat="45.29193" lon="4.62962">
        <ele>456.60000610352</ele>
        <time>2026-05-12T08:05:28.000Z</time>
      </trkpt>
      <trkpt lat="45.29195" lon="4.62961">
        <ele>456.60000610352</ele>
        <time>2026-05-12T08:05:29.000Z</time>
      </trkpt>
      <trkpt lat="45.29196" lon="4.6296">
        <ele>456.79998779297</ele>
        <time>2026-05-12T08:05:30.000Z</time>
      </trkpt>
      <trkpt lat="45.29197" lon="4.62959">
        <ele>456.79998779297</ele>
        <time>2026-05-12T08:05:31.000Z</time>
      </trkpt>
      <trkpt lat="45.29199" lon="4.62958">
        <ele>457.20001220703</ele>
        <time>2026-05-12T08:05:32.000Z</time>
      </trkpt>
      <trkpt lat="45.292" lon="4.62956">
        <ele>457.39999389648</ele>
        <time>2026-05-12T08:05:33.000Z</time>
      </trkpt>
      <trkpt lat="45.29201" lon="4.62955">
        <ele>457.39999389648</ele>
        <time>2026-05-12T08:05:34.000Z</time>
      </trkpt>
      <trkpt lat="45.29201" lon="4.62953">
        <ele>457.60000610352</ele>
        <time>2026-05-12T08:05:35.000Z</time>
      </trkpt>
      <trkpt lat="45.29201" lon="4.62951">
        <ele>457.79998779297</ele>
        <time>2026-05-12T08:05:36.000Z</time>
      </trkpt>
      <trkpt lat="45.292" lon="4.6295">
        <ele>457.79998779297</ele>
        <time>2026-05-12T08:05:37.000Z</time>
      </trkpt>
      <trkpt lat="45.29198" lon="4.6295">
        <ele>457.79998779297</ele>
        <time>2026-05-12T08:05:38.000Z</time>
      </trkpt>
      <trkpt lat="45.29196" lon="4.62951">
        <ele>457.79998779297</ele>
        <time>2026-05-12T08:05:39.000Z</time>
      </trkpt>
      <trkpt lat="45.29195" lon="4.62952">
        <ele>457.60000610352</ele>
        <time>2026-05-12T08:05:40.000Z</time>
      </trkpt>
      <trkpt lat="45.29193" lon="4.62953">
        <ele>457.39999389648</ele>
        <time>2026-05-12T08:05:41.000Z</time>
      </trkpt>
      <trkpt lat="45.29192" lon="4.62954">
        <ele>457.20001220703</ele>
        <time>2026-05-12T08:05:42.000Z</time>
      </trkpt>
      <trkpt lat="45.29191" lon="4.62956">
        <ele>457.20001220703</ele>
        <time>2026-05-12T08:05:43.000Z</time>
      </trkpt>
      <trkpt lat="45.29189" lon="4.62955">
        <ele>457</ele>
        <time>2026-05-12T08:05:44.000Z</time>
      </trkpt>
      <trkpt lat="45.29186" lon="4.62954">
        <ele>456.79998779297</ele>
        <time>2026-05-12T08:05:45.000Z</time>
      </trkpt>
      <trkpt lat="45.29184" lon="4.62953">
        <ele>456.60000610352</ele>
        <time>2026-05-12T08:05:46.000Z</time>
      </trkpt>
      <trkpt lat="45.29181" lon="4.62951">
        <ele>456.39999389648</ele>
        <time>2026-05-12T08:05:47.000Z</time>
      </trkpt>
      <trkpt lat="45.29179" lon="4.62948">
        <ele>456.20001220703</ele>
        <time>2026-05-12T08:05:48.000Z</time>
      </trkpt>
      <trkpt lat="45.29176" lon="4.62946">
        <ele>456</ele>
        <time>2026-05-12T08:05:49.000Z</time>
      </trkpt>
      <trkpt lat="45.29174" lon="4.62943">
        <ele>455.60000610352</ele>
        <time>2026-05-12T08:05:50.000Z</time>
      </trkpt>
      <trkpt lat="45.2917" lon="4.62941">
        <ele>455.39999389648</ele>
        <time>2026-05-12T08:05:51.000Z</time>
      </trkpt>
      <trkpt lat="45.29167" lon="4.62939">
        <ele>455.20001220703</ele>
        <time>2026-05-12T08:05:52.000Z</time>
      </trkpt>
      <trkpt lat="45.29163" lon="4.62937">
        <ele>454.79998779297</ele>
        <time>2026-05-12T08:05:53.000Z</time>
      </trkpt>
      <trkpt lat="45.29158" lon="4.62934">
        <ele>454.39999389648</ele>
        <time>2026-05-12T08:05:54.000Z</time>
      </trkpt>
      <trkpt lat="45.29153" lon="4.62931">
        <ele>454</ele>
        <time>2026-05-12T08:05:55.000Z</time>
      </trkpt>
      <trkpt lat="45.29148" lon="4.62927">
        <ele>453.39999389648</ele>
        <time>2026-05-12T08:05:56.000Z</time>
      </trkpt>
      <trkpt lat="45.29143" lon="4.62923">
        <ele>452.79998779297</ele>
        <time>2026-05-12T08:05:57.000Z</time>
      </trkpt>
      <trkpt lat="45.29137" lon="4.62919">
        <ele>452.20001220703</ele>
        <time>2026-05-12T08:05:58.000Z</time>
      </trkpt>
      <trkpt lat="45.29132" lon="4.62914">
        <ele>451.60000610352</ele>
        <time>2026-05-12T08:05:59.000Z</time>
      </trkpt>
      <trkpt lat="45.29128" lon="4.62908">
        <ele>451</ele>
        <time>2026-05-12T08:06:00.000Z</time>
      </trkpt>
      <trkpt lat="45.29124" lon="4.62902">
        <ele>450.60000610352</ele>
        <time>2026-05-12T08:06:01.000Z</time>
      </trkpt>
      <trkpt lat="45.29122" lon="4.62896">
        <ele>450.20001220703</ele>
        <time>2026-05-12T08:06:02.000Z</time>
      </trkpt>
      <trkpt lat="45.29122" lon="4.62889">
        <ele>449.79998779297</ele>
        <time>2026-05-12T08:06:03.000Z</time>
      </trkpt>
      <trkpt lat="45.29122" lon="4.62884">
        <ele>449.39999389648</ele>
        <time>2026-05-12T08:06:04.000Z</time>
      </trkpt>
      <trkpt lat="45.29123" lon="4.62878">
        <ele>449</ele>
        <time>2026-05-12T08:06:05.000Z</time>
      </trkpt>
      <trkpt lat="45.29124" lon="4.62873">
        <ele>448.60000610352</ele>
        <time>2026-05-12T08:06:06.000Z</time>
      </trkpt>
      <trkpt lat="45.29126" lon="4.62868">
        <ele>448.20001220703</ele>
        <time>2026-05-12T08:06:07.000Z</time>
      </trkpt>
      <trkpt lat="45.29128" lon="4.62864">
        <ele>447.79998779297</ele>
        <time>2026-05-12T08:06:08.000Z</time>
      </trkpt>
      <trkpt lat="45.2913" lon="4.62859">
        <ele>447.20001220703</ele>
        <time>2026-05-12T08:06:09.000Z</time>
      </trkpt>
      <trkpt lat="45.29133" lon="4.62854">
        <ele>446.79998779297</ele>
        <time>2026-05-12T08:06:10.000Z</time>
      </trkpt>
      <trkpt lat="45.29134" lon="4.62848">
        <ele>446.20001220703</ele>
        <time>2026-05-12T08:06:11.000Z</time>
      </trkpt>
      <trkpt lat="45.29134" lon="4.62842">
        <ele>445.79998779297</ele>
        <time>2026-05-12T08:06:12.000Z</time>
      </trkpt>
      <trkpt lat="45.29133" lon="4.62836">
        <ele>445.20001220703</ele>
        <time>2026-05-12T08:06:13.000Z</time>
      </trkpt>
      <trkpt lat="45.29132" lon="4.62829">
        <ele>444.60000610352</ele>
        <time>2026-05-12T08:06:14.000Z</time>
      </trkpt>
      <trkpt lat="45.29132" lon="4.62824">
        <ele>444.20001220703</ele>
        <time>2026-05-12T08:06:15.000Z</time>
      </trkpt>
      <trkpt lat="45.29131" lon="4.62818">
        <ele>443.79998779297</ele>
        <time>2026-05-12T08:06:16.000Z</time>
      </trkpt>
      <trkpt lat="45.29132" lon="4.62813">
        <ele>443.39999389648</ele>
        <time>2026-05-12T08:06:17.000Z</time>
      </trkpt>
      <trkpt lat="45.29134" lon="4.62808">
        <ele>443.20001220703</ele>
        <time>2026-05-12T08:06:18.000Z</time>
      </trkpt>
      <trkpt lat="45.29135" lon="4.62804">
        <ele>443</ele>
        <time>2026-05-12T08:06:19.000Z</time>
      </trkpt>
      <trkpt lat="45.29137" lon="4.62801">
        <ele>443</ele>
        <time>2026-05-12T08:06:20.000Z</time>
      </trkpt>
      <trkpt lat="45.29139" lon="4.62798">
        <ele>443</ele>
        <time>2026-05-12T08:06:21.000Z</time>
      </trkpt>
      <trkpt lat="45.29141" lon="4.62794">
        <ele>443.20001220703</ele>
        <time>2026-05-12T08:06:22.000Z</time>
      </trkpt>
      <trkpt lat="45.29144" lon="4.6279">
        <ele>443.20001220703</ele>
        <time>2026-05-12T08:06:23.000Z</time>
      </trkpt>
      <trkpt lat="45.29146" lon="4.62786">
        <ele>443.20001220703</ele>
        <time>2026-05-12T08:06:24.000Z</time>
      </trkpt>
      <trkpt lat="45.29148" lon="4.62783">
        <ele>443.39999389648</ele>
        <time>2026-05-12T08:06:25.000Z</time>
      </trkpt>
      <trkpt lat="45.2915" lon="4.62779">
        <ele>443.39999389648</ele>
        <time>2026-05-12T08:06:26.000Z</time>
      </trkpt>
      <trkpt lat="45.29152" lon="4.62775">
        <ele>443.39999389648</ele>
        <time>2026-05-12T08:06:27.000Z</time>
      </trkpt>
      <trkpt lat="45.29154" lon="4.62771">
        <ele>443.39999389648</ele>
        <time>2026-05-12T08:06:28.000Z</time>
      </trkpt>
      <trkpt lat="45.29156" lon="4.62767">
        <ele>443.39999389648</ele>
        <time>2026-05-12T08:06:29.000Z</time>
      </trkpt>
      <trkpt lat="45.29158" lon="4.62763">
        <ele>443.39999389648</ele>
        <time>2026-05-12T08:06:30.000Z</time>
      </trkpt>
      <trkpt lat="45.2916" lon="4.62759">
        <ele>443.39999389648</ele>
        <time>2026-05-12T08:06:31.000Z</time>
      </trkpt>
      <trkpt lat="45.29162" lon="4.62755">
        <ele>443.60000610352</ele>
        <time>2026-05-12T08:06:32.000Z</time>
      </trkpt>
      <trkpt lat="45.29165" lon="4.62751">
        <ele>443.60000610352</ele>
        <time>2026-05-12T08:06:33.000Z</time>
      </trkpt>
      <trkpt lat="45.29167" lon="4.62747">
        <ele>443.60000610352</ele>
        <time>2026-05-12T08:06:34.000Z</time>
      </trkpt>
      <trkpt lat="45.29169" lon="4.62743">
        <ele>443.60000610352</ele>
        <time>2026-05-12T08:06:35.000Z</time>
      </trkpt>
      <trkpt lat="45.29171" lon="4.62739">
        <ele>443.60000610352</ele>
        <time>2026-05-12T08:06:36.000Z</time>
      </trkpt>
      <trkpt lat="45.29173" lon="4.62735">
        <ele>443.79998779297</ele>
        <time>2026-05-12T08:06:37.000Z</time>
      </trkpt>
      <trkpt lat="45.29175" lon="4.62731">
        <ele>443.79998779297</ele>
        <time>2026-05-12T08:06:38.000Z</time>
      </trkpt>
      <trkpt lat="45.29177" lon="4.62727">
        <ele>443.79998779297</ele>
        <time>2026-05-12T08:06:39.000Z</time>
      </trkpt>
      <trkpt lat="45.29179" lon="4.62722">
        <ele>443.79998779297</ele>
        <time>2026-05-12T08:06:40.000Z</time>
      </trkpt>
      <trkpt lat="45.29181" lon="4.62718">
        <ele>443.79998779297</ele>
        <time>2026-05-12T08:06:41.000Z</time>
      </trkpt>
      <trkpt lat="45.29183" lon="4.62714">
        <ele>444</ele>
        <time>2026-05-12T08:06:42.000Z</time>
      </trkpt>
      <trkpt lat="45.29185" lon="4.62709">
        <ele>444</ele>
        <time>2026-05-12T08:06:43.000Z</time>
      </trkpt>
      <trkpt lat="45.29187" lon="4.62705">
        <ele>444</ele>
        <time>2026-05-12T08:06:44.000Z</time>
      </trkpt>
      <trkpt lat="45.29188" lon="4.62701">
        <ele>444.20001220703</ele>
        <time>2026-05-12T08:06:45.000Z</time>
      </trkpt>
      <trkpt lat="45.2919" lon="4.62696">
        <ele>444.20001220703</ele>
        <time>2026-05-12T08:06:46.000Z</time>
      </trkpt>
      <trkpt lat="45.29192" lon="4.62691">
        <ele>444.20001220703</ele>
        <time>2026-05-12T08:06:47.000Z</time>
      </trkpt>
      <trkpt lat="45.29193" lon="4.62687">
        <ele>444.39999389648</ele>
        <time>2026-05-12T08:06:48.000Z</time>
      </trkpt>
      <trkpt lat="45.29195" lon="4.62683">
        <ele>444.39999389648</ele>
        <time>2026-05-12T08:06:49.000Z</time>
      </trkpt>
      <trkpt lat="45.29197" lon="4.62679">
        <ele>444.39999389648</ele>
        <time>2026-05-12T08:06:50.000Z</time>
      </trkpt>
      <trkpt lat="45.29198" lon="4.62674">
        <ele>444.39999389648</ele>
        <time>2026-05-12T08:06:51.000Z</time>
      </trkpt>
      <trkpt lat="45.29199" lon="4.6267">
        <ele>444.60000610352</ele>
        <time>2026-05-12T08:06:52.000Z</time>
      </trkpt>
      <trkpt lat="45.29201" lon="4.62666">
        <ele>444.60000610352</ele>
        <time>2026-05-12T08:06:53.000Z</time>
      </trkpt>
      <trkpt lat="45.29202" lon="4.62662">
        <ele>444.79998779297</ele>
        <time>2026-05-12T08:06:54.000Z</time>
      </trkpt>
      <trkpt lat="45.29203" lon="4.62658">
        <ele>444.79998779297</ele>
        <time>2026-05-12T08:06:55.000Z</time>
      </trkpt>
      <trkpt lat="45.29204" lon="4.62653">
        <ele>445</ele>
        <time>2026-05-12T08:06:56.000Z</time>
      </trkpt>
      <trkpt lat="45.29205" lon="4.62649">
        <ele>445.20001220703</ele>
        <time>2026-05-12T08:06:57.000Z</time>
      </trkpt>
      <trkpt lat="45.29206" lon="4.62644">
        <ele>445.20001220703</ele>
        <time>2026-05-12T08:06:58.000Z</time>
      </trkpt>
      <trkpt lat="45.29208" lon="4.62639">
        <ele>445.39999389648</ele>
        <time>2026-05-12T08:06:59.000Z</time>
      </trkpt>
      <trkpt lat="45.29209" lon="4.62635">
        <ele>445.60000610352</ele>
        <time>2026-05-12T08:07:00.000Z</time>
      </trkpt>
      <trkpt lat="45.2921" lon="4.62632">
        <ele>445.60000610352</ele>
        <time>2026-05-12T08:07:01.000Z</time>
      </trkpt>
      <trkpt lat="45.29211" lon="4.62628">
        <ele>445.79998779297</ele>
        <time>2026-05-12T08:07:02.000Z</time>
      </trkpt>
      <trkpt lat="45.29211" lon="4.62624">
        <ele>445.79998779297</ele>
        <time>2026-05-12T08:07:03.000Z</time>
      </trkpt>
      <trkpt lat="45.29212" lon="4.62621">
        <ele>446</ele>
        <time>2026-05-12T08:07:04.000Z</time>
      </trkpt>
      <trkpt lat="45.29213" lon="4.62618">
        <ele>446</ele>
        <time>2026-05-12T08:07:05.000Z</time>
      </trkpt>
      <trkpt lat="45.29215" lon="4.62614">
        <ele>446.20001220703</ele>
        <time>2026-05-12T08:07:06.000Z</time>
      </trkpt>
      <trkpt lat="45.29216" lon="4.62609">
        <ele>446.20001220703</ele>
        <time>2026-05-12T08:07:07.000Z</time>
      </trkpt>
      <trkpt lat="45.29216" lon="4.62604">
        <ele>446.20001220703</ele>
        <time>2026-05-12T08:07:08.000Z</time>
      </trkpt>
      <trkpt lat="45.29217" lon="4.62599">
        <ele>446.20001220703</ele>
        <time>2026-05-12T08:07:09.000Z</time>
      </trkpt>
      <trkpt lat="45.29218" lon="4.62594">
        <ele>446.39999389648</ele>
        <time>2026-05-12T08:07:10.000Z</time>
      </trkpt>
      <trkpt lat="45.29219" lon="4.6259">
        <ele>446.39999389648</ele>
        <time>2026-05-12T08:07:11.000Z</time>
      </trkpt>
      <trkpt lat="45.2922" lon="4.62586">
        <ele>446.39999389648</ele>
        <time>2026-05-12T08:07:12.000Z</time>
      </trkpt>
      <trkpt lat="45.2922" lon="4.62582">
        <ele>446.39999389648</ele>
        <time>2026-05-12T08:07:13.000Z</time>
      </trkpt>
      <trkpt lat="45.29221" lon="4.62579">
        <ele>446.60000610352</ele>
        <time>2026-05-12T08:07:14.000Z</time>
      </trkpt>
      <trkpt lat="45.29221" lon="4.62575">
        <ele>446.60000610352</ele>
        <time>2026-05-12T08:07:15.000Z</time>
      </trkpt>
      <trkpt lat="45.29222" lon="4.6257">
        <ele>446.60000610352</ele>
        <time>2026-05-12T08:07:16.000Z</time>
      </trkpt>
      <trkpt lat="45.29223" lon="4.62566">
        <ele>446.79998779297</ele>
        <time>2026-05-12T08:07:17.000Z</time>
      </trkpt>
      <trkpt lat="45.29224" lon="4.62561">
        <ele>446.79998779297</ele>
        <time>2026-05-12T08:07:18.000Z</time>
      </trkpt>
      <trkpt lat="45.29224" lon="4.62556">
        <ele>446.79998779297</ele>
        <time>2026-05-12T08:07:19.000Z</time>
      </trkpt>
      <trkpt lat="45.29225" lon="4.62552">
        <ele>447</ele>
        <time>2026-05-12T08:07:20.000Z</time>
      </trkpt>
      <trkpt lat="45.29225" lon="4.62547">
        <ele>447</ele>
        <time>2026-05-12T08:07:21.000Z</time>
      </trkpt>
      <trkpt lat="45.29226" lon="4.62542">
        <ele>447</ele>
        <time>2026-05-12T08:07:22.000Z</time>
      </trkpt>
      <trkpt lat="45.29226" lon="4.62538">
        <ele>447</ele>
        <time>2026-05-12T08:07:23.000Z</time>
      </trkpt>
      <trkpt lat="45.29227" lon="4.62533">
        <ele>447</ele>
        <time>2026-05-12T08:07:24.000Z</time>
      </trkpt>
      <trkpt lat="45.29227" lon="4.62528">
        <ele>447</ele>
        <time>2026-05-12T08:07:25.000Z</time>
      </trkpt>
      <trkpt lat="45.29228" lon="4.62524">
        <ele>447.20001220703</ele>
        <time>2026-05-12T08:07:26.000Z</time>
      </trkpt>
      <trkpt lat="45.29228" lon="4.62519">
        <ele>447.20001220703</ele>
        <time>2026-05-12T08:07:27.000Z</time>
      </trkpt>
      <trkpt lat="45.29229" lon="4.62514">
        <ele>447.39999389648</ele>
        <time>2026-05-12T08:07:28.000Z</time>
      </trkpt>
      <trkpt lat="45.2923" lon="4.62509">
        <ele>447.39999389648</ele>
        <time>2026-05-12T08:07:29.000Z</time>
      </trkpt>
      <trkpt lat="45.2923" lon="4.62504">
        <ele>447.39999389648</ele>
        <time>2026-05-12T08:07:30.000Z</time>
      </trkpt>
      <trkpt lat="45.29231" lon="4.625">
        <ele>447.60000610352</ele>
        <time>2026-05-12T08:07:31.000Z</time>
      </trkpt>
      <trkpt lat="45.29231" lon="4.62495">
        <ele>447.60000610352</ele>
        <time>2026-05-12T08:07:32.000Z</time>
      </trkpt>
      <trkpt lat="45.29232" lon="4.6249">
        <ele>447.60000610352</ele>
        <time>2026-05-12T08:07:33.000Z</time>
      </trkpt>
      <trkpt lat="45.29232" lon="4.62485">
        <ele>447.60000610352</ele>
        <time>2026-05-12T08:07:34.000Z</time>
      </trkpt>
      <trkpt lat="45.29232" lon="4.6248">
        <ele>447.79998779297</ele>
        <time>2026-05-12T08:07:35.000Z</time>
      </trkpt>
      <trkpt lat="45.29232" lon="4.62475">
        <ele>447.79998779297</ele>
        <time>2026-05-12T08:07:36.000Z</time>
      </trkpt>
      <trkpt lat="45.29233" lon="4.6247">
        <ele>447.79998779297</ele>
        <time>2026-05-12T08:07:37.000Z</time>
      </trkpt>
      <trkpt lat="45.29233" lon="4.62464">
        <ele>448</ele>
        <time>2026-05-12T08:07:38.000Z</time>
      </trkpt>
      <trkpt lat="45.29233" lon="4.62459">
        <ele>448</ele>
        <time>2026-05-12T08:07:39.000Z</time>
      </trkpt>
      <trkpt lat="45.29233" lon="4.62454">
        <ele>448</ele>
        <time>2026-05-12T08:07:40.000Z</time>
      </trkpt>
      <trkpt lat="45.29233" lon="4.62449">
        <ele>448.20001220703</ele>
        <time>2026-05-12T08:07:41.000Z</time>
      </trkpt>
      <trkpt lat="45.29233" lon="4.62444">
        <ele>448.20001220703</ele>
        <time>2026-05-12T08:07:42.000Z</time>
      </trkpt>
      <trkpt lat="45.29233" lon="4.62439">
        <ele>448.20001220703</ele>
        <time>2026-05-12T08:07:43.000Z</time>
      </trkpt>
      <trkpt lat="45.29233" lon="4.62434">
        <ele>448.20001220703</ele>
        <time>2026-05-12T08:07:44.000Z</time>
      </trkpt>
      <trkpt lat="45.29233" lon="4.62429">
        <ele>448.39999389648</ele>
        <time>2026-05-12T08:07:45.000Z</time>
      </trkpt>
      <trkpt lat="45.29233" lon="4.62424">
        <ele>448.39999389648</ele>
        <time>2026-05-12T08:07:46.000Z</time>
      </trkpt>
      <trkpt lat="45.29233" lon="4.62419">
        <ele>448.39999389648</ele>
        <time>2026-05-12T08:07:47.000Z</time>
      </trkpt>
      <trkpt lat="45.29233" lon="4.62414">
        <ele>448.39999389648</ele>
        <time>2026-05-12T08:07:48.000Z</time>
      </trkpt>
      <trkpt lat="45.29232" lon="4.62409">
        <ele>448.60000610352</ele>
        <time>2026-05-12T08:07:49.000Z</time>
      </trkpt>
      <trkpt lat="45.29232" lon="4.62404">
        <ele>448.60000610352</ele>
        <time>2026-05-12T08:07:50.000Z</time>
      </trkpt>
      <trkpt lat="45.29232" lon="4.62399">
        <ele>448.60000610352</ele>
        <time>2026-05-12T08:07:51.000Z</time>
      </trkpt>
      <trkpt lat="45.29232" lon="4.62393">
        <ele>448.60000610352</ele>
        <time>2026-05-12T08:07:52.000Z</time>
      </trkpt>
      <trkpt lat="45.29232" lon="4.62388">
        <ele>448.60000610352</ele>
        <time>2026-05-12T08:07:53.000Z</time>
      </trkpt>
      <trkpt lat="45.29232" lon="4.62382">
        <ele>448.60000610352</ele>
        <time>2026-05-12T08:07:54.000Z</time>
      </trkpt>
      <trkpt lat="45.29232" lon="4.62377">
        <ele>448.79998779297</ele>
        <time>2026-05-12T08:07:55.000Z</time>
      </trkpt>
      <trkpt lat="45.29232" lon="4.62372">
        <ele>448.79998779297</ele>
        <time>2026-05-12T08:07:56.000Z</time>
      </trkpt>
      <trkpt lat="45.29232" lon="4.62366">
        <ele>448.79998779297</ele>
        <time>2026-05-12T08:07:57.000Z</time>
      </trkpt>
      <trkpt lat="45.29232" lon="4.6236">
        <ele>448.79998779297</ele>
        <time>2026-05-12T08:07:58.000Z</time>
      </trkpt>
      <trkpt lat="45.29232" lon="4.62354">
        <ele>448.79998779297</ele>
        <time>2026-05-12T08:07:59.000Z</time>
      </trkpt>
      <trkpt lat="45.29232" lon="4.62349">
        <ele>448.79998779297</ele>
        <time>2026-05-12T08:08:00.000Z</time>
      </trkpt>
      <trkpt lat="45.29232" lon="4.62344">
        <ele>448.79998779297</ele>
        <time>2026-05-12T08:08:01.000Z</time>
      </trkpt>
      <trkpt lat="45.29232" lon="4.62339">
        <ele>448.79998779297</ele>
        <time>2026-05-12T08:08:02.000Z</time>
      </trkpt>
      <trkpt lat="45.29233" lon="4.62334">
        <ele>448.79998779297</ele>
        <time>2026-05-12T08:08:03.000Z</time>
      </trkpt>
      <trkpt lat="45.29233" lon="4.62329">
        <ele>448.79998779297</ele>
        <time>2026-05-12T08:08:04.000Z</time>
      </trkpt>
      <trkpt lat="45.29234" lon="4.62323">
        <ele>449</ele>
        <time>2026-05-12T08:08:05.000Z</time>
      </trkpt>
      <trkpt lat="45.29234" lon="4.62318">
        <ele>449</ele>
        <time>2026-05-12T08:08:06.000Z</time>
      </trkpt>
      <trkpt lat="45.29235" lon="4.62313">
        <ele>449</ele>
        <time>2026-05-12T08:08:07.000Z</time>
      </trkpt>
      <trkpt lat="45.29234" lon="4.62309">
        <ele>449.20001220703</ele>
        <time>2026-05-12T08:08:08.000Z</time>
      </trkpt>
      <trkpt lat="45.29234" lon="4.62305">
        <ele>449.39999389648</ele>
        <time>2026-05-12T08:08:09.000Z</time>
      </trkpt>
      <trkpt lat="45.29234" lon="4.62302">
        <ele>449.39999389648</ele>
        <time>2026-05-12T08:08:10.000Z</time>
      </trkpt>
      <trkpt lat="45.29233" lon="4.62299">
        <ele>449.60000610352</ele>
        <time>2026-05-12T08:08:11.000Z</time>
      </trkpt>
      <trkpt lat="45.29234" lon="4.62296">
        <ele>449.79998779297</ele>
        <time>2026-05-12T08:08:12.000Z</time>
      </trkpt>
      <trkpt lat="45.29233" lon="4.62294">
        <ele>449.79998779297</ele>
        <time>2026-05-12T08:08:13.000Z</time>
      </trkpt>
      <trkpt lat="45.29233" lon="4.62293">
        <ele>450</ele>
        <time>2026-05-12T08:08:14.000Z</time>
      </trkpt>
      <trkpt lat="45.29233" lon="4.62292">
        <ele>450</ele>
        <time>2026-05-12T08:08:15.000Z</time>
      </trkpt>
      <trkpt lat="45.29233" lon="4.62292">
        <ele>450</ele>
        <time>2026-05-12T08:08:16.000Z</time>
      </trkpt>
      <trkpt lat="45.29224" lon="4.62292">
        <ele>449.60000610352</ele>
        <time>2026-05-12T08:08:42.000Z</time>
      </trkpt>
      <trkpt lat="45.29221" lon="4.62292">
        <ele>449.39999389648</ele>
        <time>2026-05-12T08:08:43.000Z</time>
      </trkpt>
      <trkpt lat="45.29218" lon="4.62292">
        <ele>449</ele>
        <time>2026-05-12T08:08:44.000Z</time>
      </trkpt>
      <trkpt lat="45.29216" lon="4.62291">
        <ele>448.79998779297</ele>
        <time>2026-05-12T08:08:45.000Z</time>
      </trkpt>
      <trkpt lat="45.29215" lon="4.62292">
        <ele>448.79998779297</ele>
        <time>2026-05-12T08:08:46.000Z</time>
      </trkpt>
      <trkpt lat="45.29214" lon="4.62292">
        <ele>448.79998779297</ele>
        <time>2026-05-12T08:08:47.000Z</time>
      </trkpt>
      <trkpt lat="45.29214" lon="4.62292">
        <ele>448.79998779297</ele>
        <time>2026-05-12T08:08:48.000Z</time>
      </trkpt>
      <trkpt lat="45.29222" lon="4.62293">
        <ele>448.79998779297</ele>
        <time>2026-05-12T08:08:58.000Z</time>
      </trkpt>
      <trkpt lat="45.29225" lon="4.62293">
        <ele>448.79998779297</ele>
        <time>2026-05-12T08:08:59.000Z</time>
      </trkpt>
      <trkpt lat="45.29227" lon="4.62294">
        <ele>448.79998779297</ele>
        <time>2026-05-12T08:09:00.000Z</time>
      </trkpt>
      <trkpt lat="45.29228" lon="4.62294">
        <ele>448.79998779297</ele>
        <time>2026-05-12T08:09:01.000Z</time>
      </trkpt>
      <trkpt lat="45.29229" lon="4.62296">
        <ele>449</ele>
        <time>2026-05-12T08:09:02.000Z</time>
      </trkpt>
      <trkpt lat="45.29229" lon="4.62297">
        <ele>449.20001220703</ele>
        <time>2026-05-12T08:09:03.000Z</time>
      </trkpt>
      <trkpt lat="45.29229" lon="4.62299">
        <ele>449.39999389648</ele>
        <time>2026-05-12T08:09:04.000Z</time>
      </trkpt>
      <trkpt lat="45.29229" lon="4.623">
        <ele>449.60000610352</ele>
        <time>2026-05-12T08:09:05.000Z</time>
      </trkpt>
      <trkpt lat="45.29228" lon="4.62301">
        <ele>449.60000610352</ele>
        <time>2026-05-12T08:09:06.000Z</time>
      </trkpt>
      <trkpt lat="45.29228" lon="4.62301">
        <ele>449.60000610352</ele>
        <time>2026-05-12T08:09:07.000Z</time>
      </trkpt>
      <trkpt lat="45.29224" lon="4.62295">
        <ele>450.60000610352</ele>
        <time>2026-05-12T08:09:41.000Z</time>
      </trkpt>
      <trkpt lat="45.29221" lon="4.62294">
        <ele>450.39999389648</ele>
        <time>2026-05-12T08:09:42.000Z</time>
      </trkpt>
      <trkpt lat="45.29218" lon="4.62294">
        <ele>450.20001220703</ele>
        <time>2026-05-12T08:09:43.000Z</time>
      </trkpt>
      <trkpt lat="45.29215" lon="4.62293">
        <ele>449.79998779297</ele>
        <time>2026-05-12T08:09:44.000Z</time>
      </trkpt>
      <trkpt lat="45.29213" lon="4.62291">
        <ele>449.60000610352</ele>
        <time>2026-05-12T08:09:45.000Z</time>
      </trkpt>
      <trkpt lat="45.29211" lon="4.62289">
        <ele>449.39999389648</ele>
        <time>2026-05-12T08:09:46.000Z</time>
      </trkpt>
      <trkpt lat="45.29209" lon="4.62287">
        <ele>449.39999389648</ele>
        <time>2026-05-12T08:09:47.000Z</time>
      </trkpt>
      <trkpt lat="45.29208" lon="4.62287">
        <ele>449.39999389648</ele>
        <time>2026-05-12T08:09:48.000Z</time>
      </trkpt>
      <trkpt lat="45.29207" lon="4.62287">
        <ele>449.39999389648</ele>
        <time>2026-05-12T08:09:49.000Z</time>
      </trkpt>
      <trkpt lat="45.29205" lon="4.62288">
        <ele>449.39999389648</ele>
        <time>2026-05-12T08:09:50.000Z</time>
      </trkpt>
      <trkpt lat="45.29204" lon="4.62289">
        <ele>449.39999389648</ele>
        <time>2026-05-12T08:09:51.000Z</time>
      </trkpt>
      <trkpt lat="45.29203" lon="4.62292">
        <ele>449.39999389648</ele>
        <time>2026-05-12T08:09:52.000Z</time>
      </trkpt>
      <trkpt lat="45.29203" lon="4.62294">
        <ele>449.39999389648</ele>
        <time>2026-05-12T08:09:53.000Z</time>
      </trkpt>
      <trkpt lat="45.29202" lon="4.62296">
        <ele>449.20001220703</ele>
        <time>2026-05-12T08:09:54.000Z</time>
      </trkpt>
      <trkpt lat="45.29202" lon="4.62297">
        <ele>449.20001220703</ele>
        <time>2026-05-12T08:09:55.000Z</time>
      </trkpt>
      <trkpt lat="45.29202" lon="4.62298">
        <ele>449.20001220703</ele>
        <time>2026-05-12T08:09:56.000Z</time>
      </trkpt>
      <trkpt lat="45.29202" lon="4.62298">
        <ele>449.20001220703</ele>
        <time>2026-05-12T08:09:57.000Z</time>
      </trkpt>
      <trkpt lat="45.29202" lon="4.62305">
        <ele>449.39999389648</ele>
        <time>2026-05-12T08:10:26.000Z</time>
      </trkpt>
      <trkpt lat="45.29202" lon="4.62308">
        <ele>449.20001220703</ele>
        <time>2026-05-12T08:10:27.000Z</time>
      </trkpt>
      <trkpt lat="45.29201" lon="4.62312">
        <ele>449</ele>
        <time>2026-05-12T08:10:28.000Z</time>
      </trkpt>
      <trkpt lat="45.29201" lon="4.62316">
        <ele>449</ele>
        <time>2026-05-12T08:10:29.000Z</time>
      </trkpt>
      <trkpt lat="45.292" lon="4.62321">
        <ele>448.79998779297</ele>
        <time>2026-05-12T08:10:30.000Z</time>
      </trkpt>
      <trkpt lat="45.29199" lon="4.62325">
        <ele>448.60000610352</ele>
        <time>2026-05-12T08:10:31.000Z</time>
      </trkpt>
      <trkpt lat="45.29198" lon="4.6233">
        <ele>448.60000610352</ele>
        <time>2026-05-12T08:10:32.000Z</time>
      </trkpt>
      <trkpt lat="45.29198" lon="4.62334">
        <ele>448.39999389648</ele>
        <time>2026-05-12T08:10:33.000Z</time>
      </trkpt>
      <trkpt lat="45.29197" lon="4.62338">
        <ele>448.39999389648</ele>
        <time>2026-05-12T08:10:34.000Z</time>
      </trkpt>
      <trkpt lat="45.29196" lon="4.62342">
        <ele>448.39999389648</ele>
        <time>2026-05-12T08:10:35.000Z</time>
      </trkpt>
      <trkpt lat="45.29196" lon="4.62346">
        <ele>448.39999389648</ele>
        <time>2026-05-12T08:10:36.000Z</time>
      </trkpt>
      <trkpt lat="45.29195" lon="4.6235">
        <ele>448.39999389648</ele>
        <time>2026-05-12T08:10:37.000Z</time>
      </trkpt>
      <trkpt lat="45.29194" lon="4.62354">
        <ele>448.39999389648</ele>
        <time>2026-05-12T08:10:38.000Z</time>
      </trkpt>
      <trkpt lat="45.29194" lon="4.62359">
        <ele>448.39999389648</ele>
        <time>2026-05-12T08:10:39.000Z</time>
      </trkpt>
      <trkpt lat="45.29194" lon="4.62363">
        <ele>448.20001220703</ele>
        <time>2026-05-12T08:10:40.000Z</time>
      </trkpt>
      <trkpt lat="45.29194" lon="4.62367">
        <ele>448.20001220703</ele>
        <time>2026-05-12T08:10:41.000Z</time>
      </trkpt>
      <trkpt lat="45.29194" lon="4.62372">
        <ele>448</ele>
        <time>2026-05-12T08:10:42.000Z</time>
      </trkpt>
      <trkpt lat="45.29193" lon="4.62378">
        <ele>448</ele>
        <time>2026-05-12T08:10:43.000Z</time>
      </trkpt>
      <trkpt lat="45.29192" lon="4.62383">
        <ele>447.79998779297</ele>
        <time>2026-05-12T08:10:44.000Z</time>
      </trkpt>
      <trkpt lat="45.29191" lon="4.62389">
        <ele>447.79998779297</ele>
        <time>2026-05-12T08:10:45.000Z</time>
      </trkpt>
      <trkpt lat="45.2919" lon="4.62394">
        <ele>447.79998779297</ele>
        <time>2026-05-12T08:10:46.000Z</time>
      </trkpt>
      <trkpt lat="45.2919" lon="4.62399">
        <ele>447.60000610352</ele>
        <time>2026-05-12T08:10:47.000Z</time>
      </trkpt>
      <trkpt lat="45.29189" lon="4.62405">
        <ele>447.60000610352</ele>
        <time>2026-05-12T08:10:48.000Z</time>
      </trkpt>
      <trkpt lat="45.29188" lon="4.6241">
        <ele>447.60000610352</ele>
        <time>2026-05-12T08:10:49.000Z</time>
      </trkpt>
      <trkpt lat="45.29187" lon="4.62416">
        <ele>447.60000610352</ele>
        <time>2026-05-12T08:10:50.000Z</time>
      </trkpt>
      <trkpt lat="45.29185" lon="4.62421">
        <ele>447.60000610352</ele>
        <time>2026-05-12T08:10:51.000Z</time>
      </trkpt>
      <trkpt lat="45.29184" lon="4.62427">
        <ele>447.39999389648</ele>
        <time>2026-05-12T08:10:52.000Z</time>
      </trkpt>
      <trkpt lat="45.29184" lon="4.62432">
        <ele>447.39999389648</ele>
        <time>2026-05-12T08:10:53.000Z</time>
      </trkpt>
      <trkpt lat="45.29184" lon="4.62438">
        <ele>447.39999389648</ele>
        <time>2026-05-12T08:10:54.000Z</time>
      </trkpt>
      <trkpt lat="45.29183" lon="4.62444">
        <ele>447.39999389648</ele>
        <time>2026-05-12T08:10:55.000Z</time>
      </trkpt>
      <trkpt lat="45.29183" lon="4.62449">
        <ele>447.39999389648</ele>
        <time>2026-05-12T08:10:56.000Z</time>
      </trkpt>
      <trkpt lat="45.29182" lon="4.62454">
        <ele>447.39999389648</ele>
        <time>2026-05-12T08:10:57.000Z</time>
      </trkpt>
      <trkpt lat="45.29182" lon="4.62459">
        <ele>447.39999389648</ele>
        <time>2026-05-12T08:10:58.000Z</time>
      </trkpt>
      <trkpt lat="45.29181" lon="4.62464">
        <ele>447.39999389648</ele>
        <time>2026-05-12T08:10:59.000Z</time>
      </trkpt>
      <trkpt lat="45.2918" lon="4.62469">
        <ele>447.39999389648</ele>
        <time>2026-05-12T08:11:00.000Z</time>
      </trkpt>
      <trkpt lat="45.29179" lon="4.62473">
        <ele>447.39999389648</ele>
        <time>2026-05-12T08:11:01.000Z</time>
      </trkpt>
      <trkpt lat="45.29178" lon="4.62478">
        <ele>447.39999389648</ele>
        <time>2026-05-12T08:11:02.000Z</time>
      </trkpt>
      <trkpt lat="45.29177" lon="4.62483">
        <ele>447.39999389648</ele>
        <time>2026-05-12T08:11:03.000Z</time>
      </trkpt>
      <trkpt lat="45.29176" lon="4.62488">
        <ele>447.39999389648</ele>
        <time>2026-05-12T08:11:04.000Z</time>
      </trkpt>
      <trkpt lat="45.29176" lon="4.62493">
        <ele>447.20001220703</ele>
        <time>2026-05-12T08:11:05.000Z</time>
      </trkpt>
      <trkpt lat="45.29176" lon="4.62498">
        <ele>447.20001220703</ele>
        <time>2026-05-12T08:11:06.000Z</time>
      </trkpt>
      <trkpt lat="45.29175" lon="4.62503">
        <ele>447.20001220703</ele>
        <time>2026-05-12T08:11:07.000Z</time>
      </trkpt>
      <trkpt lat="45.29175" lon="4.62508">
        <ele>447</ele>
        <time>2026-05-12T08:11:08.000Z</time>
      </trkpt>
      <trkpt lat="45.29174" lon="4.62513">
        <ele>447</ele>
        <time>2026-05-12T08:11:09.000Z</time>
      </trkpt>
      <trkpt lat="45.29173" lon="4.62518">
        <ele>446.79998779297</ele>
        <time>2026-05-12T08:11:10.000Z</time>
      </trkpt>
      <trkpt lat="45.29172" lon="4.62523">
        <ele>446.79998779297</ele>
        <time>2026-05-12T08:11:11.000Z</time>
      </trkpt>
      <trkpt lat="45.29171" lon="4.62527">
        <ele>446.79998779297</ele>
        <time>2026-05-12T08:11:12.000Z</time>
      </trkpt>
      <trkpt lat="45.29171" lon="4.6253">
        <ele>446.79998779297</ele>
        <time>2026-05-12T08:11:13.000Z</time>
      </trkpt>
      <trkpt lat="45.29171" lon="4.62534">
        <ele>446.60000610352</ele>
        <time>2026-05-12T08:11:14.000Z</time>
      </trkpt>
      <trkpt lat="45.29171" lon="4.62539">
        <ele>446.60000610352</ele>
        <time>2026-05-12T08:11:15.000Z</time>
      </trkpt>
      <trkpt lat="45.29171" lon="4.62544">
        <ele>446.60000610352</ele>
        <time>2026-05-12T08:11:16.000Z</time>
      </trkpt>
      <trkpt lat="45.29171" lon="4.62549">
        <ele>446.60000610352</ele>
        <time>2026-05-12T08:11:17.000Z</time>
      </trkpt>
      <trkpt lat="45.29171" lon="4.62554">
        <ele>446.60000610352</ele>
        <time>2026-05-12T08:11:18.000Z</time>
      </trkpt>
      <trkpt lat="45.29171" lon="4.62558">
        <ele>446.60000610352</ele>
        <time>2026-05-12T08:11:19.000Z</time>
      </trkpt>
      <trkpt lat="45.2917" lon="4.62563">
        <ele>446.60000610352</ele>
        <time>2026-05-12T08:11:20.000Z</time>
      </trkpt>
      <trkpt lat="45.29169" lon="4.62567">
        <ele>446.39999389648</ele>
        <time>2026-05-12T08:11:21.000Z</time>
      </trkpt>
      <trkpt lat="45.29168" lon="4.62571">
        <ele>446.39999389648</ele>
        <time>2026-05-12T08:11:22.000Z</time>
      </trkpt>
      <trkpt lat="45.29166" lon="4.62576">
        <ele>446.20001220703</ele>
        <time>2026-05-12T08:11:23.000Z</time>
      </trkpt>
      <trkpt lat="45.29165" lon="4.62581">
        <ele>446.20001220703</ele>
        <time>2026-05-12T08:11:24.000Z</time>
      </trkpt>
      <trkpt lat="45.29164" lon="4.62587">
        <ele>446.20001220703</ele>
        <time>2026-05-12T08:11:25.000Z</time>
      </trkpt>
      <trkpt lat="45.29163" lon="4.62594">
        <ele>446</ele>
        <time>2026-05-12T08:11:26.000Z</time>
      </trkpt>
      <trkpt lat="45.29162" lon="4.62601">
        <ele>446</ele>
        <time>2026-05-12T08:11:27.000Z</time>
      </trkpt>
      <trkpt lat="45.29161" lon="4.62607">
        <ele>446</ele>
        <time>2026-05-12T08:11:28.000Z</time>
      </trkpt>
      <trkpt lat="45.29158" lon="4.62613">
        <ele>445.79998779297</ele>
        <time>2026-05-12T08:11:29.000Z</time>
      </trkpt>
      <trkpt lat="45.29157" lon="4.62618">
        <ele>445.79998779297</ele>
        <time>2026-05-12T08:11:30.000Z</time>
      </trkpt>
      <trkpt lat="45.29156" lon="4.62624">
        <ele>445.79998779297</ele>
        <time>2026-05-12T08:11:31.000Z</time>
      </trkpt>
      <trkpt lat="45.29155" lon="4.62629">
        <ele>445.79998779297</ele>
        <time>2026-05-12T08:11:32.000Z</time>
      </trkpt>
      <trkpt lat="45.29154" lon="4.62635">
        <ele>445.79998779297</ele>
        <time>2026-05-12T08:11:33.000Z</time>
      </trkpt>
      <trkpt lat="45.29152" lon="4.62641">
        <ele>445.79998779297</ele>
        <time>2026-05-12T08:11:34.000Z</time>
      </trkpt>
      <trkpt lat="45.29151" lon="4.62647">
        <ele>445.60000610352</ele>
        <time>2026-05-12T08:11:35.000Z</time>
      </trkpt>
      <trkpt lat="45.29148" lon="4.62653">
        <ele>445.60000610352</ele>
        <time>2026-05-12T08:11:36.000Z</time>
      </trkpt>
      <trkpt lat="45.29147" lon="4.62659">
        <ele>445.60000610352</ele>
        <time>2026-05-12T08:11:37.000Z</time>
      </trkpt>
      <trkpt lat="45.29146" lon="4.62664">
        <ele>445.60000610352</ele>
        <time>2026-05-12T08:11:38.000Z</time>
      </trkpt>
      <trkpt lat="45.29145" lon="4.62669">
        <ele>445.60000610352</ele>
        <time>2026-05-12T08:11:39.000Z</time>
      </trkpt>
      <trkpt lat="45.29145" lon="4.62674">
        <ele>445.60000610352</ele>
        <time>2026-05-12T08:11:40.000Z</time>
      </trkpt>
      <trkpt lat="45.29144" lon="4.6268">
        <ele>445.60000610352</ele>
        <time>2026-05-12T08:11:41.000Z</time>
      </trkpt>
      <trkpt lat="45.29143" lon="4.62687">
        <ele>445.60000610352</ele>
        <time>2026-05-12T08:11:42.000Z</time>
      </trkpt>
      <trkpt lat="45.2914" lon="4.62693">
        <ele>445.39999389648</ele>
        <time>2026-05-12T08:11:43.000Z</time>
      </trkpt>
      <trkpt lat="45.29137" lon="4.627">
        <ele>445.39999389648</ele>
        <time>2026-05-12T08:11:44.000Z</time>
      </trkpt>
      <trkpt lat="45.29135" lon="4.62705">
        <ele>445.39999389648</ele>
        <time>2026-05-12T08:11:45.000Z</time>
      </trkpt>
      <trkpt lat="45.29133" lon="4.62709">
        <ele>445.39999389648</ele>
        <time>2026-05-12T08:11:46.000Z</time>
      </trkpt>
      <trkpt lat="45.2913" lon="4.62714">
        <ele>445.39999389648</ele>
        <time>2026-05-12T08:11:47.000Z</time>
      </trkpt>
      <trkpt lat="45.29128" lon="4.62719">
        <ele>445.20001220703</ele>
        <time>2026-05-12T08:11:48.000Z</time>
      </trkpt>
      <trkpt lat="45.29126" lon="4.62724">
        <ele>445.20001220703</ele>
        <time>2026-05-12T08:11:49.000Z</time>
      </trkpt>
      <trkpt lat="45.29124" lon="4.62728">
        <ele>445.20001220703</ele>
        <time>2026-05-12T08:11:50.000Z</time>
      </trkpt>
      <trkpt lat="45.29123" lon="4.62733">
        <ele>445.20001220703</ele>
        <time>2026-05-12T08:11:51.000Z</time>
      </trkpt>
      <trkpt lat="45.29121" lon="4.62737">
        <ele>445.20001220703</ele>
        <time>2026-05-12T08:11:52.000Z</time>
      </trkpt>
      <trkpt lat="45.2912" lon="4.62741">
        <ele>445.20001220703</ele>
        <time>2026-05-12T08:11:53.000Z</time>
      </trkpt>
      <trkpt lat="45.29118" lon="4.62746">
        <ele>445.20001220703</ele>
        <time>2026-05-12T08:11:54.000Z</time>
      </trkpt>
      <trkpt lat="45.29116" lon="4.6275">
        <ele>445.20001220703</ele>
        <time>2026-05-12T08:11:55.000Z</time>
      </trkpt>
      <trkpt lat="45.29115" lon="4.62755">
        <ele>445.20001220703</ele>
        <time>2026-05-12T08:11:56.000Z</time>
      </trkpt>
      <trkpt lat="45.29113" lon="4.6276">
        <ele>445.20001220703</ele>
        <time>2026-05-12T08:11:57.000Z</time>
      </trkpt>
      <trkpt lat="45.29112" lon="4.62765">
        <ele>445</ele>
        <time>2026-05-12T08:11:58.000Z</time>
      </trkpt>
      <trkpt lat="45.2911" lon="4.6277">
        <ele>444.79998779297</ele>
        <time>2026-05-12T08:11:59.000Z</time>
      </trkpt>
      <trkpt lat="45.29108" lon="4.62773">
        <ele>444.79998779297</ele>
        <time>2026-05-12T08:12:00.000Z</time>
      </trkpt>
      <trkpt lat="45.29107" lon="4.62777">
        <ele>444.60000610352</ele>
        <time>2026-05-12T08:12:01.000Z</time>
      </trkpt>
      <trkpt lat="45.29105" lon="4.62781">
        <ele>444.39999389648</ele>
        <time>2026-05-12T08:12:02.000Z</time>
      </trkpt>
      <trkpt lat="45.29104" lon="4.62785">
        <ele>444.39999389648</ele>
        <time>2026-05-12T08:12:03.000Z</time>
      </trkpt>
      <trkpt lat="45.29103" lon="4.62788">
        <ele>444.20001220703</ele>
        <time>2026-05-12T08:12:04.000Z</time>
      </trkpt>
      <trkpt lat="45.29101" lon="4.62792">
        <ele>444.20001220703</ele>
        <time>2026-05-12T08:12:05.000Z</time>
      </trkpt>
      <trkpt lat="45.29099" lon="4.62795">
        <ele>444.20001220703</ele>
        <time>2026-05-12T08:12:06.000Z</time>
      </trkpt>
      <trkpt lat="45.29097" lon="4.62799">
        <ele>444</ele>
        <time>2026-05-12T08:12:07.000Z</time>
      </trkpt>
      <trkpt lat="45.29095" lon="4.62804">
        <ele>444</ele>
        <time>2026-05-12T08:12:08.000Z</time>
      </trkpt>
      <trkpt lat="45.29092" lon="4.62808">
        <ele>444</ele>
        <time>2026-05-12T08:12:09.000Z</time>
      </trkpt>
      <trkpt lat="45.2909" lon="4.62812">
        <ele>444</ele>
        <time>2026-05-12T08:12:10.000Z</time>
      </trkpt>
      <trkpt lat="45.29087" lon="4.62815">
        <ele>444</ele>
        <time>2026-05-12T08:12:11.000Z</time>
      </trkpt>
      <trkpt lat="45.29085" lon="4.62819">
        <ele>444</ele>
        <time>2026-05-12T08:12:12.000Z</time>
      </trkpt>
      <trkpt lat="45.29082" lon="4.62823">
        <ele>444</ele>
        <time>2026-05-12T08:12:13.000Z</time>
      </trkpt>
      <trkpt lat="45.29079" lon="4.62827">
        <ele>444</ele>
        <time>2026-05-12T08:12:14.000Z</time>
      </trkpt>
      <trkpt lat="45.29076" lon="4.62831">
        <ele>443.79998779297</ele>
        <time>2026-05-12T08:12:15.000Z</time>
      </trkpt>
      <trkpt lat="45.29073" lon="4.62836">
        <ele>443.79998779297</ele>
        <time>2026-05-12T08:12:16.000Z</time>
      </trkpt>
      <trkpt lat="45.2907" lon="4.6284">
        <ele>443.79998779297</ele>
        <time>2026-05-12T08:12:17.000Z</time>
      </trkpt>
      <trkpt lat="45.29066" lon="4.62845">
        <ele>443.79998779297</ele>
        <time>2026-05-12T08:12:18.000Z</time>
      </trkpt>
      <trkpt lat="45.29063" lon="4.62849">
        <ele>443.79998779297</ele>
        <time>2026-05-12T08:12:19.000Z</time>
      </trkpt>
      <trkpt lat="45.2906" lon="4.62852">
        <ele>443.60000610352</ele>
        <time>2026-05-12T08:12:20.000Z</time>
      </trkpt>
      <trkpt lat="45.29059" lon="4.62856">
        <ele>443.60000610352</ele>
        <time>2026-05-12T08:12:21.000Z</time>
      </trkpt>
      <trkpt lat="45.29057" lon="4.62858">
        <ele>443.60000610352</ele>
        <time>2026-05-12T08:12:22.000Z</time>
      </trkpt>
      <trkpt lat="45.29054" lon="4.62861">
        <ele>443.60000610352</ele>
        <time>2026-05-12T08:12:23.000Z</time>
      </trkpt>
      <trkpt lat="45.29051" lon="4.62864">
        <ele>443.60000610352</ele>
        <time>2026-05-12T08:12:24.000Z</time>
      </trkpt>
      <trkpt lat="45.29048" lon="4.62867">
        <ele>443.60000610352</ele>
        <time>2026-05-12T08:12:25.000Z</time>
      </trkpt>
      <trkpt lat="45.29044" lon="4.62872">
        <ele>443.39999389648</ele>
        <time>2026-05-12T08:12:26.000Z</time>
      </trkpt>
      <trkpt lat="45.2904" lon="4.62877">
        <ele>443.39999389648</ele>
        <time>2026-05-12T08:12:27.000Z</time>
      </trkpt>
      <trkpt lat="45.29037" lon="4.6288">
        <ele>443.39999389648</ele>
        <time>2026-05-12T08:12:28.000Z</time>
      </trkpt>
      <trkpt lat="45.29034" lon="4.62883">
        <ele>443.39999389648</ele>
        <time>2026-05-12T08:12:29.000Z</time>
      </trkpt>
      <trkpt lat="45.29032" lon="4.62886">
        <ele>443.39999389648</ele>
        <time>2026-05-12T08:12:30.000Z</time>
      </trkpt>
      <trkpt lat="45.29029" lon="4.62889">
        <ele>443.20001220703</ele>
        <time>2026-05-12T08:12:31.000Z</time>
      </trkpt>
      <trkpt lat="45.29026" lon="4.62891">
        <ele>443.20001220703</ele>
        <time>2026-05-12T08:12:32.000Z</time>
      </trkpt>
      <trkpt lat="45.2902" lon="4.62896">
        <ele>443.20001220703</ele>
        <time>2026-05-12T08:12:33.000Z</time>
      </trkpt>
      <trkpt lat="45.29017" lon="4.62899">
        <ele>443.20001220703</ele>
        <time>2026-05-12T08:12:34.000Z</time>
      </trkpt>
      <trkpt lat="45.29015" lon="4.62901">
        <ele>443</ele>
        <time>2026-05-12T08:12:35.000Z</time>
      </trkpt>
      <trkpt lat="45.29013" lon="4.62904">
        <ele>443</ele>
        <time>2026-05-12T08:12:36.000Z</time>
      </trkpt>
      <trkpt lat="45.29009" lon="4.62907">
        <ele>442.79998779297</ele>
        <time>2026-05-12T08:12:37.000Z</time>
      </trkpt>
      <trkpt lat="45.29005" lon="4.62911">
        <ele>442.79998779297</ele>
        <time>2026-05-12T08:12:38.000Z</time>
      </trkpt>
      <trkpt lat="45.29001" lon="4.62913">
        <ele>442.60000610352</ele>
        <time>2026-05-12T08:12:39.000Z</time>
      </trkpt>
      <trkpt lat="45.28995" lon="4.62919">
        <ele>442.39999389648</ele>
        <time>2026-05-12T08:12:40.000Z</time>
      </trkpt>
      <trkpt lat="45.28991" lon="4.62924">
        <ele>442.39999389648</ele>
        <time>2026-05-12T08:12:41.000Z</time>
      </trkpt>
      <trkpt lat="45.28986" lon="4.62928">
        <ele>442.20001220703</ele>
        <time>2026-05-12T08:12:42.000Z</time>
      </trkpt>
      <trkpt lat="45.28984" lon="4.62931">
        <ele>442.20001220703</ele>
        <time>2026-05-12T08:12:43.000Z</time>
      </trkpt>
      <trkpt lat="45.2898" lon="4.62934">
        <ele>442.20001220703</ele>
        <time>2026-05-12T08:12:44.000Z</time>
      </trkpt>
      <trkpt lat="45.28976" lon="4.62938">
        <ele>442</ele>
        <time>2026-05-12T08:12:45.000Z</time>
      </trkpt>
      <trkpt lat="45.28973" lon="4.62942">
        <ele>442</ele>
        <time>2026-05-12T08:12:46.000Z</time>
      </trkpt>
      <trkpt lat="45.28969" lon="4.62945">
        <ele>441.79998779297</ele>
        <time>2026-05-12T08:12:47.000Z</time>
      </trkpt>
      <trkpt lat="45.28964" lon="4.62948">
        <ele>441.79998779297</ele>
        <time>2026-05-12T08:12:48.000Z</time>
      </trkpt>
      <trkpt lat="45.28959" lon="4.6295">
        <ele>441.60000610352</ele>
        <time>2026-05-12T08:12:49.000Z</time>
      </trkpt>
      <trkpt lat="45.28955" lon="4.62952">
        <ele>441.60000610352</ele>
        <time>2026-05-12T08:12:50.000Z</time>
      </trkpt>
      <trkpt lat="45.28952" lon="4.62953">
        <ele>441.60000610352</ele>
        <time>2026-05-12T08:12:51.000Z</time>
      </trkpt>
      <trkpt lat="45.28948" lon="4.62955">
        <ele>441.60000610352</ele>
        <time>2026-05-12T08:12:52.000Z</time>
      </trkpt>
      <trkpt lat="45.28945" lon="4.62957">
        <ele>441.39999389648</ele>
        <time>2026-05-12T08:12:53.000Z</time>
      </trkpt>
      <trkpt lat="45.28942" lon="4.62959">
        <ele>441.39999389648</ele>
        <time>2026-05-12T08:12:54.000Z</time>
      </trkpt>
      <trkpt lat="45.28939" lon="4.62961">
        <ele>441.39999389648</ele>
        <time>2026-05-12T08:12:55.000Z</time>
      </trkpt>
      <trkpt lat="45.28936" lon="4.62963">
        <ele>441.39999389648</ele>
        <time>2026-05-12T08:12:56.000Z</time>
      </trkpt>
      <trkpt lat="45.28934" lon="4.62965">
        <ele>441.39999389648</ele>
        <time>2026-05-12T08:12:57.000Z</time>
      </trkpt>
      <trkpt lat="45.2893" lon="4.62967">
        <ele>441.20001220703</ele>
        <time>2026-05-12T08:12:58.000Z</time>
      </trkpt>
      <trkpt lat="45.28927" lon="4.62968">
        <ele>441.20001220703</ele>
        <time>2026-05-12T08:12:59.000Z</time>
      </trkpt>
      <trkpt lat="45.28924" lon="4.62969">
        <ele>441.20001220703</ele>
        <time>2026-05-12T08:13:00.000Z</time>
      </trkpt>
      <trkpt lat="45.28921" lon="4.6297">
        <ele>441.20001220703</ele>
        <time>2026-05-12T08:13:01.000Z</time>
      </trkpt>
      <trkpt lat="45.28918" lon="4.62972">
        <ele>441.20001220703</ele>
        <time>2026-05-12T08:13:02.000Z</time>
      </trkpt>
      <trkpt lat="45.28914" lon="4.62974">
        <ele>441.20001220703</ele>
        <time>2026-05-12T08:13:03.000Z</time>
      </trkpt>
      <trkpt lat="45.2891" lon="4.62975">
        <ele>441.20001220703</ele>
        <time>2026-05-12T08:13:04.000Z</time>
      </trkpt>
      <trkpt lat="45.28906" lon="4.62977">
        <ele>441</ele>
        <time>2026-05-12T08:13:05.000Z</time>
      </trkpt>
      <trkpt lat="45.28903" lon="4.62978">
        <ele>441</ele>
        <time>2026-05-12T08:13:06.000Z</time>
      </trkpt>
      <trkpt lat="45.289" lon="4.62979">
        <ele>441</ele>
        <time>2026-05-12T08:13:07.000Z</time>
      </trkpt>
      <trkpt lat="45.28896" lon="4.6298">
        <ele>440.79998779297</ele>
        <time>2026-05-12T08:13:08.000Z</time>
      </trkpt>
      <trkpt lat="45.28893" lon="4.62982">
        <ele>440.79998779297</ele>
        <time>2026-05-12T08:13:09.000Z</time>
      </trkpt>
      <trkpt lat="45.2889" lon="4.62983">
        <ele>440.79998779297</ele>
        <time>2026-05-12T08:13:10.000Z</time>
      </trkpt>
      <trkpt lat="45.28887" lon="4.62985">
        <ele>440.79998779297</ele>
        <time>2026-05-12T08:13:11.000Z</time>
      </trkpt>
      <trkpt lat="45.28885" lon="4.62986">
        <ele>441</ele>
        <time>2026-05-12T08:13:12.000Z</time>
      </trkpt>
      <trkpt lat="45.28883" lon="4.62986">
        <ele>441</ele>
        <time>2026-05-12T08:13:13.000Z</time>
      </trkpt>
      <trkpt lat="45.28881" lon="4.62987">
        <ele>441.20001220703</ele>
        <time>2026-05-12T08:13:14.000Z</time>
      </trkpt>
      <trkpt lat="45.28878" lon="4.62987">
        <ele>441.20001220703</ele>
        <time>2026-05-12T08:13:15.000Z</time>
      </trkpt>
      <trkpt lat="45.28876" lon="4.62988">
        <ele>441.39999389648</ele>
        <time>2026-05-12T08:13:16.000Z</time>
      </trkpt>
      <trkpt lat="45.28873" lon="4.62988">
        <ele>441.39999389648</ele>
        <time>2026-05-12T08:13:17.000Z</time>
      </trkpt>
      <trkpt lat="45.28869" lon="4.6299">
        <ele>441.39999389648</ele>
        <time>2026-05-12T08:13:18.000Z</time>
      </trkpt>
      <trkpt lat="45.28865" lon="4.62991">
        <ele>441.39999389648</ele>
        <time>2026-05-12T08:13:19.000Z</time>
      </trkpt>
      <trkpt lat="45.28862" lon="4.62992">
        <ele>441.39999389648</ele>
        <time>2026-05-12T08:13:20.000Z</time>
      </trkpt>
      <trkpt lat="45.28857" lon="4.62993">
        <ele>441.20001220703</ele>
        <time>2026-05-12T08:13:21.000Z</time>
      </trkpt>
      <trkpt lat="45.28854" lon="4.62994">
        <ele>441.20001220703</ele>
        <time>2026-05-12T08:13:22.000Z</time>
      </trkpt>
      <trkpt lat="45.28849" lon="4.62996">
        <ele>441.20001220703</ele>
        <time>2026-05-12T08:13:23.000Z</time>
      </trkpt>
      <trkpt lat="45.28844" lon="4.62997">
        <ele>441</ele>
        <time>2026-05-12T08:13:24.000Z</time>
      </trkpt>
      <trkpt lat="45.28841" lon="4.62999">
        <ele>441</ele>
        <time>2026-05-12T08:13:25.000Z</time>
      </trkpt>
      <trkpt lat="45.28836" lon="4.63001">
        <ele>440.79998779297</ele>
        <time>2026-05-12T08:13:26.000Z</time>
      </trkpt>
      <trkpt lat="45.28832" lon="4.63003">
        <ele>440.79998779297</ele>
        <time>2026-05-12T08:13:27.000Z</time>
      </trkpt>
      <trkpt lat="45.28828" lon="4.63004">
        <ele>440.60000610352</ele>
        <time>2026-05-12T08:13:28.000Z</time>
      </trkpt>
      <trkpt lat="45.28824" lon="4.63006">
        <ele>440.60000610352</ele>
        <time>2026-05-12T08:13:29.000Z</time>
      </trkpt>
      <trkpt lat="45.2882" lon="4.63008">
        <ele>440.60000610352</ele>
        <time>2026-05-12T08:13:30.000Z</time>
      </trkpt>
      <trkpt lat="45.28817" lon="4.63009">
        <ele>440.39999389648</ele>
        <time>2026-05-12T08:13:31.000Z</time>
      </trkpt>
      <trkpt lat="45.28813" lon="4.6301">
        <ele>440.39999389648</ele>
        <time>2026-05-12T08:13:32.000Z</time>
      </trkpt>
      <trkpt lat="45.28808" lon="4.63011">
        <ele>440.39999389648</ele>
        <time>2026-05-12T08:13:33.000Z</time>
      </trkpt>
      <trkpt lat="45.28805" lon="4.63011">
        <ele>440.20001220703</ele>
        <time>2026-05-12T08:13:34.000Z</time>
      </trkpt>
      <trkpt lat="45.28801" lon="4.63012">
        <ele>440.20001220703</ele>
        <time>2026-05-12T08:13:35.000Z</time>
      </trkpt>
      <trkpt lat="45.28797" lon="4.63014">
        <ele>440.20001220703</ele>
        <time>2026-05-12T08:13:36.000Z</time>
      </trkpt>
      <trkpt lat="45.28793" lon="4.63015">
        <ele>440</ele>
        <time>2026-05-12T08:13:37.000Z</time>
      </trkpt>
      <trkpt lat="45.28787" lon="4.63016">
        <ele>439.79998779297</ele>
        <time>2026-05-12T08:13:38.000Z</time>
      </trkpt>
      <trkpt lat="45.28783" lon="4.63017">
        <ele>439.39999389648</ele>
        <time>2026-05-12T08:13:39.000Z</time>
      </trkpt>
      <trkpt lat="45.28777" lon="4.6302">
        <ele>439.20001220703</ele>
        <time>2026-05-12T08:13:40.000Z</time>
      </trkpt>
      <trkpt lat="45.28772" lon="4.6302">
        <ele>439</ele>
        <time>2026-05-12T08:13:41.000Z</time>
      </trkpt>
      <trkpt lat="45.28767" lon="4.63022">
        <ele>438.79998779297</ele>
        <time>2026-05-12T08:13:42.000Z</time>
      </trkpt>
      <trkpt lat="45.28762" lon="4.63024">
        <ele>438.60000610352</ele>
        <time>2026-05-12T08:13:43.000Z</time>
      </trkpt>
      <trkpt lat="45.28756" lon="4.63028">
        <ele>438.60000610352</ele>
        <time>2026-05-12T08:13:44.000Z</time>
      </trkpt>
      <trkpt lat="45.2875" lon="4.6303">
        <ele>438.39999389648</ele>
        <time>2026-05-12T08:13:45.000Z</time>
      </trkpt>
      <trkpt lat="45.28744" lon="4.63031">
        <ele>438.39999389648</ele>
        <time>2026-05-12T08:13:46.000Z</time>
      </trkpt>
      <trkpt lat="45.2874" lon="4.63033">
        <ele>438.39999389648</ele>
        <time>2026-05-12T08:13:47.000Z</time>
      </trkpt>
      <trkpt lat="45.28735" lon="4.63034">
        <ele>438.20001220703</ele>
        <time>2026-05-12T08:13:48.000Z</time>
      </trkpt>
      <trkpt lat="45.28731" lon="4.63035">
        <ele>438.20001220703</ele>
        <time>2026-05-12T08:13:49.000Z</time>
      </trkpt>
      <trkpt lat="45.28727" lon="4.63038">
        <ele>438.20001220703</ele>
        <time>2026-05-12T08:13:50.000Z</time>
      </trkpt>
      <trkpt lat="45.28723" lon="4.63039">
        <ele>438.20001220703</ele>
        <time>2026-05-12T08:13:51.000Z</time>
      </trkpt>
      <trkpt lat="45.28718" lon="4.6304">
        <ele>438.20001220703</ele>
        <time>2026-05-12T08:13:52.000Z</time>
      </trkpt>
      <trkpt lat="45.28714" lon="4.63042">
        <ele>438.20001220703</ele>
        <time>2026-05-12T08:13:53.000Z</time>
      </trkpt>
      <trkpt lat="45.2871" lon="4.63044">
        <ele>438</ele>
        <time>2026-05-12T08:13:54.000Z</time>
      </trkpt>
      <trkpt lat="45.28705" lon="4.63046">
        <ele>437.79998779297</ele>
        <time>2026-05-12T08:13:55.000Z</time>
      </trkpt>
      <trkpt lat="45.28701" lon="4.63047">
        <ele>437.79998779297</ele>
        <time>2026-05-12T08:13:56.000Z</time>
      </trkpt>
      <trkpt lat="45.28697" lon="4.63048">
        <ele>437.60000610352</ele>
        <time>2026-05-12T08:13:57.000Z</time>
      </trkpt>
      <trkpt lat="45.28692" lon="4.6305">
        <ele>437.60000610352</ele>
        <time>2026-05-12T08:13:58.000Z</time>
      </trkpt>
      <trkpt lat="45.28688" lon="4.63051">
        <ele>437.60000610352</ele>
        <time>2026-05-12T08:13:59.000Z</time>
      </trkpt>
      <trkpt lat="45.28684" lon="4.63052">
        <ele>437.60000610352</ele>
        <time>2026-05-12T08:14:00.000Z</time>
      </trkpt>
      <trkpt lat="45.2868" lon="4.63054">
        <ele>437.39999389648</ele>
        <time>2026-05-12T08:14:01.000Z</time>
      </trkpt>
      <trkpt lat="45.28676" lon="4.63055">
        <ele>437.39999389648</ele>
        <time>2026-05-12T08:14:02.000Z</time>
      </trkpt>
      <trkpt lat="45.28672" lon="4.63057">
        <ele>437.39999389648</ele>
        <time>2026-05-12T08:14:03.000Z</time>
      </trkpt>
      <trkpt lat="45.28668" lon="4.63058">
        <ele>437.39999389648</ele>
        <time>2026-05-12T08:14:04.000Z</time>
      </trkpt>
      <trkpt lat="45.28663" lon="4.6306">
        <ele>437.20001220703</ele>
        <time>2026-05-12T08:14:05.000Z</time>
      </trkpt>
      <trkpt lat="45.28659" lon="4.63061">
        <ele>437.20001220703</ele>
        <time>2026-05-12T08:14:06.000Z</time>
      </trkpt>
      <trkpt lat="45.28654" lon="4.63063">
        <ele>437</ele>
        <time>2026-05-12T08:14:07.000Z</time>
      </trkpt>
      <trkpt lat="45.2865" lon="4.63064">
        <ele>436.79998779297</ele>
        <time>2026-05-12T08:14:08.000Z</time>
      </trkpt>
      <trkpt lat="45.28646" lon="4.63065">
        <ele>436.79998779297</ele>
        <time>2026-05-12T08:14:09.000Z</time>
      </trkpt>
      <trkpt lat="45.28641" lon="4.63066">
        <ele>436.79998779297</ele>
        <time>2026-05-12T08:14:10.000Z</time>
      </trkpt>
      <trkpt lat="45.28637" lon="4.63067">
        <ele>436.60000610352</ele>
        <time>2026-05-12T08:14:11.000Z</time>
      </trkpt>
      <trkpt lat="45.28633" lon="4.63069">
        <ele>436.60000610352</ele>
        <time>2026-05-12T08:14:12.000Z</time>
      </trkpt>
      <trkpt lat="45.28629" lon="4.6307">
        <ele>436.60000610352</ele>
        <time>2026-05-12T08:14:13.000Z</time>
      </trkpt>
      <trkpt lat="45.28625" lon="4.63071">
        <ele>436.39999389648</ele>
        <time>2026-05-12T08:14:14.000Z</time>
      </trkpt>
      <trkpt lat="45.28621" lon="4.63072">
        <ele>436.39999389648</ele>
        <time>2026-05-12T08:14:15.000Z</time>
      </trkpt>
      <trkpt lat="45.28617" lon="4.63074">
        <ele>436.20001220703</ele>
        <time>2026-05-12T08:14:16.000Z</time>
      </trkpt>
      <trkpt lat="45.28612" lon="4.63075">
        <ele>436.20001220703</ele>
        <time>2026-05-12T08:14:17.000Z</time>
      </trkpt>
      <trkpt lat="45.28608" lon="4.63077">
        <ele>436.20001220703</ele>
        <time>2026-05-12T08:14:18.000Z</time>
      </trkpt>
      <trkpt lat="45.28604" lon="4.63079">
        <ele>436</ele>
        <time>2026-05-12T08:14:19.000Z</time>
      </trkpt>
      <trkpt lat="45.286" lon="4.6308">
        <ele>436</ele>
        <time>2026-05-12T08:14:20.000Z</time>
      </trkpt>
      <trkpt lat="45.28595" lon="4.63082">
        <ele>436</ele>
        <time>2026-05-12T08:14:21.000Z</time>
      </trkpt>
      <trkpt lat="45.28591" lon="4.63083">
        <ele>436</ele>
        <time>2026-05-12T08:14:22.000Z</time>
      </trkpt>
      <trkpt lat="45.28586" lon="4.63085">
        <ele>436</ele>
        <time>2026-05-12T08:14:23.000Z</time>
      </trkpt>
      <trkpt lat="45.28582" lon="4.63086">
        <ele>436.20001220703</ele>
        <time>2026-05-12T08:14:24.000Z</time>
      </trkpt>
      <trkpt lat="45.28579" lon="4.63088">
        <ele>436.20001220703</ele>
        <time>2026-05-12T08:14:25.000Z</time>
      </trkpt>
      <trkpt lat="45.28575" lon="4.63089">
        <ele>436.20001220703</ele>
        <time>2026-05-12T08:14:26.000Z</time>
      </trkpt>
      <trkpt lat="45.28571" lon="4.63091">
        <ele>436.20001220703</ele>
        <time>2026-05-12T08:14:27.000Z</time>
      </trkpt>
      <trkpt lat="45.28567" lon="4.63092">
        <ele>436.20001220703</ele>
        <time>2026-05-12T08:14:28.000Z</time>
      </trkpt>
      <trkpt lat="45.28563" lon="4.63093">
        <ele>436</ele>
        <time>2026-05-12T08:14:29.000Z</time>
      </trkpt>
      <trkpt lat="45.28559" lon="4.63095">
        <ele>436</ele>
        <time>2026-05-12T08:14:30.000Z</time>
      </trkpt>
      <trkpt lat="45.28555" lon="4.63096">
        <ele>436</ele>
        <time>2026-05-12T08:14:31.000Z</time>
      </trkpt>
      <trkpt lat="45.28552" lon="4.63098">
        <ele>436</ele>
        <time>2026-05-12T08:14:32.000Z</time>
      </trkpt>
      <trkpt lat="45.28548" lon="4.63099">
        <ele>436</ele>
        <time>2026-05-12T08:14:33.000Z</time>
      </trkpt>
      <trkpt lat="45.28545" lon="4.63101">
        <ele>436</ele>
        <time>2026-05-12T08:14:34.000Z</time>
      </trkpt>
      <trkpt lat="45.28543" lon="4.63102">
        <ele>436</ele>
        <time>2026-05-12T08:14:35.000Z</time>
      </trkpt>
      <trkpt lat="45.2854" lon="4.63104">
        <ele>436</ele>
        <time>2026-05-12T08:14:36.000Z</time>
      </trkpt>
      <trkpt lat="45.28537" lon="4.63105">
        <ele>436</ele>
        <time>2026-05-12T08:14:37.000Z</time>
      </trkpt>
      <trkpt lat="45.28534" lon="4.63105">
        <ele>435.79998779297</ele>
        <time>2026-05-12T08:14:38.000Z</time>
      </trkpt>
      <trkpt lat="45.28532" lon="4.63105">
        <ele>435.79998779297</ele>
        <time>2026-05-12T08:14:39.000Z</time>
      </trkpt>
      <trkpt lat="45.28529" lon="4.63103">
        <ele>435.79998779297</ele>
        <time>2026-05-12T08:14:40.000Z</time>
      </trkpt>
      <trkpt lat="45.28527" lon="4.63101">
        <ele>435.79998779297</ele>
        <time>2026-05-12T08:14:41.000Z</time>
      </trkpt>
      <trkpt lat="45.28525" lon="4.63097">
        <ele>435.79998779297</ele>
        <time>2026-05-12T08:14:42.000Z</time>
      </trkpt>
      <trkpt lat="45.28525" lon="4.63093">
        <ele>435.79998779297</ele>
        <time>2026-05-12T08:14:43.000Z</time>
      </trkpt>
      <trkpt lat="45.28524" lon="4.63088">
        <ele>435.79998779297</ele>
        <time>2026-05-12T08:14:44.000Z</time>
      </trkpt>
      <trkpt lat="45.28523" lon="4.63084">
        <ele>435.79998779297</ele>
        <time>2026-05-12T08:14:45.000Z</time>
      </trkpt>
      <trkpt lat="45.28522" lon="4.63079">
        <ele>435.79998779297</ele>
        <time>2026-05-12T08:14:46.000Z</time>
      </trkpt>
      <trkpt lat="45.28522" lon="4.63075">
        <ele>435.79998779297</ele>
        <time>2026-05-12T08:14:47.000Z</time>
      </trkpt>
      <trkpt lat="45.2852" lon="4.63071">
        <ele>435.79998779297</ele>
        <time>2026-05-12T08:14:48.000Z</time>
      </trkpt>
      <trkpt lat="45.28519" lon="4.63067">
        <ele>435.79998779297</ele>
        <time>2026-05-12T08:14:49.000Z</time>
      </trkpt>
      <trkpt lat="45.28519" lon="4.63063">
        <ele>435.79998779297</ele>
        <time>2026-05-12T08:14:50.000Z</time>
      </trkpt>
      <trkpt lat="45.28518" lon="4.63058">
        <ele>435.79998779297</ele>
        <time>2026-05-12T08:14:51.000Z</time>
      </trkpt>
      <trkpt lat="45.28517" lon="4.63053">
        <ele>435.60000610352</ele>
        <time>2026-05-12T08:14:52.000Z</time>
      </trkpt>
      <trkpt lat="45.28517" lon="4.63047">
        <ele>435.39999389648</ele>
        <time>2026-05-12T08:14:53.000Z</time>
      </trkpt>
      <trkpt lat="45.28516" lon="4.63043">
        <ele>435.39999389648</ele>
        <time>2026-05-12T08:14:54.000Z</time>
      </trkpt>
      <trkpt lat="45.28515" lon="4.63037">
        <ele>435.20001220703</ele>
        <time>2026-05-12T08:14:55.000Z</time>
      </trkpt>
      <trkpt lat="45.28515" lon="4.63031">
        <ele>435.20001220703</ele>
        <time>2026-05-12T08:14:56.000Z</time>
      </trkpt>
      <trkpt lat="45.28514" lon="4.63026">
        <ele>435</ele>
        <time>2026-05-12T08:14:57.000Z</time>
      </trkpt>
      <trkpt lat="45.28514" lon="4.63021">
        <ele>434.79998779297</ele>
        <time>2026-05-12T08:14:58.000Z</time>
      </trkpt>
      <trkpt lat="45.28514" lon="4.63017">
        <ele>434.79998779297</ele>
        <time>2026-05-12T08:14:59.000Z</time>
      </trkpt>
      <trkpt lat="45.28514" lon="4.63015">
        <ele>434.79998779297</ele>
        <time>2026-05-12T08:15:00.000Z</time>
      </trkpt>
      <trkpt lat="45.28514" lon="4.63013">
        <ele>435</ele>
        <time>2026-05-12T08:15:01.000Z</time>
      </trkpt>
      <trkpt lat="45.28515" lon="4.6301">
        <ele>435</ele>
        <time>2026-05-12T08:15:02.000Z</time>
      </trkpt>
      <trkpt lat="45.28516" lon="4.63009">
        <ele>435</ele>
        <time>2026-05-12T08:15:03.000Z</time>
      </trkpt>
      <trkpt lat="45.28517" lon="4.63007">
        <ele>435</ele>
        <time>2026-05-12T08:15:04.000Z</time>
      </trkpt>
      <trkpt lat="45.28519" lon="4.63004">
        <ele>435</ele>
        <time>2026-05-12T08:15:05.000Z</time>
      </trkpt>
      <trkpt lat="45.28521" lon="4.63003">
        <ele>435</ele>
        <time>2026-05-12T08:15:06.000Z</time>
      </trkpt>
      <trkpt lat="45.28523" lon="4.63">
        <ele>435</ele>
        <time>2026-05-12T08:15:07.000Z</time>
      </trkpt>
      <trkpt lat="45.28526" lon="4.62999">
        <ele>434.79998779297</ele>
        <time>2026-05-12T08:15:08.000Z</time>
      </trkpt>
      <trkpt lat="45.28529" lon="4.62999">
        <ele>434.79998779297</ele>
        <time>2026-05-12T08:15:09.000Z</time>
      </trkpt>
      <trkpt lat="45.28532" lon="4.62998">
        <ele>434.79998779297</ele>
        <time>2026-05-12T08:15:10.000Z</time>
      </trkpt>
      <trkpt lat="45.28535" lon="4.62998">
        <ele>434.79998779297</ele>
        <time>2026-05-12T08:15:11.000Z</time>
      </trkpt>
      <trkpt lat="45.28538" lon="4.62997">
        <ele>434.79998779297</ele>
        <time>2026-05-12T08:15:12.000Z</time>
      </trkpt>
      <trkpt lat="45.28542" lon="4.62996">
        <ele>434.79998779297</ele>
        <time>2026-05-12T08:15:13.000Z</time>
      </trkpt>
      <trkpt lat="45.28545" lon="4.62995">
        <ele>434.79998779297</ele>
        <time>2026-05-12T08:15:14.000Z</time>
      </trkpt>
      <trkpt lat="45.28548" lon="4.62994">
        <ele>435</ele>
        <time>2026-05-12T08:15:15.000Z</time>
      </trkpt>
      <trkpt lat="45.28551" lon="4.62993">
        <ele>435.20001220703</ele>
        <time>2026-05-12T08:15:16.000Z</time>
      </trkpt>
      <trkpt lat="45.28553" lon="4.62992">
        <ele>435.20001220703</ele>
        <time>2026-05-12T08:15:17.000Z</time>
      </trkpt>
      <trkpt lat="45.28556" lon="4.6299">
        <ele>435.39999389648</ele>
        <time>2026-05-12T08:15:18.000Z</time>
      </trkpt>
      <trkpt lat="45.28559" lon="4.62987">
        <ele>435.60000610352</ele>
        <time>2026-05-12T08:15:19.000Z</time>
      </trkpt>
      <trkpt lat="45.28561" lon="4.62984">
        <ele>435.79998779297</ele>
        <time>2026-05-12T08:15:20.000Z</time>
      </trkpt>
      <trkpt lat="45.28563" lon="4.62981">
        <ele>435.79998779297</ele>
        <time>2026-05-12T08:15:21.000Z</time>
      </trkpt>
      <trkpt lat="45.28566" lon="4.62978">
        <ele>436</ele>
        <time>2026-05-12T08:15:22.000Z</time>
      </trkpt>
      <trkpt lat="45.28567" lon="4.62976">
        <ele>436</ele>
        <time>2026-05-12T08:15:23.000Z</time>
      </trkpt>
      <trkpt lat="45.28569" lon="4.62973">
        <ele>436.20001220703</ele>
        <time>2026-05-12T08:15:24.000Z</time>
      </trkpt>
      <trkpt lat="45.28571" lon="4.6297">
        <ele>436.39999389648</ele>
        <time>2026-05-12T08:15:25.000Z</time>
      </trkpt>
      <trkpt lat="45.28573" lon="4.62967">
        <ele>436.39999389648</ele>
        <time>2026-05-12T08:15:26.000Z</time>
      </trkpt>
      <trkpt lat="45.28575" lon="4.62963">
        <ele>436.60000610352</ele>
        <time>2026-05-12T08:15:27.000Z</time>
      </trkpt>
      <trkpt lat="45.28576" lon="4.62959">
        <ele>436.79998779297</ele>
        <time>2026-05-12T08:15:28.000Z</time>
      </trkpt>
      <trkpt lat="45.28578" lon="4.62955">
        <ele>436.79998779297</ele>
        <time>2026-05-12T08:15:29.000Z</time>
      </trkpt>
      <trkpt lat="45.28578" lon="4.62952">
        <ele>437</ele>
        <time>2026-05-12T08:15:30.000Z</time>
      </trkpt>
      <trkpt lat="45.28579" lon="4.62948">
        <ele>437</ele>
        <time>2026-05-12T08:15:31.000Z</time>
      </trkpt>
      <trkpt lat="45.28579" lon="4.62945">
        <ele>437</ele>
        <time>2026-05-12T08:15:32.000Z</time>
      </trkpt>
      <trkpt lat="45.28578" lon="4.62939">
        <ele>437.20001220703</ele>
        <time>2026-05-12T08:15:33.000Z</time>
      </trkpt>
      <trkpt lat="45.28578" lon="4.62935">
        <ele>437.20001220703</ele>
        <time>2026-05-12T08:15:34.000Z</time>
      </trkpt>
      <trkpt lat="45.28578" lon="4.6293">
        <ele>437.20001220703</ele>
        <time>2026-05-12T08:15:35.000Z</time>
      </trkpt>
      <trkpt lat="45.28579" lon="4.62926">
        <ele>437.39999389648</ele>
        <time>2026-05-12T08:15:36.000Z</time>
      </trkpt>
      <trkpt lat="45.28578" lon="4.62922">
        <ele>437.60000610352</ele>
        <time>2026-05-12T08:15:37.000Z</time>
      </trkpt>
      <trkpt lat="45.28579" lon="4.62918">
        <ele>437.60000610352</ele>
        <time>2026-05-12T08:15:38.000Z</time>
      </trkpt>
      <trkpt lat="45.28579" lon="4.62914">
        <ele>437.79998779297</ele>
        <time>2026-05-12T08:15:39.000Z</time>
      </trkpt>
      <trkpt lat="45.2858" lon="4.62911">
        <ele>437.79998779297</ele>
        <time>2026-05-12T08:15:40.000Z</time>
      </trkpt>
      <trkpt lat="45.28581" lon="4.62908">
        <ele>438</ele>
        <time>2026-05-12T08:15:41.000Z</time>
      </trkpt>
      <trkpt lat="45.28583" lon="4.62906">
        <ele>438</ele>
        <time>2026-05-12T08:15:42.000Z</time>
      </trkpt>
      <trkpt lat="45.28585" lon="4.62904">
        <ele>438.20001220703</ele>
        <time>2026-05-12T08:15:43.000Z</time>
      </trkpt>
      <trkpt lat="45.28587" lon="4.62903">
        <ele>438.39999389648</ele>
        <time>2026-05-12T08:15:44.000Z</time>
      </trkpt>
      <trkpt lat="45.28589" lon="4.62903">
        <ele>438.60000610352</ele>
        <time>2026-05-12T08:15:45.000Z</time>
      </trkpt>
      <trkpt lat="45.28591" lon="4.62903">
        <ele>438.79998779297</ele>
        <time>2026-05-12T08:15:46.000Z</time>
      </trkpt>
      <trkpt lat="45.28594" lon="4.62902">
        <ele>439</ele>
        <time>2026-05-12T08:15:47.000Z</time>
      </trkpt>
      <trkpt lat="45.28597" lon="4.62901">
        <ele>439.20001220703</ele>
        <time>2026-05-12T08:15:48.000Z</time>
      </trkpt>
      <trkpt lat="45.28599" lon="4.62899">
        <ele>439.20001220703</ele>
        <time>2026-05-12T08:15:49.000Z</time>
      </trkpt>
      <trkpt lat="45.28601" lon="4.62898">
        <ele>439.20001220703</ele>
        <time>2026-05-12T08:15:50.000Z</time>
      </trkpt>
      <trkpt lat="45.28604" lon="4.62896">
        <ele>439.20001220703</ele>
        <time>2026-05-12T08:15:51.000Z</time>
      </trkpt>
      <trkpt lat="45.28607" lon="4.62894">
        <ele>439.20001220703</ele>
        <time>2026-05-12T08:15:52.000Z</time>
      </trkpt>
      <trkpt lat="45.2861" lon="4.62893">
        <ele>439</ele>
        <time>2026-05-12T08:15:53.000Z</time>
      </trkpt>
      <trkpt lat="45.28612" lon="4.62892">
        <ele>439</ele>
        <time>2026-05-12T08:15:54.000Z</time>
      </trkpt>
      <trkpt lat="45.28615" lon="4.62891">
        <ele>439.20001220703</ele>
        <time>2026-05-12T08:15:55.000Z</time>
      </trkpt>
      <trkpt lat="45.28618" lon="4.6289">
        <ele>439.20001220703</ele>
        <time>2026-05-12T08:15:56.000Z</time>
      </trkpt>
      <trkpt lat="45.28621" lon="4.62889">
        <ele>439.20001220703</ele>
        <time>2026-05-12T08:15:57.000Z</time>
      </trkpt>
      <trkpt lat="45.28624" lon="4.62888">
        <ele>439.20001220703</ele>
        <time>2026-05-12T08:15:58.000Z</time>
      </trkpt>
      <trkpt lat="45.28627" lon="4.62886">
        <ele>439.20001220703</ele>
        <time>2026-05-12T08:15:59.000Z</time>
      </trkpt>
      <trkpt lat="45.28629" lon="4.62885">
        <ele>439.20001220703</ele>
        <time>2026-05-12T08:16:00.000Z</time>
      </trkpt>
      <trkpt lat="45.28632" lon="4.62884">
        <ele>439.20001220703</ele>
        <time>2026-05-12T08:16:01.000Z</time>
      </trkpt>
      <trkpt lat="45.28634" lon="4.62883">
        <ele>439.20001220703</ele>
        <time>2026-05-12T08:16:02.000Z</time>
      </trkpt>
      <trkpt lat="45.28636" lon="4.62882">
        <ele>439.20001220703</ele>
        <time>2026-05-12T08:16:03.000Z</time>
      </trkpt>
      <trkpt lat="45.28639" lon="4.6288">
        <ele>439.20001220703</ele>
        <time>2026-05-12T08:16:04.000Z</time>
      </trkpt>
      <trkpt lat="45.28641" lon="4.62878">
        <ele>439.20001220703</ele>
        <time>2026-05-12T08:16:05.000Z</time>
      </trkpt>
      <trkpt lat="45.28644" lon="4.62876">
        <ele>439.20001220703</ele>
        <time>2026-05-12T08:16:06.000Z</time>
      </trkpt>
      <trkpt lat="45.28646" lon="4.62875">
        <ele>439.20001220703</ele>
        <time>2026-05-12T08:16:07.000Z</time>
      </trkpt>
      <trkpt lat="45.28649" lon="4.62874">
        <ele>439.20001220703</ele>
        <time>2026-05-12T08:16:08.000Z</time>
      </trkpt>
      <trkpt lat="45.28652" lon="4.62873">
        <ele>439.20001220703</ele>
        <time>2026-05-12T08:16:09.000Z</time>
      </trkpt>
      <trkpt lat="45.28655" lon="4.62872">
        <ele>439.20001220703</ele>
        <time>2026-05-12T08:16:10.000Z</time>
      </trkpt>
      <trkpt lat="45.28658" lon="4.62871">
        <ele>439.20001220703</ele>
        <time>2026-05-12T08:16:11.000Z</time>
      </trkpt>
      <trkpt lat="45.28661" lon="4.62869">
        <ele>439.20001220703</ele>
        <time>2026-05-12T08:16:12.000Z</time>
      </trkpt>
      <trkpt lat="45.28663" lon="4.62868">
        <ele>439.39999389648</ele>
        <time>2026-05-12T08:16:13.000Z</time>
      </trkpt>
      <trkpt lat="45.28666" lon="4.62867">
        <ele>439.39999389648</ele>
        <time>2026-05-12T08:16:14.000Z</time>
      </trkpt>
      <trkpt lat="45.28669" lon="4.62865">
        <ele>439.39999389648</ele>
        <time>2026-05-12T08:16:15.000Z</time>
      </trkpt>
      <trkpt lat="45.28671" lon="4.62864">
        <ele>439.39999389648</ele>
        <time>2026-05-12T08:16:16.000Z</time>
      </trkpt>
      <trkpt lat="45.28674" lon="4.62863">
        <ele>439.60000610352</ele>
        <time>2026-05-12T08:16:17.000Z</time>
      </trkpt>
      <trkpt lat="45.28676" lon="4.62861">
        <ele>439.60000610352</ele>
        <time>2026-05-12T08:16:18.000Z</time>
      </trkpt>
      <trkpt lat="45.28679" lon="4.6286">
        <ele>439.60000610352</ele>
        <time>2026-05-12T08:16:19.000Z</time>
      </trkpt>
      <trkpt lat="45.28682" lon="4.62859">
        <ele>439.60000610352</ele>
        <time>2026-05-12T08:16:20.000Z</time>
      </trkpt>
      <trkpt lat="45.28684" lon="4.62858">
        <ele>439.60000610352</ele>
        <time>2026-05-12T08:16:21.000Z</time>
      </trkpt>
      <trkpt lat="45.28686" lon="4.62857">
        <ele>439.79998779297</ele>
        <time>2026-05-12T08:16:22.000Z</time>
      </trkpt>
      <trkpt lat="45.28689" lon="4.62856">
        <ele>439.79998779297</ele>
        <time>2026-05-12T08:16:23.000Z</time>
      </trkpt>
      <trkpt lat="45.28691" lon="4.62855">
        <ele>440</ele>
        <time>2026-05-12T08:16:24.000Z</time>
      </trkpt>
      <trkpt lat="45.28692" lon="4.62852">
        <ele>440</ele>
        <time>2026-05-12T08:16:25.000Z</time>
      </trkpt>
      <trkpt lat="45.28694" lon="4.62849">
        <ele>440.20001220703</ele>
        <time>2026-05-12T08:16:26.000Z</time>
      </trkpt>
      <trkpt lat="45.28695" lon="4.62846">
        <ele>440.39999389648</ele>
        <time>2026-05-12T08:16:27.000Z</time>
      </trkpt>
      <trkpt lat="45.28696" lon="4.62843">
        <ele>440.60000610352</ele>
        <time>2026-05-12T08:16:28.000Z</time>
      </trkpt>
      <trkpt lat="45.28698" lon="4.62841">
        <ele>440.60000610352</ele>
        <time>2026-05-12T08:16:29.000Z</time>
      </trkpt>
      <trkpt lat="45.28699" lon="4.62838">
        <ele>440.79998779297</ele>
        <time>2026-05-12T08:16:30.000Z</time>
      </trkpt>
      <trkpt lat="45.28701" lon="4.62835">
        <ele>441</ele>
        <time>2026-05-12T08:16:31.000Z</time>
      </trkpt>
      <trkpt lat="45.28702" lon="4.62833">
        <ele>441.20001220703</ele>
        <time>2026-05-12T08:16:32.000Z</time>
      </trkpt>
      <trkpt lat="45.28703" lon="4.6283">
        <ele>441.39999389648</ele>
        <time>2026-05-12T08:16:33.000Z</time>
      </trkpt>
      <trkpt lat="45.28705" lon="4.62827">
        <ele>441.60000610352</ele>
        <time>2026-05-12T08:16:34.000Z</time>
      </trkpt>
      <trkpt lat="45.28707" lon="4.62825">
        <ele>442</ele>
        <time>2026-05-12T08:16:35.000Z</time>
      </trkpt>
      <trkpt lat="45.28708" lon="4.62823">
        <ele>442.20001220703</ele>
        <time>2026-05-12T08:16:36.000Z</time>
      </trkpt>
      <trkpt lat="45.2871" lon="4.62821">
        <ele>442.39999389648</ele>
        <time>2026-05-12T08:16:37.000Z</time>
      </trkpt>
      <trkpt lat="45.28712" lon="4.6282">
        <ele>442.79998779297</ele>
        <time>2026-05-12T08:16:38.000Z</time>
      </trkpt>
      <trkpt lat="45.28714" lon="4.62819">
        <ele>443</ele>
        <time>2026-05-12T08:16:39.000Z</time>
      </trkpt>
      <trkpt lat="45.28716" lon="4.62818">
        <ele>443.20001220703</ele>
        <time>2026-05-12T08:16:40.000Z</time>
      </trkpt>
      <trkpt lat="45.28718" lon="4.62818">
        <ele>443.39999389648</ele>
        <time>2026-05-12T08:16:41.000Z</time>
      </trkpt>
      <trkpt lat="45.2872" lon="4.62817">
        <ele>443.60000610352</ele>
        <time>2026-05-12T08:16:42.000Z</time>
      </trkpt>
      <trkpt lat="45.28722" lon="4.62817">
        <ele>443.79998779297</ele>
        <time>2026-05-12T08:16:43.000Z</time>
      </trkpt>
      <trkpt lat="45.28724" lon="4.62817">
        <ele>444</ele>
        <time>2026-05-12T08:16:44.000Z</time>
      </trkpt>
      <trkpt lat="45.28726" lon="4.62817">
        <ele>444.20001220703</ele>
        <time>2026-05-12T08:16:45.000Z</time>
      </trkpt>
      <trkpt lat="45.28728" lon="4.62817">
        <ele>444.39999389648</ele>
        <time>2026-05-12T08:16:46.000Z</time>
      </trkpt>
      <trkpt lat="45.2873" lon="4.62817">
        <ele>444.60000610352</ele>
        <time>2026-05-12T08:16:47.000Z</time>
      </trkpt>
      <trkpt lat="45.28732" lon="4.62817">
        <ele>444.79998779297</ele>
        <time>2026-05-12T08:16:48.000Z</time>
      </trkpt>
      <trkpt lat="45.28734" lon="4.62816">
        <ele>444.79998779297</ele>
        <time>2026-05-12T08:16:49.000Z</time>
      </trkpt>
      <trkpt lat="45.28736" lon="4.62816">
        <ele>445</ele>
        <time>2026-05-12T08:16:50.000Z</time>
      </trkpt>
      <trkpt lat="45.28738" lon="4.62816">
        <ele>445.20001220703</ele>
        <time>2026-05-12T08:16:51.000Z</time>
      </trkpt>
      <trkpt lat="45.2874" lon="4.62815">
        <ele>445.39999389648</ele>
        <time>2026-05-12T08:16:52.000Z</time>
      </trkpt>
      <trkpt lat="45.28742" lon="4.62815">
        <ele>445.60000610352</ele>
        <time>2026-05-12T08:16:53.000Z</time>
      </trkpt>
      <trkpt lat="45.28744" lon="4.62815">
        <ele>445.79998779297</ele>
        <time>2026-05-12T08:16:54.000Z</time>
      </trkpt>
      <trkpt lat="45.28746" lon="4.62814">
        <ele>445.79998779297</ele>
        <time>2026-05-12T08:16:55.000Z</time>
      </trkpt>
      <trkpt lat="45.28748" lon="4.62813">
        <ele>446</ele>
        <time>2026-05-12T08:16:56.000Z</time>
      </trkpt>
      <trkpt lat="45.2875" lon="4.62813">
        <ele>446.20001220703</ele>
        <time>2026-05-12T08:16:57.000Z</time>
      </trkpt>
      <trkpt lat="45.28752" lon="4.62813">
        <ele>446.39999389648</ele>
        <time>2026-05-12T08:16:58.000Z</time>
      </trkpt>
      <trkpt lat="45.28753" lon="4.62814">
        <ele>446.60000610352</ele>
        <time>2026-05-12T08:16:59.000Z</time>
      </trkpt>
      <trkpt lat="45.28756" lon="4.62813">
        <ele>446.60000610352</ele>
        <time>2026-05-12T08:17:00.000Z</time>
      </trkpt>
      <trkpt lat="45.28758" lon="4.62812">
        <ele>446.79998779297</ele>
        <time>2026-05-12T08:17:01.000Z</time>
      </trkpt>
      <trkpt lat="45.2876" lon="4.62812">
        <ele>447</ele>
        <time>2026-05-12T08:17:02.000Z</time>
      </trkpt>
      <trkpt lat="45.28762" lon="4.62811">
        <ele>447.20001220703</ele>
        <time>2026-05-12T08:17:03.000Z</time>
      </trkpt>
      <trkpt lat="45.28764" lon="4.6281">
        <ele>447.39999389648</ele>
        <time>2026-05-12T08:17:04.000Z</time>
      </trkpt>
      <trkpt lat="45.28766" lon="4.6281">
        <ele>447.60000610352</ele>
        <time>2026-05-12T08:17:05.000Z</time>
      </trkpt>
      <trkpt lat="45.28768" lon="4.6281">
        <ele>447.79998779297</ele>
        <time>2026-05-12T08:17:06.000Z</time>
      </trkpt>
      <trkpt lat="45.2877" lon="4.6281">
        <ele>448</ele>
        <time>2026-05-12T08:17:07.000Z</time>
      </trkpt>
      <trkpt lat="45.28772" lon="4.62809">
        <ele>448.20001220703</ele>
        <time>2026-05-12T08:17:08.000Z</time>
      </trkpt>
      <trkpt lat="45.28774" lon="4.62809">
        <ele>448.39999389648</ele>
        <time>2026-05-12T08:17:09.000Z</time>
      </trkpt>
      <trkpt lat="45.28776" lon="4.62809">
        <ele>448.79998779297</ele>
        <time>2026-05-12T08:17:10.000Z</time>
      </trkpt>
      <trkpt lat="45.28779" lon="4.62809">
        <ele>449</ele>
        <time>2026-05-12T08:17:11.000Z</time>
      </trkpt>
      <trkpt lat="45.28781" lon="4.62808">
        <ele>449.20001220703</ele>
        <time>2026-05-12T08:17:12.000Z</time>
      </trkpt>
      <trkpt lat="45.28783" lon="4.62809">
        <ele>449.39999389648</ele>
        <time>2026-05-12T08:17:13.000Z</time>
      </trkpt>
      <trkpt lat="45.28785" lon="4.62809">
        <ele>449.60000610352</ele>
        <time>2026-05-12T08:17:14.000Z</time>
      </trkpt>
      <trkpt lat="45.28787" lon="4.62809">
        <ele>449.79998779297</ele>
        <time>2026-05-12T08:17:15.000Z</time>
      </trkpt>
      <trkpt lat="45.28789" lon="4.62809">
        <ele>450</ele>
        <time>2026-05-12T08:17:16.000Z</time>
      </trkpt>
      <trkpt lat="45.28791" lon="4.62809">
        <ele>450.20001220703</ele>
        <time>2026-05-12T08:17:17.000Z</time>
      </trkpt>
      <trkpt lat="45.28793" lon="4.62808">
        <ele>450.39999389648</ele>
        <time>2026-05-12T08:17:18.000Z</time>
      </trkpt>
      <trkpt lat="45.28795" lon="4.62808">
        <ele>450.60000610352</ele>
        <time>2026-05-12T08:17:19.000Z</time>
      </trkpt>
      <trkpt lat="45.28798" lon="4.62808">
        <ele>450.60000610352</ele>
        <time>2026-05-12T08:17:20.000Z</time>
      </trkpt>
      <trkpt lat="45.288" lon="4.62807">
        <ele>450.79998779297</ele>
        <time>2026-05-12T08:17:21.000Z</time>
      </trkpt>
      <trkpt lat="45.28802" lon="4.62807">
        <ele>451</ele>
        <time>2026-05-12T08:17:22.000Z</time>
      </trkpt>
      <trkpt lat="45.28804" lon="4.62807">
        <ele>451.20001220703</ele>
        <time>2026-05-12T08:17:23.000Z</time>
      </trkpt>
      <trkpt lat="45.28806" lon="4.62807">
        <ele>451.39999389648</ele>
        <time>2026-05-12T08:17:24.000Z</time>
      </trkpt>
      <trkpt lat="45.28808" lon="4.62806">
        <ele>451.60000610352</ele>
        <time>2026-05-12T08:17:25.000Z</time>
      </trkpt>
      <trkpt lat="45.2881" lon="4.62806">
        <ele>451.79998779297</ele>
        <time>2026-05-12T08:17:26.000Z</time>
      </trkpt>
      <trkpt lat="45.28812" lon="4.62806">
        <ele>452</ele>
        <time>2026-05-12T08:17:27.000Z</time>
      </trkpt>
      <trkpt lat="45.28814" lon="4.62805">
        <ele>452.20001220703</ele>
        <time>2026-05-12T08:17:28.000Z</time>
      </trkpt>
      <trkpt lat="45.28816" lon="4.62804">
        <ele>452.60000610352</ele>
        <time>2026-05-12T08:17:29.000Z</time>
      </trkpt>
      <trkpt lat="45.28818" lon="4.62803">
        <ele>452.79998779297</ele>
        <time>2026-05-12T08:17:30.000Z</time>
      </trkpt>
      <trkpt lat="45.2882" lon="4.62803">
        <ele>453</ele>
        <time>2026-05-12T08:17:31.000Z</time>
      </trkpt>
      <trkpt lat="45.28822" lon="4.62802">
        <ele>453.20001220703</ele>
        <time>2026-05-12T08:17:32.000Z</time>
      </trkpt>
      <trkpt lat="45.28824" lon="4.62801">
        <ele>453.39999389648</ele>
        <time>2026-05-12T08:17:33.000Z</time>
      </trkpt>
      <trkpt lat="45.28826" lon="4.628">
        <ele>453.79998779297</ele>
        <time>2026-05-12T08:17:34.000Z</time>
      </trkpt>
      <trkpt lat="45.28827" lon="4.62799">
        <ele>454</ele>
        <time>2026-05-12T08:17:35.000Z</time>
      </trkpt>
      <trkpt lat="45.28829" lon="4.62798">
        <ele>454.20001220703</ele>
        <time>2026-05-12T08:17:36.000Z</time>
      </trkpt>
      <trkpt lat="45.28831" lon="4.62797">
        <ele>454.39999389648</ele>
        <time>2026-05-12T08:17:37.000Z</time>
      </trkpt>
      <trkpt lat="45.28832" lon="4.62796">
        <ele>454.79998779297</ele>
        <time>2026-05-12T08:17:38.000Z</time>
      </trkpt>
      <trkpt lat="45.28833" lon="4.62794">
        <ele>455</ele>
        <time>2026-05-12T08:17:39.000Z</time>
      </trkpt>
      <trkpt lat="45.28835" lon="4.62793">
        <ele>455.39999389648</ele>
        <time>2026-05-12T08:17:40.000Z</time>
      </trkpt>
      <trkpt lat="45.28837" lon="4.62791">
        <ele>455.60000610352</ele>
        <time>2026-05-12T08:17:41.000Z</time>
      </trkpt>
      <trkpt lat="45.28838" lon="4.6279">
        <ele>455.79998779297</ele>
        <time>2026-05-12T08:17:42.000Z</time>
      </trkpt>
      <trkpt lat="45.2884" lon="4.62788">
        <ele>456.20001220703</ele>
        <time>2026-05-12T08:17:43.000Z</time>
      </trkpt>
      <trkpt lat="45.28841" lon="4.62786">
        <ele>456.60000610352</ele>
        <time>2026-05-12T08:17:44.000Z</time>
      </trkpt>
      <trkpt lat="45.28842" lon="4.62785">
        <ele>456.79998779297</ele>
        <time>2026-05-12T08:17:45.000Z</time>
      </trkpt>
      <trkpt lat="45.28844" lon="4.62783">
        <ele>457.20001220703</ele>
        <time>2026-05-12T08:17:46.000Z</time>
      </trkpt>
      <trkpt lat="45.28845" lon="4.62782">
        <ele>457.39999389648</ele>
        <time>2026-05-12T08:17:47.000Z</time>
      </trkpt>
      <trkpt lat="45.28847" lon="4.6278">
        <ele>457.79998779297</ele>
        <time>2026-05-12T08:17:48.000Z</time>
      </trkpt>
      <trkpt lat="45.28848" lon="4.62778">
        <ele>458.20001220703</ele>
        <time>2026-05-12T08:17:49.000Z</time>
      </trkpt>
      <trkpt lat="45.28848" lon="4.62776">
        <ele>458.39999389648</ele>
        <time>2026-05-12T08:17:50.000Z</time>
      </trkpt>
      <trkpt lat="45.28848" lon="4.62773">
        <ele>458.79998779297</ele>
        <time>2026-05-12T08:17:51.000Z</time>
      </trkpt>
      <trkpt lat="45.28848" lon="4.6277">
        <ele>459</ele>
        <time>2026-05-12T08:17:52.000Z</time>
      </trkpt>
      <trkpt lat="45.28847" lon="4.62769">
        <ele>459.39999389648</ele>
        <time>2026-05-12T08:17:53.000Z</time>
      </trkpt>
      <trkpt lat="45.28847" lon="4.62768">
        <ele>459.60000610352</ele>
        <time>2026-05-12T08:17:54.000Z</time>
      </trkpt>
      <trkpt lat="45.28847" lon="4.62768">
        <ele>459.79998779297</ele>
        <time>2026-05-12T08:17:55.000Z</time>
      </trkpt>
      <trkpt lat="45.28851" lon="4.62771">
        <ele>460.79998779297</ele>
        <time>2026-05-12T08:27:47.000Z</time>
      </trkpt>
      <trkpt lat="45.28853" lon="4.62771">
        <ele>460.60000610352</ele>
        <time>2026-05-12T08:27:48.000Z</time>
      </trkpt>
      <trkpt lat="45.28855" lon="4.62771">
        <ele>460.60000610352</ele>
        <time>2026-05-12T08:27:49.000Z</time>
      </trkpt>
      <trkpt lat="45.28856" lon="4.6277">
        <ele>460.60000610352</ele>
        <time>2026-05-12T08:27:50.000Z</time>
      </trkpt>
      <trkpt lat="45.28858" lon="4.62769">
        <ele>460.60000610352</ele>
        <time>2026-05-12T08:27:51.000Z</time>
      </trkpt>
      <trkpt lat="45.2886" lon="4.62767">
        <ele>460.79998779297</ele>
        <time>2026-05-12T08:27:52.000Z</time>
      </trkpt>
      <trkpt lat="45.28862" lon="4.62766">
        <ele>461</ele>
        <time>2026-05-12T08:27:53.000Z</time>
      </trkpt>
      <trkpt lat="45.28863" lon="4.62765">
        <ele>461.20001220703</ele>
        <time>2026-05-12T08:27:54.000Z</time>
      </trkpt>
      <trkpt lat="45.28865" lon="4.62764">
        <ele>461.39999389648</ele>
        <time>2026-05-12T08:27:55.000Z</time>
      </trkpt>
      <trkpt lat="45.28867" lon="4.62763">
        <ele>461.79998779297</ele>
        <time>2026-05-12T08:27:56.000Z</time>
      </trkpt>
      <trkpt lat="45.28869" lon="4.62761">
        <ele>462</ele>
        <time>2026-05-12T08:27:57.000Z</time>
      </trkpt>
      <trkpt lat="45.2887" lon="4.6276">
        <ele>462.39999389648</ele>
        <time>2026-05-12T08:27:58.000Z</time>
      </trkpt>
      <trkpt lat="45.28871" lon="4.62758">
        <ele>462.79998779297</ele>
        <time>2026-05-12T08:27:59.000Z</time>
      </trkpt>
      <trkpt lat="45.28873" lon="4.62757">
        <ele>463.20001220703</ele>
        <time>2026-05-12T08:28:00.000Z</time>
      </trkpt>
      <trkpt lat="45.28875" lon="4.62756">
        <ele>463.39999389648</ele>
        <time>2026-05-12T08:28:01.000Z</time>
      </trkpt>
      <trkpt lat="45.28876" lon="4.62754">
        <ele>463.79998779297</ele>
        <time>2026-05-12T08:28:02.000Z</time>
      </trkpt>
      <trkpt lat="45.28878" lon="4.62753">
        <ele>464.20001220703</ele>
        <time>2026-05-12T08:28:03.000Z</time>
      </trkpt>
      <trkpt lat="45.28879" lon="4.62751">
        <ele>464.39999389648</ele>
        <time>2026-05-12T08:28:04.000Z</time>
      </trkpt>
      <trkpt lat="45.28881" lon="4.6275">
        <ele>464.79998779297</ele>
        <time>2026-05-12T08:28:05.000Z</time>
      </trkpt>
      <trkpt lat="45.28883" lon="4.62749">
        <ele>465.20001220703</ele>
        <time>2026-05-12T08:28:06.000Z</time>
      </trkpt>
      <trkpt lat="45.28884" lon="4.62749">
        <ele>465.60000610352</ele>
        <time>2026-05-12T08:28:07.000Z</time>
      </trkpt>
      <trkpt lat="45.28886" lon="4.62748">
        <ele>465.79998779297</ele>
        <time>2026-05-12T08:28:08.000Z</time>
      </trkpt>
      <trkpt lat="45.28888" lon="4.62747">
        <ele>466.20001220703</ele>
        <time>2026-05-12T08:28:09.000Z</time>
      </trkpt>
      <trkpt lat="45.28889" lon="4.62747">
        <ele>466.60000610352</ele>
        <time>2026-05-12T08:28:10.000Z</time>
      </trkpt>
      <trkpt lat="45.28891" lon="4.62746">
        <ele>466.79998779297</ele>
        <time>2026-05-12T08:28:11.000Z</time>
      </trkpt>
      <trkpt lat="45.28892" lon="4.62745">
        <ele>467.20001220703</ele>
        <time>2026-05-12T08:28:12.000Z</time>
      </trkpt>
      <trkpt lat="45.28894" lon="4.62744">
        <ele>467.39999389648</ele>
        <time>2026-05-12T08:28:13.000Z</time>
      </trkpt>
      <trkpt lat="45.28896" lon="4.62743">
        <ele>467.79998779297</ele>
        <time>2026-05-12T08:28:14.000Z</time>
      </trkpt>
      <trkpt lat="45.28898" lon="4.62743">
        <ele>468</ele>
        <time>2026-05-12T08:28:15.000Z</time>
      </trkpt>
      <trkpt lat="45.289" lon="4.62742">
        <ele>468.20001220703</ele>
        <time>2026-05-12T08:28:16.000Z</time>
      </trkpt>
      <trkpt lat="45.28901" lon="4.62741">
        <ele>468.39999389648</ele>
        <time>2026-05-12T08:28:17.000Z</time>
      </trkpt>
      <trkpt lat="45.28903" lon="4.6274">
        <ele>468.60000610352</ele>
        <time>2026-05-12T08:28:18.000Z</time>
      </trkpt>
      <trkpt lat="45.28904" lon="4.6274">
        <ele>469</ele>
        <time>2026-05-12T08:28:19.000Z</time>
      </trkpt>
      <trkpt lat="45.28906" lon="4.6274">
        <ele>469.20001220703</ele>
        <time>2026-05-12T08:28:20.000Z</time>
      </trkpt>
      <trkpt lat="45.28908" lon="4.62739">
        <ele>469.39999389648</ele>
        <time>2026-05-12T08:28:21.000Z</time>
      </trkpt>
      <trkpt lat="45.2891" lon="4.62738">
        <ele>469.79998779297</ele>
        <time>2026-05-12T08:28:22.000Z</time>
      </trkpt>
      <trkpt lat="45.28912" lon="4.62737">
        <ele>470</ele>
        <time>2026-05-12T08:28:23.000Z</time>
      </trkpt>
      <trkpt lat="45.28914" lon="4.62736">
        <ele>470.20001220703</ele>
        <time>2026-05-12T08:28:24.000Z</time>
      </trkpt>
      <trkpt lat="45.28915" lon="4.62736">
        <ele>470.39999389648</ele>
        <time>2026-05-12T08:28:25.000Z</time>
      </trkpt>
      <trkpt lat="45.28917" lon="4.62735">
        <ele>470.79998779297</ele>
        <time>2026-05-12T08:28:26.000Z</time>
      </trkpt>
      <trkpt lat="45.28918" lon="4.62734">
        <ele>471</ele>
        <time>2026-05-12T08:28:27.000Z</time>
      </trkpt>
      <trkpt lat="45.28919" lon="4.62734">
        <ele>471.20001220703</ele>
        <time>2026-05-12T08:28:28.000Z</time>
      </trkpt>
      <trkpt lat="45.28921" lon="4.62733">
        <ele>471.39999389648</ele>
        <time>2026-05-12T08:28:29.000Z</time>
      </trkpt>
      <trkpt lat="45.28922" lon="4.62732">
        <ele>471.60000610352</ele>
        <time>2026-05-12T08:28:30.000Z</time>
      </trkpt>
      <trkpt lat="45.28924" lon="4.62731">
        <ele>472</ele>
        <time>2026-05-12T08:28:31.000Z</time>
      </trkpt>
      <trkpt lat="45.28925" lon="4.6273">
        <ele>472.20001220703</ele>
        <time>2026-05-12T08:28:32.000Z</time>
      </trkpt>
      <trkpt lat="45.28926" lon="4.62729">
        <ele>472.39999389648</ele>
        <time>2026-05-12T08:28:33.000Z</time>
      </trkpt>
      <trkpt lat="45.28928" lon="4.62728">
        <ele>472.60000610352</ele>
        <time>2026-05-12T08:28:34.000Z</time>
      </trkpt>
      <trkpt lat="45.28929" lon="4.62727">
        <ele>472.79998779297</ele>
        <time>2026-05-12T08:28:35.000Z</time>
      </trkpt>
      <trkpt lat="45.28931" lon="4.62726">
        <ele>473.20001220703</ele>
        <time>2026-05-12T08:28:36.000Z</time>
      </trkpt>
      <trkpt lat="45.28932" lon="4.62725">
        <ele>473.39999389648</ele>
        <time>2026-05-12T08:28:37.000Z</time>
      </trkpt>
      <trkpt lat="45.28933" lon="4.62724">
        <ele>473.60000610352</ele>
        <time>2026-05-12T08:28:38.000Z</time>
      </trkpt>
      <trkpt lat="45.28935" lon="4.62723">
        <ele>474</ele>
        <time>2026-05-12T08:28:39.000Z</time>
      </trkpt>
      <trkpt lat="45.28936" lon="4.62721">
        <ele>474.20001220703</ele>
        <time>2026-05-12T08:28:40.000Z</time>
      </trkpt>
      <trkpt lat="45.28937" lon="4.62719">
        <ele>474.39999389648</ele>
        <time>2026-05-12T08:28:41.000Z</time>
      </trkpt>
      <trkpt lat="45.28938" lon="4.62718">
        <ele>474.79998779297</ele>
        <time>2026-05-12T08:28:42.000Z</time>
      </trkpt>
      <trkpt lat="45.28939" lon="4.62716">
        <ele>475.20001220703</ele>
        <time>2026-05-12T08:28:43.000Z</time>
      </trkpt>
      <trkpt lat="45.2894" lon="4.62714">
        <ele>475.39999389648</ele>
        <time>2026-05-12T08:28:44.000Z</time>
      </trkpt>
      <trkpt lat="45.28941" lon="4.62712">
        <ele>475.79998779297</ele>
        <time>2026-05-12T08:28:45.000Z</time>
      </trkpt>
      <trkpt lat="45.28942" lon="4.6271">
        <ele>476</ele>
        <time>2026-05-12T08:28:46.000Z</time>
      </trkpt>
      <trkpt lat="45.28942" lon="4.62707">
        <ele>476.39999389648</ele>
        <time>2026-05-12T08:28:47.000Z</time>
      </trkpt>
      <trkpt lat="45.28943" lon="4.62705">
        <ele>476.60000610352</ele>
        <time>2026-05-12T08:28:48.000Z</time>
      </trkpt>
      <trkpt lat="45.28943" lon="4.62703">
        <ele>477</ele>
        <time>2026-05-12T08:28:49.000Z</time>
      </trkpt>
      <trkpt lat="45.28943" lon="4.62701">
        <ele>477.20001220703</ele>
        <time>2026-05-12T08:28:50.000Z</time>
      </trkpt>
      <trkpt lat="45.28944" lon="4.627">
        <ele>477.60000610352</ele>
        <time>2026-05-12T08:28:51.000Z</time>
      </trkpt>
      <trkpt lat="45.28944" lon="4.62698">
        <ele>477.79998779297</ele>
        <time>2026-05-12T08:28:52.000Z</time>
      </trkpt>
      <trkpt lat="45.28944" lon="4.62696">
        <ele>478</ele>
        <time>2026-05-12T08:28:53.000Z</time>
      </trkpt>
      <trkpt lat="45.28945" lon="4.62693">
        <ele>478.39999389648</ele>
        <time>2026-05-12T08:28:54.000Z</time>
      </trkpt>
      <trkpt lat="45.28944" lon="4.6269">
        <ele>478.60000610352</ele>
        <time>2026-05-12T08:28:55.000Z</time>
      </trkpt>
      <trkpt lat="45.28944" lon="4.62688">
        <ele>479</ele>
        <time>2026-05-12T08:28:56.000Z</time>
      </trkpt>
      <trkpt lat="45.28944" lon="4.62686">
        <ele>479.39999389648</ele>
        <time>2026-05-12T08:28:57.000Z</time>
      </trkpt>
      <trkpt lat="45.28944" lon="4.62684">
        <ele>479.79998779297</ele>
        <time>2026-05-12T08:28:58.000Z</time>
      </trkpt>
      <trkpt lat="45.28943" lon="4.62681">
        <ele>480.20001220703</ele>
        <time>2026-05-12T08:28:59.000Z</time>
      </trkpt>
      <trkpt lat="45.28943" lon="4.62679">
        <ele>480.60000610352</ele>
        <time>2026-05-12T08:29:00.000Z</time>
      </trkpt>
      <trkpt lat="45.28942" lon="4.62677">
        <ele>480.79998779297</ele>
        <time>2026-05-12T08:29:01.000Z</time>
      </trkpt>
      <trkpt lat="45.28942" lon="4.62675">
        <ele>481</ele>
        <time>2026-05-12T08:29:02.000Z</time>
      </trkpt>
      <trkpt lat="45.28942" lon="4.62673">
        <ele>481.39999389648</ele>
        <time>2026-05-12T08:29:03.000Z</time>
      </trkpt>
      <trkpt lat="45.28941" lon="4.6267">
        <ele>481.60000610352</ele>
        <time>2026-05-12T08:29:04.000Z</time>
      </trkpt>
      <trkpt lat="45.28941" lon="4.62668">
        <ele>481.79998779297</ele>
        <time>2026-05-12T08:29:05.000Z</time>
      </trkpt>
      <trkpt lat="45.28941" lon="4.62666">
        <ele>482</ele>
        <time>2026-05-12T08:29:06.000Z</time>
      </trkpt>
      <trkpt lat="45.2894" lon="4.62664">
        <ele>482.20001220703</ele>
        <time>2026-05-12T08:29:07.000Z</time>
      </trkpt>
      <trkpt lat="45.28939" lon="4.62662">
        <ele>482.39999389648</ele>
        <time>2026-05-12T08:29:08.000Z</time>
      </trkpt>
      <trkpt lat="45.28938" lon="4.6266">
        <ele>482.60000610352</ele>
        <time>2026-05-12T08:29:09.000Z</time>
      </trkpt>
      <trkpt lat="45.28937" lon="4.62658">
        <ele>482.79998779297</ele>
        <time>2026-05-12T08:29:10.000Z</time>
      </trkpt>
      <trkpt lat="45.28936" lon="4.62656">
        <ele>483</ele>
        <time>2026-05-12T08:29:11.000Z</time>
      </trkpt>
      <trkpt lat="45.28936" lon="4.62655">
        <ele>483.39999389648</ele>
        <time>2026-05-12T08:29:12.000Z</time>
      </trkpt>
      <trkpt lat="45.28935" lon="4.62653">
        <ele>483.79998779297</ele>
        <time>2026-05-12T08:29:13.000Z</time>
      </trkpt>
      <trkpt lat="45.28934" lon="4.62651">
        <ele>484</ele>
        <time>2026-05-12T08:29:14.000Z</time>
      </trkpt>
      <trkpt lat="45.28933" lon="4.62649">
        <ele>484.20001220703</ele>
        <time>2026-05-12T08:29:15.000Z</time>
      </trkpt>
      <trkpt lat="45.28932" lon="4.62647">
        <ele>484.39999389648</ele>
        <time>2026-05-12T08:29:16.000Z</time>
      </trkpt>
      <trkpt lat="45.28931" lon="4.62646">
        <ele>484.39999389648</ele>
        <time>2026-05-12T08:29:17.000Z</time>
      </trkpt>
      <trkpt lat="45.28931" lon="4.62644">
        <ele>484.60000610352</ele>
        <time>2026-05-12T08:29:18.000Z</time>
      </trkpt>
      <trkpt lat="45.2893" lon="4.62642">
        <ele>484.60000610352</ele>
        <time>2026-05-12T08:29:19.000Z</time>
      </trkpt>
      <trkpt lat="45.28929" lon="4.6264">
        <ele>484.79998779297</ele>
        <time>2026-05-12T08:29:20.000Z</time>
      </trkpt>
      <trkpt lat="45.28928" lon="4.62638">
        <ele>484.79998779297</ele>
        <time>2026-05-12T08:29:21.000Z</time>
      </trkpt>
      <trkpt lat="45.28927" lon="4.62636">
        <ele>485</ele>
        <time>2026-05-12T08:29:22.000Z</time>
      </trkpt>
      <trkpt lat="45.28926" lon="4.62634">
        <ele>485.20001220703</ele>
        <time>2026-05-12T08:29:23.000Z</time>
      </trkpt>
      <trkpt lat="45.28925" lon="4.62632">
        <ele>485.39999389648</ele>
        <time>2026-05-12T08:29:24.000Z</time>
      </trkpt>
      <trkpt lat="45.28925" lon="4.6263">
        <ele>485.60000610352</ele>
        <time>2026-05-12T08:29:25.000Z</time>
      </trkpt>
      <trkpt lat="45.28924" lon="4.62628">
        <ele>485.60000610352</ele>
        <time>2026-05-12T08:29:26.000Z</time>
      </trkpt>
      <trkpt lat="45.28923" lon="4.62626">
        <ele>485.79998779297</ele>
        <time>2026-05-12T08:29:27.000Z</time>
      </trkpt>
      <trkpt lat="45.28923" lon="4.62624">
        <ele>486</ele>
        <time>2026-05-12T08:29:28.000Z</time>
      </trkpt>
      <trkpt lat="45.28922" lon="4.62622">
        <ele>486.20001220703</ele>
        <time>2026-05-12T08:29:29.000Z</time>
      </trkpt>
      <trkpt lat="45.28921" lon="4.6262">
        <ele>486.39999389648</ele>
        <time>2026-05-12T08:29:30.000Z</time>
      </trkpt>
      <trkpt lat="45.2892" lon="4.62618">
        <ele>486.60000610352</ele>
        <time>2026-05-12T08:29:31.000Z</time>
      </trkpt>
      <trkpt lat="45.28919" lon="4.62616">
        <ele>486.79998779297</ele>
        <time>2026-05-12T08:29:32.000Z</time>
      </trkpt>
      <trkpt lat="45.28918" lon="4.62614">
        <ele>486.79998779297</ele>
        <time>2026-05-12T08:29:33.000Z</time>
      </trkpt>
      <trkpt lat="45.28917" lon="4.62612">
        <ele>487</ele>
        <time>2026-05-12T08:29:34.000Z</time>
      </trkpt>
      <trkpt lat="45.28916" lon="4.6261">
        <ele>487.20001220703</ele>
        <time>2026-05-12T08:29:35.000Z</time>
      </trkpt>
      <trkpt lat="45.28915" lon="4.62608">
        <ele>487.39999389648</ele>
        <time>2026-05-12T08:29:36.000Z</time>
      </trkpt>
      <trkpt lat="45.28915" lon="4.62605">
        <ele>487.39999389648</ele>
        <time>2026-05-12T08:29:37.000Z</time>
      </trkpt>
      <trkpt lat="45.28914" lon="4.62603">
        <ele>487.60000610352</ele>
        <time>2026-05-12T08:29:38.000Z</time>
      </trkpt>
      <trkpt lat="45.28914" lon="4.626">
        <ele>487.60000610352</ele>
        <time>2026-05-12T08:29:39.000Z</time>
      </trkpt>
      <trkpt lat="45.28914" lon="4.62598">
        <ele>487.79998779297</ele>
        <time>2026-05-12T08:29:40.000Z</time>
      </trkpt>
      <trkpt lat="45.28913" lon="4.62595">
        <ele>488</ele>
        <time>2026-05-12T08:29:41.000Z</time>
      </trkpt>
      <trkpt lat="45.28912" lon="4.62593">
        <ele>488.20001220703</ele>
        <time>2026-05-12T08:29:42.000Z</time>
      </trkpt>
      <trkpt lat="45.28912" lon="4.62591">
        <ele>488.20001220703</ele>
        <time>2026-05-12T08:29:43.000Z</time>
      </trkpt>
      <trkpt lat="45.28911" lon="4.62589">
        <ele>488.39999389648</ele>
        <time>2026-05-12T08:29:44.000Z</time>
      </trkpt>
      <trkpt lat="45.2891" lon="4.62586">
        <ele>488.39999389648</ele>
        <time>2026-05-12T08:29:45.000Z</time>
      </trkpt>
      <trkpt lat="45.2891" lon="4.62584">
        <ele>488.60000610352</ele>
        <time>2026-05-12T08:29:46.000Z</time>
      </trkpt>
      <trkpt lat="45.2891" lon="4.62582">
        <ele>488.60000610352</ele>
        <time>2026-05-12T08:29:47.000Z</time>
      </trkpt>
      <trkpt lat="45.2891" lon="4.62579">
        <ele>488.79998779297</ele>
        <time>2026-05-12T08:29:48.000Z</time>
      </trkpt>
      <trkpt lat="45.2891" lon="4.62577">
        <ele>488.79998779297</ele>
        <time>2026-05-12T08:29:49.000Z</time>
      </trkpt>
      <trkpt lat="45.28909" lon="4.62575">
        <ele>489</ele>
        <time>2026-05-12T08:29:50.000Z</time>
      </trkpt>
      <trkpt lat="45.28909" lon="4.62573">
        <ele>489</ele>
        <time>2026-05-12T08:29:51.000Z</time>
      </trkpt>
      <trkpt lat="45.28908" lon="4.6257">
        <ele>489.20001220703</ele>
        <time>2026-05-12T08:29:52.000Z</time>
      </trkpt>
      <trkpt lat="45.28908" lon="4.62568">
        <ele>489.20001220703</ele>
        <time>2026-05-12T08:29:53.000Z</time>
      </trkpt>
      <trkpt lat="45.28907" lon="4.62565">
        <ele>489.39999389648</ele>
        <time>2026-05-12T08:29:54.000Z</time>
      </trkpt>
      <trkpt lat="45.28907" lon="4.62563">
        <ele>489.39999389648</ele>
        <time>2026-05-12T08:29:55.000Z</time>
      </trkpt>
      <trkpt lat="45.28906" lon="4.6256">
        <ele>489.39999389648</ele>
        <time>2026-05-12T08:29:56.000Z</time>
      </trkpt>
      <trkpt lat="45.28906" lon="4.62558">
        <ele>489.60000610352</ele>
        <time>2026-05-12T08:29:57.000Z</time>
      </trkpt>
      <trkpt lat="45.28905" lon="4.62556">
        <ele>489.60000610352</ele>
        <time>2026-05-12T08:29:58.000Z</time>
      </trkpt>
      <trkpt lat="45.28904" lon="4.62554">
        <ele>489.60000610352</ele>
        <time>2026-05-12T08:29:59.000Z</time>
      </trkpt>
      <trkpt lat="45.28903" lon="4.62551">
        <ele>489.79998779297</ele>
        <time>2026-05-12T08:30:00.000Z</time>
      </trkpt>
      <trkpt lat="45.28903" lon="4.62549">
        <ele>489.79998779297</ele>
        <time>2026-05-12T08:30:01.000Z</time>
      </trkpt>
      <trkpt lat="45.28902" lon="4.62546">
        <ele>490</ele>
        <time>2026-05-12T08:30:02.000Z</time>
      </trkpt>
      <trkpt lat="45.28902" lon="4.62543">
        <ele>490.20001220703</ele>
        <time>2026-05-12T08:30:03.000Z</time>
      </trkpt>
      <trkpt lat="45.28901" lon="4.62541">
        <ele>490.60000610352</ele>
        <time>2026-05-12T08:30:04.000Z</time>
      </trkpt>
      <trkpt lat="45.28901" lon="4.62538">
        <ele>490.79998779297</ele>
        <time>2026-05-12T08:30:05.000Z</time>
      </trkpt>
      <trkpt lat="45.289" lon="4.62536">
        <ele>490.79998779297</ele>
        <time>2026-05-12T08:30:06.000Z</time>
      </trkpt>
      <trkpt lat="45.289" lon="4.62533">
        <ele>490.79998779297</ele>
        <time>2026-05-12T08:30:07.000Z</time>
      </trkpt>
      <trkpt lat="45.289" lon="4.6253">
        <ele>490.79998779297</ele>
        <time>2026-05-12T08:30:08.000Z</time>
      </trkpt>
      <trkpt lat="45.289" lon="4.62528">
        <ele>490.60000610352</ele>
        <time>2026-05-12T08:30:09.000Z</time>
      </trkpt>
      <trkpt lat="45.289" lon="4.62526">
        <ele>490.60000610352</ele>
        <time>2026-05-12T08:30:10.000Z</time>
      </trkpt>
      <trkpt lat="45.28899" lon="4.62523">
        <ele>490.60000610352</ele>
        <time>2026-05-12T08:30:11.000Z</time>
      </trkpt>
      <trkpt lat="45.28898" lon="4.62521">
        <ele>490.60000610352</ele>
        <time>2026-05-12T08:30:12.000Z</time>
      </trkpt>
      <trkpt lat="45.28897" lon="4.62519">
        <ele>490.60000610352</ele>
        <time>2026-05-12T08:30:13.000Z</time>
      </trkpt>
      <trkpt lat="45.28897" lon="4.62516">
        <ele>490.79998779297</ele>
        <time>2026-05-12T08:30:14.000Z</time>
      </trkpt>
      <trkpt lat="45.28896" lon="4.62513">
        <ele>490.79998779297</ele>
        <time>2026-05-12T08:30:15.000Z</time>
      </trkpt>
      <trkpt lat="45.28895" lon="4.62511">
        <ele>490.79998779297</ele>
        <time>2026-05-12T08:30:16.000Z</time>
      </trkpt>
      <trkpt lat="45.28895" lon="4.62508">
        <ele>490.79998779297</ele>
        <time>2026-05-12T08:30:17.000Z</time>
      </trkpt>
      <trkpt lat="45.28895" lon="4.62506">
        <ele>491</ele>
        <time>2026-05-12T08:30:18.000Z</time>
      </trkpt>
      <trkpt lat="45.28894" lon="4.62504">
        <ele>491</ele>
        <time>2026-05-12T08:30:19.000Z</time>
      </trkpt>
      <trkpt lat="45.28894" lon="4.62501">
        <ele>491.20001220703</ele>
        <time>2026-05-12T08:30:20.000Z</time>
      </trkpt>
      <trkpt lat="45.28893" lon="4.62499">
        <ele>491.20001220703</ele>
        <time>2026-05-12T08:30:21.000Z</time>
      </trkpt>
      <trkpt lat="45.28893" lon="4.62497">
        <ele>491.39999389648</ele>
        <time>2026-05-12T08:30:22.000Z</time>
      </trkpt>
      <trkpt lat="45.28893" lon="4.62494">
        <ele>491.39999389648</ele>
        <time>2026-05-12T08:30:23.000Z</time>
      </trkpt>
      <trkpt lat="45.28892" lon="4.62492">
        <ele>491.39999389648</ele>
        <time>2026-05-12T08:30:24.000Z</time>
      </trkpt>
      <trkpt lat="45.28892" lon="4.6249">
        <ele>491.60000610352</ele>
        <time>2026-05-12T08:30:25.000Z</time>
      </trkpt>
      <trkpt lat="45.28891" lon="4.62487">
        <ele>491.60000610352</ele>
        <time>2026-05-12T08:30:26.000Z</time>
      </trkpt>
      <trkpt lat="45.2889" lon="4.62485">
        <ele>491.60000610352</ele>
        <time>2026-05-12T08:30:27.000Z</time>
      </trkpt>
      <trkpt lat="45.2889" lon="4.62483">
        <ele>491.79998779297</ele>
        <time>2026-05-12T08:30:28.000Z</time>
      </trkpt>
      <trkpt lat="45.28889" lon="4.62481">
        <ele>491.79998779297</ele>
        <time>2026-05-12T08:30:29.000Z</time>
      </trkpt>
      <trkpt lat="45.28889" lon="4.62478">
        <ele>491.79998779297</ele>
        <time>2026-05-12T08:30:30.000Z</time>
      </trkpt>
      <trkpt lat="45.28888" lon="4.62476">
        <ele>492</ele>
        <time>2026-05-12T08:30:31.000Z</time>
      </trkpt>
      <trkpt lat="45.28887" lon="4.62474">
        <ele>492</ele>
        <time>2026-05-12T08:30:32.000Z</time>
      </trkpt>
      <trkpt lat="45.28887" lon="4.62472">
        <ele>492</ele>
        <time>2026-05-12T08:30:33.000Z</time>
      </trkpt>
      <trkpt lat="45.28886" lon="4.62469">
        <ele>492.20001220703</ele>
        <time>2026-05-12T08:30:34.000Z</time>
      </trkpt>
      <trkpt lat="45.28886" lon="4.62467">
        <ele>492.20001220703</ele>
        <time>2026-05-12T08:30:35.000Z</time>
      </trkpt>
      <trkpt lat="45.28885" lon="4.62465">
        <ele>492.39999389648</ele>
        <time>2026-05-12T08:30:36.000Z</time>
      </trkpt>
      <trkpt lat="45.28884" lon="4.62463">
        <ele>492.39999389648</ele>
        <time>2026-05-12T08:30:37.000Z</time>
      </trkpt>
      <trkpt lat="45.28884" lon="4.62461">
        <ele>492.39999389648</ele>
        <time>2026-05-12T08:30:38.000Z</time>
      </trkpt>
      <trkpt lat="45.28883" lon="4.62459">
        <ele>492.60000610352</ele>
        <time>2026-05-12T08:30:39.000Z</time>
      </trkpt>
      <trkpt lat="45.28882" lon="4.62457">
        <ele>492.60000610352</ele>
        <time>2026-05-12T08:30:40.000Z</time>
      </trkpt>
      <trkpt lat="45.28881" lon="4.62455">
        <ele>492.79998779297</ele>
        <time>2026-05-12T08:30:41.000Z</time>
      </trkpt>
      <trkpt lat="45.2888" lon="4.62453">
        <ele>492.79998779297</ele>
        <time>2026-05-12T08:30:42.000Z</time>
      </trkpt>
      <trkpt lat="45.2888" lon="4.62451">
        <ele>492.79998779297</ele>
        <time>2026-05-12T08:30:43.000Z</time>
      </trkpt>
      <trkpt lat="45.28879" lon="4.62449">
        <ele>493</ele>
        <time>2026-05-12T08:30:44.000Z</time>
      </trkpt>
      <trkpt lat="45.28878" lon="4.62447">
        <ele>493</ele>
        <time>2026-05-12T08:30:45.000Z</time>
      </trkpt>
      <trkpt lat="45.28877" lon="4.62445">
        <ele>493.20001220703</ele>
        <time>2026-05-12T08:30:46.000Z</time>
      </trkpt>
      <trkpt lat="45.28877" lon="4.62443">
        <ele>493.20001220703</ele>
        <time>2026-05-12T08:30:47.000Z</time>
      </trkpt>
      <trkpt lat="45.28877" lon="4.62441">
        <ele>493.39999389648</ele>
        <time>2026-05-12T08:30:48.000Z</time>
      </trkpt>
      <trkpt lat="45.28876" lon="4.62439">
        <ele>493.60000610352</ele>
        <time>2026-05-12T08:30:49.000Z</time>
      </trkpt>
      <trkpt lat="45.28875" lon="4.62437">
        <ele>493.60000610352</ele>
        <time>2026-05-12T08:30:50.000Z</time>
      </trkpt>
      <trkpt lat="45.28874" lon="4.62435">
        <ele>493.79998779297</ele>
        <time>2026-05-12T08:30:51.000Z</time>
      </trkpt>
      <trkpt lat="45.28874" lon="4.62433">
        <ele>494</ele>
        <time>2026-05-12T08:30:52.000Z</time>
      </trkpt>
      <trkpt lat="45.28873" lon="4.62431">
        <ele>494</ele>
        <time>2026-05-12T08:30:53.000Z</time>
      </trkpt>
      <trkpt lat="45.28872" lon="4.62429">
        <ele>494.20001220703</ele>
        <time>2026-05-12T08:30:54.000Z</time>
      </trkpt>
      <trkpt lat="45.28871" lon="4.62428">
        <ele>494.39999389648</ele>
        <time>2026-05-12T08:30:55.000Z</time>
      </trkpt>
      <trkpt lat="45.2887" lon="4.62426">
        <ele>494.39999389648</ele>
        <time>2026-05-12T08:30:56.000Z</time>
      </trkpt>
      <trkpt lat="45.28869" lon="4.62424">
        <ele>494.60000610352</ele>
        <time>2026-05-12T08:30:57.000Z</time>
      </trkpt>
      <trkpt lat="45.28868" lon="4.62422">
        <ele>494.79998779297</ele>
        <time>2026-05-12T08:30:58.000Z</time>
      </trkpt>
      <trkpt lat="45.28867" lon="4.62421">
        <ele>495</ele>
        <time>2026-05-12T08:30:59.000Z</time>
      </trkpt>
      <trkpt lat="45.28866" lon="4.62419">
        <ele>495</ele>
        <time>2026-05-12T08:31:00.000Z</time>
      </trkpt>
      <trkpt lat="45.28865" lon="4.62417">
        <ele>495.20001220703</ele>
        <time>2026-05-12T08:31:01.000Z</time>
      </trkpt>
      <trkpt lat="45.28864" lon="4.62415">
        <ele>495.39999389648</ele>
        <time>2026-05-12T08:31:02.000Z</time>
      </trkpt>
      <trkpt lat="45.28863" lon="4.62414">
        <ele>495.60000610352</ele>
        <time>2026-05-12T08:31:03.000Z</time>
      </trkpt>
      <trkpt lat="45.28862" lon="4.62412">
        <ele>495.79998779297</ele>
        <time>2026-05-12T08:31:04.000Z</time>
      </trkpt>
      <trkpt lat="45.28861" lon="4.62411">
        <ele>496</ele>
        <time>2026-05-12T08:31:05.000Z</time>
      </trkpt>
      <trkpt lat="45.2886" lon="4.62409">
        <ele>496.20001220703</ele>
        <time>2026-05-12T08:31:06.000Z</time>
      </trkpt>
      <trkpt lat="45.28859" lon="4.62407">
        <ele>496.39999389648</ele>
        <time>2026-05-12T08:31:07.000Z</time>
      </trkpt>
      <trkpt lat="45.28858" lon="4.62406">
        <ele>496.60000610352</ele>
        <time>2026-05-12T08:31:08.000Z</time>
      </trkpt>
      <trkpt lat="45.28856" lon="4.62405">
        <ele>496.79998779297</ele>
        <time>2026-05-12T08:31:09.000Z</time>
      </trkpt>
      <trkpt lat="45.28855" lon="4.62404">
        <ele>497</ele>
        <time>2026-05-12T08:31:10.000Z</time>
      </trkpt>
      <trkpt lat="45.28854" lon="4.62403">
        <ele>497.20001220703</ele>
        <time>2026-05-12T08:31:11.000Z</time>
      </trkpt>
      <trkpt lat="45.28852" lon="4.62401">
        <ele>497.39999389648</ele>
        <time>2026-05-12T08:31:12.000Z</time>
      </trkpt>
      <trkpt lat="45.28851" lon="4.624">
        <ele>497.60000610352</ele>
        <time>2026-05-12T08:31:13.000Z</time>
      </trkpt>
      <trkpt lat="45.28851" lon="4.62398">
        <ele>497.79998779297</ele>
        <time>2026-05-12T08:31:14.000Z</time>
      </trkpt>
      <trkpt lat="45.28851" lon="4.62397">
        <ele>498</ele>
        <time>2026-05-12T08:31:15.000Z</time>
      </trkpt>
      <trkpt lat="45.28851" lon="4.62394">
        <ele>498.20001220703</ele>
        <time>2026-05-12T08:31:16.000Z</time>
      </trkpt>
      <trkpt lat="45.28852" lon="4.62393">
        <ele>498.39999389648</ele>
        <time>2026-05-12T08:31:17.000Z</time>
      </trkpt>
      <trkpt lat="45.28853" lon="4.62391">
        <ele>498.60000610352</ele>
        <time>2026-05-12T08:31:18.000Z</time>
      </trkpt>
      <trkpt lat="45.28853" lon="4.62389">
        <ele>498.79998779297</ele>
        <time>2026-05-12T08:31:19.000Z</time>
      </trkpt>
      <trkpt lat="45.28854" lon="4.62387">
        <ele>499</ele>
        <time>2026-05-12T08:31:20.000Z</time>
      </trkpt>
      <trkpt lat="45.28855" lon="4.62385">
        <ele>499</ele>
        <time>2026-05-12T08:31:21.000Z</time>
      </trkpt>
      <trkpt lat="45.28856" lon="4.62384">
        <ele>499.20001220703</ele>
        <time>2026-05-12T08:31:22.000Z</time>
      </trkpt>
      <trkpt lat="45.28857" lon="4.62382">
        <ele>499.39999389648</ele>
        <time>2026-05-12T08:31:23.000Z</time>
      </trkpt>
      <trkpt lat="45.28858" lon="4.62381">
        <ele>499.39999389648</ele>
        <time>2026-05-12T08:31:24.000Z</time>
      </trkpt>
      <trkpt lat="45.28859" lon="4.62379">
        <ele>499.60000610352</ele>
        <time>2026-05-12T08:31:25.000Z</time>
      </trkpt>
      <trkpt lat="45.2886" lon="4.62377">
        <ele>499.79998779297</ele>
        <time>2026-05-12T08:31:26.000Z</time>
      </trkpt>
      <trkpt lat="45.28861" lon="4.62375">
        <ele>500</ele>
        <time>2026-05-12T08:31:27.000Z</time>
      </trkpt>
      <trkpt lat="45.28863" lon="4.62373">
        <ele>500</ele>
        <time>2026-05-12T08:31:28.000Z</time>
      </trkpt>
      <trkpt lat="45.28864" lon="4.62371">
        <ele>500.20001220703</ele>
        <time>2026-05-12T08:31:29.000Z</time>
      </trkpt>
      <trkpt lat="45.28865" lon="4.62369">
        <ele>500.39999389648</ele>
        <time>2026-05-12T08:31:30.000Z</time>
      </trkpt>
      <trkpt lat="45.28865" lon="4.62367">
        <ele>500.60000610352</ele>
        <time>2026-05-12T08:31:31.000Z</time>
      </trkpt>
      <trkpt lat="45.28866" lon="4.62365">
        <ele>500.60000610352</ele>
        <time>2026-05-12T08:31:32.000Z</time>
      </trkpt>
      <trkpt lat="45.28867" lon="4.62363">
        <ele>500.79998779297</ele>
        <time>2026-05-12T08:31:33.000Z</time>
      </trkpt>
      <trkpt lat="45.28868" lon="4.62362">
        <ele>501</ele>
        <time>2026-05-12T08:31:34.000Z</time>
      </trkpt>
      <trkpt lat="45.28869" lon="4.6236">
        <ele>501</ele>
        <time>2026-05-12T08:31:35.000Z</time>
      </trkpt>
      <trkpt lat="45.28869" lon="4.62358">
        <ele>501.20001220703</ele>
        <time>2026-05-12T08:31:36.000Z</time>
      </trkpt>
      <trkpt lat="45.2887" lon="4.62357">
        <ele>501.39999389648</ele>
        <time>2026-05-12T08:31:37.000Z</time>
      </trkpt>
      <trkpt lat="45.28871" lon="4.62355">
        <ele>501.60000610352</ele>
        <time>2026-05-12T08:31:38.000Z</time>
      </trkpt>
      <trkpt lat="45.28872" lon="4.62353">
        <ele>501.79998779297</ele>
        <time>2026-05-12T08:31:39.000Z</time>
      </trkpt>
      <trkpt lat="45.28873" lon="4.62351">
        <ele>502</ele>
        <time>2026-05-12T08:31:40.000Z</time>
      </trkpt>
      <trkpt lat="45.28874" lon="4.62349">
        <ele>502</ele>
        <time>2026-05-12T08:31:41.000Z</time>
      </trkpt>
      <trkpt lat="45.28874" lon="4.62347">
        <ele>502.20001220703</ele>
        <time>2026-05-12T08:31:42.000Z</time>
      </trkpt>
      <trkpt lat="45.28875" lon="4.62345">
        <ele>502.39999389648</ele>
        <time>2026-05-12T08:31:43.000Z</time>
      </trkpt>
      <trkpt lat="45.28877" lon="4.62344">
        <ele>502.60000610352</ele>
        <time>2026-05-12T08:31:44.000Z</time>
      </trkpt>
      <trkpt lat="45.28877" lon="4.62342">
        <ele>502.79998779297</ele>
        <time>2026-05-12T08:31:45.000Z</time>
      </trkpt>
      <trkpt lat="45.28878" lon="4.62339">
        <ele>503</ele>
        <time>2026-05-12T08:31:46.000Z</time>
      </trkpt>
      <trkpt lat="45.28879" lon="4.62337">
        <ele>503.20001220703</ele>
        <time>2026-05-12T08:31:47.000Z</time>
      </trkpt>
      <trkpt lat="45.2888" lon="4.62335">
        <ele>503.20001220703</ele>
        <time>2026-05-12T08:31:48.000Z</time>
      </trkpt>
      <trkpt lat="45.28881" lon="4.62334">
        <ele>503.39999389648</ele>
        <time>2026-05-12T08:31:49.000Z</time>
      </trkpt>
      <trkpt lat="45.28882" lon="4.62332">
        <ele>503.60000610352</ele>
        <time>2026-05-12T08:31:50.000Z</time>
      </trkpt>
      <trkpt lat="45.28883" lon="4.6233">
        <ele>503.60000610352</ele>
        <time>2026-05-12T08:31:51.000Z</time>
      </trkpt>
      <trkpt lat="45.28884" lon="4.62328">
        <ele>503.79998779297</ele>
        <time>2026-05-12T08:31:52.000Z</time>
      </trkpt>
      <trkpt lat="45.28884" lon="4.62326">
        <ele>503.79998779297</ele>
        <time>2026-05-12T08:31:53.000Z</time>
      </trkpt>
      <trkpt lat="45.28885" lon="4.62325">
        <ele>504</ele>
        <time>2026-05-12T08:31:54.000Z</time>
      </trkpt>
      <trkpt lat="45.28886" lon="4.62323">
        <ele>504</ele>
        <time>2026-05-12T08:31:55.000Z</time>
      </trkpt>
      <trkpt lat="45.28886" lon="4.62321">
        <ele>504.20001220703</ele>
        <time>2026-05-12T08:31:56.000Z</time>
      </trkpt>
      <trkpt lat="45.28887" lon="4.62319">
        <ele>504.39999389648</ele>
        <time>2026-05-12T08:31:57.000Z</time>
      </trkpt>
      <trkpt lat="45.28888" lon="4.62317">
        <ele>504.39999389648</ele>
        <time>2026-05-12T08:31:58.000Z</time>
      </trkpt>
      <trkpt lat="45.28889" lon="4.62315">
        <ele>504.60000610352</ele>
        <time>2026-05-12T08:31:59.000Z</time>
      </trkpt>
      <trkpt lat="45.2889" lon="4.62313">
        <ele>504.79998779297</ele>
        <time>2026-05-12T08:32:00.000Z</time>
      </trkpt>
      <trkpt lat="45.2889" lon="4.62311">
        <ele>504.79998779297</ele>
        <time>2026-05-12T08:32:01.000Z</time>
      </trkpt>
      <trkpt lat="45.28891" lon="4.6231">
        <ele>505</ele>
        <time>2026-05-12T08:32:02.000Z</time>
      </trkpt>
      <trkpt lat="45.28892" lon="4.62308">
        <ele>505</ele>
        <time>2026-05-12T08:32:03.000Z</time>
      </trkpt>
      <trkpt lat="45.28893" lon="4.62306">
        <ele>505.20001220703</ele>
        <time>2026-05-12T08:32:04.000Z</time>
      </trkpt>
      <trkpt lat="45.28894" lon="4.62304">
        <ele>505.20001220703</ele>
        <time>2026-05-12T08:32:05.000Z</time>
      </trkpt>
      <trkpt lat="45.28895" lon="4.62302">
        <ele>505.39999389648</ele>
        <time>2026-05-12T08:32:06.000Z</time>
      </trkpt>
      <trkpt lat="45.28895" lon="4.62299">
        <ele>505.39999389648</ele>
        <time>2026-05-12T08:32:07.000Z</time>
      </trkpt>
      <trkpt lat="45.28896" lon="4.62297">
        <ele>505.60000610352</ele>
        <time>2026-05-12T08:32:08.000Z</time>
      </trkpt>
      <trkpt lat="45.28897" lon="4.62295">
        <ele>505.60000610352</ele>
        <time>2026-05-12T08:32:09.000Z</time>
      </trkpt>
      <trkpt lat="45.28897" lon="4.62294">
        <ele>505.79998779297</ele>
        <time>2026-05-12T08:32:10.000Z</time>
      </trkpt>
      <trkpt lat="45.28898" lon="4.62292">
        <ele>505.79998779297</ele>
        <time>2026-05-12T08:32:11.000Z</time>
      </trkpt>
      <trkpt lat="45.28898" lon="4.6229">
        <ele>506</ele>
        <time>2026-05-12T08:32:12.000Z</time>
      </trkpt>
      <trkpt lat="45.28899" lon="4.62288">
        <ele>506</ele>
        <time>2026-05-12T08:32:13.000Z</time>
      </trkpt>
      <trkpt lat="45.289" lon="4.62286">
        <ele>506.20001220703</ele>
        <time>2026-05-12T08:32:14.000Z</time>
      </trkpt>
      <trkpt lat="45.289" lon="4.62284">
        <ele>506.39999389648</ele>
        <time>2026-05-12T08:32:15.000Z</time>
      </trkpt>
      <trkpt lat="45.28901" lon="4.62282">
        <ele>506.39999389648</ele>
        <time>2026-05-12T08:32:16.000Z</time>
      </trkpt>
      <trkpt lat="45.28902" lon="4.6228">
        <ele>506.39999389648</ele>
        <time>2026-05-12T08:32:17.000Z</time>
      </trkpt>
      <trkpt lat="45.28903" lon="4.62278">
        <ele>506.60000610352</ele>
        <time>2026-05-12T08:32:18.000Z</time>
      </trkpt>
      <trkpt lat="45.28904" lon="4.62276">
        <ele>506.60000610352</ele>
        <time>2026-05-12T08:32:19.000Z</time>
      </trkpt>
      <trkpt lat="45.28904" lon="4.62275">
        <ele>506.79998779297</ele>
        <time>2026-05-12T08:32:20.000Z</time>
      </trkpt>
      <trkpt lat="45.28905" lon="4.62273">
        <ele>506.79998779297</ele>
        <time>2026-05-12T08:32:21.000Z</time>
      </trkpt>
      <trkpt lat="45.28905" lon="4.62271">
        <ele>507</ele>
        <time>2026-05-12T08:32:22.000Z</time>
      </trkpt>
      <trkpt lat="45.28906" lon="4.62269">
        <ele>507.20001220703</ele>
        <time>2026-05-12T08:32:23.000Z</time>
      </trkpt>
      <trkpt lat="45.28906" lon="4.62267">
        <ele>507.20001220703</ele>
        <time>2026-05-12T08:32:24.000Z</time>
      </trkpt>
      <trkpt lat="45.28907" lon="4.62265">
        <ele>507.39999389648</ele>
        <time>2026-05-12T08:32:25.000Z</time>
      </trkpt>
      <trkpt lat="45.28908" lon="4.62263">
        <ele>507.39999389648</ele>
        <time>2026-05-12T08:32:26.000Z</time>
      </trkpt>
      <trkpt lat="45.28909" lon="4.62261">
        <ele>507.60000610352</ele>
        <time>2026-05-12T08:32:27.000Z</time>
      </trkpt>
      <trkpt lat="45.28909" lon="4.62258">
        <ele>507.60000610352</ele>
        <time>2026-05-12T08:32:28.000Z</time>
      </trkpt>
      <trkpt lat="45.2891" lon="4.62256">
        <ele>507.79998779297</ele>
        <time>2026-05-12T08:32:29.000Z</time>
      </trkpt>
      <trkpt lat="45.2891" lon="4.62254">
        <ele>507.79998779297</ele>
        <time>2026-05-12T08:32:30.000Z</time>
      </trkpt>
      <trkpt lat="45.2891" lon="4.62252">
        <ele>508</ele>
        <time>2026-05-12T08:32:31.000Z</time>
      </trkpt>
      <trkpt lat="45.28911" lon="4.6225">
        <ele>508.20001220703</ele>
        <time>2026-05-12T08:32:32.000Z</time>
      </trkpt>
      <trkpt lat="45.28911" lon="4.62248">
        <ele>508.20001220703</ele>
        <time>2026-05-12T08:32:33.000Z</time>
      </trkpt>
      <trkpt lat="45.28912" lon="4.62246">
        <ele>508.39999389648</ele>
        <time>2026-05-12T08:32:34.000Z</time>
      </trkpt>
      <trkpt lat="45.28912" lon="4.62244">
        <ele>508.60000610352</ele>
        <time>2026-05-12T08:32:35.000Z</time>
      </trkpt>
      <trkpt lat="45.28912" lon="4.62241">
        <ele>508.60000610352</ele>
        <time>2026-05-12T08:32:36.000Z</time>
      </trkpt>
      <trkpt lat="45.28912" lon="4.62239">
        <ele>508.79998779297</ele>
        <time>2026-05-12T08:32:37.000Z</time>
      </trkpt>
      <trkpt lat="45.28913" lon="4.62237">
        <ele>509</ele>
        <time>2026-05-12T08:32:38.000Z</time>
      </trkpt>
      <trkpt lat="45.28913" lon="4.62235">
        <ele>509.20001220703</ele>
        <time>2026-05-12T08:32:39.000Z</time>
      </trkpt>
      <trkpt lat="45.28913" lon="4.62233">
        <ele>509.20001220703</ele>
        <time>2026-05-12T08:32:40.000Z</time>
      </trkpt>
      <trkpt lat="45.28913" lon="4.62232">
        <ele>509.39999389648</ele>
        <time>2026-05-12T08:32:41.000Z</time>
      </trkpt>
      <trkpt lat="45.28913" lon="4.6223">
        <ele>509.60000610352</ele>
        <time>2026-05-12T08:32:42.000Z</time>
      </trkpt>
      <trkpt lat="45.28913" lon="4.62228">
        <ele>509.79998779297</ele>
        <time>2026-05-12T08:32:43.000Z</time>
      </trkpt>
      <trkpt lat="45.28914" lon="4.62225">
        <ele>510</ele>
        <time>2026-05-12T08:32:44.000Z</time>
      </trkpt>
      <trkpt lat="45.28914" lon="4.62223">
        <ele>510.20001220703</ele>
        <time>2026-05-12T08:32:45.000Z</time>
      </trkpt>
      <trkpt lat="45.28915" lon="4.62221">
        <ele>510.20001220703</ele>
        <time>2026-05-12T08:32:46.000Z</time>
      </trkpt>
      <trkpt lat="45.28915" lon="4.62219">
        <ele>510.39999389648</ele>
        <time>2026-05-12T08:32:47.000Z</time>
      </trkpt>
      <trkpt lat="45.28915" lon="4.62217">
        <ele>510.60000610352</ele>
        <time>2026-05-12T08:32:48.000Z</time>
      </trkpt>
      <trkpt lat="45.28915" lon="4.62215">
        <ele>510.79998779297</ele>
        <time>2026-05-12T08:32:49.000Z</time>
      </trkpt>
      <trkpt lat="45.28915" lon="4.62213">
        <ele>510.79998779297</ele>
        <time>2026-05-12T08:32:50.000Z</time>
      </trkpt>
      <trkpt lat="45.28916" lon="4.62211">
        <ele>511</ele>
        <time>2026-05-12T08:32:51.000Z</time>
      </trkpt>
      <trkpt lat="45.28916" lon="4.62208">
        <ele>511.20001220703</ele>
        <time>2026-05-12T08:32:52.000Z</time>
      </trkpt>
      <trkpt lat="45.28917" lon="4.62207">
        <ele>511.20001220703</ele>
        <time>2026-05-12T08:32:53.000Z</time>
      </trkpt>
      <trkpt lat="45.28917" lon="4.62204">
        <ele>511.39999389648</ele>
        <time>2026-05-12T08:32:54.000Z</time>
      </trkpt>
      <trkpt lat="45.28918" lon="4.62203">
        <ele>511.60000610352</ele>
        <time>2026-05-12T08:32:55.000Z</time>
      </trkpt>
      <trkpt lat="45.28918" lon="4.622">
        <ele>511.60000610352</ele>
        <time>2026-05-12T08:32:56.000Z</time>
      </trkpt>
      <trkpt lat="45.28918" lon="4.62198">
        <ele>511.79998779297</ele>
        <time>2026-05-12T08:32:57.000Z</time>
      </trkpt>
      <trkpt lat="45.28919" lon="4.62196">
        <ele>512</ele>
        <time>2026-05-12T08:32:58.000Z</time>
      </trkpt>
      <trkpt lat="45.28919" lon="4.62193">
        <ele>512</ele>
        <time>2026-05-12T08:32:59.000Z</time>
      </trkpt>
      <trkpt lat="45.28919" lon="4.62191">
        <ele>512.20001220703</ele>
        <time>2026-05-12T08:33:00.000Z</time>
      </trkpt>
      <trkpt lat="45.28919" lon="4.62189">
        <ele>512.40002441406</ele>
        <time>2026-05-12T08:33:01.000Z</time>
      </trkpt>
      <trkpt lat="45.28919" lon="4.62187">
        <ele>512.59997558594</ele>
        <time>2026-05-12T08:33:02.000Z</time>
      </trkpt>
      <trkpt lat="45.28919" lon="4.62185">
        <ele>512.59997558594</ele>
        <time>2026-05-12T08:33:03.000Z</time>
      </trkpt>
      <trkpt lat="45.2892" lon="4.62183">
        <ele>512.79998779297</ele>
        <time>2026-05-12T08:33:04.000Z</time>
      </trkpt>
      <trkpt lat="45.2892" lon="4.62181">
        <ele>513</ele>
        <time>2026-05-12T08:33:05.000Z</time>
      </trkpt>
      <trkpt lat="45.2892" lon="4.62179">
        <ele>513.20001220703</ele>
        <time>2026-05-12T08:33:06.000Z</time>
      </trkpt>
      <trkpt lat="45.2892" lon="4.62177">
        <ele>513.20001220703</ele>
        <time>2026-05-12T08:33:07.000Z</time>
      </trkpt>
      <trkpt lat="45.2892" lon="4.62175">
        <ele>513.40002441406</ele>
        <time>2026-05-12T08:33:08.000Z</time>
      </trkpt>
      <trkpt lat="45.2892" lon="4.62173">
        <ele>513.59997558594</ele>
        <time>2026-05-12T08:33:09.000Z</time>
      </trkpt>
      <trkpt lat="45.2892" lon="4.62171">
        <ele>513.79998779297</ele>
        <time>2026-05-12T08:33:10.000Z</time>
      </trkpt>
      <trkpt lat="45.2892" lon="4.62168">
        <ele>513.79998779297</ele>
        <time>2026-05-12T08:33:11.000Z</time>
      </trkpt>
      <trkpt lat="45.2892" lon="4.62166">
        <ele>514</ele>
        <time>2026-05-12T08:33:12.000Z</time>
      </trkpt>
      <trkpt lat="45.2892" lon="4.62164">
        <ele>514.20001220703</ele>
        <time>2026-05-12T08:33:13.000Z</time>
      </trkpt>
      <trkpt lat="45.2892" lon="4.62162">
        <ele>514.40002441406</ele>
        <time>2026-05-12T08:33:14.000Z</time>
      </trkpt>
      <trkpt lat="45.2892" lon="4.6216">
        <ele>514.59997558594</ele>
        <time>2026-05-12T08:33:15.000Z</time>
      </trkpt>
      <trkpt lat="45.2892" lon="4.62158">
        <ele>514.79998779297</ele>
        <time>2026-05-12T08:33:16.000Z</time>
      </trkpt>
      <trkpt lat="45.28919" lon="4.62156">
        <ele>515</ele>
        <time>2026-05-12T08:33:17.000Z</time>
      </trkpt>
      <trkpt lat="45.28919" lon="4.62153">
        <ele>515</ele>
        <time>2026-05-12T08:33:18.000Z</time>
      </trkpt>
      <trkpt lat="45.28919" lon="4.62151">
        <ele>515.20001220703</ele>
        <time>2026-05-12T08:33:19.000Z</time>
      </trkpt>
      <trkpt lat="45.28919" lon="4.62149">
        <ele>515.40002441406</ele>
        <time>2026-05-12T08:33:20.000Z</time>
      </trkpt>
      <trkpt lat="45.28918" lon="4.62147">
        <ele>515.59997558594</ele>
        <time>2026-05-12T08:33:21.000Z</time>
      </trkpt>
      <trkpt lat="45.28917" lon="4.62145">
        <ele>515.79998779297</ele>
        <time>2026-05-12T08:33:22.000Z</time>
      </trkpt>
      <trkpt lat="45.28917" lon="4.62143">
        <ele>515.79998779297</ele>
        <time>2026-05-12T08:33:23.000Z</time>
      </trkpt>
      <trkpt lat="45.28916" lon="4.62141">
        <ele>516</ele>
        <time>2026-05-12T08:33:24.000Z</time>
      </trkpt>
      <trkpt lat="45.28916" lon="4.62139">
        <ele>516.20001220703</ele>
        <time>2026-05-12T08:33:25.000Z</time>
      </trkpt>
      <trkpt lat="45.28915" lon="4.62137">
        <ele>516.40002441406</ele>
        <time>2026-05-12T08:33:26.000Z</time>
      </trkpt>
      <trkpt lat="45.28915" lon="4.62134">
        <ele>516.40002441406</ele>
        <time>2026-05-12T08:33:27.000Z</time>
      </trkpt>
      <trkpt lat="45.28915" lon="4.62132">
        <ele>516.59997558594</ele>
        <time>2026-05-12T08:33:28.000Z</time>
      </trkpt>
      <trkpt lat="45.28914" lon="4.6213">
        <ele>516.79998779297</ele>
        <time>2026-05-12T08:33:29.000Z</time>
      </trkpt>
      <trkpt lat="45.28914" lon="4.62128">
        <ele>516.79998779297</ele>
        <time>2026-05-12T08:33:30.000Z</time>
      </trkpt>
      <trkpt lat="45.28913" lon="4.62126">
        <ele>517</ele>
        <time>2026-05-12T08:33:31.000Z</time>
      </trkpt>
      <trkpt lat="45.28913" lon="4.62124">
        <ele>517.20001220703</ele>
        <time>2026-05-12T08:33:32.000Z</time>
      </trkpt>
      <trkpt lat="45.28912" lon="4.62122">
        <ele>517.20001220703</ele>
        <time>2026-05-12T08:33:33.000Z</time>
      </trkpt>
      <trkpt lat="45.28911" lon="4.6212">
        <ele>517.40002441406</ele>
        <time>2026-05-12T08:33:34.000Z</time>
      </trkpt>
      <trkpt lat="45.2891" lon="4.62118">
        <ele>517.59997558594</ele>
        <time>2026-05-12T08:33:35.000Z</time>
      </trkpt>
      <trkpt lat="45.28909" lon="4.62116">
        <ele>517.79998779297</ele>
        <time>2026-05-12T08:33:36.000Z</time>
      </trkpt>
      <trkpt lat="45.28909" lon="4.62115">
        <ele>517.79998779297</ele>
        <time>2026-05-12T08:33:37.000Z</time>
      </trkpt>
      <trkpt lat="45.28908" lon="4.62113">
        <ele>518</ele>
        <time>2026-05-12T08:33:38.000Z</time>
      </trkpt>
      <trkpt lat="45.28907" lon="4.62112">
        <ele>518.20001220703</ele>
        <time>2026-05-12T08:33:39.000Z</time>
      </trkpt>
      <trkpt lat="45.28906" lon="4.6211">
        <ele>518.40002441406</ele>
        <time>2026-05-12T08:33:40.000Z</time>
      </trkpt>
      <trkpt lat="45.28906" lon="4.62108">
        <ele>518.40002441406</ele>
        <time>2026-05-12T08:33:41.000Z</time>
      </trkpt>
      <trkpt lat="45.28905" lon="4.62106">
        <ele>518.59997558594</ele>
        <time>2026-05-12T08:33:42.000Z</time>
      </trkpt>
      <trkpt lat="45.28904" lon="4.62104">
        <ele>518.79998779297</ele>
        <time>2026-05-12T08:33:43.000Z</time>
      </trkpt>
      <trkpt lat="45.28903" lon="4.62102">
        <ele>518.79998779297</ele>
        <time>2026-05-12T08:33:44.000Z</time>
      </trkpt>
      <trkpt lat="45.28902" lon="4.621">
        <ele>519</ele>
        <time>2026-05-12T08:33:45.000Z</time>
      </trkpt>
      <trkpt lat="45.28901" lon="4.62098">
        <ele>519</ele>
        <time>2026-05-12T08:33:46.000Z</time>
      </trkpt>
      <trkpt lat="45.289" lon="4.62096">
        <ele>519.20001220703</ele>
        <time>2026-05-12T08:33:47.000Z</time>
      </trkpt>
      <trkpt lat="45.28899" lon="4.62095">
        <ele>519.20001220703</ele>
        <time>2026-05-12T08:33:48.000Z</time>
      </trkpt>
      <trkpt lat="45.28898" lon="4.62093">
        <ele>519.40002441406</ele>
        <time>2026-05-12T08:33:49.000Z</time>
      </trkpt>
      <trkpt lat="45.28897" lon="4.62091">
        <ele>519.40002441406</ele>
        <time>2026-05-12T08:33:50.000Z</time>
      </trkpt>
      <trkpt lat="45.28896" lon="4.62089">
        <ele>519.59997558594</ele>
        <time>2026-05-12T08:33:51.000Z</time>
      </trkpt>
      <trkpt lat="45.28896" lon="4.62088">
        <ele>519.79998779297</ele>
        <time>2026-05-12T08:33:52.000Z</time>
      </trkpt>
      <trkpt lat="45.28895" lon="4.62086">
        <ele>519.79998779297</ele>
        <time>2026-05-12T08:33:53.000Z</time>
      </trkpt>
      <trkpt lat="45.28894" lon="4.62084">
        <ele>520</ele>
        <time>2026-05-12T08:33:54.000Z</time>
      </trkpt>
      <trkpt lat="45.28894" lon="4.62082">
        <ele>520.20001220703</ele>
        <time>2026-05-12T08:33:55.000Z</time>
      </trkpt>
      <trkpt lat="45.28893" lon="4.62081">
        <ele>520.20001220703</ele>
        <time>2026-05-12T08:33:56.000Z</time>
      </trkpt>
      <trkpt lat="45.28893" lon="4.62079">
        <ele>520.40002441406</ele>
        <time>2026-05-12T08:33:57.000Z</time>
      </trkpt>
      <trkpt lat="45.28892" lon="4.62077">
        <ele>520.59997558594</ele>
        <time>2026-05-12T08:33:58.000Z</time>
      </trkpt>
      <trkpt lat="45.28892" lon="4.62075">
        <ele>520.59997558594</ele>
        <time>2026-05-12T08:33:59.000Z</time>
      </trkpt>
      <trkpt lat="45.28892" lon="4.62073">
        <ele>520.79998779297</ele>
        <time>2026-05-12T08:34:00.000Z</time>
      </trkpt>
      <trkpt lat="45.28891" lon="4.62071">
        <ele>521</ele>
        <time>2026-05-12T08:34:01.000Z</time>
      </trkpt>
      <trkpt lat="45.28891" lon="4.62069">
        <ele>521</ele>
        <time>2026-05-12T08:34:02.000Z</time>
      </trkpt>
      <trkpt lat="45.2889" lon="4.62067">
        <ele>521</ele>
        <time>2026-05-12T08:34:03.000Z</time>
      </trkpt>
      <trkpt lat="45.2889" lon="4.62065">
        <ele>521.20001220703</ele>
        <time>2026-05-12T08:34:04.000Z</time>
      </trkpt>
      <trkpt lat="45.2889" lon="4.62063">
        <ele>521.40002441406</ele>
        <time>2026-05-12T08:34:05.000Z</time>
      </trkpt>
      <trkpt lat="45.28889" lon="4.62061">
        <ele>521.79998779297</ele>
        <time>2026-05-12T08:34:06.000Z</time>
      </trkpt>
      <trkpt lat="45.28889" lon="4.62059">
        <ele>522.20001220703</ele>
        <time>2026-05-12T08:34:07.000Z</time>
      </trkpt>
      <trkpt lat="45.2889" lon="4.62057">
        <ele>522.40002441406</ele>
        <time>2026-05-12T08:34:08.000Z</time>
      </trkpt>
      <trkpt lat="45.28891" lon="4.62055">
        <ele>522.40002441406</ele>
        <time>2026-05-12T08:34:09.000Z</time>
      </trkpt>
      <trkpt lat="45.28891" lon="4.62054">
        <ele>522.59997558594</ele>
        <time>2026-05-12T08:34:10.000Z</time>
      </trkpt>
      <trkpt lat="45.28891" lon="4.62052">
        <ele>522.79998779297</ele>
        <time>2026-05-12T08:34:11.000Z</time>
      </trkpt>
      <trkpt lat="45.28892" lon="4.62049">
        <ele>522.79998779297</ele>
        <time>2026-05-12T08:34:12.000Z</time>
      </trkpt>
      <trkpt lat="45.28892" lon="4.62047">
        <ele>523</ele>
        <time>2026-05-12T08:34:13.000Z</time>
      </trkpt>
      <trkpt lat="45.28892" lon="4.62045">
        <ele>523.20001220703</ele>
        <time>2026-05-12T08:34:14.000Z</time>
      </trkpt>
      <trkpt lat="45.28891" lon="4.62043">
        <ele>523.40002441406</ele>
        <time>2026-05-12T08:34:15.000Z</time>
      </trkpt>
      <trkpt lat="45.28891" lon="4.62041">
        <ele>523.59997558594</ele>
        <time>2026-05-12T08:34:16.000Z</time>
      </trkpt>
      <trkpt lat="45.28891" lon="4.62039">
        <ele>523.79998779297</ele>
        <time>2026-05-12T08:34:17.000Z</time>
      </trkpt>
      <trkpt lat="45.28891" lon="4.62037">
        <ele>524.20001220703</ele>
        <time>2026-05-12T08:34:18.000Z</time>
      </trkpt>
      <trkpt lat="45.28891" lon="4.62035">
        <ele>524.40002441406</ele>
        <time>2026-05-12T08:34:19.000Z</time>
      </trkpt>
      <trkpt lat="45.28891" lon="4.62033">
        <ele>524.79998779297</ele>
        <time>2026-05-12T08:34:20.000Z</time>
      </trkpt>
      <trkpt lat="45.28891" lon="4.6203">
        <ele>525</ele>
        <time>2026-05-12T08:34:21.000Z</time>
      </trkpt>
      <trkpt lat="45.28891" lon="4.62028">
        <ele>525.40002441406</ele>
        <time>2026-05-12T08:34:22.000Z</time>
      </trkpt>
      <trkpt lat="45.2889" lon="4.62026">
        <ele>525.59997558594</ele>
        <time>2026-05-12T08:34:23.000Z</time>
      </trkpt>
      <trkpt lat="45.2889" lon="4.62024">
        <ele>526</ele>
        <time>2026-05-12T08:34:24.000Z</time>
      </trkpt>
      <trkpt lat="45.2889" lon="4.62022">
        <ele>526.20001220703</ele>
        <time>2026-05-12T08:34:25.000Z</time>
      </trkpt>
      <trkpt lat="45.28889" lon="4.6202">
        <ele>526.40002441406</ele>
        <time>2026-05-12T08:34:26.000Z</time>
      </trkpt>
      <trkpt lat="45.28889" lon="4.62019">
        <ele>526.59997558594</ele>
        <time>2026-05-12T08:34:27.000Z</time>
      </trkpt>
      <trkpt lat="45.28888" lon="4.62017">
        <ele>526.79998779297</ele>
        <time>2026-05-12T08:34:28.000Z</time>
      </trkpt>
      <trkpt lat="45.28887" lon="4.62015">
        <ele>527</ele>
        <time>2026-05-12T08:34:29.000Z</time>
      </trkpt>
      <trkpt lat="45.28886" lon="4.62013">
        <ele>527.40002441406</ele>
        <time>2026-05-12T08:34:30.000Z</time>
      </trkpt>
      <trkpt lat="45.28886" lon="4.62011">
        <ele>527.79998779297</ele>
        <time>2026-05-12T08:34:31.000Z</time>
      </trkpt>
      <trkpt lat="45.28886" lon="4.62009">
        <ele>528</ele>
        <time>2026-05-12T08:34:32.000Z</time>
      </trkpt>
      <trkpt lat="45.28885" lon="4.62007">
        <ele>528.20001220703</ele>
        <time>2026-05-12T08:34:33.000Z</time>
      </trkpt>
      <trkpt lat="45.28885" lon="4.62005">
        <ele>528.40002441406</ele>
        <time>2026-05-12T08:34:34.000Z</time>
      </trkpt>
      <trkpt lat="45.28885" lon="4.62002">
        <ele>528.59997558594</ele>
        <time>2026-05-12T08:34:35.000Z</time>
      </trkpt>
      <trkpt lat="45.28885" lon="4.62">
        <ele>528.79998779297</ele>
        <time>2026-05-12T08:34:36.000Z</time>
      </trkpt>
      <trkpt lat="45.28885" lon="4.61998">
        <ele>529</ele>
        <time>2026-05-12T08:34:37.000Z</time>
      </trkpt>
      <trkpt lat="45.28884" lon="4.61996">
        <ele>529.20001220703</ele>
        <time>2026-05-12T08:34:38.000Z</time>
      </trkpt>
      <trkpt lat="45.28884" lon="4.61994">
        <ele>529.40002441406</ele>
        <time>2026-05-12T08:34:39.000Z</time>
      </trkpt>
      <trkpt lat="45.28884" lon="4.61992">
        <ele>529.59997558594</ele>
        <time>2026-05-12T08:34:40.000Z</time>
      </trkpt>
      <trkpt lat="45.28884" lon="4.6199">
        <ele>530</ele>
        <time>2026-05-12T08:34:41.000Z</time>
      </trkpt>
      <trkpt lat="45.28883" lon="4.61988">
        <ele>530.20001220703</ele>
        <time>2026-05-12T08:34:42.000Z</time>
      </trkpt>
      <trkpt lat="45.28882" lon="4.61985">
        <ele>530.59997558594</ele>
        <time>2026-05-12T08:34:43.000Z</time>
      </trkpt>
      <trkpt lat="45.28882" lon="4.61984">
        <ele>530.79998779297</ele>
        <time>2026-05-12T08:34:44.000Z</time>
      </trkpt>
      <trkpt lat="45.28881" lon="4.61981">
        <ele>531.20001220703</ele>
        <time>2026-05-12T08:34:45.000Z</time>
      </trkpt>
      <trkpt lat="45.2888" lon="4.61979">
        <ele>531.59997558594</ele>
        <time>2026-05-12T08:34:46.000Z</time>
      </trkpt>
      <trkpt lat="45.2888" lon="4.61977">
        <ele>531.79998779297</ele>
        <time>2026-05-12T08:34:47.000Z</time>
      </trkpt>
      <trkpt lat="45.28879" lon="4.61975">
        <ele>532.20001220703</ele>
        <time>2026-05-12T08:34:48.000Z</time>
      </trkpt>
      <trkpt lat="45.28879" lon="4.61973">
        <ele>532.59997558594</ele>
        <time>2026-05-12T08:34:49.000Z</time>
      </trkpt>
      <trkpt lat="45.28878" lon="4.61971">
        <ele>532.79998779297</ele>
        <time>2026-05-12T08:34:50.000Z</time>
      </trkpt>
      <trkpt lat="45.28877" lon="4.6197">
        <ele>533</ele>
        <time>2026-05-12T08:34:51.000Z</time>
      </trkpt>
      <trkpt lat="45.28876" lon="4.61968">
        <ele>533.40002441406</ele>
        <time>2026-05-12T08:34:52.000Z</time>
      </trkpt>
      <trkpt lat="45.28876" lon="4.61966">
        <ele>533.59997558594</ele>
        <time>2026-05-12T08:34:53.000Z</time>
      </trkpt>
      <trkpt lat="45.28874" lon="4.61965">
        <ele>534</ele>
        <time>2026-05-12T08:34:54.000Z</time>
      </trkpt>
      <trkpt lat="45.28873" lon="4.61963">
        <ele>534.20001220703</ele>
        <time>2026-05-12T08:34:55.000Z</time>
      </trkpt>
      <trkpt lat="45.28872" lon="4.61962">
        <ele>534.40002441406</ele>
        <time>2026-05-12T08:34:56.000Z</time>
      </trkpt>
      <trkpt lat="45.28871" lon="4.61961">
        <ele>534.59997558594</ele>
        <time>2026-05-12T08:34:57.000Z</time>
      </trkpt>
      <trkpt lat="45.2887" lon="4.61959">
        <ele>534.79998779297</ele>
        <time>2026-05-12T08:34:58.000Z</time>
      </trkpt>
      <trkpt lat="45.28868" lon="4.61958">
        <ele>535</ele>
        <time>2026-05-12T08:34:59.000Z</time>
      </trkpt>
      <trkpt lat="45.28867" lon="4.61957">
        <ele>535.20001220703</ele>
        <time>2026-05-12T08:35:00.000Z</time>
      </trkpt>
      <trkpt lat="45.28865" lon="4.61956">
        <ele>535.40002441406</ele>
        <time>2026-05-12T08:35:01.000Z</time>
      </trkpt>
      <trkpt lat="45.28864" lon="4.61956">
        <ele>535.59997558594</ele>
        <time>2026-05-12T08:35:02.000Z</time>
      </trkpt>
      <trkpt lat="45.28863" lon="4.61955">
        <ele>535.79998779297</ele>
        <time>2026-05-12T08:35:03.000Z</time>
      </trkpt>
      <trkpt lat="45.28861" lon="4.61954">
        <ele>536</ele>
        <time>2026-05-12T08:35:04.000Z</time>
      </trkpt>
      <trkpt lat="45.2886" lon="4.61952">
        <ele>536.20001220703</ele>
        <time>2026-05-12T08:35:05.000Z</time>
      </trkpt>
      <trkpt lat="45.28859" lon="4.61951">
        <ele>536.20001220703</ele>
        <time>2026-05-12T08:35:06.000Z</time>
      </trkpt>
      <trkpt lat="45.28858" lon="4.61949">
        <ele>536.40002441406</ele>
        <time>2026-05-12T08:35:07.000Z</time>
      </trkpt>
      <trkpt lat="45.28856" lon="4.61948">
        <ele>536.59997558594</ele>
        <time>2026-05-12T08:35:08.000Z</time>
      </trkpt>
      <trkpt lat="45.28855" lon="4.61947">
        <ele>536.79998779297</ele>
        <time>2026-05-12T08:35:09.000Z</time>
      </trkpt>
      <trkpt lat="45.28854" lon="4.61945">
        <ele>537</ele>
        <time>2026-05-12T08:35:10.000Z</time>
      </trkpt>
      <trkpt lat="45.28853" lon="4.61944">
        <ele>537.20001220703</ele>
        <time>2026-05-12T08:35:11.000Z</time>
      </trkpt>
      <trkpt lat="45.28853" lon="4.61942">
        <ele>537.40002441406</ele>
        <time>2026-05-12T08:35:12.000Z</time>
      </trkpt>
      <trkpt lat="45.28852" lon="4.61941">
        <ele>537.59997558594</ele>
        <time>2026-05-12T08:35:13.000Z</time>
      </trkpt>
      <trkpt lat="45.28851" lon="4.61939">
        <ele>537.79998779297</ele>
        <time>2026-05-12T08:35:14.000Z</time>
      </trkpt>
      <trkpt lat="45.28851" lon="4.61936">
        <ele>538</ele>
        <time>2026-05-12T08:35:15.000Z</time>
      </trkpt>
      <trkpt lat="45.28851" lon="4.61934">
        <ele>538.20001220703</ele>
        <time>2026-05-12T08:35:16.000Z</time>
      </trkpt>
      <trkpt lat="45.28851" lon="4.61932">
        <ele>538.59997558594</ele>
        <time>2026-05-12T08:35:17.000Z</time>
      </trkpt>
      <trkpt lat="45.28852" lon="4.6193">
        <ele>538.79998779297</ele>
        <time>2026-05-12T08:35:18.000Z</time>
      </trkpt>
      <trkpt lat="45.28853" lon="4.61928">
        <ele>539</ele>
        <time>2026-05-12T08:35:19.000Z</time>
      </trkpt>
      <trkpt lat="45.28855" lon="4.61927">
        <ele>539.40002441406</ele>
        <time>2026-05-12T08:35:20.000Z</time>
      </trkpt>
      <trkpt lat="45.28856" lon="4.61925">
        <ele>539.59997558594</ele>
        <time>2026-05-12T08:35:21.000Z</time>
      </trkpt>
      <trkpt lat="45.28857" lon="4.61924">
        <ele>539.79998779297</ele>
        <time>2026-05-12T08:35:22.000Z</time>
      </trkpt>
      <trkpt lat="45.28858" lon="4.61922">
        <ele>540</ele>
        <time>2026-05-12T08:35:23.000Z</time>
      </trkpt>
      <trkpt lat="45.28859" lon="4.61921">
        <ele>540.20001220703</ele>
        <time>2026-05-12T08:35:24.000Z</time>
      </trkpt>
      <trkpt lat="45.2886" lon="4.61919">
        <ele>540.40002441406</ele>
        <time>2026-05-12T08:35:25.000Z</time>
      </trkpt>
      <trkpt lat="45.28861" lon="4.61918">
        <ele>540.59997558594</ele>
        <time>2026-05-12T08:35:26.000Z</time>
      </trkpt>
      <trkpt lat="45.28862" lon="4.61917">
        <ele>540.79998779297</ele>
        <time>2026-05-12T08:35:27.000Z</time>
      </trkpt>
      <trkpt lat="45.28864" lon="4.61914">
        <ele>541.20001220703</ele>
        <time>2026-05-12T08:35:28.000Z</time>
      </trkpt>
      <trkpt lat="45.28864" lon="4.61912">
        <ele>541.40002441406</ele>
        <time>2026-05-12T08:35:29.000Z</time>
      </trkpt>
      <trkpt lat="45.28866" lon="4.61911">
        <ele>541.59997558594</ele>
        <time>2026-05-12T08:35:30.000Z</time>
      </trkpt>
      <trkpt lat="45.28868" lon="4.61909">
        <ele>541.59997558594</ele>
        <time>2026-05-12T08:35:31.000Z</time>
      </trkpt>
      <trkpt lat="45.28869" lon="4.61907">
        <ele>542</ele>
        <time>2026-05-12T08:35:32.000Z</time>
      </trkpt>
      <trkpt lat="45.28871" lon="4.61907">
        <ele>542.20001220703</ele>
        <time>2026-05-12T08:35:33.000Z</time>
      </trkpt>
      <trkpt lat="45.28872" lon="4.61906">
        <ele>542.40002441406</ele>
        <time>2026-05-12T08:35:34.000Z</time>
      </trkpt>
      <trkpt lat="45.28873" lon="4.61905">
        <ele>542.59997558594</ele>
        <time>2026-05-12T08:35:35.000Z</time>
      </trkpt>
      <trkpt lat="45.28874" lon="4.61904">
        <ele>542.79998779297</ele>
        <time>2026-05-12T08:35:36.000Z</time>
      </trkpt>
      <trkpt lat="45.28875" lon="4.61903">
        <ele>543</ele>
        <time>2026-05-12T08:35:37.000Z</time>
      </trkpt>
      <trkpt lat="45.28877" lon="4.61902">
        <ele>543.20001220703</ele>
        <time>2026-05-12T08:35:38.000Z</time>
      </trkpt>
      <trkpt lat="45.28878" lon="4.61901">
        <ele>543.59997558594</ele>
        <time>2026-05-12T08:35:39.000Z</time>
      </trkpt>
      <trkpt lat="45.2888" lon="4.619">
        <ele>543.79998779297</ele>
        <time>2026-05-12T08:35:40.000Z</time>
      </trkpt>
      <trkpt lat="45.28881" lon="4.61899">
        <ele>544.20001220703</ele>
        <time>2026-05-12T08:35:41.000Z</time>
      </trkpt>
      <trkpt lat="45.28883" lon="4.61898">
        <ele>544.40002441406</ele>
        <time>2026-05-12T08:35:42.000Z</time>
      </trkpt>
      <trkpt lat="45.28884" lon="4.61897">
        <ele>544.79998779297</ele>
        <time>2026-05-12T08:35:43.000Z</time>
      </trkpt>
      <trkpt lat="45.28886" lon="4.61896">
        <ele>545</ele>
        <time>2026-05-12T08:35:44.000Z</time>
      </trkpt>
      <trkpt lat="45.28887" lon="4.61896">
        <ele>545.20001220703</ele>
        <time>2026-05-12T08:35:45.000Z</time>
      </trkpt>
      <trkpt lat="45.28889" lon="4.61895">
        <ele>545.59997558594</ele>
        <time>2026-05-12T08:35:46.000Z</time>
      </trkpt>
      <trkpt lat="45.2889" lon="4.61894">
        <ele>545.79998779297</ele>
        <time>2026-05-12T08:35:47.000Z</time>
      </trkpt>
      <trkpt lat="45.28892" lon="4.61893">
        <ele>546.20001220703</ele>
        <time>2026-05-12T08:35:48.000Z</time>
      </trkpt>
      <trkpt lat="45.28893" lon="4.61892">
        <ele>546.40002441406</ele>
        <time>2026-05-12T08:35:49.000Z</time>
      </trkpt>
      <trkpt lat="45.28894" lon="4.6189">
        <ele>546.79998779297</ele>
        <time>2026-05-12T08:35:50.000Z</time>
      </trkpt>
      <trkpt lat="45.28895" lon="4.61889">
        <ele>547</ele>
        <time>2026-05-12T08:35:51.000Z</time>
      </trkpt>
      <trkpt lat="45.28897" lon="4.61887">
        <ele>547.20001220703</ele>
        <time>2026-05-12T08:35:52.000Z</time>
      </trkpt>
      <trkpt lat="45.28898" lon="4.61886">
        <ele>547.40002441406</ele>
        <time>2026-05-12T08:35:53.000Z</time>
      </trkpt>
      <trkpt lat="45.28898" lon="4.61884">
        <ele>547.59997558594</ele>
        <time>2026-05-12T08:35:54.000Z</time>
      </trkpt>
      <trkpt lat="45.28899" lon="4.61882">
        <ele>547.79998779297</ele>
        <time>2026-05-12T08:35:55.000Z</time>
      </trkpt>
      <trkpt lat="45.28899" lon="4.6188">
        <ele>548</ele>
        <time>2026-05-12T08:35:56.000Z</time>
      </trkpt>
      <trkpt lat="45.289" lon="4.61878">
        <ele>548.40002441406</ele>
        <time>2026-05-12T08:35:57.000Z</time>
      </trkpt>
      <trkpt lat="45.289" lon="4.61876">
        <ele>548.59997558594</ele>
        <time>2026-05-12T08:35:58.000Z</time>
      </trkpt>
      <trkpt lat="45.28901" lon="4.61873">
        <ele>548.79998779297</ele>
        <time>2026-05-12T08:35:59.000Z</time>
      </trkpt>
      <trkpt lat="45.28901" lon="4.61871">
        <ele>549</ele>
        <time>2026-05-12T08:36:00.000Z</time>
      </trkpt>
      <trkpt lat="45.28901" lon="4.61869">
        <ele>549.20001220703</ele>
        <time>2026-05-12T08:36:01.000Z</time>
      </trkpt>
      <trkpt lat="45.28901" lon="4.61867">
        <ele>549.40002441406</ele>
        <time>2026-05-12T08:36:02.000Z</time>
      </trkpt>
      <trkpt lat="45.28901" lon="4.61865">
        <ele>549.59997558594</ele>
        <time>2026-05-12T08:36:03.000Z</time>
      </trkpt>
      <trkpt lat="45.289" lon="4.61863">
        <ele>549.79998779297</ele>
        <time>2026-05-12T08:36:04.000Z</time>
      </trkpt>
      <trkpt lat="45.289" lon="4.6186">
        <ele>550</ele>
        <time>2026-05-12T08:36:05.000Z</time>
      </trkpt>
      <trkpt lat="45.289" lon="4.61858">
        <ele>550.20001220703</ele>
        <time>2026-05-12T08:36:06.000Z</time>
      </trkpt>
      <trkpt lat="45.28899" lon="4.61856">
        <ele>550.40002441406</ele>
        <time>2026-05-12T08:36:07.000Z</time>
      </trkpt>
      <trkpt lat="45.28899" lon="4.61854">
        <ele>550.40002441406</ele>
        <time>2026-05-12T08:36:08.000Z</time>
      </trkpt>
      <trkpt lat="45.28898" lon="4.61851">
        <ele>550.59997558594</ele>
        <time>2026-05-12T08:36:09.000Z</time>
      </trkpt>
      <trkpt lat="45.28898" lon="4.61849">
        <ele>550.79998779297</ele>
        <time>2026-05-12T08:36:10.000Z</time>
      </trkpt>
      <trkpt lat="45.28897" lon="4.61847">
        <ele>550.79998779297</ele>
        <time>2026-05-12T08:36:11.000Z</time>
      </trkpt>
      <trkpt lat="45.28896" lon="4.61845">
        <ele>551</ele>
        <time>2026-05-12T08:36:12.000Z</time>
      </trkpt>
      <trkpt lat="45.28895" lon="4.61842">
        <ele>551</ele>
        <time>2026-05-12T08:36:13.000Z</time>
      </trkpt>
      <trkpt lat="45.28895" lon="4.6184">
        <ele>551.20001220703</ele>
        <time>2026-05-12T08:36:14.000Z</time>
      </trkpt>
      <trkpt lat="45.28894" lon="4.61838">
        <ele>551.20001220703</ele>
        <time>2026-05-12T08:36:15.000Z</time>
      </trkpt>
      <trkpt lat="45.28893" lon="4.61836">
        <ele>551.40002441406</ele>
        <time>2026-05-12T08:36:16.000Z</time>
      </trkpt>
      <trkpt lat="45.28892" lon="4.61834">
        <ele>551.59997558594</ele>
        <time>2026-05-12T08:36:17.000Z</time>
      </trkpt>
      <trkpt lat="45.28891" lon="4.61831">
        <ele>551.59997558594</ele>
        <time>2026-05-12T08:36:18.000Z</time>
      </trkpt>
      <trkpt lat="45.2889" lon="4.61829">
        <ele>551.79998779297</ele>
        <time>2026-05-12T08:36:19.000Z</time>
      </trkpt>
      <trkpt lat="45.28889" lon="4.61827">
        <ele>551.79998779297</ele>
        <time>2026-05-12T08:36:20.000Z</time>
      </trkpt>
      <trkpt lat="45.28888" lon="4.61825">
        <ele>552</ele>
        <time>2026-05-12T08:36:21.000Z</time>
      </trkpt>
      <trkpt lat="45.28887" lon="4.61823">
        <ele>552</ele>
        <time>2026-05-12T08:36:22.000Z</time>
      </trkpt>
      <trkpt lat="45.28887" lon="4.61821">
        <ele>552</ele>
        <time>2026-05-12T08:36:23.000Z</time>
      </trkpt>
      <trkpt lat="45.28887" lon="4.61819">
        <ele>552.20001220703</ele>
        <time>2026-05-12T08:36:24.000Z</time>
      </trkpt>
      <trkpt lat="45.28886" lon="4.61818">
        <ele>552.20001220703</ele>
        <time>2026-05-12T08:36:25.000Z</time>
      </trkpt>
      <trkpt lat="45.28885" lon="4.61816">
        <ele>552.40002441406</ele>
        <time>2026-05-12T08:36:26.000Z</time>
      </trkpt>
      <trkpt lat="45.28885" lon="4.61813">
        <ele>552.40002441406</ele>
        <time>2026-05-12T08:36:27.000Z</time>
      </trkpt>
      <trkpt lat="45.28883" lon="4.61811">
        <ele>552.59997558594</ele>
        <time>2026-05-12T08:36:28.000Z</time>
      </trkpt>
      <trkpt lat="45.28883" lon="4.61809">
        <ele>552.79998779297</ele>
        <time>2026-05-12T08:36:29.000Z</time>
      </trkpt>
      <trkpt lat="45.28882" lon="4.61807">
        <ele>552.79998779297</ele>
        <time>2026-05-12T08:36:30.000Z</time>
      </trkpt>
      <trkpt lat="45.28882" lon="4.61806">
        <ele>553</ele>
        <time>2026-05-12T08:36:31.000Z</time>
      </trkpt>
      <trkpt lat="45.28881" lon="4.61804">
        <ele>553.20001220703</ele>
        <time>2026-05-12T08:36:32.000Z</time>
      </trkpt>
      <trkpt lat="45.2888" lon="4.61803">
        <ele>553.40002441406</ele>
        <time>2026-05-12T08:36:33.000Z</time>
      </trkpt>
      <trkpt lat="45.2888" lon="4.61801">
        <ele>553.59997558594</ele>
        <time>2026-05-12T08:36:34.000Z</time>
      </trkpt>
      <trkpt lat="45.28879" lon="4.61799">
        <ele>553.79998779297</ele>
        <time>2026-05-12T08:36:35.000Z</time>
      </trkpt>
      <trkpt lat="45.28879" lon="4.61797">
        <ele>554</ele>
        <time>2026-05-12T08:36:36.000Z</time>
      </trkpt>
      <trkpt lat="45.28878" lon="4.61795">
        <ele>554.20001220703</ele>
        <time>2026-05-12T08:36:37.000Z</time>
      </trkpt>
      <trkpt lat="45.28878" lon="4.61793">
        <ele>554.20001220703</ele>
        <time>2026-05-12T08:36:38.000Z</time>
      </trkpt>
      <trkpt lat="45.28877" lon="4.61791">
        <ele>554.40002441406</ele>
        <time>2026-05-12T08:36:39.000Z</time>
      </trkpt>
      <trkpt lat="45.28877" lon="4.61788">
        <ele>554.59997558594</ele>
        <time>2026-05-12T08:36:40.000Z</time>
      </trkpt>
      <trkpt lat="45.28876" lon="4.61786">
        <ele>554.79998779297</ele>
        <time>2026-05-12T08:36:41.000Z</time>
      </trkpt>
      <trkpt lat="45.28876" lon="4.61784">
        <ele>555</ele>
        <time>2026-05-12T08:36:42.000Z</time>
      </trkpt>
      <trkpt lat="45.28876" lon="4.61783">
        <ele>555.20001220703</ele>
        <time>2026-05-12T08:36:43.000Z</time>
      </trkpt>
      <trkpt lat="45.28875" lon="4.61782">
        <ele>555.40002441406</ele>
        <time>2026-05-12T08:36:44.000Z</time>
      </trkpt>
      <trkpt lat="45.28875" lon="4.6178">
        <ele>555.40002441406</ele>
        <time>2026-05-12T08:36:45.000Z</time>
      </trkpt>
      <trkpt lat="45.28875" lon="4.61778">
        <ele>555.59997558594</ele>
        <time>2026-05-12T08:36:46.000Z</time>
      </trkpt>
      <trkpt lat="45.28874" lon="4.61776">
        <ele>555.79998779297</ele>
        <time>2026-05-12T08:36:47.000Z</time>
      </trkpt>
      <trkpt lat="45.28874" lon="4.61773">
        <ele>555.79998779297</ele>
        <time>2026-05-12T08:36:48.000Z</time>
      </trkpt>
      <trkpt lat="45.28873" lon="4.61771">
        <ele>556</ele>
        <time>2026-05-12T08:36:49.000Z</time>
      </trkpt>
      <trkpt lat="45.28873" lon="4.61769">
        <ele>556.20001220703</ele>
        <time>2026-05-12T08:36:50.000Z</time>
      </trkpt>
      <trkpt lat="45.28872" lon="4.61767">
        <ele>556.20001220703</ele>
        <time>2026-05-12T08:36:51.000Z</time>
      </trkpt>
      <trkpt lat="45.28871" lon="4.61765">
        <ele>556.40002441406</ele>
        <time>2026-05-12T08:36:52.000Z</time>
      </trkpt>
      <trkpt lat="45.2887" lon="4.61763">
        <ele>556.40002441406</ele>
        <time>2026-05-12T08:36:53.000Z</time>
      </trkpt>
      <trkpt lat="45.28869" lon="4.61761">
        <ele>556.59997558594</ele>
        <time>2026-05-12T08:36:54.000Z</time>
      </trkpt>
      <trkpt lat="45.28868" lon="4.6176">
        <ele>556.59997558594</ele>
        <time>2026-05-12T08:36:55.000Z</time>
      </trkpt>
      <trkpt lat="45.28867" lon="4.61758">
        <ele>556.79998779297</ele>
        <time>2026-05-12T08:36:56.000Z</time>
      </trkpt>
      <trkpt lat="45.28866" lon="4.61756">
        <ele>556.79998779297</ele>
        <time>2026-05-12T08:36:57.000Z</time>
      </trkpt>
      <trkpt lat="45.28866" lon="4.61753">
        <ele>557</ele>
        <time>2026-05-12T08:36:58.000Z</time>
      </trkpt>
      <trkpt lat="45.28866" lon="4.61751">
        <ele>557</ele>
        <time>2026-05-12T08:36:59.000Z</time>
      </trkpt>
      <trkpt lat="45.28865" lon="4.61749">
        <ele>557.20001220703</ele>
        <time>2026-05-12T08:37:00.000Z</time>
      </trkpt>
      <trkpt lat="45.28865" lon="4.61746">
        <ele>557.20001220703</ele>
        <time>2026-05-12T08:37:01.000Z</time>
      </trkpt>
      <trkpt lat="45.28865" lon="4.61744">
        <ele>557.40002441406</ele>
        <time>2026-05-12T08:37:02.000Z</time>
      </trkpt>
      <trkpt lat="45.28864" lon="4.61741">
        <ele>557.40002441406</ele>
        <time>2026-05-12T08:37:03.000Z</time>
      </trkpt>
      <trkpt lat="45.28863" lon="4.61739">
        <ele>557.59997558594</ele>
        <time>2026-05-12T08:37:04.000Z</time>
      </trkpt>
      <trkpt lat="45.28862" lon="4.61736">
        <ele>557.59997558594</ele>
        <time>2026-05-12T08:37:05.000Z</time>
      </trkpt>
      <trkpt lat="45.28862" lon="4.61734">
        <ele>557.59997558594</ele>
        <time>2026-05-12T08:37:06.000Z</time>
      </trkpt>
      <trkpt lat="45.28861" lon="4.61733">
        <ele>557.79998779297</ele>
        <time>2026-05-12T08:37:07.000Z</time>
      </trkpt>
      <trkpt lat="45.28861" lon="4.61731">
        <ele>557.79998779297</ele>
        <time>2026-05-12T08:37:08.000Z</time>
      </trkpt>
      <trkpt lat="45.2886" lon="4.61729">
        <ele>557.79998779297</ele>
        <time>2026-05-12T08:37:09.000Z</time>
      </trkpt>
      <trkpt lat="45.2886" lon="4.61727">
        <ele>557.79998779297</ele>
        <time>2026-05-12T08:37:10.000Z</time>
      </trkpt>
      <trkpt lat="45.28859" lon="4.61725">
        <ele>558</ele>
        <time>2026-05-12T08:37:11.000Z</time>
      </trkpt>
      <trkpt lat="45.28858" lon="4.61724">
        <ele>558</ele>
        <time>2026-05-12T08:37:12.000Z</time>
      </trkpt>
      <trkpt lat="45.28857" lon="4.61722">
        <ele>558</ele>
        <time>2026-05-12T08:37:13.000Z</time>
      </trkpt>
      <trkpt lat="45.28857" lon="4.6172">
        <ele>558.20001220703</ele>
        <time>2026-05-12T08:37:14.000Z</time>
      </trkpt>
      <trkpt lat="45.28857" lon="4.61717">
        <ele>558.20001220703</ele>
        <time>2026-05-12T08:37:15.000Z</time>
      </trkpt>
      <trkpt lat="45.28856" lon="4.61715">
        <ele>558.40002441406</ele>
        <time>2026-05-12T08:37:16.000Z</time>
      </trkpt>
      <trkpt lat="45.28856" lon="4.61713">
        <ele>558.40002441406</ele>
        <time>2026-05-12T08:37:17.000Z</time>
      </trkpt>
      <trkpt lat="45.28856" lon="4.6171">
        <ele>558.40002441406</ele>
        <time>2026-05-12T08:37:18.000Z</time>
      </trkpt>
      <trkpt lat="45.28855" lon="4.61709">
        <ele>558.59997558594</ele>
        <time>2026-05-12T08:37:19.000Z</time>
      </trkpt>
      <trkpt lat="45.28855" lon="4.61707">
        <ele>558.59997558594</ele>
        <time>2026-05-12T08:37:20.000Z</time>
      </trkpt>
      <trkpt lat="45.28854" lon="4.61704">
        <ele>558.79998779297</ele>
        <time>2026-05-12T08:37:21.000Z</time>
      </trkpt>
      <trkpt lat="45.28854" lon="4.61703">
        <ele>558.79998779297</ele>
        <time>2026-05-12T08:37:22.000Z</time>
      </trkpt>
      <trkpt lat="45.28853" lon="4.61701">
        <ele>559</ele>
        <time>2026-05-12T08:37:23.000Z</time>
      </trkpt>
      <trkpt lat="45.28852" lon="4.61699">
        <ele>559</ele>
        <time>2026-05-12T08:37:24.000Z</time>
      </trkpt>
      <trkpt lat="45.28851" lon="4.61697">
        <ele>559</ele>
        <time>2026-05-12T08:37:25.000Z</time>
      </trkpt>
      <trkpt lat="45.2885" lon="4.61696">
        <ele>559.20001220703</ele>
        <time>2026-05-12T08:37:26.000Z</time>
      </trkpt>
      <trkpt lat="45.28849" lon="4.61694">
        <ele>559.20001220703</ele>
        <time>2026-05-12T08:37:27.000Z</time>
      </trkpt>
      <trkpt lat="45.28849" lon="4.61692">
        <ele>559.20001220703</ele>
        <time>2026-05-12T08:37:28.000Z</time>
      </trkpt>
      <trkpt lat="45.28848" lon="4.6169">
        <ele>559.40002441406</ele>
        <time>2026-05-12T08:37:29.000Z</time>
      </trkpt>
      <trkpt lat="45.28848" lon="4.61688">
        <ele>559.40002441406</ele>
        <time>2026-05-12T08:37:30.000Z</time>
      </trkpt>
      <trkpt lat="45.28847" lon="4.61686">
        <ele>559.40002441406</ele>
        <time>2026-05-12T08:37:31.000Z</time>
      </trkpt>
      <trkpt lat="45.28846" lon="4.61684">
        <ele>559.40002441406</ele>
        <time>2026-05-12T08:37:32.000Z</time>
      </trkpt>
      <trkpt lat="45.28846" lon="4.61682">
        <ele>559.59997558594</ele>
        <time>2026-05-12T08:37:33.000Z</time>
      </trkpt>
      <trkpt lat="45.28845" lon="4.6168">
        <ele>559.59997558594</ele>
        <time>2026-05-12T08:37:34.000Z</time>
      </trkpt>
      <trkpt lat="45.28844" lon="4.61678">
        <ele>559.59997558594</ele>
        <time>2026-05-12T08:37:35.000Z</time>
      </trkpt>
      <trkpt lat="45.28844" lon="4.61676">
        <ele>559.79998779297</ele>
        <time>2026-05-12T08:37:36.000Z</time>
      </trkpt>
      <trkpt lat="45.28843" lon="4.61674">
        <ele>559.79998779297</ele>
        <time>2026-05-12T08:37:37.000Z</time>
      </trkpt>
      <trkpt lat="45.28842" lon="4.61672">
        <ele>559.79998779297</ele>
        <time>2026-05-12T08:37:38.000Z</time>
      </trkpt>
      <trkpt lat="45.28841" lon="4.6167">
        <ele>560</ele>
        <time>2026-05-12T08:37:39.000Z</time>
      </trkpt>
      <trkpt lat="45.2884" lon="4.61668">
        <ele>560</ele>
        <time>2026-05-12T08:37:40.000Z</time>
      </trkpt>
      <trkpt lat="45.28839" lon="4.61666">
        <ele>560.20001220703</ele>
        <time>2026-05-12T08:37:41.000Z</time>
      </trkpt>
      <trkpt lat="45.28839" lon="4.61664">
        <ele>560.20001220703</ele>
        <time>2026-05-12T08:37:42.000Z</time>
      </trkpt>
      <trkpt lat="45.28838" lon="4.61662">
        <ele>560.20001220703</ele>
        <time>2026-05-12T08:37:43.000Z</time>
      </trkpt>
      <trkpt lat="45.28838" lon="4.61659">
        <ele>560.40002441406</ele>
        <time>2026-05-12T08:37:44.000Z</time>
      </trkpt>
      <trkpt lat="45.28838" lon="4.61657">
        <ele>560.40002441406</ele>
        <time>2026-05-12T08:37:45.000Z</time>
      </trkpt>
      <trkpt lat="45.28837" lon="4.61655">
        <ele>560.59997558594</ele>
        <time>2026-05-12T08:37:46.000Z</time>
      </trkpt>
      <trkpt lat="45.28836" lon="4.61653">
        <ele>560.59997558594</ele>
        <time>2026-05-12T08:37:47.000Z</time>
      </trkpt>
      <trkpt lat="45.28835" lon="4.61652">
        <ele>560.59997558594</ele>
        <time>2026-05-12T08:37:48.000Z</time>
      </trkpt>
      <trkpt lat="45.28834" lon="4.6165">
        <ele>560.79998779297</ele>
        <time>2026-05-12T08:37:49.000Z</time>
      </trkpt>
      <trkpt lat="45.28833" lon="4.61648">
        <ele>560.79998779297</ele>
        <time>2026-05-12T08:37:50.000Z</time>
      </trkpt>
      <trkpt lat="45.28832" lon="4.61646">
        <ele>560.79998779297</ele>
        <time>2026-05-12T08:37:51.000Z</time>
      </trkpt>
      <trkpt lat="45.28832" lon="4.61644">
        <ele>560.79998779297</ele>
        <time>2026-05-12T08:37:52.000Z</time>
      </trkpt>
      <trkpt lat="45.28832" lon="4.61642">
        <ele>561</ele>
        <time>2026-05-12T08:37:53.000Z</time>
      </trkpt>
      <trkpt lat="45.28831" lon="4.6164">
        <ele>561</ele>
        <time>2026-05-12T08:37:54.000Z</time>
      </trkpt>
      <trkpt lat="45.28831" lon="4.61638">
        <ele>561.20001220703</ele>
        <time>2026-05-12T08:37:55.000Z</time>
      </trkpt>
      <trkpt lat="45.2883" lon="4.61637">
        <ele>561.20001220703</ele>
        <time>2026-05-12T08:37:56.000Z</time>
      </trkpt>
      <trkpt lat="45.28829" lon="4.61635">
        <ele>561.20001220703</ele>
        <time>2026-05-12T08:37:57.000Z</time>
      </trkpt>
      <trkpt lat="45.28828" lon="4.61634">
        <ele>561.40002441406</ele>
        <time>2026-05-12T08:37:58.000Z</time>
      </trkpt>
      <trkpt lat="45.28827" lon="4.61632">
        <ele>561.59997558594</ele>
        <time>2026-05-12T08:37:59.000Z</time>
      </trkpt>
      <trkpt lat="45.28827" lon="4.6163">
        <ele>561.59997558594</ele>
        <time>2026-05-12T08:38:00.000Z</time>
      </trkpt>
      <trkpt lat="45.28826" lon="4.61628">
        <ele>561.79998779297</ele>
        <time>2026-05-12T08:38:01.000Z</time>
      </trkpt>
      <trkpt lat="45.28826" lon="4.61626">
        <ele>562</ele>
        <time>2026-05-12T08:38:02.000Z</time>
      </trkpt>
      <trkpt lat="45.28825" lon="4.61625">
        <ele>562</ele>
        <time>2026-05-12T08:38:03.000Z</time>
      </trkpt>
      <trkpt lat="45.28824" lon="4.61623">
        <ele>562.20001220703</ele>
        <time>2026-05-12T08:38:04.000Z</time>
      </trkpt>
      <trkpt lat="45.28823" lon="4.61621">
        <ele>562.20001220703</ele>
        <time>2026-05-12T08:38:05.000Z</time>
      </trkpt>
      <trkpt lat="45.28823" lon="4.6162">
        <ele>562.40002441406</ele>
        <time>2026-05-12T08:38:06.000Z</time>
      </trkpt>
      <trkpt lat="45.28823" lon="4.6162">
        <ele>562.40002441406</ele>
        <time>2026-05-12T08:38:07.000Z</time>
      </trkpt>
      <trkpt lat="45.28822" lon="4.61618">
        <ele>562.59997558594</ele>
        <time>2026-05-12T08:38:08.000Z</time>
      </trkpt>
      <trkpt lat="45.28822" lon="4.61616">
        <ele>562.79998779297</ele>
        <time>2026-05-12T08:38:09.000Z</time>
      </trkpt>
      <trkpt lat="45.28821" lon="4.61613">
        <ele>563</ele>
        <time>2026-05-12T08:38:10.000Z</time>
      </trkpt>
      <trkpt lat="45.28821" lon="4.61611">
        <ele>563</ele>
        <time>2026-05-12T08:38:11.000Z</time>
      </trkpt>
      <trkpt lat="45.28821" lon="4.61609">
        <ele>563.20001220703</ele>
        <time>2026-05-12T08:38:12.000Z</time>
      </trkpt>
      <trkpt lat="45.28821" lon="4.61606">
        <ele>563.40002441406</ele>
        <time>2026-05-12T08:38:13.000Z</time>
      </trkpt>
      <trkpt lat="45.2882" lon="4.61603">
        <ele>563.59997558594</ele>
        <time>2026-05-12T08:38:14.000Z</time>
      </trkpt>
      <trkpt lat="45.2882" lon="4.61601">
        <ele>563.59997558594</ele>
        <time>2026-05-12T08:38:15.000Z</time>
      </trkpt>
      <trkpt lat="45.28819" lon="4.61599">
        <ele>563.79998779297</ele>
        <time>2026-05-12T08:38:16.000Z</time>
      </trkpt>
      <trkpt lat="45.28818" lon="4.61597">
        <ele>563.79998779297</ele>
        <time>2026-05-12T08:38:17.000Z</time>
      </trkpt>
      <trkpt lat="45.28818" lon="4.61595">
        <ele>564</ele>
        <time>2026-05-12T08:38:18.000Z</time>
      </trkpt>
      <trkpt lat="45.28818" lon="4.61592">
        <ele>564</ele>
        <time>2026-05-12T08:38:19.000Z</time>
      </trkpt>
      <trkpt lat="45.28818" lon="4.6159">
        <ele>564.20001220703</ele>
        <time>2026-05-12T08:38:20.000Z</time>
      </trkpt>
      <trkpt lat="45.28817" lon="4.61588">
        <ele>564.20001220703</ele>
        <time>2026-05-12T08:38:21.000Z</time>
      </trkpt>
      <trkpt lat="45.28816" lon="4.61587">
        <ele>564.40002441406</ele>
        <time>2026-05-12T08:38:22.000Z</time>
      </trkpt>
      <trkpt lat="45.28816" lon="4.61585">
        <ele>564.40002441406</ele>
        <time>2026-05-12T08:38:23.000Z</time>
      </trkpt>
      <trkpt lat="45.28816" lon="4.61582">
        <ele>564.59997558594</ele>
        <time>2026-05-12T08:38:24.000Z</time>
      </trkpt>
      <trkpt lat="45.28816" lon="4.6158">
        <ele>564.79998779297</ele>
        <time>2026-05-12T08:38:25.000Z</time>
      </trkpt>
      <trkpt lat="45.28815" lon="4.61578">
        <ele>564.79998779297</ele>
        <time>2026-05-12T08:38:26.000Z</time>
      </trkpt>
      <trkpt lat="45.28815" lon="4.61575">
        <ele>565</ele>
        <time>2026-05-12T08:38:27.000Z</time>
      </trkpt>
      <trkpt lat="45.28814" lon="4.61573">
        <ele>565</ele>
        <time>2026-05-12T08:38:28.000Z</time>
      </trkpt>
      <trkpt lat="45.28814" lon="4.6157">
        <ele>565.20001220703</ele>
        <time>2026-05-12T08:38:29.000Z</time>
      </trkpt>
      <trkpt lat="45.28814" lon="4.61568">
        <ele>565.40002441406</ele>
        <time>2026-05-12T08:38:30.000Z</time>
      </trkpt>
      <trkpt lat="45.28813" lon="4.61566">
        <ele>565.40002441406</ele>
        <time>2026-05-12T08:38:31.000Z</time>
      </trkpt>
      <trkpt lat="45.28813" lon="4.61563">
        <ele>565.59997558594</ele>
        <time>2026-05-12T08:38:32.000Z</time>
      </trkpt>
      <trkpt lat="45.28814" lon="4.61561">
        <ele>565.79998779297</ele>
        <time>2026-05-12T08:38:33.000Z</time>
      </trkpt>
      <trkpt lat="45.28814" lon="4.61558">
        <ele>566</ele>
        <time>2026-05-12T08:38:34.000Z</time>
      </trkpt>
      <trkpt lat="45.28814" lon="4.61556">
        <ele>566</ele>
        <time>2026-05-12T08:38:35.000Z</time>
      </trkpt>
      <trkpt lat="45.28813" lon="4.61553">
        <ele>566.20001220703</ele>
        <time>2026-05-12T08:38:36.000Z</time>
      </trkpt>
      <trkpt lat="45.28813" lon="4.61551">
        <ele>566.40002441406</ele>
        <time>2026-05-12T08:38:37.000Z</time>
      </trkpt>
      <trkpt lat="45.28813" lon="4.61547">
        <ele>566.59997558594</ele>
        <time>2026-05-12T08:38:38.000Z</time>
      </trkpt>
      <trkpt lat="45.28813" lon="4.61544">
        <ele>566.79998779297</ele>
        <time>2026-05-12T08:38:39.000Z</time>
      </trkpt>
      <trkpt lat="45.28813" lon="4.61542">
        <ele>567</ele>
        <time>2026-05-12T08:38:40.000Z</time>
      </trkpt>
      <trkpt lat="45.28813" lon="4.6154">
        <ele>567.20001220703</ele>
        <time>2026-05-12T08:38:41.000Z</time>
      </trkpt>
      <trkpt lat="45.28813" lon="4.61537">
        <ele>567.40002441406</ele>
        <time>2026-05-12T08:38:42.000Z</time>
      </trkpt>
      <trkpt lat="45.28812" lon="4.61535">
        <ele>567.59997558594</ele>
        <time>2026-05-12T08:38:43.000Z</time>
      </trkpt>
      <trkpt lat="45.28812" lon="4.61533">
        <ele>567.79998779297</ele>
        <time>2026-05-12T08:38:44.000Z</time>
      </trkpt>
      <trkpt lat="45.28812" lon="4.61529">
        <ele>567.79998779297</ele>
        <time>2026-05-12T08:38:45.000Z</time>
      </trkpt>
      <trkpt lat="45.28813" lon="4.61527">
        <ele>568</ele>
        <time>2026-05-12T08:38:46.000Z</time>
      </trkpt>
      <trkpt lat="45.28813" lon="4.61524">
        <ele>568.20001220703</ele>
        <time>2026-05-12T08:38:47.000Z</time>
      </trkpt>
      <trkpt lat="45.28813" lon="4.61521">
        <ele>568.40002441406</ele>
        <time>2026-05-12T08:38:48.000Z</time>
      </trkpt>
      <trkpt lat="45.28813" lon="4.61519">
        <ele>568.59997558594</ele>
        <time>2026-05-12T08:38:49.000Z</time>
      </trkpt>
      <trkpt lat="45.28813" lon="4.61517">
        <ele>568.79998779297</ele>
        <time>2026-05-12T08:38:50.000Z</time>
      </trkpt>
      <trkpt lat="45.28813" lon="4.61516">
        <ele>569</ele>
        <time>2026-05-12T08:38:51.000Z</time>
      </trkpt>
      <trkpt lat="45.28813" lon="4.61514">
        <ele>569.20001220703</ele>
        <time>2026-05-12T08:38:52.000Z</time>
      </trkpt>
      <trkpt lat="45.28813" lon="4.61512">
        <ele>569.40002441406</ele>
        <time>2026-05-12T08:38:53.000Z</time>
      </trkpt>
      <trkpt lat="45.28813" lon="4.61511">
        <ele>569.59997558594</ele>
        <time>2026-05-12T08:38:54.000Z</time>
      </trkpt>
      <trkpt lat="45.28813" lon="4.61509">
        <ele>569.79998779297</ele>
        <time>2026-05-12T08:38:55.000Z</time>
      </trkpt>
      <trkpt lat="45.28813" lon="4.61507">
        <ele>569.79998779297</ele>
        <time>2026-05-12T08:38:56.000Z</time>
      </trkpt>
      <trkpt lat="45.28812" lon="4.61505">
        <ele>570</ele>
        <time>2026-05-12T08:38:57.000Z</time>
      </trkpt>
      <trkpt lat="45.28812" lon="4.61503">
        <ele>570</ele>
        <time>2026-05-12T08:38:58.000Z</time>
      </trkpt>
      <trkpt lat="45.28811" lon="4.61501">
        <ele>570.20001220703</ele>
        <time>2026-05-12T08:38:59.000Z</time>
      </trkpt>
      <trkpt lat="45.28811" lon="4.61498">
        <ele>570.20001220703</ele>
        <time>2026-05-12T08:39:00.000Z</time>
      </trkpt>
      <trkpt lat="45.28811" lon="4.61496">
        <ele>570.40002441406</ele>
        <time>2026-05-12T08:39:01.000Z</time>
      </trkpt>
      <trkpt lat="45.28811" lon="4.61494">
        <ele>570.59997558594</ele>
        <time>2026-05-12T08:39:02.000Z</time>
      </trkpt>
      <trkpt lat="45.2881" lon="4.61492">
        <ele>570.59997558594</ele>
        <time>2026-05-12T08:39:03.000Z</time>
      </trkpt>
      <trkpt lat="45.2881" lon="4.6149">
        <ele>570.79998779297</ele>
        <time>2026-05-12T08:39:04.000Z</time>
      </trkpt>
      <trkpt lat="45.2881" lon="4.61487">
        <ele>570.79998779297</ele>
        <time>2026-05-12T08:39:05.000Z</time>
      </trkpt>
      <trkpt lat="45.28811" lon="4.61485">
        <ele>571</ele>
        <time>2026-05-12T08:39:06.000Z</time>
      </trkpt>
      <trkpt lat="45.28811" lon="4.61483">
        <ele>571.20001220703</ele>
        <time>2026-05-12T08:39:07.000Z</time>
      </trkpt>
      <trkpt lat="45.28812" lon="4.61481">
        <ele>571.20001220703</ele>
        <time>2026-05-12T08:39:08.000Z</time>
      </trkpt>
      <trkpt lat="45.28812" lon="4.61479">
        <ele>571.40002441406</ele>
        <time>2026-05-12T08:39:09.000Z</time>
      </trkpt>
      <trkpt lat="45.28813" lon="4.61477">
        <ele>571.40002441406</ele>
        <time>2026-05-12T08:39:10.000Z</time>
      </trkpt>
      <trkpt lat="45.28813" lon="4.61475">
        <ele>571.40002441406</ele>
        <time>2026-05-12T08:39:11.000Z</time>
      </trkpt>
      <trkpt lat="45.28813" lon="4.61472">
        <ele>571.59997558594</ele>
        <time>2026-05-12T08:39:12.000Z</time>
      </trkpt>
      <trkpt lat="45.28814" lon="4.6147">
        <ele>571.59997558594</ele>
        <time>2026-05-12T08:39:13.000Z</time>
      </trkpt>
      <trkpt lat="45.28814" lon="4.61468">
        <ele>571.79998779297</ele>
        <time>2026-05-12T08:39:14.000Z</time>
      </trkpt>
      <trkpt lat="45.28814" lon="4.61467">
        <ele>571.79998779297</ele>
        <time>2026-05-12T08:39:15.000Z</time>
      </trkpt>
      <trkpt lat="45.28814" lon="4.61465">
        <ele>571.79998779297</ele>
        <time>2026-05-12T08:39:16.000Z</time>
      </trkpt>
      <trkpt lat="45.28814" lon="4.61462">
        <ele>572</ele>
        <time>2026-05-12T08:39:17.000Z</time>
      </trkpt>
      <trkpt lat="45.28814" lon="4.6146">
        <ele>572</ele>
        <time>2026-05-12T08:39:18.000Z</time>
      </trkpt>
      <trkpt lat="45.28814" lon="4.61457">
        <ele>572.20001220703</ele>
        <time>2026-05-12T08:39:19.000Z</time>
      </trkpt>
      <trkpt lat="45.28814" lon="4.61455">
        <ele>572.20001220703</ele>
        <time>2026-05-12T08:39:20.000Z</time>
      </trkpt>
      <trkpt lat="45.28814" lon="4.61453">
        <ele>572.20001220703</ele>
        <time>2026-05-12T08:39:21.000Z</time>
      </trkpt>
      <trkpt lat="45.28814" lon="4.61451">
        <ele>572.40002441406</ele>
        <time>2026-05-12T08:39:22.000Z</time>
      </trkpt>
      <trkpt lat="45.28814" lon="4.61449">
        <ele>572.40002441406</ele>
        <time>2026-05-12T08:39:23.000Z</time>
      </trkpt>
      <trkpt lat="45.28814" lon="4.61446">
        <ele>572.40002441406</ele>
        <time>2026-05-12T08:39:24.000Z</time>
      </trkpt>
      <trkpt lat="45.28814" lon="4.61444">
        <ele>572.59997558594</ele>
        <time>2026-05-12T08:39:25.000Z</time>
      </trkpt>
      <trkpt lat="45.28814" lon="4.61441">
        <ele>572.59997558594</ele>
        <time>2026-05-12T08:39:26.000Z</time>
      </trkpt>
      <trkpt lat="45.28814" lon="4.61439">
        <ele>572.59997558594</ele>
        <time>2026-05-12T08:39:27.000Z</time>
      </trkpt>
      <trkpt lat="45.28813" lon="4.61437">
        <ele>572.59997558594</ele>
        <time>2026-05-12T08:39:28.000Z</time>
      </trkpt>
      <trkpt lat="45.28813" lon="4.61435">
        <ele>572.79998779297</ele>
        <time>2026-05-12T08:39:29.000Z</time>
      </trkpt>
      <trkpt lat="45.28813" lon="4.61432">
        <ele>572.79998779297</ele>
        <time>2026-05-12T08:39:30.000Z</time>
      </trkpt>
      <trkpt lat="45.28814" lon="4.6143">
        <ele>572.79998779297</ele>
        <time>2026-05-12T08:39:31.000Z</time>
      </trkpt>
      <trkpt lat="45.28814" lon="4.61427">
        <ele>573</ele>
        <time>2026-05-12T08:39:32.000Z</time>
      </trkpt>
      <trkpt lat="45.28814" lon="4.61425">
        <ele>573</ele>
        <time>2026-05-12T08:39:33.000Z</time>
      </trkpt>
      <trkpt lat="45.28814" lon="4.61422">
        <ele>573</ele>
        <time>2026-05-12T08:39:34.000Z</time>
      </trkpt>
      <trkpt lat="45.28814" lon="4.6142">
        <ele>573</ele>
        <time>2026-05-12T08:39:35.000Z</time>
      </trkpt>
      <trkpt lat="45.28813" lon="4.61418">
        <ele>573</ele>
        <time>2026-05-12T08:39:36.000Z</time>
      </trkpt>
      <trkpt lat="45.28813" lon="4.61415">
        <ele>573</ele>
        <time>2026-05-12T08:39:37.000Z</time>
      </trkpt>
      <trkpt lat="45.28814" lon="4.61411">
        <ele>573</ele>
        <time>2026-05-12T08:39:38.000Z</time>
      </trkpt>
      <trkpt lat="45.28814" lon="4.61408">
        <ele>573</ele>
        <time>2026-05-12T08:39:39.000Z</time>
      </trkpt>
      <trkpt lat="45.28814" lon="4.61404">
        <ele>573</ele>
        <time>2026-05-12T08:39:40.000Z</time>
      </trkpt>
      <trkpt lat="45.28814" lon="4.61401">
        <ele>572.79998779297</ele>
        <time>2026-05-12T08:39:41.000Z</time>
      </trkpt>
      <trkpt lat="45.28815" lon="4.61398">
        <ele>573</ele>
        <time>2026-05-12T08:39:42.000Z</time>
      </trkpt>
      <trkpt lat="45.28815" lon="4.61395">
        <ele>573</ele>
        <time>2026-05-12T08:39:43.000Z</time>
      </trkpt>
      <trkpt lat="45.28816" lon="4.61393">
        <ele>573</ele>
        <time>2026-05-12T08:39:44.000Z</time>
      </trkpt>
      <trkpt lat="45.28817" lon="4.6139">
        <ele>573</ele>
        <time>2026-05-12T08:39:45.000Z</time>
      </trkpt>
      <trkpt lat="45.28817" lon="4.61388">
        <ele>573</ele>
        <time>2026-05-12T08:39:46.000Z</time>
      </trkpt>
      <trkpt lat="45.28817" lon="4.61386">
        <ele>573</ele>
        <time>2026-05-12T08:39:47.000Z</time>
      </trkpt>
      <trkpt lat="45.28817" lon="4.61384">
        <ele>573.20001220703</ele>
        <time>2026-05-12T08:39:48.000Z</time>
      </trkpt>
      <trkpt lat="45.28817" lon="4.61382">
        <ele>573.20001220703</ele>
        <time>2026-05-12T08:39:49.000Z</time>
      </trkpt>
      <trkpt lat="45.28818" lon="4.6138">
        <ele>573.20001220703</ele>
        <time>2026-05-12T08:39:50.000Z</time>
      </trkpt>
      <trkpt lat="45.28818" lon="4.61379">
        <ele>573.20001220703</ele>
        <time>2026-05-12T08:39:51.000Z</time>
      </trkpt>
      <trkpt lat="45.28818" lon="4.61376">
        <ele>573.20001220703</ele>
        <time>2026-05-12T08:39:52.000Z</time>
      </trkpt>
      <trkpt lat="45.28819" lon="4.61373">
        <ele>573.40002441406</ele>
        <time>2026-05-12T08:39:53.000Z</time>
      </trkpt>
      <trkpt lat="45.28819" lon="4.61371">
        <ele>573.40002441406</ele>
        <time>2026-05-12T08:39:54.000Z</time>
      </trkpt>
      <trkpt lat="45.28819" lon="4.6137">
        <ele>573.40002441406</ele>
        <time>2026-05-12T08:39:55.000Z</time>
      </trkpt>
      <trkpt lat="45.28816" lon="4.61368">
        <ele>573.40002441406</ele>
        <time>2026-05-12T08:39:56.000Z</time>
      </trkpt>
      <trkpt lat="45.28816" lon="4.61365">
        <ele>573.59997558594</ele>
        <time>2026-05-12T08:39:57.000Z</time>
      </trkpt>
      <trkpt lat="45.28815" lon="4.61363">
        <ele>573.59997558594</ele>
        <time>2026-05-12T08:39:58.000Z</time>
      </trkpt>
      <trkpt lat="45.28815" lon="4.61361">
        <ele>573.59997558594</ele>
        <time>2026-05-12T08:39:59.000Z</time>
      </trkpt>
      <trkpt lat="45.28815" lon="4.61359">
        <ele>573.79998779297</ele>
        <time>2026-05-12T08:40:00.000Z</time>
      </trkpt>
      <trkpt lat="45.28816" lon="4.61356">
        <ele>573.79998779297</ele>
        <time>2026-05-12T08:40:01.000Z</time>
      </trkpt>
      <trkpt lat="45.28816" lon="4.61353">
        <ele>573.79998779297</ele>
        <time>2026-05-12T08:40:02.000Z</time>
      </trkpt>
      <trkpt lat="45.28816" lon="4.61349">
        <ele>573.79998779297</ele>
        <time>2026-05-12T08:40:03.000Z</time>
      </trkpt>
      <trkpt lat="45.28817" lon="4.61346">
        <ele>573.79998779297</ele>
        <time>2026-05-12T08:40:04.000Z</time>
      </trkpt>
      <trkpt lat="45.28817" lon="4.61343">
        <ele>574</ele>
        <time>2026-05-12T08:40:05.000Z</time>
      </trkpt>
      <trkpt lat="45.28817" lon="4.6134">
        <ele>574</ele>
        <time>2026-05-12T08:40:06.000Z</time>
      </trkpt>
      <trkpt lat="45.28817" lon="4.61338">
        <ele>574</ele>
        <time>2026-05-12T08:40:07.000Z</time>
      </trkpt>
      <trkpt lat="45.28817" lon="4.61335">
        <ele>574</ele>
        <time>2026-05-12T08:40:08.000Z</time>
      </trkpt>
      <trkpt lat="45.28817" lon="4.61332">
        <ele>574.20001220703</ele>
        <time>2026-05-12T08:40:09.000Z</time>
      </trkpt>
      <trkpt lat="45.28817" lon="4.6133">
        <ele>574.20001220703</ele>
        <time>2026-05-12T08:40:10.000Z</time>
      </trkpt>
      <trkpt lat="45.28817" lon="4.61327">
        <ele>574.20001220703</ele>
        <time>2026-05-12T08:40:11.000Z</time>
      </trkpt>
      <trkpt lat="45.28817" lon="4.61325">
        <ele>574.20001220703</ele>
        <time>2026-05-12T08:40:12.000Z</time>
      </trkpt>
      <trkpt lat="45.28817" lon="4.61322">
        <ele>574.20001220703</ele>
        <time>2026-05-12T08:40:13.000Z</time>
      </trkpt>
      <trkpt lat="45.28817" lon="4.6132">
        <ele>574</ele>
        <time>2026-05-12T08:40:14.000Z</time>
      </trkpt>
      <trkpt lat="45.28817" lon="4.61317">
        <ele>574</ele>
        <time>2026-05-12T08:40:15.000Z</time>
      </trkpt>
      <trkpt lat="45.28817" lon="4.61313">
        <ele>574</ele>
        <time>2026-05-12T08:40:16.000Z</time>
      </trkpt>
      <trkpt lat="45.28817" lon="4.61309">
        <ele>573.79998779297</ele>
        <time>2026-05-12T08:40:17.000Z</time>
      </trkpt>
      <trkpt lat="45.28818" lon="4.61305">
        <ele>573.79998779297</ele>
        <time>2026-05-12T08:40:18.000Z</time>
      </trkpt>
      <trkpt lat="45.28818" lon="4.61301">
        <ele>573.59997558594</ele>
        <time>2026-05-12T08:40:19.000Z</time>
      </trkpt>
      <trkpt lat="45.28818" lon="4.61297">
        <ele>573.59997558594</ele>
        <time>2026-05-12T08:40:20.000Z</time>
      </trkpt>
      <trkpt lat="45.28818" lon="4.61292">
        <ele>573.40002441406</ele>
        <time>2026-05-12T08:40:21.000Z</time>
      </trkpt>
      <trkpt lat="45.28818" lon="4.61288">
        <ele>573.20001220703</ele>
        <time>2026-05-12T08:40:22.000Z</time>
      </trkpt>
      <trkpt lat="45.28819" lon="4.61283">
        <ele>573.20001220703</ele>
        <time>2026-05-12T08:40:23.000Z</time>
      </trkpt>
      <trkpt lat="45.28819" lon="4.61279">
        <ele>573.20001220703</ele>
        <time>2026-05-12T08:40:24.000Z</time>
      </trkpt>
      <trkpt lat="45.2882" lon="4.61274">
        <ele>573</ele>
        <time>2026-05-12T08:40:25.000Z</time>
      </trkpt>
      <trkpt lat="45.2882" lon="4.6127">
        <ele>573</ele>
        <time>2026-05-12T08:40:26.000Z</time>
      </trkpt>
      <trkpt lat="45.28821" lon="4.61265">
        <ele>573</ele>
        <time>2026-05-12T08:40:27.000Z</time>
      </trkpt>
      <trkpt lat="45.28822" lon="4.61261">
        <ele>573</ele>
        <time>2026-05-12T08:40:28.000Z</time>
      </trkpt>
      <trkpt lat="45.28823" lon="4.61258">
        <ele>573</ele>
        <time>2026-05-12T08:40:29.000Z</time>
      </trkpt>
      <trkpt lat="45.28824" lon="4.61255">
        <ele>573</ele>
        <time>2026-05-12T08:40:30.000Z</time>
      </trkpt>
      <trkpt lat="45.28824" lon="4.61253">
        <ele>573</ele>
        <time>2026-05-12T08:40:31.000Z</time>
      </trkpt>
      <trkpt lat="45.28825" lon="4.6125">
        <ele>573</ele>
        <time>2026-05-12T08:40:32.000Z</time>
      </trkpt>
      <trkpt lat="45.28826" lon="4.61247">
        <ele>573</ele>
        <time>2026-05-12T08:40:33.000Z</time>
      </trkpt>
      <trkpt lat="45.28827" lon="4.61246">
        <ele>573</ele>
        <time>2026-05-12T08:40:34.000Z</time>
      </trkpt>
      <trkpt lat="45.28827" lon="4.61244">
        <ele>573</ele>
        <time>2026-05-12T08:40:35.000Z</time>
      </trkpt>
      <trkpt lat="45.28828" lon="4.61242">
        <ele>573</ele>
        <time>2026-05-12T08:40:36.000Z</time>
      </trkpt>
      <trkpt lat="45.28829" lon="4.61239">
        <ele>573</ele>
        <time>2026-05-12T08:40:37.000Z</time>
      </trkpt>
      <trkpt lat="45.2883" lon="4.61237">
        <ele>573</ele>
        <time>2026-05-12T08:40:38.000Z</time>
      </trkpt>
      <trkpt lat="45.28831" lon="4.61234">
        <ele>573</ele>
        <time>2026-05-12T08:40:39.000Z</time>
      </trkpt>
      <trkpt lat="45.28832" lon="4.61232">
        <ele>573</ele>
        <time>2026-05-12T08:40:40.000Z</time>
      </trkpt>
      <trkpt lat="45.28833" lon="4.61229">
        <ele>573</ele>
        <time>2026-05-12T08:40:41.000Z</time>
      </trkpt>
      <trkpt lat="45.28834" lon="4.61226">
        <ele>573</ele>
        <time>2026-05-12T08:40:42.000Z</time>
      </trkpt>
      <trkpt lat="45.28835" lon="4.61223">
        <ele>573</ele>
        <time>2026-05-12T08:40:43.000Z</time>
      </trkpt>
      <trkpt lat="45.28836" lon="4.6122">
        <ele>572.79998779297</ele>
        <time>2026-05-12T08:40:44.000Z</time>
      </trkpt>
      <trkpt lat="45.28837" lon="4.61218">
        <ele>572.79998779297</ele>
        <time>2026-05-12T08:40:45.000Z</time>
      </trkpt>
      <trkpt lat="45.28838" lon="4.61215">
        <ele>572.79998779297</ele>
        <time>2026-05-12T08:40:46.000Z</time>
      </trkpt>
      <trkpt lat="45.28839" lon="4.61211">
        <ele>572.59997558594</ele>
        <time>2026-05-12T08:40:47.000Z</time>
      </trkpt>
      <trkpt lat="45.2884" lon="4.61208">
        <ele>572.59997558594</ele>
        <time>2026-05-12T08:40:48.000Z</time>
      </trkpt>
      <trkpt lat="45.28841" lon="4.61206">
        <ele>572.40002441406</ele>
        <time>2026-05-12T08:40:49.000Z</time>
      </trkpt>
      <trkpt lat="45.28842" lon="4.61203">
        <ele>572.20001220703</ele>
        <time>2026-05-12T08:40:50.000Z</time>
      </trkpt>
      <trkpt lat="45.28844" lon="4.612">
        <ele>572.20001220703</ele>
        <time>2026-05-12T08:40:51.000Z</time>
      </trkpt>
      <trkpt lat="45.28845" lon="4.61195">
        <ele>572</ele>
        <time>2026-05-12T08:40:52.000Z</time>
      </trkpt>
      <trkpt lat="45.28847" lon="4.61192">
        <ele>571.59997558594</ele>
        <time>2026-05-12T08:40:53.000Z</time>
      </trkpt>
      <trkpt lat="45.28848" lon="4.61188">
        <ele>571.40002441406</ele>
        <time>2026-05-12T08:40:54.000Z</time>
      </trkpt>
      <trkpt lat="45.2885" lon="4.61183">
        <ele>571.20001220703</ele>
        <time>2026-05-12T08:40:55.000Z</time>
      </trkpt>
      <trkpt lat="45.28851" lon="4.61179">
        <ele>571</ele>
        <time>2026-05-12T08:40:56.000Z</time>
      </trkpt>
      <trkpt lat="45.28853" lon="4.61174">
        <ele>570.59997558594</ele>
        <time>2026-05-12T08:40:57.000Z</time>
      </trkpt>
      <trkpt lat="45.28855" lon="4.61169">
        <ele>570.40002441406</ele>
        <time>2026-05-12T08:40:58.000Z</time>
      </trkpt>
      <trkpt lat="45.28857" lon="4.61164">
        <ele>570</ele>
        <time>2026-05-12T08:40:59.000Z</time>
      </trkpt>
      <trkpt lat="45.28858" lon="4.61159">
        <ele>569.79998779297</ele>
        <time>2026-05-12T08:41:00.000Z</time>
      </trkpt>
      <trkpt lat="45.2886" lon="4.61155">
        <ele>569.40002441406</ele>
        <time>2026-05-12T08:41:01.000Z</time>
      </trkpt>
      <trkpt lat="45.28862" lon="4.61151">
        <ele>569.20001220703</ele>
        <time>2026-05-12T08:41:02.000Z</time>
      </trkpt>
      <trkpt lat="45.28863" lon="4.61146">
        <ele>569</ele>
        <time>2026-05-12T08:41:03.000Z</time>
      </trkpt>
      <trkpt lat="45.28864" lon="4.61141">
        <ele>568.79998779297</ele>
        <time>2026-05-12T08:41:04.000Z</time>
      </trkpt>
      <trkpt lat="45.28865" lon="4.61136">
        <ele>568.59997558594</ele>
        <time>2026-05-12T08:41:05.000Z</time>
      </trkpt>
      <trkpt lat="45.28866" lon="4.6113">
        <ele>568.40002441406</ele>
        <time>2026-05-12T08:41:06.000Z</time>
      </trkpt>
      <trkpt lat="45.28866" lon="4.61125">
        <ele>568.20001220703</ele>
        <time>2026-05-12T08:41:07.000Z</time>
      </trkpt>
      <trkpt lat="45.28866" lon="4.61119">
        <ele>568</ele>
        <time>2026-05-12T08:41:08.000Z</time>
      </trkpt>
      <trkpt lat="45.28866" lon="4.61113">
        <ele>568</ele>
        <time>2026-05-12T08:41:09.000Z</time>
      </trkpt>
      <trkpt lat="45.28866" lon="4.61108">
        <ele>567.79998779297</ele>
        <time>2026-05-12T08:41:10.000Z</time>
      </trkpt>
      <trkpt lat="45.28865" lon="4.61103">
        <ele>567.59997558594</ele>
        <time>2026-05-12T08:41:11.000Z</time>
      </trkpt>
      <trkpt lat="45.28864" lon="4.61098">
        <ele>567.40002441406</ele>
        <time>2026-05-12T08:41:12.000Z</time>
      </trkpt>
      <trkpt lat="45.28863" lon="4.61093">
        <ele>567.20001220703</ele>
        <time>2026-05-12T08:41:13.000Z</time>
      </trkpt>
      <trkpt lat="45.28861" lon="4.61089">
        <ele>567.20001220703</ele>
        <time>2026-05-12T08:41:14.000Z</time>
      </trkpt>
      <trkpt lat="45.2886" lon="4.61085">
        <ele>567</ele>
        <time>2026-05-12T08:41:15.000Z</time>
      </trkpt>
      <trkpt lat="45.28858" lon="4.61081">
        <ele>567</ele>
        <time>2026-05-12T08:41:16.000Z</time>
      </trkpt>
      <trkpt lat="45.28856" lon="4.61077">
        <ele>566.79998779297</ele>
        <time>2026-05-12T08:41:17.000Z</time>
      </trkpt>
      <trkpt lat="45.28854" lon="4.61073">
        <ele>566.79998779297</ele>
        <time>2026-05-12T08:41:18.000Z</time>
      </trkpt>
      <trkpt lat="45.28851" lon="4.61069">
        <ele>566.59997558594</ele>
        <time>2026-05-12T08:41:19.000Z</time>
      </trkpt>
      <trkpt lat="45.28848" lon="4.61066">
        <ele>566.40002441406</ele>
        <time>2026-05-12T08:41:20.000Z</time>
      </trkpt>
      <trkpt lat="45.28846" lon="4.61062">
        <ele>566.40002441406</ele>
        <time>2026-05-12T08:41:21.000Z</time>
      </trkpt>
      <trkpt lat="45.28843" lon="4.61059">
        <ele>566.20001220703</ele>
        <time>2026-05-12T08:41:22.000Z</time>
      </trkpt>
      <trkpt lat="45.2884" lon="4.61056">
        <ele>566</ele>
        <time>2026-05-12T08:41:23.000Z</time>
      </trkpt>
      <trkpt lat="45.28837" lon="4.61053">
        <ele>566</ele>
        <time>2026-05-12T08:41:24.000Z</time>
      </trkpt>
      <trkpt lat="45.28834" lon="4.6105">
        <ele>565.79998779297</ele>
        <time>2026-05-12T08:41:25.000Z</time>
      </trkpt>
      <trkpt lat="45.28832" lon="4.61047">
        <ele>565.79998779297</ele>
        <time>2026-05-12T08:41:26.000Z</time>
      </trkpt>
      <trkpt lat="45.2883" lon="4.61044">
        <ele>566</ele>
        <time>2026-05-12T08:41:27.000Z</time>
      </trkpt>
      <trkpt lat="45.28828" lon="4.61043">
        <ele>566</ele>
        <time>2026-05-12T08:41:28.000Z</time>
      </trkpt>
      <trkpt lat="45.28827" lon="4.61041">
        <ele>566.20001220703</ele>
        <time>2026-05-12T08:41:29.000Z</time>
      </trkpt>
      <trkpt lat="45.28826" lon="4.61039">
        <ele>566.20001220703</ele>
        <time>2026-05-12T08:41:30.000Z</time>
      </trkpt>
      <trkpt lat="45.28824" lon="4.61037">
        <ele>566.40002441406</ele>
        <time>2026-05-12T08:41:31.000Z</time>
      </trkpt>
      <trkpt lat="45.28823" lon="4.61035">
        <ele>566.40002441406</ele>
        <time>2026-05-12T08:41:32.000Z</time>
      </trkpt>
      <trkpt lat="45.28822" lon="4.61032">
        <ele>566.59997558594</ele>
        <time>2026-05-12T08:41:33.000Z</time>
      </trkpt>
      <trkpt lat="45.2882" lon="4.6103">
        <ele>566.59997558594</ele>
        <time>2026-05-12T08:41:34.000Z</time>
      </trkpt>
      <trkpt lat="45.28818" lon="4.61028">
        <ele>566.79998779297</ele>
        <time>2026-05-12T08:41:35.000Z</time>
      </trkpt>
      <trkpt lat="45.28817" lon="4.61026">
        <ele>566.79998779297</ele>
        <time>2026-05-12T08:41:36.000Z</time>
      </trkpt>
      <trkpt lat="45.28816" lon="4.61024">
        <ele>567</ele>
        <time>2026-05-12T08:41:37.000Z</time>
      </trkpt>
      <trkpt lat="45.28814" lon="4.61021">
        <ele>567.20001220703</ele>
        <time>2026-05-12T08:41:38.000Z</time>
      </trkpt>
      <trkpt lat="45.28813" lon="4.61019">
        <ele>567.20001220703</ele>
        <time>2026-05-12T08:41:39.000Z</time>
      </trkpt>
      <trkpt lat="45.28812" lon="4.61017">
        <ele>567.40002441406</ele>
        <time>2026-05-12T08:41:40.000Z</time>
      </trkpt>
      <trkpt lat="45.28811" lon="4.61015">
        <ele>567.59997558594</ele>
        <time>2026-05-12T08:41:41.000Z</time>
      </trkpt>
      <trkpt lat="45.28809" lon="4.61013">
        <ele>567.79998779297</ele>
        <time>2026-05-12T08:41:42.000Z</time>
      </trkpt>
      <trkpt lat="45.28808" lon="4.61011">
        <ele>568</ele>
        <time>2026-05-12T08:41:43.000Z</time>
      </trkpt>
      <trkpt lat="45.28807" lon="4.61009">
        <ele>568.20001220703</ele>
        <time>2026-05-12T08:41:44.000Z</time>
      </trkpt>
      <trkpt lat="45.28806" lon="4.61006">
        <ele>568.40002441406</ele>
        <time>2026-05-12T08:41:45.000Z</time>
      </trkpt>
      <trkpt lat="45.28805" lon="4.61004">
        <ele>568.40002441406</ele>
        <time>2026-05-12T08:41:46.000Z</time>
      </trkpt>
      <trkpt lat="45.28804" lon="4.61002">
        <ele>568.59997558594</ele>
        <time>2026-05-12T08:41:47.000Z</time>
      </trkpt>
      <trkpt lat="45.28803" lon="4.61">
        <ele>568.79998779297</ele>
        <time>2026-05-12T08:41:48.000Z</time>
      </trkpt>
      <trkpt lat="45.28802" lon="4.60997">
        <ele>569</ele>
        <time>2026-05-12T08:41:49.000Z</time>
      </trkpt>
      <trkpt lat="45.28801" lon="4.60995">
        <ele>569</ele>
        <time>2026-05-12T08:41:50.000Z</time>
      </trkpt>
      <trkpt lat="45.28799" lon="4.60992">
        <ele>569.20001220703</ele>
        <time>2026-05-12T08:41:51.000Z</time>
      </trkpt>
      <trkpt lat="45.28798" lon="4.6099">
        <ele>569.40002441406</ele>
        <time>2026-05-12T08:41:52.000Z</time>
      </trkpt>
      <trkpt lat="45.28797" lon="4.60988">
        <ele>569.59997558594</ele>
        <time>2026-05-12T08:41:53.000Z</time>
      </trkpt>
      <trkpt lat="45.28796" lon="4.60985">
        <ele>569.79998779297</ele>
        <time>2026-05-12T08:41:54.000Z</time>
      </trkpt>
      <trkpt lat="45.28795" lon="4.60982">
        <ele>569.79998779297</ele>
        <time>2026-05-12T08:41:55.000Z</time>
      </trkpt>
      <trkpt lat="45.28794" lon="4.6098">
        <ele>570</ele>
        <time>2026-05-12T08:41:56.000Z</time>
      </trkpt>
      <trkpt lat="45.28792" lon="4.60977">
        <ele>570.20001220703</ele>
        <time>2026-05-12T08:41:57.000Z</time>
      </trkpt>
      <trkpt lat="45.28791" lon="4.60974">
        <ele>570.20001220703</ele>
        <time>2026-05-12T08:41:58.000Z</time>
      </trkpt>
      <trkpt lat="45.2879" lon="4.60972">
        <ele>570.40002441406</ele>
        <time>2026-05-12T08:41:59.000Z</time>
      </trkpt>
      <trkpt lat="45.28789" lon="4.60969">
        <ele>570.59997558594</ele>
        <time>2026-05-12T08:42:00.000Z</time>
      </trkpt>
      <trkpt lat="45.28788" lon="4.60966">
        <ele>570.59997558594</ele>
        <time>2026-05-12T08:42:01.000Z</time>
      </trkpt>
      <trkpt lat="45.28787" lon="4.60964">
        <ele>570.79998779297</ele>
        <time>2026-05-12T08:42:02.000Z</time>
      </trkpt>
      <trkpt lat="45.28786" lon="4.60962">
        <ele>571</ele>
        <time>2026-05-12T08:42:03.000Z</time>
      </trkpt>
      <trkpt lat="45.28785" lon="4.60959">
        <ele>571</ele>
        <time>2026-05-12T08:42:04.000Z</time>
      </trkpt>
      <trkpt lat="45.28784" lon="4.60957">
        <ele>571.20001220703</ele>
        <time>2026-05-12T08:42:05.000Z</time>
      </trkpt>
      <trkpt lat="45.28783" lon="4.60954">
        <ele>571.40002441406</ele>
        <time>2026-05-12T08:42:06.000Z</time>
      </trkpt>
      <trkpt lat="45.28782" lon="4.60952">
        <ele>571.40002441406</ele>
        <time>2026-05-12T08:42:07.000Z</time>
      </trkpt>
      <trkpt lat="45.28782" lon="4.6095">
        <ele>571.40002441406</ele>
        <time>2026-05-12T08:42:08.000Z</time>
      </trkpt>
      <trkpt lat="45.28781" lon="4.60949">
        <ele>571.59997558594</ele>
        <time>2026-05-12T08:42:09.000Z</time>
      </trkpt>
      <trkpt lat="45.28781" lon="4.60947">
        <ele>571.59997558594</ele>
        <time>2026-05-12T08:42:10.000Z</time>
      </trkpt>
      <trkpt lat="45.2878" lon="4.60944">
        <ele>571.59997558594</ele>
        <time>2026-05-12T08:42:11.000Z</time>
      </trkpt>
      <trkpt lat="45.28781" lon="4.60942">
        <ele>571.79998779297</ele>
        <time>2026-05-12T08:42:12.000Z</time>
      </trkpt>
      <trkpt lat="45.28781" lon="4.60941">
        <ele>571.79998779297</ele>
        <time>2026-05-12T08:42:13.000Z</time>
      </trkpt>
      <trkpt lat="45.2878" lon="4.60939">
        <ele>571.79998779297</ele>
        <time>2026-05-12T08:42:14.000Z</time>
      </trkpt>
      <trkpt lat="45.2878" lon="4.60937">
        <ele>571.79998779297</ele>
        <time>2026-05-12T08:42:15.000Z</time>
      </trkpt>
      <trkpt lat="45.28779" lon="4.60934">
        <ele>571.79998779297</ele>
        <time>2026-05-12T08:42:16.000Z</time>
      </trkpt>
      <trkpt lat="45.28779" lon="4.60931">
        <ele>571.79998779297</ele>
        <time>2026-05-12T08:42:17.000Z</time>
      </trkpt>
      <trkpt lat="45.28779" lon="4.60928">
        <ele>572</ele>
        <time>2026-05-12T08:42:18.000Z</time>
      </trkpt>
      <trkpt lat="45.28778" lon="4.60925">
        <ele>572</ele>
        <time>2026-05-12T08:42:19.000Z</time>
      </trkpt>
      <trkpt lat="45.28777" lon="4.60923">
        <ele>572</ele>
        <time>2026-05-12T08:42:20.000Z</time>
      </trkpt>
      <trkpt lat="45.28777" lon="4.60921">
        <ele>572</ele>
        <time>2026-05-12T08:42:21.000Z</time>
      </trkpt>
      <trkpt lat="45.28776" lon="4.60919">
        <ele>572</ele>
        <time>2026-05-12T08:42:22.000Z</time>
      </trkpt>
      <trkpt lat="45.28776" lon="4.60918">
        <ele>572</ele>
        <time>2026-05-12T08:42:23.000Z</time>
      </trkpt>
      <trkpt lat="45.28776" lon="4.60916">
        <ele>572</ele>
        <time>2026-05-12T08:42:24.000Z</time>
      </trkpt>
      <trkpt lat="45.28775" lon="4.60914">
        <ele>572</ele>
        <time>2026-05-12T08:42:25.000Z</time>
      </trkpt>
      <trkpt lat="45.28775" lon="4.60911">
        <ele>572.20001220703</ele>
        <time>2026-05-12T08:42:26.000Z</time>
      </trkpt>
      <trkpt lat="45.28774" lon="4.60908">
        <ele>572.20001220703</ele>
        <time>2026-05-12T08:42:27.000Z</time>
      </trkpt>
      <trkpt lat="45.28774" lon="4.60905">
        <ele>572.20001220703</ele>
        <time>2026-05-12T08:42:28.000Z</time>
      </trkpt>
      <trkpt lat="45.28773" lon="4.60902">
        <ele>572.20001220703</ele>
        <time>2026-05-12T08:42:29.000Z</time>
      </trkpt>
      <trkpt lat="45.28773" lon="4.60899">
        <ele>572.40002441406</ele>
        <time>2026-05-12T08:42:30.000Z</time>
      </trkpt>
      <trkpt lat="45.28772" lon="4.60896">
        <ele>572.40002441406</ele>
        <time>2026-05-12T08:42:31.000Z</time>
      </trkpt>
      <trkpt lat="45.28771" lon="4.60893">
        <ele>572.40002441406</ele>
        <time>2026-05-12T08:42:32.000Z</time>
      </trkpt>
      <trkpt lat="45.2877" lon="4.60889">
        <ele>572.59997558594</ele>
        <time>2026-05-12T08:42:33.000Z</time>
      </trkpt>
      <trkpt lat="45.28769" lon="4.60886">
        <ele>572.59997558594</ele>
        <time>2026-05-12T08:42:34.000Z</time>
      </trkpt>
      <trkpt lat="45.28767" lon="4.60882">
        <ele>572.79998779297</ele>
        <time>2026-05-12T08:42:35.000Z</time>
      </trkpt>
      <trkpt lat="45.28766" lon="4.60879">
        <ele>572.79998779297</ele>
        <time>2026-05-12T08:42:36.000Z</time>
      </trkpt>
      <trkpt lat="45.28766" lon="4.60876">
        <ele>573</ele>
        <time>2026-05-12T08:42:37.000Z</time>
      </trkpt>
      <trkpt lat="45.28765" lon="4.60873">
        <ele>573</ele>
        <time>2026-05-12T08:42:38.000Z</time>
      </trkpt>
      <trkpt lat="45.28765" lon="4.6087">
        <ele>573.20001220703</ele>
        <time>2026-05-12T08:42:39.000Z</time>
      </trkpt>
      <trkpt lat="45.28765" lon="4.60868">
        <ele>573.20001220703</ele>
        <time>2026-05-12T08:42:40.000Z</time>
      </trkpt>
      <trkpt lat="45.28764" lon="4.60865">
        <ele>573.40002441406</ele>
        <time>2026-05-12T08:42:41.000Z</time>
      </trkpt>
      <trkpt lat="45.28763" lon="4.60862">
        <ele>573.59997558594</ele>
        <time>2026-05-12T08:42:42.000Z</time>
      </trkpt>
      <trkpt lat="45.28762" lon="4.60859">
        <ele>573.59997558594</ele>
        <time>2026-05-12T08:42:43.000Z</time>
      </trkpt>
      <trkpt lat="45.28761" lon="4.60856">
        <ele>573.79998779297</ele>
        <time>2026-05-12T08:42:44.000Z</time>
      </trkpt>
      <trkpt lat="45.2876" lon="4.60853">
        <ele>573.79998779297</ele>
        <time>2026-05-12T08:42:45.000Z</time>
      </trkpt>
      <trkpt lat="45.28759" lon="4.6085">
        <ele>574</ele>
        <time>2026-05-12T08:42:46.000Z</time>
      </trkpt>
      <trkpt lat="45.28758" lon="4.60848">
        <ele>574.20001220703</ele>
        <time>2026-05-12T08:42:47.000Z</time>
      </trkpt>
      <trkpt lat="45.28757" lon="4.60845">
        <ele>574.20001220703</ele>
        <time>2026-05-12T08:42:48.000Z</time>
      </trkpt>
      <trkpt lat="45.28756" lon="4.60842">
        <ele>574.40002441406</ele>
        <time>2026-05-12T08:42:49.000Z</time>
      </trkpt>
      <trkpt lat="45.28755" lon="4.60838">
        <ele>574.59997558594</ele>
        <time>2026-05-12T08:42:50.000Z</time>
      </trkpt>
      <trkpt lat="45.28755" lon="4.60836">
        <ele>574.59997558594</ele>
        <time>2026-05-12T08:42:51.000Z</time>
      </trkpt>
      <trkpt lat="45.28754" lon="4.60833">
        <ele>574.79998779297</ele>
        <time>2026-05-12T08:42:52.000Z</time>
      </trkpt>
      <trkpt lat="45.28752" lon="4.6083">
        <ele>575</ele>
        <time>2026-05-12T08:42:53.000Z</time>
      </trkpt>
      <trkpt lat="45.28751" lon="4.60827">
        <ele>575.20001220703</ele>
        <time>2026-05-12T08:42:54.000Z</time>
      </trkpt>
      <trkpt lat="45.2875" lon="4.60824">
        <ele>575.40002441406</ele>
        <time>2026-05-12T08:42:55.000Z</time>
      </trkpt>
      <trkpt lat="45.28749" lon="4.60822">
        <ele>575.59997558594</ele>
        <time>2026-05-12T08:42:56.000Z</time>
      </trkpt>
      <trkpt lat="45.28748" lon="4.6082">
        <ele>575.79998779297</ele>
        <time>2026-05-12T08:42:57.000Z</time>
      </trkpt>
      <trkpt lat="45.28747" lon="4.60818">
        <ele>576</ele>
        <time>2026-05-12T08:42:58.000Z</time>
      </trkpt>
      <trkpt lat="45.28746" lon="4.60815">
        <ele>576.40002441406</ele>
        <time>2026-05-12T08:42:59.000Z</time>
      </trkpt>
      <trkpt lat="45.28745" lon="4.60813">
        <ele>576.59997558594</ele>
        <time>2026-05-12T08:43:00.000Z</time>
      </trkpt>
      <trkpt lat="45.28743" lon="4.6081">
        <ele>577</ele>
        <time>2026-05-12T08:43:01.000Z</time>
      </trkpt>
      <trkpt lat="45.28743" lon="4.60808">
        <ele>577.20001220703</ele>
        <time>2026-05-12T08:43:02.000Z</time>
      </trkpt>
      <trkpt lat="45.28742" lon="4.60805">
        <ele>577.59997558594</ele>
        <time>2026-05-12T08:43:03.000Z</time>
      </trkpt>
      <trkpt lat="45.28741" lon="4.60802">
        <ele>577.79998779297</ele>
        <time>2026-05-12T08:43:04.000Z</time>
      </trkpt>
      <trkpt lat="45.28741" lon="4.60799">
        <ele>578.20001220703</ele>
        <time>2026-05-12T08:43:05.000Z</time>
      </trkpt>
      <trkpt lat="45.2874" lon="4.60796">
        <ele>578.40002441406</ele>
        <time>2026-05-12T08:43:06.000Z</time>
      </trkpt>
      <trkpt lat="45.28739" lon="4.60794">
        <ele>578.59997558594</ele>
        <time>2026-05-12T08:43:07.000Z</time>
      </trkpt>
      <trkpt lat="45.28738" lon="4.60792">
        <ele>578.79998779297</ele>
        <time>2026-05-12T08:43:08.000Z</time>
      </trkpt>
      <trkpt lat="45.28737" lon="4.6079">
        <ele>579</ele>
        <time>2026-05-12T08:43:09.000Z</time>
      </trkpt>
      <trkpt lat="45.28735" lon="4.60788">
        <ele>579.40002441406</ele>
        <time>2026-05-12T08:43:10.000Z</time>
      </trkpt>
      <trkpt lat="45.28734" lon="4.60786">
        <ele>579.59997558594</ele>
        <time>2026-05-12T08:43:11.000Z</time>
      </trkpt>
      <trkpt lat="45.28733" lon="4.60784">
        <ele>579.79998779297</ele>
        <time>2026-05-12T08:43:12.000Z</time>
      </trkpt>
      <trkpt lat="45.28732" lon="4.60782">
        <ele>580</ele>
        <time>2026-05-12T08:43:13.000Z</time>
      </trkpt>
      <trkpt lat="45.28731" lon="4.6078">
        <ele>580.20001220703</ele>
        <time>2026-05-12T08:43:14.000Z</time>
      </trkpt>
      <trkpt lat="45.2873" lon="4.60778">
        <ele>580.59997558594</ele>
        <time>2026-05-12T08:43:15.000Z</time>
      </trkpt>
      <trkpt lat="45.28728" lon="4.60775">
        <ele>580.79998779297</ele>
        <time>2026-05-12T08:43:16.000Z</time>
      </trkpt>
      <trkpt lat="45.28727" lon="4.60773">
        <ele>581</ele>
        <time>2026-05-12T08:43:17.000Z</time>
      </trkpt>
      <trkpt lat="45.28726" lon="4.60772">
        <ele>581.20001220703</ele>
        <time>2026-05-12T08:43:18.000Z</time>
      </trkpt>
      <trkpt lat="45.28725" lon="4.6077">
        <ele>581.40002441406</ele>
        <time>2026-05-12T08:43:19.000Z</time>
      </trkpt>
      <trkpt lat="45.28724" lon="4.60768">
        <ele>581.59997558594</ele>
        <time>2026-05-12T08:43:20.000Z</time>
      </trkpt>
      <trkpt lat="45.28722" lon="4.60766">
        <ele>581.79998779297</ele>
        <time>2026-05-12T08:43:21.000Z</time>
      </trkpt>
      <trkpt lat="45.28721" lon="4.60765">
        <ele>582</ele>
        <time>2026-05-12T08:43:22.000Z</time>
      </trkpt>
      <trkpt lat="45.2872" lon="4.60763">
        <ele>582.40002441406</ele>
        <time>2026-05-12T08:43:23.000Z</time>
      </trkpt>
      <trkpt lat="45.28718" lon="4.60762">
        <ele>582.59997558594</ele>
        <time>2026-05-12T08:43:24.000Z</time>
      </trkpt>
      <trkpt lat="45.28717" lon="4.60761">
        <ele>582.79998779297</ele>
        <time>2026-05-12T08:43:25.000Z</time>
      </trkpt>
      <trkpt lat="45.28715" lon="4.6076">
        <ele>583</ele>
        <time>2026-05-12T08:43:26.000Z</time>
      </trkpt>
      <trkpt lat="45.28714" lon="4.60759">
        <ele>583.20001220703</ele>
        <time>2026-05-12T08:43:27.000Z</time>
      </trkpt>
      <trkpt lat="45.28713" lon="4.60758">
        <ele>583.40002441406</ele>
        <time>2026-05-12T08:43:28.000Z</time>
      </trkpt>
      <trkpt lat="45.28711" lon="4.60757">
        <ele>583.59997558594</ele>
        <time>2026-05-12T08:43:29.000Z</time>
      </trkpt>
      <trkpt lat="45.2871" lon="4.60756">
        <ele>583.79998779297</ele>
        <time>2026-05-12T08:43:30.000Z</time>
      </trkpt>
      <trkpt lat="45.28709" lon="4.60754">
        <ele>584</ele>
        <time>2026-05-12T08:43:31.000Z</time>
      </trkpt>
      <trkpt lat="45.28708" lon="4.60752">
        <ele>584.20001220703</ele>
        <time>2026-05-12T08:43:32.000Z</time>
      </trkpt>
      <trkpt lat="45.28706" lon="4.6075">
        <ele>584.20001220703</ele>
        <time>2026-05-12T08:43:33.000Z</time>
      </trkpt>
      <trkpt lat="45.28705" lon="4.60748">
        <ele>584.40002441406</ele>
        <time>2026-05-12T08:43:34.000Z</time>
      </trkpt>
      <trkpt lat="45.28704" lon="4.60746">
        <ele>584.59997558594</ele>
        <time>2026-05-12T08:43:35.000Z</time>
      </trkpt>
      <trkpt lat="45.28702" lon="4.60743">
        <ele>584.59997558594</ele>
        <time>2026-05-12T08:43:36.000Z</time>
      </trkpt>
      <trkpt lat="45.28701" lon="4.60741">
        <ele>584.79998779297</ele>
        <time>2026-05-12T08:43:37.000Z</time>
      </trkpt>
      <trkpt lat="45.28699" lon="4.60739">
        <ele>584.79998779297</ele>
        <time>2026-05-12T08:43:38.000Z</time>
      </trkpt>
      <trkpt lat="45.28698" lon="4.60736">
        <ele>584.79998779297</ele>
        <time>2026-05-12T08:43:39.000Z</time>
      </trkpt>
      <trkpt lat="45.28697" lon="4.60734">
        <ele>585</ele>
        <time>2026-05-12T08:43:40.000Z</time>
      </trkpt>
      <trkpt lat="45.28696" lon="4.60731">
        <ele>585</ele>
        <time>2026-05-12T08:43:41.000Z</time>
      </trkpt>
      <trkpt lat="45.28694" lon="4.60729">
        <ele>585</ele>
        <time>2026-05-12T08:43:42.000Z</time>
      </trkpt>
      <trkpt lat="45.28693" lon="4.60726">
        <ele>585.20001220703</ele>
        <time>2026-05-12T08:43:43.000Z</time>
      </trkpt>
      <trkpt lat="45.28692" lon="4.60723">
        <ele>585.20001220703</ele>
        <time>2026-05-12T08:43:44.000Z</time>
      </trkpt>
      <trkpt lat="45.28691" lon="4.60721">
        <ele>585.20001220703</ele>
        <time>2026-05-12T08:43:45.000Z</time>
      </trkpt>
      <trkpt lat="45.2869" lon="4.60718">
        <ele>585.20001220703</ele>
        <time>2026-05-12T08:43:46.000Z</time>
      </trkpt>
      <trkpt lat="45.28688" lon="4.60716">
        <ele>585.20001220703</ele>
        <time>2026-05-12T08:43:47.000Z</time>
      </trkpt>
      <trkpt lat="45.28687" lon="4.60713">
        <ele>585.40002441406</ele>
        <time>2026-05-12T08:43:48.000Z</time>
      </trkpt>
      <trkpt lat="45.28686" lon="4.60711">
        <ele>585.40002441406</ele>
        <time>2026-05-12T08:43:49.000Z</time>
      </trkpt>
      <trkpt lat="45.28684" lon="4.60709">
        <ele>585.40002441406</ele>
        <time>2026-05-12T08:43:50.000Z</time>
      </trkpt>
      <trkpt lat="45.28683" lon="4.60707">
        <ele>585.59997558594</ele>
        <time>2026-05-12T08:43:51.000Z</time>
      </trkpt>
      <trkpt lat="45.28681" lon="4.60705">
        <ele>585.59997558594</ele>
        <time>2026-05-12T08:43:52.000Z</time>
      </trkpt>
      <trkpt lat="45.2868" lon="4.60703">
        <ele>585.79998779297</ele>
        <time>2026-05-12T08:43:53.000Z</time>
      </trkpt>
      <trkpt lat="45.28678" lon="4.60702">
        <ele>586</ele>
        <time>2026-05-12T08:43:54.000Z</time>
      </trkpt>
      <trkpt lat="45.28677" lon="4.607">
        <ele>586.20001220703</ele>
        <time>2026-05-12T08:43:55.000Z</time>
      </trkpt>
      <trkpt lat="45.28675" lon="4.60698">
        <ele>586.59997558594</ele>
        <time>2026-05-12T08:43:56.000Z</time>
      </trkpt>
      <trkpt lat="45.28674" lon="4.60697">
        <ele>586.79998779297</ele>
        <time>2026-05-12T08:43:57.000Z</time>
      </trkpt>
      <trkpt lat="45.28672" lon="4.60694">
        <ele>587</ele>
        <time>2026-05-12T08:43:58.000Z</time>
      </trkpt>
      <trkpt lat="45.28671" lon="4.60692">
        <ele>587.20001220703</ele>
        <time>2026-05-12T08:43:59.000Z</time>
      </trkpt>
      <trkpt lat="45.28669" lon="4.6069">
        <ele>587.40002441406</ele>
        <time>2026-05-12T08:44:00.000Z</time>
      </trkpt>
      <trkpt lat="45.28668" lon="4.60688">
        <ele>587.79998779297</ele>
        <time>2026-05-12T08:44:01.000Z</time>
      </trkpt>
      <trkpt lat="45.28666" lon="4.60686">
        <ele>588</ele>
        <time>2026-05-12T08:44:02.000Z</time>
      </trkpt>
      <trkpt lat="45.28665" lon="4.60684">
        <ele>588.20001220703</ele>
        <time>2026-05-12T08:44:03.000Z</time>
      </trkpt>
      <trkpt lat="45.28663" lon="4.60683">
        <ele>588.40002441406</ele>
        <time>2026-05-12T08:44:04.000Z</time>
      </trkpt>
      <trkpt lat="45.28662" lon="4.60681">
        <ele>588.59997558594</ele>
        <time>2026-05-12T08:44:05.000Z</time>
      </trkpt>
      <trkpt lat="45.2866" lon="4.60679">
        <ele>588.59997558594</ele>
        <time>2026-05-12T08:44:06.000Z</time>
      </trkpt>
      <trkpt lat="45.28658" lon="4.60676">
        <ele>588.79998779297</ele>
        <time>2026-05-12T08:44:07.000Z</time>
      </trkpt>
      <trkpt lat="45.28657" lon="4.60674">
        <ele>589</ele>
        <time>2026-05-12T08:44:08.000Z</time>
      </trkpt>
      <trkpt lat="45.28655" lon="4.60672">
        <ele>589</ele>
        <time>2026-05-12T08:44:09.000Z</time>
      </trkpt>
      <trkpt lat="45.28654" lon="4.6067">
        <ele>589.20001220703</ele>
        <time>2026-05-12T08:44:10.000Z</time>
      </trkpt>
      <trkpt lat="45.28652" lon="4.60668">
        <ele>589.20001220703</ele>
        <time>2026-05-12T08:44:11.000Z</time>
      </trkpt>
      <trkpt lat="45.28651" lon="4.60665">
        <ele>589.40002441406</ele>
        <time>2026-05-12T08:44:12.000Z</time>
      </trkpt>
      <trkpt lat="45.2865" lon="4.60663">
        <ele>589.40002441406</ele>
        <time>2026-05-12T08:44:13.000Z</time>
      </trkpt>
      <trkpt lat="45.28648" lon="4.60661">
        <ele>589.59997558594</ele>
        <time>2026-05-12T08:44:14.000Z</time>
      </trkpt>
      <trkpt lat="45.28646" lon="4.60659">
        <ele>589.79998779297</ele>
        <time>2026-05-12T08:44:15.000Z</time>
      </trkpt>
      <trkpt lat="45.28645" lon="4.60658">
        <ele>589.79998779297</ele>
        <time>2026-05-12T08:44:16.000Z</time>
      </trkpt>
      <trkpt lat="45.28644" lon="4.60656">
        <ele>590</ele>
        <time>2026-05-12T08:44:17.000Z</time>
      </trkpt>
      <trkpt lat="45.28642" lon="4.60654">
        <ele>590.20001220703</ele>
        <time>2026-05-12T08:44:18.000Z</time>
      </trkpt>
      <trkpt lat="45.28641" lon="4.60652">
        <ele>590.40002441406</ele>
        <time>2026-05-12T08:44:19.000Z</time>
      </trkpt>
      <trkpt lat="45.28639" lon="4.6065">
        <ele>590.40002441406</ele>
        <time>2026-05-12T08:44:20.000Z</time>
      </trkpt>
      <trkpt lat="45.28638" lon="4.60648">
        <ele>590.59997558594</ele>
        <time>2026-05-12T08:44:21.000Z</time>
      </trkpt>
      <trkpt lat="45.28636" lon="4.60646">
        <ele>590.79998779297</ele>
        <time>2026-05-12T08:44:22.000Z</time>
      </trkpt>
      <trkpt lat="45.28635" lon="4.60644">
        <ele>591</ele>
        <time>2026-05-12T08:44:23.000Z</time>
      </trkpt>
      <trkpt lat="45.28634" lon="4.60641">
        <ele>591.40002441406</ele>
        <time>2026-05-12T08:44:24.000Z</time>
      </trkpt>
      <trkpt lat="45.28632" lon="4.60639">
        <ele>591.40002441406</ele>
        <time>2026-05-12T08:44:25.000Z</time>
      </trkpt>
      <trkpt lat="45.28631" lon="4.60636">
        <ele>591.59997558594</ele>
        <time>2026-05-12T08:44:26.000Z</time>
      </trkpt>
      <trkpt lat="45.2863" lon="4.60634">
        <ele>591.79998779297</ele>
        <time>2026-05-12T08:44:27.000Z</time>
      </trkpt>
      <trkpt lat="45.28629" lon="4.60632">
        <ele>592</ele>
        <time>2026-05-12T08:44:28.000Z</time>
      </trkpt>
      <trkpt lat="45.28627" lon="4.60631">
        <ele>592.20001220703</ele>
        <time>2026-05-12T08:44:29.000Z</time>
      </trkpt>
      <trkpt lat="45.28626" lon="4.60628">
        <ele>592.20001220703</ele>
        <time>2026-05-12T08:44:30.000Z</time>
      </trkpt>
      <trkpt lat="45.28625" lon="4.60626">
        <ele>592.40002441406</ele>
        <time>2026-05-12T08:44:31.000Z</time>
      </trkpt>
      <trkpt lat="45.28624" lon="4.60623">
        <ele>592.40002441406</ele>
        <time>2026-05-12T08:44:32.000Z</time>
      </trkpt>
      <trkpt lat="45.28623" lon="4.60621">
        <ele>592.59997558594</ele>
        <time>2026-05-12T08:44:33.000Z</time>
      </trkpt>
      <trkpt lat="45.28622" lon="4.60619">
        <ele>592.59997558594</ele>
        <time>2026-05-12T08:44:34.000Z</time>
      </trkpt>
      <trkpt lat="45.28621" lon="4.60617">
        <ele>592.59997558594</ele>
        <time>2026-05-12T08:44:35.000Z</time>
      </trkpt>
      <trkpt lat="45.28621" lon="4.60614">
        <ele>592.79998779297</ele>
        <time>2026-05-12T08:44:36.000Z</time>
      </trkpt>
      <trkpt lat="45.2862" lon="4.60611">
        <ele>593</ele>
        <time>2026-05-12T08:44:37.000Z</time>
      </trkpt>
      <trkpt lat="45.2862" lon="4.60609">
        <ele>593</ele>
        <time>2026-05-12T08:44:38.000Z</time>
      </trkpt>
      <trkpt lat="45.28619" lon="4.60607">
        <ele>593.20001220703</ele>
        <time>2026-05-12T08:44:39.000Z</time>
      </trkpt>
      <trkpt lat="45.28619" lon="4.60604">
        <ele>593.20001220703</ele>
        <time>2026-05-12T08:44:40.000Z</time>
      </trkpt>
      <trkpt lat="45.28618" lon="4.60602">
        <ele>593.40002441406</ele>
        <time>2026-05-12T08:44:41.000Z</time>
      </trkpt>
      <trkpt lat="45.28617" lon="4.606">
        <ele>593.40002441406</ele>
        <time>2026-05-12T08:44:42.000Z</time>
      </trkpt>
      <trkpt lat="45.28617" lon="4.60598">
        <ele>593.59997558594</ele>
        <time>2026-05-12T08:44:43.000Z</time>
      </trkpt>
      <trkpt lat="45.28617" lon="4.60596">
        <ele>593.59997558594</ele>
        <time>2026-05-12T08:44:44.000Z</time>
      </trkpt>
      <trkpt lat="45.28616" lon="4.60594">
        <ele>593.79998779297</ele>
        <time>2026-05-12T08:44:45.000Z</time>
      </trkpt>
      <trkpt lat="45.28616" lon="4.60592">
        <ele>593.79998779297</ele>
        <time>2026-05-12T08:44:46.000Z</time>
      </trkpt>
      <trkpt lat="45.28615" lon="4.60591">
        <ele>594</ele>
        <time>2026-05-12T08:44:47.000Z</time>
      </trkpt>
      <trkpt lat="45.28615" lon="4.6059">
        <ele>594</ele>
        <time>2026-05-12T08:44:48.000Z</time>
      </trkpt>
      <trkpt lat="45.28614" lon="4.60589">
        <ele>594</ele>
        <time>2026-05-12T08:44:49.000Z</time>
      </trkpt>
      <trkpt lat="45.28614" lon="4.60587">
        <ele>594</ele>
        <time>2026-05-12T08:44:50.000Z</time>
      </trkpt>
      <trkpt lat="45.28613" lon="4.60586">
        <ele>594</ele>
        <time>2026-05-12T08:44:51.000Z</time>
      </trkpt>
      <trkpt lat="45.28613" lon="4.60585">
        <ele>594</ele>
        <time>2026-05-12T08:44:52.000Z</time>
      </trkpt>
      <trkpt lat="45.28612" lon="4.60583">
        <ele>594.20001220703</ele>
        <time>2026-05-12T08:44:53.000Z</time>
      </trkpt>
      <trkpt lat="45.28611" lon="4.60575">
        <ele>594.20001220703</ele>
        <time>2026-05-12T08:44:56.000Z</time>
      </trkpt>
      <trkpt lat="45.2861" lon="4.60572">
        <ele>594.40002441406</ele>
        <time>2026-05-12T08:44:57.000Z</time>
      </trkpt>
      <trkpt lat="45.2861" lon="4.60569">
        <ele>594.40002441406</ele>
        <time>2026-05-12T08:44:58.000Z</time>
      </trkpt>
      <trkpt lat="45.2861" lon="4.60566">
        <ele>594.40002441406</ele>
        <time>2026-05-12T08:44:59.000Z</time>
      </trkpt>
      <trkpt lat="45.28609" lon="4.60563">
        <ele>594.40002441406</ele>
        <time>2026-05-12T08:45:00.000Z</time>
      </trkpt>
      <trkpt lat="45.28609" lon="4.60557">
        <ele>594.40002441406</ele>
        <time>2026-05-12T08:45:01.000Z</time>
      </trkpt>
      <trkpt lat="45.28609" lon="4.60553">
        <ele>594.40002441406</ele>
        <time>2026-05-12T08:45:02.000Z</time>
      </trkpt>
      <trkpt lat="45.28609" lon="4.6055">
        <ele>594.40002441406</ele>
        <time>2026-05-12T08:45:03.000Z</time>
      </trkpt>
      <trkpt lat="45.28608" lon="4.60548">
        <ele>594.40002441406</ele>
        <time>2026-05-12T08:45:04.000Z</time>
      </trkpt>
      <trkpt lat="45.28608" lon="4.60545">
        <ele>594.59997558594</ele>
        <time>2026-05-12T08:45:05.000Z</time>
      </trkpt>
      <trkpt lat="45.28608" lon="4.60542">
        <ele>594.59997558594</ele>
        <time>2026-05-12T08:45:06.000Z</time>
      </trkpt>
      <trkpt lat="45.28607" lon="4.60538">
        <ele>594.79998779297</ele>
        <time>2026-05-12T08:45:07.000Z</time>
      </trkpt>
      <trkpt lat="45.28608" lon="4.60535">
        <ele>594.79998779297</ele>
        <time>2026-05-12T08:45:08.000Z</time>
      </trkpt>
      <trkpt lat="45.28607" lon="4.60531">
        <ele>595</ele>
        <time>2026-05-12T08:45:09.000Z</time>
      </trkpt>
      <trkpt lat="45.28608" lon="4.60527">
        <ele>595</ele>
        <time>2026-05-12T08:45:10.000Z</time>
      </trkpt>
      <trkpt lat="45.28608" lon="4.60524">
        <ele>595</ele>
        <time>2026-05-12T08:45:11.000Z</time>
      </trkpt>
      <trkpt lat="45.28608" lon="4.60521">
        <ele>595.20001220703</ele>
        <time>2026-05-12T08:45:12.000Z</time>
      </trkpt>
      <trkpt lat="45.28608" lon="4.60518">
        <ele>595.20001220703</ele>
        <time>2026-05-12T08:45:13.000Z</time>
      </trkpt>
      <trkpt lat="45.28608" lon="4.60515">
        <ele>595.20001220703</ele>
        <time>2026-05-12T08:45:14.000Z</time>
      </trkpt>
      <trkpt lat="45.28608" lon="4.60512">
        <ele>595.20001220703</ele>
        <time>2026-05-12T08:45:15.000Z</time>
      </trkpt>
      <trkpt lat="45.28608" lon="4.60509">
        <ele>595.20001220703</ele>
        <time>2026-05-12T08:45:16.000Z</time>
      </trkpt>
      <trkpt lat="45.28607" lon="4.60507">
        <ele>595.20001220703</ele>
        <time>2026-05-12T08:45:17.000Z</time>
      </trkpt>
      <trkpt lat="45.28608" lon="4.60504">
        <ele>595.20001220703</ele>
        <time>2026-05-12T08:45:18.000Z</time>
      </trkpt>
      <trkpt lat="45.28608" lon="4.605">
        <ele>595.20001220703</ele>
        <time>2026-05-12T08:45:19.000Z</time>
      </trkpt>
      <trkpt lat="45.28608" lon="4.60497">
        <ele>595.20001220703</ele>
        <time>2026-05-12T08:45:20.000Z</time>
      </trkpt>
      <trkpt lat="45.28608" lon="4.60493">
        <ele>595.40002441406</ele>
        <time>2026-05-12T08:45:21.000Z</time>
      </trkpt>
      <trkpt lat="45.28608" lon="4.60489">
        <ele>595.40002441406</ele>
        <time>2026-05-12T08:45:22.000Z</time>
      </trkpt>
      <trkpt lat="45.28608" lon="4.60486">
        <ele>595.40002441406</ele>
        <time>2026-05-12T08:45:23.000Z</time>
      </trkpt>
      <trkpt lat="45.28607" lon="4.60483">
        <ele>595.59997558594</ele>
        <time>2026-05-12T08:45:24.000Z</time>
      </trkpt>
      <trkpt lat="45.28607" lon="4.6048">
        <ele>595.59997558594</ele>
        <time>2026-05-12T08:45:25.000Z</time>
      </trkpt>
      <trkpt lat="45.28606" lon="4.60478">
        <ele>595.59997558594</ele>
        <time>2026-05-12T08:45:26.000Z</time>
      </trkpt>
      <trkpt lat="45.28605" lon="4.60477">
        <ele>595.79998779297</ele>
        <time>2026-05-12T08:45:27.000Z</time>
      </trkpt>
      <trkpt lat="45.28604" lon="4.60476">
        <ele>595.79998779297</ele>
        <time>2026-05-12T08:45:28.000Z</time>
      </trkpt>
      <trkpt lat="45.28602" lon="4.60475">
        <ele>595.79998779297</ele>
        <time>2026-05-12T08:45:29.000Z</time>
      </trkpt>
      <trkpt lat="45.286" lon="4.60474">
        <ele>596</ele>
        <time>2026-05-12T08:45:30.000Z</time>
      </trkpt>
      <trkpt lat="45.28598" lon="4.60473">
        <ele>596</ele>
        <time>2026-05-12T08:45:31.000Z</time>
      </trkpt>
      <trkpt lat="45.28596" lon="4.60473">
        <ele>596.20001220703</ele>
        <time>2026-05-12T08:45:32.000Z</time>
      </trkpt>
      <trkpt lat="45.28595" lon="4.60472">
        <ele>596.20001220703</ele>
        <time>2026-05-12T08:45:33.000Z</time>
      </trkpt>
      <trkpt lat="45.28593" lon="4.60472">
        <ele>596.40002441406</ele>
        <time>2026-05-12T08:45:34.000Z</time>
      </trkpt>
      <trkpt lat="45.28591" lon="4.60472">
        <ele>596.59997558594</ele>
        <time>2026-05-12T08:45:35.000Z</time>
      </trkpt>
      <trkpt lat="45.28589" lon="4.60471">
        <ele>596.59997558594</ele>
        <time>2026-05-12T08:45:36.000Z</time>
      </trkpt>
      <trkpt lat="45.28587" lon="4.60471">
        <ele>596.79998779297</ele>
        <time>2026-05-12T08:45:37.000Z</time>
      </trkpt>
      <trkpt lat="45.28585" lon="4.60471">
        <ele>597</ele>
        <time>2026-05-12T08:45:38.000Z</time>
      </trkpt>
      <trkpt lat="45.28583" lon="4.60471">
        <ele>597.20001220703</ele>
        <time>2026-05-12T08:45:39.000Z</time>
      </trkpt>
      <trkpt lat="45.28582" lon="4.60471">
        <ele>597.20001220703</ele>
        <time>2026-05-12T08:45:40.000Z</time>
      </trkpt>
      <trkpt lat="45.2858" lon="4.60471">
        <ele>597.40002441406</ele>
        <time>2026-05-12T08:45:41.000Z</time>
      </trkpt>
      <trkpt lat="45.28578" lon="4.6047">
        <ele>597.59997558594</ele>
        <time>2026-05-12T08:45:42.000Z</time>
      </trkpt>
      <trkpt lat="45.28576" lon="4.6047">
        <ele>597.79998779297</ele>
        <time>2026-05-12T08:45:43.000Z</time>
      </trkpt>
      <trkpt lat="45.28574" lon="4.6047">
        <ele>598</ele>
        <time>2026-05-12T08:45:44.000Z</time>
      </trkpt>
      <trkpt lat="45.28573" lon="4.60469">
        <ele>598.20001220703</ele>
        <time>2026-05-12T08:45:45.000Z</time>
      </trkpt>
      <trkpt lat="45.28571" lon="4.60469">
        <ele>598.40002441406</ele>
        <time>2026-05-12T08:45:46.000Z</time>
      </trkpt>
      <trkpt lat="45.28569" lon="4.60469">
        <ele>598.59997558594</ele>
        <time>2026-05-12T08:45:47.000Z</time>
      </trkpt>
      <trkpt lat="45.28567" lon="4.60469">
        <ele>598.79998779297</ele>
        <time>2026-05-12T08:45:48.000Z</time>
      </trkpt>
      <trkpt lat="45.28565" lon="4.60469">
        <ele>599</ele>
        <time>2026-05-12T08:45:49.000Z</time>
      </trkpt>
      <trkpt lat="45.28563" lon="4.60469">
        <ele>599.20001220703</ele>
        <time>2026-05-12T08:45:50.000Z</time>
      </trkpt>
      <trkpt lat="45.28561" lon="4.60469">
        <ele>599.40002441406</ele>
        <time>2026-05-12T08:45:51.000Z</time>
      </trkpt>
      <trkpt lat="45.28559" lon="4.60469">
        <ele>599.59997558594</ele>
        <time>2026-05-12T08:45:52.000Z</time>
      </trkpt>
      <trkpt lat="45.28557" lon="4.60469">
        <ele>599.79998779297</ele>
        <time>2026-05-12T08:45:53.000Z</time>
      </trkpt>
      <trkpt lat="45.28555" lon="4.6047">
        <ele>600</ele>
        <time>2026-05-12T08:45:54.000Z</time>
      </trkpt>
      <trkpt lat="45.28554" lon="4.6047">
        <ele>600.20001220703</ele>
        <time>2026-05-12T08:45:55.000Z</time>
      </trkpt>
      <trkpt lat="45.28552" lon="4.60471">
        <ele>600.59997558594</ele>
        <time>2026-05-12T08:45:56.000Z</time>
      </trkpt>
      <trkpt lat="45.2855" lon="4.60471">
        <ele>600.79998779297</ele>
        <time>2026-05-12T08:45:57.000Z</time>
      </trkpt>
      <trkpt lat="45.28548" lon="4.60471">
        <ele>601.20001220703</ele>
        <time>2026-05-12T08:45:58.000Z</time>
      </trkpt>
      <trkpt lat="45.28547" lon="4.60471">
        <ele>601.40002441406</ele>
        <time>2026-05-12T08:45:59.000Z</time>
      </trkpt>
      <trkpt lat="45.28545" lon="4.60471">
        <ele>601.59997558594</ele>
        <time>2026-05-12T08:46:00.000Z</time>
      </trkpt>
      <trkpt lat="45.28544" lon="4.60471">
        <ele>602</ele>
        <time>2026-05-12T08:46:01.000Z</time>
      </trkpt>
      <trkpt lat="45.28543" lon="4.60471">
        <ele>602.20001220703</ele>
        <time>2026-05-12T08:46:02.000Z</time>
      </trkpt>
      <trkpt lat="45.28541" lon="4.60471">
        <ele>602.40002441406</ele>
        <time>2026-05-12T08:46:03.000Z</time>
      </trkpt>
      <trkpt lat="45.2854" lon="4.60471">
        <ele>602.79998779297</ele>
        <time>2026-05-12T08:46:04.000Z</time>
      </trkpt>
      <trkpt lat="45.28538" lon="4.60471">
        <ele>603</ele>
        <time>2026-05-12T08:46:05.000Z</time>
      </trkpt>
      <trkpt lat="45.28537" lon="4.60471">
        <ele>603.20001220703</ele>
        <time>2026-05-12T08:46:06.000Z</time>
      </trkpt>
      <trkpt lat="45.28535" lon="4.60471">
        <ele>603.20001220703</ele>
        <time>2026-05-12T08:46:07.000Z</time>
      </trkpt>
      <trkpt lat="45.28533" lon="4.60471">
        <ele>603.40002441406</ele>
        <time>2026-05-12T08:46:08.000Z</time>
      </trkpt>
      <trkpt lat="45.28531" lon="4.6047">
        <ele>603.40002441406</ele>
        <time>2026-05-12T08:46:09.000Z</time>
      </trkpt>
      <trkpt lat="45.28529" lon="4.6047">
        <ele>603.59997558594</ele>
        <time>2026-05-12T08:46:10.000Z</time>
      </trkpt>
      <trkpt lat="45.28528" lon="4.6047">
        <ele>603.79998779297</ele>
        <time>2026-05-12T08:46:11.000Z</time>
      </trkpt>
      <trkpt lat="45.28526" lon="4.60469">
        <ele>604</ele>
        <time>2026-05-12T08:46:12.000Z</time>
      </trkpt>
      <trkpt lat="45.28524" lon="4.60469">
        <ele>604</ele>
        <time>2026-05-12T08:46:13.000Z</time>
      </trkpt>
      <trkpt lat="45.28522" lon="4.60468">
        <ele>604.20001220703</ele>
        <time>2026-05-12T08:46:14.000Z</time>
      </trkpt>
      <trkpt lat="45.28521" lon="4.60468">
        <ele>604.40002441406</ele>
        <time>2026-05-12T08:46:15.000Z</time>
      </trkpt>
      <trkpt lat="45.28519" lon="4.60468">
        <ele>604.59997558594</ele>
        <time>2026-05-12T08:46:16.000Z</time>
      </trkpt>
      <trkpt lat="45.28517" lon="4.60468">
        <ele>604.79998779297</ele>
        <time>2026-05-12T08:46:17.000Z</time>
      </trkpt>
      <trkpt lat="45.28516" lon="4.60467">
        <ele>605</ele>
        <time>2026-05-12T08:46:18.000Z</time>
      </trkpt>
      <trkpt lat="45.28515" lon="4.60467">
        <ele>605.20001220703</ele>
        <time>2026-05-12T08:46:19.000Z</time>
      </trkpt>
      <trkpt lat="45.28514" lon="4.60467">
        <ele>605.40002441406</ele>
        <time>2026-05-12T08:46:20.000Z</time>
      </trkpt>
      <trkpt lat="45.28512" lon="4.60468">
        <ele>605.59997558594</ele>
        <time>2026-05-12T08:46:21.000Z</time>
      </trkpt>
      <trkpt lat="45.2851" lon="4.60468">
        <ele>605.79998779297</ele>
        <time>2026-05-12T08:46:22.000Z</time>
      </trkpt>
      <trkpt lat="45.28508" lon="4.60468">
        <ele>606</ele>
        <time>2026-05-12T08:46:23.000Z</time>
      </trkpt>
      <trkpt lat="45.28506" lon="4.60467">
        <ele>606.20001220703</ele>
        <time>2026-05-12T08:46:24.000Z</time>
      </trkpt>
      <trkpt lat="45.28505" lon="4.60467">
        <ele>606.40002441406</ele>
        <time>2026-05-12T08:46:25.000Z</time>
      </trkpt>
      <trkpt lat="45.28503" lon="4.60467">
        <ele>606.79998779297</ele>
        <time>2026-05-12T08:46:26.000Z</time>
      </trkpt>
      <trkpt lat="45.28501" lon="4.60467">
        <ele>607</ele>
        <time>2026-05-12T08:46:27.000Z</time>
      </trkpt>
      <trkpt lat="45.28499" lon="4.60466">
        <ele>607.20001220703</ele>
        <time>2026-05-12T08:46:28.000Z</time>
      </trkpt>
      <trkpt lat="45.28498" lon="4.60466">
        <ele>607.40002441406</ele>
        <time>2026-05-12T08:46:29.000Z</time>
      </trkpt>
      <trkpt lat="45.28497" lon="4.60467">
        <ele>607.79998779297</ele>
        <time>2026-05-12T08:46:30.000Z</time>
      </trkpt>
      <trkpt lat="45.28495" lon="4.60467">
        <ele>608</ele>
        <time>2026-05-12T08:46:31.000Z</time>
      </trkpt>
      <trkpt lat="45.28493" lon="4.60468">
        <ele>608.20001220703</ele>
        <time>2026-05-12T08:46:32.000Z</time>
      </trkpt>
      <trkpt lat="45.28491" lon="4.60466">
        <ele>608.59997558594</ele>
        <time>2026-05-12T08:46:33.000Z</time>
      </trkpt>
      <trkpt lat="45.28489" lon="4.60466">
        <ele>608.79998779297</ele>
        <time>2026-05-12T08:46:34.000Z</time>
      </trkpt>
      <trkpt lat="45.28487" lon="4.60466">
        <ele>609</ele>
        <time>2026-05-12T08:46:35.000Z</time>
      </trkpt>
      <trkpt lat="45.28485" lon="4.60465">
        <ele>609.20001220703</ele>
        <time>2026-05-12T08:46:36.000Z</time>
      </trkpt>
      <trkpt lat="45.28483" lon="4.60465">
        <ele>609.59997558594</ele>
        <time>2026-05-12T08:46:37.000Z</time>
      </trkpt>
      <trkpt lat="45.28481" lon="4.60464">
        <ele>609.79998779297</ele>
        <time>2026-05-12T08:46:38.000Z</time>
      </trkpt>
      <trkpt lat="45.2848" lon="4.60463">
        <ele>610</ele>
        <time>2026-05-12T08:46:39.000Z</time>
      </trkpt>
      <trkpt lat="45.28478" lon="4.60462">
        <ele>610.20001220703</ele>
        <time>2026-05-12T08:46:40.000Z</time>
      </trkpt>
      <trkpt lat="45.28476" lon="4.6046">
        <ele>610.40002441406</ele>
        <time>2026-05-12T08:46:41.000Z</time>
      </trkpt>
      <trkpt lat="45.28475" lon="4.60459">
        <ele>610.59997558594</ele>
        <time>2026-05-12T08:46:42.000Z</time>
      </trkpt>
      <trkpt lat="45.28473" lon="4.60458">
        <ele>610.59997558594</ele>
        <time>2026-05-12T08:46:43.000Z</time>
      </trkpt>
      <trkpt lat="45.28472" lon="4.60456">
        <ele>610.79998779297</ele>
        <time>2026-05-12T08:46:44.000Z</time>
      </trkpt>
      <trkpt lat="45.28471" lon="4.60455">
        <ele>611</ele>
        <time>2026-05-12T08:46:45.000Z</time>
      </trkpt>
      <trkpt lat="45.2847" lon="4.60454">
        <ele>611</ele>
        <time>2026-05-12T08:46:46.000Z</time>
      </trkpt>
      <trkpt lat="45.28468" lon="4.60453">
        <ele>611.20001220703</ele>
        <time>2026-05-12T08:46:47.000Z</time>
      </trkpt>
      <trkpt lat="45.28467" lon="4.60453">
        <ele>611.40002441406</ele>
        <time>2026-05-12T08:46:48.000Z</time>
      </trkpt>
      <trkpt lat="45.28466" lon="4.60451">
        <ele>611.40002441406</ele>
        <time>2026-05-12T08:46:49.000Z</time>
      </trkpt>
      <trkpt lat="45.28465" lon="4.60449">
        <ele>611.40002441406</ele>
        <time>2026-05-12T08:46:50.000Z</time>
      </trkpt>
      <trkpt lat="45.28464" lon="4.60447">
        <ele>611.59997558594</ele>
        <time>2026-05-12T08:46:51.000Z</time>
      </trkpt>
      <trkpt lat="45.28464" lon="4.60445">
        <ele>611.59997558594</ele>
        <time>2026-05-12T08:46:52.000Z</time>
      </trkpt>
      <trkpt lat="45.28462" lon="4.60443">
        <ele>611.59997558594</ele>
        <time>2026-05-12T08:46:53.000Z</time>
      </trkpt>
      <trkpt lat="45.28461" lon="4.60441">
        <ele>611.59997558594</ele>
        <time>2026-05-12T08:46:54.000Z</time>
      </trkpt>
      <trkpt lat="45.2846" lon="4.60438">
        <ele>611.59997558594</ele>
        <time>2026-05-12T08:46:55.000Z</time>
      </trkpt>
      <trkpt lat="45.28458" lon="4.60436">
        <ele>611.59997558594</ele>
        <time>2026-05-12T08:46:56.000Z</time>
      </trkpt>
      <trkpt lat="45.28458" lon="4.60433">
        <ele>611.40002441406</ele>
        <time>2026-05-12T08:46:57.000Z</time>
      </trkpt>
      <trkpt lat="45.28457" lon="4.6043">
        <ele>611.40002441406</ele>
        <time>2026-05-12T08:46:58.000Z</time>
      </trkpt>
      <trkpt lat="45.28457" lon="4.60428">
        <ele>611.40002441406</ele>
        <time>2026-05-12T08:46:59.000Z</time>
      </trkpt>
      <trkpt lat="45.28457" lon="4.60426">
        <ele>611.59997558594</ele>
        <time>2026-05-12T08:47:00.000Z</time>
      </trkpt>
      <trkpt lat="45.28458" lon="4.60423">
        <ele>611.59997558594</ele>
        <time>2026-05-12T08:47:01.000Z</time>
      </trkpt>
      <trkpt lat="45.2846" lon="4.60421">
        <ele>611.79998779297</ele>
        <time>2026-05-12T08:47:02.000Z</time>
      </trkpt>
      <trkpt lat="45.28461" lon="4.60419">
        <ele>611.79998779297</ele>
        <time>2026-05-12T08:47:03.000Z</time>
      </trkpt>
      <trkpt lat="45.28463" lon="4.60418">
        <ele>612</ele>
        <time>2026-05-12T08:47:04.000Z</time>
      </trkpt>
      <trkpt lat="45.28465" lon="4.60417">
        <ele>612</ele>
        <time>2026-05-12T08:47:05.000Z</time>
      </trkpt>
      <trkpt lat="45.28467" lon="4.60415">
        <ele>612.20001220703</ele>
        <time>2026-05-12T08:47:06.000Z</time>
      </trkpt>
      <trkpt lat="45.28468" lon="4.60414">
        <ele>612.40002441406</ele>
        <time>2026-05-12T08:47:07.000Z</time>
      </trkpt>
      <trkpt lat="45.2847" lon="4.60412">
        <ele>612.59997558594</ele>
        <time>2026-05-12T08:47:08.000Z</time>
      </trkpt>
      <trkpt lat="45.28472" lon="4.60409">
        <ele>612.79998779297</ele>
        <time>2026-05-12T08:47:09.000Z</time>
      </trkpt>
      <trkpt lat="45.28474" lon="4.60407">
        <ele>613</ele>
        <time>2026-05-12T08:47:10.000Z</time>
      </trkpt>
      <trkpt lat="45.28475" lon="4.60406">
        <ele>613.20001220703</ele>
        <time>2026-05-12T08:47:11.000Z</time>
      </trkpt>
      <trkpt lat="45.28477" lon="4.60405">
        <ele>613.40002441406</ele>
        <time>2026-05-12T08:47:12.000Z</time>
      </trkpt>
      <trkpt lat="45.28478" lon="4.60403">
        <ele>613.59997558594</ele>
        <time>2026-05-12T08:47:13.000Z</time>
      </trkpt>
      <trkpt lat="45.2848" lon="4.60401">
        <ele>613.79998779297</ele>
        <time>2026-05-12T08:47:14.000Z</time>
      </trkpt>
      <trkpt lat="45.28481" lon="4.60399">
        <ele>614</ele>
        <time>2026-05-12T08:47:15.000Z</time>
      </trkpt>
      <trkpt lat="45.28482" lon="4.60396">
        <ele>614.20001220703</ele>
        <time>2026-05-12T08:47:16.000Z</time>
      </trkpt>
      <trkpt lat="45.28484" lon="4.60394">
        <ele>614.40002441406</ele>
        <time>2026-05-12T08:47:17.000Z</time>
      </trkpt>
      <trkpt lat="45.28485" lon="4.60392">
        <ele>614.59997558594</ele>
        <time>2026-05-12T08:47:18.000Z</time>
      </trkpt>
      <trkpt lat="45.28486" lon="4.60389">
        <ele>615</ele>
        <time>2026-05-12T08:47:19.000Z</time>
      </trkpt>
      <trkpt lat="45.28488" lon="4.60386">
        <ele>615.20001220703</ele>
        <time>2026-05-12T08:47:20.000Z</time>
      </trkpt>
      <trkpt lat="45.28489" lon="4.60384">
        <ele>615.40002441406</ele>
        <time>2026-05-12T08:47:21.000Z</time>
      </trkpt>
      <trkpt lat="45.2849" lon="4.60381">
        <ele>615.59997558594</ele>
        <time>2026-05-12T08:47:22.000Z</time>
      </trkpt>
      <trkpt lat="45.2849" lon="4.60378">
        <ele>616</ele>
        <time>2026-05-12T08:47:23.000Z</time>
      </trkpt>
      <trkpt lat="45.2849" lon="4.60376">
        <ele>616.20001220703</ele>
        <time>2026-05-12T08:47:24.000Z</time>
      </trkpt>
      <trkpt lat="45.28491" lon="4.60373">
        <ele>616.40002441406</ele>
        <time>2026-05-12T08:47:25.000Z</time>
      </trkpt>
      <trkpt lat="45.28491" lon="4.6037">
        <ele>616.79998779297</ele>
        <time>2026-05-12T08:47:26.000Z</time>
      </trkpt>
      <trkpt lat="45.28491" lon="4.60368">
        <ele>617</ele>
        <time>2026-05-12T08:47:27.000Z</time>
      </trkpt>
      <trkpt lat="45.28491" lon="4.60365">
        <ele>617.20001220703</ele>
        <time>2026-05-12T08:47:28.000Z</time>
      </trkpt>
      <trkpt lat="45.28491" lon="4.60362">
        <ele>617.40002441406</ele>
        <time>2026-05-12T08:47:29.000Z</time>
      </trkpt>
      <trkpt lat="45.2849" lon="4.60359">
        <ele>617.59997558594</ele>
        <time>2026-05-12T08:47:30.000Z</time>
      </trkpt>
      <trkpt lat="45.2849" lon="4.60356">
        <ele>617.59997558594</ele>
        <time>2026-05-12T08:47:31.000Z</time>
      </trkpt>
      <trkpt lat="45.28489" lon="4.60354">
        <ele>617.79998779297</ele>
        <time>2026-05-12T08:47:32.000Z</time>
      </trkpt>
      <trkpt lat="45.28488" lon="4.60352">
        <ele>618</ele>
        <time>2026-05-12T08:47:33.000Z</time>
      </trkpt>
      <trkpt lat="45.28488" lon="4.60349">
        <ele>618</ele>
        <time>2026-05-12T08:47:34.000Z</time>
      </trkpt>
      <trkpt lat="45.28488" lon="4.60347">
        <ele>618.20001220703</ele>
        <time>2026-05-12T08:47:35.000Z</time>
      </trkpt>
      <trkpt lat="45.28487" lon="4.60344">
        <ele>618.20001220703</ele>
        <time>2026-05-12T08:47:36.000Z</time>
      </trkpt>
      <trkpt lat="45.28486" lon="4.60341">
        <ele>618.20001220703</ele>
        <time>2026-05-12T08:47:37.000Z</time>
      </trkpt>
      <trkpt lat="45.28486" lon="4.60339">
        <ele>618.40002441406</ele>
        <time>2026-05-12T08:47:38.000Z</time>
      </trkpt>
      <trkpt lat="45.28486" lon="4.60336">
        <ele>618.40002441406</ele>
        <time>2026-05-12T08:47:39.000Z</time>
      </trkpt>
      <trkpt lat="45.28485" lon="4.60333">
        <ele>618.40002441406</ele>
        <time>2026-05-12T08:47:40.000Z</time>
      </trkpt>
      <trkpt lat="45.28484" lon="4.6033">
        <ele>618.59997558594</ele>
        <time>2026-05-12T08:47:41.000Z</time>
      </trkpt>
      <trkpt lat="45.28483" lon="4.60326">
        <ele>618.59997558594</ele>
        <time>2026-05-12T08:47:42.000Z</time>
      </trkpt>
      <trkpt lat="45.28482" lon="4.60324">
        <ele>618.59997558594</ele>
        <time>2026-05-12T08:47:43.000Z</time>
      </trkpt>
      <trkpt lat="45.28482" lon="4.60322">
        <ele>618.59997558594</ele>
        <time>2026-05-12T08:47:44.000Z</time>
      </trkpt>
      <trkpt lat="45.28482" lon="4.60319">
        <ele>618.79998779297</ele>
        <time>2026-05-12T08:47:45.000Z</time>
      </trkpt>
      <trkpt lat="45.28481" lon="4.60317">
        <ele>618.79998779297</ele>
        <time>2026-05-12T08:47:46.000Z</time>
      </trkpt>
      <trkpt lat="45.2848" lon="4.60314">
        <ele>618.79998779297</ele>
        <time>2026-05-12T08:47:47.000Z</time>
      </trkpt>
      <trkpt lat="45.28479" lon="4.60312">
        <ele>619</ele>
        <time>2026-05-12T08:47:48.000Z</time>
      </trkpt>
      <trkpt lat="45.28478" lon="4.60309">
        <ele>619</ele>
        <time>2026-05-12T08:47:49.000Z</time>
      </trkpt>
      <trkpt lat="45.28478" lon="4.60305">
        <ele>619</ele>
        <time>2026-05-12T08:47:50.000Z</time>
      </trkpt>
      <trkpt lat="45.28477" lon="4.60302">
        <ele>619</ele>
        <time>2026-05-12T08:47:51.000Z</time>
      </trkpt>
      <trkpt lat="45.28477" lon="4.60298">
        <ele>619</ele>
        <time>2026-05-12T08:47:52.000Z</time>
      </trkpt>
      <trkpt lat="45.28477" lon="4.60295">
        <ele>619.20001220703</ele>
        <time>2026-05-12T08:47:53.000Z</time>
      </trkpt>
      <trkpt lat="45.28477" lon="4.60292">
        <ele>619.20001220703</ele>
        <time>2026-05-12T08:47:54.000Z</time>
      </trkpt>
      <trkpt lat="45.28477" lon="4.6029">
        <ele>619.20001220703</ele>
        <time>2026-05-12T08:47:55.000Z</time>
      </trkpt>
      <trkpt lat="45.28476" lon="4.60287">
        <ele>619.40002441406</ele>
        <time>2026-05-12T08:47:56.000Z</time>
      </trkpt>
      <trkpt lat="45.28476" lon="4.60284">
        <ele>619.40002441406</ele>
        <time>2026-05-12T08:47:57.000Z</time>
      </trkpt>
      <trkpt lat="45.28477" lon="4.60281">
        <ele>619.59997558594</ele>
        <time>2026-05-12T08:47:58.000Z</time>
      </trkpt>
      <trkpt lat="45.28476" lon="4.6028">
        <ele>619.79998779297</ele>
        <time>2026-05-12T08:47:59.000Z</time>
      </trkpt>
      <trkpt lat="45.28476" lon="4.60275">
        <ele>620</ele>
        <time>2026-05-12T08:48:00.000Z</time>
      </trkpt>
      <trkpt lat="45.28476" lon="4.60271">
        <ele>620</ele>
        <time>2026-05-12T08:48:01.000Z</time>
      </trkpt>
      <trkpt lat="45.28475" lon="4.60269">
        <ele>620.20001220703</ele>
        <time>2026-05-12T08:48:02.000Z</time>
      </trkpt>
      <trkpt lat="45.28474" lon="4.60266">
        <ele>620.40002441406</ele>
        <time>2026-05-12T08:48:03.000Z</time>
      </trkpt>
      <trkpt lat="45.28474" lon="4.60262">
        <ele>620.59997558594</ele>
        <time>2026-05-12T08:48:04.000Z</time>
      </trkpt>
      <trkpt lat="45.28474" lon="4.6026">
        <ele>620.79998779297</ele>
        <time>2026-05-12T08:48:05.000Z</time>
      </trkpt>
      <trkpt lat="45.28474" lon="4.60257">
        <ele>621</ele>
        <time>2026-05-12T08:48:06.000Z</time>
      </trkpt>
      <trkpt lat="45.28474" lon="4.60253">
        <ele>621</ele>
        <time>2026-05-12T08:48:07.000Z</time>
      </trkpt>
      <trkpt lat="45.28472" lon="4.6025">
        <ele>621.20001220703</ele>
        <time>2026-05-12T08:48:08.000Z</time>
      </trkpt>
      <trkpt lat="45.28472" lon="4.60246">
        <ele>621.40002441406</ele>
        <time>2026-05-12T08:48:09.000Z</time>
      </trkpt>
      <trkpt lat="45.28472" lon="4.60242">
        <ele>621.59997558594</ele>
        <time>2026-05-12T08:48:10.000Z</time>
      </trkpt>
      <trkpt lat="45.28473" lon="4.60238">
        <ele>621.59997558594</ele>
        <time>2026-05-12T08:48:11.000Z</time>
      </trkpt>
      <trkpt lat="45.28472" lon="4.60236">
        <ele>621.79998779297</ele>
        <time>2026-05-12T08:48:12.000Z</time>
      </trkpt>
      <trkpt lat="45.28473" lon="4.60231">
        <ele>622</ele>
        <time>2026-05-12T08:48:13.000Z</time>
      </trkpt>
      <trkpt lat="45.28472" lon="4.60228">
        <ele>622</ele>
        <time>2026-05-12T08:48:14.000Z</time>
      </trkpt>
      <trkpt lat="45.28472" lon="4.60224">
        <ele>622.20001220703</ele>
        <time>2026-05-12T08:48:15.000Z</time>
      </trkpt>
      <trkpt lat="45.28472" lon="4.60221">
        <ele>622.40002441406</ele>
        <time>2026-05-12T08:48:16.000Z</time>
      </trkpt>
      <trkpt lat="45.28472" lon="4.60218">
        <ele>622.59997558594</ele>
        <time>2026-05-12T08:48:17.000Z</time>
      </trkpt>
      <trkpt lat="45.28471" lon="4.60214">
        <ele>622.59997558594</ele>
        <time>2026-05-12T08:48:18.000Z</time>
      </trkpt>
      <trkpt lat="45.2847" lon="4.60212">
        <ele>622.79998779297</ele>
        <time>2026-05-12T08:48:19.000Z</time>
      </trkpt>
      <trkpt lat="45.2847" lon="4.6021">
        <ele>622.79998779297</ele>
        <time>2026-05-12T08:48:20.000Z</time>
      </trkpt>
      <trkpt lat="45.28469" lon="4.60209">
        <ele>623</ele>
        <time>2026-05-12T08:48:21.000Z</time>
      </trkpt>
      <trkpt lat="45.28469" lon="4.60207">
        <ele>623.20001220703</ele>
        <time>2026-05-12T08:48:22.000Z</time>
      </trkpt>
      <trkpt lat="45.28468" lon="4.60205">
        <ele>623.20001220703</ele>
        <time>2026-05-12T08:48:23.000Z</time>
      </trkpt>
      <trkpt lat="45.28467" lon="4.60202">
        <ele>623.20001220703</ele>
        <time>2026-05-12T08:48:24.000Z</time>
      </trkpt>
      <trkpt lat="45.28466" lon="4.602">
        <ele>623.20001220703</ele>
        <time>2026-05-12T08:48:25.000Z</time>
      </trkpt>
      <trkpt lat="45.28464" lon="4.60196">
        <ele>623</ele>
        <time>2026-05-12T08:48:26.000Z</time>
      </trkpt>
      <trkpt lat="45.28462" lon="4.60194">
        <ele>622.79998779297</ele>
        <time>2026-05-12T08:48:27.000Z</time>
      </trkpt>
      <trkpt lat="45.2846" lon="4.60191">
        <ele>622.59997558594</ele>
        <time>2026-05-12T08:48:28.000Z</time>
      </trkpt>
      <trkpt lat="45.28457" lon="4.60189">
        <ele>622.59997558594</ele>
        <time>2026-05-12T08:48:29.000Z</time>
      </trkpt>
      <trkpt lat="45.28455" lon="4.60188">
        <ele>622.40002441406</ele>
        <time>2026-05-12T08:48:30.000Z</time>
      </trkpt>
      <trkpt lat="45.28452" lon="4.60186">
        <ele>622.40002441406</ele>
        <time>2026-05-12T08:48:31.000Z</time>
      </trkpt>
      <trkpt lat="45.2845" lon="4.60185">
        <ele>622.20001220703</ele>
        <time>2026-05-12T08:48:32.000Z</time>
      </trkpt>
      <trkpt lat="45.28447" lon="4.60185">
        <ele>622.20001220703</ele>
        <time>2026-05-12T08:48:33.000Z</time>
      </trkpt>
      <trkpt lat="45.28445" lon="4.60184">
        <ele>622.20001220703</ele>
        <time>2026-05-12T08:48:34.000Z</time>
      </trkpt>
      <trkpt lat="45.28442" lon="4.60183">
        <ele>622.20001220703</ele>
        <time>2026-05-12T08:48:35.000Z</time>
      </trkpt>
      <trkpt lat="45.2844" lon="4.60182">
        <ele>622.20001220703</ele>
        <time>2026-05-12T08:48:36.000Z</time>
      </trkpt>
      <trkpt lat="45.28437" lon="4.60182">
        <ele>622.20001220703</ele>
        <time>2026-05-12T08:48:37.000Z</time>
      </trkpt>
      <trkpt lat="45.28434" lon="4.60181">
        <ele>622.20001220703</ele>
        <time>2026-05-12T08:48:38.000Z</time>
      </trkpt>
      <trkpt lat="45.28431" lon="4.60181">
        <ele>622.20001220703</ele>
        <time>2026-05-12T08:48:39.000Z</time>
      </trkpt>
      <trkpt lat="45.28428" lon="4.6018">
        <ele>622</ele>
        <time>2026-05-12T08:48:40.000Z</time>
      </trkpt>
      <trkpt lat="45.28424" lon="4.6018">
        <ele>622</ele>
        <time>2026-05-12T08:48:41.000Z</time>
      </trkpt>
      <trkpt lat="45.28421" lon="4.60179">
        <ele>622</ele>
        <time>2026-05-12T08:48:42.000Z</time>
      </trkpt>
      <trkpt lat="45.28418" lon="4.60179">
        <ele>621.79998779297</ele>
        <time>2026-05-12T08:48:43.000Z</time>
      </trkpt>
      <trkpt lat="45.28414" lon="4.60179">
        <ele>621.79998779297</ele>
        <time>2026-05-12T08:48:44.000Z</time>
      </trkpt>
      <trkpt lat="45.28411" lon="4.60178">
        <ele>621.79998779297</ele>
        <time>2026-05-12T08:48:45.000Z</time>
      </trkpt>
      <trkpt lat="45.28408" lon="4.60178">
        <ele>621.59997558594</ele>
        <time>2026-05-12T08:48:46.000Z</time>
      </trkpt>
      <trkpt lat="45.28405" lon="4.60178">
        <ele>621.59997558594</ele>
        <time>2026-05-12T08:48:47.000Z</time>
      </trkpt>
      <trkpt lat="45.28402" lon="4.60177">
        <ele>621.59997558594</ele>
        <time>2026-05-12T08:48:48.000Z</time>
      </trkpt>
      <trkpt lat="45.28399" lon="4.60178">
        <ele>621.40002441406</ele>
        <time>2026-05-12T08:48:49.000Z</time>
      </trkpt>
      <trkpt lat="45.28396" lon="4.60178">
        <ele>621.40002441406</ele>
        <time>2026-05-12T08:48:50.000Z</time>
      </trkpt>
      <trkpt lat="45.28393" lon="4.60177">
        <ele>621.40002441406</ele>
        <time>2026-05-12T08:48:51.000Z</time>
      </trkpt>
      <trkpt lat="45.28391" lon="4.60177">
        <ele>621.20001220703</ele>
        <time>2026-05-12T08:48:52.000Z</time>
      </trkpt>
      <trkpt lat="45.28388" lon="4.60177">
        <ele>621.20001220703</ele>
        <time>2026-05-12T08:48:53.000Z</time>
      </trkpt>
      <trkpt lat="45.28385" lon="4.60178">
        <ele>621.20001220703</ele>
        <time>2026-05-12T08:48:54.000Z</time>
      </trkpt>
      <trkpt lat="45.28383" lon="4.60178">
        <ele>621</ele>
        <time>2026-05-12T08:48:55.000Z</time>
      </trkpt>
      <trkpt lat="45.28381" lon="4.60178">
        <ele>621</ele>
        <time>2026-05-12T08:48:56.000Z</time>
      </trkpt>
      <trkpt lat="45.28378" lon="4.60178">
        <ele>621</ele>
        <time>2026-05-12T08:48:57.000Z</time>
      </trkpt>
      <trkpt lat="45.28375" lon="4.60178">
        <ele>621</ele>
        <time>2026-05-12T08:48:58.000Z</time>
      </trkpt>
      <trkpt lat="45.28373" lon="4.60178">
        <ele>621</ele>
        <time>2026-05-12T08:48:59.000Z</time>
      </trkpt>
      <trkpt lat="45.2837" lon="4.60178">
        <ele>621</ele>
        <time>2026-05-12T08:49:00.000Z</time>
      </trkpt>
      <trkpt lat="45.28367" lon="4.60178">
        <ele>621</ele>
        <time>2026-05-12T08:49:01.000Z</time>
      </trkpt>
      <trkpt lat="45.28364" lon="4.60178">
        <ele>620.79998779297</ele>
        <time>2026-05-12T08:49:02.000Z</time>
      </trkpt>
      <trkpt lat="45.28361" lon="4.60177">
        <ele>620.79998779297</ele>
        <time>2026-05-12T08:49:03.000Z</time>
      </trkpt>
      <trkpt lat="45.28359" lon="4.60177">
        <ele>620.59997558594</ele>
        <time>2026-05-12T08:49:04.000Z</time>
      </trkpt>
      <trkpt lat="45.28355" lon="4.60176">
        <ele>620.59997558594</ele>
        <time>2026-05-12T08:49:05.000Z</time>
      </trkpt>
      <trkpt lat="45.28352" lon="4.60175">
        <ele>620.59997558594</ele>
        <time>2026-05-12T08:49:06.000Z</time>
      </trkpt>
      <trkpt lat="45.2835" lon="4.60174">
        <ele>620.59997558594</ele>
        <time>2026-05-12T08:49:07.000Z</time>
      </trkpt>
      <trkpt lat="45.28346" lon="4.60172">
        <ele>620.59997558594</ele>
        <time>2026-05-12T08:49:08.000Z</time>
      </trkpt>
      <trkpt lat="45.28343" lon="4.60171">
        <ele>620.59997558594</ele>
        <time>2026-05-12T08:49:09.000Z</time>
      </trkpt>
      <trkpt lat="45.2834" lon="4.60169">
        <ele>620.59997558594</ele>
        <time>2026-05-12T08:49:10.000Z</time>
      </trkpt>
      <trkpt lat="45.28337" lon="4.60166">
        <ele>620.59997558594</ele>
        <time>2026-05-12T08:49:11.000Z</time>
      </trkpt>
      <trkpt lat="45.28334" lon="4.60164">
        <ele>620.59997558594</ele>
        <time>2026-05-12T08:49:12.000Z</time>
      </trkpt>
      <trkpt lat="45.28331" lon="4.60162">
        <ele>620.59997558594</ele>
        <time>2026-05-12T08:49:13.000Z</time>
      </trkpt>
      <trkpt lat="45.28328" lon="4.6016">
        <ele>620.59997558594</ele>
        <time>2026-05-12T08:49:14.000Z</time>
      </trkpt>
      <trkpt lat="45.28325" lon="4.60158">
        <ele>620.59997558594</ele>
        <time>2026-05-12T08:49:15.000Z</time>
      </trkpt>
      <trkpt lat="45.28322" lon="4.60157">
        <ele>620.40002441406</ele>
        <time>2026-05-12T08:49:16.000Z</time>
      </trkpt>
      <trkpt lat="45.28319" lon="4.60155">
        <ele>620.40002441406</ele>
        <time>2026-05-12T08:49:17.000Z</time>
      </trkpt>
      <trkpt lat="45.28316" lon="4.60153">
        <ele>620.40002441406</ele>
        <time>2026-05-12T08:49:18.000Z</time>
      </trkpt>
      <trkpt lat="45.28314" lon="4.60152">
        <ele>620.40002441406</ele>
        <time>2026-05-12T08:49:19.000Z</time>
      </trkpt>
      <trkpt lat="45.28311" lon="4.60151">
        <ele>620.40002441406</ele>
        <time>2026-05-12T08:49:20.000Z</time>
      </trkpt>
      <trkpt lat="45.28309" lon="4.60149">
        <ele>620.40002441406</ele>
        <time>2026-05-12T08:49:21.000Z</time>
      </trkpt>
      <trkpt lat="45.28306" lon="4.60147">
        <ele>620.40002441406</ele>
        <time>2026-05-12T08:49:22.000Z</time>
      </trkpt>
      <trkpt lat="45.28303" lon="4.60145">
        <ele>620.40002441406</ele>
        <time>2026-05-12T08:49:23.000Z</time>
      </trkpt>
      <trkpt lat="45.283" lon="4.60143">
        <ele>620.40002441406</ele>
        <time>2026-05-12T08:49:24.000Z</time>
      </trkpt>
      <trkpt lat="45.28296" lon="4.60141">
        <ele>620.20001220703</ele>
        <time>2026-05-12T08:49:25.000Z</time>
      </trkpt>
      <trkpt lat="45.28293" lon="4.60138">
        <ele>620</ele>
        <time>2026-05-12T08:49:26.000Z</time>
      </trkpt>
      <trkpt lat="45.28289" lon="4.60135">
        <ele>619.79998779297</ele>
        <time>2026-05-12T08:49:27.000Z</time>
      </trkpt>
      <trkpt lat="45.28286" lon="4.60132">
        <ele>619.40002441406</ele>
        <time>2026-05-12T08:49:28.000Z</time>
      </trkpt>
      <trkpt lat="45.28283" lon="4.60128">
        <ele>619.20001220703</ele>
        <time>2026-05-12T08:49:29.000Z</time>
      </trkpt>
      <trkpt lat="45.28281" lon="4.60125">
        <ele>619</ele>
        <time>2026-05-12T08:49:30.000Z</time>
      </trkpt>
      <trkpt lat="45.28279" lon="4.60123">
        <ele>619</ele>
        <time>2026-05-12T08:49:31.000Z</time>
      </trkpt>
      <trkpt lat="45.28277" lon="4.6012">
        <ele>619</ele>
        <time>2026-05-12T08:49:32.000Z</time>
      </trkpt>
      <trkpt lat="45.28275" lon="4.60118">
        <ele>619</ele>
        <time>2026-05-12T08:49:33.000Z</time>
      </trkpt>
      <trkpt lat="45.28274" lon="4.60116">
        <ele>619</ele>
        <time>2026-05-12T08:49:34.000Z</time>
      </trkpt>
      <trkpt lat="45.28272" lon="4.60114">
        <ele>619</ele>
        <time>2026-05-12T08:49:35.000Z</time>
      </trkpt>
      <trkpt lat="45.2827" lon="4.60112">
        <ele>619</ele>
        <time>2026-05-12T08:49:36.000Z</time>
      </trkpt>
      <trkpt lat="45.28268" lon="4.60109">
        <ele>619</ele>
        <time>2026-05-12T08:49:37.000Z</time>
      </trkpt>
      <trkpt lat="45.28266" lon="4.60107">
        <ele>619</ele>
        <time>2026-05-12T08:49:38.000Z</time>
      </trkpt>
      <trkpt lat="45.28264" lon="4.60104">
        <ele>619.20001220703</ele>
        <time>2026-05-12T08:49:39.000Z</time>
      </trkpt>
      <trkpt lat="45.28262" lon="4.60102">
        <ele>619.20001220703</ele>
        <time>2026-05-12T08:49:40.000Z</time>
      </trkpt>
      <trkpt lat="45.2826" lon="4.60099">
        <ele>619.40002441406</ele>
        <time>2026-05-12T08:49:41.000Z</time>
      </trkpt>
      <trkpt lat="45.28258" lon="4.60097">
        <ele>619.40002441406</ele>
        <time>2026-05-12T08:49:42.000Z</time>
      </trkpt>
      <trkpt lat="45.28255" lon="4.60095">
        <ele>619.59997558594</ele>
        <time>2026-05-12T08:49:43.000Z</time>
      </trkpt>
      <trkpt lat="45.28253" lon="4.60093">
        <ele>619.59997558594</ele>
        <time>2026-05-12T08:49:44.000Z</time>
      </trkpt>
      <trkpt lat="45.2825" lon="4.60092">
        <ele>619.79998779297</ele>
        <time>2026-05-12T08:49:45.000Z</time>
      </trkpt>
      <trkpt lat="45.28248" lon="4.6009">
        <ele>620</ele>
        <time>2026-05-12T08:49:46.000Z</time>
      </trkpt>
      <trkpt lat="45.28246" lon="4.60089">
        <ele>620.20001220703</ele>
        <time>2026-05-12T08:49:47.000Z</time>
      </trkpt>
      <trkpt lat="45.28243" lon="4.60087">
        <ele>620.40002441406</ele>
        <time>2026-05-12T08:49:48.000Z</time>
      </trkpt>
      <trkpt lat="45.2824" lon="4.60086">
        <ele>620.59997558594</ele>
        <time>2026-05-12T08:49:49.000Z</time>
      </trkpt>
      <trkpt lat="45.28238" lon="4.60085">
        <ele>620.59997558594</ele>
        <time>2026-05-12T08:49:50.000Z</time>
      </trkpt>
      <trkpt lat="45.28235" lon="4.60083">
        <ele>620.79998779297</ele>
        <time>2026-05-12T08:49:51.000Z</time>
      </trkpt>
      <trkpt lat="45.28233" lon="4.60082">
        <ele>620.79998779297</ele>
        <time>2026-05-12T08:49:52.000Z</time>
      </trkpt>
      <trkpt lat="45.28231" lon="4.60081">
        <ele>621</ele>
        <time>2026-05-12T08:49:53.000Z</time>
      </trkpt>
      <trkpt lat="45.28229" lon="4.6008">
        <ele>621</ele>
        <time>2026-05-12T08:49:54.000Z</time>
      </trkpt>
      <trkpt lat="45.28226" lon="4.60078">
        <ele>621</ele>
        <time>2026-05-12T08:49:55.000Z</time>
      </trkpt>
      <trkpt lat="45.28224" lon="4.60077">
        <ele>621.20001220703</ele>
        <time>2026-05-12T08:49:56.000Z</time>
      </trkpt>
      <trkpt lat="45.28222" lon="4.60076">
        <ele>621.20001220703</ele>
        <time>2026-05-12T08:49:57.000Z</time>
      </trkpt>
      <trkpt lat="45.2822" lon="4.60075">
        <ele>621.20001220703</ele>
        <time>2026-05-12T08:49:58.000Z</time>
      </trkpt>
      <trkpt lat="45.28218" lon="4.60074">
        <ele>621.20001220703</ele>
        <time>2026-05-12T08:49:59.000Z</time>
      </trkpt>
      <trkpt lat="45.28216" lon="4.60072">
        <ele>621.40002441406</ele>
        <time>2026-05-12T08:50:00.000Z</time>
      </trkpt>
      <trkpt lat="45.28214" lon="4.6007">
        <ele>621.40002441406</ele>
        <time>2026-05-12T08:50:01.000Z</time>
      </trkpt>
      <trkpt lat="45.28212" lon="4.60068">
        <ele>621.40002441406</ele>
        <time>2026-05-12T08:50:02.000Z</time>
      </trkpt>
      <trkpt lat="45.2821" lon="4.60066">
        <ele>621.40002441406</ele>
        <time>2026-05-12T08:50:03.000Z</time>
      </trkpt>
      <trkpt lat="45.28208" lon="4.60064">
        <ele>621.40002441406</ele>
        <time>2026-05-12T08:50:04.000Z</time>
      </trkpt>
      <trkpt lat="45.28207" lon="4.60061">
        <ele>621.59997558594</ele>
        <time>2026-05-12T08:50:05.000Z</time>
      </trkpt>
      <trkpt lat="45.28206" lon="4.60058">
        <ele>621.59997558594</ele>
        <time>2026-05-12T08:50:06.000Z</time>
      </trkpt>
      <trkpt lat="45.28204" lon="4.60056">
        <ele>621.59997558594</ele>
        <time>2026-05-12T08:50:07.000Z</time>
      </trkpt>
      <trkpt lat="45.28203" lon="4.60053">
        <ele>621.79998779297</ele>
        <time>2026-05-12T08:50:08.000Z</time>
      </trkpt>
      <trkpt lat="45.28202" lon="4.60051">
        <ele>621.79998779297</ele>
        <time>2026-05-12T08:50:09.000Z</time>
      </trkpt>
      <trkpt lat="45.282" lon="4.60048">
        <ele>621.79998779297</ele>
        <time>2026-05-12T08:50:10.000Z</time>
      </trkpt>
      <trkpt lat="45.28199" lon="4.60045">
        <ele>622</ele>
        <time>2026-05-12T08:50:11.000Z</time>
      </trkpt>
      <trkpt lat="45.28197" lon="4.60042">
        <ele>622</ele>
        <time>2026-05-12T08:50:12.000Z</time>
      </trkpt>
      <trkpt lat="45.28196" lon="4.6004">
        <ele>622.20001220703</ele>
        <time>2026-05-12T08:50:13.000Z</time>
      </trkpt>
      <trkpt lat="45.28195" lon="4.60037">
        <ele>622.20001220703</ele>
        <time>2026-05-12T08:50:14.000Z</time>
      </trkpt>
      <trkpt lat="45.28193" lon="4.60035">
        <ele>622.40002441406</ele>
        <time>2026-05-12T08:50:15.000Z</time>
      </trkpt>
      <trkpt lat="45.28192" lon="4.60032">
        <ele>622.59997558594</ele>
        <time>2026-05-12T08:50:16.000Z</time>
      </trkpt>
      <trkpt lat="45.2819" lon="4.6003">
        <ele>622.59997558594</ele>
        <time>2026-05-12T08:50:17.000Z</time>
      </trkpt>
      <trkpt lat="45.28189" lon="4.60027">
        <ele>622.79998779297</ele>
        <time>2026-05-12T08:50:18.000Z</time>
      </trkpt>
      <trkpt lat="45.28188" lon="4.60025">
        <ele>623</ele>
        <time>2026-05-12T08:50:19.000Z</time>
      </trkpt>
      <trkpt lat="45.28187" lon="4.60022">
        <ele>623</ele>
        <time>2026-05-12T08:50:20.000Z</time>
      </trkpt>
      <trkpt lat="45.28186" lon="4.6002">
        <ele>623.20001220703</ele>
        <time>2026-05-12T08:50:21.000Z</time>
      </trkpt>
      <trkpt lat="45.28184" lon="4.60018">
        <ele>623.40002441406</ele>
        <time>2026-05-12T08:50:22.000Z</time>
      </trkpt>
      <trkpt lat="45.28183" lon="4.60016">
        <ele>623.40002441406</ele>
        <time>2026-05-12T08:50:23.000Z</time>
      </trkpt>
      <trkpt lat="45.28182" lon="4.60014">
        <ele>623.59997558594</ele>
        <time>2026-05-12T08:50:24.000Z</time>
      </trkpt>
      <trkpt lat="45.2818" lon="4.60011">
        <ele>623.59997558594</ele>
        <time>2026-05-12T08:50:25.000Z</time>
      </trkpt>
      <trkpt lat="45.28179" lon="4.60008">
        <ele>623.79998779297</ele>
        <time>2026-05-12T08:50:26.000Z</time>
      </trkpt>
      <trkpt lat="45.28177" lon="4.60006">
        <ele>623.79998779297</ele>
        <time>2026-05-12T08:50:27.000Z</time>
      </trkpt>
      <trkpt lat="45.28175" lon="4.60002">
        <ele>623.79998779297</ele>
        <time>2026-05-12T08:50:28.000Z</time>
      </trkpt>
      <trkpt lat="45.28174" lon="4.6">
        <ele>624</ele>
        <time>2026-05-12T08:50:29.000Z</time>
      </trkpt>
      <trkpt lat="45.28172" lon="4.59997">
        <ele>624</ele>
        <time>2026-05-12T08:50:30.000Z</time>
      </trkpt>
      <trkpt lat="45.2817" lon="4.59994">
        <ele>624.20001220703</ele>
        <time>2026-05-12T08:50:31.000Z</time>
      </trkpt>
      <trkpt lat="45.28169" lon="4.59992">
        <ele>624.20001220703</ele>
        <time>2026-05-12T08:50:32.000Z</time>
      </trkpt>
      <trkpt lat="45.28167" lon="4.59989">
        <ele>624.20001220703</ele>
        <time>2026-05-12T08:50:33.000Z</time>
      </trkpt>
      <trkpt lat="45.28166" lon="4.59987">
        <ele>624.40002441406</ele>
        <time>2026-05-12T08:50:34.000Z</time>
      </trkpt>
      <trkpt lat="45.28164" lon="4.59984">
        <ele>624.40002441406</ele>
        <time>2026-05-12T08:50:35.000Z</time>
      </trkpt>
      <trkpt lat="45.28162" lon="4.59981">
        <ele>624.59997558594</ele>
        <time>2026-05-12T08:50:36.000Z</time>
      </trkpt>
      <trkpt lat="45.2816" lon="4.59979">
        <ele>624.59997558594</ele>
        <time>2026-05-12T08:50:37.000Z</time>
      </trkpt>
      <trkpt lat="45.28158" lon="4.59977">
        <ele>624.59997558594</ele>
        <time>2026-05-12T08:50:38.000Z</time>
      </trkpt>
      <trkpt lat="45.28157" lon="4.59975">
        <ele>624.79998779297</ele>
        <time>2026-05-12T08:50:39.000Z</time>
      </trkpt>
      <trkpt lat="45.28155" lon="4.59973">
        <ele>625</ele>
        <time>2026-05-12T08:50:40.000Z</time>
      </trkpt>
      <trkpt lat="45.28153" lon="4.59971">
        <ele>625</ele>
        <time>2026-05-12T08:50:41.000Z</time>
      </trkpt>
      <trkpt lat="45.28151" lon="4.59969">
        <ele>625.20001220703</ele>
        <time>2026-05-12T08:50:42.000Z</time>
      </trkpt>
      <trkpt lat="45.28149" lon="4.59967">
        <ele>625.40002441406</ele>
        <time>2026-05-12T08:50:43.000Z</time>
      </trkpt>
      <trkpt lat="45.28147" lon="4.59966">
        <ele>625.40002441406</ele>
        <time>2026-05-12T08:50:44.000Z</time>
      </trkpt>
      <trkpt lat="45.28145" lon="4.59964">
        <ele>625.59997558594</ele>
        <time>2026-05-12T08:50:45.000Z</time>
      </trkpt>
      <trkpt lat="45.28143" lon="4.59962">
        <ele>625.79998779297</ele>
        <time>2026-05-12T08:50:46.000Z</time>
      </trkpt>
      <trkpt lat="45.28141" lon="4.5996">
        <ele>626</ele>
        <time>2026-05-12T08:50:47.000Z</time>
      </trkpt>
      <trkpt lat="45.2814" lon="4.59958">
        <ele>626.20001220703</ele>
        <time>2026-05-12T08:50:48.000Z</time>
      </trkpt>
      <trkpt lat="45.28137" lon="4.59956">
        <ele>626.40002441406</ele>
        <time>2026-05-12T08:50:49.000Z</time>
      </trkpt>
      <trkpt lat="45.28135" lon="4.59955">
        <ele>626.59997558594</ele>
        <time>2026-05-12T08:50:50.000Z</time>
      </trkpt>
      <trkpt lat="45.28133" lon="4.59954">
        <ele>626.59997558594</ele>
        <time>2026-05-12T08:50:51.000Z</time>
      </trkpt>
      <trkpt lat="45.28131" lon="4.59952">
        <ele>626.79998779297</ele>
        <time>2026-05-12T08:50:52.000Z</time>
      </trkpt>
      <trkpt lat="45.28129" lon="4.5995">
        <ele>627</ele>
        <time>2026-05-12T08:50:53.000Z</time>
      </trkpt>
      <trkpt lat="45.28127" lon="4.59949">
        <ele>627.20001220703</ele>
        <time>2026-05-12T08:50:54.000Z</time>
      </trkpt>
      <trkpt lat="45.28125" lon="4.59947">
        <ele>627.40002441406</ele>
        <time>2026-05-12T08:50:55.000Z</time>
      </trkpt>
      <trkpt lat="45.28123" lon="4.59946">
        <ele>627.59997558594</ele>
        <time>2026-05-12T08:50:56.000Z</time>
      </trkpt>
      <trkpt lat="45.28121" lon="4.59944">
        <ele>627.79998779297</ele>
        <time>2026-05-12T08:50:57.000Z</time>
      </trkpt>
      <trkpt lat="45.28119" lon="4.59943">
        <ele>627.79998779297</ele>
        <time>2026-05-12T08:50:58.000Z</time>
      </trkpt>
      <trkpt lat="45.28117" lon="4.59942">
        <ele>628</ele>
        <time>2026-05-12T08:50:59.000Z</time>
      </trkpt>
      <trkpt lat="45.28114" lon="4.59942">
        <ele>628</ele>
        <time>2026-05-12T08:51:00.000Z</time>
      </trkpt>
      <trkpt lat="45.28112" lon="4.59941">
        <ele>628.20001220703</ele>
        <time>2026-05-12T08:51:01.000Z</time>
      </trkpt>
      <trkpt lat="45.28109" lon="4.5994">
        <ele>628.20001220703</ele>
        <time>2026-05-12T08:51:02.000Z</time>
      </trkpt>
      <trkpt lat="45.28107" lon="4.59939">
        <ele>628.40002441406</ele>
        <time>2026-05-12T08:51:03.000Z</time>
      </trkpt>
      <trkpt lat="45.28105" lon="4.59939">
        <ele>628.40002441406</ele>
        <time>2026-05-12T08:51:04.000Z</time>
      </trkpt>
      <trkpt lat="45.28103" lon="4.59939">
        <ele>628.40002441406</ele>
        <time>2026-05-12T08:51:05.000Z</time>
      </trkpt>
      <trkpt lat="45.28101" lon="4.59938">
        <ele>628.40002441406</ele>
        <time>2026-05-12T08:51:06.000Z</time>
      </trkpt>
      <trkpt lat="45.28099" lon="4.59938">
        <ele>628.40002441406</ele>
        <time>2026-05-12T08:51:07.000Z</time>
      </trkpt>
      <trkpt lat="45.28097" lon="4.59938">
        <ele>628.20001220703</ele>
        <time>2026-05-12T08:51:08.000Z</time>
      </trkpt>
      <trkpt lat="45.28094" lon="4.59937">
        <ele>628</ele>
        <time>2026-05-12T08:51:09.000Z</time>
      </trkpt>
      <trkpt lat="45.28091" lon="4.59937">
        <ele>628</ele>
        <time>2026-05-12T08:51:10.000Z</time>
      </trkpt>
      <trkpt lat="45.28088" lon="4.59936">
        <ele>627.79998779297</ele>
        <time>2026-05-12T08:51:11.000Z</time>
      </trkpt>
      <trkpt lat="45.28085" lon="4.59934">
        <ele>627.59997558594</ele>
        <time>2026-05-12T08:51:12.000Z</time>
      </trkpt>
      <trkpt lat="45.28082" lon="4.59933">
        <ele>627.20001220703</ele>
        <time>2026-05-12T08:51:13.000Z</time>
      </trkpt>
      <trkpt lat="45.28078" lon="4.59931">
        <ele>627</ele>
        <time>2026-05-12T08:51:14.000Z</time>
      </trkpt>
      <trkpt lat="45.28075" lon="4.5993">
        <ele>626.79998779297</ele>
        <time>2026-05-12T08:51:15.000Z</time>
      </trkpt>
      <trkpt lat="45.28072" lon="4.59928">
        <ele>626.59997558594</ele>
        <time>2026-05-12T08:51:16.000Z</time>
      </trkpt>
      <trkpt lat="45.28068" lon="4.59927">
        <ele>626.40002441406</ele>
        <time>2026-05-12T08:51:17.000Z</time>
      </trkpt>
      <trkpt lat="45.28065" lon="4.59925">
        <ele>626.40002441406</ele>
        <time>2026-05-12T08:51:18.000Z</time>
      </trkpt>
      <trkpt lat="45.28061" lon="4.59923">
        <ele>626.20001220703</ele>
        <time>2026-05-12T08:51:19.000Z</time>
      </trkpt>
      <trkpt lat="45.28059" lon="4.59921">
        <ele>626.20001220703</ele>
        <time>2026-05-12T08:51:20.000Z</time>
      </trkpt>
      <trkpt lat="45.28056" lon="4.59919">
        <ele>626.20001220703</ele>
        <time>2026-05-12T08:51:21.000Z</time>
      </trkpt>
      <trkpt lat="45.28053" lon="4.59917">
        <ele>626</ele>
        <time>2026-05-12T08:51:22.000Z</time>
      </trkpt>
      <trkpt lat="45.28051" lon="4.59913">
        <ele>625.79998779297</ele>
        <time>2026-05-12T08:51:23.000Z</time>
      </trkpt>
      <trkpt lat="45.28048" lon="4.5991">
        <ele>625.79998779297</ele>
        <time>2026-05-12T08:51:24.000Z</time>
      </trkpt>
      <trkpt lat="45.28046" lon="4.59905">
        <ele>625.59997558594</ele>
        <time>2026-05-12T08:51:25.000Z</time>
      </trkpt>
      <trkpt lat="45.28044" lon="4.59901">
        <ele>625.59997558594</ele>
        <time>2026-05-12T08:51:26.000Z</time>
      </trkpt>
      <trkpt lat="45.28042" lon="4.59897">
        <ele>625.40002441406</ele>
        <time>2026-05-12T08:51:27.000Z</time>
      </trkpt>
      <trkpt lat="45.28041" lon="4.59894">
        <ele>625.40002441406</ele>
        <time>2026-05-12T08:51:28.000Z</time>
      </trkpt>
      <trkpt lat="45.28039" lon="4.5989">
        <ele>625.20001220703</ele>
        <time>2026-05-12T08:51:29.000Z</time>
      </trkpt>
      <trkpt lat="45.28037" lon="4.59886">
        <ele>625.20001220703</ele>
        <time>2026-05-12T08:51:30.000Z</time>
      </trkpt>
      <trkpt lat="45.28035" lon="4.59883">
        <ele>625.20001220703</ele>
        <time>2026-05-12T08:51:31.000Z</time>
      </trkpt>
      <trkpt lat="45.28033" lon="4.5988">
        <ele>625.20001220703</ele>
        <time>2026-05-12T08:51:32.000Z</time>
      </trkpt>
      <trkpt lat="45.28031" lon="4.59877">
        <ele>625.20001220703</ele>
        <time>2026-05-12T08:51:33.000Z</time>
      </trkpt>
      <trkpt lat="45.2803" lon="4.59875">
        <ele>625.20001220703</ele>
        <time>2026-05-12T08:51:34.000Z</time>
      </trkpt>
      <trkpt lat="45.28029" lon="4.59872">
        <ele>625.20001220703</ele>
        <time>2026-05-12T08:51:35.000Z</time>
      </trkpt>
      <trkpt lat="45.28027" lon="4.59871">
        <ele>625.20001220703</ele>
        <time>2026-05-12T08:51:36.000Z</time>
      </trkpt>
      <trkpt lat="45.28026" lon="4.59869">
        <ele>625.20001220703</ele>
        <time>2026-05-12T08:51:37.000Z</time>
      </trkpt>
      <trkpt lat="45.28025" lon="4.59867">
        <ele>625.40002441406</ele>
        <time>2026-05-12T08:51:38.000Z</time>
      </trkpt>
      <trkpt lat="45.28024" lon="4.59866">
        <ele>625.40002441406</ele>
        <time>2026-05-12T08:51:39.000Z</time>
      </trkpt>
      <trkpt lat="45.28023" lon="4.59864">
        <ele>625.40002441406</ele>
        <time>2026-05-12T08:51:40.000Z</time>
      </trkpt>
      <trkpt lat="45.28021" lon="4.59862">
        <ele>625.40002441406</ele>
        <time>2026-05-12T08:51:41.000Z</time>
      </trkpt>
      <trkpt lat="45.28019" lon="4.5986">
        <ele>625.40002441406</ele>
        <time>2026-05-12T08:51:42.000Z</time>
      </trkpt>
      <trkpt lat="45.28017" lon="4.59857">
        <ele>625.40002441406</ele>
        <time>2026-05-12T08:51:43.000Z</time>
      </trkpt>
      <trkpt lat="45.28015" lon="4.59855">
        <ele>625.59997558594</ele>
        <time>2026-05-12T08:51:44.000Z</time>
      </trkpt>
      <trkpt lat="45.28013" lon="4.59853">
        <ele>625.59997558594</ele>
        <time>2026-05-12T08:51:45.000Z</time>
      </trkpt>
      <trkpt lat="45.28011" lon="4.5985">
        <ele>625.59997558594</ele>
        <time>2026-05-12T08:51:46.000Z</time>
      </trkpt>
      <trkpt lat="45.28009" lon="4.59848">
        <ele>625.59997558594</ele>
        <time>2026-05-12T08:51:47.000Z</time>
      </trkpt>
      <trkpt lat="45.28007" lon="4.59846">
        <ele>625.59997558594</ele>
        <time>2026-05-12T08:51:48.000Z</time>
      </trkpt>
      <trkpt lat="45.28006" lon="4.59844">
        <ele>625.79998779297</ele>
        <time>2026-05-12T08:51:49.000Z</time>
      </trkpt>
      <trkpt lat="45.28004" lon="4.59842">
        <ele>626</ele>
        <time>2026-05-12T08:51:50.000Z</time>
      </trkpt>
      <trkpt lat="45.28002" lon="4.5984">
        <ele>626.20001220703</ele>
        <time>2026-05-12T08:51:51.000Z</time>
      </trkpt>
      <trkpt lat="45.27999" lon="4.59838">
        <ele>626.40002441406</ele>
        <time>2026-05-12T08:51:52.000Z</time>
      </trkpt>
      <trkpt lat="45.27997" lon="4.59837">
        <ele>626.59997558594</ele>
        <time>2026-05-12T08:51:53.000Z</time>
      </trkpt>
      <trkpt lat="45.27995" lon="4.59835">
        <ele>626.79998779297</ele>
        <time>2026-05-12T08:51:54.000Z</time>
      </trkpt>
      <trkpt lat="45.27993" lon="4.59834">
        <ele>627</ele>
        <time>2026-05-12T08:51:55.000Z</time>
      </trkpt>
      <trkpt lat="45.27991" lon="4.59832">
        <ele>627.40002441406</ele>
        <time>2026-05-12T08:51:56.000Z</time>
      </trkpt>
      <trkpt lat="45.27989" lon="4.59831">
        <ele>627.59997558594</ele>
        <time>2026-05-12T08:51:57.000Z</time>
      </trkpt>
      <trkpt lat="45.27987" lon="4.5983">
        <ele>627.79998779297</ele>
        <time>2026-05-12T08:51:58.000Z</time>
      </trkpt>
      <trkpt lat="45.27984" lon="4.59829">
        <ele>628.20001220703</ele>
        <time>2026-05-12T08:51:59.000Z</time>
      </trkpt>
      <trkpt lat="45.27982" lon="4.59828">
        <ele>628.40002441406</ele>
        <time>2026-05-12T08:52:00.000Z</time>
      </trkpt>
      <trkpt lat="45.27979" lon="4.59827">
        <ele>628.59997558594</ele>
        <time>2026-05-12T08:52:01.000Z</time>
      </trkpt>
      <trkpt lat="45.27977" lon="4.59825">
        <ele>628.79998779297</ele>
        <time>2026-05-12T08:52:02.000Z</time>
      </trkpt>
      <trkpt lat="45.27975" lon="4.59824">
        <ele>628.79998779297</ele>
        <time>2026-05-12T08:52:03.000Z</time>
      </trkpt>
      <trkpt lat="45.27973" lon="4.59822">
        <ele>629</ele>
        <time>2026-05-12T08:52:04.000Z</time>
      </trkpt>
      <trkpt lat="45.2797" lon="4.5982">
        <ele>629</ele>
        <time>2026-05-12T08:52:05.000Z</time>
      </trkpt>
      <trkpt lat="45.27968" lon="4.59818">
        <ele>629.20001220703</ele>
        <time>2026-05-12T08:52:06.000Z</time>
      </trkpt>
      <trkpt lat="45.27966" lon="4.59817">
        <ele>629.20001220703</ele>
        <time>2026-05-12T08:52:07.000Z</time>
      </trkpt>
      <trkpt lat="45.27964" lon="4.59815">
        <ele>629.20001220703</ele>
        <time>2026-05-12T08:52:08.000Z</time>
      </trkpt>
      <trkpt lat="45.27962" lon="4.59814">
        <ele>629.20001220703</ele>
        <time>2026-05-12T08:52:09.000Z</time>
      </trkpt>
      <trkpt lat="45.2796" lon="4.59811">
        <ele>629.20001220703</ele>
        <time>2026-05-12T08:52:10.000Z</time>
      </trkpt>
      <trkpt lat="45.27958" lon="4.59809">
        <ele>629.20001220703</ele>
        <time>2026-05-12T08:52:11.000Z</time>
      </trkpt>
      <trkpt lat="45.27956" lon="4.59807">
        <ele>629.20001220703</ele>
        <time>2026-05-12T08:52:12.000Z</time>
      </trkpt>
      <trkpt lat="45.27953" lon="4.59805">
        <ele>629</ele>
        <time>2026-05-12T08:52:13.000Z</time>
      </trkpt>
      <trkpt lat="45.27951" lon="4.59803">
        <ele>629</ele>
        <time>2026-05-12T08:52:14.000Z</time>
      </trkpt>
      <trkpt lat="45.27949" lon="4.59802">
        <ele>628.79998779297</ele>
        <time>2026-05-12T08:52:15.000Z</time>
      </trkpt>
      <trkpt lat="45.27946" lon="4.598">
        <ele>628.79998779297</ele>
        <time>2026-05-12T08:52:16.000Z</time>
      </trkpt>
      <trkpt lat="45.27943" lon="4.59797">
        <ele>628.59997558594</ele>
        <time>2026-05-12T08:52:17.000Z</time>
      </trkpt>
      <trkpt lat="45.2794" lon="4.59795">
        <ele>628.40002441406</ele>
        <time>2026-05-12T08:52:18.000Z</time>
      </trkpt>
      <trkpt lat="45.27937" lon="4.59793">
        <ele>628.20001220703</ele>
        <time>2026-05-12T08:52:19.000Z</time>
      </trkpt>
      <trkpt lat="45.27934" lon="4.59791">
        <ele>628.20001220703</ele>
        <time>2026-05-12T08:52:20.000Z</time>
      </trkpt>
      <trkpt lat="45.27931" lon="4.59791">
        <ele>628</ele>
        <time>2026-05-12T08:52:21.000Z</time>
      </trkpt>
      <trkpt lat="45.27928" lon="4.59792">
        <ele>628</ele>
        <time>2026-05-12T08:52:22.000Z</time>
      </trkpt>
      <trkpt lat="45.27925" lon="4.59793">
        <ele>628</ele>
        <time>2026-05-12T08:52:23.000Z</time>
      </trkpt>
      <trkpt lat="45.27922" lon="4.59795">
        <ele>628</ele>
        <time>2026-05-12T08:52:24.000Z</time>
      </trkpt>
      <trkpt lat="45.27921" lon="4.59798">
        <ele>628</ele>
        <time>2026-05-12T08:52:25.000Z</time>
      </trkpt>
      <trkpt lat="45.2792" lon="4.59801">
        <ele>628</ele>
        <time>2026-05-12T08:52:26.000Z</time>
      </trkpt>
      <trkpt lat="45.2792" lon="4.59805">
        <ele>628</ele>
        <time>2026-05-12T08:52:27.000Z</time>
      </trkpt>
      <trkpt lat="45.2792" lon="4.59808">
        <ele>628.20001220703</ele>
        <time>2026-05-12T08:52:28.000Z</time>
      </trkpt>
      <trkpt lat="45.27921" lon="4.59811">
        <ele>628.20001220703</ele>
        <time>2026-05-12T08:52:29.000Z</time>
      </trkpt>
      <trkpt lat="45.27922" lon="4.59814">
        <ele>628.40002441406</ele>
        <time>2026-05-12T08:52:30.000Z</time>
      </trkpt>
      <trkpt lat="45.27924" lon="4.59818">
        <ele>628.40002441406</ele>
        <time>2026-05-12T08:52:31.000Z</time>
      </trkpt>
      <trkpt lat="45.27925" lon="4.59822">
        <ele>628.59997558594</ele>
        <time>2026-05-12T08:52:32.000Z</time>
      </trkpt>
      <trkpt lat="45.27926" lon="4.59826">
        <ele>628.59997558594</ele>
        <time>2026-05-12T08:52:33.000Z</time>
      </trkpt>
      <trkpt lat="45.27927" lon="4.5983">
        <ele>628.59997558594</ele>
        <time>2026-05-12T08:52:34.000Z</time>
      </trkpt>
      <trkpt lat="45.27928" lon="4.59835">
        <ele>628.79998779297</ele>
        <time>2026-05-12T08:52:35.000Z</time>
      </trkpt>
      <trkpt lat="45.27929" lon="4.59839">
        <ele>628.79998779297</ele>
        <time>2026-05-12T08:52:36.000Z</time>
      </trkpt>
      <trkpt lat="45.27929" lon="4.59844">
        <ele>628.79998779297</ele>
        <time>2026-05-12T08:52:37.000Z</time>
      </trkpt>
      <trkpt lat="45.27931" lon="4.59848">
        <ele>628.79998779297</ele>
        <time>2026-05-12T08:52:38.000Z</time>
      </trkpt>
      <trkpt lat="45.27931" lon="4.59853">
        <ele>628.79998779297</ele>
        <time>2026-05-12T08:52:39.000Z</time>
      </trkpt>
      <trkpt lat="45.27932" lon="4.59857">
        <ele>628.79998779297</ele>
        <time>2026-05-12T08:52:40.000Z</time>
      </trkpt>
      <trkpt lat="45.27932" lon="4.59861">
        <ele>628.59997558594</ele>
        <time>2026-05-12T08:52:41.000Z</time>
      </trkpt>
      <trkpt lat="45.27932" lon="4.59864">
        <ele>628.59997558594</ele>
        <time>2026-05-12T08:52:42.000Z</time>
      </trkpt>
      <trkpt lat="45.27931" lon="4.59868">
        <ele>628.40002441406</ele>
        <time>2026-05-12T08:52:43.000Z</time>
      </trkpt>
      <trkpt lat="45.27931" lon="4.59873">
        <ele>628.20001220703</ele>
        <time>2026-05-12T08:52:44.000Z</time>
      </trkpt>
      <trkpt lat="45.27931" lon="4.59878">
        <ele>628</ele>
        <time>2026-05-12T08:52:45.000Z</time>
      </trkpt>
      <trkpt lat="45.2793" lon="4.59884">
        <ele>628</ele>
        <time>2026-05-12T08:52:46.000Z</time>
      </trkpt>
      <trkpt lat="45.27929" lon="4.59889">
        <ele>627.79998779297</ele>
        <time>2026-05-12T08:52:47.000Z</time>
      </trkpt>
      <trkpt lat="45.27928" lon="4.59893">
        <ele>627.59997558594</ele>
        <time>2026-05-12T08:52:48.000Z</time>
      </trkpt>
      <trkpt lat="45.27927" lon="4.59898">
        <ele>627.40002441406</ele>
        <time>2026-05-12T08:52:49.000Z</time>
      </trkpt>
      <trkpt lat="45.27926" lon="4.59902">
        <ele>627.40002441406</ele>
        <time>2026-05-12T08:52:50.000Z</time>
      </trkpt>
      <trkpt lat="45.27925" lon="4.59906">
        <ele>627.40002441406</ele>
        <time>2026-05-12T08:52:51.000Z</time>
      </trkpt>
      <trkpt lat="45.27924" lon="4.5991">
        <ele>627.40002441406</ele>
        <time>2026-05-12T08:52:52.000Z</time>
      </trkpt>
      <trkpt lat="45.27923" lon="4.59914">
        <ele>627.40002441406</ele>
        <time>2026-05-12T08:52:53.000Z</time>
      </trkpt>
      <trkpt lat="45.27922" lon="4.59918">
        <ele>627.40002441406</ele>
        <time>2026-05-12T08:52:54.000Z</time>
      </trkpt>
      <trkpt lat="45.27921" lon="4.59922">
        <ele>627.40002441406</ele>
        <time>2026-05-12T08:52:55.000Z</time>
      </trkpt>
      <trkpt lat="45.2792" lon="4.59926">
        <ele>627.40002441406</ele>
        <time>2026-05-12T08:52:56.000Z</time>
      </trkpt>
      <trkpt lat="45.27919" lon="4.5993">
        <ele>627.40002441406</ele>
        <time>2026-05-12T08:52:57.000Z</time>
      </trkpt>
      <trkpt lat="45.27918" lon="4.59934">
        <ele>627.40002441406</ele>
        <time>2026-05-12T08:52:58.000Z</time>
      </trkpt>
      <trkpt lat="45.27917" lon="4.59938">
        <ele>627.40002441406</ele>
        <time>2026-05-12T08:52:59.000Z</time>
      </trkpt>
      <trkpt lat="45.27916" lon="4.59942">
        <ele>627.40002441406</ele>
        <time>2026-05-12T08:53:00.000Z</time>
      </trkpt>
      <trkpt lat="45.27914" lon="4.59945">
        <ele>627.40002441406</ele>
        <time>2026-05-12T08:53:01.000Z</time>
      </trkpt>
      <trkpt lat="45.27913" lon="4.59949">
        <ele>627.59997558594</ele>
        <time>2026-05-12T08:53:02.000Z</time>
      </trkpt>
      <trkpt lat="45.27911" lon="4.59953">
        <ele>627.59997558594</ele>
        <time>2026-05-12T08:53:03.000Z</time>
      </trkpt>
      <trkpt lat="45.27909" lon="4.59956">
        <ele>627.59997558594</ele>
        <time>2026-05-12T08:53:04.000Z</time>
      </trkpt>
      <trkpt lat="45.27907" lon="4.59959">
        <ele>627.59997558594</ele>
        <time>2026-05-12T08:53:05.000Z</time>
      </trkpt>
      <trkpt lat="45.27904" lon="4.59963">
        <ele>627.59997558594</ele>
        <time>2026-05-12T08:53:06.000Z</time>
      </trkpt>
      <trkpt lat="45.27902" lon="4.59966">
        <ele>627.79998779297</ele>
        <time>2026-05-12T08:53:07.000Z</time>
      </trkpt>
      <trkpt lat="45.27899" lon="4.59968">
        <ele>627.79998779297</ele>
        <time>2026-05-12T08:53:08.000Z</time>
      </trkpt>
      <trkpt lat="45.27897" lon="4.5997">
        <ele>627.79998779297</ele>
        <time>2026-05-12T08:53:09.000Z</time>
      </trkpt>
      <trkpt lat="45.27894" lon="4.59972">
        <ele>628</ele>
        <time>2026-05-12T08:53:10.000Z</time>
      </trkpt>
      <trkpt lat="45.27891" lon="4.59974">
        <ele>628.20001220703</ele>
        <time>2026-05-12T08:53:11.000Z</time>
      </trkpt>
      <trkpt lat="45.27888" lon="4.59975">
        <ele>628.20001220703</ele>
        <time>2026-05-12T08:53:12.000Z</time>
      </trkpt>
      <trkpt lat="45.27885" lon="4.59977">
        <ele>628.40002441406</ele>
        <time>2026-05-12T08:53:13.000Z</time>
      </trkpt>
      <trkpt lat="45.27882" lon="4.59978">
        <ele>628.59997558594</ele>
        <time>2026-05-12T08:53:14.000Z</time>
      </trkpt>
      <trkpt lat="45.27879" lon="4.5998">
        <ele>628.59997558594</ele>
        <time>2026-05-12T08:53:15.000Z</time>
      </trkpt>
      <trkpt lat="45.27876" lon="4.59982">
        <ele>628.79998779297</ele>
        <time>2026-05-12T08:53:16.000Z</time>
      </trkpt>
      <trkpt lat="45.27873" lon="4.59984">
        <ele>629</ele>
        <time>2026-05-12T08:53:17.000Z</time>
      </trkpt>
      <trkpt lat="45.27871" lon="4.59987">
        <ele>629.20001220703</ele>
        <time>2026-05-12T08:53:18.000Z</time>
      </trkpt>
      <trkpt lat="45.27868" lon="4.5999">
        <ele>629.20001220703</ele>
        <time>2026-05-12T08:53:19.000Z</time>
      </trkpt>
      <trkpt lat="45.27866" lon="4.59993">
        <ele>629.40002441406</ele>
        <time>2026-05-12T08:53:20.000Z</time>
      </trkpt>
      <trkpt lat="45.27864" lon="4.59996">
        <ele>629.59997558594</ele>
        <time>2026-05-12T08:53:21.000Z</time>
      </trkpt>
      <trkpt lat="45.27862" lon="4.6">
        <ele>629.79998779297</ele>
        <time>2026-05-12T08:53:22.000Z</time>
      </trkpt>
      <trkpt lat="45.2786" lon="4.60003">
        <ele>629.79998779297</ele>
        <time>2026-05-12T08:53:23.000Z</time>
      </trkpt>
      <trkpt lat="45.27859" lon="4.60006">
        <ele>630</ele>
        <time>2026-05-12T08:53:24.000Z</time>
      </trkpt>
      <trkpt lat="45.27857" lon="4.60009">
        <ele>630.20001220703</ele>
        <time>2026-05-12T08:53:25.000Z</time>
      </trkpt>
      <trkpt lat="45.27855" lon="4.60012">
        <ele>630.20001220703</ele>
        <time>2026-05-12T08:53:26.000Z</time>
      </trkpt>
      <trkpt lat="45.27854" lon="4.60016">
        <ele>630.40002441406</ele>
        <time>2026-05-12T08:53:27.000Z</time>
      </trkpt>
      <trkpt lat="45.27852" lon="4.60019">
        <ele>630.40002441406</ele>
        <time>2026-05-12T08:53:28.000Z</time>
      </trkpt>
      <trkpt lat="45.2785" lon="4.60022">
        <ele>630.20001220703</ele>
        <time>2026-05-12T08:53:29.000Z</time>
      </trkpt>
      <trkpt lat="45.27848" lon="4.60025">
        <ele>630.20001220703</ele>
        <time>2026-05-12T08:53:30.000Z</time>
      </trkpt>
      <trkpt lat="45.27846" lon="4.60029">
        <ele>630</ele>
        <time>2026-05-12T08:53:31.000Z</time>
      </trkpt>
      <trkpt lat="45.27844" lon="4.60033">
        <ele>629.79998779297</ele>
        <time>2026-05-12T08:53:32.000Z</time>
      </trkpt>
      <trkpt lat="45.27842" lon="4.60038">
        <ele>629.59997558594</ele>
        <time>2026-05-12T08:53:33.000Z</time>
      </trkpt>
      <trkpt lat="45.2784" lon="4.60044">
        <ele>629.20001220703</ele>
        <time>2026-05-12T08:53:34.000Z</time>
      </trkpt>
      <trkpt lat="45.27837" lon="4.6005">
        <ele>628.79998779297</ele>
        <time>2026-05-12T08:53:35.000Z</time>
      </trkpt>
      <trkpt lat="45.27835" lon="4.60058">
        <ele>628.20001220703</ele>
        <time>2026-05-12T08:53:36.000Z</time>
      </trkpt>
      <trkpt lat="45.27833" lon="4.60066">
        <ele>627.79998779297</ele>
        <time>2026-05-12T08:53:37.000Z</time>
      </trkpt>
      <trkpt lat="45.27831" lon="4.60073">
        <ele>627.20001220703</ele>
        <time>2026-05-12T08:53:38.000Z</time>
      </trkpt>
      <trkpt lat="45.27829" lon="4.6008">
        <ele>626.79998779297</ele>
        <time>2026-05-12T08:53:39.000Z</time>
      </trkpt>
      <trkpt lat="45.27828" lon="4.60088">
        <ele>626.59997558594</ele>
        <time>2026-05-12T08:53:40.000Z</time>
      </trkpt>
      <trkpt lat="45.27827" lon="4.60095">
        <ele>626.40002441406</ele>
        <time>2026-05-12T08:53:41.000Z</time>
      </trkpt>
      <trkpt lat="45.27827" lon="4.601">
        <ele>626.59997558594</ele>
        <time>2026-05-12T08:53:42.000Z</time>
      </trkpt>
      <trkpt lat="45.27827" lon="4.60104">
        <ele>626.79998779297</ele>
        <time>2026-05-12T08:53:43.000Z</time>
      </trkpt>
      <trkpt lat="45.27826" lon="4.60109">
        <ele>627.20001220703</ele>
        <time>2026-05-12T08:53:44.000Z</time>
      </trkpt>
      <trkpt lat="45.27825" lon="4.60112">
        <ele>627.59997558594</ele>
        <time>2026-05-12T08:53:45.000Z</time>
      </trkpt>
      <trkpt lat="45.27824" lon="4.60116">
        <ele>628</ele>
        <time>2026-05-12T08:53:46.000Z</time>
      </trkpt>
      <trkpt lat="45.27824" lon="4.60119">
        <ele>628.59997558594</ele>
        <time>2026-05-12T08:53:47.000Z</time>
      </trkpt>
      <trkpt lat="45.27823" lon="4.60122">
        <ele>629</ele>
        <time>2026-05-12T08:53:48.000Z</time>
      </trkpt>
      <trkpt lat="45.27823" lon="4.60125">
        <ele>629.40002441406</ele>
        <time>2026-05-12T08:53:49.000Z</time>
      </trkpt>
      <trkpt lat="45.27823" lon="4.60128">
        <ele>629.79998779297</ele>
        <time>2026-05-12T08:53:50.000Z</time>
      </trkpt>
      <trkpt lat="45.27823" lon="4.6013">
        <ele>630.20001220703</ele>
        <time>2026-05-12T08:53:51.000Z</time>
      </trkpt>
      <trkpt lat="45.27822" lon="4.60133">
        <ele>630.40002441406</ele>
        <time>2026-05-12T08:53:52.000Z</time>
      </trkpt>
      <trkpt lat="45.2782" lon="4.60135">
        <ele>630.79998779297</ele>
        <time>2026-05-12T08:53:53.000Z</time>
      </trkpt>
      <trkpt lat="45.27818" lon="4.60136">
        <ele>631.20001220703</ele>
        <time>2026-05-12T08:53:54.000Z</time>
      </trkpt>
      <trkpt lat="45.27816" lon="4.60136">
        <ele>631.40002441406</ele>
        <time>2026-05-12T08:53:55.000Z</time>
      </trkpt>
      <trkpt lat="45.27814" lon="4.60137">
        <ele>631.79998779297</ele>
        <time>2026-05-12T08:53:56.000Z</time>
      </trkpt>
      <trkpt lat="45.27812" lon="4.60137">
        <ele>632</ele>
        <time>2026-05-12T08:53:57.000Z</time>
      </trkpt>
      <trkpt lat="45.2781" lon="4.60138">
        <ele>632.40002441406</ele>
        <time>2026-05-12T08:53:58.000Z</time>
      </trkpt>
      <trkpt lat="45.27808" lon="4.60138">
        <ele>632.59997558594</ele>
        <time>2026-05-12T08:53:59.000Z</time>
      </trkpt>
      <trkpt lat="45.27806" lon="4.60138">
        <ele>632.79998779297</ele>
        <time>2026-05-12T08:54:00.000Z</time>
      </trkpt>
      <trkpt lat="45.27804" lon="4.60138">
        <ele>633</ele>
        <time>2026-05-12T08:54:01.000Z</time>
      </trkpt>
      <trkpt lat="45.27802" lon="4.60138">
        <ele>633.20001220703</ele>
        <time>2026-05-12T08:54:02.000Z</time>
      </trkpt>
      <trkpt lat="45.27801" lon="4.60138">
        <ele>633.40002441406</ele>
        <time>2026-05-12T08:54:03.000Z</time>
      </trkpt>
      <trkpt lat="45.278" lon="4.60138">
        <ele>633.59997558594</ele>
        <time>2026-05-12T08:54:04.000Z</time>
      </trkpt>
      <trkpt lat="45.27798" lon="4.60137">
        <ele>634</ele>
        <time>2026-05-12T08:54:05.000Z</time>
      </trkpt>
      <trkpt lat="45.27796" lon="4.60137">
        <ele>634.20001220703</ele>
        <time>2026-05-12T08:54:06.000Z</time>
      </trkpt>
      <trkpt lat="45.27794" lon="4.60136">
        <ele>634.40002441406</ele>
        <time>2026-05-12T08:54:07.000Z</time>
      </trkpt>
      <trkpt lat="45.27792" lon="4.60136">
        <ele>634.59997558594</ele>
        <time>2026-05-12T08:54:08.000Z</time>
      </trkpt>
      <trkpt lat="45.2779" lon="4.60136">
        <ele>635</ele>
        <time>2026-05-12T08:54:09.000Z</time>
      </trkpt>
      <trkpt lat="45.27788" lon="4.60135">
        <ele>635.20001220703</ele>
        <time>2026-05-12T08:54:10.000Z</time>
      </trkpt>
      <trkpt lat="45.27786" lon="4.60134">
        <ele>635.40002441406</ele>
        <time>2026-05-12T08:54:11.000Z</time>
      </trkpt>
      <trkpt lat="45.27784" lon="4.60133">
        <ele>635.79998779297</ele>
        <time>2026-05-12T08:54:12.000Z</time>
      </trkpt>
      <trkpt lat="45.27782" lon="4.60132">
        <ele>636</ele>
        <time>2026-05-12T08:54:13.000Z</time>
      </trkpt>
      <trkpt lat="45.2778" lon="4.60129">
        <ele>636.40002441406</ele>
        <time>2026-05-12T08:54:14.000Z</time>
      </trkpt>
      <trkpt lat="45.27779" lon="4.60127">
        <ele>636.59997558594</ele>
        <time>2026-05-12T08:54:15.000Z</time>
      </trkpt>
      <trkpt lat="45.27778" lon="4.60124">
        <ele>637</ele>
        <time>2026-05-12T08:54:16.000Z</time>
      </trkpt>
      <trkpt lat="45.27777" lon="4.60122">
        <ele>637.20001220703</ele>
        <time>2026-05-12T08:54:17.000Z</time>
      </trkpt>
      <trkpt lat="45.27776" lon="4.60119">
        <ele>637.40002441406</ele>
        <time>2026-05-12T08:54:18.000Z</time>
      </trkpt>
      <trkpt lat="45.27776" lon="4.60116">
        <ele>637.59997558594</ele>
        <time>2026-05-12T08:54:19.000Z</time>
      </trkpt>
      <trkpt lat="45.27775" lon="4.60113">
        <ele>637.79998779297</ele>
        <time>2026-05-12T08:54:20.000Z</time>
      </trkpt>
      <trkpt lat="45.27775" lon="4.6011">
        <ele>638</ele>
        <time>2026-05-12T08:54:21.000Z</time>
      </trkpt>
      <trkpt lat="45.27775" lon="4.60108">
        <ele>638.20001220703</ele>
        <time>2026-05-12T08:54:22.000Z</time>
      </trkpt>
      <trkpt lat="45.27774" lon="4.60106">
        <ele>638.40002441406</ele>
        <time>2026-05-12T08:54:23.000Z</time>
      </trkpt>
      <trkpt lat="45.27773" lon="4.60104">
        <ele>638.40002441406</ele>
        <time>2026-05-12T08:54:24.000Z</time>
      </trkpt>
      <trkpt lat="45.27771" lon="4.60102">
        <ele>638.59997558594</ele>
        <time>2026-05-12T08:54:25.000Z</time>
      </trkpt>
      <trkpt lat="45.27769" lon="4.601">
        <ele>638.79998779297</ele>
        <time>2026-05-12T08:54:26.000Z</time>
      </trkpt>
      <trkpt lat="45.27768" lon="4.60099">
        <ele>639</ele>
        <time>2026-05-12T08:54:27.000Z</time>
      </trkpt>
      <trkpt lat="45.27766" lon="4.60098">
        <ele>639.20001220703</ele>
        <time>2026-05-12T08:54:28.000Z</time>
      </trkpt>
      <trkpt lat="45.27764" lon="4.60099">
        <ele>639.40002441406</ele>
        <time>2026-05-12T08:54:29.000Z</time>
      </trkpt>
      <trkpt lat="45.27762" lon="4.60101">
        <ele>639.59997558594</ele>
        <time>2026-05-12T08:54:30.000Z</time>
      </trkpt>
      <trkpt lat="45.27761" lon="4.60102">
        <ele>639.79998779297</ele>
        <time>2026-05-12T08:54:31.000Z</time>
      </trkpt>
      <trkpt lat="45.2776" lon="4.60105">
        <ele>640</ele>
        <time>2026-05-12T08:54:32.000Z</time>
      </trkpt>
      <trkpt lat="45.27759" lon="4.60107">
        <ele>640.20001220703</ele>
        <time>2026-05-12T08:54:33.000Z</time>
      </trkpt>
      <trkpt lat="45.27757" lon="4.6011">
        <ele>640.40002441406</ele>
        <time>2026-05-12T08:54:34.000Z</time>
      </trkpt>
      <trkpt lat="45.27755" lon="4.60113">
        <ele>640.79998779297</ele>
        <time>2026-05-12T08:54:35.000Z</time>
      </trkpt>
      <trkpt lat="45.27753" lon="4.60116">
        <ele>641</ele>
        <time>2026-05-12T08:54:36.000Z</time>
      </trkpt>
      <trkpt lat="45.27752" lon="4.60118">
        <ele>641.40002441406</ele>
        <time>2026-05-12T08:54:37.000Z</time>
      </trkpt>
      <trkpt lat="45.2775" lon="4.6012">
        <ele>641.79998779297</ele>
        <time>2026-05-12T08:54:38.000Z</time>
      </trkpt>
      <trkpt lat="45.27748" lon="4.60122">
        <ele>642.40002441406</ele>
        <time>2026-05-12T08:54:39.000Z</time>
      </trkpt>
      <trkpt lat="45.27746" lon="4.60123">
        <ele>643</ele>
        <time>2026-05-12T08:54:40.000Z</time>
      </trkpt>
      <trkpt lat="45.27744" lon="4.60123">
        <ele>643.40002441406</ele>
        <time>2026-05-12T08:54:41.000Z</time>
      </trkpt>
      <trkpt lat="45.27742" lon="4.60124">
        <ele>644</ele>
        <time>2026-05-12T08:54:42.000Z</time>
      </trkpt>
      <trkpt lat="45.2774" lon="4.60125">
        <ele>644.59997558594</ele>
        <time>2026-05-12T08:54:43.000Z</time>
      </trkpt>
      <trkpt lat="45.27739" lon="4.60126">
        <ele>645</ele>
        <time>2026-05-12T08:54:44.000Z</time>
      </trkpt>
      <trkpt lat="45.27737" lon="4.60128">
        <ele>645.59997558594</ele>
        <time>2026-05-12T08:54:45.000Z</time>
      </trkpt>
      <trkpt lat="45.27736" lon="4.6013">
        <ele>646</ele>
        <time>2026-05-12T08:54:46.000Z</time>
      </trkpt>
      <trkpt lat="45.27735" lon="4.60132">
        <ele>646.40002441406</ele>
        <time>2026-05-12T08:54:47.000Z</time>
      </trkpt>
      <trkpt lat="45.27734" lon="4.60134">
        <ele>646.79998779297</ele>
        <time>2026-05-12T08:54:48.000Z</time>
      </trkpt>
      <trkpt lat="45.27732" lon="4.60136">
        <ele>647</ele>
        <time>2026-05-12T08:54:49.000Z</time>
      </trkpt>
      <trkpt lat="45.27731" lon="4.60137">
        <ele>647.20001220703</ele>
        <time>2026-05-12T08:54:50.000Z</time>
      </trkpt>
      <trkpt lat="45.2773" lon="4.60139">
        <ele>647.40002441406</ele>
        <time>2026-05-12T08:54:51.000Z</time>
      </trkpt>
      <trkpt lat="45.27729" lon="4.60141">
        <ele>647.59997558594</ele>
        <time>2026-05-12T08:54:52.000Z</time>
      </trkpt>
      <trkpt lat="45.27728" lon="4.60143">
        <ele>647.79998779297</ele>
        <time>2026-05-12T08:54:53.000Z</time>
      </trkpt>
      <trkpt lat="45.27727" lon="4.60146">
        <ele>648</ele>
        <time>2026-05-12T08:54:54.000Z</time>
      </trkpt>
      <trkpt lat="45.27726" lon="4.60148">
        <ele>648.20001220703</ele>
        <time>2026-05-12T08:54:55.000Z</time>
      </trkpt>
      <trkpt lat="45.27725" lon="4.6015">
        <ele>648.40002441406</ele>
        <time>2026-05-12T08:54:56.000Z</time>
      </trkpt>
      <trkpt lat="45.27724" lon="4.60152">
        <ele>648.59997558594</ele>
        <time>2026-05-12T08:54:57.000Z</time>
      </trkpt>
      <trkpt lat="45.27723" lon="4.60155">
        <ele>649</ele>
        <time>2026-05-12T08:54:58.000Z</time>
      </trkpt>
      <trkpt lat="45.27722" lon="4.60157">
        <ele>649.20001220703</ele>
        <time>2026-05-12T08:54:59.000Z</time>
      </trkpt>
      <trkpt lat="45.27721" lon="4.60159">
        <ele>649.40002441406</ele>
        <time>2026-05-12T08:55:00.000Z</time>
      </trkpt>
      <trkpt lat="45.27721" lon="4.60161">
        <ele>649.79998779297</ele>
        <time>2026-05-12T08:55:01.000Z</time>
      </trkpt>
      <trkpt lat="45.2772" lon="4.60164">
        <ele>650</ele>
        <time>2026-05-12T08:55:02.000Z</time>
      </trkpt>
      <trkpt lat="45.2772" lon="4.60166">
        <ele>650.40002441406</ele>
        <time>2026-05-12T08:55:03.000Z</time>
      </trkpt>
      <trkpt lat="45.27719" lon="4.60168">
        <ele>650.59997558594</ele>
        <time>2026-05-12T08:55:04.000Z</time>
      </trkpt>
      <trkpt lat="45.27719" lon="4.6017">
        <ele>650.79998779297</ele>
        <time>2026-05-12T08:55:05.000Z</time>
      </trkpt>
      <trkpt lat="45.27718" lon="4.60172">
        <ele>651.20001220703</ele>
        <time>2026-05-12T08:55:06.000Z</time>
      </trkpt>
      <trkpt lat="45.27717" lon="4.60174">
        <ele>651.40002441406</ele>
        <time>2026-05-12T08:55:07.000Z</time>
      </trkpt>
      <trkpt lat="45.27717" lon="4.60176">
        <ele>651.79998779297</ele>
        <time>2026-05-12T08:55:08.000Z</time>
      </trkpt>
      <trkpt lat="45.27718" lon="4.60178">
        <ele>652</ele>
        <time>2026-05-12T08:55:09.000Z</time>
      </trkpt>
      <trkpt lat="45.27718" lon="4.60181">
        <ele>652.40002441406</ele>
        <time>2026-05-12T08:55:10.000Z</time>
      </trkpt>
      <trkpt lat="45.27717" lon="4.60183">
        <ele>652.59997558594</ele>
        <time>2026-05-12T08:55:11.000Z</time>
      </trkpt>
      <trkpt lat="45.27717" lon="4.60185">
        <ele>653</ele>
        <time>2026-05-12T08:55:12.000Z</time>
      </trkpt>
      <trkpt lat="45.27717" lon="4.60187">
        <ele>653.20001220703</ele>
        <time>2026-05-12T08:55:13.000Z</time>
      </trkpt>
      <trkpt lat="45.27717" lon="4.60189">
        <ele>653.59997558594</ele>
        <time>2026-05-12T08:55:14.000Z</time>
      </trkpt>
      <trkpt lat="45.27717" lon="4.60191">
        <ele>653.79998779297</ele>
        <time>2026-05-12T08:55:15.000Z</time>
      </trkpt>
      <trkpt lat="45.27716" lon="4.60194">
        <ele>654</ele>
        <time>2026-05-12T08:55:16.000Z</time>
      </trkpt>
      <trkpt lat="45.27716" lon="4.60196">
        <ele>654.40002441406</ele>
        <time>2026-05-12T08:55:17.000Z</time>
      </trkpt>
      <trkpt lat="45.27715" lon="4.60198">
        <ele>654.59997558594</ele>
        <time>2026-05-12T08:55:18.000Z</time>
      </trkpt>
      <trkpt lat="45.27714" lon="4.602">
        <ele>654.79998779297</ele>
        <time>2026-05-12T08:55:19.000Z</time>
      </trkpt>
      <trkpt lat="45.27713" lon="4.60202">
        <ele>655.20001220703</ele>
        <time>2026-05-12T08:55:20.000Z</time>
      </trkpt>
      <trkpt lat="45.27712" lon="4.60204">
        <ele>655.40002441406</ele>
        <time>2026-05-12T08:55:21.000Z</time>
      </trkpt>
      <trkpt lat="45.27711" lon="4.60206">
        <ele>655.59997558594</ele>
        <time>2026-05-12T08:55:22.000Z</time>
      </trkpt>
      <trkpt lat="45.2771" lon="4.60208">
        <ele>655.79998779297</ele>
        <time>2026-05-12T08:55:23.000Z</time>
      </trkpt>
      <trkpt lat="45.27709" lon="4.60209">
        <ele>656.20001220703</ele>
        <time>2026-05-12T08:55:24.000Z</time>
      </trkpt>
      <trkpt lat="45.27708" lon="4.60211">
        <ele>656.40002441406</ele>
        <time>2026-05-12T08:55:25.000Z</time>
      </trkpt>
      <trkpt lat="45.27707" lon="4.60212">
        <ele>656.40002441406</ele>
        <time>2026-05-12T08:55:26.000Z</time>
      </trkpt>
      <trkpt lat="45.27706" lon="4.60214">
        <ele>656.59997558594</ele>
        <time>2026-05-12T08:55:27.000Z</time>
      </trkpt>
      <trkpt lat="45.27704" lon="4.60215">
        <ele>656.79998779297</ele>
        <time>2026-05-12T08:55:28.000Z</time>
      </trkpt>
      <trkpt lat="45.27703" lon="4.60217">
        <ele>657</ele>
        <time>2026-05-12T08:55:29.000Z</time>
      </trkpt>
      <trkpt lat="45.27702" lon="4.60218">
        <ele>657.20001220703</ele>
        <time>2026-05-12T08:55:30.000Z</time>
      </trkpt>
      <trkpt lat="45.27701" lon="4.6022">
        <ele>657.40002441406</ele>
        <time>2026-05-12T08:55:31.000Z</time>
      </trkpt>
      <trkpt lat="45.27699" lon="4.60221">
        <ele>657.59997558594</ele>
        <time>2026-05-12T08:55:32.000Z</time>
      </trkpt>
      <trkpt lat="45.27698" lon="4.60222">
        <ele>657.79998779297</ele>
        <time>2026-05-12T08:55:33.000Z</time>
      </trkpt>
      <trkpt lat="45.27697" lon="4.60224">
        <ele>658</ele>
        <time>2026-05-12T08:55:34.000Z</time>
      </trkpt>
      <trkpt lat="45.27696" lon="4.60225">
        <ele>658.20001220703</ele>
        <time>2026-05-12T08:55:35.000Z</time>
      </trkpt>
      <trkpt lat="45.27695" lon="4.60227">
        <ele>658.40002441406</ele>
        <time>2026-05-12T08:55:36.000Z</time>
      </trkpt>
      <trkpt lat="45.27693" lon="4.60229">
        <ele>658.79998779297</ele>
        <time>2026-05-12T08:55:37.000Z</time>
      </trkpt>
      <trkpt lat="45.27692" lon="4.6023">
        <ele>659</ele>
        <time>2026-05-12T08:55:38.000Z</time>
      </trkpt>
      <trkpt lat="45.27691" lon="4.60232">
        <ele>659.20001220703</ele>
        <time>2026-05-12T08:55:39.000Z</time>
      </trkpt>
      <trkpt lat="45.2769" lon="4.60233">
        <ele>659.40002441406</ele>
        <time>2026-05-12T08:55:40.000Z</time>
      </trkpt>
      <trkpt lat="45.27689" lon="4.60234">
        <ele>659.59997558594</ele>
        <time>2026-05-12T08:55:41.000Z</time>
      </trkpt>
      <trkpt lat="45.27687" lon="4.60236">
        <ele>660</ele>
        <time>2026-05-12T08:55:42.000Z</time>
      </trkpt>
      <trkpt lat="45.27686" lon="4.60237">
        <ele>660.20001220703</ele>
        <time>2026-05-12T08:55:43.000Z</time>
      </trkpt>
      <trkpt lat="45.27685" lon="4.60238">
        <ele>660.40002441406</ele>
        <time>2026-05-12T08:55:44.000Z</time>
      </trkpt>
      <trkpt lat="45.27684" lon="4.60239">
        <ele>660.59997558594</ele>
        <time>2026-05-12T08:55:45.000Z</time>
      </trkpt>
      <trkpt lat="45.27682" lon="4.60241">
        <ele>661</ele>
        <time>2026-05-12T08:55:46.000Z</time>
      </trkpt>
      <trkpt lat="45.27681" lon="4.60242">
        <ele>661.20001220703</ele>
        <time>2026-05-12T08:55:47.000Z</time>
      </trkpt>
      <trkpt lat="45.27679" lon="4.60244">
        <ele>661.40002441406</ele>
        <time>2026-05-12T08:55:48.000Z</time>
      </trkpt>
      <trkpt lat="45.27678" lon="4.60245">
        <ele>661.79998779297</ele>
        <time>2026-05-12T08:55:49.000Z</time>
      </trkpt>
      <trkpt lat="45.27677" lon="4.60246">
        <ele>662</ele>
        <time>2026-05-12T08:55:50.000Z</time>
      </trkpt>
      <trkpt lat="45.27675" lon="4.60247">
        <ele>662.20001220703</ele>
        <time>2026-05-12T08:55:51.000Z</time>
      </trkpt>
      <trkpt lat="45.27673" lon="4.60248">
        <ele>662.40002441406</ele>
        <time>2026-05-12T08:55:52.000Z</time>
      </trkpt>
      <trkpt lat="45.27672" lon="4.60248">
        <ele>662.79998779297</ele>
        <time>2026-05-12T08:55:53.000Z</time>
      </trkpt>
      <trkpt lat="45.2767" lon="4.60249">
        <ele>663</ele>
        <time>2026-05-12T08:55:54.000Z</time>
      </trkpt>
      <trkpt lat="45.27669" lon="4.6025">
        <ele>663.40002441406</ele>
        <time>2026-05-12T08:55:55.000Z</time>
      </trkpt>
      <trkpt lat="45.27667" lon="4.60252">
        <ele>663.59997558594</ele>
        <time>2026-05-12T08:55:56.000Z</time>
      </trkpt>
      <trkpt lat="45.27666" lon="4.60253">
        <ele>663.79998779297</ele>
        <time>2026-05-12T08:55:57.000Z</time>
      </trkpt>
      <trkpt lat="45.27664" lon="4.60255">
        <ele>664.20001220703</ele>
        <time>2026-05-12T08:55:58.000Z</time>
      </trkpt>
      <trkpt lat="45.27663" lon="4.60256">
        <ele>664.40002441406</ele>
        <time>2026-05-12T08:55:59.000Z</time>
      </trkpt>
      <trkpt lat="45.27662" lon="4.60257">
        <ele>664.79998779297</ele>
        <time>2026-05-12T08:56:00.000Z</time>
      </trkpt>
      <trkpt lat="45.2766" lon="4.60259">
        <ele>665</ele>
        <time>2026-05-12T08:56:01.000Z</time>
      </trkpt>
      <trkpt lat="45.27659" lon="4.60261">
        <ele>665.20001220703</ele>
        <time>2026-05-12T08:56:02.000Z</time>
      </trkpt>
      <trkpt lat="45.27658" lon="4.60262">
        <ele>665.59997558594</ele>
        <time>2026-05-12T08:56:03.000Z</time>
      </trkpt>
      <trkpt lat="45.27657" lon="4.60264">
        <ele>665.79998779297</ele>
        <time>2026-05-12T08:56:04.000Z</time>
      </trkpt>
      <trkpt lat="45.27656" lon="4.60266">
        <ele>666</ele>
        <time>2026-05-12T08:56:05.000Z</time>
      </trkpt>
      <trkpt lat="45.27655" lon="4.60268">
        <ele>666.20001220703</ele>
        <time>2026-05-12T08:56:06.000Z</time>
      </trkpt>
      <trkpt lat="45.27654" lon="4.60269">
        <ele>666.40002441406</ele>
        <time>2026-05-12T08:56:07.000Z</time>
      </trkpt>
      <trkpt lat="45.27653" lon="4.60271">
        <ele>666.59997558594</ele>
        <time>2026-05-12T08:56:08.000Z</time>
      </trkpt>
      <trkpt lat="45.27651" lon="4.60272">
        <ele>666.79998779297</ele>
        <time>2026-05-12T08:56:09.000Z</time>
      </trkpt>
      <trkpt lat="45.2765" lon="4.60273">
        <ele>666.79998779297</ele>
        <time>2026-05-12T08:56:10.000Z</time>
      </trkpt>
      <trkpt lat="45.27649" lon="4.60274">
        <ele>667</ele>
        <time>2026-05-12T08:56:11.000Z</time>
      </trkpt>
      <trkpt lat="45.27648" lon="4.60276">
        <ele>667.20001220703</ele>
        <time>2026-05-12T08:56:12.000Z</time>
      </trkpt>
      <trkpt lat="45.27646" lon="4.60277">
        <ele>667.40002441406</ele>
        <time>2026-05-12T08:56:13.000Z</time>
      </trkpt>
      <trkpt lat="45.27645" lon="4.60278">
        <ele>667.59997558594</ele>
        <time>2026-05-12T08:56:14.000Z</time>
      </trkpt>
      <trkpt lat="45.27644" lon="4.6028">
        <ele>667.79998779297</ele>
        <time>2026-05-12T08:56:15.000Z</time>
      </trkpt>
      <trkpt lat="45.27643" lon="4.60281">
        <ele>668</ele>
        <time>2026-05-12T08:56:16.000Z</time>
      </trkpt>
      <trkpt lat="45.27642" lon="4.60283">
        <ele>668.20001220703</ele>
        <time>2026-05-12T08:56:17.000Z</time>
      </trkpt>
      <trkpt lat="45.27641" lon="4.60285">
        <ele>668.40002441406</ele>
        <time>2026-05-12T08:56:18.000Z</time>
      </trkpt>
      <trkpt lat="45.2764" lon="4.60286">
        <ele>668.59997558594</ele>
        <time>2026-05-12T08:56:19.000Z</time>
      </trkpt>
      <trkpt lat="45.27638" lon="4.60287">
        <ele>668.79998779297</ele>
        <time>2026-05-12T08:56:20.000Z</time>
      </trkpt>
      <trkpt lat="45.27637" lon="4.60288">
        <ele>668.79998779297</ele>
        <time>2026-05-12T08:56:21.000Z</time>
      </trkpt>
      <trkpt lat="45.27636" lon="4.6029">
        <ele>669</ele>
        <time>2026-05-12T08:56:22.000Z</time>
      </trkpt>
      <trkpt lat="45.27635" lon="4.60291">
        <ele>669.20001220703</ele>
        <time>2026-05-12T08:56:23.000Z</time>
      </trkpt>
      <trkpt lat="45.27633" lon="4.60292">
        <ele>669.40002441406</ele>
        <time>2026-05-12T08:56:24.000Z</time>
      </trkpt>
      <trkpt lat="45.27632" lon="4.60293">
        <ele>669.40002441406</ele>
        <time>2026-05-12T08:56:25.000Z</time>
      </trkpt>
      <trkpt lat="45.2763" lon="4.60294">
        <ele>669.59997558594</ele>
        <time>2026-05-12T08:56:26.000Z</time>
      </trkpt>
      <trkpt lat="45.27629" lon="4.60295">
        <ele>669.79998779297</ele>
        <time>2026-05-12T08:56:27.000Z</time>
      </trkpt>
      <trkpt lat="45.27627" lon="4.60297">
        <ele>669.79998779297</ele>
        <time>2026-05-12T08:56:28.000Z</time>
      </trkpt>
      <trkpt lat="45.27626" lon="4.60298">
        <ele>670</ele>
        <time>2026-05-12T08:56:29.000Z</time>
      </trkpt>
      <trkpt lat="45.27624" lon="4.60298">
        <ele>670.20001220703</ele>
        <time>2026-05-12T08:56:30.000Z</time>
      </trkpt>
      <trkpt lat="45.27623" lon="4.60299">
        <ele>670.20001220703</ele>
        <time>2026-05-12T08:56:31.000Z</time>
      </trkpt>
      <trkpt lat="45.27621" lon="4.60299">
        <ele>670.40002441406</ele>
        <time>2026-05-12T08:56:32.000Z</time>
      </trkpt>
      <trkpt lat="45.27619" lon="4.603">
        <ele>670.59997558594</ele>
        <time>2026-05-12T08:56:33.000Z</time>
      </trkpt>
      <trkpt lat="45.27618" lon="4.60301">
        <ele>670.79998779297</ele>
        <time>2026-05-12T08:56:34.000Z</time>
      </trkpt>
      <trkpt lat="45.27616" lon="4.60302">
        <ele>671</ele>
        <time>2026-05-12T08:56:35.000Z</time>
      </trkpt>
      <trkpt lat="45.27615" lon="4.60303">
        <ele>671.20001220703</ele>
        <time>2026-05-12T08:56:36.000Z</time>
      </trkpt>
      <trkpt lat="45.27613" lon="4.60303">
        <ele>671.40002441406</ele>
        <time>2026-05-12T08:56:37.000Z</time>
      </trkpt>
      <trkpt lat="45.27611" lon="4.60303">
        <ele>671.59997558594</ele>
        <time>2026-05-12T08:56:38.000Z</time>
      </trkpt>
      <trkpt lat="45.2761" lon="4.60304">
        <ele>671.79998779297</ele>
        <time>2026-05-12T08:56:39.000Z</time>
      </trkpt>
      <trkpt lat="45.27608" lon="4.60305">
        <ele>672.20001220703</ele>
        <time>2026-05-12T08:56:40.000Z</time>
      </trkpt>
      <trkpt lat="45.27606" lon="4.60305">
        <ele>672.40002441406</ele>
        <time>2026-05-12T08:56:41.000Z</time>
      </trkpt>
      <trkpt lat="45.27605" lon="4.60306">
        <ele>672.59997558594</ele>
        <time>2026-05-12T08:56:42.000Z</time>
      </trkpt>
      <trkpt lat="45.27603" lon="4.60306">
        <ele>672.79998779297</ele>
        <time>2026-05-12T08:56:43.000Z</time>
      </trkpt>
      <trkpt lat="45.27602" lon="4.60307">
        <ele>673</ele>
        <time>2026-05-12T08:56:44.000Z</time>
      </trkpt>
      <trkpt lat="45.276" lon="4.60307">
        <ele>673.40002441406</ele>
        <time>2026-05-12T08:56:45.000Z</time>
      </trkpt>
      <trkpt lat="45.27598" lon="4.60307">
        <ele>673.59997558594</ele>
        <time>2026-05-12T08:56:46.000Z</time>
      </trkpt>
      <trkpt lat="45.27596" lon="4.60307">
        <ele>673.79998779297</ele>
        <time>2026-05-12T08:56:47.000Z</time>
      </trkpt>
      <trkpt lat="45.27595" lon="4.60307">
        <ele>674.20001220703</ele>
        <time>2026-05-12T08:56:48.000Z</time>
      </trkpt>
      <trkpt lat="45.27594" lon="4.60307">
        <ele>674.40002441406</ele>
        <time>2026-05-12T08:56:49.000Z</time>
      </trkpt>
      <trkpt lat="45.27593" lon="4.60308">
        <ele>674.59997558594</ele>
        <time>2026-05-12T08:56:50.000Z</time>
      </trkpt>
      <trkpt lat="45.27591" lon="4.60308">
        <ele>674.79998779297</ele>
        <time>2026-05-12T08:56:51.000Z</time>
      </trkpt>
      <trkpt lat="45.2759" lon="4.60309">
        <ele>675.20001220703</ele>
        <time>2026-05-12T08:56:52.000Z</time>
      </trkpt>
      <trkpt lat="45.27588" lon="4.6031">
        <ele>675.40002441406</ele>
        <time>2026-05-12T08:56:53.000Z</time>
      </trkpt>
      <trkpt lat="45.27587" lon="4.6031">
        <ele>675.59997558594</ele>
        <time>2026-05-12T08:56:54.000Z</time>
      </trkpt>
      <trkpt lat="45.27586" lon="4.6031">
        <ele>675.79998779297</ele>
        <time>2026-05-12T08:56:55.000Z</time>
      </trkpt>
      <trkpt lat="45.27584" lon="4.6031">
        <ele>676</ele>
        <time>2026-05-12T08:56:56.000Z</time>
      </trkpt>
      <trkpt lat="45.27582" lon="4.60311">
        <ele>676.20001220703</ele>
        <time>2026-05-12T08:56:57.000Z</time>
      </trkpt>
      <trkpt lat="45.2758" lon="4.60312">
        <ele>676.40002441406</ele>
        <time>2026-05-12T08:56:58.000Z</time>
      </trkpt>
      <trkpt lat="45.27579" lon="4.60313">
        <ele>676.59997558594</ele>
        <time>2026-05-12T08:56:59.000Z</time>
      </trkpt>
      <trkpt lat="45.27578" lon="4.60314">
        <ele>676.79998779297</ele>
        <time>2026-05-12T08:57:00.000Z</time>
      </trkpt>
      <trkpt lat="45.27577" lon="4.60314">
        <ele>676.79998779297</ele>
        <time>2026-05-12T08:57:01.000Z</time>
      </trkpt>
      <trkpt lat="45.27575" lon="4.60315">
        <ele>677</ele>
        <time>2026-05-12T08:57:02.000Z</time>
      </trkpt>
      <trkpt lat="45.27574" lon="4.60316">
        <ele>677.20001220703</ele>
        <time>2026-05-12T08:57:03.000Z</time>
      </trkpt>
      <trkpt lat="45.27573" lon="4.60317">
        <ele>677.20001220703</ele>
        <time>2026-05-12T08:57:04.000Z</time>
      </trkpt>
      <trkpt lat="45.27572" lon="4.60319">
        <ele>677.40002441406</ele>
        <time>2026-05-12T08:57:05.000Z</time>
      </trkpt>
      <trkpt lat="45.27571" lon="4.6032">
        <ele>677.40002441406</ele>
        <time>2026-05-12T08:57:06.000Z</time>
      </trkpt>
      <trkpt lat="45.27569" lon="4.60321">
        <ele>677.59997558594</ele>
        <time>2026-05-12T08:57:07.000Z</time>
      </trkpt>
      <trkpt lat="45.27569" lon="4.60322">
        <ele>677.59997558594</ele>
        <time>2026-05-12T08:57:08.000Z</time>
      </trkpt>
      <trkpt lat="45.27568" lon="4.60324">
        <ele>677.59997558594</ele>
        <time>2026-05-12T08:57:09.000Z</time>
      </trkpt>
      <trkpt lat="45.27567" lon="4.60325">
        <ele>677.59997558594</ele>
        <time>2026-05-12T08:57:10.000Z</time>
      </trkpt>
      <trkpt lat="45.27566" lon="4.60327">
        <ele>677.59997558594</ele>
        <time>2026-05-12T08:57:11.000Z</time>
      </trkpt>
      <trkpt lat="45.27565" lon="4.60329">
        <ele>677.59997558594</ele>
        <time>2026-05-12T08:57:12.000Z</time>
      </trkpt>
      <trkpt lat="45.27564" lon="4.6033">
        <ele>677.59997558594</ele>
        <time>2026-05-12T08:57:13.000Z</time>
      </trkpt>
      <trkpt lat="45.27563" lon="4.60332">
        <ele>677.59997558594</ele>
        <time>2026-05-12T08:57:14.000Z</time>
      </trkpt>
      <trkpt lat="45.27562" lon="4.60334">
        <ele>677.59997558594</ele>
        <time>2026-05-12T08:57:15.000Z</time>
      </trkpt>
      <trkpt lat="45.27561" lon="4.60335">
        <ele>677.59997558594</ele>
        <time>2026-05-12T08:57:16.000Z</time>
      </trkpt>
      <trkpt lat="45.27561" lon="4.60337">
        <ele>677.59997558594</ele>
        <time>2026-05-12T08:57:17.000Z</time>
      </trkpt>
      <trkpt lat="45.2756" lon="4.60338">
        <ele>677.59997558594</ele>
        <time>2026-05-12T08:57:18.000Z</time>
      </trkpt>
      <trkpt lat="45.2756" lon="4.6034">
        <ele>677.59997558594</ele>
        <time>2026-05-12T08:57:19.000Z</time>
      </trkpt>
      <trkpt lat="45.27559" lon="4.60343">
        <ele>677.79998779297</ele>
        <time>2026-05-12T08:57:20.000Z</time>
      </trkpt>
      <trkpt lat="45.27559" lon="4.60345">
        <ele>677.79998779297</ele>
        <time>2026-05-12T08:57:21.000Z</time>
      </trkpt>
      <trkpt lat="45.27558" lon="4.60347">
        <ele>678</ele>
        <time>2026-05-12T08:57:22.000Z</time>
      </trkpt>
      <trkpt lat="45.27557" lon="4.60349">
        <ele>678</ele>
        <time>2026-05-12T08:57:23.000Z</time>
      </trkpt>
      <trkpt lat="45.27557" lon="4.60352">
        <ele>678.20001220703</ele>
        <time>2026-05-12T08:57:24.000Z</time>
      </trkpt>
      <trkpt lat="45.27558" lon="4.60355">
        <ele>678.20001220703</ele>
        <time>2026-05-12T08:57:25.000Z</time>
      </trkpt>
      <trkpt lat="45.27559" lon="4.60357">
        <ele>678.40002441406</ele>
        <time>2026-05-12T08:57:26.000Z</time>
      </trkpt>
      <trkpt lat="45.27559" lon="4.6036">
        <ele>678.40002441406</ele>
        <time>2026-05-12T08:57:27.000Z</time>
      </trkpt>
      <trkpt lat="45.2756" lon="4.60363">
        <ele>678.59997558594</ele>
        <time>2026-05-12T08:57:28.000Z</time>
      </trkpt>
      <trkpt lat="45.27561" lon="4.60365">
        <ele>678.59997558594</ele>
        <time>2026-05-12T08:57:29.000Z</time>
      </trkpt>
      <trkpt lat="45.27563" lon="4.60367">
        <ele>678.59997558594</ele>
        <time>2026-05-12T08:57:30.000Z</time>
      </trkpt>
      <trkpt lat="45.27564" lon="4.60369">
        <ele>678.79998779297</ele>
        <time>2026-05-12T08:57:31.000Z</time>
      </trkpt>
      <trkpt lat="45.27565" lon="4.60372">
        <ele>678.79998779297</ele>
        <time>2026-05-12T08:57:32.000Z</time>
      </trkpt>
      <trkpt lat="45.27566" lon="4.60374">
        <ele>679</ele>
        <time>2026-05-12T08:57:33.000Z</time>
      </trkpt>
      <trkpt lat="45.27567" lon="4.60377">
        <ele>679</ele>
        <time>2026-05-12T08:57:34.000Z</time>
      </trkpt>
      <trkpt lat="45.27568" lon="4.6038">
        <ele>679.20001220703</ele>
        <time>2026-05-12T08:57:35.000Z</time>
      </trkpt>
      <trkpt lat="45.27569" lon="4.60382">
        <ele>679.20001220703</ele>
        <time>2026-05-12T08:57:36.000Z</time>
      </trkpt>
      <trkpt lat="45.2757" lon="4.60384">
        <ele>679.40002441406</ele>
        <time>2026-05-12T08:57:37.000Z</time>
      </trkpt>
      <trkpt lat="45.27571" lon="4.60387">
        <ele>679.40002441406</ele>
        <time>2026-05-12T08:57:38.000Z</time>
      </trkpt>
      <trkpt lat="45.27572" lon="4.60389">
        <ele>679.40002441406</ele>
        <time>2026-05-12T08:57:39.000Z</time>
      </trkpt>
      <trkpt lat="45.27572" lon="4.60391">
        <ele>679.40002441406</ele>
        <time>2026-05-12T08:57:40.000Z</time>
      </trkpt>
      <trkpt lat="45.27574" lon="4.60393">
        <ele>679.59997558594</ele>
        <time>2026-05-12T08:57:41.000Z</time>
      </trkpt>
      <trkpt lat="45.27574" lon="4.60396">
        <ele>679.59997558594</ele>
        <time>2026-05-12T08:57:42.000Z</time>
      </trkpt>
      <trkpt lat="45.27575" lon="4.60398">
        <ele>679.59997558594</ele>
        <time>2026-05-12T08:57:43.000Z</time>
      </trkpt>
      <trkpt lat="45.27576" lon="4.60401">
        <ele>679.59997558594</ele>
        <time>2026-05-12T08:57:44.000Z</time>
      </trkpt>
      <trkpt lat="45.27577" lon="4.60403">
        <ele>679.79998779297</ele>
        <time>2026-05-12T08:57:45.000Z</time>
      </trkpt>
      <trkpt lat="45.27578" lon="4.60405">
        <ele>679.79998779297</ele>
        <time>2026-05-12T08:57:46.000Z</time>
      </trkpt>
      <trkpt lat="45.27578" lon="4.60408">
        <ele>679.79998779297</ele>
        <time>2026-05-12T08:57:47.000Z</time>
      </trkpt>
      <trkpt lat="45.27579" lon="4.6041">
        <ele>679.79998779297</ele>
        <time>2026-05-12T08:57:48.000Z</time>
      </trkpt>
      <trkpt lat="45.2758" lon="4.60413">
        <ele>679.79998779297</ele>
        <time>2026-05-12T08:57:49.000Z</time>
      </trkpt>
      <trkpt lat="45.2758" lon="4.60415">
        <ele>679.79998779297</ele>
        <time>2026-05-12T08:57:50.000Z</time>
      </trkpt>
      <trkpt lat="45.27581" lon="4.60418">
        <ele>680</ele>
        <time>2026-05-12T08:57:51.000Z</time>
      </trkpt>
      <trkpt lat="45.27582" lon="4.60421">
        <ele>680</ele>
        <time>2026-05-12T08:57:52.000Z</time>
      </trkpt>
      <trkpt lat="45.27582" lon="4.60423">
        <ele>680</ele>
        <time>2026-05-12T08:57:53.000Z</time>
      </trkpt>
      <trkpt lat="45.27583" lon="4.60426">
        <ele>680</ele>
        <time>2026-05-12T08:57:54.000Z</time>
      </trkpt>
      <trkpt lat="45.27583" lon="4.60428">
        <ele>680.20001220703</ele>
        <time>2026-05-12T08:57:55.000Z</time>
      </trkpt>
      <trkpt lat="45.27584" lon="4.60431">
        <ele>680.20001220703</ele>
        <time>2026-05-12T08:57:56.000Z</time>
      </trkpt>
      <trkpt lat="45.27584" lon="4.60433">
        <ele>680.40002441406</ele>
        <time>2026-05-12T08:57:57.000Z</time>
      </trkpt>
      <trkpt lat="45.27585" lon="4.60436">
        <ele>680.40002441406</ele>
        <time>2026-05-12T08:57:58.000Z</time>
      </trkpt>
      <trkpt lat="45.27585" lon="4.60438">
        <ele>680.40002441406</ele>
        <time>2026-05-12T08:57:59.000Z</time>
      </trkpt>
      <trkpt lat="45.27585" lon="4.6044">
        <ele>680.59997558594</ele>
        <time>2026-05-12T08:58:00.000Z</time>
      </trkpt>
      <trkpt lat="45.27585" lon="4.60443">
        <ele>680.59997558594</ele>
        <time>2026-05-12T08:58:01.000Z</time>
      </trkpt>
      <trkpt lat="45.27586" lon="4.60445">
        <ele>680.59997558594</ele>
        <time>2026-05-12T08:58:02.000Z</time>
      </trkpt>
      <trkpt lat="45.27586" lon="4.60448">
        <ele>680.79998779297</ele>
        <time>2026-05-12T08:58:03.000Z</time>
      </trkpt>
      <trkpt lat="45.27586" lon="4.6045">
        <ele>681</ele>
        <time>2026-05-12T08:58:04.000Z</time>
      </trkpt>
      <trkpt lat="45.27587" lon="4.60453">
        <ele>681.20001220703</ele>
        <time>2026-05-12T08:58:05.000Z</time>
      </trkpt>
      <trkpt lat="45.27587" lon="4.60456">
        <ele>681.40002441406</ele>
        <time>2026-05-12T08:58:06.000Z</time>
      </trkpt>
      <trkpt lat="45.27587" lon="4.60458">
        <ele>681.40002441406</ele>
        <time>2026-05-12T08:58:07.000Z</time>
      </trkpt>
      <trkpt lat="45.27587" lon="4.6046">
        <ele>681.40002441406</ele>
        <time>2026-05-12T08:58:08.000Z</time>
      </trkpt>
      <trkpt lat="45.27587" lon="4.60463">
        <ele>681.40002441406</ele>
        <time>2026-05-12T08:58:09.000Z</time>
      </trkpt>
      <trkpt lat="45.27588" lon="4.60465">
        <ele>681.59997558594</ele>
        <time>2026-05-12T08:58:10.000Z</time>
      </trkpt>
      <trkpt lat="45.27588" lon="4.60468">
        <ele>681.59997558594</ele>
        <time>2026-05-12T08:58:11.000Z</time>
      </trkpt>
      <trkpt lat="45.27589" lon="4.60471">
        <ele>681.79998779297</ele>
        <time>2026-05-12T08:58:12.000Z</time>
      </trkpt>
      <trkpt lat="45.27589" lon="4.60473">
        <ele>681.79998779297</ele>
        <time>2026-05-12T08:58:13.000Z</time>
      </trkpt>
      <trkpt lat="45.27589" lon="4.60475">
        <ele>682</ele>
        <time>2026-05-12T08:58:14.000Z</time>
      </trkpt>
      <trkpt lat="45.27589" lon="4.60478">
        <ele>682.20001220703</ele>
        <time>2026-05-12T08:58:15.000Z</time>
      </trkpt>
      <trkpt lat="45.2759" lon="4.6048">
        <ele>682.20001220703</ele>
        <time>2026-05-12T08:58:16.000Z</time>
      </trkpt>
      <trkpt lat="45.2759" lon="4.60483">
        <ele>682.40002441406</ele>
        <time>2026-05-12T08:58:17.000Z</time>
      </trkpt>
      <trkpt lat="45.2759" lon="4.60485">
        <ele>682.59997558594</ele>
        <time>2026-05-12T08:58:18.000Z</time>
      </trkpt>
      <trkpt lat="45.27591" lon="4.60488">
        <ele>682.79998779297</ele>
        <time>2026-05-12T08:58:19.000Z</time>
      </trkpt>
      <trkpt lat="45.27591" lon="4.6049">
        <ele>683</ele>
        <time>2026-05-12T08:58:20.000Z</time>
      </trkpt>
      <trkpt lat="45.27592" lon="4.60492">
        <ele>683.20001220703</ele>
        <time>2026-05-12T08:58:21.000Z</time>
      </trkpt>
      <trkpt lat="45.27592" lon="4.60495">
        <ele>683.40002441406</ele>
        <time>2026-05-12T08:58:22.000Z</time>
      </trkpt>
      <trkpt lat="45.27593" lon="4.60497">
        <ele>683.79998779297</ele>
        <time>2026-05-12T08:58:23.000Z</time>
      </trkpt>
      <trkpt lat="45.27594" lon="4.60499">
        <ele>684</ele>
        <time>2026-05-12T08:58:24.000Z</time>
      </trkpt>
      <trkpt lat="45.27594" lon="4.60502">
        <ele>684.20001220703</ele>
        <time>2026-05-12T08:58:25.000Z</time>
      </trkpt>
      <trkpt lat="45.27595" lon="4.60504">
        <ele>684.40002441406</ele>
        <time>2026-05-12T08:58:26.000Z</time>
      </trkpt>
      <trkpt lat="45.27596" lon="4.60506">
        <ele>684.59997558594</ele>
        <time>2026-05-12T08:58:27.000Z</time>
      </trkpt>
      <trkpt lat="45.27597" lon="4.60508">
        <ele>684.79998779297</ele>
        <time>2026-05-12T08:58:28.000Z</time>
      </trkpt>
      <trkpt lat="45.27598" lon="4.6051">
        <ele>685</ele>
        <time>2026-05-12T08:58:29.000Z</time>
      </trkpt>
      <trkpt lat="45.27599" lon="4.60512">
        <ele>685.20001220703</ele>
        <time>2026-05-12T08:58:30.000Z</time>
      </trkpt>
      <trkpt lat="45.276" lon="4.60515">
        <ele>685.40002441406</ele>
        <time>2026-05-12T08:58:31.000Z</time>
      </trkpt>
      <trkpt lat="45.27601" lon="4.60517">
        <ele>685.59997558594</ele>
        <time>2026-05-12T08:58:32.000Z</time>
      </trkpt>
      <trkpt lat="45.27602" lon="4.60519">
        <ele>685.79998779297</ele>
        <time>2026-05-12T08:58:33.000Z</time>
      </trkpt>
      <trkpt lat="45.27603" lon="4.6052">
        <ele>686.20001220703</ele>
        <time>2026-05-12T08:58:34.000Z</time>
      </trkpt>
      <trkpt lat="45.27604" lon="4.60522">
        <ele>686.40002441406</ele>
        <time>2026-05-12T08:58:35.000Z</time>
      </trkpt>
      <trkpt lat="45.27604" lon="4.60525">
        <ele>686.59997558594</ele>
        <time>2026-05-12T08:58:36.000Z</time>
      </trkpt>
      <trkpt lat="45.27605" lon="4.60527">
        <ele>686.79998779297</ele>
        <time>2026-05-12T08:58:37.000Z</time>
      </trkpt>
      <trkpt lat="45.27605" lon="4.60529">
        <ele>687.20001220703</ele>
        <time>2026-05-12T08:58:38.000Z</time>
      </trkpt>
      <trkpt lat="45.27605" lon="4.60532">
        <ele>687.40002441406</ele>
        <time>2026-05-12T08:58:39.000Z</time>
      </trkpt>
      <trkpt lat="45.27605" lon="4.60534">
        <ele>687.59997558594</ele>
        <time>2026-05-12T08:58:40.000Z</time>
      </trkpt>
      <trkpt lat="45.27605" lon="4.60537">
        <ele>688</ele>
        <time>2026-05-12T08:58:41.000Z</time>
      </trkpt>
      <trkpt lat="45.27605" lon="4.60539">
        <ele>688.20001220703</ele>
        <time>2026-05-12T08:58:42.000Z</time>
      </trkpt>
      <trkpt lat="45.27604" lon="4.60541">
        <ele>688.59997558594</ele>
        <time>2026-05-12T08:58:43.000Z</time>
      </trkpt>
      <trkpt lat="45.27604" lon="4.60543">
        <ele>689</ele>
        <time>2026-05-12T08:58:44.000Z</time>
      </trkpt>
      <trkpt lat="45.27603" lon="4.60546">
        <ele>689.20001220703</ele>
        <time>2026-05-12T08:58:45.000Z</time>
      </trkpt>
      <trkpt lat="45.27602" lon="4.60548">
        <ele>689.59997558594</ele>
        <time>2026-05-12T08:58:46.000Z</time>
      </trkpt>
      <trkpt lat="45.27601" lon="4.6055">
        <ele>689.79998779297</ele>
        <time>2026-05-12T08:58:47.000Z</time>
      </trkpt>
      <trkpt lat="45.276" lon="4.60552">
        <ele>690</ele>
        <time>2026-05-12T08:58:48.000Z</time>
      </trkpt>
      <trkpt lat="45.27599" lon="4.60555">
        <ele>690.20001220703</ele>
        <time>2026-05-12T08:58:49.000Z</time>
      </trkpt>
      <trkpt lat="45.27598" lon="4.60557">
        <ele>690.40002441406</ele>
        <time>2026-05-12T08:58:50.000Z</time>
      </trkpt>
      <trkpt lat="45.27596" lon="4.60559">
        <ele>690.79998779297</ele>
        <time>2026-05-12T08:58:51.000Z</time>
      </trkpt>
      <trkpt lat="45.27595" lon="4.60561">
        <ele>691.20001220703</ele>
        <time>2026-05-12T08:58:52.000Z</time>
      </trkpt>
      <trkpt lat="45.27594" lon="4.60563">
        <ele>691.59997558594</ele>
        <time>2026-05-12T08:58:53.000Z</time>
      </trkpt>
      <trkpt lat="45.27593" lon="4.60564">
        <ele>692</ele>
        <time>2026-05-12T08:58:54.000Z</time>
      </trkpt>
      <trkpt lat="45.27592" lon="4.60566">
        <ele>692.20001220703</ele>
        <time>2026-05-12T08:58:55.000Z</time>
      </trkpt>
      <trkpt lat="45.2759" lon="4.60568">
        <ele>692.59997558594</ele>
        <time>2026-05-12T08:58:56.000Z</time>
      </trkpt>
      <trkpt lat="45.27589" lon="4.6057">
        <ele>692.79998779297</ele>
        <time>2026-05-12T08:58:57.000Z</time>
      </trkpt>
      <trkpt lat="45.27588" lon="4.60572">
        <ele>693.20001220703</ele>
        <time>2026-05-12T08:58:58.000Z</time>
      </trkpt>
      <trkpt lat="45.27587" lon="4.60574">
        <ele>693.40002441406</ele>
        <time>2026-05-12T08:58:59.000Z</time>
      </trkpt>
      <trkpt lat="45.27585" lon="4.60575">
        <ele>693.59997558594</ele>
        <time>2026-05-12T08:59:00.000Z</time>
      </trkpt>
      <trkpt lat="45.27584" lon="4.60577">
        <ele>694</ele>
        <time>2026-05-12T08:59:01.000Z</time>
      </trkpt>
      <trkpt lat="45.27583" lon="4.60579">
        <ele>694.20001220703</ele>
        <time>2026-05-12T08:59:02.000Z</time>
      </trkpt>
      <trkpt lat="45.27582" lon="4.60581">
        <ele>694.40002441406</ele>
        <time>2026-05-12T08:59:03.000Z</time>
      </trkpt>
      <trkpt lat="45.27581" lon="4.60583">
        <ele>694.59997558594</ele>
        <time>2026-05-12T08:59:04.000Z</time>
      </trkpt>
      <trkpt lat="45.2758" lon="4.60585">
        <ele>694.79998779297</ele>
        <time>2026-05-12T08:59:05.000Z</time>
      </trkpt>
      <trkpt lat="45.27579" lon="4.60586">
        <ele>695</ele>
        <time>2026-05-12T08:59:06.000Z</time>
      </trkpt>
      <trkpt lat="45.27578" lon="4.60588">
        <ele>695.20001220703</ele>
        <time>2026-05-12T08:59:07.000Z</time>
      </trkpt>
      <trkpt lat="45.27576" lon="4.60589">
        <ele>695.40002441406</ele>
        <time>2026-05-12T08:59:08.000Z</time>
      </trkpt>
      <trkpt lat="45.27575" lon="4.60591">
        <ele>695.59997558594</ele>
        <time>2026-05-12T08:59:09.000Z</time>
      </trkpt>
      <trkpt lat="45.27574" lon="4.60593">
        <ele>695.59997558594</ele>
        <time>2026-05-12T08:59:10.000Z</time>
      </trkpt>
      <trkpt lat="45.27573" lon="4.60595">
        <ele>695.79998779297</ele>
        <time>2026-05-12T08:59:11.000Z</time>
      </trkpt>
      <trkpt lat="45.27572" lon="4.60597">
        <ele>696</ele>
        <time>2026-05-12T08:59:12.000Z</time>
      </trkpt>
      <trkpt lat="45.2757" lon="4.60599">
        <ele>696</ele>
        <time>2026-05-12T08:59:13.000Z</time>
      </trkpt>
      <trkpt lat="45.27569" lon="4.606">
        <ele>696.20001220703</ele>
        <time>2026-05-12T08:59:14.000Z</time>
      </trkpt>
      <trkpt lat="45.27568" lon="4.60602">
        <ele>696.40002441406</ele>
        <time>2026-05-12T08:59:15.000Z</time>
      </trkpt>
      <trkpt lat="45.27566" lon="4.60603">
        <ele>696.59997558594</ele>
        <time>2026-05-12T08:59:16.000Z</time>
      </trkpt>
      <trkpt lat="45.27565" lon="4.60605">
        <ele>696.79998779297</ele>
        <time>2026-05-12T08:59:17.000Z</time>
      </trkpt>
      <trkpt lat="45.27564" lon="4.60607">
        <ele>696.79998779297</ele>
        <time>2026-05-12T08:59:18.000Z</time>
      </trkpt>
      <trkpt lat="45.27563" lon="4.60609">
        <ele>697</ele>
        <time>2026-05-12T08:59:19.000Z</time>
      </trkpt>
      <trkpt lat="45.27561" lon="4.60611">
        <ele>697.20001220703</ele>
        <time>2026-05-12T08:59:20.000Z</time>
      </trkpt>
      <trkpt lat="45.2756" lon="4.60613">
        <ele>697.40002441406</ele>
        <time>2026-05-12T08:59:21.000Z</time>
      </trkpt>
      <trkpt lat="45.27559" lon="4.60614">
        <ele>697.40002441406</ele>
        <time>2026-05-12T08:59:22.000Z</time>
      </trkpt>
      <trkpt lat="45.27557" lon="4.60616">
        <ele>697.59997558594</ele>
        <time>2026-05-12T08:59:23.000Z</time>
      </trkpt>
      <trkpt lat="45.27556" lon="4.60618">
        <ele>697.79998779297</ele>
        <time>2026-05-12T08:59:24.000Z</time>
      </trkpt>
      <trkpt lat="45.27554" lon="4.60619">
        <ele>698</ele>
        <time>2026-05-12T08:59:25.000Z</time>
      </trkpt>
      <trkpt lat="45.27553" lon="4.60621">
        <ele>698.20001220703</ele>
        <time>2026-05-12T08:59:26.000Z</time>
      </trkpt>
      <trkpt lat="45.27552" lon="4.60622">
        <ele>698.40002441406</ele>
        <time>2026-05-12T08:59:27.000Z</time>
      </trkpt>
      <trkpt lat="45.2755" lon="4.60623">
        <ele>698.59997558594</ele>
        <time>2026-05-12T08:59:28.000Z</time>
      </trkpt>
      <trkpt lat="45.27549" lon="4.60625">
        <ele>698.79998779297</ele>
        <time>2026-05-12T08:59:29.000Z</time>
      </trkpt>
      <trkpt lat="45.27548" lon="4.60627">
        <ele>699</ele>
        <time>2026-05-12T08:59:30.000Z</time>
      </trkpt>
      <trkpt lat="45.27547" lon="4.60628">
        <ele>699.20001220703</ele>
        <time>2026-05-12T08:59:31.000Z</time>
      </trkpt>
      <trkpt lat="45.27545" lon="4.6063">
        <ele>699.40002441406</ele>
        <time>2026-05-12T08:59:32.000Z</time>
      </trkpt>
      <trkpt lat="45.27544" lon="4.60631">
        <ele>699.59997558594</ele>
        <time>2026-05-12T08:59:33.000Z</time>
      </trkpt>
      <trkpt lat="45.27543" lon="4.60633">
        <ele>699.79998779297</ele>
        <time>2026-05-12T08:59:34.000Z</time>
      </trkpt>
      <trkpt lat="45.27542" lon="4.60634">
        <ele>700.20001220703</ele>
        <time>2026-05-12T08:59:35.000Z</time>
      </trkpt>
      <trkpt lat="45.2754" lon="4.60636">
        <ele>700.40002441406</ele>
        <time>2026-05-12T08:59:36.000Z</time>
      </trkpt>
      <trkpt lat="45.27539" lon="4.60637">
        <ele>700.59997558594</ele>
        <time>2026-05-12T08:59:37.000Z</time>
      </trkpt>
      <trkpt lat="45.27538" lon="4.60638">
        <ele>701</ele>
        <time>2026-05-12T08:59:38.000Z</time>
      </trkpt>
      <trkpt lat="45.27536" lon="4.60639">
        <ele>701.20001220703</ele>
        <time>2026-05-12T08:59:39.000Z</time>
      </trkpt>
      <trkpt lat="45.27535" lon="4.6064">
        <ele>701.40002441406</ele>
        <time>2026-05-12T08:59:40.000Z</time>
      </trkpt>
      <trkpt lat="45.27533" lon="4.60641">
        <ele>701.79998779297</ele>
        <time>2026-05-12T08:59:41.000Z</time>
      </trkpt>
      <trkpt lat="45.27532" lon="4.60642">
        <ele>702</ele>
        <time>2026-05-12T08:59:42.000Z</time>
      </trkpt>
      <trkpt lat="45.27531" lon="4.60643">
        <ele>702.20001220703</ele>
        <time>2026-05-12T08:59:43.000Z</time>
      </trkpt>
      <trkpt lat="45.27529" lon="4.60644">
        <ele>702.40002441406</ele>
        <time>2026-05-12T08:59:44.000Z</time>
      </trkpt>
      <trkpt lat="45.27528" lon="4.60646">
        <ele>702.79998779297</ele>
        <time>2026-05-12T08:59:45.000Z</time>
      </trkpt>
      <trkpt lat="45.27527" lon="4.60647">
        <ele>703</ele>
        <time>2026-05-12T08:59:46.000Z</time>
      </trkpt>
      <trkpt lat="45.27525" lon="4.60649">
        <ele>703.40002441406</ele>
        <time>2026-05-12T08:59:47.000Z</time>
      </trkpt>
      <trkpt lat="45.27524" lon="4.6065">
        <ele>703.59997558594</ele>
        <time>2026-05-12T08:59:48.000Z</time>
      </trkpt>
      <trkpt lat="45.27523" lon="4.60651">
        <ele>704</ele>
        <time>2026-05-12T08:59:49.000Z</time>
      </trkpt>
      <trkpt lat="45.27522" lon="4.60652">
        <ele>704.20001220703</ele>
        <time>2026-05-12T08:59:50.000Z</time>
      </trkpt>
      <trkpt lat="45.27521" lon="4.60653">
        <ele>704.59997558594</ele>
        <time>2026-05-12T08:59:51.000Z</time>
      </trkpt>
      <trkpt lat="45.2752" lon="4.60654">
        <ele>705</ele>
        <time>2026-05-12T08:59:52.000Z</time>
      </trkpt>
      <trkpt lat="45.2752" lon="4.60655">
        <ele>705.20001220703</ele>
        <time>2026-05-12T08:59:53.000Z</time>
      </trkpt>
      <trkpt lat="45.27519" lon="4.60656">
        <ele>705.59997558594</ele>
        <time>2026-05-12T08:59:54.000Z</time>
      </trkpt>
      <trkpt lat="45.27518" lon="4.60658">
        <ele>705.79998779297</ele>
        <time>2026-05-12T08:59:55.000Z</time>
      </trkpt>
      <trkpt lat="45.27516" lon="4.6066">
        <ele>706.20001220703</ele>
        <time>2026-05-12T08:59:56.000Z</time>
      </trkpt>
      <trkpt lat="45.27515" lon="4.60662">
        <ele>706.59997558594</ele>
        <time>2026-05-12T08:59:57.000Z</time>
      </trkpt>
      <trkpt lat="45.27514" lon="4.60663">
        <ele>706.79998779297</ele>
        <time>2026-05-12T08:59:58.000Z</time>
      </trkpt>
      <trkpt lat="45.27513" lon="4.60664">
        <ele>707.20001220703</ele>
        <time>2026-05-12T08:59:59.000Z</time>
      </trkpt>
      <trkpt lat="45.27511" lon="4.60666">
        <ele>707.40002441406</ele>
        <time>2026-05-12T09:00:00.000Z</time>
      </trkpt>
      <trkpt lat="45.2751" lon="4.60667">
        <ele>707.79998779297</ele>
        <time>2026-05-12T09:00:01.000Z</time>
      </trkpt>
      <trkpt lat="45.27509" lon="4.60669">
        <ele>708.20001220703</ele>
        <time>2026-05-12T09:00:02.000Z</time>
      </trkpt>
      <trkpt lat="45.27508" lon="4.6067">
        <ele>708.40002441406</ele>
        <time>2026-05-12T09:00:03.000Z</time>
      </trkpt>
      <trkpt lat="45.27507" lon="4.60671">
        <ele>708.79998779297</ele>
        <time>2026-05-12T09:00:04.000Z</time>
      </trkpt>
      <trkpt lat="45.27505" lon="4.60673">
        <ele>709.20001220703</ele>
        <time>2026-05-12T09:00:05.000Z</time>
      </trkpt>
      <trkpt lat="45.27504" lon="4.60675">
        <ele>709.40002441406</ele>
        <time>2026-05-12T09:00:06.000Z</time>
      </trkpt>
      <trkpt lat="45.27503" lon="4.60676">
        <ele>709.79998779297</ele>
        <time>2026-05-12T09:00:07.000Z</time>
      </trkpt>
      <trkpt lat="45.27502" lon="4.60678">
        <ele>710</ele>
        <time>2026-05-12T09:00:08.000Z</time>
      </trkpt>
      <trkpt lat="45.27501" lon="4.60679">
        <ele>710.40002441406</ele>
        <time>2026-05-12T09:00:09.000Z</time>
      </trkpt>
      <trkpt lat="45.275" lon="4.60681">
        <ele>710.59997558594</ele>
        <time>2026-05-12T09:00:10.000Z</time>
      </trkpt>
      <trkpt lat="45.27499" lon="4.60682">
        <ele>711</ele>
        <time>2026-05-12T09:00:11.000Z</time>
      </trkpt>
      <trkpt lat="45.27497" lon="4.60684">
        <ele>711.20001220703</ele>
        <time>2026-05-12T09:00:12.000Z</time>
      </trkpt>
      <trkpt lat="45.27496" lon="4.60685">
        <ele>711.59997558594</ele>
        <time>2026-05-12T09:00:13.000Z</time>
      </trkpt>
      <trkpt lat="45.27494" lon="4.60687">
        <ele>711.79998779297</ele>
        <time>2026-05-12T09:00:14.000Z</time>
      </trkpt>
      <trkpt lat="45.27493" lon="4.60689">
        <ele>712.20001220703</ele>
        <time>2026-05-12T09:00:15.000Z</time>
      </trkpt>
      <trkpt lat="45.27492" lon="4.6069">
        <ele>712.40002441406</ele>
        <time>2026-05-12T09:00:16.000Z</time>
      </trkpt>
      <trkpt lat="45.27491" lon="4.60691">
        <ele>712.79998779297</ele>
        <time>2026-05-12T09:00:17.000Z</time>
      </trkpt>
      <trkpt lat="45.27489" lon="4.60693">
        <ele>713</ele>
        <time>2026-05-12T09:00:18.000Z</time>
      </trkpt>
      <trkpt lat="45.27488" lon="4.60695">
        <ele>713.40002441406</ele>
        <time>2026-05-12T09:00:19.000Z</time>
      </trkpt>
      <trkpt lat="45.27488" lon="4.60696">
        <ele>713.59997558594</ele>
        <time>2026-05-12T09:00:20.000Z</time>
      </trkpt>
      <trkpt lat="45.27487" lon="4.60698">
        <ele>713.79998779297</ele>
        <time>2026-05-12T09:00:21.000Z</time>
      </trkpt>
      <trkpt lat="45.27486" lon="4.60698">
        <ele>714</ele>
        <time>2026-05-12T09:00:22.000Z</time>
      </trkpt>
      <trkpt lat="45.27485" lon="4.60699">
        <ele>714.20001220703</ele>
        <time>2026-05-12T09:00:23.000Z</time>
      </trkpt>
      <trkpt lat="45.27484" lon="4.60701">
        <ele>714.40002441406</ele>
        <time>2026-05-12T09:00:24.000Z</time>
      </trkpt>
      <trkpt lat="45.27483" lon="4.60702">
        <ele>714.59997558594</ele>
        <time>2026-05-12T09:00:25.000Z</time>
      </trkpt>
      <trkpt lat="45.27482" lon="4.60705">
        <ele>714.79998779297</ele>
        <time>2026-05-12T09:00:26.000Z</time>
      </trkpt>
      <trkpt lat="45.27481" lon="4.60707">
        <ele>715.20001220703</ele>
        <time>2026-05-12T09:00:27.000Z</time>
      </trkpt>
      <trkpt lat="45.27479" lon="4.60708">
        <ele>715.40002441406</ele>
        <time>2026-05-12T09:00:28.000Z</time>
      </trkpt>
      <trkpt lat="45.27478" lon="4.6071">
        <ele>715.59997558594</ele>
        <time>2026-05-12T09:00:29.000Z</time>
      </trkpt>
      <trkpt lat="45.27477" lon="4.60711">
        <ele>716</ele>
        <time>2026-05-12T09:00:30.000Z</time>
      </trkpt>
      <trkpt lat="45.27476" lon="4.60713">
        <ele>716.40002441406</ele>
        <time>2026-05-12T09:00:31.000Z</time>
      </trkpt>
      <trkpt lat="45.27474" lon="4.60714">
        <ele>716.59997558594</ele>
        <time>2026-05-12T09:00:32.000Z</time>
      </trkpt>
      <trkpt lat="45.27474" lon="4.60716">
        <ele>717</ele>
        <time>2026-05-12T09:00:33.000Z</time>
      </trkpt>
      <trkpt lat="45.27473" lon="4.60717">
        <ele>717.20001220703</ele>
        <time>2026-05-12T09:00:34.000Z</time>
      </trkpt>
      <trkpt lat="45.27472" lon="4.60719">
        <ele>717.20001220703</ele>
        <time>2026-05-12T09:00:35.000Z</time>
      </trkpt>
      <trkpt lat="45.27471" lon="4.6072">
        <ele>718</ele>
        <time>2026-05-12T09:00:36.000Z</time>
      </trkpt>
      <trkpt lat="45.2747" lon="4.60722">
        <ele>718.40002441406</ele>
        <time>2026-05-12T09:00:37.000Z</time>
      </trkpt>
      <trkpt lat="45.27469" lon="4.60724">
        <ele>718.79998779297</ele>
        <time>2026-05-12T09:00:38.000Z</time>
      </trkpt>
      <trkpt lat="45.27469" lon="4.60726">
        <ele>719.20001220703</ele>
        <time>2026-05-12T09:00:39.000Z</time>
      </trkpt>
      <trkpt lat="45.27468" lon="4.60727">
        <ele>719.40002441406</ele>
        <time>2026-05-12T09:00:40.000Z</time>
      </trkpt>
      <trkpt lat="45.27467" lon="4.60729">
        <ele>719.59997558594</ele>
        <time>2026-05-12T09:00:41.000Z</time>
      </trkpt>
      <trkpt lat="45.27465" lon="4.60732">
        <ele>719.79998779297</ele>
        <time>2026-05-12T09:00:42.000Z</time>
      </trkpt>
      <trkpt lat="45.27464" lon="4.60734">
        <ele>720</ele>
        <time>2026-05-12T09:00:43.000Z</time>
      </trkpt>
      <trkpt lat="45.27464" lon="4.60736">
        <ele>720.20001220703</ele>
        <time>2026-05-12T09:00:44.000Z</time>
      </trkpt>
      <trkpt lat="45.27463" lon="4.60738">
        <ele>720.40002441406</ele>
        <time>2026-05-12T09:00:45.000Z</time>
      </trkpt>
      <trkpt lat="45.27461" lon="4.6074">
        <ele>720.59997558594</ele>
        <time>2026-05-12T09:00:46.000Z</time>
      </trkpt>
      <trkpt lat="45.27461" lon="4.60742">
        <ele>721</ele>
        <time>2026-05-12T09:00:47.000Z</time>
      </trkpt>
      <trkpt lat="45.27459" lon="4.60744">
        <ele>721.20001220703</ele>
        <time>2026-05-12T09:00:48.000Z</time>
      </trkpt>
      <trkpt lat="45.27458" lon="4.60746">
        <ele>721.59997558594</ele>
        <time>2026-05-12T09:00:49.000Z</time>
      </trkpt>
      <trkpt lat="45.27457" lon="4.60748">
        <ele>722</ele>
        <time>2026-05-12T09:00:50.000Z</time>
      </trkpt>
      <trkpt lat="45.27456" lon="4.60749">
        <ele>722.20001220703</ele>
        <time>2026-05-12T09:00:51.000Z</time>
      </trkpt>
      <trkpt lat="45.27456" lon="4.6075">
        <ele>722.59997558594</ele>
        <time>2026-05-12T09:00:52.000Z</time>
      </trkpt>
      <trkpt lat="45.27455" lon="4.60752">
        <ele>723</ele>
        <time>2026-05-12T09:00:53.000Z</time>
      </trkpt>
      <trkpt lat="45.27454" lon="4.60753">
        <ele>723.20001220703</ele>
        <time>2026-05-12T09:00:54.000Z</time>
      </trkpt>
      <trkpt lat="45.27454" lon="4.60755">
        <ele>723.59997558594</ele>
        <time>2026-05-12T09:00:55.000Z</time>
      </trkpt>
      <trkpt lat="45.27453" lon="4.60757">
        <ele>723.79998779297</ele>
        <time>2026-05-12T09:00:56.000Z</time>
      </trkpt>
      <trkpt lat="45.27453" lon="4.60759">
        <ele>724.20001220703</ele>
        <time>2026-05-12T09:00:57.000Z</time>
      </trkpt>
      <trkpt lat="45.27452" lon="4.6076">
        <ele>724.40002441406</ele>
        <time>2026-05-12T09:00:58.000Z</time>
      </trkpt>
      <trkpt lat="45.27451" lon="4.60762">
        <ele>724.79998779297</ele>
        <time>2026-05-12T09:00:59.000Z</time>
      </trkpt>
      <trkpt lat="45.2745" lon="4.60764">
        <ele>725</ele>
        <time>2026-05-12T09:01:00.000Z</time>
      </trkpt>
      <trkpt lat="45.27449" lon="4.60767">
        <ele>725.40002441406</ele>
        <time>2026-05-12T09:01:01.000Z</time>
      </trkpt>
      <trkpt lat="45.27448" lon="4.60769">
        <ele>725.59997558594</ele>
        <time>2026-05-12T09:01:02.000Z</time>
      </trkpt>
      <trkpt lat="45.27447" lon="4.60771">
        <ele>725.79998779297</ele>
        <time>2026-05-12T09:01:03.000Z</time>
      </trkpt>
      <trkpt lat="45.27445" lon="4.60773">
        <ele>726.20001220703</ele>
        <time>2026-05-12T09:01:04.000Z</time>
      </trkpt>
      <trkpt lat="45.27444" lon="4.60775">
        <ele>726.40002441406</ele>
        <time>2026-05-12T09:01:05.000Z</time>
      </trkpt>
      <trkpt lat="45.27443" lon="4.60777">
        <ele>726.79998779297</ele>
        <time>2026-05-12T09:01:06.000Z</time>
      </trkpt>
      <trkpt lat="45.27441" lon="4.60778">
        <ele>727</ele>
        <time>2026-05-12T09:01:07.000Z</time>
      </trkpt>
      <trkpt lat="45.27439" lon="4.60778">
        <ele>727.20001220703</ele>
        <time>2026-05-12T09:01:08.000Z</time>
      </trkpt>
      <trkpt lat="45.27437" lon="4.60779">
        <ele>727.40002441406</ele>
        <time>2026-05-12T09:01:09.000Z</time>
      </trkpt>
      <trkpt lat="45.27436" lon="4.6078">
        <ele>727.59997558594</ele>
        <time>2026-05-12T09:01:10.000Z</time>
      </trkpt>
      <trkpt lat="45.27434" lon="4.6078">
        <ele>728</ele>
        <time>2026-05-12T09:01:11.000Z</time>
      </trkpt>
      <trkpt lat="45.27432" lon="4.60779">
        <ele>728</ele>
        <time>2026-05-12T09:01:12.000Z</time>
      </trkpt>
      <trkpt lat="45.27431" lon="4.60778">
        <ele>728.20001220703</ele>
        <time>2026-05-12T09:01:13.000Z</time>
      </trkpt>
      <trkpt lat="45.2743" lon="4.60778">
        <ele>728.20001220703</ele>
        <time>2026-05-12T09:01:14.000Z</time>
      </trkpt>
      <trkpt lat="45.27429" lon="4.60778">
        <ele>728.20001220703</ele>
        <time>2026-05-12T09:01:15.000Z</time>
      </trkpt>
      <trkpt lat="45.27427" lon="4.60777">
        <ele>728.20001220703</ele>
        <time>2026-05-12T09:01:16.000Z</time>
      </trkpt>
      <trkpt lat="45.27426" lon="4.60776">
        <ele>728.20001220703</ele>
        <time>2026-05-12T09:01:17.000Z</time>
      </trkpt>
      <trkpt lat="45.27426" lon="4.60775">
        <ele>728.20001220703</ele>
        <time>2026-05-12T09:01:18.000Z</time>
      </trkpt>
      <trkpt lat="45.27426" lon="4.60775">
        <ele>728.20001220703</ele>
        <time>2026-05-12T09:01:19.000Z</time>
      </trkpt>
      <trkpt lat="45.27426" lon="4.60775">
        <ele>728.20001220703</ele>
        <time>2026-05-12T09:01:20.000Z</time>
      </trkpt>
      <trkpt lat="45.27427" lon="4.60763">
        <ele>727.20001220703</ele>
        <time>2026-05-12T09:12:29.000Z</time>
      </trkpt>
      <trkpt lat="45.27426" lon="4.60761">
        <ele>727.20001220703</ele>
        <time>2026-05-12T09:12:30.000Z</time>
      </trkpt>
      <trkpt lat="45.27425" lon="4.60759">
        <ele>727.20001220703</ele>
        <time>2026-05-12T09:12:31.000Z</time>
      </trkpt>
      <trkpt lat="45.27425" lon="4.60757">
        <ele>727.20001220703</ele>
        <time>2026-05-12T09:12:32.000Z</time>
      </trkpt>
      <trkpt lat="45.27424" lon="4.60755">
        <ele>727.20001220703</ele>
        <time>2026-05-12T09:12:33.000Z</time>
      </trkpt>
      <trkpt lat="45.27423" lon="4.60753">
        <ele>727.20001220703</ele>
        <time>2026-05-12T09:12:34.000Z</time>
      </trkpt>
      <trkpt lat="45.27423" lon="4.60751">
        <ele>727.20001220703</ele>
        <time>2026-05-12T09:12:35.000Z</time>
      </trkpt>
      <trkpt lat="45.27422" lon="4.60748">
        <ele>727.40002441406</ele>
        <time>2026-05-12T09:12:36.000Z</time>
      </trkpt>
      <trkpt lat="45.27422" lon="4.60745">
        <ele>727.40002441406</ele>
        <time>2026-05-12T09:12:37.000Z</time>
      </trkpt>
      <trkpt lat="45.27421" lon="4.60742">
        <ele>727.59997558594</ele>
        <time>2026-05-12T09:12:38.000Z</time>
      </trkpt>
      <trkpt lat="45.27421" lon="4.6074">
        <ele>727.59997558594</ele>
        <time>2026-05-12T09:12:39.000Z</time>
      </trkpt>
      <trkpt lat="45.27421" lon="4.60738">
        <ele>727.79998779297</ele>
        <time>2026-05-12T09:12:40.000Z</time>
      </trkpt>
      <trkpt lat="45.2742" lon="4.60736">
        <ele>727.79998779297</ele>
        <time>2026-05-12T09:12:41.000Z</time>
      </trkpt>
      <trkpt lat="45.2742" lon="4.60734">
        <ele>728</ele>
        <time>2026-05-12T09:12:42.000Z</time>
      </trkpt>
      <trkpt lat="45.27419" lon="4.60731">
        <ele>728</ele>
        <time>2026-05-12T09:12:43.000Z</time>
      </trkpt>
      <trkpt lat="45.27419" lon="4.60729">
        <ele>728.20001220703</ele>
        <time>2026-05-12T09:12:44.000Z</time>
      </trkpt>
      <trkpt lat="45.27418" lon="4.60726">
        <ele>728.20001220703</ele>
        <time>2026-05-12T09:12:45.000Z</time>
      </trkpt>
      <trkpt lat="45.27418" lon="4.60723">
        <ele>728.40002441406</ele>
        <time>2026-05-12T09:12:46.000Z</time>
      </trkpt>
      <trkpt lat="45.27417" lon="4.60721">
        <ele>728.59997558594</ele>
        <time>2026-05-12T09:12:47.000Z</time>
      </trkpt>
      <trkpt lat="45.27417" lon="4.60718">
        <ele>728.79998779297</ele>
        <time>2026-05-12T09:12:48.000Z</time>
      </trkpt>
      <trkpt lat="45.27417" lon="4.60716">
        <ele>729</ele>
        <time>2026-05-12T09:12:49.000Z</time>
      </trkpt>
      <trkpt lat="45.27417" lon="4.60713">
        <ele>729.20001220703</ele>
        <time>2026-05-12T09:12:50.000Z</time>
      </trkpt>
      <trkpt lat="45.27417" lon="4.6071">
        <ele>729.40002441406</ele>
        <time>2026-05-12T09:12:51.000Z</time>
      </trkpt>
      <trkpt lat="45.27417" lon="4.60708">
        <ele>729.79998779297</ele>
        <time>2026-05-12T09:12:52.000Z</time>
      </trkpt>
      <trkpt lat="45.27418" lon="4.60705">
        <ele>730</ele>
        <time>2026-05-12T09:12:53.000Z</time>
      </trkpt>
      <trkpt lat="45.27418" lon="4.60703">
        <ele>730.20001220703</ele>
        <time>2026-05-12T09:12:54.000Z</time>
      </trkpt>
      <trkpt lat="45.27418" lon="4.60701">
        <ele>730.40002441406</ele>
        <time>2026-05-12T09:12:55.000Z</time>
      </trkpt>
      <trkpt lat="45.27418" lon="4.60699">
        <ele>730.59997558594</ele>
        <time>2026-05-12T09:12:56.000Z</time>
      </trkpt>
      <trkpt lat="45.27419" lon="4.60695">
        <ele>731</ele>
        <time>2026-05-12T09:12:57.000Z</time>
      </trkpt>
      <trkpt lat="45.27419" lon="4.60692">
        <ele>731.20001220703</ele>
        <time>2026-05-12T09:12:58.000Z</time>
      </trkpt>
      <trkpt lat="45.27419" lon="4.60689">
        <ele>731.40002441406</ele>
        <time>2026-05-12T09:12:59.000Z</time>
      </trkpt>
      <trkpt lat="45.2742" lon="4.60686">
        <ele>731.79998779297</ele>
        <time>2026-05-12T09:13:00.000Z</time>
      </trkpt>
      <trkpt lat="45.2742" lon="4.60684">
        <ele>732</ele>
        <time>2026-05-12T09:13:01.000Z</time>
      </trkpt>
      <trkpt lat="45.2742" lon="4.60681">
        <ele>732.20001220703</ele>
        <time>2026-05-12T09:13:02.000Z</time>
      </trkpt>
      <trkpt lat="45.2742" lon="4.60679">
        <ele>732.59997558594</ele>
        <time>2026-05-12T09:13:03.000Z</time>
      </trkpt>
      <trkpt lat="45.27421" lon="4.60676">
        <ele>733</ele>
        <time>2026-05-12T09:13:04.000Z</time>
      </trkpt>
      <trkpt lat="45.27421" lon="4.60674">
        <ele>733.40002441406</ele>
        <time>2026-05-12T09:13:05.000Z</time>
      </trkpt>
      <trkpt lat="45.27421" lon="4.60671">
        <ele>733.79998779297</ele>
        <time>2026-05-12T09:13:06.000Z</time>
      </trkpt>
      <trkpt lat="45.27421" lon="4.60669">
        <ele>734.20001220703</ele>
        <time>2026-05-12T09:13:07.000Z</time>
      </trkpt>
      <trkpt lat="45.27421" lon="4.60667">
        <ele>734.59997558594</ele>
        <time>2026-05-12T09:13:08.000Z</time>
      </trkpt>
      <trkpt lat="45.27421" lon="4.60665">
        <ele>735</ele>
        <time>2026-05-12T09:13:09.000Z</time>
      </trkpt>
      <trkpt lat="45.27421" lon="4.60663">
        <ele>735.40002441406</ele>
        <time>2026-05-12T09:13:10.000Z</time>
      </trkpt>
      <trkpt lat="45.27421" lon="4.60661">
        <ele>735.79998779297</ele>
        <time>2026-05-12T09:13:11.000Z</time>
      </trkpt>
      <trkpt lat="45.27421" lon="4.60659">
        <ele>736.20001220703</ele>
        <time>2026-05-12T09:13:12.000Z</time>
      </trkpt>
      <trkpt lat="45.27421" lon="4.60657">
        <ele>736.40002441406</ele>
        <time>2026-05-12T09:13:13.000Z</time>
      </trkpt>
      <trkpt lat="45.27421" lon="4.60655">
        <ele>736.59997558594</ele>
        <time>2026-05-12T09:13:14.000Z</time>
      </trkpt>
      <trkpt lat="45.27421" lon="4.60653">
        <ele>736.79998779297</ele>
        <time>2026-05-12T09:13:15.000Z</time>
      </trkpt>
      <trkpt lat="45.27421" lon="4.60651">
        <ele>737</ele>
        <time>2026-05-12T09:13:16.000Z</time>
      </trkpt>
      <trkpt lat="45.27421" lon="4.60649">
        <ele>737.20001220703</ele>
        <time>2026-05-12T09:13:17.000Z</time>
      </trkpt>
      <trkpt lat="45.27421" lon="4.60647">
        <ele>737.40002441406</ele>
        <time>2026-05-12T09:13:18.000Z</time>
      </trkpt>
      <trkpt lat="45.27421" lon="4.60644">
        <ele>737.59997558594</ele>
        <time>2026-05-12T09:13:19.000Z</time>
      </trkpt>
      <trkpt lat="45.27422" lon="4.60642">
        <ele>737.79998779297</ele>
        <time>2026-05-12T09:13:20.000Z</time>
      </trkpt>
      <trkpt lat="45.27421" lon="4.6064">
        <ele>738</ele>
        <time>2026-05-12T09:13:21.000Z</time>
      </trkpt>
      <trkpt lat="45.27421" lon="4.60638">
        <ele>738.20001220703</ele>
        <time>2026-05-12T09:13:22.000Z</time>
      </trkpt>
      <trkpt lat="45.27421" lon="4.60636">
        <ele>738.40002441406</ele>
        <time>2026-05-12T09:13:23.000Z</time>
      </trkpt>
      <trkpt lat="45.27422" lon="4.60633">
        <ele>738.59997558594</ele>
        <time>2026-05-12T09:13:24.000Z</time>
      </trkpt>
      <trkpt lat="45.27422" lon="4.60631">
        <ele>738.59997558594</ele>
        <time>2026-05-12T09:13:25.000Z</time>
      </trkpt>
      <trkpt lat="45.27422" lon="4.60629">
        <ele>738.79998779297</ele>
        <time>2026-05-12T09:13:26.000Z</time>
      </trkpt>
      <trkpt lat="45.27422" lon="4.60627">
        <ele>739</ele>
        <time>2026-05-12T09:13:27.000Z</time>
      </trkpt>
      <trkpt lat="45.27422" lon="4.60625">
        <ele>739.20001220703</ele>
        <time>2026-05-12T09:13:28.000Z</time>
      </trkpt>
      <trkpt lat="45.27423" lon="4.60624">
        <ele>739.20001220703</ele>
        <time>2026-05-12T09:13:29.000Z</time>
      </trkpt>
      <trkpt lat="45.27423" lon="4.60622">
        <ele>739.40002441406</ele>
        <time>2026-05-12T09:13:30.000Z</time>
      </trkpt>
      <trkpt lat="45.27423" lon="4.6062">
        <ele>739.40002441406</ele>
        <time>2026-05-12T09:13:31.000Z</time>
      </trkpt>
      <trkpt lat="45.27423" lon="4.60618">
        <ele>739.59997558594</ele>
        <time>2026-05-12T09:13:32.000Z</time>
      </trkpt>
      <trkpt lat="45.27423" lon="4.60616">
        <ele>739.79998779297</ele>
        <time>2026-05-12T09:13:33.000Z</time>
      </trkpt>
      <trkpt lat="45.27424" lon="4.60614">
        <ele>740</ele>
        <time>2026-05-12T09:13:34.000Z</time>
      </trkpt>
      <trkpt lat="45.27424" lon="4.60613">
        <ele>740.20001220703</ele>
        <time>2026-05-12T09:13:35.000Z</time>
      </trkpt>
      <trkpt lat="45.27424" lon="4.60611">
        <ele>740.20001220703</ele>
        <time>2026-05-12T09:13:36.000Z</time>
      </trkpt>
      <trkpt lat="45.27424" lon="4.6061">
        <ele>740.40002441406</ele>
        <time>2026-05-12T09:13:37.000Z</time>
      </trkpt>
      <trkpt lat="45.27423" lon="4.60608">
        <ele>740.59997558594</ele>
        <time>2026-05-12T09:13:38.000Z</time>
      </trkpt>
      <trkpt lat="45.27423" lon="4.60607">
        <ele>740.79998779297</ele>
        <time>2026-05-12T09:13:39.000Z</time>
      </trkpt>
      <trkpt lat="45.27423" lon="4.60606">
        <ele>740.79998779297</ele>
        <time>2026-05-12T09:13:40.000Z</time>
      </trkpt>
      <trkpt lat="45.27423" lon="4.60604">
        <ele>741</ele>
        <time>2026-05-12T09:13:41.000Z</time>
      </trkpt>
      <trkpt lat="45.27423" lon="4.60603">
        <ele>741.20001220703</ele>
        <time>2026-05-12T09:13:42.000Z</time>
      </trkpt>
      <trkpt lat="45.27422" lon="4.60596">
        <ele>741.79998779297</ele>
        <time>2026-05-12T09:13:46.000Z</time>
      </trkpt>
      <trkpt lat="45.27422" lon="4.60594">
        <ele>742</ele>
        <time>2026-05-12T09:13:47.000Z</time>
      </trkpt>
      <trkpt lat="45.27421" lon="4.60592">
        <ele>742</ele>
        <time>2026-05-12T09:13:48.000Z</time>
      </trkpt>
      <trkpt lat="45.27421" lon="4.60591">
        <ele>742.20001220703</ele>
        <time>2026-05-12T09:13:49.000Z</time>
      </trkpt>
      <trkpt lat="45.2742" lon="4.60589">
        <ele>742.40002441406</ele>
        <time>2026-05-12T09:13:50.000Z</time>
      </trkpt>
      <trkpt lat="45.2742" lon="4.60588">
        <ele>742.59997558594</ele>
        <time>2026-05-12T09:13:51.000Z</time>
      </trkpt>
      <trkpt lat="45.2742" lon="4.60586">
        <ele>742.59997558594</ele>
        <time>2026-05-12T09:13:52.000Z</time>
      </trkpt>
      <trkpt lat="45.27419" lon="4.60584">
        <ele>742.79998779297</ele>
        <time>2026-05-12T09:13:53.000Z</time>
      </trkpt>
      <trkpt lat="45.27419" lon="4.60582">
        <ele>743</ele>
        <time>2026-05-12T09:13:54.000Z</time>
      </trkpt>
      <trkpt lat="45.27418" lon="4.6058">
        <ele>743.20001220703</ele>
        <time>2026-05-12T09:13:55.000Z</time>
      </trkpt>
      <trkpt lat="45.27418" lon="4.60578">
        <ele>743.40002441406</ele>
        <time>2026-05-12T09:13:56.000Z</time>
      </trkpt>
      <trkpt lat="45.27418" lon="4.60576">
        <ele>743.59997558594</ele>
        <time>2026-05-12T09:13:57.000Z</time>
      </trkpt>
      <trkpt lat="45.27418" lon="4.60575">
        <ele>743.79998779297</ele>
        <time>2026-05-12T09:13:58.000Z</time>
      </trkpt>
      <trkpt lat="45.27417" lon="4.60573">
        <ele>743.79998779297</ele>
        <time>2026-05-12T09:13:59.000Z</time>
      </trkpt>
      <trkpt lat="45.27417" lon="4.60571">
        <ele>744</ele>
        <time>2026-05-12T09:14:00.000Z</time>
      </trkpt>
      <trkpt lat="45.27417" lon="4.6057">
        <ele>744.20001220703</ele>
        <time>2026-05-12T09:14:01.000Z</time>
      </trkpt>
      <trkpt lat="45.27416" lon="4.60568">
        <ele>744.40002441406</ele>
        <time>2026-05-12T09:14:02.000Z</time>
      </trkpt>
      <trkpt lat="45.27416" lon="4.60566">
        <ele>744.59997558594</ele>
        <time>2026-05-12T09:14:03.000Z</time>
      </trkpt>
      <trkpt lat="45.27416" lon="4.60564">
        <ele>744.79998779297</ele>
        <time>2026-05-12T09:14:04.000Z</time>
      </trkpt>
      <trkpt lat="45.27416" lon="4.60563">
        <ele>745</ele>
        <time>2026-05-12T09:14:05.000Z</time>
      </trkpt>
      <trkpt lat="45.27416" lon="4.60561">
        <ele>745.20001220703</ele>
        <time>2026-05-12T09:14:06.000Z</time>
      </trkpt>
      <trkpt lat="45.27416" lon="4.60559">
        <ele>745.40002441406</ele>
        <time>2026-05-12T09:14:07.000Z</time>
      </trkpt>
      <trkpt lat="45.27415" lon="4.60557">
        <ele>745.40002441406</ele>
        <time>2026-05-12T09:14:08.000Z</time>
      </trkpt>
      <trkpt lat="45.27415" lon="4.60555">
        <ele>745.59997558594</ele>
        <time>2026-05-12T09:14:09.000Z</time>
      </trkpt>
      <trkpt lat="45.27415" lon="4.60553">
        <ele>745.79998779297</ele>
        <time>2026-05-12T09:14:10.000Z</time>
      </trkpt>
      <trkpt lat="45.27415" lon="4.60551">
        <ele>746</ele>
        <time>2026-05-12T09:14:11.000Z</time>
      </trkpt>
      <trkpt lat="45.27414" lon="4.6055">
        <ele>746.40002441406</ele>
        <time>2026-05-12T09:14:12.000Z</time>
      </trkpt>
      <trkpt lat="45.27414" lon="4.60548">
        <ele>746.59997558594</ele>
        <time>2026-05-12T09:14:13.000Z</time>
      </trkpt>
      <trkpt lat="45.27414" lon="4.60546">
        <ele>746.79998779297</ele>
        <time>2026-05-12T09:14:14.000Z</time>
      </trkpt>
      <trkpt lat="45.27413" lon="4.60543">
        <ele>747</ele>
        <time>2026-05-12T09:14:15.000Z</time>
      </trkpt>
      <trkpt lat="45.27413" lon="4.60541">
        <ele>747.20001220703</ele>
        <time>2026-05-12T09:14:16.000Z</time>
      </trkpt>
      <trkpt lat="45.27412" lon="4.60539">
        <ele>747.40002441406</ele>
        <time>2026-05-12T09:14:17.000Z</time>
      </trkpt>
      <trkpt lat="45.27412" lon="4.60537">
        <ele>747.59997558594</ele>
        <time>2026-05-12T09:14:18.000Z</time>
      </trkpt>
      <trkpt lat="45.27411" lon="4.60535">
        <ele>747.59997558594</ele>
        <time>2026-05-12T09:14:19.000Z</time>
      </trkpt>
      <trkpt lat="45.27412" lon="4.60533">
        <ele>747.79998779297</ele>
        <time>2026-05-12T09:14:20.000Z</time>
      </trkpt>
      <trkpt lat="45.27412" lon="4.60531">
        <ele>748</ele>
        <time>2026-05-12T09:14:21.000Z</time>
      </trkpt>
      <trkpt lat="45.27412" lon="4.60529">
        <ele>748.20001220703</ele>
        <time>2026-05-12T09:14:22.000Z</time>
      </trkpt>
      <trkpt lat="45.27411" lon="4.60527">
        <ele>748.40002441406</ele>
        <time>2026-05-12T09:14:23.000Z</time>
      </trkpt>
      <trkpt lat="45.2741" lon="4.60524">
        <ele>748.40002441406</ele>
        <time>2026-05-12T09:14:24.000Z</time>
      </trkpt>
      <trkpt lat="45.2741" lon="4.60522">
        <ele>748.59997558594</ele>
        <time>2026-05-12T09:14:25.000Z</time>
      </trkpt>
      <trkpt lat="45.27409" lon="4.6052">
        <ele>748.79998779297</ele>
        <time>2026-05-12T09:14:26.000Z</time>
      </trkpt>
      <trkpt lat="45.27409" lon="4.60519">
        <ele>749</ele>
        <time>2026-05-12T09:14:27.000Z</time>
      </trkpt>
      <trkpt lat="45.27409" lon="4.60518">
        <ele>749.20001220703</ele>
        <time>2026-05-12T09:14:28.000Z</time>
      </trkpt>
      <trkpt lat="45.27409" lon="4.60517">
        <ele>749.40002441406</ele>
        <time>2026-05-12T09:14:29.000Z</time>
      </trkpt>
      <trkpt lat="45.27408" lon="4.60516">
        <ele>749.59997558594</ele>
        <time>2026-05-12T09:14:30.000Z</time>
      </trkpt>
      <trkpt lat="45.27408" lon="4.60514">
        <ele>749.79998779297</ele>
        <time>2026-05-12T09:14:31.000Z</time>
      </trkpt>
      <trkpt lat="45.27408" lon="4.60513">
        <ele>750</ele>
        <time>2026-05-12T09:14:32.000Z</time>
      </trkpt>
      <trkpt lat="45.27408" lon="4.60511">
        <ele>750.20001220703</ele>
        <time>2026-05-12T09:14:33.000Z</time>
      </trkpt>
      <trkpt lat="45.27407" lon="4.60509">
        <ele>750.40002441406</ele>
        <time>2026-05-12T09:14:34.000Z</time>
      </trkpt>
      <trkpt lat="45.27407" lon="4.60508">
        <ele>750.59997558594</ele>
        <time>2026-05-12T09:14:35.000Z</time>
      </trkpt>
      <trkpt lat="45.27405" lon="4.60507">
        <ele>750.79998779297</ele>
        <time>2026-05-12T09:14:36.000Z</time>
      </trkpt>
      <trkpt lat="45.27404" lon="4.60505">
        <ele>751</ele>
        <time>2026-05-12T09:14:37.000Z</time>
      </trkpt>
      <trkpt lat="45.27402" lon="4.60504">
        <ele>751.40002441406</ele>
        <time>2026-05-12T09:14:38.000Z</time>
      </trkpt>
      <trkpt lat="45.27401" lon="4.60503">
        <ele>751.59997558594</ele>
        <time>2026-05-12T09:14:39.000Z</time>
      </trkpt>
      <trkpt lat="45.274" lon="4.60502">
        <ele>752</ele>
        <time>2026-05-12T09:14:40.000Z</time>
      </trkpt>
      <trkpt lat="45.27399" lon="4.60502">
        <ele>752.40002441406</ele>
        <time>2026-05-12T09:14:41.000Z</time>
      </trkpt>
      <trkpt lat="45.27398" lon="4.60503">
        <ele>752.59997558594</ele>
        <time>2026-05-12T09:14:42.000Z</time>
      </trkpt>
      <trkpt lat="45.27397" lon="4.60504">
        <ele>753</ele>
        <time>2026-05-12T09:14:43.000Z</time>
      </trkpt>
      <trkpt lat="45.27396" lon="4.60505">
        <ele>753.20001220703</ele>
        <time>2026-05-12T09:14:44.000Z</time>
      </trkpt>
      <trkpt lat="45.27396" lon="4.60507">
        <ele>753.59997558594</ele>
        <time>2026-05-12T09:14:45.000Z</time>
      </trkpt>
      <trkpt lat="45.27396" lon="4.60508">
        <ele>753.79998779297</ele>
        <time>2026-05-12T09:14:46.000Z</time>
      </trkpt>
      <trkpt lat="45.27395" lon="4.60509">
        <ele>754</ele>
        <time>2026-05-12T09:14:47.000Z</time>
      </trkpt>
      <trkpt lat="45.27395" lon="4.60511">
        <ele>754.20001220703</ele>
        <time>2026-05-12T09:14:48.000Z</time>
      </trkpt>
      <trkpt lat="45.27394" lon="4.60512">
        <ele>754.40002441406</ele>
        <time>2026-05-12T09:14:49.000Z</time>
      </trkpt>
      <trkpt lat="45.27393" lon="4.60513">
        <ele>754.59997558594</ele>
        <time>2026-05-12T09:14:50.000Z</time>
      </trkpt>
      <trkpt lat="45.27392" lon="4.60514">
        <ele>754.59997558594</ele>
        <time>2026-05-12T09:14:51.000Z</time>
      </trkpt>
      <trkpt lat="45.27392" lon="4.60515">
        <ele>754.79998779297</ele>
        <time>2026-05-12T09:14:52.000Z</time>
      </trkpt>
      <trkpt lat="45.27392" lon="4.60516">
        <ele>755</ele>
        <time>2026-05-12T09:14:53.000Z</time>
      </trkpt>
      <trkpt lat="45.27392" lon="4.60517">
        <ele>755.20001220703</ele>
        <time>2026-05-12T09:14:54.000Z</time>
      </trkpt>
      <trkpt lat="45.27391" lon="4.60518">
        <ele>755.40002441406</ele>
        <time>2026-05-12T09:14:55.000Z</time>
      </trkpt>
      <trkpt lat="45.2739" lon="4.60519">
        <ele>755.40002441406</ele>
        <time>2026-05-12T09:14:56.000Z</time>
      </trkpt>
      <trkpt lat="45.27389" lon="4.6052">
        <ele>755.59997558594</ele>
        <time>2026-05-12T09:14:57.000Z</time>
      </trkpt>
      <trkpt lat="45.27375" lon="4.60546">
        <ele>758.20001220703</ele>
        <time>2026-05-12T09:15:16.000Z</time>
      </trkpt>
      <trkpt lat="45.27374" lon="4.60547">
        <ele>758.40002441406</ele>
        <time>2026-05-12T09:15:17.000Z</time>
      </trkpt>
      <trkpt lat="45.27372" lon="4.60548">
        <ele>758.59997558594</ele>
        <time>2026-05-12T09:15:18.000Z</time>
      </trkpt>
      <trkpt lat="45.27371" lon="4.60548">
        <ele>758.59997558594</ele>
        <time>2026-05-12T09:15:19.000Z</time>
      </trkpt>
      <trkpt lat="45.2737" lon="4.60547">
        <ele>758.79998779297</ele>
        <time>2026-05-12T09:15:20.000Z</time>
      </trkpt>
      <trkpt lat="45.27369" lon="4.60546">
        <ele>758.79998779297</ele>
        <time>2026-05-12T09:15:21.000Z</time>
      </trkpt>
      <trkpt lat="45.27368" lon="4.60545">
        <ele>759</ele>
        <time>2026-05-12T09:15:22.000Z</time>
      </trkpt>
      <trkpt lat="45.27367" lon="4.60544">
        <ele>759</ele>
        <time>2026-05-12T09:15:23.000Z</time>
      </trkpt>
      <trkpt lat="45.27366" lon="4.60543">
        <ele>759.20001220703</ele>
        <time>2026-05-12T09:15:24.000Z</time>
      </trkpt>
      <trkpt lat="45.27364" lon="4.60542">
        <ele>759.40002441406</ele>
        <time>2026-05-12T09:15:25.000Z</time>
      </trkpt>
      <trkpt lat="45.27363" lon="4.60541">
        <ele>759.40002441406</ele>
        <time>2026-05-12T09:15:26.000Z</time>
      </trkpt>
      <trkpt lat="45.27362" lon="4.60539">
        <ele>759.59997558594</ele>
        <time>2026-05-12T09:15:27.000Z</time>
      </trkpt>
      <trkpt lat="45.27361" lon="4.60538">
        <ele>759.79998779297</ele>
        <time>2026-05-12T09:15:28.000Z</time>
      </trkpt>
      <trkpt lat="45.27361" lon="4.60536">
        <ele>760</ele>
        <time>2026-05-12T09:15:29.000Z</time>
      </trkpt>
      <trkpt lat="45.27361" lon="4.60534">
        <ele>760.20001220703</ele>
        <time>2026-05-12T09:15:30.000Z</time>
      </trkpt>
      <trkpt lat="45.2736" lon="4.60532">
        <ele>760.40002441406</ele>
        <time>2026-05-12T09:15:31.000Z</time>
      </trkpt>
      <trkpt lat="45.2736" lon="4.60531">
        <ele>760.59997558594</ele>
        <time>2026-05-12T09:15:32.000Z</time>
      </trkpt>
      <trkpt lat="45.2736" lon="4.60529">
        <ele>760.79998779297</ele>
        <time>2026-05-12T09:15:33.000Z</time>
      </trkpt>
      <trkpt lat="45.2736" lon="4.60527">
        <ele>761</ele>
        <time>2026-05-12T09:15:34.000Z</time>
      </trkpt>
      <trkpt lat="45.27359" lon="4.60525">
        <ele>761.20001220703</ele>
        <time>2026-05-12T09:15:35.000Z</time>
      </trkpt>
      <trkpt lat="45.27359" lon="4.60523">
        <ele>761.40002441406</ele>
        <time>2026-05-12T09:15:36.000Z</time>
      </trkpt>
      <trkpt lat="45.27359" lon="4.60521">
        <ele>761.59997558594</ele>
        <time>2026-05-12T09:15:37.000Z</time>
      </trkpt>
      <trkpt lat="45.27359" lon="4.6052">
        <ele>761.79998779297</ele>
        <time>2026-05-12T09:15:38.000Z</time>
      </trkpt>
      <trkpt lat="45.27358" lon="4.60518">
        <ele>762</ele>
        <time>2026-05-12T09:15:39.000Z</time>
      </trkpt>
      <trkpt lat="45.27358" lon="4.60516">
        <ele>762.20001220703</ele>
        <time>2026-05-12T09:15:40.000Z</time>
      </trkpt>
      <trkpt lat="45.27357" lon="4.60514">
        <ele>762.40002441406</ele>
        <time>2026-05-12T09:15:41.000Z</time>
      </trkpt>
      <trkpt lat="45.27357" lon="4.60512">
        <ele>762.59997558594</ele>
        <time>2026-05-12T09:15:42.000Z</time>
      </trkpt>
      <trkpt lat="45.27356" lon="4.6051">
        <ele>762.79998779297</ele>
        <time>2026-05-12T09:15:43.000Z</time>
      </trkpt>
      <trkpt lat="45.27356" lon="4.60508">
        <ele>763</ele>
        <time>2026-05-12T09:15:44.000Z</time>
      </trkpt>
      <trkpt lat="45.27355" lon="4.60507">
        <ele>763.20001220703</ele>
        <time>2026-05-12T09:15:45.000Z</time>
      </trkpt>
      <trkpt lat="45.27355" lon="4.60505">
        <ele>763.59997558594</ele>
        <time>2026-05-12T09:15:46.000Z</time>
      </trkpt>
      <trkpt lat="45.27354" lon="4.60503">
        <ele>763.59997558594</ele>
        <time>2026-05-12T09:15:47.000Z</time>
      </trkpt>
      <trkpt lat="45.27354" lon="4.60501">
        <ele>763.79998779297</ele>
        <time>2026-05-12T09:15:48.000Z</time>
      </trkpt>
      <trkpt lat="45.27353" lon="4.60499">
        <ele>764</ele>
        <time>2026-05-12T09:15:49.000Z</time>
      </trkpt>
      <trkpt lat="45.27353" lon="4.60497">
        <ele>764.20001220703</ele>
        <time>2026-05-12T09:15:50.000Z</time>
      </trkpt>
      <trkpt lat="45.27352" lon="4.60495">
        <ele>764.40002441406</ele>
        <time>2026-05-12T09:15:51.000Z</time>
      </trkpt>
      <trkpt lat="45.27352" lon="4.60493">
        <ele>764.59997558594</ele>
        <time>2026-05-12T09:15:52.000Z</time>
      </trkpt>
      <trkpt lat="45.27351" lon="4.60492">
        <ele>764.79998779297</ele>
        <time>2026-05-12T09:15:53.000Z</time>
      </trkpt>
      <trkpt lat="45.27351" lon="4.6049">
        <ele>765</ele>
        <time>2026-05-12T09:15:54.000Z</time>
      </trkpt>
      <trkpt lat="45.2735" lon="4.60488">
        <ele>765</ele>
        <time>2026-05-12T09:15:55.000Z</time>
      </trkpt>
      <trkpt lat="45.2735" lon="4.60486">
        <ele>765.20001220703</ele>
        <time>2026-05-12T09:15:56.000Z</time>
      </trkpt>
      <trkpt lat="45.2735" lon="4.60485">
        <ele>765.20001220703</ele>
        <time>2026-05-12T09:15:57.000Z</time>
      </trkpt>
      <trkpt lat="45.27349" lon="4.60483">
        <ele>765.40002441406</ele>
        <time>2026-05-12T09:15:58.000Z</time>
      </trkpt>
      <trkpt lat="45.27348" lon="4.60481">
        <ele>765.59997558594</ele>
        <time>2026-05-12T09:15:59.000Z</time>
      </trkpt>
      <trkpt lat="45.27348" lon="4.60479">
        <ele>765.59997558594</ele>
        <time>2026-05-12T09:16:00.000Z</time>
      </trkpt>
      <trkpt lat="45.27347" lon="4.60477">
        <ele>765.79998779297</ele>
        <time>2026-05-12T09:16:01.000Z</time>
      </trkpt>
      <trkpt lat="45.27347" lon="4.60475">
        <ele>766</ele>
        <time>2026-05-12T09:16:02.000Z</time>
      </trkpt>
      <trkpt lat="45.27347" lon="4.60473">
        <ele>766</ele>
        <time>2026-05-12T09:16:03.000Z</time>
      </trkpt>
      <trkpt lat="45.27346" lon="4.60471">
        <ele>766.20001220703</ele>
        <time>2026-05-12T09:16:04.000Z</time>
      </trkpt>
      <trkpt lat="45.27346" lon="4.60469">
        <ele>766.20001220703</ele>
        <time>2026-05-12T09:16:05.000Z</time>
      </trkpt>
      <trkpt lat="45.27345" lon="4.60468">
        <ele>766.40002441406</ele>
        <time>2026-05-12T09:16:06.000Z</time>
      </trkpt>
      <trkpt lat="45.27345" lon="4.60466">
        <ele>766.59997558594</ele>
        <time>2026-05-12T09:16:07.000Z</time>
      </trkpt>
      <trkpt lat="45.27345" lon="4.60464">
        <ele>766.59997558594</ele>
        <time>2026-05-12T09:16:08.000Z</time>
      </trkpt>
      <trkpt lat="45.27344" lon="4.60462">
        <ele>766.79998779297</ele>
        <time>2026-05-12T09:16:09.000Z</time>
      </trkpt>
      <trkpt lat="45.27344" lon="4.6046">
        <ele>767</ele>
        <time>2026-05-12T09:16:10.000Z</time>
      </trkpt>
      <trkpt lat="45.27343" lon="4.60458">
        <ele>767</ele>
        <time>2026-05-12T09:16:11.000Z</time>
      </trkpt>
      <trkpt lat="45.27343" lon="4.60456">
        <ele>767.20001220703</ele>
        <time>2026-05-12T09:16:12.000Z</time>
      </trkpt>
      <trkpt lat="45.27343" lon="4.60455">
        <ele>767.20001220703</ele>
        <time>2026-05-12T09:16:13.000Z</time>
      </trkpt>
      <trkpt lat="45.27342" lon="4.60453">
        <ele>767.40002441406</ele>
        <time>2026-05-12T09:16:14.000Z</time>
      </trkpt>
      <trkpt lat="45.27342" lon="4.60451">
        <ele>767.40002441406</ele>
        <time>2026-05-12T09:16:15.000Z</time>
      </trkpt>
      <trkpt lat="45.27342" lon="4.60449">
        <ele>767.40002441406</ele>
        <time>2026-05-12T09:16:16.000Z</time>
      </trkpt>
      <trkpt lat="45.27342" lon="4.60448">
        <ele>767.59997558594</ele>
        <time>2026-05-12T09:16:17.000Z</time>
      </trkpt>
      <trkpt lat="45.27341" lon="4.60446">
        <ele>767.79998779297</ele>
        <time>2026-05-12T09:16:18.000Z</time>
      </trkpt>
      <trkpt lat="45.27341" lon="4.60445">
        <ele>768</ele>
        <time>2026-05-12T09:16:19.000Z</time>
      </trkpt>
      <trkpt lat="45.2734" lon="4.60444">
        <ele>768</ele>
        <time>2026-05-12T09:16:20.000Z</time>
      </trkpt>
      <trkpt lat="45.27341" lon="4.60443">
        <ele>768.20001220703</ele>
        <time>2026-05-12T09:16:21.000Z</time>
      </trkpt>
      <trkpt lat="45.2734" lon="4.60441">
        <ele>768.40002441406</ele>
        <time>2026-05-12T09:16:22.000Z</time>
      </trkpt>
      <trkpt lat="45.2734" lon="4.60439">
        <ele>768.59997558594</ele>
        <time>2026-05-12T09:16:23.000Z</time>
      </trkpt>
      <trkpt lat="45.2734" lon="4.60437">
        <ele>768.59997558594</ele>
        <time>2026-05-12T09:16:24.000Z</time>
      </trkpt>
      <trkpt lat="45.27339" lon="4.60435">
        <ele>768.79998779297</ele>
        <time>2026-05-12T09:16:25.000Z</time>
      </trkpt>
      <trkpt lat="45.27339" lon="4.60434">
        <ele>769</ele>
        <time>2026-05-12T09:16:26.000Z</time>
      </trkpt>
      <trkpt lat="45.27338" lon="4.60432">
        <ele>769.20001220703</ele>
        <time>2026-05-12T09:16:27.000Z</time>
      </trkpt>
      <trkpt lat="45.27337" lon="4.6043">
        <ele>769.40002441406</ele>
        <time>2026-05-12T09:16:28.000Z</time>
      </trkpt>
      <trkpt lat="45.27336" lon="4.60429">
        <ele>769.59997558594</ele>
        <time>2026-05-12T09:16:29.000Z</time>
      </trkpt>
      <trkpt lat="45.27335" lon="4.60428">
        <ele>769.79998779297</ele>
        <time>2026-05-12T09:16:30.000Z</time>
      </trkpt>
      <trkpt lat="45.27334" lon="4.60427">
        <ele>770</ele>
        <time>2026-05-12T09:16:31.000Z</time>
      </trkpt>
      <trkpt lat="45.27333" lon="4.60426">
        <ele>770.20001220703</ele>
        <time>2026-05-12T09:16:32.000Z</time>
      </trkpt>
      <trkpt lat="45.27331" lon="4.60425">
        <ele>770.40002441406</ele>
        <time>2026-05-12T09:16:33.000Z</time>
      </trkpt>
      <trkpt lat="45.2733" lon="4.60425">
        <ele>770.59997558594</ele>
        <time>2026-05-12T09:16:34.000Z</time>
      </trkpt>
      <trkpt lat="45.27329" lon="4.60426">
        <ele>770.79998779297</ele>
        <time>2026-05-12T09:16:35.000Z</time>
      </trkpt>
      <trkpt lat="45.27328" lon="4.60426">
        <ele>771</ele>
        <time>2026-05-12T09:16:36.000Z</time>
      </trkpt>
      <trkpt lat="45.27328" lon="4.60426">
        <ele>771.20001220703</ele>
        <time>2026-05-12T09:16:37.000Z</time>
      </trkpt>
      <trkpt lat="45.27283" lon="4.60468">
        <ele>780</ele>
        <time>2026-05-12T09:17:19.000Z</time>
      </trkpt>
      <trkpt lat="45.27282" lon="4.60469">
        <ele>780.20001220703</ele>
        <time>2026-05-12T09:17:20.000Z</time>
      </trkpt>
      <trkpt lat="45.2728" lon="4.6047">
        <ele>780.40002441406</ele>
        <time>2026-05-12T09:17:21.000Z</time>
      </trkpt>
      <trkpt lat="45.27279" lon="4.60471">
        <ele>780.59997558594</ele>
        <time>2026-05-12T09:17:22.000Z</time>
      </trkpt>
      <trkpt lat="45.27277" lon="4.60472">
        <ele>780.79998779297</ele>
        <time>2026-05-12T09:17:23.000Z</time>
      </trkpt>
      <trkpt lat="45.27276" lon="4.60472">
        <ele>781.20001220703</ele>
        <time>2026-05-12T09:17:24.000Z</time>
      </trkpt>
      <trkpt lat="45.27275" lon="4.60473">
        <ele>781.40002441406</ele>
        <time>2026-05-12T09:17:25.000Z</time>
      </trkpt>
      <trkpt lat="45.27273" lon="4.60474">
        <ele>781.59997558594</ele>
        <time>2026-05-12T09:17:26.000Z</time>
      </trkpt>
      <trkpt lat="45.27272" lon="4.60474">
        <ele>781.79998779297</ele>
        <time>2026-05-12T09:17:27.000Z</time>
      </trkpt>
      <trkpt lat="45.27271" lon="4.60475">
        <ele>782.20001220703</ele>
        <time>2026-05-12T09:17:28.000Z</time>
      </trkpt>
      <trkpt lat="45.27269" lon="4.60475">
        <ele>782.40002441406</ele>
        <time>2026-05-12T09:17:29.000Z</time>
      </trkpt>
      <trkpt lat="45.27268" lon="4.60475">
        <ele>782.59997558594</ele>
        <time>2026-05-12T09:17:30.000Z</time>
      </trkpt>
      <trkpt lat="45.27267" lon="4.60476">
        <ele>783</ele>
        <time>2026-05-12T09:17:31.000Z</time>
      </trkpt>
      <trkpt lat="45.27265" lon="4.60476">
        <ele>783.20001220703</ele>
        <time>2026-05-12T09:17:32.000Z</time>
      </trkpt>
      <trkpt lat="45.27264" lon="4.60477">
        <ele>783.59997558594</ele>
        <time>2026-05-12T09:17:33.000Z</time>
      </trkpt>
      <trkpt lat="45.27263" lon="4.60477">
        <ele>783.79998779297</ele>
        <time>2026-05-12T09:17:34.000Z</time>
      </trkpt>
      <trkpt lat="45.27261" lon="4.60477">
        <ele>784.20001220703</ele>
        <time>2026-05-12T09:17:35.000Z</time>
      </trkpt>
      <trkpt lat="45.2726" lon="4.60478">
        <ele>784.59997558594</ele>
        <time>2026-05-12T09:17:36.000Z</time>
      </trkpt>
      <trkpt lat="45.27258" lon="4.60479">
        <ele>785</ele>
        <time>2026-05-12T09:17:37.000Z</time>
      </trkpt>
      <trkpt lat="45.27257" lon="4.60479">
        <ele>785.40002441406</ele>
        <time>2026-05-12T09:17:38.000Z</time>
      </trkpt>
      <trkpt lat="45.27256" lon="4.60479">
        <ele>785.79998779297</ele>
        <time>2026-05-12T09:17:39.000Z</time>
      </trkpt>
      <trkpt lat="45.27255" lon="4.60479">
        <ele>786.20001220703</ele>
        <time>2026-05-12T09:17:40.000Z</time>
      </trkpt>
      <trkpt lat="45.27254" lon="4.6048">
        <ele>786.40002441406</ele>
        <time>2026-05-12T09:17:41.000Z</time>
      </trkpt>
      <trkpt lat="45.27253" lon="4.6048">
        <ele>786.59997558594</ele>
        <time>2026-05-12T09:17:42.000Z</time>
      </trkpt>
      <trkpt lat="45.27252" lon="4.6048">
        <ele>787</ele>
        <time>2026-05-12T09:17:43.000Z</time>
      </trkpt>
      <trkpt lat="45.27251" lon="4.6048">
        <ele>787.20001220703</ele>
        <time>2026-05-12T09:17:44.000Z</time>
      </trkpt>
      <trkpt lat="45.27249" lon="4.6048">
        <ele>787.40002441406</ele>
        <time>2026-05-12T09:17:45.000Z</time>
      </trkpt>
      <trkpt lat="45.27248" lon="4.6048">
        <ele>787.59997558594</ele>
        <time>2026-05-12T09:17:46.000Z</time>
      </trkpt>
      <trkpt lat="45.27247" lon="4.6048">
        <ele>787.79998779297</ele>
        <time>2026-05-12T09:17:47.000Z</time>
      </trkpt>
      <trkpt lat="45.27247" lon="4.6048">
        <ele>788</ele>
        <time>2026-05-12T09:17:48.000Z</time>
      </trkpt>
      <trkpt lat="45.27246" lon="4.6048">
        <ele>788.40002441406</ele>
        <time>2026-05-12T09:17:49.000Z</time>
      </trkpt>
      <trkpt lat="45.27244" lon="4.60481">
        <ele>788.59997558594</ele>
        <time>2026-05-12T09:17:50.000Z</time>
      </trkpt>
      <trkpt lat="45.27243" lon="4.60481">
        <ele>788.79998779297</ele>
        <time>2026-05-12T09:17:51.000Z</time>
      </trkpt>
      <trkpt lat="45.27242" lon="4.6048">
        <ele>789.20001220703</ele>
        <time>2026-05-12T09:17:52.000Z</time>
      </trkpt>
      <trkpt lat="45.27242" lon="4.6048">
        <ele>789.40002441406</ele>
        <time>2026-05-12T09:17:53.000Z</time>
      </trkpt>
      <trkpt lat="45.27241" lon="4.6048">
        <ele>789.79998779297</ele>
        <time>2026-05-12T09:17:54.000Z</time>
      </trkpt>
      <trkpt lat="45.2724" lon="4.6048">
        <ele>790</ele>
        <time>2026-05-12T09:17:55.000Z</time>
      </trkpt>
      <trkpt lat="45.27238" lon="4.6048">
        <ele>790.40002441406</ele>
        <time>2026-05-12T09:17:56.000Z</time>
      </trkpt>
      <trkpt lat="45.27237" lon="4.6048">
        <ele>790.59997558594</ele>
        <time>2026-05-12T09:17:57.000Z</time>
      </trkpt>
      <trkpt lat="45.27236" lon="4.6048">
        <ele>791</ele>
        <time>2026-05-12T09:17:58.000Z</time>
      </trkpt>
      <trkpt lat="45.27235" lon="4.60479">
        <ele>791.40002441406</ele>
        <time>2026-05-12T09:17:59.000Z</time>
      </trkpt>
      <trkpt lat="45.27233" lon="4.6048">
        <ele>791.59997558594</ele>
        <time>2026-05-12T09:18:00.000Z</time>
      </trkpt>
      <trkpt lat="45.27232" lon="4.6048">
        <ele>792</ele>
        <time>2026-05-12T09:18:01.000Z</time>
      </trkpt>
      <trkpt lat="45.27231" lon="4.6048">
        <ele>792.20001220703</ele>
        <time>2026-05-12T09:18:02.000Z</time>
      </trkpt>
      <trkpt lat="45.27229" lon="4.6048">
        <ele>792.59997558594</ele>
        <time>2026-05-12T09:18:03.000Z</time>
      </trkpt>
      <trkpt lat="45.27227" lon="4.60481">
        <ele>792.79998779297</ele>
        <time>2026-05-12T09:18:04.000Z</time>
      </trkpt>
      <trkpt lat="45.27226" lon="4.60481">
        <ele>793.20001220703</ele>
        <time>2026-05-12T09:18:05.000Z</time>
      </trkpt>
      <trkpt lat="45.27225" lon="4.60482">
        <ele>793.40002441406</ele>
        <time>2026-05-12T09:18:06.000Z</time>
      </trkpt>
      <trkpt lat="45.27223" lon="4.60482">
        <ele>793.59997558594</ele>
        <time>2026-05-12T09:18:07.000Z</time>
      </trkpt>
      <trkpt lat="45.27222" lon="4.60483">
        <ele>794</ele>
        <time>2026-05-12T09:18:08.000Z</time>
      </trkpt>
      <trkpt lat="45.2722" lon="4.60484">
        <ele>794</ele>
        <time>2026-05-12T09:18:09.000Z</time>
      </trkpt>
      <trkpt lat="45.27218" lon="4.60485">
        <ele>794.20001220703</ele>
        <time>2026-05-12T09:18:10.000Z</time>
      </trkpt>
      <trkpt lat="45.27217" lon="4.60485">
        <ele>794.40002441406</ele>
        <time>2026-05-12T09:18:11.000Z</time>
      </trkpt>
      <trkpt lat="45.27217" lon="4.60486">
        <ele>794.59997558594</ele>
        <time>2026-05-12T09:18:12.000Z</time>
      </trkpt>
      <trkpt lat="45.27215" lon="4.60486">
        <ele>794.79998779297</ele>
        <time>2026-05-12T09:18:13.000Z</time>
      </trkpt>
      <trkpt lat="45.27214" lon="4.60486">
        <ele>795</ele>
        <time>2026-05-12T09:18:14.000Z</time>
      </trkpt>
      <trkpt lat="45.27213" lon="4.60486">
        <ele>795.20001220703</ele>
        <time>2026-05-12T09:18:15.000Z</time>
      </trkpt>
      <trkpt lat="45.27211" lon="4.60487">
        <ele>795.59997558594</ele>
        <time>2026-05-12T09:18:16.000Z</time>
      </trkpt>
      <trkpt lat="45.2721" lon="4.60487">
        <ele>795.79998779297</ele>
        <time>2026-05-12T09:18:17.000Z</time>
      </trkpt>
      <trkpt lat="45.27209" lon="4.60488">
        <ele>796</ele>
        <time>2026-05-12T09:18:18.000Z</time>
      </trkpt>
      <trkpt lat="45.27207" lon="4.60488">
        <ele>796.40002441406</ele>
        <time>2026-05-12T09:18:19.000Z</time>
      </trkpt>
      <trkpt lat="45.27206" lon="4.60489">
        <ele>796.59997558594</ele>
        <time>2026-05-12T09:18:20.000Z</time>
      </trkpt>
      <trkpt lat="45.27205" lon="4.60489">
        <ele>796.79998779297</ele>
        <time>2026-05-12T09:18:21.000Z</time>
      </trkpt>
      <trkpt lat="45.27204" lon="4.6049">
        <ele>797.20001220703</ele>
        <time>2026-05-12T09:18:22.000Z</time>
      </trkpt>
      <trkpt lat="45.27203" lon="4.60491">
        <ele>797.40002441406</ele>
        <time>2026-05-12T09:18:23.000Z</time>
      </trkpt>
      <trkpt lat="45.27203" lon="4.60492">
        <ele>797.59997558594</ele>
        <time>2026-05-12T09:18:24.000Z</time>
      </trkpt>
      <trkpt lat="45.27201" lon="4.60493">
        <ele>798</ele>
        <time>2026-05-12T09:18:25.000Z</time>
      </trkpt>
      <trkpt lat="45.272" lon="4.60493">
        <ele>798.20001220703</ele>
        <time>2026-05-12T09:18:26.000Z</time>
      </trkpt>
      <trkpt lat="45.27199" lon="4.60494">
        <ele>798.40002441406</ele>
        <time>2026-05-12T09:18:27.000Z</time>
      </trkpt>
      <trkpt lat="45.27197" lon="4.60495">
        <ele>798.59997558594</ele>
        <time>2026-05-12T09:18:28.000Z</time>
      </trkpt>
      <trkpt lat="45.27196" lon="4.60496">
        <ele>798.79998779297</ele>
        <time>2026-05-12T09:18:29.000Z</time>
      </trkpt>
      <trkpt lat="45.27194" lon="4.60496">
        <ele>799.20001220703</ele>
        <time>2026-05-12T09:18:30.000Z</time>
      </trkpt>
      <trkpt lat="45.27193" lon="4.60497">
        <ele>799.40002441406</ele>
        <time>2026-05-12T09:18:31.000Z</time>
      </trkpt>
      <trkpt lat="45.27191" lon="4.60497">
        <ele>799.59997558594</ele>
        <time>2026-05-12T09:18:32.000Z</time>
      </trkpt>
      <trkpt lat="45.27189" lon="4.60497">
        <ele>800</ele>
        <time>2026-05-12T09:18:33.000Z</time>
      </trkpt>
      <trkpt lat="45.27188" lon="4.60498">
        <ele>800.40002441406</ele>
        <time>2026-05-12T09:18:34.000Z</time>
      </trkpt>
      <trkpt lat="45.27186" lon="4.60499">
        <ele>800.59997558594</ele>
        <time>2026-05-12T09:18:35.000Z</time>
      </trkpt>
      <trkpt lat="45.27184" lon="4.605">
        <ele>801</ele>
        <time>2026-05-12T09:18:36.000Z</time>
      </trkpt>
      <trkpt lat="45.27183" lon="4.605">
        <ele>801.20001220703</ele>
        <time>2026-05-12T09:18:37.000Z</time>
      </trkpt>
      <trkpt lat="45.27182" lon="4.60501">
        <ele>801.59997558594</ele>
        <time>2026-05-12T09:18:38.000Z</time>
      </trkpt>
      <trkpt lat="45.2718" lon="4.60502">
        <ele>802</ele>
        <time>2026-05-12T09:18:39.000Z</time>
      </trkpt>
      <trkpt lat="45.27179" lon="4.60503">
        <ele>802.20001220703</ele>
        <time>2026-05-12T09:18:40.000Z</time>
      </trkpt>
      <trkpt lat="45.27177" lon="4.60504">
        <ele>802.59997558594</ele>
        <time>2026-05-12T09:18:41.000Z</time>
      </trkpt>
      <trkpt lat="45.27175" lon="4.60505">
        <ele>802.79998779297</ele>
        <time>2026-05-12T09:18:42.000Z</time>
      </trkpt>
      <trkpt lat="45.27173" lon="4.60505">
        <ele>803.20001220703</ele>
        <time>2026-05-12T09:18:43.000Z</time>
      </trkpt>
      <trkpt lat="45.27172" lon="4.60506">
        <ele>803.40002441406</ele>
        <time>2026-05-12T09:18:44.000Z</time>
      </trkpt>
      <trkpt lat="45.2717" lon="4.60506">
        <ele>803.59997558594</ele>
        <time>2026-05-12T09:18:45.000Z</time>
      </trkpt>
      <trkpt lat="45.27169" lon="4.60506">
        <ele>804</ele>
        <time>2026-05-12T09:18:46.000Z</time>
      </trkpt>
      <trkpt lat="45.27167" lon="4.60505">
        <ele>804.20001220703</ele>
        <time>2026-05-12T09:18:47.000Z</time>
      </trkpt>
      <trkpt lat="45.27165" lon="4.60506">
        <ele>804.59997558594</ele>
        <time>2026-05-12T09:18:48.000Z</time>
      </trkpt>
      <trkpt lat="45.27164" lon="4.60506">
        <ele>804.79998779297</ele>
        <time>2026-05-12T09:18:49.000Z</time>
      </trkpt>
      <trkpt lat="45.27162" lon="4.60506">
        <ele>805.20001220703</ele>
        <time>2026-05-12T09:18:50.000Z</time>
      </trkpt>
      <trkpt lat="45.27161" lon="4.60506">
        <ele>805.59997558594</ele>
        <time>2026-05-12T09:18:51.000Z</time>
      </trkpt>
      <trkpt lat="45.2716" lon="4.60505">
        <ele>805.79998779297</ele>
        <time>2026-05-12T09:18:52.000Z</time>
      </trkpt>
      <trkpt lat="45.27158" lon="4.60505">
        <ele>806.20001220703</ele>
        <time>2026-05-12T09:18:53.000Z</time>
      </trkpt>
      <trkpt lat="45.27157" lon="4.60504">
        <ele>806.40002441406</ele>
        <time>2026-05-12T09:18:54.000Z</time>
      </trkpt>
      <trkpt lat="45.27156" lon="4.60504">
        <ele>806.79998779297</ele>
        <time>2026-05-12T09:18:55.000Z</time>
      </trkpt>
      <trkpt lat="45.27155" lon="4.60503">
        <ele>807.20001220703</ele>
        <time>2026-05-12T09:18:56.000Z</time>
      </trkpt>
      <trkpt lat="45.27154" lon="4.60502">
        <ele>807.40002441406</ele>
        <time>2026-05-12T09:18:57.000Z</time>
      </trkpt>
      <trkpt lat="45.27153" lon="4.605">
        <ele>807.79998779297</ele>
        <time>2026-05-12T09:18:58.000Z</time>
      </trkpt>
      <trkpt lat="45.27152" lon="4.60499">
        <ele>808</ele>
        <time>2026-05-12T09:18:59.000Z</time>
      </trkpt>
      <trkpt lat="45.27151" lon="4.60497">
        <ele>808.20001220703</ele>
        <time>2026-05-12T09:19:00.000Z</time>
      </trkpt>
      <trkpt lat="45.27151" lon="4.60495">
        <ele>808.40002441406</ele>
        <time>2026-05-12T09:19:01.000Z</time>
      </trkpt>
      <trkpt lat="45.2715" lon="4.60493">
        <ele>808.59997558594</ele>
        <time>2026-05-12T09:19:02.000Z</time>
      </trkpt>
      <trkpt lat="45.2715" lon="4.60491">
        <ele>808.79998779297</ele>
        <time>2026-05-12T09:19:03.000Z</time>
      </trkpt>
      <trkpt lat="45.2715" lon="4.60489">
        <ele>809</ele>
        <time>2026-05-12T09:19:04.000Z</time>
      </trkpt>
      <trkpt lat="45.2715" lon="4.60487">
        <ele>809.20001220703</ele>
        <time>2026-05-12T09:19:05.000Z</time>
      </trkpt>
      <trkpt lat="45.2715" lon="4.60485">
        <ele>809.59997558594</ele>
        <time>2026-05-12T09:19:06.000Z</time>
      </trkpt>
      <trkpt lat="45.2715" lon="4.60483">
        <ele>809.79998779297</ele>
        <time>2026-05-12T09:19:07.000Z</time>
      </trkpt>
      <trkpt lat="45.2715" lon="4.60481">
        <ele>810</ele>
        <time>2026-05-12T09:19:08.000Z</time>
      </trkpt>
      <trkpt lat="45.2715" lon="4.60479">
        <ele>810.40002441406</ele>
        <time>2026-05-12T09:19:09.000Z</time>
      </trkpt>
      <trkpt lat="45.2715" lon="4.60477">
        <ele>810.59997558594</ele>
        <time>2026-05-12T09:19:10.000Z</time>
      </trkpt>
      <trkpt lat="45.2715" lon="4.60475">
        <ele>811</ele>
        <time>2026-05-12T09:19:11.000Z</time>
      </trkpt>
      <trkpt lat="45.2715" lon="4.60473">
        <ele>811.20001220703</ele>
        <time>2026-05-12T09:19:12.000Z</time>
      </trkpt>
      <trkpt lat="45.2715" lon="4.60471">
        <ele>811.40002441406</ele>
        <time>2026-05-12T09:19:13.000Z</time>
      </trkpt>
      <trkpt lat="45.2715" lon="4.60469">
        <ele>811.59997558594</ele>
        <time>2026-05-12T09:19:14.000Z</time>
      </trkpt>
      <trkpt lat="45.2715" lon="4.60466">
        <ele>811.79998779297</ele>
        <time>2026-05-12T09:19:15.000Z</time>
      </trkpt>
      <trkpt lat="45.2715" lon="4.60464">
        <ele>812</ele>
        <time>2026-05-12T09:19:16.000Z</time>
      </trkpt>
      <trkpt lat="45.2715" lon="4.60461">
        <ele>812.20001220703</ele>
        <time>2026-05-12T09:19:17.000Z</time>
      </trkpt>
      <trkpt lat="45.2715" lon="4.60459">
        <ele>812.20001220703</ele>
        <time>2026-05-12T09:19:18.000Z</time>
      </trkpt>
      <trkpt lat="45.2715" lon="4.60457">
        <ele>812.40002441406</ele>
        <time>2026-05-12T09:19:19.000Z</time>
      </trkpt>
      <trkpt lat="45.2715" lon="4.60455">
        <ele>812.40002441406</ele>
        <time>2026-05-12T09:19:20.000Z</time>
      </trkpt>
      <trkpt lat="45.2715" lon="4.60452">
        <ele>812.59997558594</ele>
        <time>2026-05-12T09:19:21.000Z</time>
      </trkpt>
      <trkpt lat="45.2715" lon="4.6045">
        <ele>812.79998779297</ele>
        <time>2026-05-12T09:19:22.000Z</time>
      </trkpt>
      <trkpt lat="45.27149" lon="4.60448">
        <ele>812.79998779297</ele>
        <time>2026-05-12T09:19:23.000Z</time>
      </trkpt>
      <trkpt lat="45.27149" lon="4.60445">
        <ele>812.79998779297</ele>
        <time>2026-05-12T09:19:24.000Z</time>
      </trkpt>
      <trkpt lat="45.27148" lon="4.60443">
        <ele>813</ele>
        <time>2026-05-12T09:19:25.000Z</time>
      </trkpt>
      <trkpt lat="45.27148" lon="4.60441">
        <ele>813</ele>
        <time>2026-05-12T09:19:26.000Z</time>
      </trkpt>
      <trkpt lat="45.27147" lon="4.60439">
        <ele>813.20001220703</ele>
        <time>2026-05-12T09:19:27.000Z</time>
      </trkpt>
      <trkpt lat="45.27146" lon="4.60436">
        <ele>813.40002441406</ele>
        <time>2026-05-12T09:19:28.000Z</time>
      </trkpt>
      <trkpt lat="45.27146" lon="4.60434">
        <ele>813.40002441406</ele>
        <time>2026-05-12T09:19:29.000Z</time>
      </trkpt>
      <trkpt lat="45.27145" lon="4.60431">
        <ele>813.59997558594</ele>
        <time>2026-05-12T09:19:30.000Z</time>
      </trkpt>
      <trkpt lat="45.27145" lon="4.60429">
        <ele>813.59997558594</ele>
        <time>2026-05-12T09:19:31.000Z</time>
      </trkpt>
      <trkpt lat="45.27145" lon="4.60426">
        <ele>813.79998779297</ele>
        <time>2026-05-12T09:19:32.000Z</time>
      </trkpt>
      <trkpt lat="45.27145" lon="4.60424">
        <ele>813.79998779297</ele>
        <time>2026-05-12T09:19:33.000Z</time>
      </trkpt>
      <trkpt lat="45.27145" lon="4.60422">
        <ele>813.79998779297</ele>
        <time>2026-05-12T09:19:34.000Z</time>
      </trkpt>
      <trkpt lat="45.27145" lon="4.60419">
        <ele>814</ele>
        <time>2026-05-12T09:19:35.000Z</time>
      </trkpt>
      <trkpt lat="45.27145" lon="4.60417">
        <ele>814</ele>
        <time>2026-05-12T09:19:36.000Z</time>
      </trkpt>
      <trkpt lat="45.27145" lon="4.60414">
        <ele>814.20001220703</ele>
        <time>2026-05-12T09:19:37.000Z</time>
      </trkpt>
      <trkpt lat="45.27145" lon="4.60411">
        <ele>814.40002441406</ele>
        <time>2026-05-12T09:19:38.000Z</time>
      </trkpt>
      <trkpt lat="45.27146" lon="4.60409">
        <ele>814.59997558594</ele>
        <time>2026-05-12T09:19:39.000Z</time>
      </trkpt>
      <trkpt lat="45.27146" lon="4.60407">
        <ele>814.79998779297</ele>
        <time>2026-05-12T09:19:40.000Z</time>
      </trkpt>
      <trkpt lat="45.27146" lon="4.60404">
        <ele>815</ele>
        <time>2026-05-12T09:19:41.000Z</time>
      </trkpt>
      <trkpt lat="45.27146" lon="4.60402">
        <ele>815.20001220703</ele>
        <time>2026-05-12T09:19:42.000Z</time>
      </trkpt>
      <trkpt lat="45.27147" lon="4.604">
        <ele>815.40002441406</ele>
        <time>2026-05-12T09:19:43.000Z</time>
      </trkpt>
      <trkpt lat="45.27148" lon="4.60398">
        <ele>815.59997558594</ele>
        <time>2026-05-12T09:19:44.000Z</time>
      </trkpt>
      <trkpt lat="45.27149" lon="4.60396">
        <ele>815.79998779297</ele>
        <time>2026-05-12T09:19:45.000Z</time>
      </trkpt>
      <trkpt lat="45.27149" lon="4.60394">
        <ele>815.79998779297</ele>
        <time>2026-05-12T09:19:46.000Z</time>
      </trkpt>
      <trkpt lat="45.2715" lon="4.60392">
        <ele>816</ele>
        <time>2026-05-12T09:19:47.000Z</time>
      </trkpt>
      <trkpt lat="45.27151" lon="4.6039">
        <ele>816.20001220703</ele>
        <time>2026-05-12T09:19:48.000Z</time>
      </trkpt>
      <trkpt lat="45.27152" lon="4.60388">
        <ele>816.40002441406</ele>
        <time>2026-05-12T09:19:49.000Z</time>
      </trkpt>
      <trkpt lat="45.27153" lon="4.60386">
        <ele>816.40002441406</ele>
        <time>2026-05-12T09:19:50.000Z</time>
      </trkpt>
      <trkpt lat="45.27154" lon="4.60384">
        <ele>816.59997558594</ele>
        <time>2026-05-12T09:19:51.000Z</time>
      </trkpt>
      <trkpt lat="45.27155" lon="4.60382">
        <ele>816.79998779297</ele>
        <time>2026-05-12T09:19:52.000Z</time>
      </trkpt>
      <trkpt lat="45.27156" lon="4.6038">
        <ele>817</ele>
        <time>2026-05-12T09:19:53.000Z</time>
      </trkpt>
      <trkpt lat="45.27157" lon="4.60378">
        <ele>817.20001220703</ele>
        <time>2026-05-12T09:19:54.000Z</time>
      </trkpt>
      <trkpt lat="45.27158" lon="4.60375">
        <ele>817.20001220703</ele>
        <time>2026-05-12T09:19:55.000Z</time>
      </trkpt>
      <trkpt lat="45.27159" lon="4.60373">
        <ele>817.40002441406</ele>
        <time>2026-05-12T09:19:56.000Z</time>
      </trkpt>
      <trkpt lat="45.2716" lon="4.60372">
        <ele>817.59997558594</ele>
        <time>2026-05-12T09:19:57.000Z</time>
      </trkpt>
      <trkpt lat="45.27161" lon="4.6037">
        <ele>817.59997558594</ele>
        <time>2026-05-12T09:19:58.000Z</time>
      </trkpt>
      <trkpt lat="45.27162" lon="4.60368">
        <ele>817.79998779297</ele>
        <time>2026-05-12T09:19:59.000Z</time>
      </trkpt>
      <trkpt lat="45.27163" lon="4.60366">
        <ele>818</ele>
        <time>2026-05-12T09:20:00.000Z</time>
      </trkpt>
      <trkpt lat="45.27163" lon="4.60364">
        <ele>818.20001220703</ele>
        <time>2026-05-12T09:20:01.000Z</time>
      </trkpt>
      <trkpt lat="45.27164" lon="4.60362">
        <ele>818.20001220703</ele>
        <time>2026-05-12T09:20:02.000Z</time>
      </trkpt>
      <trkpt lat="45.27164" lon="4.6036">
        <ele>818.40002441406</ele>
        <time>2026-05-12T09:20:03.000Z</time>
      </trkpt>
      <trkpt lat="45.27165" lon="4.60357">
        <ele>818.59997558594</ele>
        <time>2026-05-12T09:20:04.000Z</time>
      </trkpt>
      <trkpt lat="45.27165" lon="4.60355">
        <ele>818.59997558594</ele>
        <time>2026-05-12T09:20:05.000Z</time>
      </trkpt>
      <trkpt lat="45.27165" lon="4.60352">
        <ele>818.79998779297</ele>
        <time>2026-05-12T09:20:06.000Z</time>
      </trkpt>
      <trkpt lat="45.27165" lon="4.60349">
        <ele>818.79998779297</ele>
        <time>2026-05-12T09:20:07.000Z</time>
      </trkpt>
      <trkpt lat="45.27165" lon="4.60347">
        <ele>819</ele>
        <time>2026-05-12T09:20:08.000Z</time>
      </trkpt>
      <trkpt lat="45.27164" lon="4.60344">
        <ele>819</ele>
        <time>2026-05-12T09:20:09.000Z</time>
      </trkpt>
      <trkpt lat="45.27164" lon="4.60342">
        <ele>819.20001220703</ele>
        <time>2026-05-12T09:20:10.000Z</time>
      </trkpt>
      <trkpt lat="45.27163" lon="4.6034">
        <ele>819.40002441406</ele>
        <time>2026-05-12T09:20:11.000Z</time>
      </trkpt>
      <trkpt lat="45.27162" lon="4.60338">
        <ele>819.40002441406</ele>
        <time>2026-05-12T09:20:12.000Z</time>
      </trkpt>
      <trkpt lat="45.27162" lon="4.60336">
        <ele>819.59997558594</ele>
        <time>2026-05-12T09:20:13.000Z</time>
      </trkpt>
      <trkpt lat="45.27161" lon="4.60334">
        <ele>819.79998779297</ele>
        <time>2026-05-12T09:20:14.000Z</time>
      </trkpt>
      <trkpt lat="45.27159" lon="4.60332">
        <ele>820.20001220703</ele>
        <time>2026-05-12T09:20:15.000Z</time>
      </trkpt>
      <trkpt lat="45.27158" lon="4.60331">
        <ele>820.40002441406</ele>
        <time>2026-05-12T09:20:16.000Z</time>
      </trkpt>
      <trkpt lat="45.27156" lon="4.6033">
        <ele>820.40002441406</ele>
        <time>2026-05-12T09:20:17.000Z</time>
      </trkpt>
      <trkpt lat="45.27154" lon="4.60329">
        <ele>820.59997558594</ele>
        <time>2026-05-12T09:20:18.000Z</time>
      </trkpt>
      <trkpt lat="45.27153" lon="4.60328">
        <ele>820.79998779297</ele>
        <time>2026-05-12T09:20:19.000Z</time>
      </trkpt>
      <trkpt lat="45.27151" lon="4.60328">
        <ele>821</ele>
        <time>2026-05-12T09:20:20.000Z</time>
      </trkpt>
      <trkpt lat="45.27149" lon="4.60327">
        <ele>821</ele>
        <time>2026-05-12T09:20:21.000Z</time>
      </trkpt>
      <trkpt lat="45.27147" lon="4.60326">
        <ele>821.20001220703</ele>
        <time>2026-05-12T09:20:22.000Z</time>
      </trkpt>
      <trkpt lat="45.27146" lon="4.60325">
        <ele>821.20001220703</ele>
        <time>2026-05-12T09:20:23.000Z</time>
      </trkpt>
      <trkpt lat="45.27144" lon="4.60324">
        <ele>821.40002441406</ele>
        <time>2026-05-12T09:20:24.000Z</time>
      </trkpt>
      <trkpt lat="45.27143" lon="4.60322">
        <ele>821.40002441406</ele>
        <time>2026-05-12T09:20:25.000Z</time>
      </trkpt>
      <trkpt lat="45.27141" lon="4.60321">
        <ele>821.59997558594</ele>
        <time>2026-05-12T09:20:26.000Z</time>
      </trkpt>
      <trkpt lat="45.2714" lon="4.6032">
        <ele>821.59997558594</ele>
        <time>2026-05-12T09:20:27.000Z</time>
      </trkpt>
      <trkpt lat="45.27138" lon="4.60318">
        <ele>821.79998779297</ele>
        <time>2026-05-12T09:20:28.000Z</time>
      </trkpt>
      <trkpt lat="45.27137" lon="4.60317">
        <ele>821.79998779297</ele>
        <time>2026-05-12T09:20:29.000Z</time>
      </trkpt>
      <trkpt lat="45.27135" lon="4.60315">
        <ele>822</ele>
        <time>2026-05-12T09:20:30.000Z</time>
      </trkpt>
      <trkpt lat="45.27134" lon="4.60314">
        <ele>822</ele>
        <time>2026-05-12T09:20:31.000Z</time>
      </trkpt>
      <trkpt lat="45.27133" lon="4.60313">
        <ele>822.20001220703</ele>
        <time>2026-05-12T09:20:32.000Z</time>
      </trkpt>
      <trkpt lat="45.27132" lon="4.60312">
        <ele>822.40002441406</ele>
        <time>2026-05-12T09:20:33.000Z</time>
      </trkpt>
      <trkpt lat="45.2713" lon="4.6031">
        <ele>822.40002441406</ele>
        <time>2026-05-12T09:20:34.000Z</time>
      </trkpt>
      <trkpt lat="45.27129" lon="4.60309">
        <ele>822.59997558594</ele>
        <time>2026-05-12T09:20:35.000Z</time>
      </trkpt>
      <trkpt lat="45.27127" lon="4.60307">
        <ele>822.79998779297</ele>
        <time>2026-05-12T09:20:36.000Z</time>
      </trkpt>
      <trkpt lat="45.27125" lon="4.60305">
        <ele>823</ele>
        <time>2026-05-12T09:20:37.000Z</time>
      </trkpt>
      <trkpt lat="45.27123" lon="4.60303">
        <ele>823.20001220703</ele>
        <time>2026-05-12T09:20:38.000Z</time>
      </trkpt>
      <trkpt lat="45.27122" lon="4.60302">
        <ele>823.20001220703</ele>
        <time>2026-05-12T09:20:39.000Z</time>
      </trkpt>
      <trkpt lat="45.2712" lon="4.60301">
        <ele>823.40002441406</ele>
        <time>2026-05-12T09:20:40.000Z</time>
      </trkpt>
      <trkpt lat="45.27119" lon="4.60299">
        <ele>823.59997558594</ele>
        <time>2026-05-12T09:20:41.000Z</time>
      </trkpt>
      <trkpt lat="45.27118" lon="4.60297">
        <ele>824</ele>
        <time>2026-05-12T09:20:42.000Z</time>
      </trkpt>
      <trkpt lat="45.27116" lon="4.60294">
        <ele>824.20001220703</ele>
        <time>2026-05-12T09:20:43.000Z</time>
      </trkpt>
      <trkpt lat="45.27115" lon="4.60293">
        <ele>824.59997558594</ele>
        <time>2026-05-12T09:20:44.000Z</time>
      </trkpt>
      <trkpt lat="45.27114" lon="4.60291">
        <ele>824.79998779297</ele>
        <time>2026-05-12T09:20:45.000Z</time>
      </trkpt>
      <trkpt lat="45.27112" lon="4.60289">
        <ele>825</ele>
        <time>2026-05-12T09:20:46.000Z</time>
      </trkpt>
      <trkpt lat="45.27111" lon="4.60287">
        <ele>825.20001220703</ele>
        <time>2026-05-12T09:20:47.000Z</time>
      </trkpt>
      <trkpt lat="45.2711" lon="4.60286">
        <ele>825.40002441406</ele>
        <time>2026-05-12T09:20:48.000Z</time>
      </trkpt>
      <trkpt lat="45.27108" lon="4.60284">
        <ele>825.59997558594</ele>
        <time>2026-05-12T09:20:49.000Z</time>
      </trkpt>
      <trkpt lat="45.27107" lon="4.60283">
        <ele>825.79998779297</ele>
        <time>2026-05-12T09:20:50.000Z</time>
      </trkpt>
      <trkpt lat="45.27105" lon="4.60282">
        <ele>826</ele>
        <time>2026-05-12T09:20:51.000Z</time>
      </trkpt>
      <trkpt lat="45.27103" lon="4.6028">
        <ele>826</ele>
        <time>2026-05-12T09:20:52.000Z</time>
      </trkpt>
      <trkpt lat="45.27101" lon="4.60278">
        <ele>826.20001220703</ele>
        <time>2026-05-12T09:20:53.000Z</time>
      </trkpt>
      <trkpt lat="45.27099" lon="4.60277">
        <ele>826.20001220703</ele>
        <time>2026-05-12T09:20:54.000Z</time>
      </trkpt>
      <trkpt lat="45.27098" lon="4.60275">
        <ele>826.40002441406</ele>
        <time>2026-05-12T09:20:55.000Z</time>
      </trkpt>
      <trkpt lat="45.27096" lon="4.60273">
        <ele>826.59997558594</ele>
        <time>2026-05-12T09:20:56.000Z</time>
      </trkpt>
      <trkpt lat="45.27095" lon="4.60271">
        <ele>826.59997558594</ele>
        <time>2026-05-12T09:20:57.000Z</time>
      </trkpt>
      <trkpt lat="45.27093" lon="4.6027">
        <ele>826.79998779297</ele>
        <time>2026-05-12T09:20:58.000Z</time>
      </trkpt>
      <trkpt lat="45.27092" lon="4.60268">
        <ele>827</ele>
        <time>2026-05-12T09:20:59.000Z</time>
      </trkpt>
      <trkpt lat="45.2709" lon="4.60266">
        <ele>827.20001220703</ele>
        <time>2026-05-12T09:21:00.000Z</time>
      </trkpt>
      <trkpt lat="45.27089" lon="4.60264">
        <ele>827.20001220703</ele>
        <time>2026-05-12T09:21:01.000Z</time>
      </trkpt>
      <trkpt lat="45.27087" lon="4.60262">
        <ele>827.40002441406</ele>
        <time>2026-05-12T09:21:02.000Z</time>
      </trkpt>
      <trkpt lat="45.27085" lon="4.60261">
        <ele>827.59997558594</ele>
        <time>2026-05-12T09:21:03.000Z</time>
      </trkpt>
      <trkpt lat="45.27084" lon="4.6026">
        <ele>827.79998779297</ele>
        <time>2026-05-12T09:21:04.000Z</time>
      </trkpt>
      <trkpt lat="45.27082" lon="4.60258">
        <ele>827.79998779297</ele>
        <time>2026-05-12T09:21:05.000Z</time>
      </trkpt>
      <trkpt lat="45.27081" lon="4.60256">
        <ele>828</ele>
        <time>2026-05-12T09:21:06.000Z</time>
      </trkpt>
      <trkpt lat="45.27079" lon="4.60254">
        <ele>828.20001220703</ele>
        <time>2026-05-12T09:21:07.000Z</time>
      </trkpt>
      <trkpt lat="45.27077" lon="4.60253">
        <ele>828.40002441406</ele>
        <time>2026-05-12T09:21:08.000Z</time>
      </trkpt>
      <trkpt lat="45.27076" lon="4.60252">
        <ele>828.59997558594</ele>
        <time>2026-05-12T09:21:09.000Z</time>
      </trkpt>
      <trkpt lat="45.27075" lon="4.6025">
        <ele>828.79998779297</ele>
        <time>2026-05-12T09:21:10.000Z</time>
      </trkpt>
      <trkpt lat="45.27073" lon="4.60249">
        <ele>829</ele>
        <time>2026-05-12T09:21:11.000Z</time>
      </trkpt>
      <trkpt lat="45.27072" lon="4.60247">
        <ele>829.40002441406</ele>
        <time>2026-05-12T09:21:12.000Z</time>
      </trkpt>
      <trkpt lat="45.27071" lon="4.60246">
        <ele>829.59997558594</ele>
        <time>2026-05-12T09:21:13.000Z</time>
      </trkpt>
      <trkpt lat="45.27069" lon="4.60244">
        <ele>829.59997558594</ele>
        <time>2026-05-12T09:21:14.000Z</time>
      </trkpt>
      <trkpt lat="45.27068" lon="4.60242">
        <ele>829.59997558594</ele>
        <time>2026-05-12T09:21:15.000Z</time>
      </trkpt>
      <trkpt lat="45.27066" lon="4.60241">
        <ele>829.79998779297</ele>
        <time>2026-05-12T09:21:16.000Z</time>
      </trkpt>
      <trkpt lat="45.27065" lon="4.60239">
        <ele>829.79998779297</ele>
        <time>2026-05-12T09:21:17.000Z</time>
      </trkpt>
      <trkpt lat="45.27063" lon="4.60238">
        <ele>830</ele>
        <time>2026-05-12T09:21:18.000Z</time>
      </trkpt>
      <trkpt lat="45.27061" lon="4.60236">
        <ele>830.20001220703</ele>
        <time>2026-05-12T09:21:19.000Z</time>
      </trkpt>
      <trkpt lat="45.2706" lon="4.60234">
        <ele>830.40002441406</ele>
        <time>2026-05-12T09:21:20.000Z</time>
      </trkpt>
      <trkpt lat="45.27058" lon="4.60233">
        <ele>830.59997558594</ele>
        <time>2026-05-12T09:21:21.000Z</time>
      </trkpt>
      <trkpt lat="45.27057" lon="4.60232">
        <ele>830.79998779297</ele>
        <time>2026-05-12T09:21:22.000Z</time>
      </trkpt>
      <trkpt lat="45.27055" lon="4.6023">
        <ele>831</ele>
        <time>2026-05-12T09:21:23.000Z</time>
      </trkpt>
      <trkpt lat="45.27055" lon="4.60228">
        <ele>831.40002441406</ele>
        <time>2026-05-12T09:21:24.000Z</time>
      </trkpt>
      <trkpt lat="45.27054" lon="4.60226">
        <ele>831.59997558594</ele>
        <time>2026-05-12T09:21:25.000Z</time>
      </trkpt>
      <trkpt lat="45.27055" lon="4.60224">
        <ele>831.79998779297</ele>
        <time>2026-05-12T09:21:26.000Z</time>
      </trkpt>
      <trkpt lat="45.27056" lon="4.60222">
        <ele>832</ele>
        <time>2026-05-12T09:21:27.000Z</time>
      </trkpt>
      <trkpt lat="45.27057" lon="4.6022">
        <ele>832.20001220703</ele>
        <time>2026-05-12T09:21:28.000Z</time>
      </trkpt>
      <trkpt lat="45.27058" lon="4.60219">
        <ele>832.59997558594</ele>
        <time>2026-05-12T09:21:29.000Z</time>
      </trkpt>
      <trkpt lat="45.2706" lon="4.60217">
        <ele>832.79998779297</ele>
        <time>2026-05-12T09:21:30.000Z</time>
      </trkpt>
      <trkpt lat="45.27062" lon="4.60216">
        <ele>833</ele>
        <time>2026-05-12T09:21:31.000Z</time>
      </trkpt>
      <trkpt lat="45.27063" lon="4.60215">
        <ele>833.20001220703</ele>
        <time>2026-05-12T09:21:32.000Z</time>
      </trkpt>
      <trkpt lat="45.27065" lon="4.60214">
        <ele>833.40002441406</ele>
        <time>2026-05-12T09:21:33.000Z</time>
      </trkpt>
      <trkpt lat="45.27067" lon="4.60214">
        <ele>833.59997558594</ele>
        <time>2026-05-12T09:21:34.000Z</time>
      </trkpt>
      <trkpt lat="45.27068" lon="4.60213">
        <ele>833.59997558594</ele>
        <time>2026-05-12T09:21:35.000Z</time>
      </trkpt>
      <trkpt lat="45.2707" lon="4.60213">
        <ele>833.79998779297</ele>
        <time>2026-05-12T09:21:36.000Z</time>
      </trkpt>
      <trkpt lat="45.27071" lon="4.60212">
        <ele>834</ele>
        <time>2026-05-12T09:21:37.000Z</time>
      </trkpt>
      <trkpt lat="45.27073" lon="4.60211">
        <ele>834.20001220703</ele>
        <time>2026-05-12T09:21:38.000Z</time>
      </trkpt>
      <trkpt lat="45.27075" lon="4.6021">
        <ele>834.40002441406</ele>
        <time>2026-05-12T09:21:39.000Z</time>
      </trkpt>
      <trkpt lat="45.27076" lon="4.6021">
        <ele>834.40002441406</ele>
        <time>2026-05-12T09:21:40.000Z</time>
      </trkpt>
      <trkpt lat="45.27078" lon="4.60209">
        <ele>834.59997558594</ele>
        <time>2026-05-12T09:21:41.000Z</time>
      </trkpt>
      <trkpt lat="45.2708" lon="4.60208">
        <ele>834.79998779297</ele>
        <time>2026-05-12T09:21:42.000Z</time>
      </trkpt>
      <trkpt lat="45.27081" lon="4.60208">
        <ele>835</ele>
        <time>2026-05-12T09:21:43.000Z</time>
      </trkpt>
      <trkpt lat="45.27083" lon="4.60207">
        <ele>835</ele>
        <time>2026-05-12T09:21:44.000Z</time>
      </trkpt>
      <trkpt lat="45.27085" lon="4.60206">
        <ele>835.20001220703</ele>
        <time>2026-05-12T09:21:45.000Z</time>
      </trkpt>
      <trkpt lat="45.27087" lon="4.60205">
        <ele>835.40002441406</ele>
        <time>2026-05-12T09:21:46.000Z</time>
      </trkpt>
      <trkpt lat="45.27088" lon="4.60204">
        <ele>835.59997558594</ele>
        <time>2026-05-12T09:21:47.000Z</time>
      </trkpt>
      <trkpt lat="45.2709" lon="4.60203">
        <ele>835.79998779297</ele>
        <time>2026-05-12T09:21:48.000Z</time>
      </trkpt>
      <trkpt lat="45.27091" lon="4.60203">
        <ele>836</ele>
        <time>2026-05-12T09:21:49.000Z</time>
      </trkpt>
      <trkpt lat="45.27093" lon="4.60203">
        <ele>836.20001220703</ele>
        <time>2026-05-12T09:21:50.000Z</time>
      </trkpt>
      <trkpt lat="45.27094" lon="4.60202">
        <ele>836.40002441406</ele>
        <time>2026-05-12T09:21:51.000Z</time>
      </trkpt>
      <trkpt lat="45.27096" lon="4.60202">
        <ele>836.59997558594</ele>
        <time>2026-05-12T09:21:52.000Z</time>
      </trkpt>
      <trkpt lat="45.27097" lon="4.60201">
        <ele>836.59997558594</ele>
        <time>2026-05-12T09:21:53.000Z</time>
      </trkpt>
      <trkpt lat="45.27098" lon="4.602">
        <ele>836.79998779297</ele>
        <time>2026-05-12T09:21:54.000Z</time>
      </trkpt>
      <trkpt lat="45.271" lon="4.602">
        <ele>837</ele>
        <time>2026-05-12T09:21:55.000Z</time>
      </trkpt>
      <trkpt lat="45.27101" lon="4.60199">
        <ele>837.20001220703</ele>
        <time>2026-05-12T09:21:56.000Z</time>
      </trkpt>
      <trkpt lat="45.27103" lon="4.60198">
        <ele>837.40002441406</ele>
        <time>2026-05-12T09:21:57.000Z</time>
      </trkpt>
      <trkpt lat="45.27104" lon="4.60197">
        <ele>837.59997558594</ele>
        <time>2026-05-12T09:21:58.000Z</time>
      </trkpt>
      <trkpt lat="45.27105" lon="4.60196">
        <ele>837.79998779297</ele>
        <time>2026-05-12T09:21:59.000Z</time>
      </trkpt>
      <trkpt lat="45.27106" lon="4.60195">
        <ele>838</ele>
        <time>2026-05-12T09:22:00.000Z</time>
      </trkpt>
      <trkpt lat="45.27107" lon="4.60193">
        <ele>838.20001220703</ele>
        <time>2026-05-12T09:22:01.000Z</time>
      </trkpt>
      <trkpt lat="45.27108" lon="4.60192">
        <ele>838.40002441406</ele>
        <time>2026-05-12T09:22:02.000Z</time>
      </trkpt>
      <trkpt lat="45.27109" lon="4.6019">
        <ele>838.40002441406</ele>
        <time>2026-05-12T09:22:03.000Z</time>
      </trkpt>
      <trkpt lat="45.2711" lon="4.60189">
        <ele>838.59997558594</ele>
        <time>2026-05-12T09:22:04.000Z</time>
      </trkpt>
      <trkpt lat="45.27111" lon="4.60187">
        <ele>838.79998779297</ele>
        <time>2026-05-12T09:22:05.000Z</time>
      </trkpt>
      <trkpt lat="45.27111" lon="4.60185">
        <ele>839</ele>
        <time>2026-05-12T09:22:06.000Z</time>
      </trkpt>
      <trkpt lat="45.27112" lon="4.60183">
        <ele>839</ele>
        <time>2026-05-12T09:22:07.000Z</time>
      </trkpt>
      <trkpt lat="45.27112" lon="4.60181">
        <ele>839.20001220703</ele>
        <time>2026-05-12T09:22:08.000Z</time>
      </trkpt>
      <trkpt lat="45.27113" lon="4.60179">
        <ele>839.20001220703</ele>
        <time>2026-05-12T09:22:09.000Z</time>
      </trkpt>
      <trkpt lat="45.27113" lon="4.60177">
        <ele>839.40002441406</ele>
        <time>2026-05-12T09:22:10.000Z</time>
      </trkpt>
      <trkpt lat="45.27114" lon="4.60175">
        <ele>839.59997558594</ele>
        <time>2026-05-12T09:22:11.000Z</time>
      </trkpt>
      <trkpt lat="45.27114" lon="4.60173">
        <ele>839.59997558594</ele>
        <time>2026-05-12T09:22:12.000Z</time>
      </trkpt>
      <trkpt lat="45.27115" lon="4.60171">
        <ele>839.79998779297</ele>
        <time>2026-05-12T09:22:13.000Z</time>
      </trkpt>
      <trkpt lat="45.27115" lon="4.60169">
        <ele>839.79998779297</ele>
        <time>2026-05-12T09:22:14.000Z</time>
      </trkpt>
      <trkpt lat="45.27115" lon="4.60166">
        <ele>840</ele>
        <time>2026-05-12T09:22:15.000Z</time>
      </trkpt>
      <trkpt lat="45.27116" lon="4.60164">
        <ele>840</ele>
        <time>2026-05-12T09:22:16.000Z</time>
      </trkpt>
      <trkpt lat="45.27116" lon="4.60162">
        <ele>840.20001220703</ele>
        <time>2026-05-12T09:22:17.000Z</time>
      </trkpt>
      <trkpt lat="45.27116" lon="4.6016">
        <ele>840.20001220703</ele>
        <time>2026-05-12T09:22:18.000Z</time>
      </trkpt>
      <trkpt lat="45.27117" lon="4.60158">
        <ele>840.40002441406</ele>
        <time>2026-05-12T09:22:19.000Z</time>
      </trkpt>
      <trkpt lat="45.27117" lon="4.60156">
        <ele>840.40002441406</ele>
        <time>2026-05-12T09:22:20.000Z</time>
      </trkpt>
      <trkpt lat="45.27117" lon="4.60154">
        <ele>840.59997558594</ele>
        <time>2026-05-12T09:22:21.000Z</time>
      </trkpt>
      <trkpt lat="45.27117" lon="4.60152">
        <ele>840.59997558594</ele>
        <time>2026-05-12T09:22:22.000Z</time>
      </trkpt>
      <trkpt lat="45.27117" lon="4.6015">
        <ele>840.79998779297</ele>
        <time>2026-05-12T09:22:23.000Z</time>
      </trkpt>
      <trkpt lat="45.27118" lon="4.60148">
        <ele>840.79998779297</ele>
        <time>2026-05-12T09:22:24.000Z</time>
      </trkpt>
      <trkpt lat="45.27118" lon="4.60146">
        <ele>841</ele>
        <time>2026-05-12T09:22:25.000Z</time>
      </trkpt>
      <trkpt lat="45.27118" lon="4.60143">
        <ele>841</ele>
        <time>2026-05-12T09:22:26.000Z</time>
      </trkpt>
      <trkpt lat="45.27118" lon="4.60141">
        <ele>841.20001220703</ele>
        <time>2026-05-12T09:22:27.000Z</time>
      </trkpt>
      <trkpt lat="45.27118" lon="4.60139">
        <ele>841.20001220703</ele>
        <time>2026-05-12T09:22:28.000Z</time>
      </trkpt>
      <trkpt lat="45.27118" lon="4.60137">
        <ele>841.40002441406</ele>
        <time>2026-05-12T09:22:29.000Z</time>
      </trkpt>
      <trkpt lat="45.27118" lon="4.60135">
        <ele>841.40002441406</ele>
        <time>2026-05-12T09:22:30.000Z</time>
      </trkpt>
      <trkpt lat="45.27118" lon="4.60133">
        <ele>841.59997558594</ele>
        <time>2026-05-12T09:22:31.000Z</time>
      </trkpt>
      <trkpt lat="45.27118" lon="4.60132">
        <ele>841.79998779297</ele>
        <time>2026-05-12T09:22:32.000Z</time>
      </trkpt>
      <trkpt lat="45.27118" lon="4.60129">
        <ele>841.79998779297</ele>
        <time>2026-05-12T09:22:33.000Z</time>
      </trkpt>
      <trkpt lat="45.27118" lon="4.60127">
        <ele>842</ele>
        <time>2026-05-12T09:22:34.000Z</time>
      </trkpt>
      <trkpt lat="45.27118" lon="4.60125">
        <ele>842</ele>
        <time>2026-05-12T09:22:35.000Z</time>
      </trkpt>
      <trkpt lat="45.27118" lon="4.60123">
        <ele>842.20001220703</ele>
        <time>2026-05-12T09:22:36.000Z</time>
      </trkpt>
      <trkpt lat="45.27117" lon="4.60121">
        <ele>842.20001220703</ele>
        <time>2026-05-12T09:22:37.000Z</time>
      </trkpt>
      <trkpt lat="45.27117" lon="4.60119">
        <ele>842.40002441406</ele>
        <time>2026-05-12T09:22:38.000Z</time>
      </trkpt>
      <trkpt lat="45.27117" lon="4.60116">
        <ele>842.59997558594</ele>
        <time>2026-05-12T09:22:39.000Z</time>
      </trkpt>
      <trkpt lat="45.27117" lon="4.60114">
        <ele>842.79998779297</ele>
        <time>2026-05-12T09:22:40.000Z</time>
      </trkpt>
      <trkpt lat="45.27116" lon="4.60112">
        <ele>842.79998779297</ele>
        <time>2026-05-12T09:22:41.000Z</time>
      </trkpt>
      <trkpt lat="45.27116" lon="4.6011">
        <ele>843</ele>
        <time>2026-05-12T09:22:42.000Z</time>
      </trkpt>
      <trkpt lat="45.27116" lon="4.60108">
        <ele>843.20001220703</ele>
        <time>2026-05-12T09:22:43.000Z</time>
      </trkpt>
      <trkpt lat="45.27116" lon="4.60106">
        <ele>843.40002441406</ele>
        <time>2026-05-12T09:22:44.000Z</time>
      </trkpt>
      <trkpt lat="45.27116" lon="4.60104">
        <ele>843.59997558594</ele>
        <time>2026-05-12T09:22:45.000Z</time>
      </trkpt>
      <trkpt lat="45.27116" lon="4.60101">
        <ele>843.79998779297</ele>
        <time>2026-05-12T09:22:46.000Z</time>
      </trkpt>
      <trkpt lat="45.27116" lon="4.60099">
        <ele>843.79998779297</ele>
        <time>2026-05-12T09:22:47.000Z</time>
      </trkpt>
      <trkpt lat="45.27115" lon="4.60098">
        <ele>844</ele>
        <time>2026-05-12T09:22:48.000Z</time>
      </trkpt>
      <trkpt lat="45.27115" lon="4.60096">
        <ele>844.20001220703</ele>
        <time>2026-05-12T09:22:49.000Z</time>
      </trkpt>
      <trkpt lat="45.27115" lon="4.60094">
        <ele>844.40002441406</ele>
        <time>2026-05-12T09:22:50.000Z</time>
      </trkpt>
      <trkpt lat="45.27115" lon="4.60092">
        <ele>844.59997558594</ele>
        <time>2026-05-12T09:22:51.000Z</time>
      </trkpt>
      <trkpt lat="45.27115" lon="4.6009">
        <ele>844.79998779297</ele>
        <time>2026-05-12T09:22:52.000Z</time>
      </trkpt>
      <trkpt lat="45.27115" lon="4.60087">
        <ele>845</ele>
        <time>2026-05-12T09:22:53.000Z</time>
      </trkpt>
      <trkpt lat="45.27114" lon="4.60085">
        <ele>845.20001220703</ele>
        <time>2026-05-12T09:22:54.000Z</time>
      </trkpt>
      <trkpt lat="45.27114" lon="4.60083">
        <ele>845.40002441406</ele>
        <time>2026-05-12T09:22:55.000Z</time>
      </trkpt>
      <trkpt lat="45.27114" lon="4.6008">
        <ele>845.59997558594</ele>
        <time>2026-05-12T09:22:56.000Z</time>
      </trkpt>
      <trkpt lat="45.27113" lon="4.60078">
        <ele>845.79998779297</ele>
        <time>2026-05-12T09:22:57.000Z</time>
      </trkpt>
      <trkpt lat="45.27113" lon="4.60076">
        <ele>846</ele>
        <time>2026-05-12T09:22:58.000Z</time>
      </trkpt>
      <trkpt lat="45.27113" lon="4.60074">
        <ele>846.20001220703</ele>
        <time>2026-05-12T09:22:59.000Z</time>
      </trkpt>
      <trkpt lat="45.27112" lon="4.60073">
        <ele>846.40002441406</ele>
        <time>2026-05-12T09:23:00.000Z</time>
      </trkpt>
      <trkpt lat="45.27112" lon="4.60071">
        <ele>846.40002441406</ele>
        <time>2026-05-12T09:23:01.000Z</time>
      </trkpt>
      <trkpt lat="45.27111" lon="4.60069">
        <ele>846.59997558594</ele>
        <time>2026-05-12T09:23:02.000Z</time>
      </trkpt>
      <trkpt lat="45.2711" lon="4.60067">
        <ele>846.79998779297</ele>
        <time>2026-05-12T09:23:03.000Z</time>
      </trkpt>
      <trkpt lat="45.27109" lon="4.60065">
        <ele>847</ele>
        <time>2026-05-12T09:23:04.000Z</time>
      </trkpt>
      <trkpt lat="45.27109" lon="4.60064">
        <ele>847.20001220703</ele>
        <time>2026-05-12T09:23:05.000Z</time>
      </trkpt>
      <trkpt lat="45.27108" lon="4.60062">
        <ele>847.20001220703</ele>
        <time>2026-05-12T09:23:06.000Z</time>
      </trkpt>
      <trkpt lat="45.27107" lon="4.6006">
        <ele>847.40002441406</ele>
        <time>2026-05-12T09:23:07.000Z</time>
      </trkpt>
      <trkpt lat="45.27106" lon="4.60058">
        <ele>847.40002441406</ele>
        <time>2026-05-12T09:23:08.000Z</time>
      </trkpt>
      <trkpt lat="45.27106" lon="4.60057">
        <ele>847.59997558594</ele>
        <time>2026-05-12T09:23:09.000Z</time>
      </trkpt>
      <trkpt lat="45.27105" lon="4.60055">
        <ele>847.59997558594</ele>
        <time>2026-05-12T09:23:10.000Z</time>
      </trkpt>
      <trkpt lat="45.27104" lon="4.60053">
        <ele>847.79998779297</ele>
        <time>2026-05-12T09:23:11.000Z</time>
      </trkpt>
      <trkpt lat="45.27104" lon="4.60051">
        <ele>848</ele>
        <time>2026-05-12T09:23:12.000Z</time>
      </trkpt>
      <trkpt lat="45.27103" lon="4.60049">
        <ele>848</ele>
        <time>2026-05-12T09:23:13.000Z</time>
      </trkpt>
      <trkpt lat="45.27102" lon="4.60048">
        <ele>848.20001220703</ele>
        <time>2026-05-12T09:23:14.000Z</time>
      </trkpt>
      <trkpt lat="45.27101" lon="4.60046">
        <ele>848.40002441406</ele>
        <time>2026-05-12T09:23:15.000Z</time>
      </trkpt>
      <trkpt lat="45.271" lon="4.60044">
        <ele>848.59997558594</ele>
        <time>2026-05-12T09:23:16.000Z</time>
      </trkpt>
      <trkpt lat="45.271" lon="4.60043">
        <ele>848.79998779297</ele>
        <time>2026-05-12T09:23:17.000Z</time>
      </trkpt>
      <trkpt lat="45.27099" lon="4.60041">
        <ele>848.79998779297</ele>
        <time>2026-05-12T09:23:18.000Z</time>
      </trkpt>
      <trkpt lat="45.27098" lon="4.6004">
        <ele>849</ele>
        <time>2026-05-12T09:23:19.000Z</time>
      </trkpt>
      <trkpt lat="45.27097" lon="4.60039">
        <ele>849.20001220703</ele>
        <time>2026-05-12T09:23:20.000Z</time>
      </trkpt>
      <trkpt lat="45.27096" lon="4.60037">
        <ele>849.40002441406</ele>
        <time>2026-05-12T09:23:21.000Z</time>
      </trkpt>
      <trkpt lat="45.27095" lon="4.60036">
        <ele>849.59997558594</ele>
        <time>2026-05-12T09:23:22.000Z</time>
      </trkpt>
      <trkpt lat="45.27093" lon="4.60034">
        <ele>850</ele>
        <time>2026-05-12T09:23:23.000Z</time>
      </trkpt>
      <trkpt lat="45.27092" lon="4.60033">
        <ele>850.20001220703</ele>
        <time>2026-05-12T09:23:24.000Z</time>
      </trkpt>
      <trkpt lat="45.27092" lon="4.60031">
        <ele>850.40002441406</ele>
        <time>2026-05-12T09:23:25.000Z</time>
      </trkpt>
      <trkpt lat="45.27091" lon="4.60031">
        <ele>850.59997558594</ele>
        <time>2026-05-12T09:23:26.000Z</time>
      </trkpt>
      <trkpt lat="45.27089" lon="4.60029">
        <ele>850.79998779297</ele>
        <time>2026-05-12T09:23:27.000Z</time>
      </trkpt>
      <trkpt lat="45.27088" lon="4.60028">
        <ele>851</ele>
        <time>2026-05-12T09:23:28.000Z</time>
      </trkpt>
      <trkpt lat="45.27087" lon="4.60027">
        <ele>851.20001220703</ele>
        <time>2026-05-12T09:23:29.000Z</time>
      </trkpt>
      <trkpt lat="45.27085" lon="4.60025">
        <ele>851.40002441406</ele>
        <time>2026-05-12T09:23:30.000Z</time>
      </trkpt>
      <trkpt lat="45.27084" lon="4.60024">
        <ele>851.59997558594</ele>
        <time>2026-05-12T09:23:31.000Z</time>
      </trkpt>
      <trkpt lat="45.27083" lon="4.60023">
        <ele>851.79998779297</ele>
        <time>2026-05-12T09:23:32.000Z</time>
      </trkpt>
      <trkpt lat="45.27082" lon="4.60022">
        <ele>852</ele>
        <time>2026-05-12T09:23:33.000Z</time>
      </trkpt>
      <trkpt lat="45.2708" lon="4.60021">
        <ele>852.20001220703</ele>
        <time>2026-05-12T09:23:34.000Z</time>
      </trkpt>
      <trkpt lat="45.27079" lon="4.6002">
        <ele>852.40002441406</ele>
        <time>2026-05-12T09:23:35.000Z</time>
      </trkpt>
      <trkpt lat="45.27078" lon="4.60019">
        <ele>852.59997558594</ele>
        <time>2026-05-12T09:23:36.000Z</time>
      </trkpt>
      <trkpt lat="45.27076" lon="4.60018">
        <ele>852.79998779297</ele>
        <time>2026-05-12T09:23:37.000Z</time>
      </trkpt>
      <trkpt lat="45.27075" lon="4.60017">
        <ele>853</ele>
        <time>2026-05-12T09:23:38.000Z</time>
      </trkpt>
      <trkpt lat="45.27074" lon="4.60016">
        <ele>853.20001220703</ele>
        <time>2026-05-12T09:23:39.000Z</time>
      </trkpt>
      <trkpt lat="45.27072" lon="4.60015">
        <ele>853.40002441406</ele>
        <time>2026-05-12T09:23:40.000Z</time>
      </trkpt>
      <trkpt lat="45.27071" lon="4.60015">
        <ele>853.59997558594</ele>
        <time>2026-05-12T09:23:41.000Z</time>
      </trkpt>
      <trkpt lat="45.27069" lon="4.60014">
        <ele>853.79998779297</ele>
        <time>2026-05-12T09:23:42.000Z</time>
      </trkpt>
      <trkpt lat="45.27068" lon="4.60014">
        <ele>854</ele>
        <time>2026-05-12T09:23:43.000Z</time>
      </trkpt>
      <trkpt lat="45.27067" lon="4.60013">
        <ele>854.20001220703</ele>
        <time>2026-05-12T09:23:44.000Z</time>
      </trkpt>
      <trkpt lat="45.27065" lon="4.60012">
        <ele>854.20001220703</ele>
        <time>2026-05-12T09:23:45.000Z</time>
      </trkpt>
      <trkpt lat="45.27064" lon="4.60012">
        <ele>854.20001220703</ele>
        <time>2026-05-12T09:23:46.000Z</time>
      </trkpt>
      <trkpt lat="45.27063" lon="4.60011">
        <ele>854.20001220703</ele>
        <time>2026-05-12T09:23:47.000Z</time>
      </trkpt>
      <trkpt lat="45.27062" lon="4.6001">
        <ele>854.20001220703</ele>
        <time>2026-05-12T09:23:48.000Z</time>
      </trkpt>
      <trkpt lat="45.27061" lon="4.60009">
        <ele>854.20001220703</ele>
        <time>2026-05-12T09:23:49.000Z</time>
      </trkpt>
      <trkpt lat="45.27059" lon="4.60008">
        <ele>854.20001220703</ele>
        <time>2026-05-12T09:23:50.000Z</time>
      </trkpt>
      <trkpt lat="45.27058" lon="4.60007">
        <ele>854.20001220703</ele>
        <time>2026-05-12T09:23:51.000Z</time>
      </trkpt>
      <trkpt lat="45.27057" lon="4.60006">
        <ele>854.20001220703</ele>
        <time>2026-05-12T09:23:52.000Z</time>
      </trkpt>
      <trkpt lat="45.27057" lon="4.60005">
        <ele>854.40002441406</ele>
        <time>2026-05-12T09:23:53.000Z</time>
      </trkpt>
      <trkpt lat="45.27056" lon="4.60004">
        <ele>854.40002441406</ele>
        <time>2026-05-12T09:23:54.000Z</time>
      </trkpt>
      <trkpt lat="45.27056" lon="4.60004">
        <ele>854.40002441406</ele>
        <time>2026-05-12T09:23:55.000Z</time>
      </trkpt>
      <trkpt lat="45.27056" lon="4.60004">
        <ele>854.40002441406</ele>
        <time>2026-05-12T09:23:56.000Z</time>
      </trkpt>
      <trkpt lat="45.27047" lon="4.59998">
        <ele>854.20001220703</ele>
        <time>2026-05-12T09:28:10.000Z</time>
      </trkpt>
      <trkpt lat="45.27046" lon="4.59996">
        <ele>854.20001220703</ele>
        <time>2026-05-12T09:28:11.000Z</time>
      </trkpt>
      <trkpt lat="45.27045" lon="4.59995">
        <ele>854.20001220703</ele>
        <time>2026-05-12T09:28:12.000Z</time>
      </trkpt>
      <trkpt lat="45.27043" lon="4.59995">
        <ele>854.20001220703</ele>
        <time>2026-05-12T09:28:13.000Z</time>
      </trkpt>
      <trkpt lat="45.27042" lon="4.59994">
        <ele>854.20001220703</ele>
        <time>2026-05-12T09:28:14.000Z</time>
      </trkpt>
      <trkpt lat="45.2704" lon="4.59992">
        <ele>854.20001220703</ele>
        <time>2026-05-12T09:28:15.000Z</time>
      </trkpt>
      <trkpt lat="45.27039" lon="4.59991">
        <ele>854.20001220703</ele>
        <time>2026-05-12T09:28:16.000Z</time>
      </trkpt>
      <trkpt lat="45.27037" lon="4.5999">
        <ele>854.20001220703</ele>
        <time>2026-05-12T09:28:17.000Z</time>
      </trkpt>
      <trkpt lat="45.27036" lon="4.59989">
        <ele>854.40002441406</ele>
        <time>2026-05-12T09:28:18.000Z</time>
      </trkpt>
      <trkpt lat="45.27035" lon="4.59988">
        <ele>854.40002441406</ele>
        <time>2026-05-12T09:28:19.000Z</time>
      </trkpt>
      <trkpt lat="45.27034" lon="4.59987">
        <ele>854.40002441406</ele>
        <time>2026-05-12T09:28:20.000Z</time>
      </trkpt>
      <trkpt lat="45.27032" lon="4.59986">
        <ele>854.40002441406</ele>
        <time>2026-05-12T09:28:21.000Z</time>
      </trkpt>
      <trkpt lat="45.27031" lon="4.59984">
        <ele>854.40002441406</ele>
        <time>2026-05-12T09:28:22.000Z</time>
      </trkpt>
      <trkpt lat="45.2703" lon="4.59983">
        <ele>854.59997558594</ele>
        <time>2026-05-12T09:28:23.000Z</time>
      </trkpt>
      <trkpt lat="45.27029" lon="4.59982">
        <ele>854.59997558594</ele>
        <time>2026-05-12T09:28:24.000Z</time>
      </trkpt>
      <trkpt lat="45.27027" lon="4.59981">
        <ele>854.59997558594</ele>
        <time>2026-05-12T09:28:25.000Z</time>
      </trkpt>
      <trkpt lat="45.27026" lon="4.5998">
        <ele>854.79998779297</ele>
        <time>2026-05-12T09:28:26.000Z</time>
      </trkpt>
      <trkpt lat="45.27024" lon="4.59978">
        <ele>854.79998779297</ele>
        <time>2026-05-12T09:28:27.000Z</time>
      </trkpt>
      <trkpt lat="45.27023" lon="4.59977">
        <ele>854.79998779297</ele>
        <time>2026-05-12T09:28:28.000Z</time>
      </trkpt>
      <trkpt lat="45.27022" lon="4.59975">
        <ele>855</ele>
        <time>2026-05-12T09:28:29.000Z</time>
      </trkpt>
      <trkpt lat="45.2702" lon="4.59974">
        <ele>855</ele>
        <time>2026-05-12T09:28:30.000Z</time>
      </trkpt>
      <trkpt lat="45.27019" lon="4.59973">
        <ele>855</ele>
        <time>2026-05-12T09:28:31.000Z</time>
      </trkpt>
      <trkpt lat="45.27018" lon="4.59972">
        <ele>855.20001220703</ele>
        <time>2026-05-12T09:28:32.000Z</time>
      </trkpt>
      <trkpt lat="45.27017" lon="4.59971">
        <ele>855.20001220703</ele>
        <time>2026-05-12T09:28:33.000Z</time>
      </trkpt>
      <trkpt lat="45.27015" lon="4.5997">
        <ele>855.40002441406</ele>
        <time>2026-05-12T09:28:34.000Z</time>
      </trkpt>
      <trkpt lat="45.27014" lon="4.59969">
        <ele>855.40002441406</ele>
        <time>2026-05-12T09:28:35.000Z</time>
      </trkpt>
      <trkpt lat="45.27012" lon="4.59968">
        <ele>855.59997558594</ele>
        <time>2026-05-12T09:28:36.000Z</time>
      </trkpt>
      <trkpt lat="45.27011" lon="4.59966">
        <ele>855.59997558594</ele>
        <time>2026-05-12T09:28:37.000Z</time>
      </trkpt>
      <trkpt lat="45.2701" lon="4.59965">
        <ele>855.59997558594</ele>
        <time>2026-05-12T09:28:38.000Z</time>
      </trkpt>
      <trkpt lat="45.27008" lon="4.59963">
        <ele>855.79998779297</ele>
        <time>2026-05-12T09:28:39.000Z</time>
      </trkpt>
      <trkpt lat="45.27007" lon="4.59962">
        <ele>855.79998779297</ele>
        <time>2026-05-12T09:28:40.000Z</time>
      </trkpt>
      <trkpt lat="45.27005" lon="4.5996">
        <ele>855.79998779297</ele>
        <time>2026-05-12T09:28:41.000Z</time>
      </trkpt>
      <trkpt lat="45.27004" lon="4.59959">
        <ele>856</ele>
        <time>2026-05-12T09:28:42.000Z</time>
      </trkpt>
      <trkpt lat="45.27002" lon="4.59958">
        <ele>856</ele>
        <time>2026-05-12T09:28:43.000Z</time>
      </trkpt>
      <trkpt lat="45.27001" lon="4.59957">
        <ele>856</ele>
        <time>2026-05-12T09:28:44.000Z</time>
      </trkpt>
      <trkpt lat="45.26999" lon="4.59956">
        <ele>856.20001220703</ele>
        <time>2026-05-12T09:28:45.000Z</time>
      </trkpt>
      <trkpt lat="45.26998" lon="4.59954">
        <ele>856.20001220703</ele>
        <time>2026-05-12T09:28:46.000Z</time>
      </trkpt>
      <trkpt lat="45.26996" lon="4.59953">
        <ele>856.40002441406</ele>
        <time>2026-05-12T09:28:47.000Z</time>
      </trkpt>
      <trkpt lat="45.26995" lon="4.59952">
        <ele>856.40002441406</ele>
        <time>2026-05-12T09:28:48.000Z</time>
      </trkpt>
      <trkpt lat="45.26993" lon="4.59951">
        <ele>856.59997558594</ele>
        <time>2026-05-12T09:28:49.000Z</time>
      </trkpt>
      <trkpt lat="45.26992" lon="4.5995">
        <ele>856.59997558594</ele>
        <time>2026-05-12T09:28:50.000Z</time>
      </trkpt>
      <trkpt lat="45.2699" lon="4.59948">
        <ele>856.59997558594</ele>
        <time>2026-05-12T09:28:51.000Z</time>
      </trkpt>
      <trkpt lat="45.26989" lon="4.59947">
        <ele>856.79998779297</ele>
        <time>2026-05-12T09:28:52.000Z</time>
      </trkpt>
      <trkpt lat="45.26988" lon="4.59946">
        <ele>856.79998779297</ele>
        <time>2026-05-12T09:28:53.000Z</time>
      </trkpt>
      <trkpt lat="45.26986" lon="4.59945">
        <ele>857</ele>
        <time>2026-05-12T09:28:54.000Z</time>
      </trkpt>
      <trkpt lat="45.26984" lon="4.59944">
        <ele>857.20001220703</ele>
        <time>2026-05-12T09:28:55.000Z</time>
      </trkpt>
      <trkpt lat="45.26983" lon="4.59943">
        <ele>857.20001220703</ele>
        <time>2026-05-12T09:28:56.000Z</time>
      </trkpt>
      <trkpt lat="45.26981" lon="4.59942">
        <ele>857.20001220703</ele>
        <time>2026-05-12T09:28:57.000Z</time>
      </trkpt>
      <trkpt lat="45.2698" lon="4.59941">
        <ele>857.40002441406</ele>
        <time>2026-05-12T09:28:58.000Z</time>
      </trkpt>
      <trkpt lat="45.26978" lon="4.5994">
        <ele>857.59997558594</ele>
        <time>2026-05-12T09:28:59.000Z</time>
      </trkpt>
      <trkpt lat="45.26977" lon="4.59939">
        <ele>857.59997558594</ele>
        <time>2026-05-12T09:29:00.000Z</time>
      </trkpt>
      <trkpt lat="45.26975" lon="4.59938">
        <ele>857.79998779297</ele>
        <time>2026-05-12T09:29:01.000Z</time>
      </trkpt>
      <trkpt lat="45.26974" lon="4.59936">
        <ele>858</ele>
        <time>2026-05-12T09:29:02.000Z</time>
      </trkpt>
      <trkpt lat="45.26973" lon="4.59935">
        <ele>858.20001220703</ele>
        <time>2026-05-12T09:29:03.000Z</time>
      </trkpt>
      <trkpt lat="45.26972" lon="4.59933">
        <ele>858.40002441406</ele>
        <time>2026-05-12T09:29:04.000Z</time>
      </trkpt>
      <trkpt lat="45.2697" lon="4.59932">
        <ele>858.40002441406</ele>
        <time>2026-05-12T09:29:05.000Z</time>
      </trkpt>
      <trkpt lat="45.26969" lon="4.59931">
        <ele>858.59997558594</ele>
        <time>2026-05-12T09:29:06.000Z</time>
      </trkpt>
      <trkpt lat="45.26968" lon="4.5993">
        <ele>858.79998779297</ele>
        <time>2026-05-12T09:29:07.000Z</time>
      </trkpt>
      <trkpt lat="45.26967" lon="4.59928">
        <ele>859</ele>
        <time>2026-05-12T09:29:08.000Z</time>
      </trkpt>
      <trkpt lat="45.26966" lon="4.59927">
        <ele>859</ele>
        <time>2026-05-12T09:29:09.000Z</time>
      </trkpt>
      <trkpt lat="45.26964" lon="4.59926">
        <ele>859.20001220703</ele>
        <time>2026-05-12T09:29:10.000Z</time>
      </trkpt>
      <trkpt lat="45.26963" lon="4.59924">
        <ele>859.40002441406</ele>
        <time>2026-05-12T09:29:11.000Z</time>
      </trkpt>
      <trkpt lat="45.26962" lon="4.59923">
        <ele>859.59997558594</ele>
        <time>2026-05-12T09:29:12.000Z</time>
      </trkpt>
      <trkpt lat="45.26961" lon="4.59921">
        <ele>859.59997558594</ele>
        <time>2026-05-12T09:29:13.000Z</time>
      </trkpt>
      <trkpt lat="45.2696" lon="4.5992">
        <ele>859.79998779297</ele>
        <time>2026-05-12T09:29:14.000Z</time>
      </trkpt>
      <trkpt lat="45.26959" lon="4.59918">
        <ele>860</ele>
        <time>2026-05-12T09:29:15.000Z</time>
      </trkpt>
      <trkpt lat="45.26958" lon="4.59916">
        <ele>860.20001220703</ele>
        <time>2026-05-12T09:29:16.000Z</time>
      </trkpt>
      <trkpt lat="45.26957" lon="4.59914">
        <ele>860.40002441406</ele>
        <time>2026-05-12T09:29:17.000Z</time>
      </trkpt>
      <trkpt lat="45.26956" lon="4.59913">
        <ele>860.59997558594</ele>
        <time>2026-05-12T09:29:18.000Z</time>
      </trkpt>
      <trkpt lat="45.26955" lon="4.59911">
        <ele>860.79998779297</ele>
        <time>2026-05-12T09:29:19.000Z</time>
      </trkpt>
      <trkpt lat="45.26954" lon="4.5991">
        <ele>861</ele>
        <time>2026-05-12T09:29:20.000Z</time>
      </trkpt>
      <trkpt lat="45.26953" lon="4.59909">
        <ele>861</ele>
        <time>2026-05-12T09:29:21.000Z</time>
      </trkpt>
      <trkpt lat="45.26951" lon="4.59907">
        <ele>861.20001220703</ele>
        <time>2026-05-12T09:29:22.000Z</time>
      </trkpt>
      <trkpt lat="45.2695" lon="4.59906">
        <ele>861.20001220703</ele>
        <time>2026-05-12T09:29:23.000Z</time>
      </trkpt>
      <trkpt lat="45.26949" lon="4.59904">
        <ele>861.20001220703</ele>
        <time>2026-05-12T09:29:24.000Z</time>
      </trkpt>
      <trkpt lat="45.26947" lon="4.59902">
        <ele>861.40002441406</ele>
        <time>2026-05-12T09:29:25.000Z</time>
      </trkpt>
      <trkpt lat="45.26946" lon="4.599">
        <ele>861.40002441406</ele>
        <time>2026-05-12T09:29:26.000Z</time>
      </trkpt>
      <trkpt lat="45.26944" lon="4.59898">
        <ele>861.20001220703</ele>
        <time>2026-05-12T09:29:27.000Z</time>
      </trkpt>
      <trkpt lat="45.26943" lon="4.59896">
        <ele>861.20001220703</ele>
        <time>2026-05-12T09:29:28.000Z</time>
      </trkpt>
      <trkpt lat="45.26941" lon="4.59894">
        <ele>861.20001220703</ele>
        <time>2026-05-12T09:29:29.000Z</time>
      </trkpt>
      <trkpt lat="45.26939" lon="4.59891">
        <ele>861.20001220703</ele>
        <time>2026-05-12T09:29:30.000Z</time>
      </trkpt>
      <trkpt lat="45.26937" lon="4.59889">
        <ele>861</ele>
        <time>2026-05-12T09:29:31.000Z</time>
      </trkpt>
      <trkpt lat="45.26935" lon="4.59885">
        <ele>860.79998779297</ele>
        <time>2026-05-12T09:29:32.000Z</time>
      </trkpt>
      <trkpt lat="45.26932" lon="4.59882">
        <ele>860.59997558594</ele>
        <time>2026-05-12T09:29:33.000Z</time>
      </trkpt>
      <trkpt lat="45.2693" lon="4.59878">
        <ele>860.40002441406</ele>
        <time>2026-05-12T09:29:34.000Z</time>
      </trkpt>
      <trkpt lat="45.26927" lon="4.59875">
        <ele>860.20001220703</ele>
        <time>2026-05-12T09:29:35.000Z</time>
      </trkpt>
      <trkpt lat="45.26925" lon="4.59872">
        <ele>860.20001220703</ele>
        <time>2026-05-12T09:29:36.000Z</time>
      </trkpt>
      <trkpt lat="45.26922" lon="4.59868">
        <ele>860</ele>
        <time>2026-05-12T09:29:37.000Z</time>
      </trkpt>
      <trkpt lat="45.2692" lon="4.59865">
        <ele>860</ele>
        <time>2026-05-12T09:29:38.000Z</time>
      </trkpt>
      <trkpt lat="45.26918" lon="4.59862">
        <ele>859.79998779297</ele>
        <time>2026-05-12T09:29:39.000Z</time>
      </trkpt>
      <trkpt lat="45.26916" lon="4.5986">
        <ele>859.79998779297</ele>
        <time>2026-05-12T09:29:40.000Z</time>
      </trkpt>
      <trkpt lat="45.26914" lon="4.59857">
        <ele>859.79998779297</ele>
        <time>2026-05-12T09:29:41.000Z</time>
      </trkpt>
      <trkpt lat="45.26912" lon="4.59855">
        <ele>859.79998779297</ele>
        <time>2026-05-12T09:29:42.000Z</time>
      </trkpt>
      <trkpt lat="45.26911" lon="4.59852">
        <ele>860</ele>
        <time>2026-05-12T09:29:43.000Z</time>
      </trkpt>
      <trkpt lat="45.26909" lon="4.5985">
        <ele>860</ele>
        <time>2026-05-12T09:29:44.000Z</time>
      </trkpt>
      <trkpt lat="45.26908" lon="4.59848">
        <ele>860</ele>
        <time>2026-05-12T09:29:45.000Z</time>
      </trkpt>
      <trkpt lat="45.26906" lon="4.59845">
        <ele>860</ele>
        <time>2026-05-12T09:29:46.000Z</time>
      </trkpt>
      <trkpt lat="45.26905" lon="4.59843">
        <ele>860.20001220703</ele>
        <time>2026-05-12T09:29:47.000Z</time>
      </trkpt>
      <trkpt lat="45.26903" lon="4.59841">
        <ele>860.20001220703</ele>
        <time>2026-05-12T09:29:48.000Z</time>
      </trkpt>
      <trkpt lat="45.26902" lon="4.59838">
        <ele>860.20001220703</ele>
        <time>2026-05-12T09:29:49.000Z</time>
      </trkpt>
      <trkpt lat="45.26901" lon="4.59836">
        <ele>860.20001220703</ele>
        <time>2026-05-12T09:29:50.000Z</time>
      </trkpt>
      <trkpt lat="45.269" lon="4.59833">
        <ele>860.20001220703</ele>
        <time>2026-05-12T09:29:51.000Z</time>
      </trkpt>
      <trkpt lat="45.26899" lon="4.5983">
        <ele>860.40002441406</ele>
        <time>2026-05-12T09:29:52.000Z</time>
      </trkpt>
      <trkpt lat="45.26898" lon="4.59827">
        <ele>860.40002441406</ele>
        <time>2026-05-12T09:29:53.000Z</time>
      </trkpt>
      <trkpt lat="45.26898" lon="4.59824">
        <ele>860.40002441406</ele>
        <time>2026-05-12T09:29:54.000Z</time>
      </trkpt>
      <trkpt lat="45.26897" lon="4.59821">
        <ele>860.59997558594</ele>
        <time>2026-05-12T09:29:55.000Z</time>
      </trkpt>
      <trkpt lat="45.26896" lon="4.59818">
        <ele>860.59997558594</ele>
        <time>2026-05-12T09:29:56.000Z</time>
      </trkpt>
      <trkpt lat="45.26895" lon="4.59815">
        <ele>860.79998779297</ele>
        <time>2026-05-12T09:29:57.000Z</time>
      </trkpt>
      <trkpt lat="45.26894" lon="4.59812">
        <ele>860.79998779297</ele>
        <time>2026-05-12T09:29:58.000Z</time>
      </trkpt>
      <trkpt lat="45.26893" lon="4.5981">
        <ele>861</ele>
        <time>2026-05-12T09:29:59.000Z</time>
      </trkpt>
      <trkpt lat="45.26892" lon="4.59807">
        <ele>861</ele>
        <time>2026-05-12T09:30:00.000Z</time>
      </trkpt>
      <trkpt lat="45.26891" lon="4.59805">
        <ele>861.20001220703</ele>
        <time>2026-05-12T09:30:01.000Z</time>
      </trkpt>
      <trkpt lat="45.26891" lon="4.59802">
        <ele>861.20001220703</ele>
        <time>2026-05-12T09:30:02.000Z</time>
      </trkpt>
      <trkpt lat="45.2689" lon="4.59799">
        <ele>861.40002441406</ele>
        <time>2026-05-12T09:30:03.000Z</time>
      </trkpt>
      <trkpt lat="45.2689" lon="4.59796">
        <ele>861.40002441406</ele>
        <time>2026-05-12T09:30:04.000Z</time>
      </trkpt>
      <trkpt lat="45.26889" lon="4.59793">
        <ele>861.59997558594</ele>
        <time>2026-05-12T09:30:05.000Z</time>
      </trkpt>
      <trkpt lat="45.26889" lon="4.5979">
        <ele>861.59997558594</ele>
        <time>2026-05-12T09:30:06.000Z</time>
      </trkpt>
      <trkpt lat="45.26888" lon="4.59787">
        <ele>861.59997558594</ele>
        <time>2026-05-12T09:30:07.000Z</time>
      </trkpt>
      <trkpt lat="45.26888" lon="4.59784">
        <ele>861.79998779297</ele>
        <time>2026-05-12T09:30:08.000Z</time>
      </trkpt>
      <trkpt lat="45.26888" lon="4.59781">
        <ele>861.79998779297</ele>
        <time>2026-05-12T09:30:09.000Z</time>
      </trkpt>
      <trkpt lat="45.26887" lon="4.59778">
        <ele>862</ele>
        <time>2026-05-12T09:30:10.000Z</time>
      </trkpt>
      <trkpt lat="45.26886" lon="4.59775">
        <ele>862</ele>
        <time>2026-05-12T09:30:11.000Z</time>
      </trkpt>
      <trkpt lat="45.26886" lon="4.59773">
        <ele>862.20001220703</ele>
        <time>2026-05-12T09:30:12.000Z</time>
      </trkpt>
      <trkpt lat="45.26886" lon="4.5977">
        <ele>862.20001220703</ele>
        <time>2026-05-12T09:30:13.000Z</time>
      </trkpt>
      <trkpt lat="45.26885" lon="4.59767">
        <ele>862.40002441406</ele>
        <time>2026-05-12T09:30:14.000Z</time>
      </trkpt>
      <trkpt lat="45.26885" lon="4.59764">
        <ele>862.59997558594</ele>
        <time>2026-05-12T09:30:15.000Z</time>
      </trkpt>
      <trkpt lat="45.26885" lon="4.59762">
        <ele>862.79998779297</ele>
        <time>2026-05-12T09:30:16.000Z</time>
      </trkpt>
      <trkpt lat="45.26884" lon="4.59759">
        <ele>863</ele>
        <time>2026-05-12T09:30:17.000Z</time>
      </trkpt>
      <trkpt lat="45.26884" lon="4.59756">
        <ele>863.20001220703</ele>
        <time>2026-05-12T09:30:18.000Z</time>
      </trkpt>
      <trkpt lat="45.26883" lon="4.59753">
        <ele>863.20001220703</ele>
        <time>2026-05-12T09:30:19.000Z</time>
      </trkpt>
      <trkpt lat="45.26883" lon="4.59751">
        <ele>863.40002441406</ele>
        <time>2026-05-12T09:30:20.000Z</time>
      </trkpt>
      <trkpt lat="45.26882" lon="4.59748">
        <ele>863.40002441406</ele>
        <time>2026-05-12T09:30:21.000Z</time>
      </trkpt>
      <trkpt lat="45.26882" lon="4.59745">
        <ele>863.40002441406</ele>
        <time>2026-05-12T09:30:22.000Z</time>
      </trkpt>
      <trkpt lat="45.26882" lon="4.59742">
        <ele>863.40002441406</ele>
        <time>2026-05-12T09:30:23.000Z</time>
      </trkpt>
      <trkpt lat="45.26882" lon="4.59739">
        <ele>863.59997558594</ele>
        <time>2026-05-12T09:30:24.000Z</time>
      </trkpt>
      <trkpt lat="45.26881" lon="4.59736">
        <ele>863.59997558594</ele>
        <time>2026-05-12T09:30:25.000Z</time>
      </trkpt>
      <trkpt lat="45.26881" lon="4.59733">
        <ele>863.79998779297</ele>
        <time>2026-05-12T09:30:26.000Z</time>
      </trkpt>
      <trkpt lat="45.26881" lon="4.59731">
        <ele>863.79998779297</ele>
        <time>2026-05-12T09:30:27.000Z</time>
      </trkpt>
      <trkpt lat="45.2688" lon="4.59728">
        <ele>864</ele>
        <time>2026-05-12T09:30:28.000Z</time>
      </trkpt>
      <trkpt lat="45.2688" lon="4.59725">
        <ele>864</ele>
        <time>2026-05-12T09:30:29.000Z</time>
      </trkpt>
      <trkpt lat="45.26879" lon="4.59723">
        <ele>864.20001220703</ele>
        <time>2026-05-12T09:30:30.000Z</time>
      </trkpt>
      <trkpt lat="45.26879" lon="4.5972">
        <ele>864.40002441406</ele>
        <time>2026-05-12T09:30:31.000Z</time>
      </trkpt>
      <trkpt lat="45.26879" lon="4.59717">
        <ele>864.40002441406</ele>
        <time>2026-05-12T09:30:32.000Z</time>
      </trkpt>
      <trkpt lat="45.26878" lon="4.59715">
        <ele>864.59997558594</ele>
        <time>2026-05-12T09:30:33.000Z</time>
      </trkpt>
      <trkpt lat="45.26878" lon="4.59712">
        <ele>864.79998779297</ele>
        <time>2026-05-12T09:30:34.000Z</time>
      </trkpt>
      <trkpt lat="45.26877" lon="4.59709">
        <ele>865</ele>
        <time>2026-05-12T09:30:35.000Z</time>
      </trkpt>
      <trkpt lat="45.26876" lon="4.59706">
        <ele>865.20001220703</ele>
        <time>2026-05-12T09:30:36.000Z</time>
      </trkpt>
      <trkpt lat="45.26876" lon="4.59704">
        <ele>865.40002441406</ele>
        <time>2026-05-12T09:30:37.000Z</time>
      </trkpt>
      <trkpt lat="45.26875" lon="4.59701">
        <ele>865.59997558594</ele>
        <time>2026-05-12T09:30:38.000Z</time>
      </trkpt>
      <trkpt lat="45.26875" lon="4.59698">
        <ele>865.79998779297</ele>
        <time>2026-05-12T09:30:39.000Z</time>
      </trkpt>
      <trkpt lat="45.26874" lon="4.59696">
        <ele>866</ele>
        <time>2026-05-12T09:30:40.000Z</time>
      </trkpt>
      <trkpt lat="45.26874" lon="4.59693">
        <ele>866.20001220703</ele>
        <time>2026-05-12T09:30:41.000Z</time>
      </trkpt>
      <trkpt lat="45.26874" lon="4.5969">
        <ele>866.40002441406</ele>
        <time>2026-05-12T09:30:42.000Z</time>
      </trkpt>
      <trkpt lat="45.26873" lon="4.59688">
        <ele>866.59997558594</ele>
        <time>2026-05-12T09:30:43.000Z</time>
      </trkpt>
      <trkpt lat="45.26873" lon="4.59685">
        <ele>866.79998779297</ele>
        <time>2026-05-12T09:30:44.000Z</time>
      </trkpt>
      <trkpt lat="45.26873" lon="4.59682">
        <ele>867</ele>
        <time>2026-05-12T09:30:45.000Z</time>
      </trkpt>
      <trkpt lat="45.26873" lon="4.59679">
        <ele>867.20001220703</ele>
        <time>2026-05-12T09:30:46.000Z</time>
      </trkpt>
      <trkpt lat="45.26872" lon="4.59676">
        <ele>867.40002441406</ele>
        <time>2026-05-12T09:30:47.000Z</time>
      </trkpt>
      <trkpt lat="45.26872" lon="4.59673">
        <ele>867.59997558594</ele>
        <time>2026-05-12T09:30:48.000Z</time>
      </trkpt>
      <trkpt lat="45.26872" lon="4.5967">
        <ele>867.79998779297</ele>
        <time>2026-05-12T09:30:49.000Z</time>
      </trkpt>
      <trkpt lat="45.26871" lon="4.59667">
        <ele>868</ele>
        <time>2026-05-12T09:30:50.000Z</time>
      </trkpt>
      <trkpt lat="45.26871" lon="4.59664">
        <ele>868.20001220703</ele>
        <time>2026-05-12T09:30:51.000Z</time>
      </trkpt>
      <trkpt lat="45.2687" lon="4.59662">
        <ele>868.40002441406</ele>
        <time>2026-05-12T09:30:52.000Z</time>
      </trkpt>
      <trkpt lat="45.2687" lon="4.59659">
        <ele>868.59997558594</ele>
        <time>2026-05-12T09:30:53.000Z</time>
      </trkpt>
      <trkpt lat="45.26869" lon="4.59656">
        <ele>868.59997558594</ele>
        <time>2026-05-12T09:30:54.000Z</time>
      </trkpt>
      <trkpt lat="45.26869" lon="4.59654">
        <ele>868.79998779297</ele>
        <time>2026-05-12T09:30:55.000Z</time>
      </trkpt>
      <trkpt lat="45.26869" lon="4.59651">
        <ele>869.20001220703</ele>
        <time>2026-05-12T09:30:56.000Z</time>
      </trkpt>
      <trkpt lat="45.26868" lon="4.59648">
        <ele>869.40002441406</ele>
        <time>2026-05-12T09:30:57.000Z</time>
      </trkpt>
      <trkpt lat="45.26868" lon="4.59645">
        <ele>869.59997558594</ele>
        <time>2026-05-12T09:30:58.000Z</time>
      </trkpt>
      <trkpt lat="45.26867" lon="4.59642">
        <ele>869.79998779297</ele>
        <time>2026-05-12T09:30:59.000Z</time>
      </trkpt>
      <trkpt lat="45.26866" lon="4.5964">
        <ele>869.79998779297</ele>
        <time>2026-05-12T09:31:00.000Z</time>
      </trkpt>
      <trkpt lat="45.26866" lon="4.59637">
        <ele>870</ele>
        <time>2026-05-12T09:31:01.000Z</time>
      </trkpt>
      <trkpt lat="45.26865" lon="4.59635">
        <ele>870.20001220703</ele>
        <time>2026-05-12T09:31:02.000Z</time>
      </trkpt>
      <trkpt lat="45.26865" lon="4.59632">
        <ele>870.40002441406</ele>
        <time>2026-05-12T09:31:03.000Z</time>
      </trkpt>
      <trkpt lat="45.26864" lon="4.59629">
        <ele>870.59997558594</ele>
        <time>2026-05-12T09:31:04.000Z</time>
      </trkpt>
      <trkpt lat="45.26864" lon="4.59627">
        <ele>870.79998779297</ele>
        <time>2026-05-12T09:31:05.000Z</time>
      </trkpt>
      <trkpt lat="45.26863" lon="4.59624">
        <ele>871</ele>
        <time>2026-05-12T09:31:06.000Z</time>
      </trkpt>
      <trkpt lat="45.26862" lon="4.59622">
        <ele>871.20001220703</ele>
        <time>2026-05-12T09:31:07.000Z</time>
      </trkpt>
      <trkpt lat="45.26862" lon="4.59619">
        <ele>871.40002441406</ele>
        <time>2026-05-12T09:31:08.000Z</time>
      </trkpt>
      <trkpt lat="45.26862" lon="4.59616">
        <ele>871.59997558594</ele>
        <time>2026-05-12T09:31:09.000Z</time>
      </trkpt>
      <trkpt lat="45.26861" lon="4.59613">
        <ele>871.79998779297</ele>
        <time>2026-05-12T09:31:10.000Z</time>
      </trkpt>
      <trkpt lat="45.26861" lon="4.59611">
        <ele>872</ele>
        <time>2026-05-12T09:31:11.000Z</time>
      </trkpt>
      <trkpt lat="45.2686" lon="4.59608">
        <ele>872</ele>
        <time>2026-05-12T09:31:12.000Z</time>
      </trkpt>
      <trkpt lat="45.2686" lon="4.59606">
        <ele>872.20001220703</ele>
        <time>2026-05-12T09:31:13.000Z</time>
      </trkpt>
      <trkpt lat="45.26859" lon="4.59603">
        <ele>872.40002441406</ele>
        <time>2026-05-12T09:31:14.000Z</time>
      </trkpt>
      <trkpt lat="45.26858" lon="4.596">
        <ele>872.59997558594</ele>
        <time>2026-05-12T09:31:15.000Z</time>
      </trkpt>
      <trkpt lat="45.26857" lon="4.59597">
        <ele>872.79998779297</ele>
        <time>2026-05-12T09:31:16.000Z</time>
      </trkpt>
      <trkpt lat="45.26857" lon="4.59595">
        <ele>873</ele>
        <time>2026-05-12T09:31:17.000Z</time>
      </trkpt>
      <trkpt lat="45.26856" lon="4.59593">
        <ele>873.20001220703</ele>
        <time>2026-05-12T09:31:18.000Z</time>
      </trkpt>
      <trkpt lat="45.26855" lon="4.5959">
        <ele>873.40002441406</ele>
        <time>2026-05-12T09:31:19.000Z</time>
      </trkpt>
      <trkpt lat="45.26854" lon="4.59587">
        <ele>873.59997558594</ele>
        <time>2026-05-12T09:31:20.000Z</time>
      </trkpt>
      <trkpt lat="45.26853" lon="4.59584">
        <ele>873.79998779297</ele>
        <time>2026-05-12T09:31:21.000Z</time>
      </trkpt>
      <trkpt lat="45.26852" lon="4.59582">
        <ele>873.79998779297</ele>
        <time>2026-05-12T09:31:22.000Z</time>
      </trkpt>
      <trkpt lat="45.26851" lon="4.59579">
        <ele>874</ele>
        <time>2026-05-12T09:31:23.000Z</time>
      </trkpt>
      <trkpt lat="45.2685" lon="4.59576">
        <ele>874.20001220703</ele>
        <time>2026-05-12T09:31:24.000Z</time>
      </trkpt>
      <trkpt lat="45.26849" lon="4.59573">
        <ele>874.40002441406</ele>
        <time>2026-05-12T09:31:25.000Z</time>
      </trkpt>
      <trkpt lat="45.26849" lon="4.59571">
        <ele>874.40002441406</ele>
        <time>2026-05-12T09:31:26.000Z</time>
      </trkpt>
      <trkpt lat="45.26848" lon="4.59569">
        <ele>874.59997558594</ele>
        <time>2026-05-12T09:31:27.000Z</time>
      </trkpt>
      <trkpt lat="45.26847" lon="4.59567">
        <ele>874.79998779297</ele>
        <time>2026-05-12T09:31:28.000Z</time>
      </trkpt>
      <trkpt lat="45.26846" lon="4.59565">
        <ele>875</ele>
        <time>2026-05-12T09:31:29.000Z</time>
      </trkpt>
      <trkpt lat="45.26845" lon="4.59563">
        <ele>875.20001220703</ele>
        <time>2026-05-12T09:31:30.000Z</time>
      </trkpt>
      <trkpt lat="45.26844" lon="4.59561">
        <ele>875.40002441406</ele>
        <time>2026-05-12T09:31:31.000Z</time>
      </trkpt>
      <trkpt lat="45.26843" lon="4.59559">
        <ele>875.40002441406</ele>
        <time>2026-05-12T09:31:32.000Z</time>
      </trkpt>
      <trkpt lat="45.26842" lon="4.59557">
        <ele>875.59997558594</ele>
        <time>2026-05-12T09:31:33.000Z</time>
      </trkpt>
      <trkpt lat="45.26842" lon="4.59555">
        <ele>875.79998779297</ele>
        <time>2026-05-12T09:31:34.000Z</time>
      </trkpt>
      <trkpt lat="45.26841" lon="4.59553">
        <ele>875.79998779297</ele>
        <time>2026-05-12T09:31:35.000Z</time>
      </trkpt>
      <trkpt lat="45.2684" lon="4.59551">
        <ele>876</ele>
        <time>2026-05-12T09:31:36.000Z</time>
      </trkpt>
      <trkpt lat="45.26839" lon="4.59549">
        <ele>876</ele>
        <time>2026-05-12T09:31:37.000Z</time>
      </trkpt>
      <trkpt lat="45.26839" lon="4.59547">
        <ele>876.20001220703</ele>
        <time>2026-05-12T09:31:38.000Z</time>
      </trkpt>
      <trkpt lat="45.26838" lon="4.59545">
        <ele>876.20001220703</ele>
        <time>2026-05-12T09:31:39.000Z</time>
      </trkpt>
      <trkpt lat="45.26837" lon="4.59543">
        <ele>876.40002441406</ele>
        <time>2026-05-12T09:31:40.000Z</time>
      </trkpt>
      <trkpt lat="45.26837" lon="4.59541">
        <ele>876.40002441406</ele>
        <time>2026-05-12T09:31:41.000Z</time>
      </trkpt>
      <trkpt lat="45.26836" lon="4.59539">
        <ele>876.59997558594</ele>
        <time>2026-05-12T09:31:42.000Z</time>
      </trkpt>
      <trkpt lat="45.26835" lon="4.59537">
        <ele>876.79998779297</ele>
        <time>2026-05-12T09:31:43.000Z</time>
      </trkpt>
      <trkpt lat="45.26834" lon="4.59536">
        <ele>877</ele>
        <time>2026-05-12T09:31:44.000Z</time>
      </trkpt>
      <trkpt lat="45.26833" lon="4.59534">
        <ele>877</ele>
        <time>2026-05-12T09:31:45.000Z</time>
      </trkpt>
      <trkpt lat="45.26832" lon="4.59532">
        <ele>877.20001220703</ele>
        <time>2026-05-12T09:31:46.000Z</time>
      </trkpt>
      <trkpt lat="45.26832" lon="4.5953">
        <ele>877.40002441406</ele>
        <time>2026-05-12T09:31:47.000Z</time>
      </trkpt>
      <trkpt lat="45.26831" lon="4.59528">
        <ele>877.40002441406</ele>
        <time>2026-05-12T09:31:48.000Z</time>
      </trkpt>
      <trkpt lat="45.2683" lon="4.59527">
        <ele>877.59997558594</ele>
        <time>2026-05-12T09:31:49.000Z</time>
      </trkpt>
      <trkpt lat="45.2683" lon="4.59525">
        <ele>877.59997558594</ele>
        <time>2026-05-12T09:31:50.000Z</time>
      </trkpt>
      <trkpt lat="45.26829" lon="4.59523">
        <ele>877.79998779297</ele>
        <time>2026-05-12T09:31:51.000Z</time>
      </trkpt>
      <trkpt lat="45.26829" lon="4.59521">
        <ele>878</ele>
        <time>2026-05-12T09:31:52.000Z</time>
      </trkpt>
      <trkpt lat="45.26828" lon="4.59518">
        <ele>878.20001220703</ele>
        <time>2026-05-12T09:31:53.000Z</time>
      </trkpt>
      <trkpt lat="45.26827" lon="4.59516">
        <ele>878.40002441406</ele>
        <time>2026-05-12T09:31:54.000Z</time>
      </trkpt>
      <trkpt lat="45.26826" lon="4.59514">
        <ele>878.40002441406</ele>
        <time>2026-05-12T09:31:55.000Z</time>
      </trkpt>
      <trkpt lat="45.26825" lon="4.59512">
        <ele>878.59997558594</ele>
        <time>2026-05-12T09:31:56.000Z</time>
      </trkpt>
      <trkpt lat="45.26825" lon="4.5951">
        <ele>878.79998779297</ele>
        <time>2026-05-12T09:31:57.000Z</time>
      </trkpt>
      <trkpt lat="45.26824" lon="4.59508">
        <ele>879</ele>
        <time>2026-05-12T09:31:58.000Z</time>
      </trkpt>
      <trkpt lat="45.26824" lon="4.59506">
        <ele>879.20001220703</ele>
        <time>2026-05-12T09:31:59.000Z</time>
      </trkpt>
      <trkpt lat="45.26823" lon="4.59504">
        <ele>879.20001220703</ele>
        <time>2026-05-12T09:32:00.000Z</time>
      </trkpt>
      <trkpt lat="45.26822" lon="4.59502">
        <ele>879.40002441406</ele>
        <time>2026-05-12T09:32:01.000Z</time>
      </trkpt>
      <trkpt lat="45.26821" lon="4.595">
        <ele>879.59997558594</ele>
        <time>2026-05-12T09:32:02.000Z</time>
      </trkpt>
      <trkpt lat="45.26821" lon="4.59498">
        <ele>879.79998779297</ele>
        <time>2026-05-12T09:32:03.000Z</time>
      </trkpt>
      <trkpt lat="45.2682" lon="4.59496">
        <ele>879.79998779297</ele>
        <time>2026-05-12T09:32:04.000Z</time>
      </trkpt>
      <trkpt lat="45.2682" lon="4.59494">
        <ele>880</ele>
        <time>2026-05-12T09:32:05.000Z</time>
      </trkpt>
      <trkpt lat="45.2682" lon="4.59492">
        <ele>880.20001220703</ele>
        <time>2026-05-12T09:32:06.000Z</time>
      </trkpt>
      <trkpt lat="45.26819" lon="4.5949">
        <ele>880.40002441406</ele>
        <time>2026-05-12T09:32:07.000Z</time>
      </trkpt>
      <trkpt lat="45.26818" lon="4.59488">
        <ele>880.59997558594</ele>
        <time>2026-05-12T09:32:08.000Z</time>
      </trkpt>
      <trkpt lat="45.26817" lon="4.59486">
        <ele>880.59997558594</ele>
        <time>2026-05-12T09:32:09.000Z</time>
      </trkpt>
      <trkpt lat="45.26816" lon="4.59484">
        <ele>880.79998779297</ele>
        <time>2026-05-12T09:32:10.000Z</time>
      </trkpt>
      <trkpt lat="45.26815" lon="4.59482">
        <ele>881</ele>
        <time>2026-05-12T09:32:11.000Z</time>
      </trkpt>
      <trkpt lat="45.26814" lon="4.59479">
        <ele>881.20001220703</ele>
        <time>2026-05-12T09:32:12.000Z</time>
      </trkpt>
      <trkpt lat="45.26813" lon="4.59477">
        <ele>881.40002441406</ele>
        <time>2026-05-12T09:32:13.000Z</time>
      </trkpt>
      <trkpt lat="45.26813" lon="4.59475">
        <ele>881.59997558594</ele>
        <time>2026-05-12T09:32:14.000Z</time>
      </trkpt>
      <trkpt lat="45.26812" lon="4.59473">
        <ele>881.79998779297</ele>
        <time>2026-05-12T09:32:15.000Z</time>
      </trkpt>
      <trkpt lat="45.26812" lon="4.59471">
        <ele>881.79998779297</ele>
        <time>2026-05-12T09:32:16.000Z</time>
      </trkpt>
      <trkpt lat="45.26811" lon="4.59469">
        <ele>882</ele>
        <time>2026-05-12T09:32:17.000Z</time>
      </trkpt>
      <trkpt lat="45.2681" lon="4.59466">
        <ele>882.20001220703</ele>
        <time>2026-05-12T09:32:18.000Z</time>
      </trkpt>
      <trkpt lat="45.2681" lon="4.59464">
        <ele>882.40002441406</ele>
        <time>2026-05-12T09:32:19.000Z</time>
      </trkpt>
      <trkpt lat="45.26809" lon="4.59461">
        <ele>882.59997558594</ele>
        <time>2026-05-12T09:32:20.000Z</time>
      </trkpt>
      <trkpt lat="45.26808" lon="4.59459">
        <ele>882.79998779297</ele>
        <time>2026-05-12T09:32:21.000Z</time>
      </trkpt>
      <trkpt lat="45.26807" lon="4.59457">
        <ele>883</ele>
        <time>2026-05-12T09:32:22.000Z</time>
      </trkpt>
      <trkpt lat="45.26806" lon="4.59454">
        <ele>883.20001220703</ele>
        <time>2026-05-12T09:32:23.000Z</time>
      </trkpt>
      <trkpt lat="45.26805" lon="4.59452">
        <ele>883.40002441406</ele>
        <time>2026-05-12T09:32:24.000Z</time>
      </trkpt>
      <trkpt lat="45.26805" lon="4.5945">
        <ele>883.59997558594</ele>
        <time>2026-05-12T09:32:25.000Z</time>
      </trkpt>
      <trkpt lat="45.26804" lon="4.59448">
        <ele>883.79998779297</ele>
        <time>2026-05-12T09:32:26.000Z</time>
      </trkpt>
      <trkpt lat="45.26803" lon="4.59445">
        <ele>884</ele>
        <time>2026-05-12T09:32:27.000Z</time>
      </trkpt>
      <trkpt lat="45.26803" lon="4.59443">
        <ele>884.20001220703</ele>
        <time>2026-05-12T09:32:28.000Z</time>
      </trkpt>
      <trkpt lat="45.26802" lon="4.59441">
        <ele>884.40002441406</ele>
        <time>2026-05-12T09:32:29.000Z</time>
      </trkpt>
      <trkpt lat="45.26802" lon="4.59439">
        <ele>884.59997558594</ele>
        <time>2026-05-12T09:32:30.000Z</time>
      </trkpt>
      <trkpt lat="45.26801" lon="4.59437">
        <ele>884.79998779297</ele>
        <time>2026-05-12T09:32:31.000Z</time>
      </trkpt>
      <trkpt lat="45.26801" lon="4.59435">
        <ele>885.20001220703</ele>
        <time>2026-05-12T09:32:32.000Z</time>
      </trkpt>
      <trkpt lat="45.268" lon="4.59432">
        <ele>885.40002441406</ele>
        <time>2026-05-12T09:32:33.000Z</time>
      </trkpt>
      <trkpt lat="45.268" lon="4.5943">
        <ele>885.59997558594</ele>
        <time>2026-05-12T09:32:34.000Z</time>
      </trkpt>
      <trkpt lat="45.26799" lon="4.59428">
        <ele>885.79998779297</ele>
        <time>2026-05-12T09:32:35.000Z</time>
      </trkpt>
      <trkpt lat="45.26798" lon="4.59426">
        <ele>886</ele>
        <time>2026-05-12T09:32:36.000Z</time>
      </trkpt>
      <trkpt lat="45.26797" lon="4.59423">
        <ele>886.20001220703</ele>
        <time>2026-05-12T09:32:37.000Z</time>
      </trkpt>
      <trkpt lat="45.26797" lon="4.59421">
        <ele>886.40002441406</ele>
        <time>2026-05-12T09:32:38.000Z</time>
      </trkpt>
      <trkpt lat="45.26796" lon="4.59419">
        <ele>886.59997558594</ele>
        <time>2026-05-12T09:32:39.000Z</time>
      </trkpt>
      <trkpt lat="45.26795" lon="4.59417">
        <ele>886.79998779297</ele>
        <time>2026-05-12T09:32:40.000Z</time>
      </trkpt>
      <trkpt lat="45.26794" lon="4.59415">
        <ele>887</ele>
        <time>2026-05-12T09:32:41.000Z</time>
      </trkpt>
      <trkpt lat="45.26793" lon="4.59413">
        <ele>887.20001220703</ele>
        <time>2026-05-12T09:32:42.000Z</time>
      </trkpt>
      <trkpt lat="45.26793" lon="4.59411">
        <ele>887.40002441406</ele>
        <time>2026-05-12T09:32:43.000Z</time>
      </trkpt>
      <trkpt lat="45.26792" lon="4.59409">
        <ele>887.59997558594</ele>
        <time>2026-05-12T09:32:44.000Z</time>
      </trkpt>
      <trkpt lat="45.26791" lon="4.59407">
        <ele>887.79998779297</ele>
        <time>2026-05-12T09:32:45.000Z</time>
      </trkpt>
      <trkpt lat="45.26791" lon="4.59405">
        <ele>888</ele>
        <time>2026-05-12T09:32:46.000Z</time>
      </trkpt>
      <trkpt lat="45.2679" lon="4.59402">
        <ele>888.20001220703</ele>
        <time>2026-05-12T09:32:47.000Z</time>
      </trkpt>
      <trkpt lat="45.26789" lon="4.594">
        <ele>888.40002441406</ele>
        <time>2026-05-12T09:32:48.000Z</time>
      </trkpt>
      <trkpt lat="45.26789" lon="4.59399">
        <ele>888.59997558594</ele>
        <time>2026-05-12T09:32:49.000Z</time>
      </trkpt>
      <trkpt lat="45.26788" lon="4.59397">
        <ele>889</ele>
        <time>2026-05-12T09:32:50.000Z</time>
      </trkpt>
      <trkpt lat="45.26787" lon="4.59395">
        <ele>889.20001220703</ele>
        <time>2026-05-12T09:32:51.000Z</time>
      </trkpt>
      <trkpt lat="45.26786" lon="4.59393">
        <ele>889.40002441406</ele>
        <time>2026-05-12T09:32:52.000Z</time>
      </trkpt>
      <trkpt lat="45.26785" lon="4.59392">
        <ele>889.59997558594</ele>
        <time>2026-05-12T09:32:53.000Z</time>
      </trkpt>
      <trkpt lat="45.26785" lon="4.5939">
        <ele>889.79998779297</ele>
        <time>2026-05-12T09:32:54.000Z</time>
      </trkpt>
      <trkpt lat="45.26784" lon="4.59388">
        <ele>890</ele>
        <time>2026-05-12T09:32:55.000Z</time>
      </trkpt>
      <trkpt lat="45.26783" lon="4.59386">
        <ele>890.20001220703</ele>
        <time>2026-05-12T09:32:56.000Z</time>
      </trkpt>
      <trkpt lat="45.26782" lon="4.59384">
        <ele>890.40002441406</ele>
        <time>2026-05-12T09:32:57.000Z</time>
      </trkpt>
      <trkpt lat="45.26781" lon="4.59383">
        <ele>890.59997558594</ele>
        <time>2026-05-12T09:32:58.000Z</time>
      </trkpt>
      <trkpt lat="45.2678" lon="4.59381">
        <ele>890.79998779297</ele>
        <time>2026-05-12T09:32:59.000Z</time>
      </trkpt>
      <trkpt lat="45.26779" lon="4.59379">
        <ele>891</ele>
        <time>2026-05-12T09:33:00.000Z</time>
      </trkpt>
      <trkpt lat="45.26778" lon="4.59378">
        <ele>891.20001220703</ele>
        <time>2026-05-12T09:33:01.000Z</time>
      </trkpt>
      <trkpt lat="45.26777" lon="4.59376">
        <ele>891.40002441406</ele>
        <time>2026-05-12T09:33:02.000Z</time>
      </trkpt>
      <trkpt lat="45.26776" lon="4.59375">
        <ele>891.59997558594</ele>
        <time>2026-05-12T09:33:03.000Z</time>
      </trkpt>
      <trkpt lat="45.26775" lon="4.59373">
        <ele>891.79998779297</ele>
        <time>2026-05-12T09:33:04.000Z</time>
      </trkpt>
      <trkpt lat="45.26773" lon="4.59372">
        <ele>892</ele>
        <time>2026-05-12T09:33:05.000Z</time>
      </trkpt>
      <trkpt lat="45.26772" lon="4.5937">
        <ele>892.20001220703</ele>
        <time>2026-05-12T09:33:06.000Z</time>
      </trkpt>
      <trkpt lat="45.26771" lon="4.59369">
        <ele>892.40002441406</ele>
        <time>2026-05-12T09:33:07.000Z</time>
      </trkpt>
      <trkpt lat="45.2677" lon="4.59367">
        <ele>892.40002441406</ele>
        <time>2026-05-12T09:33:08.000Z</time>
      </trkpt>
      <trkpt lat="45.26769" lon="4.59366">
        <ele>892.59997558594</ele>
        <time>2026-05-12T09:33:09.000Z</time>
      </trkpt>
      <trkpt lat="45.26768" lon="4.59364">
        <ele>892.79998779297</ele>
        <time>2026-05-12T09:33:10.000Z</time>
      </trkpt>
      <trkpt lat="45.26767" lon="4.59363">
        <ele>893.20001220703</ele>
        <time>2026-05-12T09:33:11.000Z</time>
      </trkpt>
      <trkpt lat="45.26766" lon="4.59361">
        <ele>893.40002441406</ele>
        <time>2026-05-12T09:33:12.000Z</time>
      </trkpt>
      <trkpt lat="45.26765" lon="4.5936">
        <ele>893.59997558594</ele>
        <time>2026-05-12T09:33:13.000Z</time>
      </trkpt>
      <trkpt lat="45.26764" lon="4.59358">
        <ele>893.79998779297</ele>
        <time>2026-05-12T09:33:14.000Z</time>
      </trkpt>
      <trkpt lat="45.26764" lon="4.59357">
        <ele>894</ele>
        <time>2026-05-12T09:33:15.000Z</time>
      </trkpt>
      <trkpt lat="45.26763" lon="4.59355">
        <ele>894.20001220703</ele>
        <time>2026-05-12T09:33:16.000Z</time>
      </trkpt>
      <trkpt lat="45.26763" lon="4.59354">
        <ele>894.40002441406</ele>
        <time>2026-05-12T09:33:17.000Z</time>
      </trkpt>
      <trkpt lat="45.26761" lon="4.59352">
        <ele>894.59997558594</ele>
        <time>2026-05-12T09:33:18.000Z</time>
      </trkpt>
      <trkpt lat="45.26761" lon="4.59351">
        <ele>894.79998779297</ele>
        <time>2026-05-12T09:33:19.000Z</time>
      </trkpt>
      <trkpt lat="45.2676" lon="4.5935">
        <ele>895</ele>
        <time>2026-05-12T09:33:20.000Z</time>
      </trkpt>
      <trkpt lat="45.26759" lon="4.59348">
        <ele>895.20001220703</ele>
        <time>2026-05-12T09:33:21.000Z</time>
      </trkpt>
      <trkpt lat="45.26758" lon="4.59346">
        <ele>895.40002441406</ele>
        <time>2026-05-12T09:33:22.000Z</time>
      </trkpt>
      <trkpt lat="45.26757" lon="4.59344">
        <ele>895.59997558594</ele>
        <time>2026-05-12T09:33:23.000Z</time>
      </trkpt>
      <trkpt lat="45.26755" lon="4.59343">
        <ele>895.79998779297</ele>
        <time>2026-05-12T09:33:24.000Z</time>
      </trkpt>
      <trkpt lat="45.26754" lon="4.59341">
        <ele>896</ele>
        <time>2026-05-12T09:33:25.000Z</time>
      </trkpt>
      <trkpt lat="45.26752" lon="4.59339">
        <ele>896.20001220703</ele>
        <time>2026-05-12T09:33:26.000Z</time>
      </trkpt>
      <trkpt lat="45.26751" lon="4.59338">
        <ele>896.40002441406</ele>
        <time>2026-05-12T09:33:27.000Z</time>
      </trkpt>
      <trkpt lat="45.26749" lon="4.59336">
        <ele>896.59997558594</ele>
        <time>2026-05-12T09:33:28.000Z</time>
      </trkpt>
      <trkpt lat="45.26748" lon="4.59335">
        <ele>897</ele>
        <time>2026-05-12T09:33:29.000Z</time>
      </trkpt>
      <trkpt lat="45.26746" lon="4.59334">
        <ele>897.20001220703</ele>
        <time>2026-05-12T09:33:30.000Z</time>
      </trkpt>
      <trkpt lat="45.26745" lon="4.59332">
        <ele>897.40002441406</ele>
        <time>2026-05-12T09:33:31.000Z</time>
      </trkpt>
      <trkpt lat="45.26744" lon="4.5933">
        <ele>897.59997558594</ele>
        <time>2026-05-12T09:33:32.000Z</time>
      </trkpt>
      <trkpt lat="45.26743" lon="4.59329">
        <ele>897.59997558594</ele>
        <time>2026-05-12T09:33:33.000Z</time>
      </trkpt>
      <trkpt lat="45.26741" lon="4.59327">
        <ele>898</ele>
        <time>2026-05-12T09:33:34.000Z</time>
      </trkpt>
      <trkpt lat="45.2674" lon="4.59326">
        <ele>898</ele>
        <time>2026-05-12T09:33:35.000Z</time>
      </trkpt>
      <trkpt lat="45.26739" lon="4.59324">
        <ele>898.20001220703</ele>
        <time>2026-05-12T09:33:36.000Z</time>
      </trkpt>
      <trkpt lat="45.26738" lon="4.59323">
        <ele>898.40002441406</ele>
        <time>2026-05-12T09:33:37.000Z</time>
      </trkpt>
      <trkpt lat="45.26737" lon="4.59321">
        <ele>898.59997558594</ele>
        <time>2026-05-12T09:33:38.000Z</time>
      </trkpt>
      <trkpt lat="45.26735" lon="4.5932">
        <ele>898.59997558594</ele>
        <time>2026-05-12T09:33:39.000Z</time>
      </trkpt>
      <trkpt lat="45.26734" lon="4.59319">
        <ele>898.79998779297</ele>
        <time>2026-05-12T09:33:40.000Z</time>
      </trkpt>
      <trkpt lat="45.26733" lon="4.59317">
        <ele>899</ele>
        <time>2026-05-12T09:33:41.000Z</time>
      </trkpt>
      <trkpt lat="45.26732" lon="4.59316">
        <ele>899.20001220703</ele>
        <time>2026-05-12T09:33:42.000Z</time>
      </trkpt>
      <trkpt lat="45.2673" lon="4.59314">
        <ele>899.20001220703</ele>
        <time>2026-05-12T09:33:43.000Z</time>
      </trkpt>
      <trkpt lat="45.26729" lon="4.59313">
        <ele>899.40002441406</ele>
        <time>2026-05-12T09:33:44.000Z</time>
      </trkpt>
      <trkpt lat="45.26728" lon="4.59311">
        <ele>899.40002441406</ele>
        <time>2026-05-12T09:33:45.000Z</time>
      </trkpt>
      <trkpt lat="45.26727" lon="4.59309">
        <ele>899.59997558594</ele>
        <time>2026-05-12T09:33:46.000Z</time>
      </trkpt>
      <trkpt lat="45.26726" lon="4.59307">
        <ele>899.79998779297</ele>
        <time>2026-05-12T09:33:47.000Z</time>
      </trkpt>
      <trkpt lat="45.26724" lon="4.59306">
        <ele>900</ele>
        <time>2026-05-12T09:33:48.000Z</time>
      </trkpt>
      <trkpt lat="45.26723" lon="4.59304">
        <ele>900</ele>
        <time>2026-05-12T09:33:49.000Z</time>
      </trkpt>
      <trkpt lat="45.26722" lon="4.59302">
        <ele>900.20001220703</ele>
        <time>2026-05-12T09:33:50.000Z</time>
      </trkpt>
      <trkpt lat="45.26721" lon="4.593">
        <ele>900.40002441406</ele>
        <time>2026-05-12T09:33:51.000Z</time>
      </trkpt>
      <trkpt lat="45.2672" lon="4.59298">
        <ele>900.40002441406</ele>
        <time>2026-05-12T09:33:52.000Z</time>
      </trkpt>
      <trkpt lat="45.26719" lon="4.59297">
        <ele>900.59997558594</ele>
        <time>2026-05-12T09:33:53.000Z</time>
      </trkpt>
      <trkpt lat="45.26718" lon="4.59295">
        <ele>900.59997558594</ele>
        <time>2026-05-12T09:33:54.000Z</time>
      </trkpt>
      <trkpt lat="45.26717" lon="4.59293">
        <ele>900.79998779297</ele>
        <time>2026-05-12T09:33:55.000Z</time>
      </trkpt>
      <trkpt lat="45.26716" lon="4.59291">
        <ele>901</ele>
        <time>2026-05-12T09:33:56.000Z</time>
      </trkpt>
      <trkpt lat="45.26715" lon="4.5929">
        <ele>901.20001220703</ele>
        <time>2026-05-12T09:33:57.000Z</time>
      </trkpt>
      <trkpt lat="45.26714" lon="4.59288">
        <ele>901.20001220703</ele>
        <time>2026-05-12T09:33:58.000Z</time>
      </trkpt>
      <trkpt lat="45.26713" lon="4.59286">
        <ele>901.40002441406</ele>
        <time>2026-05-12T09:33:59.000Z</time>
      </trkpt>
      <trkpt lat="45.26712" lon="4.59285">
        <ele>901.59997558594</ele>
        <time>2026-05-12T09:34:00.000Z</time>
      </trkpt>
      <trkpt lat="45.26711" lon="4.59283">
        <ele>901.59997558594</ele>
        <time>2026-05-12T09:34:01.000Z</time>
      </trkpt>
      <trkpt lat="45.2671" lon="4.59281">
        <ele>901.79998779297</ele>
        <time>2026-05-12T09:34:02.000Z</time>
      </trkpt>
      <trkpt lat="45.26709" lon="4.59279">
        <ele>902</ele>
        <time>2026-05-12T09:34:03.000Z</time>
      </trkpt>
      <trkpt lat="45.26708" lon="4.59277">
        <ele>902.20001220703</ele>
        <time>2026-05-12T09:34:04.000Z</time>
      </trkpt>
      <trkpt lat="45.26707" lon="4.59275">
        <ele>902.40002441406</ele>
        <time>2026-05-12T09:34:05.000Z</time>
      </trkpt>
      <trkpt lat="45.26706" lon="4.59273">
        <ele>902.40002441406</ele>
        <time>2026-05-12T09:34:06.000Z</time>
      </trkpt>
      <trkpt lat="45.26705" lon="4.59271">
        <ele>902.59997558594</ele>
        <time>2026-05-12T09:34:07.000Z</time>
      </trkpt>
      <trkpt lat="45.26703" lon="4.5927">
        <ele>902.79998779297</ele>
        <time>2026-05-12T09:34:08.000Z</time>
      </trkpt>
      <trkpt lat="45.26702" lon="4.59268">
        <ele>902.79998779297</ele>
        <time>2026-05-12T09:34:09.000Z</time>
      </trkpt>
      <trkpt lat="45.26701" lon="4.59266">
        <ele>903</ele>
        <time>2026-05-12T09:34:10.000Z</time>
      </trkpt>
      <trkpt lat="45.267" lon="4.59264">
        <ele>903</ele>
        <time>2026-05-12T09:34:11.000Z</time>
      </trkpt>
      <trkpt lat="45.26699" lon="4.59262">
        <ele>903.20001220703</ele>
        <time>2026-05-12T09:34:12.000Z</time>
      </trkpt>
      <trkpt lat="45.26698" lon="4.5926">
        <ele>903.20001220703</ele>
        <time>2026-05-12T09:34:13.000Z</time>
      </trkpt>
      <trkpt lat="45.26697" lon="4.59259">
        <ele>903.40002441406</ele>
        <time>2026-05-12T09:34:14.000Z</time>
      </trkpt>
      <trkpt lat="45.26696" lon="4.59257">
        <ele>903.40002441406</ele>
        <time>2026-05-12T09:34:15.000Z</time>
      </trkpt>
      <trkpt lat="45.26695" lon="4.59255">
        <ele>903.40002441406</ele>
        <time>2026-05-12T09:34:16.000Z</time>
      </trkpt>
      <trkpt lat="45.26694" lon="4.59254">
        <ele>903.59997558594</ele>
        <time>2026-05-12T09:34:17.000Z</time>
      </trkpt>
      <trkpt lat="45.26692" lon="4.59252">
        <ele>903.59997558594</ele>
        <time>2026-05-12T09:34:18.000Z</time>
      </trkpt>
      <trkpt lat="45.26691" lon="4.5925">
        <ele>903.79998779297</ele>
        <time>2026-05-12T09:34:19.000Z</time>
      </trkpt>
      <trkpt lat="45.2669" lon="4.59248">
        <ele>903.79998779297</ele>
        <time>2026-05-12T09:34:20.000Z</time>
      </trkpt>
      <trkpt lat="45.26689" lon="4.59246">
        <ele>904</ele>
        <time>2026-05-12T09:34:21.000Z</time>
      </trkpt>
      <trkpt lat="45.26689" lon="4.59244">
        <ele>904</ele>
        <time>2026-05-12T09:34:22.000Z</time>
      </trkpt>
      <trkpt lat="45.26688" lon="4.59243">
        <ele>904</ele>
        <time>2026-05-12T09:34:23.000Z</time>
      </trkpt>
      <trkpt lat="45.26687" lon="4.59241">
        <ele>904.20001220703</ele>
        <time>2026-05-12T09:34:24.000Z</time>
      </trkpt>
      <trkpt lat="45.26686" lon="4.59239">
        <ele>904.20001220703</ele>
        <time>2026-05-12T09:34:25.000Z</time>
      </trkpt>
      <trkpt lat="45.26685" lon="4.59237">
        <ele>904.40002441406</ele>
        <time>2026-05-12T09:34:26.000Z</time>
      </trkpt>
      <trkpt lat="45.26685" lon="4.59236">
        <ele>904.40002441406</ele>
        <time>2026-05-12T09:34:27.000Z</time>
      </trkpt>
      <trkpt lat="45.26684" lon="4.59234">
        <ele>904.59997558594</ele>
        <time>2026-05-12T09:34:28.000Z</time>
      </trkpt>
      <trkpt lat="45.26683" lon="4.59231">
        <ele>904.59997558594</ele>
        <time>2026-05-12T09:34:29.000Z</time>
      </trkpt>
      <trkpt lat="45.26682" lon="4.59229">
        <ele>904.79998779297</ele>
        <time>2026-05-12T09:34:30.000Z</time>
      </trkpt>
      <trkpt lat="45.26681" lon="4.59227">
        <ele>904.79998779297</ele>
        <time>2026-05-12T09:34:31.000Z</time>
      </trkpt>
      <trkpt lat="45.26679" lon="4.59225">
        <ele>904.79998779297</ele>
        <time>2026-05-12T09:34:32.000Z</time>
      </trkpt>
      <trkpt lat="45.26678" lon="4.59223">
        <ele>905</ele>
        <time>2026-05-12T09:34:33.000Z</time>
      </trkpt>
      <trkpt lat="45.26677" lon="4.59221">
        <ele>905</ele>
        <time>2026-05-12T09:34:34.000Z</time>
      </trkpt>
      <trkpt lat="45.26677" lon="4.59218">
        <ele>905.20001220703</ele>
        <time>2026-05-12T09:34:35.000Z</time>
      </trkpt>
      <trkpt lat="45.26675" lon="4.59216">
        <ele>905.40002441406</ele>
        <time>2026-05-12T09:34:36.000Z</time>
      </trkpt>
      <trkpt lat="45.26674" lon="4.59214">
        <ele>905.40002441406</ele>
        <time>2026-05-12T09:34:37.000Z</time>
      </trkpt>
      <trkpt lat="45.26674" lon="4.59212">
        <ele>905.59997558594</ele>
        <time>2026-05-12T09:34:38.000Z</time>
      </trkpt>
      <trkpt lat="45.26673" lon="4.5921">
        <ele>905.59997558594</ele>
        <time>2026-05-12T09:34:39.000Z</time>
      </trkpt>
      <trkpt lat="45.26672" lon="4.59209">
        <ele>905.79998779297</ele>
        <time>2026-05-12T09:34:40.000Z</time>
      </trkpt>
      <trkpt lat="45.26671" lon="4.59207">
        <ele>906</ele>
        <time>2026-05-12T09:34:41.000Z</time>
      </trkpt>
      <trkpt lat="45.2667" lon="4.59204">
        <ele>906</ele>
        <time>2026-05-12T09:34:42.000Z</time>
      </trkpt>
      <trkpt lat="45.26669" lon="4.59202">
        <ele>906.20001220703</ele>
        <time>2026-05-12T09:34:43.000Z</time>
      </trkpt>
      <trkpt lat="45.26668" lon="4.59201">
        <ele>906.40002441406</ele>
        <time>2026-05-12T09:34:44.000Z</time>
      </trkpt>
      <trkpt lat="45.26667" lon="4.59198">
        <ele>906.59997558594</ele>
        <time>2026-05-12T09:34:45.000Z</time>
      </trkpt>
      <trkpt lat="45.26666" lon="4.59196">
        <ele>906.59997558594</ele>
        <time>2026-05-12T09:34:46.000Z</time>
      </trkpt>
      <trkpt lat="45.26665" lon="4.59194">
        <ele>906.79998779297</ele>
        <time>2026-05-12T09:34:47.000Z</time>
      </trkpt>
      <trkpt lat="45.26664" lon="4.59192">
        <ele>907</ele>
        <time>2026-05-12T09:34:48.000Z</time>
      </trkpt>
      <trkpt lat="45.26663" lon="4.5919">
        <ele>907.20001220703</ele>
        <time>2026-05-12T09:34:49.000Z</time>
      </trkpt>
      <trkpt lat="45.26662" lon="4.59188">
        <ele>907.20001220703</ele>
        <time>2026-05-12T09:34:50.000Z</time>
      </trkpt>
      <trkpt lat="45.26661" lon="4.59187">
        <ele>907.40002441406</ele>
        <time>2026-05-12T09:34:51.000Z</time>
      </trkpt>
      <trkpt lat="45.2666" lon="4.59185">
        <ele>907.59997558594</ele>
        <time>2026-05-12T09:34:52.000Z</time>
      </trkpt>
      <trkpt lat="45.26659" lon="4.59183">
        <ele>907.59997558594</ele>
        <time>2026-05-12T09:34:53.000Z</time>
      </trkpt>
      <trkpt lat="45.26658" lon="4.59181">
        <ele>907.79998779297</ele>
        <time>2026-05-12T09:34:54.000Z</time>
      </trkpt>
      <trkpt lat="45.26657" lon="4.59179">
        <ele>908</ele>
        <time>2026-05-12T09:34:55.000Z</time>
      </trkpt>
      <trkpt lat="45.26656" lon="4.59177">
        <ele>908</ele>
        <time>2026-05-12T09:34:56.000Z</time>
      </trkpt>
      <trkpt lat="45.26655" lon="4.59175">
        <ele>908.20001220703</ele>
        <time>2026-05-12T09:34:57.000Z</time>
      </trkpt>
      <trkpt lat="45.26654" lon="4.59172">
        <ele>908.40002441406</ele>
        <time>2026-05-12T09:34:58.000Z</time>
      </trkpt>
      <trkpt lat="45.26653" lon="4.5917">
        <ele>908.59997558594</ele>
        <time>2026-05-12T09:34:59.000Z</time>
      </trkpt>
      <trkpt lat="45.26652" lon="4.59168">
        <ele>908.59997558594</ele>
        <time>2026-05-12T09:35:00.000Z</time>
      </trkpt>
      <trkpt lat="45.26651" lon="4.59166">
        <ele>908.79998779297</ele>
        <time>2026-05-12T09:35:01.000Z</time>
      </trkpt>
      <trkpt lat="45.26651" lon="4.59165">
        <ele>909</ele>
        <time>2026-05-12T09:35:02.000Z</time>
      </trkpt>
      <trkpt lat="45.26649" lon="4.59163">
        <ele>909</ele>
        <time>2026-05-12T09:35:03.000Z</time>
      </trkpt>
      <trkpt lat="45.26649" lon="4.59161">
        <ele>909.20001220703</ele>
        <time>2026-05-12T09:35:04.000Z</time>
      </trkpt>
      <trkpt lat="45.26647" lon="4.59159">
        <ele>909.40002441406</ele>
        <time>2026-05-12T09:35:05.000Z</time>
      </trkpt>
      <trkpt lat="45.26646" lon="4.59157">
        <ele>909.59997558594</ele>
        <time>2026-05-12T09:35:06.000Z</time>
      </trkpt>
      <trkpt lat="45.26645" lon="4.59155">
        <ele>909.59997558594</ele>
        <time>2026-05-12T09:35:07.000Z</time>
      </trkpt>
      <trkpt lat="45.26644" lon="4.59153">
        <ele>909.79998779297</ele>
        <time>2026-05-12T09:35:08.000Z</time>
      </trkpt>
      <trkpt lat="45.26643" lon="4.59151">
        <ele>910</ele>
        <time>2026-05-12T09:35:09.000Z</time>
      </trkpt>
      <trkpt lat="45.26642" lon="4.59149">
        <ele>910.20001220703</ele>
        <time>2026-05-12T09:35:10.000Z</time>
      </trkpt>
      <trkpt lat="45.26641" lon="4.59147">
        <ele>910.40002441406</ele>
        <time>2026-05-12T09:35:11.000Z</time>
      </trkpt>
      <trkpt lat="45.2664" lon="4.59145">
        <ele>910.40002441406</ele>
        <time>2026-05-12T09:35:12.000Z</time>
      </trkpt>
      <trkpt lat="45.26639" lon="4.59143">
        <ele>910.59997558594</ele>
        <time>2026-05-12T09:35:13.000Z</time>
      </trkpt>
      <trkpt lat="45.26638" lon="4.59141">
        <ele>910.79998779297</ele>
        <time>2026-05-12T09:35:14.000Z</time>
      </trkpt>
      <trkpt lat="45.26638" lon="4.59139">
        <ele>910.79998779297</ele>
        <time>2026-05-12T09:35:15.000Z</time>
      </trkpt>
      <trkpt lat="45.26637" lon="4.59137">
        <ele>911</ele>
        <time>2026-05-12T09:35:16.000Z</time>
      </trkpt>
      <trkpt lat="45.26635" lon="4.59135">
        <ele>911.20001220703</ele>
        <time>2026-05-12T09:35:17.000Z</time>
      </trkpt>
      <trkpt lat="45.26634" lon="4.59133">
        <ele>911.40002441406</ele>
        <time>2026-05-12T09:35:18.000Z</time>
      </trkpt>
      <trkpt lat="45.26633" lon="4.59132">
        <ele>911.40002441406</ele>
        <time>2026-05-12T09:35:19.000Z</time>
      </trkpt>
      <trkpt lat="45.26632" lon="4.5913">
        <ele>911.59997558594</ele>
        <time>2026-05-12T09:35:20.000Z</time>
      </trkpt>
      <trkpt lat="45.26631" lon="4.59128">
        <ele>911.79998779297</ele>
        <time>2026-05-12T09:35:21.000Z</time>
      </trkpt>
      <trkpt lat="45.2663" lon="4.59127">
        <ele>911.79998779297</ele>
        <time>2026-05-12T09:35:22.000Z</time>
      </trkpt>
      <trkpt lat="45.26629" lon="4.59125">
        <ele>912</ele>
        <time>2026-05-12T09:35:23.000Z</time>
      </trkpt>
      <trkpt lat="45.26628" lon="4.59123">
        <ele>912.20001220703</ele>
        <time>2026-05-12T09:35:24.000Z</time>
      </trkpt>
      <trkpt lat="45.26628" lon="4.59121">
        <ele>912.40002441406</ele>
        <time>2026-05-12T09:35:25.000Z</time>
      </trkpt>
      <trkpt lat="45.26626" lon="4.5912">
        <ele>912.59997558594</ele>
        <time>2026-05-12T09:35:26.000Z</time>
      </trkpt>
      <trkpt lat="45.26625" lon="4.59118">
        <ele>912.59997558594</ele>
        <time>2026-05-12T09:35:27.000Z</time>
      </trkpt>
      <trkpt lat="45.26624" lon="4.59116">
        <ele>912.79998779297</ele>
        <time>2026-05-12T09:35:28.000Z</time>
      </trkpt>
      <trkpt lat="45.26623" lon="4.59114">
        <ele>913</ele>
        <time>2026-05-12T09:35:29.000Z</time>
      </trkpt>
      <trkpt lat="45.26622" lon="4.59112">
        <ele>913.20001220703</ele>
        <time>2026-05-12T09:35:30.000Z</time>
      </trkpt>
      <trkpt lat="45.26621" lon="4.59111">
        <ele>913.40002441406</ele>
        <time>2026-05-12T09:35:31.000Z</time>
      </trkpt>
      <trkpt lat="45.26619" lon="4.59109">
        <ele>913.59997558594</ele>
        <time>2026-05-12T09:35:32.000Z</time>
      </trkpt>
      <trkpt lat="45.26619" lon="4.59108">
        <ele>913.79998779297</ele>
        <time>2026-05-12T09:35:33.000Z</time>
      </trkpt>
      <trkpt lat="45.26618" lon="4.59106">
        <ele>914</ele>
        <time>2026-05-12T09:35:34.000Z</time>
      </trkpt>
      <trkpt lat="45.26617" lon="4.59105">
        <ele>914.20001220703</ele>
        <time>2026-05-12T09:35:35.000Z</time>
      </trkpt>
      <trkpt lat="45.26616" lon="4.59103">
        <ele>914.20001220703</ele>
        <time>2026-05-12T09:35:36.000Z</time>
      </trkpt>
      <trkpt lat="45.26615" lon="4.59101">
        <ele>914.40002441406</ele>
        <time>2026-05-12T09:35:37.000Z</time>
      </trkpt>
      <trkpt lat="45.26614" lon="4.59099">
        <ele>914.40002441406</ele>
        <time>2026-05-12T09:35:38.000Z</time>
      </trkpt>
      <trkpt lat="45.26612" lon="4.59097">
        <ele>914.59997558594</ele>
        <time>2026-05-12T09:35:39.000Z</time>
      </trkpt>
      <trkpt lat="45.26612" lon="4.59095">
        <ele>914.59997558594</ele>
        <time>2026-05-12T09:35:40.000Z</time>
      </trkpt>
      <trkpt lat="45.2661" lon="4.59094">
        <ele>914.79998779297</ele>
        <time>2026-05-12T09:35:41.000Z</time>
      </trkpt>
      <trkpt lat="45.26609" lon="4.59092">
        <ele>915</ele>
        <time>2026-05-12T09:35:42.000Z</time>
      </trkpt>
      <trkpt lat="45.26608" lon="4.5909">
        <ele>915</ele>
        <time>2026-05-12T09:35:43.000Z</time>
      </trkpt>
      <trkpt lat="45.26607" lon="4.59089">
        <ele>915.20001220703</ele>
        <time>2026-05-12T09:35:44.000Z</time>
      </trkpt>
      <trkpt lat="45.26606" lon="4.59088">
        <ele>915.20001220703</ele>
        <time>2026-05-12T09:35:45.000Z</time>
      </trkpt>
      <trkpt lat="45.26605" lon="4.59086">
        <ele>915.40002441406</ele>
        <time>2026-05-12T09:35:46.000Z</time>
      </trkpt>
      <trkpt lat="45.26604" lon="4.59084">
        <ele>915.40002441406</ele>
        <time>2026-05-12T09:35:47.000Z</time>
      </trkpt>
      <trkpt lat="45.26604" lon="4.59083">
        <ele>915.59997558594</ele>
        <time>2026-05-12T09:35:48.000Z</time>
      </trkpt>
      <trkpt lat="45.26603" lon="4.59081">
        <ele>915.79998779297</ele>
        <time>2026-05-12T09:35:49.000Z</time>
      </trkpt>
      <trkpt lat="45.26602" lon="4.59079">
        <ele>915.79998779297</ele>
        <time>2026-05-12T09:35:50.000Z</time>
      </trkpt>
      <trkpt lat="45.26601" lon="4.59077">
        <ele>916</ele>
        <time>2026-05-12T09:35:51.000Z</time>
      </trkpt>
      <trkpt lat="45.266" lon="4.59075">
        <ele>916.20001220703</ele>
        <time>2026-05-12T09:35:52.000Z</time>
      </trkpt>
      <trkpt lat="45.26599" lon="4.59073">
        <ele>916.20001220703</ele>
        <time>2026-05-12T09:35:53.000Z</time>
      </trkpt>
      <trkpt lat="45.26598" lon="4.59072">
        <ele>916.40002441406</ele>
        <time>2026-05-12T09:35:54.000Z</time>
      </trkpt>
      <trkpt lat="45.26597" lon="4.5907">
        <ele>916.59997558594</ele>
        <time>2026-05-12T09:35:55.000Z</time>
      </trkpt>
      <trkpt lat="45.26596" lon="4.59068">
        <ele>916.59997558594</ele>
        <time>2026-05-12T09:35:56.000Z</time>
      </trkpt>
      <trkpt lat="45.26595" lon="4.59066">
        <ele>916.79998779297</ele>
        <time>2026-05-12T09:35:57.000Z</time>
      </trkpt>
      <trkpt lat="45.26594" lon="4.59065">
        <ele>916.79998779297</ele>
        <time>2026-05-12T09:35:58.000Z</time>
      </trkpt>
      <trkpt lat="45.26593" lon="4.59062">
        <ele>917</ele>
        <time>2026-05-12T09:35:59.000Z</time>
      </trkpt>
      <trkpt lat="45.26592" lon="4.5906">
        <ele>917</ele>
        <time>2026-05-12T09:36:00.000Z</time>
      </trkpt>
      <trkpt lat="45.26591" lon="4.59058">
        <ele>917.20001220703</ele>
        <time>2026-05-12T09:36:01.000Z</time>
      </trkpt>
      <trkpt lat="45.2659" lon="4.59056">
        <ele>917.20001220703</ele>
        <time>2026-05-12T09:36:02.000Z</time>
      </trkpt>
      <trkpt lat="45.26589" lon="4.59054">
        <ele>917.20001220703</ele>
        <time>2026-05-12T09:36:03.000Z</time>
      </trkpt>
      <trkpt lat="45.26587" lon="4.59053">
        <ele>917.20001220703</ele>
        <time>2026-05-12T09:36:04.000Z</time>
      </trkpt>
      <trkpt lat="45.26586" lon="4.59051">
        <ele>917.40002441406</ele>
        <time>2026-05-12T09:36:05.000Z</time>
      </trkpt>
      <trkpt lat="45.26586" lon="4.59049">
        <ele>917.40002441406</ele>
        <time>2026-05-12T09:36:06.000Z</time>
      </trkpt>
      <trkpt lat="45.26585" lon="4.59046">
        <ele>917.40002441406</ele>
        <time>2026-05-12T09:36:07.000Z</time>
      </trkpt>
      <trkpt lat="45.26584" lon="4.59044">
        <ele>917.40002441406</ele>
        <time>2026-05-12T09:36:08.000Z</time>
      </trkpt>
      <trkpt lat="45.26583" lon="4.59041">
        <ele>917.59997558594</ele>
        <time>2026-05-12T09:36:09.000Z</time>
      </trkpt>
      <trkpt lat="45.26581" lon="4.59038">
        <ele>917.59997558594</ele>
        <time>2026-05-12T09:36:10.000Z</time>
      </trkpt>
      <trkpt lat="45.2658" lon="4.59036">
        <ele>917.59997558594</ele>
        <time>2026-05-12T09:36:11.000Z</time>
      </trkpt>
      <trkpt lat="45.26579" lon="4.59033">
        <ele>917.59997558594</ele>
        <time>2026-05-12T09:36:12.000Z</time>
      </trkpt>
      <trkpt lat="45.26578" lon="4.5903">
        <ele>917.59997558594</ele>
        <time>2026-05-12T09:36:13.000Z</time>
      </trkpt>
      <trkpt lat="45.26577" lon="4.59028">
        <ele>917.59997558594</ele>
        <time>2026-05-12T09:36:14.000Z</time>
      </trkpt>
      <trkpt lat="45.26576" lon="4.59025">
        <ele>917.59997558594</ele>
        <time>2026-05-12T09:36:15.000Z</time>
      </trkpt>
      <trkpt lat="45.26575" lon="4.59022">
        <ele>917.79998779297</ele>
        <time>2026-05-12T09:36:16.000Z</time>
      </trkpt>
      <trkpt lat="45.26574" lon="4.59019">
        <ele>917.79998779297</ele>
        <time>2026-05-12T09:36:17.000Z</time>
      </trkpt>
      <trkpt lat="45.26573" lon="4.59017">
        <ele>917.79998779297</ele>
        <time>2026-05-12T09:36:18.000Z</time>
      </trkpt>
      <trkpt lat="45.26572" lon="4.59014">
        <ele>917.79998779297</ele>
        <time>2026-05-12T09:36:19.000Z</time>
      </trkpt>
      <trkpt lat="45.26571" lon="4.59011">
        <ele>917.79998779297</ele>
        <time>2026-05-12T09:36:20.000Z</time>
      </trkpt>
      <trkpt lat="45.26571" lon="4.59008">
        <ele>917.79998779297</ele>
        <time>2026-05-12T09:36:21.000Z</time>
      </trkpt>
      <trkpt lat="45.2657" lon="4.59005">
        <ele>918</ele>
        <time>2026-05-12T09:36:22.000Z</time>
      </trkpt>
      <trkpt lat="45.26569" lon="4.59002">
        <ele>918</ele>
        <time>2026-05-12T09:36:23.000Z</time>
      </trkpt>
      <trkpt lat="45.26568" lon="4.58999">
        <ele>918</ele>
        <time>2026-05-12T09:36:24.000Z</time>
      </trkpt>
      <trkpt lat="45.26567" lon="4.58997">
        <ele>918.20001220703</ele>
        <time>2026-05-12T09:36:25.000Z</time>
      </trkpt>
      <trkpt lat="45.26566" lon="4.58994">
        <ele>918.20001220703</ele>
        <time>2026-05-12T09:36:26.000Z</time>
      </trkpt>
      <trkpt lat="45.26565" lon="4.58991">
        <ele>918.40002441406</ele>
        <time>2026-05-12T09:36:27.000Z</time>
      </trkpt>
      <trkpt lat="45.26564" lon="4.58989">
        <ele>918.40002441406</ele>
        <time>2026-05-12T09:36:28.000Z</time>
      </trkpt>
      <trkpt lat="45.26563" lon="4.58986">
        <ele>918.59997558594</ele>
        <time>2026-05-12T09:36:29.000Z</time>
      </trkpt>
      <trkpt lat="45.26562" lon="4.58984">
        <ele>918.59997558594</ele>
        <time>2026-05-12T09:36:30.000Z</time>
      </trkpt>
      <trkpt lat="45.26561" lon="4.58982">
        <ele>918.79998779297</ele>
        <time>2026-05-12T09:36:31.000Z</time>
      </trkpt>
      <trkpt lat="45.2656" lon="4.58979">
        <ele>919</ele>
        <time>2026-05-12T09:36:32.000Z</time>
      </trkpt>
      <trkpt lat="45.26559" lon="4.58976">
        <ele>919.20001220703</ele>
        <time>2026-05-12T09:36:33.000Z</time>
      </trkpt>
      <trkpt lat="45.26558" lon="4.58974">
        <ele>919.20001220703</ele>
        <time>2026-05-12T09:36:34.000Z</time>
      </trkpt>
      <trkpt lat="45.26557" lon="4.58971">
        <ele>919.40002441406</ele>
        <time>2026-05-12T09:36:35.000Z</time>
      </trkpt>
      <trkpt lat="45.26557" lon="4.58969">
        <ele>919.59997558594</ele>
        <time>2026-05-12T09:36:36.000Z</time>
      </trkpt>
      <trkpt lat="45.26556" lon="4.58966">
        <ele>919.59997558594</ele>
        <time>2026-05-12T09:36:37.000Z</time>
      </trkpt>
      <trkpt lat="45.26555" lon="4.58964">
        <ele>919.79998779297</ele>
        <time>2026-05-12T09:36:38.000Z</time>
      </trkpt>
      <trkpt lat="45.26553" lon="4.58961">
        <ele>920</ele>
        <time>2026-05-12T09:36:39.000Z</time>
      </trkpt>
      <trkpt lat="45.26552" lon="4.58959">
        <ele>920.20001220703</ele>
        <time>2026-05-12T09:36:40.000Z</time>
      </trkpt>
      <trkpt lat="45.26551" lon="4.58956">
        <ele>920.40002441406</ele>
        <time>2026-05-12T09:36:41.000Z</time>
      </trkpt>
      <trkpt lat="45.2655" lon="4.58954">
        <ele>920.40002441406</ele>
        <time>2026-05-12T09:36:42.000Z</time>
      </trkpt>
      <trkpt lat="45.26549" lon="4.58951">
        <ele>920.59997558594</ele>
        <time>2026-05-12T09:36:43.000Z</time>
      </trkpt>
      <trkpt lat="45.26547" lon="4.58949">
        <ele>920.59997558594</ele>
        <time>2026-05-12T09:36:44.000Z</time>
      </trkpt>
      <trkpt lat="45.26546" lon="4.58946">
        <ele>920.79998779297</ele>
        <time>2026-05-12T09:36:45.000Z</time>
      </trkpt>
      <trkpt lat="45.26545" lon="4.58943">
        <ele>920.79998779297</ele>
        <time>2026-05-12T09:36:46.000Z</time>
      </trkpt>
      <trkpt lat="45.26543" lon="4.58941">
        <ele>920.79998779297</ele>
        <time>2026-05-12T09:36:47.000Z</time>
      </trkpt>
      <trkpt lat="45.26542" lon="4.58938">
        <ele>921</ele>
        <time>2026-05-12T09:36:48.000Z</time>
      </trkpt>
      <trkpt lat="45.26541" lon="4.58936">
        <ele>921</ele>
        <time>2026-05-12T09:36:49.000Z</time>
      </trkpt>
      <trkpt lat="45.2654" lon="4.58933">
        <ele>921</ele>
        <time>2026-05-12T09:36:50.000Z</time>
      </trkpt>
      <trkpt lat="45.26539" lon="4.5893">
        <ele>921.20001220703</ele>
        <time>2026-05-12T09:36:51.000Z</time>
      </trkpt>
      <trkpt lat="45.26538" lon="4.58927">
        <ele>921.20001220703</ele>
        <time>2026-05-12T09:36:52.000Z</time>
      </trkpt>
      <trkpt lat="45.26537" lon="4.58924">
        <ele>921.20001220703</ele>
        <time>2026-05-12T09:36:53.000Z</time>
      </trkpt>
      <trkpt lat="45.26536" lon="4.58921">
        <ele>921.20001220703</ele>
        <time>2026-05-12T09:36:54.000Z</time>
      </trkpt>
      <trkpt lat="45.26535" lon="4.58918">
        <ele>921.40002441406</ele>
        <time>2026-05-12T09:36:55.000Z</time>
      </trkpt>
      <trkpt lat="45.26534" lon="4.58916">
        <ele>921.40002441406</ele>
        <time>2026-05-12T09:36:56.000Z</time>
      </trkpt>
      <trkpt lat="45.26533" lon="4.58914">
        <ele>921.40002441406</ele>
        <time>2026-05-12T09:36:57.000Z</time>
      </trkpt>
      <trkpt lat="45.26531" lon="4.58912">
        <ele>921.40002441406</ele>
        <time>2026-05-12T09:36:58.000Z</time>
      </trkpt>
      <trkpt lat="45.2653" lon="4.5891">
        <ele>921.40002441406</ele>
        <time>2026-05-12T09:36:59.000Z</time>
      </trkpt>
      <trkpt lat="45.26529" lon="4.58908">
        <ele>921.40002441406</ele>
        <time>2026-05-12T09:37:00.000Z</time>
      </trkpt>
      <trkpt lat="45.26528" lon="4.58906">
        <ele>921.40002441406</ele>
        <time>2026-05-12T09:37:01.000Z</time>
      </trkpt>
      <trkpt lat="45.26527" lon="4.58906">
        <ele>921.40002441406</ele>
        <time>2026-05-12T09:37:02.000Z</time>
      </trkpt>
      <trkpt lat="45.26527" lon="4.58906">
        <ele>921.40002441406</ele>
        <time>2026-05-12T09:37:03.000Z</time>
      </trkpt>
      <trkpt lat="45.26527" lon="4.58906">
        <ele>921.40002441406</ele>
        <time>2026-05-12T09:37:04.000Z</time>
      </trkpt>
      <trkpt lat="45.26525" lon="4.589">
        <ele>921.20001220703</ele>
        <time>2026-05-12T09:37:16.000Z</time>
      </trkpt>
      <trkpt lat="45.26524" lon="4.58897">
        <ele>921.20001220703</ele>
        <time>2026-05-12T09:37:17.000Z</time>
      </trkpt>
      <trkpt lat="45.26523" lon="4.58894">
        <ele>921.20001220703</ele>
        <time>2026-05-12T09:37:18.000Z</time>
      </trkpt>
      <trkpt lat="45.26522" lon="4.58891">
        <ele>921</ele>
        <time>2026-05-12T09:37:19.000Z</time>
      </trkpt>
      <trkpt lat="45.26521" lon="4.58889">
        <ele>921.20001220703</ele>
        <time>2026-05-12T09:37:20.000Z</time>
      </trkpt>
      <trkpt lat="45.2652" lon="4.58886">
        <ele>921.20001220703</ele>
        <time>2026-05-12T09:37:21.000Z</time>
      </trkpt>
      <trkpt lat="45.2652" lon="4.58884">
        <ele>921.20001220703</ele>
        <time>2026-05-12T09:37:22.000Z</time>
      </trkpt>
      <trkpt lat="45.26519" lon="4.58881">
        <ele>921</ele>
        <time>2026-05-12T09:37:23.000Z</time>
      </trkpt>
      <trkpt lat="45.26519" lon="4.58879">
        <ele>921</ele>
        <time>2026-05-12T09:37:24.000Z</time>
      </trkpt>
      <trkpt lat="45.26519" lon="4.58876">
        <ele>921</ele>
        <time>2026-05-12T09:37:25.000Z</time>
      </trkpt>
      <trkpt lat="45.26519" lon="4.58873">
        <ele>921</ele>
        <time>2026-05-12T09:37:26.000Z</time>
      </trkpt>
      <trkpt lat="45.2652" lon="4.5887">
        <ele>921</ele>
        <time>2026-05-12T09:37:27.000Z</time>
      </trkpt>
      <trkpt lat="45.2652" lon="4.58867">
        <ele>921</ele>
        <time>2026-05-12T09:37:28.000Z</time>
      </trkpt>
      <trkpt lat="45.2652" lon="4.58863">
        <ele>920.79998779297</ele>
        <time>2026-05-12T09:37:29.000Z</time>
      </trkpt>
      <trkpt lat="45.26521" lon="4.58859">
        <ele>920.59997558594</ele>
        <time>2026-05-12T09:37:30.000Z</time>
      </trkpt>
      <trkpt lat="45.26522" lon="4.58854">
        <ele>920.40002441406</ele>
        <time>2026-05-12T09:37:31.000Z</time>
      </trkpt>
      <trkpt lat="45.26523" lon="4.5885">
        <ele>920.20001220703</ele>
        <time>2026-05-12T09:37:32.000Z</time>
      </trkpt>
      <trkpt lat="45.26524" lon="4.58847">
        <ele>920</ele>
        <time>2026-05-12T09:37:33.000Z</time>
      </trkpt>
      <trkpt lat="45.26526" lon="4.58843">
        <ele>920</ele>
        <time>2026-05-12T09:37:34.000Z</time>
      </trkpt>
      <trkpt lat="45.26527" lon="4.5884">
        <ele>920</ele>
        <time>2026-05-12T09:37:35.000Z</time>
      </trkpt>
      <trkpt lat="45.26529" lon="4.58837">
        <ele>919.79998779297</ele>
        <time>2026-05-12T09:37:36.000Z</time>
      </trkpt>
      <trkpt lat="45.2653" lon="4.58835">
        <ele>920</ele>
        <time>2026-05-12T09:37:37.000Z</time>
      </trkpt>
      <trkpt lat="45.26532" lon="4.58832">
        <ele>919.79998779297</ele>
        <time>2026-05-12T09:37:38.000Z</time>
      </trkpt>
      <trkpt lat="45.26534" lon="4.58829">
        <ele>919.79998779297</ele>
        <time>2026-05-12T09:37:39.000Z</time>
      </trkpt>
      <trkpt lat="45.26535" lon="4.58826">
        <ele>919.79998779297</ele>
        <time>2026-05-12T09:37:40.000Z</time>
      </trkpt>
      <trkpt lat="45.26537" lon="4.58822">
        <ele>919.79998779297</ele>
        <time>2026-05-12T09:37:41.000Z</time>
      </trkpt>
      <trkpt lat="45.26539" lon="4.58819">
        <ele>919.59997558594</ele>
        <time>2026-05-12T09:37:42.000Z</time>
      </trkpt>
      <trkpt lat="45.26541" lon="4.58816">
        <ele>919.40002441406</ele>
        <time>2026-05-12T09:37:43.000Z</time>
      </trkpt>
      <trkpt lat="45.26543" lon="4.58812">
        <ele>919.20001220703</ele>
        <time>2026-05-12T09:37:44.000Z</time>
      </trkpt>
      <trkpt lat="45.26546" lon="4.58809">
        <ele>919</ele>
        <time>2026-05-12T09:37:45.000Z</time>
      </trkpt>
      <trkpt lat="45.26548" lon="4.58806">
        <ele>918.79998779297</ele>
        <time>2026-05-12T09:37:46.000Z</time>
      </trkpt>
      <trkpt lat="45.26551" lon="4.58802">
        <ele>918.59997558594</ele>
        <time>2026-05-12T09:37:47.000Z</time>
      </trkpt>
      <trkpt lat="45.26553" lon="4.58799">
        <ele>918.40002441406</ele>
        <time>2026-05-12T09:37:48.000Z</time>
      </trkpt>
      <trkpt lat="45.26556" lon="4.58794">
        <ele>918.20001220703</ele>
        <time>2026-05-12T09:37:49.000Z</time>
      </trkpt>
      <trkpt lat="45.26558" lon="4.58789">
        <ele>918</ele>
        <time>2026-05-12T09:37:50.000Z</time>
      </trkpt>
      <trkpt lat="45.2656" lon="4.58783">
        <ele>917.59997558594</ele>
        <time>2026-05-12T09:37:51.000Z</time>
      </trkpt>
      <trkpt lat="45.26563" lon="4.58776">
        <ele>917</ele>
        <time>2026-05-12T09:37:52.000Z</time>
      </trkpt>
      <trkpt lat="45.26566" lon="4.58769">
        <ele>916.40002441406</ele>
        <time>2026-05-12T09:37:53.000Z</time>
      </trkpt>
      <trkpt lat="45.26569" lon="4.58761">
        <ele>915.79998779297</ele>
        <time>2026-05-12T09:37:54.000Z</time>
      </trkpt>
      <trkpt lat="45.26573" lon="4.58754">
        <ele>915.20001220703</ele>
        <time>2026-05-12T09:37:55.000Z</time>
      </trkpt>
      <trkpt lat="45.26576" lon="4.58747">
        <ele>914.79998779297</ele>
        <time>2026-05-12T09:37:56.000Z</time>
      </trkpt>
      <trkpt lat="45.2658" lon="4.5874">
        <ele>914.59997558594</ele>
        <time>2026-05-12T09:37:57.000Z</time>
      </trkpt>
      <trkpt lat="45.26583" lon="4.58733">
        <ele>914.20001220703</ele>
        <time>2026-05-12T09:37:58.000Z</time>
      </trkpt>
      <trkpt lat="45.26586" lon="4.58726">
        <ele>914</ele>
        <time>2026-05-12T09:37:59.000Z</time>
      </trkpt>
      <trkpt lat="45.26589" lon="4.5872">
        <ele>914</ele>
        <time>2026-05-12T09:38:00.000Z</time>
      </trkpt>
      <trkpt lat="45.26591" lon="4.58713">
        <ele>913.79998779297</ele>
        <time>2026-05-12T09:38:01.000Z</time>
      </trkpt>
      <trkpt lat="45.26593" lon="4.58708">
        <ele>913.79998779297</ele>
        <time>2026-05-12T09:38:02.000Z</time>
      </trkpt>
      <trkpt lat="45.26596" lon="4.58703">
        <ele>914</ele>
        <time>2026-05-12T09:38:03.000Z</time>
      </trkpt>
      <trkpt lat="45.26598" lon="4.58698">
        <ele>914.20001220703</ele>
        <time>2026-05-12T09:38:04.000Z</time>
      </trkpt>
      <trkpt lat="45.26599" lon="4.58693">
        <ele>914.59997558594</ele>
        <time>2026-05-12T09:38:05.000Z</time>
      </trkpt>
      <trkpt lat="45.26601" lon="4.58689">
        <ele>914.79998779297</ele>
        <time>2026-05-12T09:38:06.000Z</time>
      </trkpt>
      <trkpt lat="45.26603" lon="4.58685">
        <ele>915.20001220703</ele>
        <time>2026-05-12T09:38:07.000Z</time>
      </trkpt>
      <trkpt lat="45.26604" lon="4.58682">
        <ele>915.40002441406</ele>
        <time>2026-05-12T09:38:08.000Z</time>
      </trkpt>
      <trkpt lat="45.26605" lon="4.58679">
        <ele>915.59997558594</ele>
        <time>2026-05-12T09:38:09.000Z</time>
      </trkpt>
      <trkpt lat="45.26606" lon="4.58676">
        <ele>915.79998779297</ele>
        <time>2026-05-12T09:38:10.000Z</time>
      </trkpt>
      <trkpt lat="45.26607" lon="4.58672">
        <ele>916</ele>
        <time>2026-05-12T09:38:11.000Z</time>
      </trkpt>
      <trkpt lat="45.26608" lon="4.58669">
        <ele>916.20001220703</ele>
        <time>2026-05-12T09:38:12.000Z</time>
      </trkpt>
      <trkpt lat="45.26609" lon="4.58666">
        <ele>916.20001220703</ele>
        <time>2026-05-12T09:38:13.000Z</time>
      </trkpt>
      <trkpt lat="45.2661" lon="4.58662">
        <ele>916.20001220703</ele>
        <time>2026-05-12T09:38:14.000Z</time>
      </trkpt>
      <trkpt lat="45.26611" lon="4.58658">
        <ele>916.40002441406</ele>
        <time>2026-05-12T09:38:15.000Z</time>
      </trkpt>
      <trkpt lat="45.26612" lon="4.58653">
        <ele>916.20001220703</ele>
        <time>2026-05-12T09:38:16.000Z</time>
      </trkpt>
      <trkpt lat="45.26613" lon="4.58647">
        <ele>916</ele>
        <time>2026-05-12T09:38:17.000Z</time>
      </trkpt>
      <trkpt lat="45.26614" lon="4.58641">
        <ele>915.59997558594</ele>
        <time>2026-05-12T09:38:18.000Z</time>
      </trkpt>
      <trkpt lat="45.26615" lon="4.58634">
        <ele>915.40002441406</ele>
        <time>2026-05-12T09:38:19.000Z</time>
      </trkpt>
      <trkpt lat="45.26616" lon="4.58626">
        <ele>914.79998779297</ele>
        <time>2026-05-12T09:38:20.000Z</time>
      </trkpt>
      <trkpt lat="45.26618" lon="4.58619">
        <ele>914.40002441406</ele>
        <time>2026-05-12T09:38:21.000Z</time>
      </trkpt>
      <trkpt lat="45.26619" lon="4.58611">
        <ele>913.79998779297</ele>
        <time>2026-05-12T09:38:22.000Z</time>
      </trkpt>
      <trkpt lat="45.26621" lon="4.58603">
        <ele>913.59997558594</ele>
        <time>2026-05-12T09:38:23.000Z</time>
      </trkpt>
      <trkpt lat="45.26623" lon="4.58595">
        <ele>913.20001220703</ele>
        <time>2026-05-12T09:38:24.000Z</time>
      </trkpt>
      <trkpt lat="45.26625" lon="4.58587">
        <ele>913</ele>
        <time>2026-05-12T09:38:25.000Z</time>
      </trkpt>
      <trkpt lat="45.26627" lon="4.58579">
        <ele>912.79998779297</ele>
        <time>2026-05-12T09:38:26.000Z</time>
      </trkpt>
      <trkpt lat="45.26628" lon="4.58572">
        <ele>912.59997558594</ele>
        <time>2026-05-12T09:38:27.000Z</time>
      </trkpt>
      <trkpt lat="45.2663" lon="4.58565">
        <ele>912.20001220703</ele>
        <time>2026-05-12T09:38:28.000Z</time>
      </trkpt>
      <trkpt lat="45.26631" lon="4.58558">
        <ele>912</ele>
        <time>2026-05-12T09:38:29.000Z</time>
      </trkpt>
      <trkpt lat="45.26633" lon="4.5855">
        <ele>911.59997558594</ele>
        <time>2026-05-12T09:38:30.000Z</time>
      </trkpt>
      <trkpt lat="45.26635" lon="4.58543">
        <ele>911.40002441406</ele>
        <time>2026-05-12T09:38:31.000Z</time>
      </trkpt>
      <trkpt lat="45.26636" lon="4.58535">
        <ele>911</ele>
        <time>2026-05-12T09:38:32.000Z</time>
      </trkpt>
      <trkpt lat="45.26638" lon="4.58528">
        <ele>910.59997558594</ele>
        <time>2026-05-12T09:38:33.000Z</time>
      </trkpt>
      <trkpt lat="45.2664" lon="4.5852">
        <ele>910.40002441406</ele>
        <time>2026-05-12T09:38:34.000Z</time>
      </trkpt>
      <trkpt lat="45.26641" lon="4.58512">
        <ele>910</ele>
        <time>2026-05-12T09:38:35.000Z</time>
      </trkpt>
      <trkpt lat="45.26642" lon="4.58502">
        <ele>909.59997558594</ele>
        <time>2026-05-12T09:38:36.000Z</time>
      </trkpt>
      <trkpt lat="45.26643" lon="4.58493">
        <ele>909.20001220703</ele>
        <time>2026-05-12T09:38:37.000Z</time>
      </trkpt>
      <trkpt lat="45.26643" lon="4.58482">
        <ele>908.59997558594</ele>
        <time>2026-05-12T09:38:38.000Z</time>
      </trkpt>
      <trkpt lat="45.26643" lon="4.58471">
        <ele>908.20001220703</ele>
        <time>2026-05-12T09:38:39.000Z</time>
      </trkpt>
      <trkpt lat="45.26642" lon="4.58461">
        <ele>907.59997558594</ele>
        <time>2026-05-12T09:38:40.000Z</time>
      </trkpt>
      <trkpt lat="45.26641" lon="4.58451">
        <ele>907.20001220703</ele>
        <time>2026-05-12T09:38:41.000Z</time>
      </trkpt>
      <trkpt lat="45.2664" lon="4.58441">
        <ele>906.79998779297</ele>
        <time>2026-05-12T09:38:42.000Z</time>
      </trkpt>
      <trkpt lat="45.2664" lon="4.58432">
        <ele>906.59997558594</ele>
        <time>2026-05-12T09:38:43.000Z</time>
      </trkpt>
      <trkpt lat="45.26639" lon="4.58424">
        <ele>906.59997558594</ele>
        <time>2026-05-12T09:38:44.000Z</time>
      </trkpt>
      <trkpt lat="45.26638" lon="4.58416">
        <ele>906.59997558594</ele>
        <time>2026-05-12T09:38:45.000Z</time>
      </trkpt>
      <trkpt lat="45.26637" lon="4.5841">
        <ele>907</ele>
        <time>2026-05-12T09:38:46.000Z</time>
      </trkpt>
      <trkpt lat="45.26636" lon="4.58404">
        <ele>907.20001220703</ele>
        <time>2026-05-12T09:38:47.000Z</time>
      </trkpt>
      <trkpt lat="45.26635" lon="4.58399">
        <ele>907.79998779297</ele>
        <time>2026-05-12T09:38:48.000Z</time>
      </trkpt>
      <trkpt lat="45.26634" lon="4.58396">
        <ele>908.20001220703</ele>
        <time>2026-05-12T09:38:49.000Z</time>
      </trkpt>
      <trkpt lat="45.26634" lon="4.58392">
        <ele>908.59997558594</ele>
        <time>2026-05-12T09:38:50.000Z</time>
      </trkpt>
      <trkpt lat="45.26633" lon="4.58388">
        <ele>908.79998779297</ele>
        <time>2026-05-12T09:38:51.000Z</time>
      </trkpt>
      <trkpt lat="45.26632" lon="4.58385">
        <ele>909.20001220703</ele>
        <time>2026-05-12T09:38:52.000Z</time>
      </trkpt>
      <trkpt lat="45.26632" lon="4.58381">
        <ele>909.40002441406</ele>
        <time>2026-05-12T09:38:53.000Z</time>
      </trkpt>
      <trkpt lat="45.26631" lon="4.58378">
        <ele>909.59997558594</ele>
        <time>2026-05-12T09:38:54.000Z</time>
      </trkpt>
      <trkpt lat="45.2663" lon="4.58374">
        <ele>910</ele>
        <time>2026-05-12T09:38:55.000Z</time>
      </trkpt>
      <trkpt lat="45.26629" lon="4.58371">
        <ele>910.20001220703</ele>
        <time>2026-05-12T09:38:56.000Z</time>
      </trkpt>
      <trkpt lat="45.26629" lon="4.58368">
        <ele>910.59997558594</ele>
        <time>2026-05-12T09:38:57.000Z</time>
      </trkpt>
      <trkpt lat="45.26628" lon="4.58364">
        <ele>910.79998779297</ele>
        <time>2026-05-12T09:38:58.000Z</time>
      </trkpt>
      <trkpt lat="45.26627" lon="4.58361">
        <ele>911.20001220703</ele>
        <time>2026-05-12T09:38:59.000Z</time>
      </trkpt>
      <trkpt lat="45.26626" lon="4.58358">
        <ele>911.59997558594</ele>
        <time>2026-05-12T09:39:00.000Z</time>
      </trkpt>
      <trkpt lat="45.26625" lon="4.58355">
        <ele>911.79998779297</ele>
        <time>2026-05-12T09:39:01.000Z</time>
      </trkpt>
      <trkpt lat="45.26624" lon="4.58352">
        <ele>912</ele>
        <time>2026-05-12T09:39:02.000Z</time>
      </trkpt>
      <trkpt lat="45.26624" lon="4.58348">
        <ele>912.40002441406</ele>
        <time>2026-05-12T09:39:03.000Z</time>
      </trkpt>
      <trkpt lat="45.26623" lon="4.58345">
        <ele>912.59997558594</ele>
        <time>2026-05-12T09:39:04.000Z</time>
      </trkpt>
      <trkpt lat="45.26623" lon="4.58342">
        <ele>912.59997558594</ele>
        <time>2026-05-12T09:39:05.000Z</time>
      </trkpt>
      <trkpt lat="45.26623" lon="4.58338">
        <ele>912.79998779297</ele>
        <time>2026-05-12T09:39:06.000Z</time>
      </trkpt>
      <trkpt lat="45.26623" lon="4.58334">
        <ele>912.79998779297</ele>
        <time>2026-05-12T09:39:07.000Z</time>
      </trkpt>
      <trkpt lat="45.26624" lon="4.5833">
        <ele>912.79998779297</ele>
        <time>2026-05-12T09:39:08.000Z</time>
      </trkpt>
      <trkpt lat="45.26625" lon="4.58326">
        <ele>912.79998779297</ele>
        <time>2026-05-12T09:39:09.000Z</time>
      </trkpt>
      <trkpt lat="45.26626" lon="4.58322">
        <ele>912.59997558594</ele>
        <time>2026-05-12T09:39:10.000Z</time>
      </trkpt>
      <trkpt lat="45.26627" lon="4.58318">
        <ele>912.59997558594</ele>
        <time>2026-05-12T09:39:11.000Z</time>
      </trkpt>
      <trkpt lat="45.26629" lon="4.58314">
        <ele>912.59997558594</ele>
        <time>2026-05-12T09:39:12.000Z</time>
      </trkpt>
      <trkpt lat="45.26631" lon="4.58309">
        <ele>912.40002441406</ele>
        <time>2026-05-12T09:39:13.000Z</time>
      </trkpt>
      <trkpt lat="45.26632" lon="4.58303">
        <ele>912.20001220703</ele>
        <time>2026-05-12T09:39:14.000Z</time>
      </trkpt>
      <trkpt lat="45.26634" lon="4.58297">
        <ele>911.79998779297</ele>
        <time>2026-05-12T09:39:15.000Z</time>
      </trkpt>
      <trkpt lat="45.26636" lon="4.58291">
        <ele>911.59997558594</ele>
        <time>2026-05-12T09:39:16.000Z</time>
      </trkpt>
      <trkpt lat="45.26637" lon="4.58285">
        <ele>911.40002441406</ele>
        <time>2026-05-12T09:39:17.000Z</time>
      </trkpt>
      <trkpt lat="45.26638" lon="4.58278">
        <ele>911.20001220703</ele>
        <time>2026-05-12T09:39:18.000Z</time>
      </trkpt>
      <trkpt lat="45.26639" lon="4.58272">
        <ele>911</ele>
        <time>2026-05-12T09:39:19.000Z</time>
      </trkpt>
      <trkpt lat="45.2664" lon="4.58266">
        <ele>910.79998779297</ele>
        <time>2026-05-12T09:39:20.000Z</time>
      </trkpt>
      <trkpt lat="45.2664" lon="4.5826">
        <ele>910.79998779297</ele>
        <time>2026-05-12T09:39:21.000Z</time>
      </trkpt>
      <trkpt lat="45.26641" lon="4.58254">
        <ele>910.79998779297</ele>
        <time>2026-05-12T09:39:22.000Z</time>
      </trkpt>
      <trkpt lat="45.26641" lon="4.58248">
        <ele>910.79998779297</ele>
        <time>2026-05-12T09:39:23.000Z</time>
      </trkpt>
      <trkpt lat="45.26641" lon="4.58242">
        <ele>910.59997558594</ele>
        <time>2026-05-12T09:39:24.000Z</time>
      </trkpt>
      <trkpt lat="45.26642" lon="4.58237">
        <ele>910.59997558594</ele>
        <time>2026-05-12T09:39:25.000Z</time>
      </trkpt>
      <trkpt lat="45.26642" lon="4.58231">
        <ele>910.40002441406</ele>
        <time>2026-05-12T09:39:26.000Z</time>
      </trkpt>
      <trkpt lat="45.26642" lon="4.58225">
        <ele>910.40002441406</ele>
        <time>2026-05-12T09:39:27.000Z</time>
      </trkpt>
      <trkpt lat="45.26642" lon="4.5822">
        <ele>910.20001220703</ele>
        <time>2026-05-12T09:39:28.000Z</time>
      </trkpt>
      <trkpt lat="45.26643" lon="4.58215">
        <ele>910.20001220703</ele>
        <time>2026-05-12T09:39:29.000Z</time>
      </trkpt>
      <trkpt lat="45.26643" lon="4.5821">
        <ele>910</ele>
        <time>2026-05-12T09:39:30.000Z</time>
      </trkpt>
      <trkpt lat="45.26643" lon="4.58205">
        <ele>910</ele>
        <time>2026-05-12T09:39:31.000Z</time>
      </trkpt>
      <trkpt lat="45.26643" lon="4.582">
        <ele>910</ele>
        <time>2026-05-12T09:39:32.000Z</time>
      </trkpt>
      <trkpt lat="45.26644" lon="4.58195">
        <ele>910</ele>
        <time>2026-05-12T09:39:33.000Z</time>
      </trkpt>
      <trkpt lat="45.26644" lon="4.58191">
        <ele>910</ele>
        <time>2026-05-12T09:39:34.000Z</time>
      </trkpt>
      <trkpt lat="45.26644" lon="4.58186">
        <ele>910</ele>
        <time>2026-05-12T09:39:35.000Z</time>
      </trkpt>
      <trkpt lat="45.26644" lon="4.58181">
        <ele>910</ele>
        <time>2026-05-12T09:39:36.000Z</time>
      </trkpt>
      <trkpt lat="45.26645" lon="4.58176">
        <ele>910</ele>
        <time>2026-05-12T09:39:37.000Z</time>
      </trkpt>
      <trkpt lat="45.26645" lon="4.58171">
        <ele>909.79998779297</ele>
        <time>2026-05-12T09:39:38.000Z</time>
      </trkpt>
      <trkpt lat="45.26645" lon="4.58165">
        <ele>909.79998779297</ele>
        <time>2026-05-12T09:39:39.000Z</time>
      </trkpt>
      <trkpt lat="45.26645" lon="4.5816">
        <ele>909.59997558594</ele>
        <time>2026-05-12T09:39:40.000Z</time>
      </trkpt>
      <trkpt lat="45.26645" lon="4.58154">
        <ele>909.59997558594</ele>
        <time>2026-05-12T09:39:41.000Z</time>
      </trkpt>
      <trkpt lat="45.26645" lon="4.58149">
        <ele>909.59997558594</ele>
        <time>2026-05-12T09:39:42.000Z</time>
      </trkpt>
      <trkpt lat="45.26646" lon="4.58145">
        <ele>909.59997558594</ele>
        <time>2026-05-12T09:39:43.000Z</time>
      </trkpt>
      <trkpt lat="45.26646" lon="4.58141">
        <ele>909.59997558594</ele>
        <time>2026-05-12T09:39:44.000Z</time>
      </trkpt>
      <trkpt lat="45.26646" lon="4.58136">
        <ele>909.79998779297</ele>
        <time>2026-05-12T09:39:45.000Z</time>
      </trkpt>
      <trkpt lat="45.26646" lon="4.58132">
        <ele>909.79998779297</ele>
        <time>2026-05-12T09:39:46.000Z</time>
      </trkpt>
      <trkpt lat="45.26645" lon="4.58128">
        <ele>909.79998779297</ele>
        <time>2026-05-12T09:39:47.000Z</time>
      </trkpt>
      <trkpt lat="45.26645" lon="4.58124">
        <ele>909.79998779297</ele>
        <time>2026-05-12T09:39:48.000Z</time>
      </trkpt>
      <trkpt lat="45.26645" lon="4.5812">
        <ele>909.79998779297</ele>
        <time>2026-05-12T09:39:49.000Z</time>
      </trkpt>
      <trkpt lat="45.26646" lon="4.58115">
        <ele>909.79998779297</ele>
        <time>2026-05-12T09:39:50.000Z</time>
      </trkpt>
      <trkpt lat="45.26645" lon="4.58111">
        <ele>909.79998779297</ele>
        <time>2026-05-12T09:39:51.000Z</time>
      </trkpt>
      <trkpt lat="45.26645" lon="4.58106">
        <ele>909.79998779297</ele>
        <time>2026-05-12T09:39:52.000Z</time>
      </trkpt>
      <trkpt lat="45.26644" lon="4.58102">
        <ele>909.59997558594</ele>
        <time>2026-05-12T09:39:53.000Z</time>
      </trkpt>
      <trkpt lat="45.26643" lon="4.58097">
        <ele>909.59997558594</ele>
        <time>2026-05-12T09:39:54.000Z</time>
      </trkpt>
      <trkpt lat="45.26642" lon="4.58093">
        <ele>909.59997558594</ele>
        <time>2026-05-12T09:39:55.000Z</time>
      </trkpt>
      <trkpt lat="45.26641" lon="4.58089">
        <ele>909.40002441406</ele>
        <time>2026-05-12T09:39:56.000Z</time>
      </trkpt>
      <trkpt lat="45.2664" lon="4.58084">
        <ele>909.40002441406</ele>
        <time>2026-05-12T09:39:57.000Z</time>
      </trkpt>
      <trkpt lat="45.26639" lon="4.5808">
        <ele>909.40002441406</ele>
        <time>2026-05-12T09:39:58.000Z</time>
      </trkpt>
      <trkpt lat="45.26639" lon="4.58076">
        <ele>909.40002441406</ele>
        <time>2026-05-12T09:39:59.000Z</time>
      </trkpt>
      <trkpt lat="45.26638" lon="4.58071">
        <ele>909.40002441406</ele>
        <time>2026-05-12T09:40:00.000Z</time>
      </trkpt>
      <trkpt lat="45.26638" lon="4.58067">
        <ele>909.40002441406</ele>
        <time>2026-05-12T09:40:01.000Z</time>
      </trkpt>
      <trkpt lat="45.26638" lon="4.58063">
        <ele>909.20001220703</ele>
        <time>2026-05-12T09:40:02.000Z</time>
      </trkpt>
      <trkpt lat="45.26638" lon="4.58058">
        <ele>909.20001220703</ele>
        <time>2026-05-12T09:40:03.000Z</time>
      </trkpt>
      <trkpt lat="45.26638" lon="4.58053">
        <ele>909</ele>
        <time>2026-05-12T09:40:04.000Z</time>
      </trkpt>
      <trkpt lat="45.26638" lon="4.58048">
        <ele>908.79998779297</ele>
        <time>2026-05-12T09:40:05.000Z</time>
      </trkpt>
      <trkpt lat="45.26638" lon="4.58043">
        <ele>908.59997558594</ele>
        <time>2026-05-12T09:40:06.000Z</time>
      </trkpt>
      <trkpt lat="45.26638" lon="4.58037">
        <ele>908.40002441406</ele>
        <time>2026-05-12T09:40:07.000Z</time>
      </trkpt>
      <trkpt lat="45.26638" lon="4.58032">
        <ele>908.20001220703</ele>
        <time>2026-05-12T09:40:08.000Z</time>
      </trkpt>
      <trkpt lat="45.26638" lon="4.58027">
        <ele>908</ele>
        <time>2026-05-12T09:40:09.000Z</time>
      </trkpt>
      <trkpt lat="45.26638" lon="4.58023">
        <ele>907.79998779297</ele>
        <time>2026-05-12T09:40:10.000Z</time>
      </trkpt>
      <trkpt lat="45.26638" lon="4.58019">
        <ele>907.79998779297</ele>
        <time>2026-05-12T09:40:11.000Z</time>
      </trkpt>
      <trkpt lat="45.26638" lon="4.58015">
        <ele>907.79998779297</ele>
        <time>2026-05-12T09:40:12.000Z</time>
      </trkpt>
      <trkpt lat="45.26638" lon="4.58012">
        <ele>907.59997558594</ele>
        <time>2026-05-12T09:40:13.000Z</time>
      </trkpt>
      <trkpt lat="45.26638" lon="4.58008">
        <ele>907.59997558594</ele>
        <time>2026-05-12T09:40:14.000Z</time>
      </trkpt>
      <trkpt lat="45.26638" lon="4.58004">
        <ele>907.59997558594</ele>
        <time>2026-05-12T09:40:15.000Z</time>
      </trkpt>
      <trkpt lat="45.26639" lon="4.58001">
        <ele>907.40002441406</ele>
        <time>2026-05-12T09:40:16.000Z</time>
      </trkpt>
      <trkpt lat="45.26639" lon="4.57998">
        <ele>907.40002441406</ele>
        <time>2026-05-12T09:40:17.000Z</time>
      </trkpt>
      <trkpt lat="45.2664" lon="4.57995">
        <ele>907.20001220703</ele>
        <time>2026-05-12T09:40:18.000Z</time>
      </trkpt>
      <trkpt lat="45.26642" lon="4.57992">
        <ele>907.20001220703</ele>
        <time>2026-05-12T09:40:19.000Z</time>
      </trkpt>
      <trkpt lat="45.26643" lon="4.5799">
        <ele>907.20001220703</ele>
        <time>2026-05-12T09:40:20.000Z</time>
      </trkpt>
      <trkpt lat="45.26644" lon="4.57987">
        <ele>907.20001220703</ele>
        <time>2026-05-12T09:40:21.000Z</time>
      </trkpt>
      <trkpt lat="45.26646" lon="4.57986">
        <ele>907.20001220703</ele>
        <time>2026-05-12T09:40:22.000Z</time>
      </trkpt>
      <trkpt lat="45.26648" lon="4.57984">
        <ele>907.40002441406</ele>
        <time>2026-05-12T09:40:23.000Z</time>
      </trkpt>
      <trkpt lat="45.26649" lon="4.57982">
        <ele>907.40002441406</ele>
        <time>2026-05-12T09:40:24.000Z</time>
      </trkpt>
      <trkpt lat="45.26651" lon="4.5798">
        <ele>907.59997558594</ele>
        <time>2026-05-12T09:40:25.000Z</time>
      </trkpt>
      <trkpt lat="45.26653" lon="4.57978">
        <ele>907.59997558594</ele>
        <time>2026-05-12T09:40:26.000Z</time>
      </trkpt>
      <trkpt lat="45.26655" lon="4.57977">
        <ele>907.59997558594</ele>
        <time>2026-05-12T09:40:27.000Z</time>
      </trkpt>
      <trkpt lat="45.26657" lon="4.57975">
        <ele>907.79998779297</ele>
        <time>2026-05-12T09:40:28.000Z</time>
      </trkpt>
      <trkpt lat="45.26659" lon="4.57975">
        <ele>907.79998779297</ele>
        <time>2026-05-12T09:40:29.000Z</time>
      </trkpt>
      <trkpt lat="45.26662" lon="4.57974">
        <ele>908</ele>
        <time>2026-05-12T09:40:30.000Z</time>
      </trkpt>
      <trkpt lat="45.26665" lon="4.57974">
        <ele>908</ele>
        <time>2026-05-12T09:40:31.000Z</time>
      </trkpt>
      <trkpt lat="45.26667" lon="4.57972">
        <ele>908.20001220703</ele>
        <time>2026-05-12T09:40:32.000Z</time>
      </trkpt>
      <trkpt lat="45.2667" lon="4.57971">
        <ele>908.20001220703</ele>
        <time>2026-05-12T09:40:33.000Z</time>
      </trkpt>
      <trkpt lat="45.26672" lon="4.5797">
        <ele>908.20001220703</ele>
        <time>2026-05-12T09:40:34.000Z</time>
      </trkpt>
      <trkpt lat="45.26674" lon="4.57969">
        <ele>908.40002441406</ele>
        <time>2026-05-12T09:40:35.000Z</time>
      </trkpt>
      <trkpt lat="45.26676" lon="4.57968">
        <ele>908.59997558594</ele>
        <time>2026-05-12T09:40:36.000Z</time>
      </trkpt>
      <trkpt lat="45.26678" lon="4.57967">
        <ele>908.79998779297</ele>
        <time>2026-05-12T09:40:37.000Z</time>
      </trkpt>
      <trkpt lat="45.2668" lon="4.57966">
        <ele>909</ele>
        <time>2026-05-12T09:40:38.000Z</time>
      </trkpt>
      <trkpt lat="45.26682" lon="4.57964">
        <ele>909.20001220703</ele>
        <time>2026-05-12T09:40:39.000Z</time>
      </trkpt>
      <trkpt lat="45.26683" lon="4.57963">
        <ele>909.20001220703</ele>
        <time>2026-05-12T09:40:40.000Z</time>
      </trkpt>
      <trkpt lat="45.26685" lon="4.57961">
        <ele>909.40002441406</ele>
        <time>2026-05-12T09:40:41.000Z</time>
      </trkpt>
      <trkpt lat="45.26686" lon="4.57958">
        <ele>909.40002441406</ele>
        <time>2026-05-12T09:40:42.000Z</time>
      </trkpt>
      <trkpt lat="45.26688" lon="4.57956">
        <ele>909.40002441406</ele>
        <time>2026-05-12T09:40:43.000Z</time>
      </trkpt>
      <trkpt lat="45.26689" lon="4.57953">
        <ele>909.40002441406</ele>
        <time>2026-05-12T09:40:44.000Z</time>
      </trkpt>
      <trkpt lat="45.2669" lon="4.57949">
        <ele>909.40002441406</ele>
        <time>2026-05-12T09:40:45.000Z</time>
      </trkpt>
      <trkpt lat="45.26691" lon="4.57946">
        <ele>909.40002441406</ele>
        <time>2026-05-12T09:40:46.000Z</time>
      </trkpt>
      <trkpt lat="45.26692" lon="4.57943">
        <ele>909.40002441406</ele>
        <time>2026-05-12T09:40:47.000Z</time>
      </trkpt>
      <trkpt lat="45.26694" lon="4.57939">
        <ele>909.40002441406</ele>
        <time>2026-05-12T09:40:48.000Z</time>
      </trkpt>
      <trkpt lat="45.26695" lon="4.57936">
        <ele>909.40002441406</ele>
        <time>2026-05-12T09:40:49.000Z</time>
      </trkpt>
      <trkpt lat="45.26696" lon="4.57932">
        <ele>909.40002441406</ele>
        <time>2026-05-12T09:40:50.000Z</time>
      </trkpt>
      <trkpt lat="45.26698" lon="4.5793">
        <ele>909.40002441406</ele>
        <time>2026-05-12T09:40:51.000Z</time>
      </trkpt>
      <trkpt lat="45.26699" lon="4.57927">
        <ele>909.40002441406</ele>
        <time>2026-05-12T09:40:52.000Z</time>
      </trkpt>
      <trkpt lat="45.267" lon="4.57924">
        <ele>909.40002441406</ele>
        <time>2026-05-12T09:40:53.000Z</time>
      </trkpt>
      <trkpt lat="45.26701" lon="4.57921">
        <ele>909.40002441406</ele>
        <time>2026-05-12T09:40:54.000Z</time>
      </trkpt>
      <trkpt lat="45.26702" lon="4.57918">
        <ele>909.40002441406</ele>
        <time>2026-05-12T09:40:55.000Z</time>
      </trkpt>
      <trkpt lat="45.26703" lon="4.57915">
        <ele>909.40002441406</ele>
        <time>2026-05-12T09:40:56.000Z</time>
      </trkpt>
      <trkpt lat="45.26704" lon="4.57911">
        <ele>909.40002441406</ele>
        <time>2026-05-12T09:40:57.000Z</time>
      </trkpt>
      <trkpt lat="45.26705" lon="4.57908">
        <ele>909.40002441406</ele>
        <time>2026-05-12T09:40:58.000Z</time>
      </trkpt>
      <trkpt lat="45.26706" lon="4.57906">
        <ele>909.40002441406</ele>
        <time>2026-05-12T09:40:59.000Z</time>
      </trkpt>
      <trkpt lat="45.26706" lon="4.57904">
        <ele>909.40002441406</ele>
        <time>2026-05-12T09:41:00.000Z</time>
      </trkpt>
      <trkpt lat="45.26707" lon="4.57901">
        <ele>909.40002441406</ele>
        <time>2026-05-12T09:41:01.000Z</time>
      </trkpt>
      <trkpt lat="45.26708" lon="4.57898">
        <ele>909.40002441406</ele>
        <time>2026-05-12T09:41:02.000Z</time>
      </trkpt>
      <trkpt lat="45.26709" lon="4.57895">
        <ele>909.40002441406</ele>
        <time>2026-05-12T09:41:03.000Z</time>
      </trkpt>
      <trkpt lat="45.2671" lon="4.57892">
        <ele>909.40002441406</ele>
        <time>2026-05-12T09:41:04.000Z</time>
      </trkpt>
      <trkpt lat="45.2671" lon="4.57889">
        <ele>909.40002441406</ele>
        <time>2026-05-12T09:41:05.000Z</time>
      </trkpt>
      <trkpt lat="45.26711" lon="4.57886">
        <ele>909.40002441406</ele>
        <time>2026-05-12T09:41:06.000Z</time>
      </trkpt>
      <trkpt lat="45.26712" lon="4.57883">
        <ele>909.40002441406</ele>
        <time>2026-05-12T09:41:07.000Z</time>
      </trkpt>
      <trkpt lat="45.26713" lon="4.5788">
        <ele>909.40002441406</ele>
        <time>2026-05-12T09:41:08.000Z</time>
      </trkpt>
      <trkpt lat="45.26714" lon="4.57877">
        <ele>909.40002441406</ele>
        <time>2026-05-12T09:41:09.000Z</time>
      </trkpt>
      <trkpt lat="45.26714" lon="4.57874">
        <ele>909.59997558594</ele>
        <time>2026-05-12T09:41:10.000Z</time>
      </trkpt>
      <trkpt lat="45.26715" lon="4.57871">
        <ele>909.40002441406</ele>
        <time>2026-05-12T09:41:11.000Z</time>
      </trkpt>
      <trkpt lat="45.26716" lon="4.57868">
        <ele>909.40002441406</ele>
        <time>2026-05-12T09:41:12.000Z</time>
      </trkpt>
      <trkpt lat="45.26717" lon="4.57864">
        <ele>909.40002441406</ele>
        <time>2026-05-12T09:41:13.000Z</time>
      </trkpt>
      <trkpt lat="45.26718" lon="4.57861">
        <ele>909.40002441406</ele>
        <time>2026-05-12T09:41:14.000Z</time>
      </trkpt>
      <trkpt lat="45.26719" lon="4.57858">
        <ele>909.40002441406</ele>
        <time>2026-05-12T09:41:15.000Z</time>
      </trkpt>
      <trkpt lat="45.2672" lon="4.57854">
        <ele>909.40002441406</ele>
        <time>2026-05-12T09:41:16.000Z</time>
      </trkpt>
      <trkpt lat="45.26721" lon="4.57851">
        <ele>909.40002441406</ele>
        <time>2026-05-12T09:41:17.000Z</time>
      </trkpt>
      <trkpt lat="45.26722" lon="4.57848">
        <ele>909.40002441406</ele>
        <time>2026-05-12T09:41:18.000Z</time>
      </trkpt>
      <trkpt lat="45.26723" lon="4.57844">
        <ele>909.40002441406</ele>
        <time>2026-05-12T09:41:19.000Z</time>
      </trkpt>
      <trkpt lat="45.26724" lon="4.57841">
        <ele>909.40002441406</ele>
        <time>2026-05-12T09:41:20.000Z</time>
      </trkpt>
      <trkpt lat="45.26725" lon="4.57838">
        <ele>909.59997558594</ele>
        <time>2026-05-12T09:41:21.000Z</time>
      </trkpt>
      <trkpt lat="45.26725" lon="4.57834">
        <ele>909.59997558594</ele>
        <time>2026-05-12T09:41:22.000Z</time>
      </trkpt>
      <trkpt lat="45.26726" lon="4.57831">
        <ele>909.59997558594</ele>
        <time>2026-05-12T09:41:23.000Z</time>
      </trkpt>
      <trkpt lat="45.26727" lon="4.57828">
        <ele>909.79998779297</ele>
        <time>2026-05-12T09:41:24.000Z</time>
      </trkpt>
      <trkpt lat="45.26728" lon="4.57825">
        <ele>909.79998779297</ele>
        <time>2026-05-12T09:41:25.000Z</time>
      </trkpt>
      <trkpt lat="45.26729" lon="4.57822">
        <ele>910</ele>
        <time>2026-05-12T09:41:26.000Z</time>
      </trkpt>
      <trkpt lat="45.26729" lon="4.57819">
        <ele>910</ele>
        <time>2026-05-12T09:41:27.000Z</time>
      </trkpt>
      <trkpt lat="45.2673" lon="4.57816">
        <ele>910.20001220703</ele>
        <time>2026-05-12T09:41:28.000Z</time>
      </trkpt>
      <trkpt lat="45.26731" lon="4.57813">
        <ele>910.20001220703</ele>
        <time>2026-05-12T09:41:29.000Z</time>
      </trkpt>
      <trkpt lat="45.26732" lon="4.5781">
        <ele>910.20001220703</ele>
        <time>2026-05-12T09:41:30.000Z</time>
      </trkpt>
      <trkpt lat="45.26733" lon="4.57807">
        <ele>910.40002441406</ele>
        <time>2026-05-12T09:41:31.000Z</time>
      </trkpt>
      <trkpt lat="45.26733" lon="4.57805">
        <ele>910.40002441406</ele>
        <time>2026-05-12T09:41:32.000Z</time>
      </trkpt>
      <trkpt lat="45.26733" lon="4.57802">
        <ele>910.59997558594</ele>
        <time>2026-05-12T09:41:33.000Z</time>
      </trkpt>
      <trkpt lat="45.26734" lon="4.57799">
        <ele>910.59997558594</ele>
        <time>2026-05-12T09:41:34.000Z</time>
      </trkpt>
      <trkpt lat="45.26734" lon="4.57796">
        <ele>910.79998779297</ele>
        <time>2026-05-12T09:41:35.000Z</time>
      </trkpt>
      <trkpt lat="45.26735" lon="4.57793">
        <ele>910.79998779297</ele>
        <time>2026-05-12T09:41:36.000Z</time>
      </trkpt>
      <trkpt lat="45.26736" lon="4.5779">
        <ele>911</ele>
        <time>2026-05-12T09:41:37.000Z</time>
      </trkpt>
      <trkpt lat="45.26736" lon="4.57787">
        <ele>911</ele>
        <time>2026-05-12T09:41:38.000Z</time>
      </trkpt>
      <trkpt lat="45.26737" lon="4.57784">
        <ele>911.20001220703</ele>
        <time>2026-05-12T09:41:39.000Z</time>
      </trkpt>
      <trkpt lat="45.26738" lon="4.57782">
        <ele>911.40002441406</ele>
        <time>2026-05-12T09:41:40.000Z</time>
      </trkpt>
      <trkpt lat="45.26739" lon="4.57779">
        <ele>911.40002441406</ele>
        <time>2026-05-12T09:41:41.000Z</time>
      </trkpt>
      <trkpt lat="45.26739" lon="4.57776">
        <ele>911.59997558594</ele>
        <time>2026-05-12T09:41:42.000Z</time>
      </trkpt>
      <trkpt lat="45.2674" lon="4.57773">
        <ele>911.79998779297</ele>
        <time>2026-05-12T09:41:43.000Z</time>
      </trkpt>
      <trkpt lat="45.26741" lon="4.5777">
        <ele>912</ele>
        <time>2026-05-12T09:41:44.000Z</time>
      </trkpt>
      <trkpt lat="45.26742" lon="4.57768">
        <ele>912</ele>
        <time>2026-05-12T09:41:45.000Z</time>
      </trkpt>
      <trkpt lat="45.26742" lon="4.57765">
        <ele>912.20001220703</ele>
        <time>2026-05-12T09:41:46.000Z</time>
      </trkpt>
      <trkpt lat="45.26743" lon="4.57763">
        <ele>912.20001220703</ele>
        <time>2026-05-12T09:41:47.000Z</time>
      </trkpt>
      <trkpt lat="45.26743" lon="4.5776">
        <ele>912.40002441406</ele>
        <time>2026-05-12T09:41:48.000Z</time>
      </trkpt>
      <trkpt lat="45.26744" lon="4.57757">
        <ele>912.40002441406</ele>
        <time>2026-05-12T09:41:49.000Z</time>
      </trkpt>
      <trkpt lat="45.26744" lon="4.57754">
        <ele>912.59997558594</ele>
        <time>2026-05-12T09:41:50.000Z</time>
      </trkpt>
      <trkpt lat="45.26745" lon="4.57752">
        <ele>912.59997558594</ele>
        <time>2026-05-12T09:41:51.000Z</time>
      </trkpt>
      <trkpt lat="45.26745" lon="4.57749">
        <ele>912.79998779297</ele>
        <time>2026-05-12T09:41:52.000Z</time>
      </trkpt>
      <trkpt lat="45.26746" lon="4.57746">
        <ele>912.79998779297</ele>
        <time>2026-05-12T09:41:53.000Z</time>
      </trkpt>
      <trkpt lat="45.26746" lon="4.57743">
        <ele>913</ele>
        <time>2026-05-12T09:41:54.000Z</time>
      </trkpt>
      <trkpt lat="45.26747" lon="4.5774">
        <ele>913</ele>
        <time>2026-05-12T09:41:55.000Z</time>
      </trkpt>
      <trkpt lat="45.26747" lon="4.57738">
        <ele>913.20001220703</ele>
        <time>2026-05-12T09:41:56.000Z</time>
      </trkpt>
      <trkpt lat="45.26748" lon="4.57735">
        <ele>913.20001220703</ele>
        <time>2026-05-12T09:41:57.000Z</time>
      </trkpt>
      <trkpt lat="45.26749" lon="4.57733">
        <ele>913.40002441406</ele>
        <time>2026-05-12T09:41:58.000Z</time>
      </trkpt>
      <trkpt lat="45.2675" lon="4.5773">
        <ele>913.40002441406</ele>
        <time>2026-05-12T09:41:59.000Z</time>
      </trkpt>
      <trkpt lat="45.26751" lon="4.57727">
        <ele>913.59997558594</ele>
        <time>2026-05-12T09:42:00.000Z</time>
      </trkpt>
      <trkpt lat="45.26751" lon="4.57725">
        <ele>913.79998779297</ele>
        <time>2026-05-12T09:42:01.000Z</time>
      </trkpt>
      <trkpt lat="45.26753" lon="4.57722">
        <ele>913.79998779297</ele>
        <time>2026-05-12T09:42:02.000Z</time>
      </trkpt>
      <trkpt lat="45.26754" lon="4.5772">
        <ele>914</ele>
        <time>2026-05-12T09:42:03.000Z</time>
      </trkpt>
      <trkpt lat="45.26755" lon="4.57718">
        <ele>914</ele>
        <time>2026-05-12T09:42:04.000Z</time>
      </trkpt>
      <trkpt lat="45.26757" lon="4.57716">
        <ele>914.20001220703</ele>
        <time>2026-05-12T09:42:05.000Z</time>
      </trkpt>
      <trkpt lat="45.26758" lon="4.57714">
        <ele>914.20001220703</ele>
        <time>2026-05-12T09:42:06.000Z</time>
      </trkpt>
      <trkpt lat="45.26759" lon="4.57712">
        <ele>914.40002441406</ele>
        <time>2026-05-12T09:42:07.000Z</time>
      </trkpt>
      <trkpt lat="45.26761" lon="4.5771">
        <ele>914.40002441406</ele>
        <time>2026-05-12T09:42:08.000Z</time>
      </trkpt>
      <trkpt lat="45.26762" lon="4.57708">
        <ele>914.59997558594</ele>
        <time>2026-05-12T09:42:09.000Z</time>
      </trkpt>
      <trkpt lat="45.26763" lon="4.57706">
        <ele>914.59997558594</ele>
        <time>2026-05-12T09:42:10.000Z</time>
      </trkpt>
      <trkpt lat="45.26765" lon="4.57704">
        <ele>914.79998779297</ele>
        <time>2026-05-12T09:42:11.000Z</time>
      </trkpt>
      <trkpt lat="45.26766" lon="4.57702">
        <ele>914.79998779297</ele>
        <time>2026-05-12T09:42:12.000Z</time>
      </trkpt>
      <trkpt lat="45.26767" lon="4.57699">
        <ele>915</ele>
        <time>2026-05-12T09:42:13.000Z</time>
      </trkpt>
      <trkpt lat="45.26768" lon="4.57697">
        <ele>915</ele>
        <time>2026-05-12T09:42:14.000Z</time>
      </trkpt>
      <trkpt lat="45.26769" lon="4.57695">
        <ele>915.20001220703</ele>
        <time>2026-05-12T09:42:15.000Z</time>
      </trkpt>
      <trkpt lat="45.2677" lon="4.57692">
        <ele>915.20001220703</ele>
        <time>2026-05-12T09:42:16.000Z</time>
      </trkpt>
      <trkpt lat="45.26771" lon="4.5769">
        <ele>915.40002441406</ele>
        <time>2026-05-12T09:42:17.000Z</time>
      </trkpt>
      <trkpt lat="45.26772" lon="4.57688">
        <ele>915.40002441406</ele>
        <time>2026-05-12T09:42:18.000Z</time>
      </trkpt>
      <trkpt lat="45.26773" lon="4.57686">
        <ele>915.59997558594</ele>
        <time>2026-05-12T09:42:19.000Z</time>
      </trkpt>
      <trkpt lat="45.26774" lon="4.57683">
        <ele>915.59997558594</ele>
        <time>2026-05-12T09:42:20.000Z</time>
      </trkpt>
      <trkpt lat="45.26775" lon="4.57681">
        <ele>915.79998779297</ele>
        <time>2026-05-12T09:42:21.000Z</time>
      </trkpt>
      <trkpt lat="45.26775" lon="4.57678">
        <ele>915.79998779297</ele>
        <time>2026-05-12T09:42:22.000Z</time>
      </trkpt>
      <trkpt lat="45.26776" lon="4.57676">
        <ele>916</ele>
        <time>2026-05-12T09:42:23.000Z</time>
      </trkpt>
      <trkpt lat="45.26777" lon="4.57673">
        <ele>916</ele>
        <time>2026-05-12T09:42:24.000Z</time>
      </trkpt>
      <trkpt lat="45.26778" lon="4.5767">
        <ele>916.20001220703</ele>
        <time>2026-05-12T09:42:25.000Z</time>
      </trkpt>
      <trkpt lat="45.26778" lon="4.57668">
        <ele>916.40002441406</ele>
        <time>2026-05-12T09:42:26.000Z</time>
      </trkpt>
      <trkpt lat="45.26779" lon="4.57665">
        <ele>916.59997558594</ele>
        <time>2026-05-12T09:42:27.000Z</time>
      </trkpt>
      <trkpt lat="45.2678" lon="4.57663">
        <ele>916.79998779297</ele>
        <time>2026-05-12T09:42:28.000Z</time>
      </trkpt>
      <trkpt lat="45.26781" lon="4.57661">
        <ele>917.20001220703</ele>
        <time>2026-05-12T09:42:29.000Z</time>
      </trkpt>
      <trkpt lat="45.26782" lon="4.57658">
        <ele>917.40002441406</ele>
        <time>2026-05-12T09:42:30.000Z</time>
      </trkpt>
      <trkpt lat="45.26782" lon="4.57656">
        <ele>917.59997558594</ele>
        <time>2026-05-12T09:42:31.000Z</time>
      </trkpt>
      <trkpt lat="45.26783" lon="4.57654">
        <ele>917.79998779297</ele>
        <time>2026-05-12T09:42:32.000Z</time>
      </trkpt>
      <trkpt lat="45.26784" lon="4.57651">
        <ele>918</ele>
        <time>2026-05-12T09:42:33.000Z</time>
      </trkpt>
      <trkpt lat="45.26784" lon="4.57649">
        <ele>918.20001220703</ele>
        <time>2026-05-12T09:42:34.000Z</time>
      </trkpt>
      <trkpt lat="45.26784" lon="4.57647">
        <ele>918.40002441406</ele>
        <time>2026-05-12T09:42:35.000Z</time>
      </trkpt>
      <trkpt lat="45.26785" lon="4.57644">
        <ele>918.40002441406</ele>
        <time>2026-05-12T09:42:36.000Z</time>
      </trkpt>
      <trkpt lat="45.26785" lon="4.57641">
        <ele>918.40002441406</ele>
        <time>2026-05-12T09:42:37.000Z</time>
      </trkpt>
      <trkpt lat="45.26785" lon="4.57638">
        <ele>918.40002441406</ele>
        <time>2026-05-12T09:42:38.000Z</time>
      </trkpt>
      <trkpt lat="45.26786" lon="4.57636">
        <ele>918.40002441406</ele>
        <time>2026-05-12T09:42:39.000Z</time>
      </trkpt>
      <trkpt lat="45.26787" lon="4.57633">
        <ele>918.40002441406</ele>
        <time>2026-05-12T09:42:40.000Z</time>
      </trkpt>
      <trkpt lat="45.26787" lon="4.57631">
        <ele>918.59997558594</ele>
        <time>2026-05-12T09:42:41.000Z</time>
      </trkpt>
      <trkpt lat="45.26787" lon="4.57628">
        <ele>918.59997558594</ele>
        <time>2026-05-12T09:42:42.000Z</time>
      </trkpt>
      <trkpt lat="45.26788" lon="4.57626">
        <ele>918.59997558594</ele>
        <time>2026-05-12T09:42:43.000Z</time>
      </trkpt>
      <trkpt lat="45.26788" lon="4.57623">
        <ele>918.59997558594</ele>
        <time>2026-05-12T09:42:44.000Z</time>
      </trkpt>
      <trkpt lat="45.26789" lon="4.5762">
        <ele>918.59997558594</ele>
        <time>2026-05-12T09:42:45.000Z</time>
      </trkpt>
      <trkpt lat="45.26789" lon="4.57618">
        <ele>918.79998779297</ele>
        <time>2026-05-12T09:42:46.000Z</time>
      </trkpt>
      <trkpt lat="45.2679" lon="4.57615">
        <ele>918.79998779297</ele>
        <time>2026-05-12T09:42:47.000Z</time>
      </trkpt>
      <trkpt lat="45.26791" lon="4.57612">
        <ele>918.79998779297</ele>
        <time>2026-05-12T09:42:48.000Z</time>
      </trkpt>
      <trkpt lat="45.26791" lon="4.57609">
        <ele>919</ele>
        <time>2026-05-12T09:42:49.000Z</time>
      </trkpt>
      <trkpt lat="45.26792" lon="4.57606">
        <ele>919</ele>
        <time>2026-05-12T09:42:50.000Z</time>
      </trkpt>
      <trkpt lat="45.26793" lon="4.57603">
        <ele>919</ele>
        <time>2026-05-12T09:42:51.000Z</time>
      </trkpt>
      <trkpt lat="45.26793" lon="4.57601">
        <ele>919.20001220703</ele>
        <time>2026-05-12T09:42:52.000Z</time>
      </trkpt>
      <trkpt lat="45.26794" lon="4.57598">
        <ele>919.20001220703</ele>
        <time>2026-05-12T09:42:53.000Z</time>
      </trkpt>
      <trkpt lat="45.26795" lon="4.57596">
        <ele>919.20001220703</ele>
        <time>2026-05-12T09:42:54.000Z</time>
      </trkpt>
      <trkpt lat="45.26796" lon="4.57594">
        <ele>919.20001220703</ele>
        <time>2026-05-12T09:42:55.000Z</time>
      </trkpt>
      <trkpt lat="45.26797" lon="4.57591">
        <ele>919.40002441406</ele>
        <time>2026-05-12T09:42:56.000Z</time>
      </trkpt>
      <trkpt lat="45.26798" lon="4.57589">
        <ele>919.40002441406</ele>
        <time>2026-05-12T09:42:57.000Z</time>
      </trkpt>
      <trkpt lat="45.26799" lon="4.57587">
        <ele>919.59997558594</ele>
        <time>2026-05-12T09:42:58.000Z</time>
      </trkpt>
      <trkpt lat="45.268" lon="4.57585">
        <ele>919.59997558594</ele>
        <time>2026-05-12T09:42:59.000Z</time>
      </trkpt>
      <trkpt lat="45.26801" lon="4.57583">
        <ele>919.79998779297</ele>
        <time>2026-05-12T09:43:00.000Z</time>
      </trkpt>
      <trkpt lat="45.26803" lon="4.57581">
        <ele>919.79998779297</ele>
        <time>2026-05-12T09:43:01.000Z</time>
      </trkpt>
      <trkpt lat="45.26804" lon="4.57579">
        <ele>920</ele>
        <time>2026-05-12T09:43:02.000Z</time>
      </trkpt>
      <trkpt lat="45.26806" lon="4.57577">
        <ele>920.20001220703</ele>
        <time>2026-05-12T09:43:03.000Z</time>
      </trkpt>
      <trkpt lat="45.26807" lon="4.57575">
        <ele>920.20001220703</ele>
        <time>2026-05-12T09:43:04.000Z</time>
      </trkpt>
      <trkpt lat="45.26809" lon="4.57573">
        <ele>920.40002441406</ele>
        <time>2026-05-12T09:43:05.000Z</time>
      </trkpt>
      <trkpt lat="45.2681" lon="4.57571">
        <ele>920.59997558594</ele>
        <time>2026-05-12T09:43:06.000Z</time>
      </trkpt>
      <trkpt lat="45.26811" lon="4.5757">
        <ele>920.59997558594</ele>
        <time>2026-05-12T09:43:07.000Z</time>
      </trkpt>
      <trkpt lat="45.26813" lon="4.57568">
        <ele>920.79998779297</ele>
        <time>2026-05-12T09:43:08.000Z</time>
      </trkpt>
      <trkpt lat="45.26814" lon="4.57566">
        <ele>920.79998779297</ele>
        <time>2026-05-12T09:43:09.000Z</time>
      </trkpt>
      <trkpt lat="45.26816" lon="4.57565">
        <ele>921</ele>
        <time>2026-05-12T09:43:10.000Z</time>
      </trkpt>
      <trkpt lat="45.26817" lon="4.57563">
        <ele>921.20001220703</ele>
        <time>2026-05-12T09:43:11.000Z</time>
      </trkpt>
      <trkpt lat="45.26819" lon="4.57561">
        <ele>921.20001220703</ele>
        <time>2026-05-12T09:43:12.000Z</time>
      </trkpt>
      <trkpt lat="45.2682" lon="4.57559">
        <ele>921.40002441406</ele>
        <time>2026-05-12T09:43:13.000Z</time>
      </trkpt>
      <trkpt lat="45.26822" lon="4.57557">
        <ele>921.40002441406</ele>
        <time>2026-05-12T09:43:14.000Z</time>
      </trkpt>
      <trkpt lat="45.26824" lon="4.57555">
        <ele>921.59997558594</ele>
        <time>2026-05-12T09:43:15.000Z</time>
      </trkpt>
      <trkpt lat="45.26825" lon="4.57553">
        <ele>921.59997558594</ele>
        <time>2026-05-12T09:43:16.000Z</time>
      </trkpt>
      <trkpt lat="45.26827" lon="4.57551">
        <ele>921.59997558594</ele>
        <time>2026-05-12T09:43:17.000Z</time>
      </trkpt>
      <trkpt lat="45.26829" lon="4.57549">
        <ele>921.79998779297</ele>
        <time>2026-05-12T09:43:18.000Z</time>
      </trkpt>
      <trkpt lat="45.2683" lon="4.57547">
        <ele>921.79998779297</ele>
        <time>2026-05-12T09:43:19.000Z</time>
      </trkpt>
      <trkpt lat="45.26832" lon="4.57545">
        <ele>921.79998779297</ele>
        <time>2026-05-12T09:43:20.000Z</time>
      </trkpt>
      <trkpt lat="45.26834" lon="4.57543">
        <ele>922</ele>
        <time>2026-05-12T09:43:21.000Z</time>
      </trkpt>
      <trkpt lat="45.26835" lon="4.5754">
        <ele>922</ele>
        <time>2026-05-12T09:43:22.000Z</time>
      </trkpt>
      <trkpt lat="45.26837" lon="4.57538">
        <ele>922</ele>
        <time>2026-05-12T09:43:23.000Z</time>
      </trkpt>
      <trkpt lat="45.26839" lon="4.57536">
        <ele>922.20001220703</ele>
        <time>2026-05-12T09:43:24.000Z</time>
      </trkpt>
      <trkpt lat="45.2684" lon="4.57534">
        <ele>922.20001220703</ele>
        <time>2026-05-12T09:43:25.000Z</time>
      </trkpt>
      <trkpt lat="45.26842" lon="4.57532">
        <ele>922.40002441406</ele>
        <time>2026-05-12T09:43:26.000Z</time>
      </trkpt>
      <trkpt lat="45.26843" lon="4.5753">
        <ele>922.40002441406</ele>
        <time>2026-05-12T09:43:27.000Z</time>
      </trkpt>
      <trkpt lat="45.26845" lon="4.57528">
        <ele>922.40002441406</ele>
        <time>2026-05-12T09:43:28.000Z</time>
      </trkpt>
      <trkpt lat="45.26846" lon="4.57526">
        <ele>922.59997558594</ele>
        <time>2026-05-12T09:43:29.000Z</time>
      </trkpt>
      <trkpt lat="45.26848" lon="4.57524">
        <ele>922.59997558594</ele>
        <time>2026-05-12T09:43:30.000Z</time>
      </trkpt>
      <trkpt lat="45.26849" lon="4.57522">
        <ele>922.79998779297</ele>
        <time>2026-05-12T09:43:31.000Z</time>
      </trkpt>
      <trkpt lat="45.2685" lon="4.5752">
        <ele>923</ele>
        <time>2026-05-12T09:43:32.000Z</time>
      </trkpt>
      <trkpt lat="45.26852" lon="4.57518">
        <ele>923</ele>
        <time>2026-05-12T09:43:33.000Z</time>
      </trkpt>
      <trkpt lat="45.26853" lon="4.57517">
        <ele>923.20001220703</ele>
        <time>2026-05-12T09:43:34.000Z</time>
      </trkpt>
      <trkpt lat="45.26854" lon="4.57515">
        <ele>923.40002441406</ele>
        <time>2026-05-12T09:43:35.000Z</time>
      </trkpt>
      <trkpt lat="45.26855" lon="4.57513">
        <ele>923.59997558594</ele>
        <time>2026-05-12T09:43:36.000Z</time>
      </trkpt>
      <trkpt lat="45.26857" lon="4.57511">
        <ele>923.79998779297</ele>
        <time>2026-05-12T09:43:37.000Z</time>
      </trkpt>
      <trkpt lat="45.26858" lon="4.57509">
        <ele>923.79998779297</ele>
        <time>2026-05-12T09:43:38.000Z</time>
      </trkpt>
      <trkpt lat="45.26859" lon="4.57508">
        <ele>924</ele>
        <time>2026-05-12T09:43:39.000Z</time>
      </trkpt>
      <trkpt lat="45.26861" lon="4.57506">
        <ele>924</ele>
        <time>2026-05-12T09:43:40.000Z</time>
      </trkpt>
      <trkpt lat="45.26862" lon="4.57504">
        <ele>924.20001220703</ele>
        <time>2026-05-12T09:43:41.000Z</time>
      </trkpt>
      <trkpt lat="45.26863" lon="4.57502">
        <ele>924.40002441406</ele>
        <time>2026-05-12T09:43:42.000Z</time>
      </trkpt>
      <trkpt lat="45.26864" lon="4.575">
        <ele>924.40002441406</ele>
        <time>2026-05-12T09:43:43.000Z</time>
      </trkpt>
      <trkpt lat="45.26865" lon="4.57498">
        <ele>924.59997558594</ele>
        <time>2026-05-12T09:43:44.000Z</time>
      </trkpt>
      <trkpt lat="45.26866" lon="4.57496">
        <ele>924.79998779297</ele>
        <time>2026-05-12T09:43:45.000Z</time>
      </trkpt>
      <trkpt lat="45.26867" lon="4.57494">
        <ele>925</ele>
        <time>2026-05-12T09:43:46.000Z</time>
      </trkpt>
      <trkpt lat="45.26868" lon="4.57492">
        <ele>925.20001220703</ele>
        <time>2026-05-12T09:43:47.000Z</time>
      </trkpt>
      <trkpt lat="45.26869" lon="4.5749">
        <ele>925.20001220703</ele>
        <time>2026-05-12T09:43:48.000Z</time>
      </trkpt>
      <trkpt lat="45.26871" lon="4.57488">
        <ele>925.40002441406</ele>
        <time>2026-05-12T09:43:49.000Z</time>
      </trkpt>
      <trkpt lat="45.26872" lon="4.57487">
        <ele>925.59997558594</ele>
        <time>2026-05-12T09:43:50.000Z</time>
      </trkpt>
      <trkpt lat="45.26873" lon="4.57485">
        <ele>925.59997558594</ele>
        <time>2026-05-12T09:43:51.000Z</time>
      </trkpt>
      <trkpt lat="45.26874" lon="4.57483">
        <ele>925.79998779297</ele>
        <time>2026-05-12T09:43:52.000Z</time>
      </trkpt>
      <trkpt lat="45.26876" lon="4.5748">
        <ele>925.79998779297</ele>
        <time>2026-05-12T09:43:53.000Z</time>
      </trkpt>
      <trkpt lat="45.26877" lon="4.57478">
        <ele>926</ele>
        <time>2026-05-12T09:43:54.000Z</time>
      </trkpt>
      <trkpt lat="45.26878" lon="4.57476">
        <ele>926.20001220703</ele>
        <time>2026-05-12T09:43:55.000Z</time>
      </trkpt>
      <trkpt lat="45.26879" lon="4.57474">
        <ele>926.20001220703</ele>
        <time>2026-05-12T09:43:56.000Z</time>
      </trkpt>
      <trkpt lat="45.26881" lon="4.57472">
        <ele>926.40002441406</ele>
        <time>2026-05-12T09:43:57.000Z</time>
      </trkpt>
      <trkpt lat="45.26882" lon="4.5747">
        <ele>926.40002441406</ele>
        <time>2026-05-12T09:43:58.000Z</time>
      </trkpt>
      <trkpt lat="45.26884" lon="4.57469">
        <ele>926.40002441406</ele>
        <time>2026-05-12T09:43:59.000Z</time>
      </trkpt>
      <trkpt lat="45.26886" lon="4.57468">
        <ele>926.59997558594</ele>
        <time>2026-05-12T09:44:00.000Z</time>
      </trkpt>
      <trkpt lat="45.26887" lon="4.57467">
        <ele>926.59997558594</ele>
        <time>2026-05-12T09:44:01.000Z</time>
      </trkpt>
      <trkpt lat="45.26889" lon="4.57465">
        <ele>926.59997558594</ele>
        <time>2026-05-12T09:44:02.000Z</time>
      </trkpt>
      <trkpt lat="45.2689" lon="4.57463">
        <ele>926.59997558594</ele>
        <time>2026-05-12T09:44:03.000Z</time>
      </trkpt>
      <trkpt lat="45.26891" lon="4.57461">
        <ele>926.79998779297</ele>
        <time>2026-05-12T09:44:04.000Z</time>
      </trkpt>
      <trkpt lat="45.26892" lon="4.57459">
        <ele>927</ele>
        <time>2026-05-12T09:44:05.000Z</time>
      </trkpt>
      <trkpt lat="45.26893" lon="4.57456">
        <ele>927.20001220703</ele>
        <time>2026-05-12T09:44:06.000Z</time>
      </trkpt>
      <trkpt lat="45.26895" lon="4.57454">
        <ele>927.20001220703</ele>
        <time>2026-05-12T09:44:07.000Z</time>
      </trkpt>
      <trkpt lat="45.26896" lon="4.57453">
        <ele>927.40002441406</ele>
        <time>2026-05-12T09:44:08.000Z</time>
      </trkpt>
      <trkpt lat="45.26897" lon="4.57452">
        <ele>927.20001220703</ele>
        <time>2026-05-12T09:44:09.000Z</time>
      </trkpt>
      <trkpt lat="45.26898" lon="4.5745">
        <ele>927.20001220703</ele>
        <time>2026-05-12T09:44:10.000Z</time>
      </trkpt>
      <trkpt lat="45.26899" lon="4.5745">
        <ele>927.20001220703</ele>
        <time>2026-05-12T09:44:11.000Z</time>
      </trkpt>
      <trkpt lat="45.26899" lon="4.57448">
        <ele>927.20001220703</ele>
        <time>2026-05-12T09:44:12.000Z</time>
      </trkpt>
      <trkpt lat="45.26901" lon="4.57445">
        <ele>927.20001220703</ele>
        <time>2026-05-12T09:44:13.000Z</time>
      </trkpt>
      <trkpt lat="45.26902" lon="4.57442">
        <ele>927.40002441406</ele>
        <time>2026-05-12T09:44:14.000Z</time>
      </trkpt>
      <trkpt lat="45.26904" lon="4.57439">
        <ele>927.40002441406</ele>
        <time>2026-05-12T09:44:15.000Z</time>
      </trkpt>
      <trkpt lat="45.26906" lon="4.57437">
        <ele>927.59997558594</ele>
        <time>2026-05-12T09:44:16.000Z</time>
      </trkpt>
      <trkpt lat="45.26908" lon="4.57436">
        <ele>927.79998779297</ele>
        <time>2026-05-12T09:44:17.000Z</time>
      </trkpt>
      <trkpt lat="45.2691" lon="4.57435">
        <ele>928</ele>
        <time>2026-05-12T09:44:18.000Z</time>
      </trkpt>
      <trkpt lat="45.26912" lon="4.57433">
        <ele>928.20001220703</ele>
        <time>2026-05-12T09:44:19.000Z</time>
      </trkpt>
      <trkpt lat="45.26914" lon="4.5743">
        <ele>928.40002441406</ele>
        <time>2026-05-12T09:44:20.000Z</time>
      </trkpt>
      <trkpt lat="45.26917" lon="4.57429">
        <ele>928.79998779297</ele>
        <time>2026-05-12T09:44:21.000Z</time>
      </trkpt>
      <trkpt lat="45.26919" lon="4.57427">
        <ele>929</ele>
        <time>2026-05-12T09:44:22.000Z</time>
      </trkpt>
      <trkpt lat="45.26921" lon="4.57426">
        <ele>929.20001220703</ele>
        <time>2026-05-12T09:44:23.000Z</time>
      </trkpt>
      <trkpt lat="45.26922" lon="4.57425">
        <ele>929.40002441406</ele>
        <time>2026-05-12T09:44:24.000Z</time>
      </trkpt>
      <trkpt lat="45.26924" lon="4.57423">
        <ele>929.59997558594</ele>
        <time>2026-05-12T09:44:25.000Z</time>
      </trkpt>
      <trkpt lat="45.26926" lon="4.57422">
        <ele>929.79998779297</ele>
        <time>2026-05-12T09:44:26.000Z</time>
      </trkpt>
      <trkpt lat="45.26928" lon="4.57421">
        <ele>930</ele>
        <time>2026-05-12T09:44:27.000Z</time>
      </trkpt>
      <trkpt lat="45.2693" lon="4.5742">
        <ele>930.20001220703</ele>
        <time>2026-05-12T09:44:28.000Z</time>
      </trkpt>
      <trkpt lat="45.26932" lon="4.57419">
        <ele>930.20001220703</ele>
        <time>2026-05-12T09:44:29.000Z</time>
      </trkpt>
      <trkpt lat="45.26934" lon="4.57419">
        <ele>930.40002441406</ele>
        <time>2026-05-12T09:44:30.000Z</time>
      </trkpt>
      <trkpt lat="45.26935" lon="4.57418">
        <ele>930.40002441406</ele>
        <time>2026-05-12T09:44:31.000Z</time>
      </trkpt>
      <trkpt lat="45.26937" lon="4.57417">
        <ele>930.40002441406</ele>
        <time>2026-05-12T09:44:32.000Z</time>
      </trkpt>
      <trkpt lat="45.26939" lon="4.57417">
        <ele>930.59997558594</ele>
        <time>2026-05-12T09:44:33.000Z</time>
      </trkpt>
      <trkpt lat="45.26941" lon="4.57415">
        <ele>930.59997558594</ele>
        <time>2026-05-12T09:44:34.000Z</time>
      </trkpt>
      <trkpt lat="45.26943" lon="4.57413">
        <ele>930.79998779297</ele>
        <time>2026-05-12T09:44:35.000Z</time>
      </trkpt>
      <trkpt lat="45.26945" lon="4.57412">
        <ele>930.79998779297</ele>
        <time>2026-05-12T09:44:36.000Z</time>
      </trkpt>
      <trkpt lat="45.26947" lon="4.5741">
        <ele>931</ele>
        <time>2026-05-12T09:44:37.000Z</time>
      </trkpt>
      <trkpt lat="45.26949" lon="4.57409">
        <ele>931.20001220703</ele>
        <time>2026-05-12T09:44:38.000Z</time>
      </trkpt>
      <trkpt lat="45.26951" lon="4.57407">
        <ele>931.20001220703</ele>
        <time>2026-05-12T09:44:39.000Z</time>
      </trkpt>
      <trkpt lat="45.26952" lon="4.57405">
        <ele>931.40002441406</ele>
        <time>2026-05-12T09:44:40.000Z</time>
      </trkpt>
      <trkpt lat="45.26954" lon="4.57404">
        <ele>931.59997558594</ele>
        <time>2026-05-12T09:44:41.000Z</time>
      </trkpt>
      <trkpt lat="45.26956" lon="4.57402">
        <ele>931.79998779297</ele>
        <time>2026-05-12T09:44:42.000Z</time>
      </trkpt>
      <trkpt lat="45.26957" lon="4.57399">
        <ele>932</ele>
        <time>2026-05-12T09:44:43.000Z</time>
      </trkpt>
      <trkpt lat="45.26958" lon="4.57397">
        <ele>932</ele>
        <time>2026-05-12T09:44:44.000Z</time>
      </trkpt>
      <trkpt lat="45.26959" lon="4.57395">
        <ele>932.20001220703</ele>
        <time>2026-05-12T09:44:45.000Z</time>
      </trkpt>
      <trkpt lat="45.26961" lon="4.57393">
        <ele>932.40002441406</ele>
        <time>2026-05-12T09:44:46.000Z</time>
      </trkpt>
      <trkpt lat="45.26963" lon="4.57392">
        <ele>932.59997558594</ele>
        <time>2026-05-12T09:44:47.000Z</time>
      </trkpt>
      <trkpt lat="45.26964" lon="4.5739">
        <ele>932.79998779297</ele>
        <time>2026-05-12T09:44:48.000Z</time>
      </trkpt>
      <trkpt lat="45.26966" lon="4.57389">
        <ele>933</ele>
        <time>2026-05-12T09:44:49.000Z</time>
      </trkpt>
      <trkpt lat="45.26967" lon="4.57389">
        <ele>933.20001220703</ele>
        <time>2026-05-12T09:44:50.000Z</time>
      </trkpt>
      <trkpt lat="45.26969" lon="4.57388">
        <ele>933.40002441406</ele>
        <time>2026-05-12T09:44:51.000Z</time>
      </trkpt>
      <trkpt lat="45.26971" lon="4.57388">
        <ele>933.59997558594</ele>
        <time>2026-05-12T09:44:52.000Z</time>
      </trkpt>
      <trkpt lat="45.26972" lon="4.57388">
        <ele>933.79998779297</ele>
        <time>2026-05-12T09:44:53.000Z</time>
      </trkpt>
      <trkpt lat="45.26974" lon="4.57388">
        <ele>934</ele>
        <time>2026-05-12T09:44:54.000Z</time>
      </trkpt>
      <trkpt lat="45.26976" lon="4.57389">
        <ele>934.20001220703</ele>
        <time>2026-05-12T09:44:55.000Z</time>
      </trkpt>
      <trkpt lat="45.26977" lon="4.57389">
        <ele>934.40002441406</ele>
        <time>2026-05-12T09:44:56.000Z</time>
      </trkpt>
      <trkpt lat="45.26979" lon="4.57389">
        <ele>934.59997558594</ele>
        <time>2026-05-12T09:44:57.000Z</time>
      </trkpt>
      <trkpt lat="45.26981" lon="4.5739">
        <ele>934.79998779297</ele>
        <time>2026-05-12T09:44:58.000Z</time>
      </trkpt>
      <trkpt lat="45.26983" lon="4.5739">
        <ele>934.79998779297</ele>
        <time>2026-05-12T09:44:59.000Z</time>
      </trkpt>
      <trkpt lat="45.26985" lon="4.5739">
        <ele>935</ele>
        <time>2026-05-12T09:45:00.000Z</time>
      </trkpt>
      <trkpt lat="45.26987" lon="4.5739">
        <ele>935.20001220703</ele>
        <time>2026-05-12T09:45:01.000Z</time>
      </trkpt>
      <trkpt lat="45.26989" lon="4.5739">
        <ele>935.40002441406</ele>
        <time>2026-05-12T09:45:02.000Z</time>
      </trkpt>
      <trkpt lat="45.2699" lon="4.5739">
        <ele>935.59997558594</ele>
        <time>2026-05-12T09:45:03.000Z</time>
      </trkpt>
      <trkpt lat="45.26992" lon="4.57391">
        <ele>935.59997558594</ele>
        <time>2026-05-12T09:45:04.000Z</time>
      </trkpt>
      <trkpt lat="45.26994" lon="4.57391">
        <ele>935.79998779297</ele>
        <time>2026-05-12T09:45:05.000Z</time>
      </trkpt>
      <trkpt lat="45.26996" lon="4.57391">
        <ele>936</ele>
        <time>2026-05-12T09:45:06.000Z</time>
      </trkpt>
      <trkpt lat="45.26998" lon="4.57391">
        <ele>936.20001220703</ele>
        <time>2026-05-12T09:45:07.000Z</time>
      </trkpt>
      <trkpt lat="45.27" lon="4.5739">
        <ele>936.40002441406</ele>
        <time>2026-05-12T09:45:08.000Z</time>
      </trkpt>
      <trkpt lat="45.27002" lon="4.5739">
        <ele>936.40002441406</ele>
        <time>2026-05-12T09:45:09.000Z</time>
      </trkpt>
      <trkpt lat="45.27004" lon="4.57389">
        <ele>936.59997558594</ele>
        <time>2026-05-12T09:45:10.000Z</time>
      </trkpt>
      <trkpt lat="45.27007" lon="4.57388">
        <ele>936.59997558594</ele>
        <time>2026-05-12T09:45:11.000Z</time>
      </trkpt>
      <trkpt lat="45.27008" lon="4.57386">
        <ele>936.79998779297</ele>
        <time>2026-05-12T09:45:12.000Z</time>
      </trkpt>
      <trkpt lat="45.2701" lon="4.57384">
        <ele>937</ele>
        <time>2026-05-12T09:45:13.000Z</time>
      </trkpt>
      <trkpt lat="45.27011" lon="4.57382">
        <ele>937</ele>
        <time>2026-05-12T09:45:14.000Z</time>
      </trkpt>
      <trkpt lat="45.27013" lon="4.5738">
        <ele>937</ele>
        <time>2026-05-12T09:45:15.000Z</time>
      </trkpt>
      <trkpt lat="45.27015" lon="4.57378">
        <ele>937</ele>
        <time>2026-05-12T09:45:16.000Z</time>
      </trkpt>
      <trkpt lat="45.27017" lon="4.57377">
        <ele>937</ele>
        <time>2026-05-12T09:45:17.000Z</time>
      </trkpt>
      <trkpt lat="45.27019" lon="4.57375">
        <ele>937.20001220703</ele>
        <time>2026-05-12T09:45:18.000Z</time>
      </trkpt>
      <trkpt lat="45.27021" lon="4.57373">
        <ele>937.20001220703</ele>
        <time>2026-05-12T09:45:19.000Z</time>
      </trkpt>
      <trkpt lat="45.27023" lon="4.57371">
        <ele>937.20001220703</ele>
        <time>2026-05-12T09:45:20.000Z</time>
      </trkpt>
      <trkpt lat="45.27024" lon="4.57368">
        <ele>937.20001220703</ele>
        <time>2026-05-12T09:45:21.000Z</time>
      </trkpt>
      <trkpt lat="45.27026" lon="4.57366">
        <ele>937.40002441406</ele>
        <time>2026-05-12T09:45:22.000Z</time>
      </trkpt>
      <trkpt lat="45.27028" lon="4.57364">
        <ele>937.40002441406</ele>
        <time>2026-05-12T09:45:23.000Z</time>
      </trkpt>
      <trkpt lat="45.27029" lon="4.57363">
        <ele>937.40002441406</ele>
        <time>2026-05-12T09:45:24.000Z</time>
      </trkpt>
      <trkpt lat="45.27032" lon="4.57361">
        <ele>937.40002441406</ele>
        <time>2026-05-12T09:45:25.000Z</time>
      </trkpt>
      <trkpt lat="45.27034" lon="4.57358">
        <ele>937.20001220703</ele>
        <time>2026-05-12T09:45:26.000Z</time>
      </trkpt>
      <trkpt lat="45.27037" lon="4.57355">
        <ele>937</ele>
        <time>2026-05-12T09:45:27.000Z</time>
      </trkpt>
      <trkpt lat="45.27039" lon="4.57351">
        <ele>937</ele>
        <time>2026-05-12T09:45:28.000Z</time>
      </trkpt>
      <trkpt lat="45.27041" lon="4.57348">
        <ele>936.79998779297</ele>
        <time>2026-05-12T09:45:29.000Z</time>
      </trkpt>
      <trkpt lat="45.27043" lon="4.57344">
        <ele>936.59997558594</ele>
        <time>2026-05-12T09:45:30.000Z</time>
      </trkpt>
      <trkpt lat="45.27045" lon="4.5734">
        <ele>936.59997558594</ele>
        <time>2026-05-12T09:45:31.000Z</time>
      </trkpt>
      <trkpt lat="45.27048" lon="4.57336">
        <ele>936.40002441406</ele>
        <time>2026-05-12T09:45:32.000Z</time>
      </trkpt>
      <trkpt lat="45.27049" lon="4.57333">
        <ele>936.40002441406</ele>
        <time>2026-05-12T09:45:33.000Z</time>
      </trkpt>
      <trkpt lat="45.27051" lon="4.5733">
        <ele>936.40002441406</ele>
        <time>2026-05-12T09:45:34.000Z</time>
      </trkpt>
      <trkpt lat="45.27052" lon="4.57326">
        <ele>936.20001220703</ele>
        <time>2026-05-12T09:45:35.000Z</time>
      </trkpt>
      <trkpt lat="45.27053" lon="4.57323">
        <ele>936.20001220703</ele>
        <time>2026-05-12T09:45:36.000Z</time>
      </trkpt>
      <trkpt lat="45.27054" lon="4.57319">
        <ele>936</ele>
        <time>2026-05-12T09:45:37.000Z</time>
      </trkpt>
      <trkpt lat="45.27055" lon="4.57316">
        <ele>936</ele>
        <time>2026-05-12T09:45:38.000Z</time>
      </trkpt>
      <trkpt lat="45.27056" lon="4.57312">
        <ele>935.79998779297</ele>
        <time>2026-05-12T09:45:39.000Z</time>
      </trkpt>
      <trkpt lat="45.27058" lon="4.57308">
        <ele>935.79998779297</ele>
        <time>2026-05-12T09:45:40.000Z</time>
      </trkpt>
      <trkpt lat="45.27059" lon="4.57304">
        <ele>935.79998779297</ele>
        <time>2026-05-12T09:45:41.000Z</time>
      </trkpt>
      <trkpt lat="45.27061" lon="4.57299">
        <ele>935.59997558594</ele>
        <time>2026-05-12T09:45:42.000Z</time>
      </trkpt>
      <trkpt lat="45.27063" lon="4.57295">
        <ele>935.59997558594</ele>
        <time>2026-05-12T09:45:43.000Z</time>
      </trkpt>
      <trkpt lat="45.27065" lon="4.5729">
        <ele>935.40002441406</ele>
        <time>2026-05-12T09:45:44.000Z</time>
      </trkpt>
      <trkpt lat="45.27067" lon="4.57284">
        <ele>935.40002441406</ele>
        <time>2026-05-12T09:45:45.000Z</time>
      </trkpt>
      <trkpt lat="45.27069" lon="4.57278">
        <ele>935.20001220703</ele>
        <time>2026-05-12T09:45:46.000Z</time>
      </trkpt>
      <trkpt lat="45.27071" lon="4.57273">
        <ele>935.20001220703</ele>
        <time>2026-05-12T09:45:47.000Z</time>
      </trkpt>
      <trkpt lat="45.27073" lon="4.57267">
        <ele>935</ele>
        <time>2026-05-12T09:45:48.000Z</time>
      </trkpt>
      <trkpt lat="45.27074" lon="4.57262">
        <ele>934.79998779297</ele>
        <time>2026-05-12T09:45:49.000Z</time>
      </trkpt>
      <trkpt lat="45.27076" lon="4.57257">
        <ele>934.79998779297</ele>
        <time>2026-05-12T09:45:50.000Z</time>
      </trkpt>
      <trkpt lat="45.27078" lon="4.57252">
        <ele>934.79998779297</ele>
        <time>2026-05-12T09:45:51.000Z</time>
      </trkpt>
      <trkpt lat="45.2708" lon="4.57247">
        <ele>934.79998779297</ele>
        <time>2026-05-12T09:45:52.000Z</time>
      </trkpt>
      <trkpt lat="45.27082" lon="4.57242">
        <ele>934.59997558594</ele>
        <time>2026-05-12T09:45:53.000Z</time>
      </trkpt>
      <trkpt lat="45.27084" lon="4.57236">
        <ele>934.59997558594</ele>
        <time>2026-05-12T09:45:54.000Z</time>
      </trkpt>
      <trkpt lat="45.27086" lon="4.57232">
        <ele>934.59997558594</ele>
        <time>2026-05-12T09:45:55.000Z</time>
      </trkpt>
      <trkpt lat="45.27088" lon="4.57227">
        <ele>934.40002441406</ele>
        <time>2026-05-12T09:45:56.000Z</time>
      </trkpt>
      <trkpt lat="45.2709" lon="4.57223">
        <ele>934.40002441406</ele>
        <time>2026-05-12T09:45:57.000Z</time>
      </trkpt>
      <trkpt lat="45.27092" lon="4.57219">
        <ele>934.40002441406</ele>
        <time>2026-05-12T09:45:58.000Z</time>
      </trkpt>
      <trkpt lat="45.27093" lon="4.57215">
        <ele>934.40002441406</ele>
        <time>2026-05-12T09:45:59.000Z</time>
      </trkpt>
      <trkpt lat="45.27095" lon="4.57212">
        <ele>934.40002441406</ele>
        <time>2026-05-12T09:46:00.000Z</time>
      </trkpt>
      <trkpt lat="45.27096" lon="4.57209">
        <ele>934.40002441406</ele>
        <time>2026-05-12T09:46:01.000Z</time>
      </trkpt>
      <trkpt lat="45.27097" lon="4.57207">
        <ele>934.40002441406</ele>
        <time>2026-05-12T09:46:02.000Z</time>
      </trkpt>
      <trkpt lat="45.27099" lon="4.57205">
        <ele>934.40002441406</ele>
        <time>2026-05-12T09:46:03.000Z</time>
      </trkpt>
      <trkpt lat="45.27099" lon="4.57201">
        <ele>934.40002441406</ele>
        <time>2026-05-12T09:46:04.000Z</time>
      </trkpt>
      <trkpt lat="45.27101" lon="4.57198">
        <ele>934.20001220703</ele>
        <time>2026-05-12T09:46:05.000Z</time>
      </trkpt>
      <trkpt lat="45.27102" lon="4.57195">
        <ele>934.20001220703</ele>
        <time>2026-05-12T09:46:06.000Z</time>
      </trkpt>
      <trkpt lat="45.27103" lon="4.57192">
        <ele>934</ele>
        <time>2026-05-12T09:46:07.000Z</time>
      </trkpt>
      <trkpt lat="45.27104" lon="4.57189">
        <ele>934</ele>
        <time>2026-05-12T09:46:08.000Z</time>
      </trkpt>
      <trkpt lat="45.27105" lon="4.57187">
        <ele>933.79998779297</ele>
        <time>2026-05-12T09:46:09.000Z</time>
      </trkpt>
      <trkpt lat="45.27106" lon="4.57184">
        <ele>933.79998779297</ele>
        <time>2026-05-12T09:46:10.000Z</time>
      </trkpt>
      <trkpt lat="45.27107" lon="4.57182">
        <ele>933.59997558594</ele>
        <time>2026-05-12T09:46:11.000Z</time>
      </trkpt>
      <trkpt lat="45.27108" lon="4.57179">
        <ele>933.40002441406</ele>
        <time>2026-05-12T09:46:12.000Z</time>
      </trkpt>
      <trkpt lat="45.2711" lon="4.57176">
        <ele>933.20001220703</ele>
        <time>2026-05-12T09:46:13.000Z</time>
      </trkpt>
      <trkpt lat="45.27111" lon="4.57174">
        <ele>933</ele>
        <time>2026-05-12T09:46:14.000Z</time>
      </trkpt>
      <trkpt lat="45.27113" lon="4.57171">
        <ele>932.79998779297</ele>
        <time>2026-05-12T09:46:15.000Z</time>
      </trkpt>
      <trkpt lat="45.27115" lon="4.57169">
        <ele>932.59997558594</ele>
        <time>2026-05-12T09:46:16.000Z</time>
      </trkpt>
      <trkpt lat="45.27117" lon="4.57166">
        <ele>932.20001220703</ele>
        <time>2026-05-12T09:46:17.000Z</time>
      </trkpt>
      <trkpt lat="45.27119" lon="4.57164">
        <ele>932</ele>
        <time>2026-05-12T09:46:18.000Z</time>
      </trkpt>
      <trkpt lat="45.27121" lon="4.57162">
        <ele>931.59997558594</ele>
        <time>2026-05-12T09:46:19.000Z</time>
      </trkpt>
      <trkpt lat="45.27124" lon="4.5716">
        <ele>931.20001220703</ele>
        <time>2026-05-12T09:46:20.000Z</time>
      </trkpt>
      <trkpt lat="45.27126" lon="4.57157">
        <ele>930.79998779297</ele>
        <time>2026-05-12T09:46:21.000Z</time>
      </trkpt>
      <trkpt lat="45.27128" lon="4.57155">
        <ele>930.40002441406</ele>
        <time>2026-05-12T09:46:22.000Z</time>
      </trkpt>
      <trkpt lat="45.27131" lon="4.57153">
        <ele>930</ele>
        <time>2026-05-12T09:46:23.000Z</time>
      </trkpt>
      <trkpt lat="45.27133" lon="4.5715">
        <ele>929.59997558594</ele>
        <time>2026-05-12T09:46:24.000Z</time>
      </trkpt>
      <trkpt lat="45.27136" lon="4.57149">
        <ele>929.20001220703</ele>
        <time>2026-05-12T09:46:25.000Z</time>
      </trkpt>
      <trkpt lat="45.27138" lon="4.57147">
        <ele>928.79998779297</ele>
        <time>2026-05-12T09:46:26.000Z</time>
      </trkpt>
      <trkpt lat="45.27141" lon="4.57145">
        <ele>928.20001220703</ele>
        <time>2026-05-12T09:46:27.000Z</time>
      </trkpt>
      <trkpt lat="45.27144" lon="4.57143">
        <ele>927.79998779297</ele>
        <time>2026-05-12T09:46:28.000Z</time>
      </trkpt>
      <trkpt lat="45.27146" lon="4.5714">
        <ele>927.40002441406</ele>
        <time>2026-05-12T09:46:29.000Z</time>
      </trkpt>
      <trkpt lat="45.27148" lon="4.57137">
        <ele>927</ele>
        <time>2026-05-12T09:46:30.000Z</time>
      </trkpt>
      <trkpt lat="45.27149" lon="4.57133">
        <ele>926.79998779297</ele>
        <time>2026-05-12T09:46:31.000Z</time>
      </trkpt>
      <trkpt lat="45.27151" lon="4.5713">
        <ele>926.40002441406</ele>
        <time>2026-05-12T09:46:32.000Z</time>
      </trkpt>
      <trkpt lat="45.27152" lon="4.57126">
        <ele>926</ele>
        <time>2026-05-12T09:46:33.000Z</time>
      </trkpt>
      <trkpt lat="45.27153" lon="4.57121">
        <ele>925.59997558594</ele>
        <time>2026-05-12T09:46:34.000Z</time>
      </trkpt>
      <trkpt lat="45.27154" lon="4.57116">
        <ele>925.20001220703</ele>
        <time>2026-05-12T09:46:35.000Z</time>
      </trkpt>
      <trkpt lat="45.27155" lon="4.57112">
        <ele>924.79998779297</ele>
        <time>2026-05-12T09:46:36.000Z</time>
      </trkpt>
      <trkpt lat="45.27156" lon="4.57107">
        <ele>924.40002441406</ele>
        <time>2026-05-12T09:46:37.000Z</time>
      </trkpt>
      <trkpt lat="45.27156" lon="4.57102">
        <ele>924</ele>
        <time>2026-05-12T09:46:38.000Z</time>
      </trkpt>
      <trkpt lat="45.27157" lon="4.57097">
        <ele>923.59997558594</ele>
        <time>2026-05-12T09:46:39.000Z</time>
      </trkpt>
      <trkpt lat="45.27157" lon="4.57092">
        <ele>923.40002441406</ele>
        <time>2026-05-12T09:46:40.000Z</time>
      </trkpt>
      <trkpt lat="45.27157" lon="4.57087">
        <ele>923</ele>
        <time>2026-05-12T09:46:41.000Z</time>
      </trkpt>
      <trkpt lat="45.27156" lon="4.57081">
        <ele>922.79998779297</ele>
        <time>2026-05-12T09:46:42.000Z</time>
      </trkpt>
      <trkpt lat="45.27156" lon="4.57076">
        <ele>922.40002441406</ele>
        <time>2026-05-12T09:46:43.000Z</time>
      </trkpt>
      <trkpt lat="45.27155" lon="4.57071">
        <ele>922.20001220703</ele>
        <time>2026-05-12T09:46:44.000Z</time>
      </trkpt>
      <trkpt lat="45.27154" lon="4.57066">
        <ele>922</ele>
        <time>2026-05-12T09:46:45.000Z</time>
      </trkpt>
      <trkpt lat="45.27153" lon="4.57061">
        <ele>921.79998779297</ele>
        <time>2026-05-12T09:46:46.000Z</time>
      </trkpt>
      <trkpt lat="45.27152" lon="4.57056">
        <ele>921.59997558594</ele>
        <time>2026-05-12T09:46:47.000Z</time>
      </trkpt>
      <trkpt lat="45.27152" lon="4.57051">
        <ele>921.40002441406</ele>
        <time>2026-05-12T09:46:48.000Z</time>
      </trkpt>
      <trkpt lat="45.27151" lon="4.57046">
        <ele>921.20001220703</ele>
        <time>2026-05-12T09:46:49.000Z</time>
      </trkpt>
      <trkpt lat="45.2715" lon="4.5704">
        <ele>920.79998779297</ele>
        <time>2026-05-12T09:46:50.000Z</time>
      </trkpt>
      <trkpt lat="45.27149" lon="4.57034">
        <ele>920.59997558594</ele>
        <time>2026-05-12T09:46:51.000Z</time>
      </trkpt>
      <trkpt lat="45.27148" lon="4.57028">
        <ele>920.40002441406</ele>
        <time>2026-05-12T09:46:52.000Z</time>
      </trkpt>
      <trkpt lat="45.27147" lon="4.57022">
        <ele>920</ele>
        <time>2026-05-12T09:46:53.000Z</time>
      </trkpt>
      <trkpt lat="45.27146" lon="4.57016">
        <ele>919.59997558594</ele>
        <time>2026-05-12T09:46:54.000Z</time>
      </trkpt>
      <trkpt lat="45.27146" lon="4.57011">
        <ele>919.40002441406</ele>
        <time>2026-05-12T09:46:55.000Z</time>
      </trkpt>
      <trkpt lat="45.27146" lon="4.57005">
        <ele>919</ele>
        <time>2026-05-12T09:46:56.000Z</time>
      </trkpt>
      <trkpt lat="45.27146" lon="4.56999">
        <ele>918.79998779297</ele>
        <time>2026-05-12T09:46:57.000Z</time>
      </trkpt>
      <trkpt lat="45.27145" lon="4.56992">
        <ele>918.40002441406</ele>
        <time>2026-05-12T09:46:58.000Z</time>
      </trkpt>
      <trkpt lat="45.27145" lon="4.56985">
        <ele>918</ele>
        <time>2026-05-12T09:46:59.000Z</time>
      </trkpt>
      <trkpt lat="45.27145" lon="4.56978">
        <ele>917.59997558594</ele>
        <time>2026-05-12T09:47:00.000Z</time>
      </trkpt>
      <trkpt lat="45.27145" lon="4.56971">
        <ele>917.20001220703</ele>
        <time>2026-05-12T09:47:01.000Z</time>
      </trkpt>
      <trkpt lat="45.27144" lon="4.56964">
        <ele>917</ele>
        <time>2026-05-12T09:47:02.000Z</time>
      </trkpt>
      <trkpt lat="45.27144" lon="4.56957">
        <ele>916.79998779297</ele>
        <time>2026-05-12T09:47:03.000Z</time>
      </trkpt>
      <trkpt lat="45.27144" lon="4.56951">
        <ele>916.59997558594</ele>
        <time>2026-05-12T09:47:04.000Z</time>
      </trkpt>
      <trkpt lat="45.27144" lon="4.56945">
        <ele>916.40002441406</ele>
        <time>2026-05-12T09:47:05.000Z</time>
      </trkpt>
      <trkpt lat="45.27144" lon="4.5694">
        <ele>916.20001220703</ele>
        <time>2026-05-12T09:47:06.000Z</time>
      </trkpt>
      <trkpt lat="45.27143" lon="4.56934">
        <ele>916</ele>
        <time>2026-05-12T09:47:07.000Z</time>
      </trkpt>
      <trkpt lat="45.27143" lon="4.56929">
        <ele>916</ele>
        <time>2026-05-12T09:47:08.000Z</time>
      </trkpt>
      <trkpt lat="45.27143" lon="4.56925">
        <ele>916</ele>
        <time>2026-05-12T09:47:09.000Z</time>
      </trkpt>
      <trkpt lat="45.27143" lon="4.5692">
        <ele>916</ele>
        <time>2026-05-12T09:47:10.000Z</time>
      </trkpt>
      <trkpt lat="45.27142" lon="4.56917">
        <ele>916</ele>
        <time>2026-05-12T09:47:11.000Z</time>
      </trkpt>
      <trkpt lat="45.27141" lon="4.56914">
        <ele>916</ele>
        <time>2026-05-12T09:47:12.000Z</time>
      </trkpt>
      <trkpt lat="45.2714" lon="4.56912">
        <ele>916</ele>
        <time>2026-05-12T09:47:13.000Z</time>
      </trkpt>
      <trkpt lat="45.2714" lon="4.56911">
        <ele>916.20001220703</ele>
        <time>2026-05-12T09:47:14.000Z</time>
      </trkpt>
      <trkpt lat="45.2714" lon="4.56911">
        <ele>916.40002441406</ele>
        <time>2026-05-12T09:47:15.000Z</time>
      </trkpt>
      <trkpt lat="45.2714" lon="4.56911">
        <ele>916.40002441406</ele>
        <time>2026-05-12T09:47:16.000Z</time>
      </trkpt>
      <trkpt lat="45.27134" lon="4.56903">
        <ele>915.59997558594</ele>
        <time>2026-05-12T09:51:34.000Z</time>
      </trkpt>
      <trkpt lat="45.27133" lon="4.56901">
        <ele>915.40002441406</ele>
        <time>2026-05-12T09:51:35.000Z</time>
      </trkpt>
      <trkpt lat="45.27131" lon="4.56899">
        <ele>915</ele>
        <time>2026-05-12T09:51:36.000Z</time>
      </trkpt>
      <trkpt lat="45.2713" lon="4.56897">
        <ele>914.79998779297</ele>
        <time>2026-05-12T09:51:37.000Z</time>
      </trkpt>
      <trkpt lat="45.27129" lon="4.56895">
        <ele>914.59997558594</ele>
        <time>2026-05-12T09:51:38.000Z</time>
      </trkpt>
      <trkpt lat="45.27128" lon="4.56893">
        <ele>914.40002441406</ele>
        <time>2026-05-12T09:51:39.000Z</time>
      </trkpt>
      <trkpt lat="45.27126" lon="4.5689">
        <ele>914</ele>
        <time>2026-05-12T09:51:40.000Z</time>
      </trkpt>
      <trkpt lat="45.27126" lon="4.56887">
        <ele>913.79998779297</ele>
        <time>2026-05-12T09:51:41.000Z</time>
      </trkpt>
      <trkpt lat="45.27125" lon="4.56885">
        <ele>913.40002441406</ele>
        <time>2026-05-12T09:51:42.000Z</time>
      </trkpt>
      <trkpt lat="45.27124" lon="4.56882">
        <ele>913.20001220703</ele>
        <time>2026-05-12T09:51:43.000Z</time>
      </trkpt>
      <trkpt lat="45.27124" lon="4.56879">
        <ele>912.79998779297</ele>
        <time>2026-05-12T09:51:44.000Z</time>
      </trkpt>
      <trkpt lat="45.27123" lon="4.56875">
        <ele>912.59997558594</ele>
        <time>2026-05-12T09:51:45.000Z</time>
      </trkpt>
      <trkpt lat="45.27123" lon="4.56872">
        <ele>912.20001220703</ele>
        <time>2026-05-12T09:51:46.000Z</time>
      </trkpt>
      <trkpt lat="45.27122" lon="4.56869">
        <ele>911.79998779297</ele>
        <time>2026-05-12T09:51:47.000Z</time>
      </trkpt>
      <trkpt lat="45.27121" lon="4.56866">
        <ele>911.40002441406</ele>
        <time>2026-05-12T09:51:48.000Z</time>
      </trkpt>
      <trkpt lat="45.2712" lon="4.56863">
        <ele>911.20001220703</ele>
        <time>2026-05-12T09:51:49.000Z</time>
      </trkpt>
      <trkpt lat="45.27119" lon="4.5686">
        <ele>910.79998779297</ele>
        <time>2026-05-12T09:51:50.000Z</time>
      </trkpt>
      <trkpt lat="45.27118" lon="4.56856">
        <ele>910.59997558594</ele>
        <time>2026-05-12T09:51:51.000Z</time>
      </trkpt>
      <trkpt lat="45.27117" lon="4.56853">
        <ele>910.20001220703</ele>
        <time>2026-05-12T09:51:52.000Z</time>
      </trkpt>
      <trkpt lat="45.27117" lon="4.56849">
        <ele>909.79998779297</ele>
        <time>2026-05-12T09:51:53.000Z</time>
      </trkpt>
      <trkpt lat="45.27116" lon="4.56845">
        <ele>909.59997558594</ele>
        <time>2026-05-12T09:51:54.000Z</time>
      </trkpt>
      <trkpt lat="45.27115" lon="4.56841">
        <ele>909.20001220703</ele>
        <time>2026-05-12T09:51:55.000Z</time>
      </trkpt>
      <trkpt lat="45.27114" lon="4.56837">
        <ele>908.59997558594</ele>
        <time>2026-05-12T09:51:56.000Z</time>
      </trkpt>
      <trkpt lat="45.27113" lon="4.56832">
        <ele>908.20001220703</ele>
        <time>2026-05-12T09:51:57.000Z</time>
      </trkpt>
      <trkpt lat="45.27112" lon="4.56827">
        <ele>907.79998779297</ele>
        <time>2026-05-12T09:51:58.000Z</time>
      </trkpt>
      <trkpt lat="45.27111" lon="4.56822">
        <ele>907.40002441406</ele>
        <time>2026-05-12T09:51:59.000Z</time>
      </trkpt>
      <trkpt lat="45.2711" lon="4.56817">
        <ele>907</ele>
        <time>2026-05-12T09:52:00.000Z</time>
      </trkpt>
      <trkpt lat="45.27108" lon="4.56813">
        <ele>906.59997558594</ele>
        <time>2026-05-12T09:52:01.000Z</time>
      </trkpt>
      <trkpt lat="45.27107" lon="4.56808">
        <ele>906.40002441406</ele>
        <time>2026-05-12T09:52:02.000Z</time>
      </trkpt>
      <trkpt lat="45.27106" lon="4.56804">
        <ele>906</ele>
        <time>2026-05-12T09:52:03.000Z</time>
      </trkpt>
      <trkpt lat="45.27105" lon="4.568">
        <ele>905.79998779297</ele>
        <time>2026-05-12T09:52:04.000Z</time>
      </trkpt>
      <trkpt lat="45.27104" lon="4.56796">
        <ele>905.40002441406</ele>
        <time>2026-05-12T09:52:05.000Z</time>
      </trkpt>
      <trkpt lat="45.27104" lon="4.56792">
        <ele>905.20001220703</ele>
        <time>2026-05-12T09:52:06.000Z</time>
      </trkpt>
      <trkpt lat="45.27103" lon="4.56788">
        <ele>905</ele>
        <time>2026-05-12T09:52:07.000Z</time>
      </trkpt>
      <trkpt lat="45.27102" lon="4.56784">
        <ele>904.79998779297</ele>
        <time>2026-05-12T09:52:08.000Z</time>
      </trkpt>
      <trkpt lat="45.27101" lon="4.56779">
        <ele>904.59997558594</ele>
        <time>2026-05-12T09:52:09.000Z</time>
      </trkpt>
      <trkpt lat="45.27099" lon="4.56775">
        <ele>904.40002441406</ele>
        <time>2026-05-12T09:52:10.000Z</time>
      </trkpt>
      <trkpt lat="45.27098" lon="4.56771">
        <ele>904.20001220703</ele>
        <time>2026-05-12T09:52:11.000Z</time>
      </trkpt>
      <trkpt lat="45.27096" lon="4.56766">
        <ele>903.79998779297</ele>
        <time>2026-05-12T09:52:12.000Z</time>
      </trkpt>
      <trkpt lat="45.27094" lon="4.56761">
        <ele>903.59997558594</ele>
        <time>2026-05-12T09:52:13.000Z</time>
      </trkpt>
      <trkpt lat="45.27093" lon="4.56757">
        <ele>903.20001220703</ele>
        <time>2026-05-12T09:52:14.000Z</time>
      </trkpt>
      <trkpt lat="45.27092" lon="4.56754">
        <ele>903</ele>
        <time>2026-05-12T09:52:15.000Z</time>
      </trkpt>
      <trkpt lat="45.2709" lon="4.56751">
        <ele>902.79998779297</ele>
        <time>2026-05-12T09:52:16.000Z</time>
      </trkpt>
      <trkpt lat="45.27089" lon="4.56747">
        <ele>902.59997558594</ele>
        <time>2026-05-12T09:52:17.000Z</time>
      </trkpt>
      <trkpt lat="45.27087" lon="4.56744">
        <ele>902.40002441406</ele>
        <time>2026-05-12T09:52:18.000Z</time>
      </trkpt>
      <trkpt lat="45.27086" lon="4.5674">
        <ele>902.20001220703</ele>
        <time>2026-05-12T09:52:19.000Z</time>
      </trkpt>
      <trkpt lat="45.27085" lon="4.56736">
        <ele>901.79998779297</ele>
        <time>2026-05-12T09:52:20.000Z</time>
      </trkpt>
      <trkpt lat="45.27085" lon="4.56732">
        <ele>901.59997558594</ele>
        <time>2026-05-12T09:52:21.000Z</time>
      </trkpt>
      <trkpt lat="45.27084" lon="4.56728">
        <ele>901.40002441406</ele>
        <time>2026-05-12T09:52:22.000Z</time>
      </trkpt>
      <trkpt lat="45.27084" lon="4.56724">
        <ele>901.40002441406</ele>
        <time>2026-05-12T09:52:23.000Z</time>
      </trkpt>
      <trkpt lat="45.27084" lon="4.5672">
        <ele>901.40002441406</ele>
        <time>2026-05-12T09:52:24.000Z</time>
      </trkpt>
      <trkpt lat="45.27085" lon="4.56716">
        <ele>901.20001220703</ele>
        <time>2026-05-12T09:52:25.000Z</time>
      </trkpt>
      <trkpt lat="45.27086" lon="4.56712">
        <ele>901</ele>
        <time>2026-05-12T09:52:26.000Z</time>
      </trkpt>
      <trkpt lat="45.27086" lon="4.56708">
        <ele>900.79998779297</ele>
        <time>2026-05-12T09:52:27.000Z</time>
      </trkpt>
      <trkpt lat="45.27086" lon="4.56705">
        <ele>900.40002441406</ele>
        <time>2026-05-12T09:52:28.000Z</time>
      </trkpt>
      <trkpt lat="45.27087" lon="4.56703">
        <ele>900.20001220703</ele>
        <time>2026-05-12T09:52:29.000Z</time>
      </trkpt>
      <trkpt lat="45.27089" lon="4.567">
        <ele>900.20001220703</ele>
        <time>2026-05-12T09:52:30.000Z</time>
      </trkpt>
      <trkpt lat="45.2709" lon="4.56697">
        <ele>900</ele>
        <time>2026-05-12T09:52:31.000Z</time>
      </trkpt>
      <trkpt lat="45.27091" lon="4.56694">
        <ele>899.79998779297</ele>
        <time>2026-05-12T09:52:32.000Z</time>
      </trkpt>
      <trkpt lat="45.27091" lon="4.5669">
        <ele>899.79998779297</ele>
        <time>2026-05-12T09:52:33.000Z</time>
      </trkpt>
      <trkpt lat="45.2709" lon="4.56686">
        <ele>899.59997558594</ele>
        <time>2026-05-12T09:52:34.000Z</time>
      </trkpt>
      <trkpt lat="45.2709" lon="4.56683">
        <ele>899.40002441406</ele>
        <time>2026-05-12T09:52:35.000Z</time>
      </trkpt>
      <trkpt lat="45.27089" lon="4.56679">
        <ele>899.20001220703</ele>
        <time>2026-05-12T09:52:36.000Z</time>
      </trkpt>
      <trkpt lat="45.27088" lon="4.56676">
        <ele>899</ele>
        <time>2026-05-12T09:52:37.000Z</time>
      </trkpt>
      <trkpt lat="45.27086" lon="4.56673">
        <ele>898.79998779297</ele>
        <time>2026-05-12T09:52:38.000Z</time>
      </trkpt>
      <trkpt lat="45.27084" lon="4.5667">
        <ele>898.59997558594</ele>
        <time>2026-05-12T09:52:39.000Z</time>
      </trkpt>
      <trkpt lat="45.27082" lon="4.56668">
        <ele>898.20001220703</ele>
        <time>2026-05-12T09:52:40.000Z</time>
      </trkpt>
      <trkpt lat="45.27079" lon="4.56666">
        <ele>898</ele>
        <time>2026-05-12T09:52:41.000Z</time>
      </trkpt>
      <trkpt lat="45.27076" lon="4.56666">
        <ele>897.59997558594</ele>
        <time>2026-05-12T09:52:42.000Z</time>
      </trkpt>
      <trkpt lat="45.27073" lon="4.56667">
        <ele>897.40002441406</ele>
        <time>2026-05-12T09:52:43.000Z</time>
      </trkpt>
      <trkpt lat="45.27071" lon="4.56668">
        <ele>897.20001220703</ele>
        <time>2026-05-12T09:52:44.000Z</time>
      </trkpt>
      <trkpt lat="45.27069" lon="4.5667">
        <ele>897.20001220703</ele>
        <time>2026-05-12T09:52:45.000Z</time>
      </trkpt>
      <trkpt lat="45.27067" lon="4.56672">
        <ele>897</ele>
        <time>2026-05-12T09:52:46.000Z</time>
      </trkpt>
      <trkpt lat="45.27066" lon="4.56674">
        <ele>897</ele>
        <time>2026-05-12T09:52:47.000Z</time>
      </trkpt>
      <trkpt lat="45.27064" lon="4.56676">
        <ele>896.79998779297</ele>
        <time>2026-05-12T09:52:48.000Z</time>
      </trkpt>
      <trkpt lat="45.27062" lon="4.56677">
        <ele>896.79998779297</ele>
        <time>2026-05-12T09:52:49.000Z</time>
      </trkpt>
      <trkpt lat="45.2706" lon="4.56678">
        <ele>896.59997558594</ele>
        <time>2026-05-12T09:52:50.000Z</time>
      </trkpt>
      <trkpt lat="45.27058" lon="4.56678">
        <ele>896.40002441406</ele>
        <time>2026-05-12T09:52:51.000Z</time>
      </trkpt>
      <trkpt lat="45.27056" lon="4.56677">
        <ele>896.40002441406</ele>
        <time>2026-05-12T09:52:52.000Z</time>
      </trkpt>
      <trkpt lat="45.27055" lon="4.56674">
        <ele>896.20001220703</ele>
        <time>2026-05-12T09:52:53.000Z</time>
      </trkpt>
      <trkpt lat="45.27054" lon="4.56671">
        <ele>896</ele>
        <time>2026-05-12T09:52:54.000Z</time>
      </trkpt>
      <trkpt lat="45.27053" lon="4.56667">
        <ele>895.79998779297</ele>
        <time>2026-05-12T09:52:55.000Z</time>
      </trkpt>
      <trkpt lat="45.27052" lon="4.56663">
        <ele>895.40002441406</ele>
        <time>2026-05-12T09:52:56.000Z</time>
      </trkpt>
      <trkpt lat="45.27051" lon="4.56659">
        <ele>895.20001220703</ele>
        <time>2026-05-12T09:52:57.000Z</time>
      </trkpt>
      <trkpt lat="45.2705" lon="4.56655">
        <ele>895</ele>
        <time>2026-05-12T09:52:58.000Z</time>
      </trkpt>
      <trkpt lat="45.27048" lon="4.56651">
        <ele>894.79998779297</ele>
        <time>2026-05-12T09:52:59.000Z</time>
      </trkpt>
      <trkpt lat="45.27045" lon="4.56647">
        <ele>894.59997558594</ele>
        <time>2026-05-12T09:53:00.000Z</time>
      </trkpt>
      <trkpt lat="45.27043" lon="4.56644">
        <ele>894.40002441406</ele>
        <time>2026-05-12T09:53:01.000Z</time>
      </trkpt>
      <trkpt lat="45.2704" lon="4.56642">
        <ele>894.40002441406</ele>
        <time>2026-05-12T09:53:02.000Z</time>
      </trkpt>
      <trkpt lat="45.27038" lon="4.56641">
        <ele>894.40002441406</ele>
        <time>2026-05-12T09:53:03.000Z</time>
      </trkpt>
      <trkpt lat="45.27035" lon="4.56641">
        <ele>894.40002441406</ele>
        <time>2026-05-12T09:53:04.000Z</time>
      </trkpt>
      <trkpt lat="45.27032" lon="4.56641">
        <ele>894.40002441406</ele>
        <time>2026-05-12T09:53:05.000Z</time>
      </trkpt>
      <trkpt lat="45.2703" lon="4.5664">
        <ele>894.40002441406</ele>
        <time>2026-05-12T09:53:06.000Z</time>
      </trkpt>
      <trkpt lat="45.27028" lon="4.56638">
        <ele>894.40002441406</ele>
        <time>2026-05-12T09:53:07.000Z</time>
      </trkpt>
      <trkpt lat="45.27026" lon="4.56637">
        <ele>894.40002441406</ele>
        <time>2026-05-12T09:53:08.000Z</time>
      </trkpt>
      <trkpt lat="45.27024" lon="4.56635">
        <ele>894.20001220703</ele>
        <time>2026-05-12T09:53:09.000Z</time>
      </trkpt>
      <trkpt lat="45.27023" lon="4.56633">
        <ele>894.20001220703</ele>
        <time>2026-05-12T09:53:10.000Z</time>
      </trkpt>
      <trkpt lat="45.27021" lon="4.56632">
        <ele>894</ele>
        <time>2026-05-12T09:53:11.000Z</time>
      </trkpt>
      <trkpt lat="45.27021" lon="4.5663">
        <ele>894</ele>
        <time>2026-05-12T09:53:12.000Z</time>
      </trkpt>
      <trkpt lat="45.27019" lon="4.56629">
        <ele>894</ele>
        <time>2026-05-12T09:53:13.000Z</time>
      </trkpt>
      <trkpt lat="45.27019" lon="4.56628">
        <ele>893.79998779297</ele>
        <time>2026-05-12T09:53:14.000Z</time>
      </trkpt>
      <trkpt lat="45.27019" lon="4.56628">
        <ele>893.79998779297</ele>
        <time>2026-05-12T09:53:15.000Z</time>
      </trkpt>
      <trkpt lat="45.27019" lon="4.56628">
        <ele>893.79998779297</ele>
        <time>2026-05-12T09:53:16.000Z</time>
      </trkpt>
      <trkpt lat="45.2702" lon="4.56597">
        <ele>894.40002441406</ele>
        <time>2026-05-12T10:51:02.000Z</time>
      </trkpt>
      <trkpt lat="45.2702" lon="4.566">
        <ele>894.20001220703</ele>
        <time>2026-05-12T10:51:03.000Z</time>
      </trkpt>
      <trkpt lat="45.27021" lon="4.56602">
        <ele>894.20001220703</ele>
        <time>2026-05-12T10:51:04.000Z</time>
      </trkpt>
      <trkpt lat="45.27022" lon="4.56605">
        <ele>894</ele>
        <time>2026-05-12T10:51:05.000Z</time>
      </trkpt>
      <trkpt lat="45.27024" lon="4.56607">
        <ele>894</ele>
        <time>2026-05-12T10:51:06.000Z</time>
      </trkpt>
      <trkpt lat="45.27025" lon="4.5661">
        <ele>893.79998779297</ele>
        <time>2026-05-12T10:51:07.000Z</time>
      </trkpt>
      <trkpt lat="45.27027" lon="4.56613">
        <ele>893.79998779297</ele>
        <time>2026-05-12T10:51:08.000Z</time>
      </trkpt>
      <trkpt lat="45.27028" lon="4.56616">
        <ele>893.79998779297</ele>
        <time>2026-05-12T10:51:09.000Z</time>
      </trkpt>
      <trkpt lat="45.2703" lon="4.56618">
        <ele>893.79998779297</ele>
        <time>2026-05-12T10:51:10.000Z</time>
      </trkpt>
      <trkpt lat="45.27032" lon="4.56621">
        <ele>893.79998779297</ele>
        <time>2026-05-12T10:51:11.000Z</time>
      </trkpt>
      <trkpt lat="45.27033" lon="4.56624">
        <ele>893.79998779297</ele>
        <time>2026-05-12T10:51:12.000Z</time>
      </trkpt>
      <trkpt lat="45.27035" lon="4.56627">
        <ele>893.79998779297</ele>
        <time>2026-05-12T10:51:13.000Z</time>
      </trkpt>
      <trkpt lat="45.27036" lon="4.56631">
        <ele>893.79998779297</ele>
        <time>2026-05-12T10:51:14.000Z</time>
      </trkpt>
      <trkpt lat="45.27038" lon="4.56634">
        <ele>893.79998779297</ele>
        <time>2026-05-12T10:51:15.000Z</time>
      </trkpt>
      <trkpt lat="45.27039" lon="4.56637">
        <ele>893.79998779297</ele>
        <time>2026-05-12T10:51:16.000Z</time>
      </trkpt>
      <trkpt lat="45.27041" lon="4.5664">
        <ele>893.79998779297</ele>
        <time>2026-05-12T10:51:17.000Z</time>
      </trkpt>
      <trkpt lat="45.27043" lon="4.56643">
        <ele>893.79998779297</ele>
        <time>2026-05-12T10:51:18.000Z</time>
      </trkpt>
      <trkpt lat="45.27045" lon="4.56646">
        <ele>894</ele>
        <time>2026-05-12T10:51:19.000Z</time>
      </trkpt>
      <trkpt lat="45.27046" lon="4.56649">
        <ele>894</ele>
        <time>2026-05-12T10:51:20.000Z</time>
      </trkpt>
      <trkpt lat="45.27047" lon="4.56653">
        <ele>894</ele>
        <time>2026-05-12T10:51:21.000Z</time>
      </trkpt>
      <trkpt lat="45.27048" lon="4.56656">
        <ele>894.20001220703</ele>
        <time>2026-05-12T10:51:22.000Z</time>
      </trkpt>
      <trkpt lat="45.27049" lon="4.5666">
        <ele>894.20001220703</ele>
        <time>2026-05-12T10:51:23.000Z</time>
      </trkpt>
      <trkpt lat="45.27049" lon="4.56664">
        <ele>894.20001220703</ele>
        <time>2026-05-12T10:51:24.000Z</time>
      </trkpt>
      <trkpt lat="45.2705" lon="4.56668">
        <ele>894.20001220703</ele>
        <time>2026-05-12T10:51:25.000Z</time>
      </trkpt>
      <trkpt lat="45.2705" lon="4.56672">
        <ele>894.40002441406</ele>
        <time>2026-05-12T10:51:26.000Z</time>
      </trkpt>
      <trkpt lat="45.27051" lon="4.56675">
        <ele>894.59997558594</ele>
        <time>2026-05-12T10:51:27.000Z</time>
      </trkpt>
      <trkpt lat="45.27051" lon="4.56678">
        <ele>894.79998779297</ele>
        <time>2026-05-12T10:51:28.000Z</time>
      </trkpt>
      <trkpt lat="45.27051" lon="4.56682">
        <ele>895</ele>
        <time>2026-05-12T10:51:29.000Z</time>
      </trkpt>
      <trkpt lat="45.27051" lon="4.56686">
        <ele>895.20001220703</ele>
        <time>2026-05-12T10:51:30.000Z</time>
      </trkpt>
      <trkpt lat="45.27051" lon="4.56689">
        <ele>895.40002441406</ele>
        <time>2026-05-12T10:51:31.000Z</time>
      </trkpt>
      <trkpt lat="45.2705" lon="4.56693">
        <ele>895.59997558594</ele>
        <time>2026-05-12T10:51:32.000Z</time>
      </trkpt>
      <trkpt lat="45.2705" lon="4.56696">
        <ele>895.59997558594</ele>
        <time>2026-05-12T10:51:33.000Z</time>
      </trkpt>
      <trkpt lat="45.27049" lon="4.567">
        <ele>895.79998779297</ele>
        <time>2026-05-12T10:51:34.000Z</time>
      </trkpt>
      <trkpt lat="45.27048" lon="4.56703">
        <ele>896</ele>
        <time>2026-05-12T10:51:35.000Z</time>
      </trkpt>
      <trkpt lat="45.27047" lon="4.56705">
        <ele>896.20001220703</ele>
        <time>2026-05-12T10:51:36.000Z</time>
      </trkpt>
      <trkpt lat="45.27045" lon="4.56708">
        <ele>896.20001220703</ele>
        <time>2026-05-12T10:51:37.000Z</time>
      </trkpt>
      <trkpt lat="45.27044" lon="4.5671">
        <ele>896.40002441406</ele>
        <time>2026-05-12T10:51:38.000Z</time>
      </trkpt>
      <trkpt lat="45.27042" lon="4.56713">
        <ele>896.40002441406</ele>
        <time>2026-05-12T10:51:39.000Z</time>
      </trkpt>
      <trkpt lat="45.27041" lon="4.56716">
        <ele>896.40002441406</ele>
        <time>2026-05-12T10:51:40.000Z</time>
      </trkpt>
      <trkpt lat="45.2704" lon="4.56719">
        <ele>896.40002441406</ele>
        <time>2026-05-12T10:51:41.000Z</time>
      </trkpt>
      <trkpt lat="45.27039" lon="4.56722">
        <ele>896.40002441406</ele>
        <time>2026-05-12T10:51:42.000Z</time>
      </trkpt>
      <trkpt lat="45.27038" lon="4.56725">
        <ele>896.20001220703</ele>
        <time>2026-05-12T10:51:43.000Z</time>
      </trkpt>
      <trkpt lat="45.27037" lon="4.56728">
        <ele>896.20001220703</ele>
        <time>2026-05-12T10:51:44.000Z</time>
      </trkpt>
      <trkpt lat="45.27036" lon="4.56731">
        <ele>896.20001220703</ele>
        <time>2026-05-12T10:51:45.000Z</time>
      </trkpt>
      <trkpt lat="45.27035" lon="4.56734">
        <ele>896</ele>
        <time>2026-05-12T10:51:46.000Z</time>
      </trkpt>
      <trkpt lat="45.27033" lon="4.56737">
        <ele>895.79998779297</ele>
        <time>2026-05-12T10:51:47.000Z</time>
      </trkpt>
      <trkpt lat="45.27032" lon="4.56739">
        <ele>895.59997558594</ele>
        <time>2026-05-12T10:51:48.000Z</time>
      </trkpt>
      <trkpt lat="45.2703" lon="4.56742">
        <ele>895.59997558594</ele>
        <time>2026-05-12T10:51:49.000Z</time>
      </trkpt>
      <trkpt lat="45.27028" lon="4.56744">
        <ele>895.40002441406</ele>
        <time>2026-05-12T10:51:50.000Z</time>
      </trkpt>
      <trkpt lat="45.27027" lon="4.56746">
        <ele>895.20001220703</ele>
        <time>2026-05-12T10:51:51.000Z</time>
      </trkpt>
      <trkpt lat="45.27025" lon="4.56748">
        <ele>895</ele>
        <time>2026-05-12T10:51:52.000Z</time>
      </trkpt>
      <trkpt lat="45.27023" lon="4.5675">
        <ele>895</ele>
        <time>2026-05-12T10:51:53.000Z</time>
      </trkpt>
      <trkpt lat="45.27022" lon="4.56753">
        <ele>894.79998779297</ele>
        <time>2026-05-12T10:51:54.000Z</time>
      </trkpt>
      <trkpt lat="45.27021" lon="4.56755">
        <ele>894.79998779297</ele>
        <time>2026-05-12T10:51:55.000Z</time>
      </trkpt>
      <trkpt lat="45.2702" lon="4.56757">
        <ele>894.79998779297</ele>
        <time>2026-05-12T10:51:56.000Z</time>
      </trkpt>
      <trkpt lat="45.27018" lon="4.56759">
        <ele>894.79998779297</ele>
        <time>2026-05-12T10:51:57.000Z</time>
      </trkpt>
      <trkpt lat="45.27017" lon="4.56761">
        <ele>894.79998779297</ele>
        <time>2026-05-12T10:51:58.000Z</time>
      </trkpt>
      <trkpt lat="45.27015" lon="4.56762">
        <ele>894.59997558594</ele>
        <time>2026-05-12T10:51:59.000Z</time>
      </trkpt>
      <trkpt lat="45.27013" lon="4.56764">
        <ele>894.59997558594</ele>
        <time>2026-05-12T10:52:00.000Z</time>
      </trkpt>
      <trkpt lat="45.27011" lon="4.56766">
        <ele>894.40002441406</ele>
        <time>2026-05-12T10:52:01.000Z</time>
      </trkpt>
      <trkpt lat="45.27008" lon="4.56768">
        <ele>894.40002441406</ele>
        <time>2026-05-12T10:52:02.000Z</time>
      </trkpt>
      <trkpt lat="45.27006" lon="4.5677">
        <ele>894.20001220703</ele>
        <time>2026-05-12T10:52:03.000Z</time>
      </trkpt>
      <trkpt lat="45.27004" lon="4.56772">
        <ele>894</ele>
        <time>2026-05-12T10:52:04.000Z</time>
      </trkpt>
      <trkpt lat="45.27002" lon="4.56774">
        <ele>894</ele>
        <time>2026-05-12T10:52:05.000Z</time>
      </trkpt>
      <trkpt lat="45.27001" lon="4.56776">
        <ele>894</ele>
        <time>2026-05-12T10:52:06.000Z</time>
      </trkpt>
      <trkpt lat="45.26999" lon="4.56777">
        <ele>893.79998779297</ele>
        <time>2026-05-12T10:52:07.000Z</time>
      </trkpt>
      <trkpt lat="45.26997" lon="4.56779">
        <ele>893.79998779297</ele>
        <time>2026-05-12T10:52:08.000Z</time>
      </trkpt>
      <trkpt lat="45.26995" lon="4.5678">
        <ele>893.79998779297</ele>
        <time>2026-05-12T10:52:09.000Z</time>
      </trkpt>
      <trkpt lat="45.26993" lon="4.56781">
        <ele>893.79998779297</ele>
        <time>2026-05-12T10:52:10.000Z</time>
      </trkpt>
      <trkpt lat="45.26991" lon="4.56781">
        <ele>893.79998779297</ele>
        <time>2026-05-12T10:52:11.000Z</time>
      </trkpt>
      <trkpt lat="45.26989" lon="4.56782">
        <ele>893.79998779297</ele>
        <time>2026-05-12T10:52:12.000Z</time>
      </trkpt>
      <trkpt lat="45.26987" lon="4.56782">
        <ele>893.79998779297</ele>
        <time>2026-05-12T10:52:13.000Z</time>
      </trkpt>
      <trkpt lat="45.26986" lon="4.56784">
        <ele>893.79998779297</ele>
        <time>2026-05-12T10:52:14.000Z</time>
      </trkpt>
      <trkpt lat="45.26984" lon="4.56785">
        <ele>894</ele>
        <time>2026-05-12T10:52:15.000Z</time>
      </trkpt>
      <trkpt lat="45.26982" lon="4.56786">
        <ele>894</ele>
        <time>2026-05-12T10:52:16.000Z</time>
      </trkpt>
      <trkpt lat="45.2698" lon="4.56787">
        <ele>894</ele>
        <time>2026-05-12T10:52:17.000Z</time>
      </trkpt>
      <trkpt lat="45.26979" lon="4.56789">
        <ele>894.20001220703</ele>
        <time>2026-05-12T10:52:18.000Z</time>
      </trkpt>
      <trkpt lat="45.26978" lon="4.5679">
        <ele>894.20001220703</ele>
        <time>2026-05-12T10:52:19.000Z</time>
      </trkpt>
      <trkpt lat="45.26977" lon="4.56791">
        <ele>894.20001220703</ele>
        <time>2026-05-12T10:52:20.000Z</time>
      </trkpt>
      <trkpt lat="45.26976" lon="4.56793">
        <ele>894.20001220703</ele>
        <time>2026-05-12T10:52:21.000Z</time>
      </trkpt>
      <trkpt lat="45.26974" lon="4.56793">
        <ele>894.20001220703</ele>
        <time>2026-05-12T10:52:22.000Z</time>
      </trkpt>
      <trkpt lat="45.26972" lon="4.56793">
        <ele>894</ele>
        <time>2026-05-12T10:52:23.000Z</time>
      </trkpt>
      <trkpt lat="45.26969" lon="4.56793">
        <ele>894</ele>
        <time>2026-05-12T10:52:24.000Z</time>
      </trkpt>
      <trkpt lat="45.26967" lon="4.56793">
        <ele>893.79998779297</ele>
        <time>2026-05-12T10:52:25.000Z</time>
      </trkpt>
      <trkpt lat="45.26964" lon="4.56793">
        <ele>893.59997558594</ele>
        <time>2026-05-12T10:52:26.000Z</time>
      </trkpt>
      <trkpt lat="45.26962" lon="4.56793">
        <ele>893.40002441406</ele>
        <time>2026-05-12T10:52:27.000Z</time>
      </trkpt>
      <trkpt lat="45.2696" lon="4.56793">
        <ele>893.40002441406</ele>
        <time>2026-05-12T10:52:28.000Z</time>
      </trkpt>
      <trkpt lat="45.26958" lon="4.56794">
        <ele>893.20001220703</ele>
        <time>2026-05-12T10:52:29.000Z</time>
      </trkpt>
      <trkpt lat="45.26955" lon="4.56794">
        <ele>893</ele>
        <time>2026-05-12T10:52:30.000Z</time>
      </trkpt>
      <trkpt lat="45.26953" lon="4.56794">
        <ele>893</ele>
        <time>2026-05-12T10:52:31.000Z</time>
      </trkpt>
      <trkpt lat="45.26951" lon="4.56794">
        <ele>893</ele>
        <time>2026-05-12T10:52:32.000Z</time>
      </trkpt>
      <trkpt lat="45.2695" lon="4.56793">
        <ele>893</ele>
        <time>2026-05-12T10:52:33.000Z</time>
      </trkpt>
      <trkpt lat="45.26948" lon="4.56792">
        <ele>892.79998779297</ele>
        <time>2026-05-12T10:52:34.000Z</time>
      </trkpt>
      <trkpt lat="45.26948" lon="4.56792">
        <ele>892.79998779297</ele>
        <time>2026-05-12T10:52:35.000Z</time>
      </trkpt>
      <trkpt lat="45.26948" lon="4.56792">
        <ele>892.79998779297</ele>
        <time>2026-05-12T10:52:36.000Z</time>
      </trkpt>
      <trkpt lat="45.26948" lon="4.56792">
        <ele>893</ele>
        <time>2026-05-12T10:52:37.000Z</time>
      </trkpt>
      <trkpt lat="45.26945" lon="4.56794">
        <ele>893.20001220703</ele>
        <time>2026-05-12T10:52:46.000Z</time>
      </trkpt>
      <trkpt lat="45.26943" lon="4.56796">
        <ele>893.20001220703</ele>
        <time>2026-05-12T10:52:47.000Z</time>
      </trkpt>
      <trkpt lat="45.26941" lon="4.56797">
        <ele>893.20001220703</ele>
        <time>2026-05-12T10:52:48.000Z</time>
      </trkpt>
      <trkpt lat="45.26939" lon="4.56798">
        <ele>893</ele>
        <time>2026-05-12T10:52:49.000Z</time>
      </trkpt>
      <trkpt lat="45.26936" lon="4.56799">
        <ele>893</ele>
        <time>2026-05-12T10:52:50.000Z</time>
      </trkpt>
      <trkpt lat="45.26933" lon="4.568">
        <ele>893</ele>
        <time>2026-05-12T10:52:51.000Z</time>
      </trkpt>
      <trkpt lat="45.2693" lon="4.56801">
        <ele>893</ele>
        <time>2026-05-12T10:52:52.000Z</time>
      </trkpt>
      <trkpt lat="45.26927" lon="4.56803">
        <ele>893</ele>
        <time>2026-05-12T10:52:53.000Z</time>
      </trkpt>
      <trkpt lat="45.26923" lon="4.56804">
        <ele>892.79998779297</ele>
        <time>2026-05-12T10:52:54.000Z</time>
      </trkpt>
      <trkpt lat="45.2692" lon="4.56805">
        <ele>892.79998779297</ele>
        <time>2026-05-12T10:52:55.000Z</time>
      </trkpt>
      <trkpt lat="45.26917" lon="4.56806">
        <ele>892.79998779297</ele>
        <time>2026-05-12T10:52:56.000Z</time>
      </trkpt>
      <trkpt lat="45.26914" lon="4.56808">
        <ele>892.79998779297</ele>
        <time>2026-05-12T10:52:57.000Z</time>
      </trkpt>
      <trkpt lat="45.26911" lon="4.56809">
        <ele>893</ele>
        <time>2026-05-12T10:52:58.000Z</time>
      </trkpt>
      <trkpt lat="45.26908" lon="4.5681">
        <ele>893</ele>
        <time>2026-05-12T10:52:59.000Z</time>
      </trkpt>
      <trkpt lat="45.26905" lon="4.56812">
        <ele>893</ele>
        <time>2026-05-12T10:53:00.000Z</time>
      </trkpt>
      <trkpt lat="45.26903" lon="4.56813">
        <ele>893</ele>
        <time>2026-05-12T10:53:01.000Z</time>
      </trkpt>
      <trkpt lat="45.269" lon="4.56814">
        <ele>893.20001220703</ele>
        <time>2026-05-12T10:53:02.000Z</time>
      </trkpt>
      <trkpt lat="45.26898" lon="4.56815">
        <ele>893.20001220703</ele>
        <time>2026-05-12T10:53:03.000Z</time>
      </trkpt>
      <trkpt lat="45.26896" lon="4.56817">
        <ele>893.20001220703</ele>
        <time>2026-05-12T10:53:04.000Z</time>
      </trkpt>
      <trkpt lat="45.26893" lon="4.56818">
        <ele>893.20001220703</ele>
        <time>2026-05-12T10:53:05.000Z</time>
      </trkpt>
      <trkpt lat="45.2689" lon="4.5682">
        <ele>893.20001220703</ele>
        <time>2026-05-12T10:53:06.000Z</time>
      </trkpt>
      <trkpt lat="45.26887" lon="4.56822">
        <ele>893.20001220703</ele>
        <time>2026-05-12T10:53:07.000Z</time>
      </trkpt>
      <trkpt lat="45.26884" lon="4.56824">
        <ele>893.20001220703</ele>
        <time>2026-05-12T10:53:08.000Z</time>
      </trkpt>
      <trkpt lat="45.26881" lon="4.56826">
        <ele>893.20001220703</ele>
        <time>2026-05-12T10:53:09.000Z</time>
      </trkpt>
      <trkpt lat="45.26878" lon="4.56829">
        <ele>893.40002441406</ele>
        <time>2026-05-12T10:53:10.000Z</time>
      </trkpt>
      <trkpt lat="45.26876" lon="4.56831">
        <ele>893.40002441406</ele>
        <time>2026-05-12T10:53:11.000Z</time>
      </trkpt>
      <trkpt lat="45.26873" lon="4.56832">
        <ele>893.40002441406</ele>
        <time>2026-05-12T10:53:12.000Z</time>
      </trkpt>
      <trkpt lat="45.2687" lon="4.56834">
        <ele>893.40002441406</ele>
        <time>2026-05-12T10:53:13.000Z</time>
      </trkpt>
      <trkpt lat="45.26867" lon="4.56836">
        <ele>893.59997558594</ele>
        <time>2026-05-12T10:53:14.000Z</time>
      </trkpt>
      <trkpt lat="45.26864" lon="4.56837">
        <ele>893.59997558594</ele>
        <time>2026-05-12T10:53:15.000Z</time>
      </trkpt>
      <trkpt lat="45.26862" lon="4.56839">
        <ele>893.59997558594</ele>
        <time>2026-05-12T10:53:16.000Z</time>
      </trkpt>
      <trkpt lat="45.26859" lon="4.5684">
        <ele>893.59997558594</ele>
        <time>2026-05-12T10:53:17.000Z</time>
      </trkpt>
      <trkpt lat="45.26856" lon="4.56841">
        <ele>893.59997558594</ele>
        <time>2026-05-12T10:53:18.000Z</time>
      </trkpt>
      <trkpt lat="45.26853" lon="4.56842">
        <ele>893.59997558594</ele>
        <time>2026-05-12T10:53:19.000Z</time>
      </trkpt>
      <trkpt lat="45.26849" lon="4.56842">
        <ele>893.59997558594</ele>
        <time>2026-05-12T10:53:20.000Z</time>
      </trkpt>
      <trkpt lat="45.26846" lon="4.56843">
        <ele>893.59997558594</ele>
        <time>2026-05-12T10:53:21.000Z</time>
      </trkpt>
      <trkpt lat="45.26842" lon="4.56843">
        <ele>893.59997558594</ele>
        <time>2026-05-12T10:53:22.000Z</time>
      </trkpt>
      <trkpt lat="45.26839" lon="4.56844">
        <ele>893.59997558594</ele>
        <time>2026-05-12T10:53:23.000Z</time>
      </trkpt>
      <trkpt lat="45.26836" lon="4.56845">
        <ele>893.59997558594</ele>
        <time>2026-05-12T10:53:24.000Z</time>
      </trkpt>
      <trkpt lat="45.26832" lon="4.56845">
        <ele>893.59997558594</ele>
        <time>2026-05-12T10:53:25.000Z</time>
      </trkpt>
      <trkpt lat="45.26829" lon="4.56846">
        <ele>893.40002441406</ele>
        <time>2026-05-12T10:53:26.000Z</time>
      </trkpt>
      <trkpt lat="45.26825" lon="4.56846">
        <ele>893.40002441406</ele>
        <time>2026-05-12T10:53:27.000Z</time>
      </trkpt>
      <trkpt lat="45.26821" lon="4.56847">
        <ele>893.40002441406</ele>
        <time>2026-05-12T10:53:28.000Z</time>
      </trkpt>
      <trkpt lat="45.26817" lon="4.56847">
        <ele>893.20001220703</ele>
        <time>2026-05-12T10:53:29.000Z</time>
      </trkpt>
      <trkpt lat="45.26814" lon="4.56848">
        <ele>893.20001220703</ele>
        <time>2026-05-12T10:53:30.000Z</time>
      </trkpt>
      <trkpt lat="45.2681" lon="4.56849">
        <ele>893.20001220703</ele>
        <time>2026-05-12T10:53:31.000Z</time>
      </trkpt>
      <trkpt lat="45.26806" lon="4.5685">
        <ele>893</ele>
        <time>2026-05-12T10:53:32.000Z</time>
      </trkpt>
      <trkpt lat="45.26802" lon="4.56851">
        <ele>893</ele>
        <time>2026-05-12T10:53:33.000Z</time>
      </trkpt>
      <trkpt lat="45.26799" lon="4.56853">
        <ele>893</ele>
        <time>2026-05-12T10:53:34.000Z</time>
      </trkpt>
      <trkpt lat="45.26795" lon="4.56854">
        <ele>893</ele>
        <time>2026-05-12T10:53:35.000Z</time>
      </trkpt>
      <trkpt lat="45.26792" lon="4.56856">
        <ele>892.79998779297</ele>
        <time>2026-05-12T10:53:36.000Z</time>
      </trkpt>
      <trkpt lat="45.26788" lon="4.56858">
        <ele>892.79998779297</ele>
        <time>2026-05-12T10:53:37.000Z</time>
      </trkpt>
      <trkpt lat="45.26786" lon="4.5686">
        <ele>893</ele>
        <time>2026-05-12T10:53:38.000Z</time>
      </trkpt>
      <trkpt lat="45.26783" lon="4.56862">
        <ele>893</ele>
        <time>2026-05-12T10:53:39.000Z</time>
      </trkpt>
      <trkpt lat="45.2678" lon="4.56864">
        <ele>893.20001220703</ele>
        <time>2026-05-12T10:53:40.000Z</time>
      </trkpt>
      <trkpt lat="45.26778" lon="4.56865">
        <ele>893.20001220703</ele>
        <time>2026-05-12T10:53:41.000Z</time>
      </trkpt>
      <trkpt lat="45.26775" lon="4.56867">
        <ele>893.20001220703</ele>
        <time>2026-05-12T10:53:42.000Z</time>
      </trkpt>
      <trkpt lat="45.26773" lon="4.56868">
        <ele>893.20001220703</ele>
        <time>2026-05-12T10:53:43.000Z</time>
      </trkpt>
      <trkpt lat="45.2677" lon="4.5687">
        <ele>893.20001220703</ele>
        <time>2026-05-12T10:53:44.000Z</time>
      </trkpt>
      <trkpt lat="45.26767" lon="4.56872">
        <ele>893.40002441406</ele>
        <time>2026-05-12T10:53:45.000Z</time>
      </trkpt>
      <trkpt lat="45.26765" lon="4.56874">
        <ele>893.40002441406</ele>
        <time>2026-05-12T10:53:46.000Z</time>
      </trkpt>
      <trkpt lat="45.26763" lon="4.56876">
        <ele>893.40002441406</ele>
        <time>2026-05-12T10:53:47.000Z</time>
      </trkpt>
      <trkpt lat="45.2676" lon="4.56878">
        <ele>893.59997558594</ele>
        <time>2026-05-12T10:53:48.000Z</time>
      </trkpt>
      <trkpt lat="45.26758" lon="4.5688">
        <ele>893.79998779297</ele>
        <time>2026-05-12T10:53:49.000Z</time>
      </trkpt>
      <trkpt lat="45.26755" lon="4.56882">
        <ele>893.79998779297</ele>
        <time>2026-05-12T10:53:50.000Z</time>
      </trkpt>
      <trkpt lat="45.26753" lon="4.56884">
        <ele>894</ele>
        <time>2026-05-12T10:53:51.000Z</time>
      </trkpt>
      <trkpt lat="45.26751" lon="4.56885">
        <ele>894.20001220703</ele>
        <time>2026-05-12T10:53:52.000Z</time>
      </trkpt>
      <trkpt lat="45.26748" lon="4.56888">
        <ele>894.40002441406</ele>
        <time>2026-05-12T10:53:53.000Z</time>
      </trkpt>
      <trkpt lat="45.26746" lon="4.5689">
        <ele>894.40002441406</ele>
        <time>2026-05-12T10:53:54.000Z</time>
      </trkpt>
      <trkpt lat="45.26744" lon="4.56892">
        <ele>894.59997558594</ele>
        <time>2026-05-12T10:53:55.000Z</time>
      </trkpt>
      <trkpt lat="45.26741" lon="4.56894">
        <ele>894.79998779297</ele>
        <time>2026-05-12T10:53:56.000Z</time>
      </trkpt>
      <trkpt lat="45.26739" lon="4.56897">
        <ele>895</ele>
        <time>2026-05-12T10:53:57.000Z</time>
      </trkpt>
      <trkpt lat="45.26736" lon="4.56899">
        <ele>895</ele>
        <time>2026-05-12T10:53:58.000Z</time>
      </trkpt>
      <trkpt lat="45.26734" lon="4.56901">
        <ele>895.20001220703</ele>
        <time>2026-05-12T10:53:59.000Z</time>
      </trkpt>
      <trkpt lat="45.26732" lon="4.56904">
        <ele>895.40002441406</ele>
        <time>2026-05-12T10:54:00.000Z</time>
      </trkpt>
      <trkpt lat="45.2673" lon="4.56906">
        <ele>895.59997558594</ele>
        <time>2026-05-12T10:54:01.000Z</time>
      </trkpt>
      <trkpt lat="45.26728" lon="4.56908">
        <ele>895.79998779297</ele>
        <time>2026-05-12T10:54:02.000Z</time>
      </trkpt>
      <trkpt lat="45.26726" lon="4.56911">
        <ele>896</ele>
        <time>2026-05-12T10:54:03.000Z</time>
      </trkpt>
      <trkpt lat="45.26723" lon="4.56913">
        <ele>896</ele>
        <time>2026-05-12T10:54:04.000Z</time>
      </trkpt>
      <trkpt lat="45.26721" lon="4.56915">
        <ele>896.20001220703</ele>
        <time>2026-05-12T10:54:05.000Z</time>
      </trkpt>
      <trkpt lat="45.2672" lon="4.56917">
        <ele>896.40002441406</ele>
        <time>2026-05-12T10:54:06.000Z</time>
      </trkpt>
      <trkpt lat="45.26717" lon="4.56919">
        <ele>896.59997558594</ele>
        <time>2026-05-12T10:54:07.000Z</time>
      </trkpt>
      <trkpt lat="45.26715" lon="4.56921">
        <ele>896.79998779297</ele>
        <time>2026-05-12T10:54:08.000Z</time>
      </trkpt>
      <trkpt lat="45.26713" lon="4.56923">
        <ele>897</ele>
        <time>2026-05-12T10:54:09.000Z</time>
      </trkpt>
      <trkpt lat="45.2671" lon="4.56926">
        <ele>897.20001220703</ele>
        <time>2026-05-12T10:54:10.000Z</time>
      </trkpt>
      <trkpt lat="45.26708" lon="4.56928">
        <ele>897.20001220703</ele>
        <time>2026-05-12T10:54:11.000Z</time>
      </trkpt>
      <trkpt lat="45.26707" lon="4.5693">
        <ele>897.40002441406</ele>
        <time>2026-05-12T10:54:12.000Z</time>
      </trkpt>
      <trkpt lat="45.26705" lon="4.56932">
        <ele>897.59997558594</ele>
        <time>2026-05-12T10:54:13.000Z</time>
      </trkpt>
      <trkpt lat="45.26702" lon="4.56935">
        <ele>897.79998779297</ele>
        <time>2026-05-12T10:54:14.000Z</time>
      </trkpt>
      <trkpt lat="45.267" lon="4.56937">
        <ele>898</ele>
        <time>2026-05-12T10:54:15.000Z</time>
      </trkpt>
      <trkpt lat="45.26698" lon="4.56939">
        <ele>898</ele>
        <time>2026-05-12T10:54:16.000Z</time>
      </trkpt>
      <trkpt lat="45.26696" lon="4.56941">
        <ele>898.20001220703</ele>
        <time>2026-05-12T10:54:17.000Z</time>
      </trkpt>
      <trkpt lat="45.26694" lon="4.56944">
        <ele>898.40002441406</ele>
        <time>2026-05-12T10:54:18.000Z</time>
      </trkpt>
      <trkpt lat="45.26692" lon="4.56946">
        <ele>898.59997558594</ele>
        <time>2026-05-12T10:54:19.000Z</time>
      </trkpt>
      <trkpt lat="45.2669" lon="4.56948">
        <ele>898.79998779297</ele>
        <time>2026-05-12T10:54:20.000Z</time>
      </trkpt>
      <trkpt lat="45.26688" lon="4.56951">
        <ele>899</ele>
        <time>2026-05-12T10:54:21.000Z</time>
      </trkpt>
      <trkpt lat="45.26686" lon="4.56953">
        <ele>899.20001220703</ele>
        <time>2026-05-12T10:54:22.000Z</time>
      </trkpt>
      <trkpt lat="45.26684" lon="4.56956">
        <ele>899.40002441406</ele>
        <time>2026-05-12T10:54:23.000Z</time>
      </trkpt>
      <trkpt lat="45.26683" lon="4.56958">
        <ele>899.40002441406</ele>
        <time>2026-05-12T10:54:24.000Z</time>
      </trkpt>
      <trkpt lat="45.26681" lon="4.5696">
        <ele>899.59997558594</ele>
        <time>2026-05-12T10:54:25.000Z</time>
      </trkpt>
      <trkpt lat="45.26679" lon="4.56963">
        <ele>899.79998779297</ele>
        <time>2026-05-12T10:54:26.000Z</time>
      </trkpt>
      <trkpt lat="45.26678" lon="4.56966">
        <ele>900</ele>
        <time>2026-05-12T10:54:27.000Z</time>
      </trkpt>
      <trkpt lat="45.26676" lon="4.56968">
        <ele>900.20001220703</ele>
        <time>2026-05-12T10:54:28.000Z</time>
      </trkpt>
      <trkpt lat="45.26674" lon="4.56971">
        <ele>900.20001220703</ele>
        <time>2026-05-12T10:54:29.000Z</time>
      </trkpt>
      <trkpt lat="45.26673" lon="4.56975">
        <ele>900.20001220703</ele>
        <time>2026-05-12T10:54:30.000Z</time>
      </trkpt>
      <trkpt lat="45.26671" lon="4.56978">
        <ele>900.40002441406</ele>
        <time>2026-05-12T10:54:31.000Z</time>
      </trkpt>
      <trkpt lat="45.2667" lon="4.56981">
        <ele>900.40002441406</ele>
        <time>2026-05-12T10:54:32.000Z</time>
      </trkpt>
      <trkpt lat="45.26669" lon="4.56984">
        <ele>900.40002441406</ele>
        <time>2026-05-12T10:54:33.000Z</time>
      </trkpt>
      <trkpt lat="45.26668" lon="4.56987">
        <ele>900.40002441406</ele>
        <time>2026-05-12T10:54:34.000Z</time>
      </trkpt>
      <trkpt lat="45.26666" lon="4.5699">
        <ele>900.40002441406</ele>
        <time>2026-05-12T10:54:35.000Z</time>
      </trkpt>
      <trkpt lat="45.26665" lon="4.56993">
        <ele>900.40002441406</ele>
        <time>2026-05-12T10:54:36.000Z</time>
      </trkpt>
      <trkpt lat="45.26664" lon="4.56996">
        <ele>900.40002441406</ele>
        <time>2026-05-12T10:54:37.000Z</time>
      </trkpt>
      <trkpt lat="45.26663" lon="4.56998">
        <ele>900.40002441406</ele>
        <time>2026-05-12T10:54:38.000Z</time>
      </trkpt>
      <trkpt lat="45.26661" lon="4.57001">
        <ele>900.40002441406</ele>
        <time>2026-05-12T10:54:39.000Z</time>
      </trkpt>
      <trkpt lat="45.2666" lon="4.57003">
        <ele>900.20001220703</ele>
        <time>2026-05-12T10:54:40.000Z</time>
      </trkpt>
      <trkpt lat="45.26659" lon="4.57006">
        <ele>900.20001220703</ele>
        <time>2026-05-12T10:54:41.000Z</time>
      </trkpt>
      <trkpt lat="45.26657" lon="4.57009">
        <ele>900.20001220703</ele>
        <time>2026-05-12T10:54:42.000Z</time>
      </trkpt>
      <trkpt lat="45.26656" lon="4.57012">
        <ele>900.20001220703</ele>
        <time>2026-05-12T10:54:43.000Z</time>
      </trkpt>
      <trkpt lat="45.26655" lon="4.57015">
        <ele>900.20001220703</ele>
        <time>2026-05-12T10:54:44.000Z</time>
      </trkpt>
      <trkpt lat="45.26653" lon="4.57019">
        <ele>900.20001220703</ele>
        <time>2026-05-12T10:54:45.000Z</time>
      </trkpt>
      <trkpt lat="45.26652" lon="4.57022">
        <ele>900.20001220703</ele>
        <time>2026-05-12T10:54:46.000Z</time>
      </trkpt>
      <trkpt lat="45.26651" lon="4.57024">
        <ele>900.20001220703</ele>
        <time>2026-05-12T10:54:47.000Z</time>
      </trkpt>
      <trkpt lat="45.2665" lon="4.57027">
        <ele>900.20001220703</ele>
        <time>2026-05-12T10:54:48.000Z</time>
      </trkpt>
      <trkpt lat="45.26648" lon="4.57031">
        <ele>900.20001220703</ele>
        <time>2026-05-12T10:54:49.000Z</time>
      </trkpt>
      <trkpt lat="45.26647" lon="4.57034">
        <ele>900.20001220703</ele>
        <time>2026-05-12T10:54:50.000Z</time>
      </trkpt>
      <trkpt lat="45.26646" lon="4.57037">
        <ele>900.20001220703</ele>
        <time>2026-05-12T10:54:51.000Z</time>
      </trkpt>
      <trkpt lat="45.26645" lon="4.5704">
        <ele>900.20001220703</ele>
        <time>2026-05-12T10:54:52.000Z</time>
      </trkpt>
      <trkpt lat="45.26644" lon="4.57043">
        <ele>900.20001220703</ele>
        <time>2026-05-12T10:54:53.000Z</time>
      </trkpt>
      <trkpt lat="45.26644" lon="4.57046">
        <ele>900</ele>
        <time>2026-05-12T10:54:54.000Z</time>
      </trkpt>
      <trkpt lat="45.26642" lon="4.57049">
        <ele>900</ele>
        <time>2026-05-12T10:54:55.000Z</time>
      </trkpt>
      <trkpt lat="45.26641" lon="4.57053">
        <ele>900</ele>
        <time>2026-05-12T10:54:56.000Z</time>
      </trkpt>
      <trkpt lat="45.2664" lon="4.57057">
        <ele>899.79998779297</ele>
        <time>2026-05-12T10:54:57.000Z</time>
      </trkpt>
      <trkpt lat="45.26639" lon="4.57061">
        <ele>899.79998779297</ele>
        <time>2026-05-12T10:54:58.000Z</time>
      </trkpt>
      <trkpt lat="45.26639" lon="4.57066">
        <ele>899.59997558594</ele>
        <time>2026-05-12T10:54:59.000Z</time>
      </trkpt>
      <trkpt lat="45.26638" lon="4.57071">
        <ele>899.59997558594</ele>
        <time>2026-05-12T10:55:00.000Z</time>
      </trkpt>
      <trkpt lat="45.26637" lon="4.57077">
        <ele>899.40002441406</ele>
        <time>2026-05-12T10:55:01.000Z</time>
      </trkpt>
      <trkpt lat="45.26637" lon="4.57082">
        <ele>899.20001220703</ele>
        <time>2026-05-12T10:55:02.000Z</time>
      </trkpt>
      <trkpt lat="45.26636" lon="4.57087">
        <ele>899</ele>
        <time>2026-05-12T10:55:03.000Z</time>
      </trkpt>
      <trkpt lat="45.26635" lon="4.57093">
        <ele>899</ele>
        <time>2026-05-12T10:55:04.000Z</time>
      </trkpt>
      <trkpt lat="45.26634" lon="4.57098">
        <ele>898.79998779297</ele>
        <time>2026-05-12T10:55:05.000Z</time>
      </trkpt>
      <trkpt lat="45.26633" lon="4.57104">
        <ele>898.59997558594</ele>
        <time>2026-05-12T10:55:06.000Z</time>
      </trkpt>
      <trkpt lat="45.26632" lon="4.57111">
        <ele>898.40002441406</ele>
        <time>2026-05-12T10:55:07.000Z</time>
      </trkpt>
      <trkpt lat="45.26631" lon="4.57117">
        <ele>898.20001220703</ele>
        <time>2026-05-12T10:55:08.000Z</time>
      </trkpt>
      <trkpt lat="45.26629" lon="4.57123">
        <ele>898.20001220703</ele>
        <time>2026-05-12T10:55:09.000Z</time>
      </trkpt>
      <trkpt lat="45.26627" lon="4.57129">
        <ele>898</ele>
        <time>2026-05-12T10:55:10.000Z</time>
      </trkpt>
      <trkpt lat="45.26625" lon="4.57135">
        <ele>897.79998779297</ele>
        <time>2026-05-12T10:55:11.000Z</time>
      </trkpt>
      <trkpt lat="45.26623" lon="4.57141">
        <ele>897.59997558594</ele>
        <time>2026-05-12T10:55:12.000Z</time>
      </trkpt>
      <trkpt lat="45.26621" lon="4.57147">
        <ele>897.40002441406</ele>
        <time>2026-05-12T10:55:13.000Z</time>
      </trkpt>
      <trkpt lat="45.26619" lon="4.57152">
        <ele>897</ele>
        <time>2026-05-12T10:55:14.000Z</time>
      </trkpt>
      <trkpt lat="45.26617" lon="4.57157">
        <ele>896.79998779297</ele>
        <time>2026-05-12T10:55:15.000Z</time>
      </trkpt>
      <trkpt lat="45.26615" lon="4.57163">
        <ele>896.59997558594</ele>
        <time>2026-05-12T10:55:16.000Z</time>
      </trkpt>
      <trkpt lat="45.26613" lon="4.57167">
        <ele>896.40002441406</ele>
        <time>2026-05-12T10:55:17.000Z</time>
      </trkpt>
      <trkpt lat="45.2661" lon="4.57172">
        <ele>896.20001220703</ele>
        <time>2026-05-12T10:55:18.000Z</time>
      </trkpt>
      <trkpt lat="45.26608" lon="4.57177">
        <ele>896</ele>
        <time>2026-05-12T10:55:19.000Z</time>
      </trkpt>
      <trkpt lat="45.26606" lon="4.57182">
        <ele>895.79998779297</ele>
        <time>2026-05-12T10:55:20.000Z</time>
      </trkpt>
      <trkpt lat="45.26605" lon="4.57187">
        <ele>895.79998779297</ele>
        <time>2026-05-12T10:55:21.000Z</time>
      </trkpt>
      <trkpt lat="45.26603" lon="4.57193">
        <ele>895.59997558594</ele>
        <time>2026-05-12T10:55:22.000Z</time>
      </trkpt>
      <trkpt lat="45.26603" lon="4.57199">
        <ele>895.40002441406</ele>
        <time>2026-05-12T10:55:23.000Z</time>
      </trkpt>
      <trkpt lat="45.26602" lon="4.57205">
        <ele>895.20001220703</ele>
        <time>2026-05-12T10:55:24.000Z</time>
      </trkpt>
      <trkpt lat="45.26602" lon="4.57212">
        <ele>895</ele>
        <time>2026-05-12T10:55:25.000Z</time>
      </trkpt>
      <trkpt lat="45.26603" lon="4.57218">
        <ele>894.79998779297</ele>
        <time>2026-05-12T10:55:26.000Z</time>
      </trkpt>
      <trkpt lat="45.26604" lon="4.57225">
        <ele>894.59997558594</ele>
        <time>2026-05-12T10:55:27.000Z</time>
      </trkpt>
      <trkpt lat="45.26605" lon="4.57231">
        <ele>894.40002441406</ele>
        <time>2026-05-12T10:55:28.000Z</time>
      </trkpt>
      <trkpt lat="45.26606" lon="4.57238">
        <ele>894.20001220703</ele>
        <time>2026-05-12T10:55:29.000Z</time>
      </trkpt>
      <trkpt lat="45.26606" lon="4.57244">
        <ele>894</ele>
        <time>2026-05-12T10:55:30.000Z</time>
      </trkpt>
      <trkpt lat="45.26607" lon="4.57251">
        <ele>893.79998779297</ele>
        <time>2026-05-12T10:55:31.000Z</time>
      </trkpt>
      <trkpt lat="45.26607" lon="4.57257">
        <ele>893.59997558594</ele>
        <time>2026-05-12T10:55:32.000Z</time>
      </trkpt>
      <trkpt lat="45.26607" lon="4.57264">
        <ele>893.20001220703</ele>
        <time>2026-05-12T10:55:33.000Z</time>
      </trkpt>
      <trkpt lat="45.26607" lon="4.57271">
        <ele>893</ele>
        <time>2026-05-12T10:55:34.000Z</time>
      </trkpt>
      <trkpt lat="45.26607" lon="4.57277">
        <ele>892.79998779297</ele>
        <time>2026-05-12T10:55:35.000Z</time>
      </trkpt>
      <trkpt lat="45.26607" lon="4.57284">
        <ele>892.59997558594</ele>
        <time>2026-05-12T10:55:36.000Z</time>
      </trkpt>
      <trkpt lat="45.26607" lon="4.57291">
        <ele>892.59997558594</ele>
        <time>2026-05-12T10:55:37.000Z</time>
      </trkpt>
      <trkpt lat="45.26607" lon="4.57297">
        <ele>892.59997558594</ele>
        <time>2026-05-12T10:55:38.000Z</time>
      </trkpt>
      <trkpt lat="45.26608" lon="4.57302">
        <ele>892.40002441406</ele>
        <time>2026-05-12T10:55:39.000Z</time>
      </trkpt>
      <trkpt lat="45.26609" lon="4.57308">
        <ele>892.40002441406</ele>
        <time>2026-05-12T10:55:40.000Z</time>
      </trkpt>
      <trkpt lat="45.2661" lon="4.57313">
        <ele>892.40002441406</ele>
        <time>2026-05-12T10:55:41.000Z</time>
      </trkpt>
      <trkpt lat="45.26611" lon="4.57318">
        <ele>892.20001220703</ele>
        <time>2026-05-12T10:55:42.000Z</time>
      </trkpt>
      <trkpt lat="45.26613" lon="4.57323">
        <ele>892.20001220703</ele>
        <time>2026-05-12T10:55:43.000Z</time>
      </trkpt>
      <trkpt lat="45.26614" lon="4.57328">
        <ele>892</ele>
        <time>2026-05-12T10:55:44.000Z</time>
      </trkpt>
      <trkpt lat="45.26615" lon="4.57333">
        <ele>891.79998779297</ele>
        <time>2026-05-12T10:55:45.000Z</time>
      </trkpt>
      <trkpt lat="45.26616" lon="4.57337">
        <ele>891.59997558594</ele>
        <time>2026-05-12T10:55:46.000Z</time>
      </trkpt>
      <trkpt lat="45.26617" lon="4.57342">
        <ele>891.40002441406</ele>
        <time>2026-05-12T10:55:47.000Z</time>
      </trkpt>
      <trkpt lat="45.26618" lon="4.57346">
        <ele>891.20001220703</ele>
        <time>2026-05-12T10:55:48.000Z</time>
      </trkpt>
      <trkpt lat="45.26619" lon="4.57351">
        <ele>891</ele>
        <time>2026-05-12T10:55:49.000Z</time>
      </trkpt>
      <trkpt lat="45.26621" lon="4.57355">
        <ele>891</ele>
        <time>2026-05-12T10:55:50.000Z</time>
      </trkpt>
      <trkpt lat="45.26622" lon="4.5736">
        <ele>890.59997558594</ele>
        <time>2026-05-12T10:55:51.000Z</time>
      </trkpt>
      <trkpt lat="45.26623" lon="4.57365">
        <ele>890.40002441406</ele>
        <time>2026-05-12T10:55:52.000Z</time>
      </trkpt>
      <trkpt lat="45.26625" lon="4.57369">
        <ele>890.20001220703</ele>
        <time>2026-05-12T10:55:53.000Z</time>
      </trkpt>
      <trkpt lat="45.26626" lon="4.57374">
        <ele>889.79998779297</ele>
        <time>2026-05-12T10:55:54.000Z</time>
      </trkpt>
      <trkpt lat="45.26627" lon="4.57379">
        <ele>889.59997558594</ele>
        <time>2026-05-12T10:55:55.000Z</time>
      </trkpt>
      <trkpt lat="45.26628" lon="4.57382">
        <ele>889.40002441406</ele>
        <time>2026-05-12T10:55:56.000Z</time>
      </trkpt>
      <trkpt lat="45.26629" lon="4.57386">
        <ele>889.20001220703</ele>
        <time>2026-05-12T10:55:57.000Z</time>
      </trkpt>
      <trkpt lat="45.2663" lon="4.5739">
        <ele>888.79998779297</ele>
        <time>2026-05-12T10:55:58.000Z</time>
      </trkpt>
      <trkpt lat="45.2663" lon="4.57393">
        <ele>888.59997558594</ele>
        <time>2026-05-12T10:55:59.000Z</time>
      </trkpt>
      <trkpt lat="45.26631" lon="4.57396">
        <ele>888.40002441406</ele>
        <time>2026-05-12T10:56:00.000Z</time>
      </trkpt>
      <trkpt lat="45.26631" lon="4.57399">
        <ele>888.40002441406</ele>
        <time>2026-05-12T10:56:01.000Z</time>
      </trkpt>
      <trkpt lat="45.26631" lon="4.57401">
        <ele>888.20001220703</ele>
        <time>2026-05-12T10:56:02.000Z</time>
      </trkpt>
      <trkpt lat="45.26631" lon="4.57403">
        <ele>888</ele>
        <time>2026-05-12T10:56:03.000Z</time>
      </trkpt>
      <trkpt lat="45.26632" lon="4.57406">
        <ele>887.79998779297</ele>
        <time>2026-05-12T10:56:04.000Z</time>
      </trkpt>
      <trkpt lat="45.26632" lon="4.57409">
        <ele>887.40002441406</ele>
        <time>2026-05-12T10:56:05.000Z</time>
      </trkpt>
      <trkpt lat="45.26633" lon="4.57412">
        <ele>887.20001220703</ele>
        <time>2026-05-12T10:56:06.000Z</time>
      </trkpt>
      <trkpt lat="45.26632" lon="4.57415">
        <ele>886.79998779297</ele>
        <time>2026-05-12T10:56:07.000Z</time>
      </trkpt>
      <trkpt lat="45.26633" lon="4.57418">
        <ele>886.59997558594</ele>
        <time>2026-05-12T10:56:08.000Z</time>
      </trkpt>
      <trkpt lat="45.26633" lon="4.5742">
        <ele>886.20001220703</ele>
        <time>2026-05-12T10:56:09.000Z</time>
      </trkpt>
      <trkpt lat="45.26633" lon="4.57422">
        <ele>886</ele>
        <time>2026-05-12T10:56:10.000Z</time>
      </trkpt>
      <trkpt lat="45.26633" lon="4.57423">
        <ele>885.59997558594</ele>
        <time>2026-05-12T10:56:11.000Z</time>
      </trkpt>
      <trkpt lat="45.26633" lon="4.57424">
        <ele>885.40002441406</ele>
        <time>2026-05-12T10:56:12.000Z</time>
      </trkpt>
      <trkpt lat="45.26633" lon="4.57429">
        <ele>884.59997558594</ele>
        <time>2026-05-12T10:56:15.000Z</time>
      </trkpt>
      <trkpt lat="45.26633" lon="4.57431">
        <ele>884.20001220703</ele>
        <time>2026-05-12T10:56:16.000Z</time>
      </trkpt>
      <trkpt lat="45.26633" lon="4.57434">
        <ele>884</ele>
        <time>2026-05-12T10:56:17.000Z</time>
      </trkpt>
      <trkpt lat="45.26633" lon="4.57436">
        <ele>883.59997558594</ele>
        <time>2026-05-12T10:56:18.000Z</time>
      </trkpt>
      <trkpt lat="45.26633" lon="4.57439">
        <ele>883</ele>
        <time>2026-05-12T10:56:19.000Z</time>
      </trkpt>
      <trkpt lat="45.26633" lon="4.57441">
        <ele>882.59997558594</ele>
        <time>2026-05-12T10:56:20.000Z</time>
      </trkpt>
      <trkpt lat="45.26633" lon="4.57443">
        <ele>882.20001220703</ele>
        <time>2026-05-12T10:56:21.000Z</time>
      </trkpt>
      <trkpt lat="45.26633" lon="4.57446">
        <ele>881.79998779297</ele>
        <time>2026-05-12T10:56:22.000Z</time>
      </trkpt>
      <trkpt lat="45.26634" lon="4.57448">
        <ele>881.40002441406</ele>
        <time>2026-05-12T10:56:23.000Z</time>
      </trkpt>
      <trkpt lat="45.26634" lon="4.5745">
        <ele>881</ele>
        <time>2026-05-12T10:56:24.000Z</time>
      </trkpt>
      <trkpt lat="45.26633" lon="4.57451">
        <ele>880.59997558594</ele>
        <time>2026-05-12T10:56:25.000Z</time>
      </trkpt>
      <trkpt lat="45.26633" lon="4.57453">
        <ele>880.20001220703</ele>
        <time>2026-05-12T10:56:26.000Z</time>
      </trkpt>
      <trkpt lat="45.26633" lon="4.57453">
        <ele>880</ele>
        <time>2026-05-12T10:56:27.000Z</time>
      </trkpt>
      <trkpt lat="45.26633" lon="4.57467">
        <ele>878.20001220703</ele>
        <time>2026-05-12T10:56:34.000Z</time>
      </trkpt>
      <trkpt lat="45.26633" lon="4.57471">
        <ele>877.79998779297</ele>
        <time>2026-05-12T10:56:35.000Z</time>
      </trkpt>
      <trkpt lat="45.26632" lon="4.57473">
        <ele>877.40002441406</ele>
        <time>2026-05-12T10:56:36.000Z</time>
      </trkpt>
      <trkpt lat="45.26632" lon="4.57477">
        <ele>877</ele>
        <time>2026-05-12T10:56:37.000Z</time>
      </trkpt>
      <trkpt lat="45.26631" lon="4.5748">
        <ele>876.59997558594</ele>
        <time>2026-05-12T10:56:38.000Z</time>
      </trkpt>
      <trkpt lat="45.26631" lon="4.57483">
        <ele>876.20001220703</ele>
        <time>2026-05-12T10:56:39.000Z</time>
      </trkpt>
      <trkpt lat="45.26631" lon="4.57486">
        <ele>875.79998779297</ele>
        <time>2026-05-12T10:56:40.000Z</time>
      </trkpt>
      <trkpt lat="45.2663" lon="4.57489">
        <ele>875.40002441406</ele>
        <time>2026-05-12T10:56:41.000Z</time>
      </trkpt>
      <trkpt lat="45.26629" lon="4.57492">
        <ele>875</ele>
        <time>2026-05-12T10:56:42.000Z</time>
      </trkpt>
      <trkpt lat="45.26629" lon="4.57494">
        <ele>874.59997558594</ele>
        <time>2026-05-12T10:56:43.000Z</time>
      </trkpt>
      <trkpt lat="45.26628" lon="4.57497">
        <ele>874.20001220703</ele>
        <time>2026-05-12T10:56:44.000Z</time>
      </trkpt>
      <trkpt lat="45.26627" lon="4.575">
        <ele>873.79998779297</ele>
        <time>2026-05-12T10:56:45.000Z</time>
      </trkpt>
      <trkpt lat="45.26626" lon="4.57503">
        <ele>873.20001220703</ele>
        <time>2026-05-12T10:56:46.000Z</time>
      </trkpt>
      <trkpt lat="45.26625" lon="4.57507">
        <ele>872.79998779297</ele>
        <time>2026-05-12T10:56:47.000Z</time>
      </trkpt>
      <trkpt lat="45.26624" lon="4.5751">
        <ele>872.40002441406</ele>
        <time>2026-05-12T10:56:48.000Z</time>
      </trkpt>
      <trkpt lat="45.26623" lon="4.57512">
        <ele>872</ele>
        <time>2026-05-12T10:56:49.000Z</time>
      </trkpt>
      <trkpt lat="45.26622" lon="4.57515">
        <ele>871.59997558594</ele>
        <time>2026-05-12T10:56:50.000Z</time>
      </trkpt>
      <trkpt lat="45.26621" lon="4.57517">
        <ele>871.20001220703</ele>
        <time>2026-05-12T10:56:51.000Z</time>
      </trkpt>
      <trkpt lat="45.2662" lon="4.5752">
        <ele>870.79998779297</ele>
        <time>2026-05-12T10:56:52.000Z</time>
      </trkpt>
      <trkpt lat="45.26619" lon="4.57522">
        <ele>870.59997558594</ele>
        <time>2026-05-12T10:56:53.000Z</time>
      </trkpt>
      <trkpt lat="45.26618" lon="4.57525">
        <ele>870.20001220703</ele>
        <time>2026-05-12T10:56:54.000Z</time>
      </trkpt>
      <trkpt lat="45.26617" lon="4.57527">
        <ele>870</ele>
        <time>2026-05-12T10:56:55.000Z</time>
      </trkpt>
      <trkpt lat="45.26616" lon="4.57529">
        <ele>869.59997558594</ele>
        <time>2026-05-12T10:56:56.000Z</time>
      </trkpt>
      <trkpt lat="45.26615" lon="4.57531">
        <ele>869.20001220703</ele>
        <time>2026-05-12T10:56:57.000Z</time>
      </trkpt>
      <trkpt lat="45.26614" lon="4.57533">
        <ele>869</ele>
        <time>2026-05-12T10:56:58.000Z</time>
      </trkpt>
      <trkpt lat="45.26613" lon="4.57535">
        <ele>868.59997558594</ele>
        <time>2026-05-12T10:56:59.000Z</time>
      </trkpt>
      <trkpt lat="45.26612" lon="4.57538">
        <ele>868.40002441406</ele>
        <time>2026-05-12T10:57:00.000Z</time>
      </trkpt>
      <trkpt lat="45.26611" lon="4.5754">
        <ele>868.20001220703</ele>
        <time>2026-05-12T10:57:01.000Z</time>
      </trkpt>
      <trkpt lat="45.26611" lon="4.57543">
        <ele>867.79998779297</ele>
        <time>2026-05-12T10:57:02.000Z</time>
      </trkpt>
      <trkpt lat="45.2661" lon="4.57546">
        <ele>867.59997558594</ele>
        <time>2026-05-12T10:57:03.000Z</time>
      </trkpt>
      <trkpt lat="45.26609" lon="4.57548">
        <ele>867.20001220703</ele>
        <time>2026-05-12T10:57:04.000Z</time>
      </trkpt>
      <trkpt lat="45.26608" lon="4.57552">
        <ele>866.79998779297</ele>
        <time>2026-05-12T10:57:05.000Z</time>
      </trkpt>
      <trkpt lat="45.26607" lon="4.57554">
        <ele>866.59997558594</ele>
        <time>2026-05-12T10:57:06.000Z</time>
      </trkpt>
      <trkpt lat="45.26606" lon="4.57557">
        <ele>866.20001220703</ele>
        <time>2026-05-12T10:57:07.000Z</time>
      </trkpt>
      <trkpt lat="45.26605" lon="4.5756">
        <ele>865.79998779297</ele>
        <time>2026-05-12T10:57:08.000Z</time>
      </trkpt>
      <trkpt lat="45.26604" lon="4.57562">
        <ele>865.40002441406</ele>
        <time>2026-05-12T10:57:09.000Z</time>
      </trkpt>
      <trkpt lat="45.26603" lon="4.57563">
        <ele>865.20001220703</ele>
        <time>2026-05-12T10:57:10.000Z</time>
      </trkpt>
      <trkpt lat="45.26603" lon="4.57564">
        <ele>865</ele>
        <time>2026-05-12T10:57:11.000Z</time>
      </trkpt>
      <trkpt lat="45.26602" lon="4.57565">
        <ele>864.59997558594</ele>
        <time>2026-05-12T10:57:12.000Z</time>
      </trkpt>
      <trkpt lat="45.26601" lon="4.57567">
        <ele>864.40002441406</ele>
        <time>2026-05-12T10:57:13.000Z</time>
      </trkpt>
      <trkpt lat="45.26601" lon="4.57568">
        <ele>864.20001220703</ele>
        <time>2026-05-12T10:57:14.000Z</time>
      </trkpt>
      <trkpt lat="45.26601" lon="4.57569">
        <ele>863.79998779297</ele>
        <time>2026-05-12T10:57:15.000Z</time>
      </trkpt>
      <trkpt lat="45.26601" lon="4.57569">
        <ele>863.59997558594</ele>
        <time>2026-05-12T10:57:16.000Z</time>
      </trkpt>
      <trkpt lat="45.26601" lon="4.5757">
        <ele>863.40002441406</ele>
        <time>2026-05-12T10:57:17.000Z</time>
      </trkpt>
      <trkpt lat="45.266" lon="4.57571">
        <ele>863.20001220703</ele>
        <time>2026-05-12T10:57:18.000Z</time>
      </trkpt>
      <trkpt lat="45.26594" lon="4.57581">
        <ele>861.20001220703</ele>
        <time>2026-05-12T10:57:42.000Z</time>
      </trkpt>
      <trkpt lat="45.26593" lon="4.57583">
        <ele>861</ele>
        <time>2026-05-12T10:57:43.000Z</time>
      </trkpt>
      <trkpt lat="45.26592" lon="4.57584">
        <ele>860.79998779297</ele>
        <time>2026-05-12T10:57:44.000Z</time>
      </trkpt>
      <trkpt lat="45.2659" lon="4.57586">
        <ele>860.40002441406</ele>
        <time>2026-05-12T10:57:45.000Z</time>
      </trkpt>
      <trkpt lat="45.2659" lon="4.57588">
        <ele>860.20001220703</ele>
        <time>2026-05-12T10:57:46.000Z</time>
      </trkpt>
      <trkpt lat="45.26588" lon="4.57591">
        <ele>859.79998779297</ele>
        <time>2026-05-12T10:57:47.000Z</time>
      </trkpt>
      <trkpt lat="45.26587" lon="4.57593">
        <ele>859.59997558594</ele>
        <time>2026-05-12T10:57:48.000Z</time>
      </trkpt>
      <trkpt lat="45.26586" lon="4.57595">
        <ele>859.40002441406</ele>
        <time>2026-05-12T10:57:49.000Z</time>
      </trkpt>
      <trkpt lat="45.26585" lon="4.57598">
        <ele>859</ele>
        <time>2026-05-12T10:57:50.000Z</time>
      </trkpt>
      <trkpt lat="45.26583" lon="4.57601">
        <ele>858.79998779297</ele>
        <time>2026-05-12T10:57:51.000Z</time>
      </trkpt>
      <trkpt lat="45.26582" lon="4.57604">
        <ele>858.40002441406</ele>
        <time>2026-05-12T10:57:52.000Z</time>
      </trkpt>
      <trkpt lat="45.26581" lon="4.57606">
        <ele>858.20001220703</ele>
        <time>2026-05-12T10:57:53.000Z</time>
      </trkpt>
      <trkpt lat="45.2658" lon="4.57608">
        <ele>858</ele>
        <time>2026-05-12T10:57:54.000Z</time>
      </trkpt>
      <trkpt lat="45.26579" lon="4.5761">
        <ele>857.59997558594</ele>
        <time>2026-05-12T10:57:55.000Z</time>
      </trkpt>
      <trkpt lat="45.26578" lon="4.57613">
        <ele>857.40002441406</ele>
        <time>2026-05-12T10:57:56.000Z</time>
      </trkpt>
      <trkpt lat="45.26577" lon="4.57616">
        <ele>857.20001220703</ele>
        <time>2026-05-12T10:57:57.000Z</time>
      </trkpt>
      <trkpt lat="45.26575" lon="4.57619">
        <ele>856.79998779297</ele>
        <time>2026-05-12T10:57:58.000Z</time>
      </trkpt>
      <trkpt lat="45.26574" lon="4.57623">
        <ele>856.59997558594</ele>
        <time>2026-05-12T10:57:59.000Z</time>
      </trkpt>
      <trkpt lat="45.26573" lon="4.57626">
        <ele>856.59997558594</ele>
        <time>2026-05-12T10:58:00.000Z</time>
      </trkpt>
      <trkpt lat="45.26573" lon="4.57627">
        <ele>856.40002441406</ele>
        <time>2026-05-12T10:58:01.000Z</time>
      </trkpt>
      <trkpt lat="45.26572" lon="4.57628">
        <ele>856.40002441406</ele>
        <time>2026-05-12T10:58:02.000Z</time>
      </trkpt>
      <trkpt lat="45.26572" lon="4.57629">
        <ele>856.20001220703</ele>
        <time>2026-05-12T10:58:03.000Z</time>
      </trkpt>
      <trkpt lat="45.2657" lon="4.57635">
        <ele>855.79998779297</ele>
        <time>2026-05-12T10:58:06.000Z</time>
      </trkpt>
      <trkpt lat="45.26568" lon="4.57637">
        <ele>855.59997558594</ele>
        <time>2026-05-12T10:58:07.000Z</time>
      </trkpt>
      <trkpt lat="45.26567" lon="4.57639">
        <ele>855.20001220703</ele>
        <time>2026-05-12T10:58:08.000Z</time>
      </trkpt>
      <trkpt lat="45.26565" lon="4.57642">
        <ele>855</ele>
        <time>2026-05-12T10:58:09.000Z</time>
      </trkpt>
      <trkpt lat="45.26564" lon="4.57644">
        <ele>854.59997558594</ele>
        <time>2026-05-12T10:58:10.000Z</time>
      </trkpt>
      <trkpt lat="45.26563" lon="4.57647">
        <ele>854.20001220703</ele>
        <time>2026-05-12T10:58:11.000Z</time>
      </trkpt>
      <trkpt lat="45.26562" lon="4.5765">
        <ele>853.79998779297</ele>
        <time>2026-05-12T10:58:12.000Z</time>
      </trkpt>
      <trkpt lat="45.26562" lon="4.57654">
        <ele>853.40002441406</ele>
        <time>2026-05-12T10:58:13.000Z</time>
      </trkpt>
      <trkpt lat="45.26561" lon="4.57657">
        <ele>853</ele>
        <time>2026-05-12T10:58:14.000Z</time>
      </trkpt>
      <trkpt lat="45.2656" lon="4.57659">
        <ele>852.59997558594</ele>
        <time>2026-05-12T10:58:15.000Z</time>
      </trkpt>
      <trkpt lat="45.2656" lon="4.57661">
        <ele>852.40002441406</ele>
        <time>2026-05-12T10:58:16.000Z</time>
      </trkpt>
      <trkpt lat="45.2656" lon="4.57664">
        <ele>852.20001220703</ele>
        <time>2026-05-12T10:58:17.000Z</time>
      </trkpt>
      <trkpt lat="45.26559" lon="4.57667">
        <ele>852</ele>
        <time>2026-05-12T10:58:18.000Z</time>
      </trkpt>
      <trkpt lat="45.26558" lon="4.5767">
        <ele>851.59997558594</ele>
        <time>2026-05-12T10:58:19.000Z</time>
      </trkpt>
      <trkpt lat="45.26558" lon="4.57673">
        <ele>851.40002441406</ele>
        <time>2026-05-12T10:58:20.000Z</time>
      </trkpt>
      <trkpt lat="45.26558" lon="4.57676">
        <ele>851.20001220703</ele>
        <time>2026-05-12T10:58:21.000Z</time>
      </trkpt>
      <trkpt lat="45.26558" lon="4.57678">
        <ele>851.20001220703</ele>
        <time>2026-05-12T10:58:22.000Z</time>
      </trkpt>
      <trkpt lat="45.26558" lon="4.57679">
        <ele>851</ele>
        <time>2026-05-12T10:58:23.000Z</time>
      </trkpt>
      <trkpt lat="45.26557" lon="4.5768">
        <ele>851</ele>
        <time>2026-05-12T10:58:24.000Z</time>
      </trkpt>
      <trkpt lat="45.26556" lon="4.57691">
        <ele>850</ele>
        <time>2026-05-12T10:58:30.000Z</time>
      </trkpt>
      <trkpt lat="45.26555" lon="4.57693">
        <ele>849.59997558594</ele>
        <time>2026-05-12T10:58:31.000Z</time>
      </trkpt>
      <trkpt lat="45.26554" lon="4.57695">
        <ele>849.40002441406</ele>
        <time>2026-05-12T10:58:32.000Z</time>
      </trkpt>
      <trkpt lat="45.26553" lon="4.57697">
        <ele>849</ele>
        <time>2026-05-12T10:58:33.000Z</time>
      </trkpt>
      <trkpt lat="45.26553" lon="4.577">
        <ele>848.79998779297</ele>
        <time>2026-05-12T10:58:34.000Z</time>
      </trkpt>
      <trkpt lat="45.26553" lon="4.57703">
        <ele>848.59997558594</ele>
        <time>2026-05-12T10:58:35.000Z</time>
      </trkpt>
      <trkpt lat="45.26553" lon="4.57706">
        <ele>848.40002441406</ele>
        <time>2026-05-12T10:58:36.000Z</time>
      </trkpt>
      <trkpt lat="45.26552" lon="4.57709">
        <ele>848.20001220703</ele>
        <time>2026-05-12T10:58:37.000Z</time>
      </trkpt>
      <trkpt lat="45.26551" lon="4.57711">
        <ele>848</ele>
        <time>2026-05-12T10:58:38.000Z</time>
      </trkpt>
      <trkpt lat="45.26551" lon="4.57714">
        <ele>847.79998779297</ele>
        <time>2026-05-12T10:58:39.000Z</time>
      </trkpt>
      <trkpt lat="45.2655" lon="4.57717">
        <ele>847.59997558594</ele>
        <time>2026-05-12T10:58:40.000Z</time>
      </trkpt>
      <trkpt lat="45.2655" lon="4.57719">
        <ele>847.40002441406</ele>
        <time>2026-05-12T10:58:41.000Z</time>
      </trkpt>
      <trkpt lat="45.26549" lon="4.5772">
        <ele>847.40002441406</ele>
        <time>2026-05-12T10:58:42.000Z</time>
      </trkpt>
      <trkpt lat="45.26549" lon="4.5772">
        <ele>847.20001220703</ele>
        <time>2026-05-12T10:58:43.000Z</time>
      </trkpt>
      <trkpt lat="45.26549" lon="4.5772">
        <ele>847</ele>
        <time>2026-05-12T10:58:44.000Z</time>
      </trkpt>
      <trkpt lat="45.26537" lon="4.5775">
        <ele>843.40002441406</ele>
        <time>2026-05-12T11:00:28.000Z</time>
      </trkpt>
      <trkpt lat="45.26537" lon="4.57752">
        <ele>843.20001220703</ele>
        <time>2026-05-12T11:00:29.000Z</time>
      </trkpt>
      <trkpt lat="45.26536" lon="4.57753">
        <ele>843</ele>
        <time>2026-05-12T11:00:30.000Z</time>
      </trkpt>
      <trkpt lat="45.26535" lon="4.57755">
        <ele>842.79998779297</ele>
        <time>2026-05-12T11:00:31.000Z</time>
      </trkpt>
      <trkpt lat="45.26535" lon="4.57756">
        <ele>842.59997558594</ele>
        <time>2026-05-12T11:00:32.000Z</time>
      </trkpt>
      <trkpt lat="45.26535" lon="4.57756">
        <ele>842.40002441406</ele>
        <time>2026-05-12T11:00:33.000Z</time>
      </trkpt>
      <trkpt lat="45.26535" lon="4.57756">
        <ele>842.20001220703</ele>
        <time>2026-05-12T11:00:34.000Z</time>
      </trkpt>
      <trkpt lat="45.26511" lon="4.57796">
        <ele>836.79998779297</ele>
        <time>2026-05-12T11:01:27.000Z</time>
      </trkpt>
      <trkpt lat="45.2651" lon="4.57798">
        <ele>836.59997558594</ele>
        <time>2026-05-12T11:01:28.000Z</time>
      </trkpt>
      <trkpt lat="45.26509" lon="4.578">
        <ele>836.40002441406</ele>
        <time>2026-05-12T11:01:29.000Z</time>
      </trkpt>
      <trkpt lat="45.26508" lon="4.57803">
        <ele>836.20001220703</ele>
        <time>2026-05-12T11:01:30.000Z</time>
      </trkpt>
      <trkpt lat="45.26507" lon="4.57806">
        <ele>836</ele>
        <time>2026-05-12T11:01:31.000Z</time>
      </trkpt>
      <trkpt lat="45.26505" lon="4.57809">
        <ele>836</ele>
        <time>2026-05-12T11:01:32.000Z</time>
      </trkpt>
      <trkpt lat="45.26503" lon="4.57812">
        <ele>835.79998779297</ele>
        <time>2026-05-12T11:01:33.000Z</time>
      </trkpt>
      <trkpt lat="45.26501" lon="4.57815">
        <ele>835.59997558594</ele>
        <time>2026-05-12T11:01:34.000Z</time>
      </trkpt>
      <trkpt lat="45.26499" lon="4.57819">
        <ele>835.40002441406</ele>
        <time>2026-05-12T11:01:35.000Z</time>
      </trkpt>
      <trkpt lat="45.26498" lon="4.57823">
        <ele>835</ele>
        <time>2026-05-12T11:01:36.000Z</time>
      </trkpt>
      <trkpt lat="45.26496" lon="4.57826">
        <ele>834.79998779297</ele>
        <time>2026-05-12T11:01:37.000Z</time>
      </trkpt>
      <trkpt lat="45.26495" lon="4.57828">
        <ele>834.59997558594</ele>
        <time>2026-05-12T11:01:38.000Z</time>
      </trkpt>
      <trkpt lat="45.26494" lon="4.5783">
        <ele>834.59997558594</ele>
        <time>2026-05-12T11:01:39.000Z</time>
      </trkpt>
      <trkpt lat="45.26493" lon="4.57831">
        <ele>834.40002441406</ele>
        <time>2026-05-12T11:01:40.000Z</time>
      </trkpt>
      <trkpt lat="45.26493" lon="4.57833">
        <ele>834.40002441406</ele>
        <time>2026-05-12T11:01:41.000Z</time>
      </trkpt>
      <trkpt lat="45.26493" lon="4.57834">
        <ele>834.40002441406</ele>
        <time>2026-05-12T11:01:42.000Z</time>
      </trkpt>
      <trkpt lat="45.26492" lon="4.57835">
        <ele>834.20001220703</ele>
        <time>2026-05-12T11:01:43.000Z</time>
      </trkpt>
      <trkpt lat="45.26491" lon="4.57836">
        <ele>834.20001220703</ele>
        <time>2026-05-12T11:01:44.000Z</time>
      </trkpt>
      <trkpt lat="45.2649" lon="4.57838">
        <ele>834</ele>
        <time>2026-05-12T11:01:45.000Z</time>
      </trkpt>
      <trkpt lat="45.26489" lon="4.5784">
        <ele>833.79998779297</ele>
        <time>2026-05-12T11:01:46.000Z</time>
      </trkpt>
      <trkpt lat="45.26488" lon="4.57843">
        <ele>833.59997558594</ele>
        <time>2026-05-12T11:01:47.000Z</time>
      </trkpt>
      <trkpt lat="45.26486" lon="4.57846">
        <ele>833.40002441406</ele>
        <time>2026-05-12T11:01:48.000Z</time>
      </trkpt>
      <trkpt lat="45.26485" lon="4.57849">
        <ele>833.20001220703</ele>
        <time>2026-05-12T11:01:49.000Z</time>
      </trkpt>
      <trkpt lat="45.26484" lon="4.57852">
        <ele>832.79998779297</ele>
        <time>2026-05-12T11:01:50.000Z</time>
      </trkpt>
      <trkpt lat="45.26483" lon="4.57856">
        <ele>832.59997558594</ele>
        <time>2026-05-12T11:01:51.000Z</time>
      </trkpt>
      <trkpt lat="45.26482" lon="4.5786">
        <ele>832.40002441406</ele>
        <time>2026-05-12T11:01:52.000Z</time>
      </trkpt>
      <trkpt lat="45.26481" lon="4.57864">
        <ele>832.40002441406</ele>
        <time>2026-05-12T11:01:53.000Z</time>
      </trkpt>
      <trkpt lat="45.26479" lon="4.57867">
        <ele>832.20001220703</ele>
        <time>2026-05-12T11:01:54.000Z</time>
      </trkpt>
      <trkpt lat="45.26479" lon="4.57871">
        <ele>832.20001220703</ele>
        <time>2026-05-12T11:01:55.000Z</time>
      </trkpt>
      <trkpt lat="45.26478" lon="4.57874">
        <ele>832</ele>
        <time>2026-05-12T11:01:56.000Z</time>
      </trkpt>
      <trkpt lat="45.26479" lon="4.57877">
        <ele>832</ele>
        <time>2026-05-12T11:01:57.000Z</time>
      </trkpt>
      <trkpt lat="45.26478" lon="4.5788">
        <ele>832</ele>
        <time>2026-05-12T11:01:58.000Z</time>
      </trkpt>
      <trkpt lat="45.26477" lon="4.57882">
        <ele>832</ele>
        <time>2026-05-12T11:01:59.000Z</time>
      </trkpt>
      <trkpt lat="45.26475" lon="4.57884">
        <ele>832</ele>
        <time>2026-05-12T11:02:00.000Z</time>
      </trkpt>
      <trkpt lat="45.26474" lon="4.57886">
        <ele>832</ele>
        <time>2026-05-12T11:02:01.000Z</time>
      </trkpt>
      <trkpt lat="45.26473" lon="4.57888">
        <ele>832</ele>
        <time>2026-05-12T11:02:02.000Z</time>
      </trkpt>
      <trkpt lat="45.26472" lon="4.5789">
        <ele>832</ele>
        <time>2026-05-12T11:02:03.000Z</time>
      </trkpt>
      <trkpt lat="45.2647" lon="4.57892">
        <ele>832</ele>
        <time>2026-05-12T11:02:04.000Z</time>
      </trkpt>
      <trkpt lat="45.26469" lon="4.57893">
        <ele>832</ele>
        <time>2026-05-12T11:02:05.000Z</time>
      </trkpt>
      <trkpt lat="45.26466" lon="4.57894">
        <ele>832</ele>
        <time>2026-05-12T11:02:06.000Z</time>
      </trkpt>
      <trkpt lat="45.26464" lon="4.57895">
        <ele>832</ele>
        <time>2026-05-12T11:02:07.000Z</time>
      </trkpt>
      <trkpt lat="45.26461" lon="4.57896">
        <ele>832</ele>
        <time>2026-05-12T11:02:08.000Z</time>
      </trkpt>
      <trkpt lat="45.26459" lon="4.57897">
        <ele>831.79998779297</ele>
        <time>2026-05-12T11:02:09.000Z</time>
      </trkpt>
      <trkpt lat="45.26457" lon="4.57898">
        <ele>831.59997558594</ele>
        <time>2026-05-12T11:02:10.000Z</time>
      </trkpt>
      <trkpt lat="45.26454" lon="4.579">
        <ele>831.40002441406</ele>
        <time>2026-05-12T11:02:11.000Z</time>
      </trkpt>
      <trkpt lat="45.26451" lon="4.57901">
        <ele>831.20001220703</ele>
        <time>2026-05-12T11:02:12.000Z</time>
      </trkpt>
      <trkpt lat="45.26447" lon="4.57902">
        <ele>831</ele>
        <time>2026-05-12T11:02:13.000Z</time>
      </trkpt>
      <trkpt lat="45.26444" lon="4.57902">
        <ele>830.79998779297</ele>
        <time>2026-05-12T11:02:14.000Z</time>
      </trkpt>
      <trkpt lat="45.26441" lon="4.57902">
        <ele>830.59997558594</ele>
        <time>2026-05-12T11:02:15.000Z</time>
      </trkpt>
      <trkpt lat="45.2644" lon="4.57902">
        <ele>830.59997558594</ele>
        <time>2026-05-12T11:02:16.000Z</time>
      </trkpt>
      <trkpt lat="45.2644" lon="4.57902">
        <ele>830.40002441406</ele>
        <time>2026-05-12T11:02:17.000Z</time>
      </trkpt>
      <trkpt lat="45.2644" lon="4.57902">
        <ele>830.40002441406</ele>
        <time>2026-05-12T11:02:18.000Z</time>
      </trkpt>
      <trkpt lat="45.26434" lon="4.57902">
        <ele>829.40002441406</ele>
        <time>2026-05-12T11:02:23.000Z</time>
      </trkpt>
      <trkpt lat="45.26432" lon="4.57901">
        <ele>829</ele>
        <time>2026-05-12T11:02:24.000Z</time>
      </trkpt>
      <trkpt lat="45.2643" lon="4.57901">
        <ele>828.79998779297</ele>
        <time>2026-05-12T11:02:25.000Z</time>
      </trkpt>
      <trkpt lat="45.26427" lon="4.579">
        <ele>828.40002441406</ele>
        <time>2026-05-12T11:02:26.000Z</time>
      </trkpt>
      <trkpt lat="45.26425" lon="4.579">
        <ele>828</ele>
        <time>2026-05-12T11:02:27.000Z</time>
      </trkpt>
      <trkpt lat="45.26423" lon="4.57899">
        <ele>827.59997558594</ele>
        <time>2026-05-12T11:02:28.000Z</time>
      </trkpt>
      <trkpt lat="45.2642" lon="4.57899">
        <ele>827.20001220703</ele>
        <time>2026-05-12T11:02:29.000Z</time>
      </trkpt>
      <trkpt lat="45.26418" lon="4.57899">
        <ele>826.79998779297</ele>
        <time>2026-05-12T11:02:30.000Z</time>
      </trkpt>
      <trkpt lat="45.26416" lon="4.57899">
        <ele>826.40002441406</ele>
        <time>2026-05-12T11:02:31.000Z</time>
      </trkpt>
      <trkpt lat="45.26413" lon="4.579">
        <ele>826</ele>
        <time>2026-05-12T11:02:32.000Z</time>
      </trkpt>
      <trkpt lat="45.2641" lon="4.579">
        <ele>825.59997558594</ele>
        <time>2026-05-12T11:02:33.000Z</time>
      </trkpt>
      <trkpt lat="45.26407" lon="4.57901">
        <ele>825.20001220703</ele>
        <time>2026-05-12T11:02:34.000Z</time>
      </trkpt>
      <trkpt lat="45.26404" lon="4.57902">
        <ele>824.79998779297</ele>
        <time>2026-05-12T11:02:35.000Z</time>
      </trkpt>
      <trkpt lat="45.26402" lon="4.57903">
        <ele>824.59997558594</ele>
        <time>2026-05-12T11:02:36.000Z</time>
      </trkpt>
      <trkpt lat="45.26399" lon="4.57904">
        <ele>824.20001220703</ele>
        <time>2026-05-12T11:02:37.000Z</time>
      </trkpt>
      <trkpt lat="45.26397" lon="4.57905">
        <ele>823.79998779297</ele>
        <time>2026-05-12T11:02:38.000Z</time>
      </trkpt>
      <trkpt lat="45.26395" lon="4.57905">
        <ele>823.59997558594</ele>
        <time>2026-05-12T11:02:39.000Z</time>
      </trkpt>
      <trkpt lat="45.26394" lon="4.57905">
        <ele>823.20001220703</ele>
        <time>2026-05-12T11:02:40.000Z</time>
      </trkpt>
      <trkpt lat="45.26394" lon="4.57905">
        <ele>823.20001220703</ele>
        <time>2026-05-12T11:02:41.000Z</time>
      </trkpt>
      <trkpt lat="45.26394" lon="4.57905">
        <ele>823</ele>
        <time>2026-05-12T11:02:42.000Z</time>
      </trkpt>
      <trkpt lat="45.26356" lon="4.57917">
        <ele>813.40002441406</ele>
        <time>2026-05-12T11:03:43.000Z</time>
      </trkpt>
      <trkpt lat="45.26355" lon="4.57917">
        <ele>813.40002441406</ele>
        <time>2026-05-12T11:03:44.000Z</time>
      </trkpt>
      <trkpt lat="45.26355" lon="4.57917">
        <ele>813.20001220703</ele>
        <time>2026-05-12T11:03:45.000Z</time>
      </trkpt>
      <trkpt lat="45.26316" lon="4.57925">
        <ele>806.20001220703</ele>
        <time>2026-05-12T11:04:33.000Z</time>
      </trkpt>
      <trkpt lat="45.26314" lon="4.57925">
        <ele>806.20001220703</ele>
        <time>2026-05-12T11:04:34.000Z</time>
      </trkpt>
      <trkpt lat="45.26313" lon="4.57926">
        <ele>806</ele>
        <time>2026-05-12T11:04:35.000Z</time>
      </trkpt>
      <trkpt lat="45.26311" lon="4.57926">
        <ele>805.79998779297</ele>
        <time>2026-05-12T11:04:36.000Z</time>
      </trkpt>
      <trkpt lat="45.2631" lon="4.57927">
        <ele>805.59997558594</ele>
        <time>2026-05-12T11:04:37.000Z</time>
      </trkpt>
      <trkpt lat="45.26308" lon="4.57928">
        <ele>805.20001220703</ele>
        <time>2026-05-12T11:04:38.000Z</time>
      </trkpt>
      <trkpt lat="45.26306" lon="4.57928">
        <ele>805</ele>
        <time>2026-05-12T11:04:39.000Z</time>
      </trkpt>
      <trkpt lat="45.26304" lon="4.57928">
        <ele>804.59997558594</ele>
        <time>2026-05-12T11:04:40.000Z</time>
      </trkpt>
      <trkpt lat="45.26303" lon="4.57928">
        <ele>804.40002441406</ele>
        <time>2026-05-12T11:04:41.000Z</time>
      </trkpt>
      <trkpt lat="45.26301" lon="4.57928">
        <ele>804</ele>
        <time>2026-05-12T11:04:42.000Z</time>
      </trkpt>
      <trkpt lat="45.26299" lon="4.57929">
        <ele>803.59997558594</ele>
        <time>2026-05-12T11:04:43.000Z</time>
      </trkpt>
      <trkpt lat="45.26298" lon="4.57929">
        <ele>803.40002441406</ele>
        <time>2026-05-12T11:04:44.000Z</time>
      </trkpt>
      <trkpt lat="45.26296" lon="4.57928">
        <ele>803.20001220703</ele>
        <time>2026-05-12T11:04:45.000Z</time>
      </trkpt>
      <trkpt lat="45.26294" lon="4.57929">
        <ele>802.79998779297</ele>
        <time>2026-05-12T11:04:46.000Z</time>
      </trkpt>
      <trkpt lat="45.26292" lon="4.57929">
        <ele>802.59997558594</ele>
        <time>2026-05-12T11:04:47.000Z</time>
      </trkpt>
      <trkpt lat="45.26291" lon="4.5793">
        <ele>802.20001220703</ele>
        <time>2026-05-12T11:04:48.000Z</time>
      </trkpt>
      <trkpt lat="45.2629" lon="4.5793">
        <ele>802</ele>
        <time>2026-05-12T11:04:49.000Z</time>
      </trkpt>
      <trkpt lat="45.26289" lon="4.5793">
        <ele>801.79998779297</ele>
        <time>2026-05-12T11:04:50.000Z</time>
      </trkpt>
      <trkpt lat="45.26289" lon="4.5793">
        <ele>801.59997558594</ele>
        <time>2026-05-12T11:04:51.000Z</time>
      </trkpt>
      <trkpt lat="45.26194" lon="4.57952">
        <ele>782.20001220703</ele>
        <time>2026-05-12T11:07:07.000Z</time>
      </trkpt>
      <trkpt lat="45.26191" lon="4.57953">
        <ele>781.79998779297</ele>
        <time>2026-05-12T11:07:08.000Z</time>
      </trkpt>
      <trkpt lat="45.26188" lon="4.57954">
        <ele>781.40002441406</ele>
        <time>2026-05-12T11:07:09.000Z</time>
      </trkpt>
      <trkpt lat="45.26185" lon="4.57955">
        <ele>780.79998779297</ele>
        <time>2026-05-12T11:07:10.000Z</time>
      </trkpt>
      <trkpt lat="45.26181" lon="4.57957">
        <ele>780.20001220703</ele>
        <time>2026-05-12T11:07:11.000Z</time>
      </trkpt>
      <trkpt lat="45.26178" lon="4.57958">
        <ele>779.79998779297</ele>
        <time>2026-05-12T11:07:12.000Z</time>
      </trkpt>
      <trkpt lat="45.26174" lon="4.57958">
        <ele>779.20001220703</ele>
        <time>2026-05-12T11:07:13.000Z</time>
      </trkpt>
      <trkpt lat="45.26171" lon="4.57958">
        <ele>779</ele>
        <time>2026-05-12T11:07:14.000Z</time>
      </trkpt>
      <trkpt lat="45.26167" lon="4.57958">
        <ele>778.59997558594</ele>
        <time>2026-05-12T11:07:15.000Z</time>
      </trkpt>
      <trkpt lat="45.26164" lon="4.57958">
        <ele>778.20001220703</ele>
        <time>2026-05-12T11:07:16.000Z</time>
      </trkpt>
      <trkpt lat="45.26162" lon="4.5796">
        <ele>777.79998779297</ele>
        <time>2026-05-12T11:07:17.000Z</time>
      </trkpt>
      <trkpt lat="45.2616" lon="4.57963">
        <ele>777.20001220703</ele>
        <time>2026-05-12T11:07:18.000Z</time>
      </trkpt>
      <trkpt lat="45.2616" lon="4.57966">
        <ele>776.79998779297</ele>
        <time>2026-05-12T11:07:19.000Z</time>
      </trkpt>
      <trkpt lat="45.2616" lon="4.57969">
        <ele>776.40002441406</ele>
        <time>2026-05-12T11:07:20.000Z</time>
      </trkpt>
      <trkpt lat="45.26161" lon="4.57972">
        <ele>776</ele>
        <time>2026-05-12T11:07:21.000Z</time>
      </trkpt>
      <trkpt lat="45.26162" lon="4.57975">
        <ele>775.79998779297</ele>
        <time>2026-05-12T11:07:22.000Z</time>
      </trkpt>
      <trkpt lat="45.26163" lon="4.57978">
        <ele>775.59997558594</ele>
        <time>2026-05-12T11:07:23.000Z</time>
      </trkpt>
      <trkpt lat="45.26164" lon="4.57979">
        <ele>775.40002441406</ele>
        <time>2026-05-12T11:07:24.000Z</time>
      </trkpt>
      <trkpt lat="45.26164" lon="4.5798">
        <ele>775.59997558594</ele>
        <time>2026-05-12T11:07:25.000Z</time>
      </trkpt>
      <trkpt lat="45.26164" lon="4.5798">
        <ele>775.59997558594</ele>
        <time>2026-05-12T11:07:26.000Z</time>
      </trkpt>
      <trkpt lat="45.26164" lon="4.5798">
        <ele>775.79998779297</ele>
        <time>2026-05-12T11:07:27.000Z</time>
      </trkpt>
      <trkpt lat="45.26167" lon="4.57989">
        <ele>776.59997558594</ele>
        <time>2026-05-12T11:10:35.000Z</time>
      </trkpt>
      <trkpt lat="45.26168" lon="4.57993">
        <ele>776.20001220703</ele>
        <time>2026-05-12T11:10:36.000Z</time>
      </trkpt>
      <trkpt lat="45.26169" lon="4.57996">
        <ele>776</ele>
        <time>2026-05-12T11:10:37.000Z</time>
      </trkpt>
      <trkpt lat="45.26171" lon="4.57999">
        <ele>775.79998779297</ele>
        <time>2026-05-12T11:10:38.000Z</time>
      </trkpt>
      <trkpt lat="45.26171" lon="4.58002">
        <ele>775.59997558594</ele>
        <time>2026-05-12T11:10:39.000Z</time>
      </trkpt>
      <trkpt lat="45.26172" lon="4.58006">
        <ele>775.59997558594</ele>
        <time>2026-05-12T11:10:40.000Z</time>
      </trkpt>
      <trkpt lat="45.26173" lon="4.58009">
        <ele>775.59997558594</ele>
        <time>2026-05-12T11:10:41.000Z</time>
      </trkpt>
      <trkpt lat="45.26174" lon="4.58012">
        <ele>775.59997558594</ele>
        <time>2026-05-12T11:10:42.000Z</time>
      </trkpt>
      <trkpt lat="45.26175" lon="4.58015">
        <ele>775.59997558594</ele>
        <time>2026-05-12T11:10:43.000Z</time>
      </trkpt>
      <trkpt lat="45.26176" lon="4.58018">
        <ele>775.40002441406</ele>
        <time>2026-05-12T11:10:44.000Z</time>
      </trkpt>
      <trkpt lat="45.26177" lon="4.58021">
        <ele>775.40002441406</ele>
        <time>2026-05-12T11:10:45.000Z</time>
      </trkpt>
      <trkpt lat="45.26178" lon="4.58025">
        <ele>775.20001220703</ele>
        <time>2026-05-12T11:10:46.000Z</time>
      </trkpt>
      <trkpt lat="45.26179" lon="4.58029">
        <ele>775.40002441406</ele>
        <time>2026-05-12T11:10:47.000Z</time>
      </trkpt>
      <trkpt lat="45.26179" lon="4.58032">
        <ele>775.40002441406</ele>
        <time>2026-05-12T11:10:48.000Z</time>
      </trkpt>
      <trkpt lat="45.2618" lon="4.58036">
        <ele>775.59997558594</ele>
        <time>2026-05-12T11:10:49.000Z</time>
      </trkpt>
      <trkpt lat="45.26181" lon="4.58039">
        <ele>775.79998779297</ele>
        <time>2026-05-12T11:10:50.000Z</time>
      </trkpt>
      <trkpt lat="45.26182" lon="4.58042">
        <ele>776</ele>
        <time>2026-05-12T11:10:51.000Z</time>
      </trkpt>
      <trkpt lat="45.26183" lon="4.58046">
        <ele>776.20001220703</ele>
        <time>2026-05-12T11:10:52.000Z</time>
      </trkpt>
      <trkpt lat="45.26183" lon="4.58049">
        <ele>776.40002441406</ele>
        <time>2026-05-12T11:10:53.000Z</time>
      </trkpt>
      <trkpt lat="45.26184" lon="4.58052">
        <ele>776.59997558594</ele>
        <time>2026-05-12T11:10:54.000Z</time>
      </trkpt>
      <trkpt lat="45.26185" lon="4.58054">
        <ele>777</ele>
        <time>2026-05-12T11:10:55.000Z</time>
      </trkpt>
      <trkpt lat="45.26186" lon="4.58057">
        <ele>777.20001220703</ele>
        <time>2026-05-12T11:10:56.000Z</time>
      </trkpt>
      <trkpt lat="45.26188" lon="4.58059">
        <ele>777.40002441406</ele>
        <time>2026-05-12T11:10:57.000Z</time>
      </trkpt>
      <trkpt lat="45.2619" lon="4.58062">
        <ele>777.59997558594</ele>
        <time>2026-05-12T11:10:58.000Z</time>
      </trkpt>
      <trkpt lat="45.26191" lon="4.58064">
        <ele>777.79998779297</ele>
        <time>2026-05-12T11:10:59.000Z</time>
      </trkpt>
      <trkpt lat="45.26193" lon="4.58066">
        <ele>777.79998779297</ele>
        <time>2026-05-12T11:11:00.000Z</time>
      </trkpt>
      <trkpt lat="45.26194" lon="4.5807">
        <ele>777.59997558594</ele>
        <time>2026-05-12T11:11:01.000Z</time>
      </trkpt>
      <trkpt lat="45.26196" lon="4.58073">
        <ele>777.40002441406</ele>
        <time>2026-05-12T11:11:02.000Z</time>
      </trkpt>
      <trkpt lat="45.26198" lon="4.58077">
        <ele>777.20001220703</ele>
        <time>2026-05-12T11:11:03.000Z</time>
      </trkpt>
      <trkpt lat="45.262" lon="4.58081">
        <ele>776.79998779297</ele>
        <time>2026-05-12T11:11:04.000Z</time>
      </trkpt>
      <trkpt lat="45.26201" lon="4.58085">
        <ele>776.40002441406</ele>
        <time>2026-05-12T11:11:05.000Z</time>
      </trkpt>
      <trkpt lat="45.262" lon="4.5809">
        <ele>776</ele>
        <time>2026-05-12T11:11:06.000Z</time>
      </trkpt>
      <trkpt lat="45.26199" lon="4.58094">
        <ele>775.59997558594</ele>
        <time>2026-05-12T11:11:07.000Z</time>
      </trkpt>
      <trkpt lat="45.26196" lon="4.58099">
        <ele>775.20001220703</ele>
        <time>2026-05-12T11:11:08.000Z</time>
      </trkpt>
      <trkpt lat="45.26193" lon="4.58104">
        <ele>774.59997558594</ele>
        <time>2026-05-12T11:11:09.000Z</time>
      </trkpt>
      <trkpt lat="45.26189" lon="4.58109">
        <ele>774.20001220703</ele>
        <time>2026-05-12T11:11:10.000Z</time>
      </trkpt>
      <trkpt lat="45.26185" lon="4.58116">
        <ele>773.59997558594</ele>
        <time>2026-05-12T11:11:11.000Z</time>
      </trkpt>
      <trkpt lat="45.26183" lon="4.58123">
        <ele>773</ele>
        <time>2026-05-12T11:11:12.000Z</time>
      </trkpt>
      <trkpt lat="45.2618" lon="4.58131">
        <ele>772.59997558594</ele>
        <time>2026-05-12T11:11:13.000Z</time>
      </trkpt>
      <trkpt lat="45.26178" lon="4.58138">
        <ele>772.20001220703</ele>
        <time>2026-05-12T11:11:14.000Z</time>
      </trkpt>
      <trkpt lat="45.26176" lon="4.58146">
        <ele>771.79998779297</ele>
        <time>2026-05-12T11:11:15.000Z</time>
      </trkpt>
      <trkpt lat="45.26174" lon="4.58152">
        <ele>771.79998779297</ele>
        <time>2026-05-12T11:11:16.000Z</time>
      </trkpt>
      <trkpt lat="45.26173" lon="4.58158">
        <ele>771.79998779297</ele>
        <time>2026-05-12T11:11:17.000Z</time>
      </trkpt>
      <trkpt lat="45.26173" lon="4.58164">
        <ele>772</ele>
        <time>2026-05-12T11:11:18.000Z</time>
      </trkpt>
      <trkpt lat="45.26172" lon="4.58169">
        <ele>772</ele>
        <time>2026-05-12T11:11:19.000Z</time>
      </trkpt>
      <trkpt lat="45.26173" lon="4.58174">
        <ele>772.20001220703</ele>
        <time>2026-05-12T11:11:20.000Z</time>
      </trkpt>
      <trkpt lat="45.26173" lon="4.58178">
        <ele>772.40002441406</ele>
        <time>2026-05-12T11:11:21.000Z</time>
      </trkpt>
      <trkpt lat="45.26173" lon="4.58183">
        <ele>772.59997558594</ele>
        <time>2026-05-12T11:11:22.000Z</time>
      </trkpt>
      <trkpt lat="45.26174" lon="4.58187">
        <ele>772.79998779297</ele>
        <time>2026-05-12T11:11:23.000Z</time>
      </trkpt>
      <trkpt lat="45.26174" lon="4.58192">
        <ele>772.79998779297</ele>
        <time>2026-05-12T11:11:24.000Z</time>
      </trkpt>
      <trkpt lat="45.26175" lon="4.58196">
        <ele>772.79998779297</ele>
        <time>2026-05-12T11:11:25.000Z</time>
      </trkpt>
      <trkpt lat="45.26175" lon="4.58201">
        <ele>772.79998779297</ele>
        <time>2026-05-12T11:11:26.000Z</time>
      </trkpt>
      <trkpt lat="45.26177" lon="4.58205">
        <ele>772.79998779297</ele>
        <time>2026-05-12T11:11:27.000Z</time>
      </trkpt>
      <trkpt lat="45.26178" lon="4.5821">
        <ele>772.79998779297</ele>
        <time>2026-05-12T11:11:28.000Z</time>
      </trkpt>
      <trkpt lat="45.2618" lon="4.58215">
        <ele>772.59997558594</ele>
        <time>2026-05-12T11:11:29.000Z</time>
      </trkpt>
      <trkpt lat="45.26182" lon="4.58219">
        <ele>772.59997558594</ele>
        <time>2026-05-12T11:11:30.000Z</time>
      </trkpt>
      <trkpt lat="45.26183" lon="4.58223">
        <ele>772.40002441406</ele>
        <time>2026-05-12T11:11:31.000Z</time>
      </trkpt>
      <trkpt lat="45.26185" lon="4.58226">
        <ele>772.40002441406</ele>
        <time>2026-05-12T11:11:32.000Z</time>
      </trkpt>
      <trkpt lat="45.26186" lon="4.58229">
        <ele>772.20001220703</ele>
        <time>2026-05-12T11:11:33.000Z</time>
      </trkpt>
      <trkpt lat="45.26187" lon="4.58232">
        <ele>772.20001220703</ele>
        <time>2026-05-12T11:11:34.000Z</time>
      </trkpt>
      <trkpt lat="45.26188" lon="4.58234">
        <ele>772.20001220703</ele>
        <time>2026-05-12T11:11:35.000Z</time>
      </trkpt>
      <trkpt lat="45.26189" lon="4.58237">
        <ele>772.20001220703</ele>
        <time>2026-05-12T11:11:36.000Z</time>
      </trkpt>
      <trkpt lat="45.2619" lon="4.58239">
        <ele>772.20001220703</ele>
        <time>2026-05-12T11:11:37.000Z</time>
      </trkpt>
      <trkpt lat="45.26192" lon="4.58241">
        <ele>772.20001220703</ele>
        <time>2026-05-12T11:11:38.000Z</time>
      </trkpt>
      <trkpt lat="45.26194" lon="4.58244">
        <ele>772.20001220703</ele>
        <time>2026-05-12T11:11:39.000Z</time>
      </trkpt>
      <trkpt lat="45.26196" lon="4.58247">
        <ele>772.20001220703</ele>
        <time>2026-05-12T11:11:40.000Z</time>
      </trkpt>
      <trkpt lat="45.26198" lon="4.58251">
        <ele>772.40002441406</ele>
        <time>2026-05-12T11:11:41.000Z</time>
      </trkpt>
      <trkpt lat="45.262" lon="4.58255">
        <ele>772.59997558594</ele>
        <time>2026-05-12T11:11:42.000Z</time>
      </trkpt>
      <trkpt lat="45.26202" lon="4.58259">
        <ele>772.59997558594</ele>
        <time>2026-05-12T11:11:43.000Z</time>
      </trkpt>
      <trkpt lat="45.26204" lon="4.58264">
        <ele>772.79998779297</ele>
        <time>2026-05-12T11:11:44.000Z</time>
      </trkpt>
      <trkpt lat="45.26204" lon="4.58268">
        <ele>772.79998779297</ele>
        <time>2026-05-12T11:11:45.000Z</time>
      </trkpt>
      <trkpt lat="45.26205" lon="4.58272">
        <ele>773</ele>
        <time>2026-05-12T11:11:46.000Z</time>
      </trkpt>
      <trkpt lat="45.26205" lon="4.58274">
        <ele>773</ele>
        <time>2026-05-12T11:11:47.000Z</time>
      </trkpt>
      <trkpt lat="45.26205" lon="4.58275">
        <ele>773.20001220703</ele>
        <time>2026-05-12T11:11:48.000Z</time>
      </trkpt>
      <trkpt lat="45.26205" lon="4.58279">
        <ele>773.59997558594</ele>
        <time>2026-05-12T11:11:49.000Z</time>
      </trkpt>
      <trkpt lat="45.26205" lon="4.58282">
        <ele>773.79998779297</ele>
        <time>2026-05-12T11:11:50.000Z</time>
      </trkpt>
      <trkpt lat="45.26206" lon="4.58286">
        <ele>774.20001220703</ele>
        <time>2026-05-12T11:11:51.000Z</time>
      </trkpt>
      <trkpt lat="45.26207" lon="4.58291">
        <ele>774.40002441406</ele>
        <time>2026-05-12T11:11:52.000Z</time>
      </trkpt>
      <trkpt lat="45.26208" lon="4.58296">
        <ele>774.79998779297</ele>
        <time>2026-05-12T11:11:53.000Z</time>
      </trkpt>
      <trkpt lat="45.26208" lon="4.58299">
        <ele>775</ele>
        <time>2026-05-12T11:11:54.000Z</time>
      </trkpt>
      <trkpt lat="45.26209" lon="4.58303">
        <ele>775.20001220703</ele>
        <time>2026-05-12T11:11:55.000Z</time>
      </trkpt>
      <trkpt lat="45.26211" lon="4.58306">
        <ele>775.59997558594</ele>
        <time>2026-05-12T11:11:56.000Z</time>
      </trkpt>
      <trkpt lat="45.26214" lon="4.5831">
        <ele>775.79998779297</ele>
        <time>2026-05-12T11:11:57.000Z</time>
      </trkpt>
      <trkpt lat="45.26215" lon="4.58314">
        <ele>776</ele>
        <time>2026-05-12T11:11:58.000Z</time>
      </trkpt>
      <trkpt lat="45.26216" lon="4.58318">
        <ele>776.40002441406</ele>
        <time>2026-05-12T11:11:59.000Z</time>
      </trkpt>
      <trkpt lat="45.26219" lon="4.58321">
        <ele>776.59997558594</ele>
        <time>2026-05-12T11:12:00.000Z</time>
      </trkpt>
      <trkpt lat="45.26221" lon="4.58325">
        <ele>776.79998779297</ele>
        <time>2026-05-12T11:12:01.000Z</time>
      </trkpt>
      <trkpt lat="45.26223" lon="4.5833">
        <ele>777</ele>
        <time>2026-05-12T11:12:02.000Z</time>
      </trkpt>
      <trkpt lat="45.26224" lon="4.58333">
        <ele>777.40002441406</ele>
        <time>2026-05-12T11:12:03.000Z</time>
      </trkpt>
      <trkpt lat="45.26225" lon="4.58337">
        <ele>777.59997558594</ele>
        <time>2026-05-12T11:12:04.000Z</time>
      </trkpt>
      <trkpt lat="45.26226" lon="4.58341">
        <ele>777.79998779297</ele>
        <time>2026-05-12T11:12:05.000Z</time>
      </trkpt>
      <trkpt lat="45.26227" lon="4.58344">
        <ele>778.20001220703</ele>
        <time>2026-05-12T11:12:06.000Z</time>
      </trkpt>
      <trkpt lat="45.26229" lon="4.58346">
        <ele>778.40002441406</ele>
        <time>2026-05-12T11:12:07.000Z</time>
      </trkpt>
      <trkpt lat="45.26231" lon="4.58349">
        <ele>778.79998779297</ele>
        <time>2026-05-12T11:12:08.000Z</time>
      </trkpt>
      <trkpt lat="45.26232" lon="4.58352">
        <ele>779.20001220703</ele>
        <time>2026-05-12T11:12:09.000Z</time>
      </trkpt>
      <trkpt lat="45.26234" lon="4.58354">
        <ele>779.40002441406</ele>
        <time>2026-05-12T11:12:10.000Z</time>
      </trkpt>
      <trkpt lat="45.26236" lon="4.58357">
        <ele>779.59997558594</ele>
        <time>2026-05-12T11:12:11.000Z</time>
      </trkpt>
      <trkpt lat="45.26238" lon="4.58359">
        <ele>779.79998779297</ele>
        <time>2026-05-12T11:12:12.000Z</time>
      </trkpt>
      <trkpt lat="45.2624" lon="4.58361">
        <ele>780</ele>
        <time>2026-05-12T11:12:13.000Z</time>
      </trkpt>
      <trkpt lat="45.26242" lon="4.58363">
        <ele>780.20001220703</ele>
        <time>2026-05-12T11:12:14.000Z</time>
      </trkpt>
      <trkpt lat="45.26244" lon="4.58365">
        <ele>780.20001220703</ele>
        <time>2026-05-12T11:12:15.000Z</time>
      </trkpt>
      <trkpt lat="45.26246" lon="4.58368">
        <ele>780.40002441406</ele>
        <time>2026-05-12T11:12:16.000Z</time>
      </trkpt>
      <trkpt lat="45.26248" lon="4.5837">
        <ele>780.59997558594</ele>
        <time>2026-05-12T11:12:17.000Z</time>
      </trkpt>
      <trkpt lat="45.2625" lon="4.58372">
        <ele>780.79998779297</ele>
        <time>2026-05-12T11:12:18.000Z</time>
      </trkpt>
      <trkpt lat="45.26252" lon="4.58374">
        <ele>781</ele>
        <time>2026-05-12T11:12:19.000Z</time>
      </trkpt>
      <trkpt lat="45.26254" lon="4.58376">
        <ele>781.20001220703</ele>
        <time>2026-05-12T11:12:20.000Z</time>
      </trkpt>
      <trkpt lat="45.26257" lon="4.58378">
        <ele>781.40002441406</ele>
        <time>2026-05-12T11:12:21.000Z</time>
      </trkpt>
      <trkpt lat="45.26259" lon="4.5838">
        <ele>781.59997558594</ele>
        <time>2026-05-12T11:12:22.000Z</time>
      </trkpt>
      <trkpt lat="45.26261" lon="4.58382">
        <ele>781.79998779297</ele>
        <time>2026-05-12T11:12:23.000Z</time>
      </trkpt>
      <trkpt lat="45.26263" lon="4.58384">
        <ele>782</ele>
        <time>2026-05-12T11:12:24.000Z</time>
      </trkpt>
      <trkpt lat="45.26265" lon="4.58385">
        <ele>782.20001220703</ele>
        <time>2026-05-12T11:12:25.000Z</time>
      </trkpt>
      <trkpt lat="45.26267" lon="4.58387">
        <ele>782.40002441406</ele>
        <time>2026-05-12T11:12:26.000Z</time>
      </trkpt>
      <trkpt lat="45.26268" lon="4.58389">
        <ele>782.59997558594</ele>
        <time>2026-05-12T11:12:27.000Z</time>
      </trkpt>
      <trkpt lat="45.26269" lon="4.58392">
        <ele>782.59997558594</ele>
        <time>2026-05-12T11:12:28.000Z</time>
      </trkpt>
      <trkpt lat="45.2627" lon="4.58394">
        <ele>782.79998779297</ele>
        <time>2026-05-12T11:12:29.000Z</time>
      </trkpt>
      <trkpt lat="45.26272" lon="4.58395">
        <ele>783</ele>
        <time>2026-05-12T11:12:30.000Z</time>
      </trkpt>
      <trkpt lat="45.26274" lon="4.58397">
        <ele>783.20001220703</ele>
        <time>2026-05-12T11:12:31.000Z</time>
      </trkpt>
      <trkpt lat="45.26276" lon="4.58399">
        <ele>783.20001220703</ele>
        <time>2026-05-12T11:12:32.000Z</time>
      </trkpt>
      <trkpt lat="45.26278" lon="4.58401">
        <ele>783.40002441406</ele>
        <time>2026-05-12T11:12:33.000Z</time>
      </trkpt>
      <trkpt lat="45.26279" lon="4.58404">
        <ele>783.40002441406</ele>
        <time>2026-05-12T11:12:34.000Z</time>
      </trkpt>
      <trkpt lat="45.26281" lon="4.58405">
        <ele>783.59997558594</ele>
        <time>2026-05-12T11:12:35.000Z</time>
      </trkpt>
      <trkpt lat="45.26283" lon="4.58407">
        <ele>783.59997558594</ele>
        <time>2026-05-12T11:12:36.000Z</time>
      </trkpt>
      <trkpt lat="45.26285" lon="4.58409">
        <ele>783.79998779297</ele>
        <time>2026-05-12T11:12:37.000Z</time>
      </trkpt>
      <trkpt lat="45.26286" lon="4.58411">
        <ele>784</ele>
        <time>2026-05-12T11:12:38.000Z</time>
      </trkpt>
      <trkpt lat="45.26288" lon="4.58413">
        <ele>784.20001220703</ele>
        <time>2026-05-12T11:12:39.000Z</time>
      </trkpt>
      <trkpt lat="45.26289" lon="4.58415">
        <ele>784.20001220703</ele>
        <time>2026-05-12T11:12:40.000Z</time>
      </trkpt>
      <trkpt lat="45.2629" lon="4.58416">
        <ele>784.40002441406</ele>
        <time>2026-05-12T11:12:41.000Z</time>
      </trkpt>
      <trkpt lat="45.26293" lon="4.58418">
        <ele>784.59997558594</ele>
        <time>2026-05-12T11:12:42.000Z</time>
      </trkpt>
      <trkpt lat="45.26295" lon="4.58419">
        <ele>784.59997558594</ele>
        <time>2026-05-12T11:12:43.000Z</time>
      </trkpt>
      <trkpt lat="45.26298" lon="4.58421">
        <ele>784.79998779297</ele>
        <time>2026-05-12T11:12:44.000Z</time>
      </trkpt>
      <trkpt lat="45.263" lon="4.58423">
        <ele>785</ele>
        <time>2026-05-12T11:12:45.000Z</time>
      </trkpt>
      <trkpt lat="45.26303" lon="4.58425">
        <ele>785</ele>
        <time>2026-05-12T11:12:46.000Z</time>
      </trkpt>
      <trkpt lat="45.26304" lon="4.58426">
        <ele>785.20001220703</ele>
        <time>2026-05-12T11:12:47.000Z</time>
      </trkpt>
      <trkpt lat="45.26306" lon="4.58427">
        <ele>785.40002441406</ele>
        <time>2026-05-12T11:12:48.000Z</time>
      </trkpt>
      <trkpt lat="45.26309" lon="4.58429">
        <ele>785.59997558594</ele>
        <time>2026-05-12T11:12:49.000Z</time>
      </trkpt>
      <trkpt lat="45.26311" lon="4.5843">
        <ele>785.79998779297</ele>
        <time>2026-05-12T11:12:50.000Z</time>
      </trkpt>
      <trkpt lat="45.26313" lon="4.58432">
        <ele>786</ele>
        <time>2026-05-12T11:12:51.000Z</time>
      </trkpt>
      <trkpt lat="45.26316" lon="4.58433">
        <ele>786.20001220703</ele>
        <time>2026-05-12T11:12:52.000Z</time>
      </trkpt>
      <trkpt lat="45.2632" lon="4.58434">
        <ele>786.40002441406</ele>
        <time>2026-05-12T11:12:53.000Z</time>
      </trkpt>
      <trkpt lat="45.26323" lon="4.58435">
        <ele>786.59997558594</ele>
        <time>2026-05-12T11:12:54.000Z</time>
      </trkpt>
      <trkpt lat="45.26327" lon="4.58436">
        <ele>786.79998779297</ele>
        <time>2026-05-12T11:12:55.000Z</time>
      </trkpt>
      <trkpt lat="45.26329" lon="4.58439">
        <ele>787</ele>
        <time>2026-05-12T11:12:56.000Z</time>
      </trkpt>
      <trkpt lat="45.26331" lon="4.58441">
        <ele>787.20001220703</ele>
        <time>2026-05-12T11:12:57.000Z</time>
      </trkpt>
      <trkpt lat="45.26335" lon="4.58443">
        <ele>787.40002441406</ele>
        <time>2026-05-12T11:12:58.000Z</time>
      </trkpt>
      <trkpt lat="45.26338" lon="4.58446">
        <ele>787.59997558594</ele>
        <time>2026-05-12T11:12:59.000Z</time>
      </trkpt>
      <trkpt lat="45.26341" lon="4.58448">
        <ele>787.79998779297</ele>
        <time>2026-05-12T11:13:00.000Z</time>
      </trkpt>
      <trkpt lat="45.26342" lon="4.5845">
        <ele>788.20001220703</ele>
        <time>2026-05-12T11:13:01.000Z</time>
      </trkpt>
      <trkpt lat="45.26343" lon="4.58452">
        <ele>788.40002441406</ele>
        <time>2026-05-12T11:13:02.000Z</time>
      </trkpt>
      <trkpt lat="45.26344" lon="4.58455">
        <ele>788.59997558594</ele>
        <time>2026-05-12T11:13:03.000Z</time>
      </trkpt>
      <trkpt lat="45.26346" lon="4.58457">
        <ele>789</ele>
        <time>2026-05-12T11:13:04.000Z</time>
      </trkpt>
      <trkpt lat="45.26348" lon="4.58459">
        <ele>789.20001220703</ele>
        <time>2026-05-12T11:13:05.000Z</time>
      </trkpt>
      <trkpt lat="45.26348" lon="4.58461">
        <ele>789.40002441406</ele>
        <time>2026-05-12T11:13:06.000Z</time>
      </trkpt>
      <trkpt lat="45.2635" lon="4.58463">
        <ele>789.59997558594</ele>
        <time>2026-05-12T11:13:07.000Z</time>
      </trkpt>
      <trkpt lat="45.26353" lon="4.58464">
        <ele>789.79998779297</ele>
        <time>2026-05-12T11:13:08.000Z</time>
      </trkpt>
      <trkpt lat="45.26355" lon="4.58465">
        <ele>790</ele>
        <time>2026-05-12T11:13:09.000Z</time>
      </trkpt>
      <trkpt lat="45.26356" lon="4.58467">
        <ele>790.20001220703</ele>
        <time>2026-05-12T11:13:10.000Z</time>
      </trkpt>
      <trkpt lat="45.26357" lon="4.58469">
        <ele>790.40002441406</ele>
        <time>2026-05-12T11:13:11.000Z</time>
      </trkpt>
      <trkpt lat="45.26357" lon="4.58471">
        <ele>790.40002441406</ele>
        <time>2026-05-12T11:13:12.000Z</time>
      </trkpt>
      <trkpt lat="45.26358" lon="4.58474">
        <ele>790.59997558594</ele>
        <time>2026-05-12T11:13:13.000Z</time>
      </trkpt>
      <trkpt lat="45.26359" lon="4.58476">
        <ele>790.79998779297</ele>
        <time>2026-05-12T11:13:14.000Z</time>
      </trkpt>
      <trkpt lat="45.2636" lon="4.58479">
        <ele>791</ele>
        <time>2026-05-12T11:13:15.000Z</time>
      </trkpt>
      <trkpt lat="45.26362" lon="4.58481">
        <ele>791.20001220703</ele>
        <time>2026-05-12T11:13:16.000Z</time>
      </trkpt>
      <trkpt lat="45.26363" lon="4.58483">
        <ele>791.40002441406</ele>
        <time>2026-05-12T11:13:17.000Z</time>
      </trkpt>
      <trkpt lat="45.26364" lon="4.58485">
        <ele>791.40002441406</ele>
        <time>2026-05-12T11:13:18.000Z</time>
      </trkpt>
      <trkpt lat="45.26365" lon="4.58487">
        <ele>791.59997558594</ele>
        <time>2026-05-12T11:13:19.000Z</time>
      </trkpt>
      <trkpt lat="45.26366" lon="4.58489">
        <ele>791.79998779297</ele>
        <time>2026-05-12T11:13:20.000Z</time>
      </trkpt>
      <trkpt lat="45.26368" lon="4.58491">
        <ele>791.79998779297</ele>
        <time>2026-05-12T11:13:21.000Z</time>
      </trkpt>
      <trkpt lat="45.26369" lon="4.58493">
        <ele>792</ele>
        <time>2026-05-12T11:13:22.000Z</time>
      </trkpt>
      <trkpt lat="45.26371" lon="4.58496">
        <ele>792.20001220703</ele>
        <time>2026-05-12T11:13:23.000Z</time>
      </trkpt>
      <trkpt lat="45.26372" lon="4.58498">
        <ele>792.40002441406</ele>
        <time>2026-05-12T11:13:24.000Z</time>
      </trkpt>
      <trkpt lat="45.26374" lon="4.585">
        <ele>792.59997558594</ele>
        <time>2026-05-12T11:13:25.000Z</time>
      </trkpt>
      <trkpt lat="45.26375" lon="4.58501">
        <ele>792.79998779297</ele>
        <time>2026-05-12T11:13:26.000Z</time>
      </trkpt>
      <trkpt lat="45.26376" lon="4.58504">
        <ele>793</ele>
        <time>2026-05-12T11:13:27.000Z</time>
      </trkpt>
      <trkpt lat="45.26376" lon="4.58506">
        <ele>793.20001220703</ele>
        <time>2026-05-12T11:13:28.000Z</time>
      </trkpt>
      <trkpt lat="45.26378" lon="4.58508">
        <ele>793.40002441406</ele>
        <time>2026-05-12T11:13:29.000Z</time>
      </trkpt>
      <trkpt lat="45.26379" lon="4.58511">
        <ele>793.59997558594</ele>
        <time>2026-05-12T11:13:30.000Z</time>
      </trkpt>
      <trkpt lat="45.26381" lon="4.58513">
        <ele>793.79998779297</ele>
        <time>2026-05-12T11:13:31.000Z</time>
      </trkpt>
      <trkpt lat="45.26382" lon="4.58516">
        <ele>794.20001220703</ele>
        <time>2026-05-12T11:13:32.000Z</time>
      </trkpt>
      <trkpt lat="45.26383" lon="4.58519">
        <ele>794.40002441406</ele>
        <time>2026-05-12T11:13:33.000Z</time>
      </trkpt>
      <trkpt lat="45.26383" lon="4.58522">
        <ele>794.59997558594</ele>
        <time>2026-05-12T11:13:34.000Z</time>
      </trkpt>
      <trkpt lat="45.26383" lon="4.58525">
        <ele>794.79998779297</ele>
        <time>2026-05-12T11:13:35.000Z</time>
      </trkpt>
      <trkpt lat="45.26384" lon="4.58528">
        <ele>795</ele>
        <time>2026-05-12T11:13:36.000Z</time>
      </trkpt>
      <trkpt lat="45.26384" lon="4.58531">
        <ele>795.20001220703</ele>
        <time>2026-05-12T11:13:37.000Z</time>
      </trkpt>
      <trkpt lat="45.26384" lon="4.58534">
        <ele>795.59997558594</ele>
        <time>2026-05-12T11:13:38.000Z</time>
      </trkpt>
      <trkpt lat="45.26383" lon="4.58536">
        <ele>795.79998779297</ele>
        <time>2026-05-12T11:13:39.000Z</time>
      </trkpt>
      <trkpt lat="45.26383" lon="4.58539">
        <ele>796.20001220703</ele>
        <time>2026-05-12T11:13:40.000Z</time>
      </trkpt>
      <trkpt lat="45.26382" lon="4.58542">
        <ele>796.40002441406</ele>
        <time>2026-05-12T11:13:41.000Z</time>
      </trkpt>
      <trkpt lat="45.26381" lon="4.58544">
        <ele>796.79998779297</ele>
        <time>2026-05-12T11:13:42.000Z</time>
      </trkpt>
      <trkpt lat="45.2638" lon="4.58546">
        <ele>797.20001220703</ele>
        <time>2026-05-12T11:13:43.000Z</time>
      </trkpt>
      <trkpt lat="45.26379" lon="4.58548">
        <ele>797.59997558594</ele>
        <time>2026-05-12T11:13:44.000Z</time>
      </trkpt>
      <trkpt lat="45.26378" lon="4.5855">
        <ele>797.79998779297</ele>
        <time>2026-05-12T11:13:45.000Z</time>
      </trkpt>
      <trkpt lat="45.26378" lon="4.58552">
        <ele>798.20001220703</ele>
        <time>2026-05-12T11:13:46.000Z</time>
      </trkpt>
      <trkpt lat="45.26376" lon="4.58555">
        <ele>798.40002441406</ele>
        <time>2026-05-12T11:13:47.000Z</time>
      </trkpt>
      <trkpt lat="45.26375" lon="4.58557">
        <ele>798.79998779297</ele>
        <time>2026-05-12T11:13:48.000Z</time>
      </trkpt>
      <trkpt lat="45.26373" lon="4.58559">
        <ele>799</ele>
        <time>2026-05-12T11:13:49.000Z</time>
      </trkpt>
      <trkpt lat="45.26372" lon="4.58562">
        <ele>799.40002441406</ele>
        <time>2026-05-12T11:13:50.000Z</time>
      </trkpt>
      <trkpt lat="45.26371" lon="4.58564">
        <ele>799.59997558594</ele>
        <time>2026-05-12T11:13:51.000Z</time>
      </trkpt>
      <trkpt lat="45.2637" lon="4.58566">
        <ele>799.79998779297</ele>
        <time>2026-05-12T11:13:52.000Z</time>
      </trkpt>
      <trkpt lat="45.26368" lon="4.58568">
        <ele>800</ele>
        <time>2026-05-12T11:13:53.000Z</time>
      </trkpt>
      <trkpt lat="45.26366" lon="4.5857">
        <ele>800.20001220703</ele>
        <time>2026-05-12T11:13:54.000Z</time>
      </trkpt>
      <trkpt lat="45.26365" lon="4.58573">
        <ele>800.40002441406</ele>
        <time>2026-05-12T11:13:55.000Z</time>
      </trkpt>
      <trkpt lat="45.26363" lon="4.58575">
        <ele>800.59997558594</ele>
        <time>2026-05-12T11:13:56.000Z</time>
      </trkpt>
      <trkpt lat="45.26362" lon="4.58577">
        <ele>800.79998779297</ele>
        <time>2026-05-12T11:13:57.000Z</time>
      </trkpt>
      <trkpt lat="45.2636" lon="4.58579">
        <ele>801</ele>
        <time>2026-05-12T11:13:58.000Z</time>
      </trkpt>
      <trkpt lat="45.26358" lon="4.58581">
        <ele>801.20001220703</ele>
        <time>2026-05-12T11:13:59.000Z</time>
      </trkpt>
      <trkpt lat="45.26357" lon="4.58584">
        <ele>801.40002441406</ele>
        <time>2026-05-12T11:14:00.000Z</time>
      </trkpt>
      <trkpt lat="45.26355" lon="4.58585">
        <ele>801.59997558594</ele>
        <time>2026-05-12T11:14:01.000Z</time>
      </trkpt>
      <trkpt lat="45.26354" lon="4.58587">
        <ele>801.79998779297</ele>
        <time>2026-05-12T11:14:02.000Z</time>
      </trkpt>
      <trkpt lat="45.26352" lon="4.58589">
        <ele>802</ele>
        <time>2026-05-12T11:14:03.000Z</time>
      </trkpt>
      <trkpt lat="45.2635" lon="4.58591">
        <ele>802</ele>
        <time>2026-05-12T11:14:04.000Z</time>
      </trkpt>
      <trkpt lat="45.26349" lon="4.58593">
        <ele>802.20001220703</ele>
        <time>2026-05-12T11:14:05.000Z</time>
      </trkpt>
      <trkpt lat="45.26348" lon="4.58594">
        <ele>802.40002441406</ele>
        <time>2026-05-12T11:14:06.000Z</time>
      </trkpt>
      <trkpt lat="45.26346" lon="4.58596">
        <ele>802.40002441406</ele>
        <time>2026-05-12T11:14:07.000Z</time>
      </trkpt>
      <trkpt lat="45.26345" lon="4.58597">
        <ele>802.59997558594</ele>
        <time>2026-05-12T11:14:08.000Z</time>
      </trkpt>
      <trkpt lat="45.26343" lon="4.58599">
        <ele>802.59997558594</ele>
        <time>2026-05-12T11:14:09.000Z</time>
      </trkpt>
      <trkpt lat="45.26343" lon="4.586">
        <ele>802.79998779297</ele>
        <time>2026-05-12T11:14:10.000Z</time>
      </trkpt>
      <trkpt lat="45.26341" lon="4.58602">
        <ele>802.79998779297</ele>
        <time>2026-05-12T11:14:11.000Z</time>
      </trkpt>
      <trkpt lat="45.26339" lon="4.58603">
        <ele>803</ele>
        <time>2026-05-12T11:14:12.000Z</time>
      </trkpt>
      <trkpt lat="45.26337" lon="4.58604">
        <ele>803.20001220703</ele>
        <time>2026-05-12T11:14:13.000Z</time>
      </trkpt>
      <trkpt lat="45.26335" lon="4.58604">
        <ele>803.20001220703</ele>
        <time>2026-05-12T11:14:14.000Z</time>
      </trkpt>
      <trkpt lat="45.26334" lon="4.58605">
        <ele>803.40002441406</ele>
        <time>2026-05-12T11:14:15.000Z</time>
      </trkpt>
      <trkpt lat="45.26332" lon="4.58606">
        <ele>803.40002441406</ele>
        <time>2026-05-12T11:14:16.000Z</time>
      </trkpt>
      <trkpt lat="45.2633" lon="4.58607">
        <ele>803.40002441406</ele>
        <time>2026-05-12T11:14:17.000Z</time>
      </trkpt>
      <trkpt lat="45.26328" lon="4.58609">
        <ele>803.40002441406</ele>
        <time>2026-05-12T11:14:18.000Z</time>
      </trkpt>
      <trkpt lat="45.26324" lon="4.58611">
        <ele>803.20001220703</ele>
        <time>2026-05-12T11:14:19.000Z</time>
      </trkpt>
      <trkpt lat="45.2632" lon="4.58614">
        <ele>803</ele>
        <time>2026-05-12T11:14:20.000Z</time>
      </trkpt>
      <trkpt lat="45.26316" lon="4.58617">
        <ele>802.59997558594</ele>
        <time>2026-05-12T11:14:21.000Z</time>
      </trkpt>
      <trkpt lat="45.26313" lon="4.5862">
        <ele>802.40002441406</ele>
        <time>2026-05-12T11:14:22.000Z</time>
      </trkpt>
      <trkpt lat="45.2631" lon="4.58621">
        <ele>802.20001220703</ele>
        <time>2026-05-12T11:14:23.000Z</time>
      </trkpt>
      <trkpt lat="45.26308" lon="4.58623">
        <ele>802.20001220703</ele>
        <time>2026-05-12T11:14:24.000Z</time>
      </trkpt>
      <trkpt lat="45.26306" lon="4.58624">
        <ele>802.40002441406</ele>
        <time>2026-05-12T11:14:25.000Z</time>
      </trkpt>
      <trkpt lat="45.26304" lon="4.58625">
        <ele>802.59997558594</ele>
        <time>2026-05-12T11:14:26.000Z</time>
      </trkpt>
      <trkpt lat="45.26303" lon="4.58626">
        <ele>803</ele>
        <time>2026-05-12T11:14:27.000Z</time>
      </trkpt>
      <trkpt lat="45.26301" lon="4.58628">
        <ele>803.20001220703</ele>
        <time>2026-05-12T11:14:28.000Z</time>
      </trkpt>
      <trkpt lat="45.26299" lon="4.5863">
        <ele>803.40002441406</ele>
        <time>2026-05-12T11:14:29.000Z</time>
      </trkpt>
      <trkpt lat="45.26297" lon="4.58632">
        <ele>803.79998779297</ele>
        <time>2026-05-12T11:14:30.000Z</time>
      </trkpt>
      <trkpt lat="45.26295" lon="4.58634">
        <ele>804</ele>
        <time>2026-05-12T11:14:31.000Z</time>
      </trkpt>
      <trkpt lat="45.26294" lon="4.58636">
        <ele>804.40002441406</ele>
        <time>2026-05-12T11:14:32.000Z</time>
      </trkpt>
      <trkpt lat="45.26292" lon="4.58638">
        <ele>804.59997558594</ele>
        <time>2026-05-12T11:14:33.000Z</time>
      </trkpt>
      <trkpt lat="45.2629" lon="4.5864">
        <ele>805</ele>
        <time>2026-05-12T11:14:34.000Z</time>
      </trkpt>
      <trkpt lat="45.26288" lon="4.58642">
        <ele>805.20001220703</ele>
        <time>2026-05-12T11:14:35.000Z</time>
      </trkpt>
      <trkpt lat="45.26286" lon="4.58643">
        <ele>805.59997558594</ele>
        <time>2026-05-12T11:14:36.000Z</time>
      </trkpt>
      <trkpt lat="45.26285" lon="4.58645">
        <ele>805.79998779297</ele>
        <time>2026-05-12T11:14:37.000Z</time>
      </trkpt>
      <trkpt lat="45.26283" lon="4.58647">
        <ele>806</ele>
        <time>2026-05-12T11:14:38.000Z</time>
      </trkpt>
      <trkpt lat="45.26282" lon="4.58649">
        <ele>806.40002441406</ele>
        <time>2026-05-12T11:14:39.000Z</time>
      </trkpt>
      <trkpt lat="45.26281" lon="4.58651">
        <ele>806.59997558594</ele>
        <time>2026-05-12T11:14:40.000Z</time>
      </trkpt>
      <trkpt lat="45.26279" lon="4.58653">
        <ele>806.79998779297</ele>
        <time>2026-05-12T11:14:41.000Z</time>
      </trkpt>
      <trkpt lat="45.26278" lon="4.58655">
        <ele>807</ele>
        <time>2026-05-12T11:14:42.000Z</time>
      </trkpt>
      <trkpt lat="45.26276" lon="4.58657">
        <ele>807.20001220703</ele>
        <time>2026-05-12T11:14:43.000Z</time>
      </trkpt>
      <trkpt lat="45.26275" lon="4.5866">
        <ele>807.20001220703</ele>
        <time>2026-05-12T11:14:44.000Z</time>
      </trkpt>
      <trkpt lat="45.26273" lon="4.58662">
        <ele>807.40002441406</ele>
        <time>2026-05-12T11:14:45.000Z</time>
      </trkpt>
      <trkpt lat="45.26272" lon="4.58664">
        <ele>807.59997558594</ele>
        <time>2026-05-12T11:14:46.000Z</time>
      </trkpt>
      <trkpt lat="45.2627" lon="4.58666">
        <ele>807.79998779297</ele>
        <time>2026-05-12T11:14:47.000Z</time>
      </trkpt>
      <trkpt lat="45.26269" lon="4.58669">
        <ele>808.20001220703</ele>
        <time>2026-05-12T11:14:48.000Z</time>
      </trkpt>
      <trkpt lat="45.26268" lon="4.58671">
        <ele>808.40002441406</ele>
        <time>2026-05-12T11:14:49.000Z</time>
      </trkpt>
      <trkpt lat="45.26267" lon="4.58673">
        <ele>808.59997558594</ele>
        <time>2026-05-12T11:14:50.000Z</time>
      </trkpt>
      <trkpt lat="45.26265" lon="4.58676">
        <ele>809.20001220703</ele>
        <time>2026-05-12T11:14:51.000Z</time>
      </trkpt>
      <trkpt lat="45.26264" lon="4.58678">
        <ele>809.59997558594</ele>
        <time>2026-05-12T11:14:52.000Z</time>
      </trkpt>
      <trkpt lat="45.26262" lon="4.58681">
        <ele>809.79998779297</ele>
        <time>2026-05-12T11:14:53.000Z</time>
      </trkpt>
      <trkpt lat="45.26261" lon="4.58683">
        <ele>810</ele>
        <time>2026-05-12T11:14:54.000Z</time>
      </trkpt>
      <trkpt lat="45.26259" lon="4.58685">
        <ele>810.20001220703</ele>
        <time>2026-05-12T11:14:55.000Z</time>
      </trkpt>
      <trkpt lat="45.26258" lon="4.58688">
        <ele>810.20001220703</ele>
        <time>2026-05-12T11:14:56.000Z</time>
      </trkpt>
      <trkpt lat="45.26257" lon="4.5869">
        <ele>810.20001220703</ele>
        <time>2026-05-12T11:14:57.000Z</time>
      </trkpt>
      <trkpt lat="45.26255" lon="4.58692">
        <ele>810.20001220703</ele>
        <time>2026-05-12T11:14:58.000Z</time>
      </trkpt>
      <trkpt lat="45.26254" lon="4.58694">
        <ele>810.20001220703</ele>
        <time>2026-05-12T11:14:59.000Z</time>
      </trkpt>
      <trkpt lat="45.26253" lon="4.58696">
        <ele>810.40002441406</ele>
        <time>2026-05-12T11:15:00.000Z</time>
      </trkpt>
      <trkpt lat="45.26251" lon="4.58699">
        <ele>810.59997558594</ele>
        <time>2026-05-12T11:15:01.000Z</time>
      </trkpt>
      <trkpt lat="45.2625" lon="4.58701">
        <ele>810.79998779297</ele>
        <time>2026-05-12T11:15:02.000Z</time>
      </trkpt>
      <trkpt lat="45.26249" lon="4.58703">
        <ele>810.79998779297</ele>
        <time>2026-05-12T11:15:03.000Z</time>
      </trkpt>
      <trkpt lat="45.26247" lon="4.58705">
        <ele>811</ele>
        <time>2026-05-12T11:15:04.000Z</time>
      </trkpt>
      <trkpt lat="45.26246" lon="4.58708">
        <ele>811.20001220703</ele>
        <time>2026-05-12T11:15:05.000Z</time>
      </trkpt>
      <trkpt lat="45.26244" lon="4.5871">
        <ele>811.40002441406</ele>
        <time>2026-05-12T11:15:06.000Z</time>
      </trkpt>
      <trkpt lat="45.26243" lon="4.58712">
        <ele>811.59997558594</ele>
        <time>2026-05-12T11:15:07.000Z</time>
      </trkpt>
      <trkpt lat="45.26242" lon="4.58714">
        <ele>811.79998779297</ele>
        <time>2026-05-12T11:15:08.000Z</time>
      </trkpt>
      <trkpt lat="45.26241" lon="4.58716">
        <ele>812</ele>
        <time>2026-05-12T11:15:09.000Z</time>
      </trkpt>
      <trkpt lat="45.2624" lon="4.58718">
        <ele>812.20001220703</ele>
        <time>2026-05-12T11:15:10.000Z</time>
      </trkpt>
      <trkpt lat="45.26239" lon="4.5872">
        <ele>812.40002441406</ele>
        <time>2026-05-12T11:15:11.000Z</time>
      </trkpt>
      <trkpt lat="45.26238" lon="4.58721">
        <ele>812.59997558594</ele>
        <time>2026-05-12T11:15:12.000Z</time>
      </trkpt>
      <trkpt lat="45.26237" lon="4.58723">
        <ele>813</ele>
        <time>2026-05-12T11:15:13.000Z</time>
      </trkpt>
      <trkpt lat="45.26236" lon="4.58725">
        <ele>813.20001220703</ele>
        <time>2026-05-12T11:15:14.000Z</time>
      </trkpt>
      <trkpt lat="45.26234" lon="4.58727">
        <ele>813.40002441406</ele>
        <time>2026-05-12T11:15:15.000Z</time>
      </trkpt>
      <trkpt lat="45.26232" lon="4.58729">
        <ele>813.59997558594</ele>
        <time>2026-05-12T11:15:16.000Z</time>
      </trkpt>
      <trkpt lat="45.2623" lon="4.58731">
        <ele>813.79998779297</ele>
        <time>2026-05-12T11:15:17.000Z</time>
      </trkpt>
      <trkpt lat="45.26229" lon="4.58733">
        <ele>814</ele>
        <time>2026-05-12T11:15:18.000Z</time>
      </trkpt>
      <trkpt lat="45.26228" lon="4.58735">
        <ele>814.20001220703</ele>
        <time>2026-05-12T11:15:19.000Z</time>
      </trkpt>
      <trkpt lat="45.26226" lon="4.58736">
        <ele>814.40002441406</ele>
        <time>2026-05-12T11:15:20.000Z</time>
      </trkpt>
      <trkpt lat="45.26224" lon="4.58738">
        <ele>814.59997558594</ele>
        <time>2026-05-12T11:15:21.000Z</time>
      </trkpt>
      <trkpt lat="45.26223" lon="4.5874">
        <ele>814.79998779297</ele>
        <time>2026-05-12T11:15:22.000Z</time>
      </trkpt>
      <trkpt lat="45.26221" lon="4.58742">
        <ele>815</ele>
        <time>2026-05-12T11:15:23.000Z</time>
      </trkpt>
      <trkpt lat="45.2622" lon="4.58744">
        <ele>815.40002441406</ele>
        <time>2026-05-12T11:15:24.000Z</time>
      </trkpt>
      <trkpt lat="45.26218" lon="4.58746">
        <ele>815.59997558594</ele>
        <time>2026-05-12T11:15:25.000Z</time>
      </trkpt>
      <trkpt lat="45.26216" lon="4.58748">
        <ele>815.79998779297</ele>
        <time>2026-05-12T11:15:26.000Z</time>
      </trkpt>
      <trkpt lat="45.26214" lon="4.5875">
        <ele>816</ele>
        <time>2026-05-12T11:15:27.000Z</time>
      </trkpt>
      <trkpt lat="45.26213" lon="4.58752">
        <ele>816.20001220703</ele>
        <time>2026-05-12T11:15:28.000Z</time>
      </trkpt>
      <trkpt lat="45.26211" lon="4.58754">
        <ele>816.40002441406</ele>
        <time>2026-05-12T11:15:29.000Z</time>
      </trkpt>
      <trkpt lat="45.2621" lon="4.58756">
        <ele>816.40002441406</ele>
        <time>2026-05-12T11:15:30.000Z</time>
      </trkpt>
      <trkpt lat="45.26208" lon="4.58758">
        <ele>816.59997558594</ele>
        <time>2026-05-12T11:15:31.000Z</time>
      </trkpt>
      <trkpt lat="45.26207" lon="4.5876">
        <ele>816.79998779297</ele>
        <time>2026-05-12T11:15:32.000Z</time>
      </trkpt>
      <trkpt lat="45.26206" lon="4.58761">
        <ele>816.79998779297</ele>
        <time>2026-05-12T11:15:33.000Z</time>
      </trkpt>
      <trkpt lat="45.26205" lon="4.58763">
        <ele>817</ele>
        <time>2026-05-12T11:15:34.000Z</time>
      </trkpt>
      <trkpt lat="45.26203" lon="4.58765">
        <ele>817.20001220703</ele>
        <time>2026-05-12T11:15:35.000Z</time>
      </trkpt>
      <trkpt lat="45.26201" lon="4.58767">
        <ele>817.40002441406</ele>
        <time>2026-05-12T11:15:36.000Z</time>
      </trkpt>
      <trkpt lat="45.26199" lon="4.58769">
        <ele>817.59997558594</ele>
        <time>2026-05-12T11:15:37.000Z</time>
      </trkpt>
      <trkpt lat="45.26197" lon="4.58771">
        <ele>817.79998779297</ele>
        <time>2026-05-12T11:15:38.000Z</time>
      </trkpt>
      <trkpt lat="45.26195" lon="4.58772">
        <ele>818.20001220703</ele>
        <time>2026-05-12T11:15:39.000Z</time>
      </trkpt>
      <trkpt lat="45.26193" lon="4.58774">
        <ele>818.40002441406</ele>
        <time>2026-05-12T11:15:40.000Z</time>
      </trkpt>
      <trkpt lat="45.26192" lon="4.58776">
        <ele>818.59997558594</ele>
        <time>2026-05-12T11:15:41.000Z</time>
      </trkpt>
      <trkpt lat="45.2619" lon="4.58777">
        <ele>818.79998779297</ele>
        <time>2026-05-12T11:15:42.000Z</time>
      </trkpt>
      <trkpt lat="45.26188" lon="4.58779">
        <ele>819.20001220703</ele>
        <time>2026-05-12T11:15:43.000Z</time>
      </trkpt>
      <trkpt lat="45.26186" lon="4.58781">
        <ele>819.40002441406</ele>
        <time>2026-05-12T11:15:44.000Z</time>
      </trkpt>
      <trkpt lat="45.26185" lon="4.58783">
        <ele>819.59997558594</ele>
        <time>2026-05-12T11:15:45.000Z</time>
      </trkpt>
      <trkpt lat="45.26183" lon="4.58785">
        <ele>820</ele>
        <time>2026-05-12T11:15:46.000Z</time>
      </trkpt>
      <trkpt lat="45.26181" lon="4.58787">
        <ele>820.20001220703</ele>
        <time>2026-05-12T11:15:47.000Z</time>
      </trkpt>
      <trkpt lat="45.2618" lon="4.58789">
        <ele>820.40002441406</ele>
        <time>2026-05-12T11:15:48.000Z</time>
      </trkpt>
      <trkpt lat="45.26178" lon="4.58791">
        <ele>820.79998779297</ele>
        <time>2026-05-12T11:15:49.000Z</time>
      </trkpt>
      <trkpt lat="45.26176" lon="4.58793">
        <ele>821</ele>
        <time>2026-05-12T11:15:50.000Z</time>
      </trkpt>
      <trkpt lat="45.26175" lon="4.58795">
        <ele>821.20001220703</ele>
        <time>2026-05-12T11:15:51.000Z</time>
      </trkpt>
      <trkpt lat="45.26173" lon="4.58796">
        <ele>821.40002441406</ele>
        <time>2026-05-12T11:15:52.000Z</time>
      </trkpt>
      <trkpt lat="45.26171" lon="4.58798">
        <ele>821.59997558594</ele>
        <time>2026-05-12T11:15:53.000Z</time>
      </trkpt>
      <trkpt lat="45.26169" lon="4.58799">
        <ele>821.59997558594</ele>
        <time>2026-05-12T11:15:54.000Z</time>
      </trkpt>
      <trkpt lat="45.26167" lon="4.58801">
        <ele>821.59997558594</ele>
        <time>2026-05-12T11:15:55.000Z</time>
      </trkpt>
      <trkpt lat="45.26165" lon="4.58802">
        <ele>821.59997558594</ele>
        <time>2026-05-12T11:15:56.000Z</time>
      </trkpt>
      <trkpt lat="45.26162" lon="4.58803">
        <ele>821.59997558594</ele>
        <time>2026-05-12T11:15:57.000Z</time>
      </trkpt>
      <trkpt lat="45.26159" lon="4.58804">
        <ele>821.59997558594</ele>
        <time>2026-05-12T11:15:58.000Z</time>
      </trkpt>
      <trkpt lat="45.26157" lon="4.58805">
        <ele>821.59997558594</ele>
        <time>2026-05-12T11:15:59.000Z</time>
      </trkpt>
      <trkpt lat="45.26154" lon="4.58806">
        <ele>821.40002441406</ele>
        <time>2026-05-12T11:16:00.000Z</time>
      </trkpt>
      <trkpt lat="45.2615" lon="4.58807">
        <ele>821.20001220703</ele>
        <time>2026-05-12T11:16:01.000Z</time>
      </trkpt>
      <trkpt lat="45.26147" lon="4.58808">
        <ele>821</ele>
        <time>2026-05-12T11:16:02.000Z</time>
      </trkpt>
      <trkpt lat="45.26143" lon="4.58808">
        <ele>820.79998779297</ele>
        <time>2026-05-12T11:16:03.000Z</time>
      </trkpt>
      <trkpt lat="45.2614" lon="4.58808">
        <ele>820.79998779297</ele>
        <time>2026-05-12T11:16:04.000Z</time>
      </trkpt>
      <trkpt lat="45.26137" lon="4.58807">
        <ele>820.59997558594</ele>
        <time>2026-05-12T11:16:05.000Z</time>
      </trkpt>
      <trkpt lat="45.26133" lon="4.58807">
        <ele>820.59997558594</ele>
        <time>2026-05-12T11:16:06.000Z</time>
      </trkpt>
      <trkpt lat="45.2613" lon="4.58807">
        <ele>820.59997558594</ele>
        <time>2026-05-12T11:16:07.000Z</time>
      </trkpt>
      <trkpt lat="45.26128" lon="4.58808">
        <ele>820.40002441406</ele>
        <time>2026-05-12T11:16:08.000Z</time>
      </trkpt>
      <trkpt lat="45.26126" lon="4.58811">
        <ele>820.40002441406</ele>
        <time>2026-05-12T11:16:09.000Z</time>
      </trkpt>
      <trkpt lat="45.26125" lon="4.58813">
        <ele>820.40002441406</ele>
        <time>2026-05-12T11:16:10.000Z</time>
      </trkpt>
      <trkpt lat="45.26125" lon="4.58814">
        <ele>820.40002441406</ele>
        <time>2026-05-12T11:16:11.000Z</time>
      </trkpt>
      <trkpt lat="45.26125" lon="4.58814">
        <ele>820.59997558594</ele>
        <time>2026-05-12T11:16:12.000Z</time>
      </trkpt>
      <trkpt lat="45.26125" lon="4.58815">
        <ele>820.59997558594</ele>
        <time>2026-05-12T11:16:13.000Z</time>
      </trkpt>
      <trkpt lat="45.26128" lon="4.58821">
        <ele>818.40002441406</ele>
        <time>2026-05-12T11:19:52.000Z</time>
      </trkpt>
      <trkpt lat="45.2613" lon="4.58825">
        <ele>818.20001220703</ele>
        <time>2026-05-12T11:19:53.000Z</time>
      </trkpt>
      <trkpt lat="45.26131" lon="4.58829">
        <ele>818</ele>
        <time>2026-05-12T11:19:54.000Z</time>
      </trkpt>
      <trkpt lat="45.26132" lon="4.58835">
        <ele>817.40002441406</ele>
        <time>2026-05-12T11:19:55.000Z</time>
      </trkpt>
      <trkpt lat="45.26134" lon="4.58841">
        <ele>817</ele>
        <time>2026-05-12T11:19:56.000Z</time>
      </trkpt>
      <trkpt lat="45.26136" lon="4.58848">
        <ele>816.40002441406</ele>
        <time>2026-05-12T11:19:57.000Z</time>
      </trkpt>
      <trkpt lat="45.26139" lon="4.58855">
        <ele>815.79998779297</ele>
        <time>2026-05-12T11:19:58.000Z</time>
      </trkpt>
      <trkpt lat="45.26142" lon="4.58862">
        <ele>815</ele>
        <time>2026-05-12T11:19:59.000Z</time>
      </trkpt>
      <trkpt lat="45.26145" lon="4.58869">
        <ele>814.40002441406</ele>
        <time>2026-05-12T11:20:00.000Z</time>
      </trkpt>
      <trkpt lat="45.26149" lon="4.58877">
        <ele>813.79998779297</ele>
        <time>2026-05-12T11:20:01.000Z</time>
      </trkpt>
      <trkpt lat="45.26153" lon="4.58885">
        <ele>813.20001220703</ele>
        <time>2026-05-12T11:20:02.000Z</time>
      </trkpt>
      <trkpt lat="45.26157" lon="4.58894">
        <ele>812.40002441406</ele>
        <time>2026-05-12T11:20:03.000Z</time>
      </trkpt>
      <trkpt lat="45.26161" lon="4.58904">
        <ele>811.59997558594</ele>
        <time>2026-05-12T11:20:04.000Z</time>
      </trkpt>
      <trkpt lat="45.26165" lon="4.58913">
        <ele>810.79998779297</ele>
        <time>2026-05-12T11:20:05.000Z</time>
      </trkpt>
      <trkpt lat="45.26169" lon="4.58922">
        <ele>810</ele>
        <time>2026-05-12T11:20:06.000Z</time>
      </trkpt>
      <trkpt lat="45.26173" lon="4.5893">
        <ele>809.20001220703</ele>
        <time>2026-05-12T11:20:07.000Z</time>
      </trkpt>
      <trkpt lat="45.26178" lon="4.58938">
        <ele>808.59997558594</ele>
        <time>2026-05-12T11:20:08.000Z</time>
      </trkpt>
      <trkpt lat="45.26183" lon="4.58945">
        <ele>808</ele>
        <time>2026-05-12T11:20:09.000Z</time>
      </trkpt>
      <trkpt lat="45.26188" lon="4.58951">
        <ele>807.40002441406</ele>
        <time>2026-05-12T11:20:10.000Z</time>
      </trkpt>
      <trkpt lat="45.26193" lon="4.58957">
        <ele>806.79998779297</ele>
        <time>2026-05-12T11:20:11.000Z</time>
      </trkpt>
      <trkpt lat="45.26198" lon="4.58963">
        <ele>806.20001220703</ele>
        <time>2026-05-12T11:20:12.000Z</time>
      </trkpt>
      <trkpt lat="45.26203" lon="4.5897">
        <ele>805.79998779297</ele>
        <time>2026-05-12T11:20:13.000Z</time>
      </trkpt>
      <trkpt lat="45.26207" lon="4.58978">
        <ele>805.20001220703</ele>
        <time>2026-05-12T11:20:14.000Z</time>
      </trkpt>
      <trkpt lat="45.2621" lon="4.58988">
        <ele>804.40002441406</ele>
        <time>2026-05-12T11:20:15.000Z</time>
      </trkpt>
      <trkpt lat="45.26211" lon="4.58998">
        <ele>803.79998779297</ele>
        <time>2026-05-12T11:20:16.000Z</time>
      </trkpt>
      <trkpt lat="45.26212" lon="4.59008">
        <ele>803.20001220703</ele>
        <time>2026-05-12T11:20:17.000Z</time>
      </trkpt>
      <trkpt lat="45.26214" lon="4.59019">
        <ele>802.40002441406</ele>
        <time>2026-05-12T11:20:18.000Z</time>
      </trkpt>
      <trkpt lat="45.26216" lon="4.5903">
        <ele>801.59997558594</ele>
        <time>2026-05-12T11:20:19.000Z</time>
      </trkpt>
      <trkpt lat="45.26219" lon="4.59042">
        <ele>800.79998779297</ele>
        <time>2026-05-12T11:20:20.000Z</time>
      </trkpt>
      <trkpt lat="45.26223" lon="4.59053">
        <ele>800</ele>
        <time>2026-05-12T11:20:21.000Z</time>
      </trkpt>
      <trkpt lat="45.26228" lon="4.59066">
        <ele>798.79998779297</ele>
        <time>2026-05-12T11:20:22.000Z</time>
      </trkpt>
      <trkpt lat="45.26232" lon="4.59078">
        <ele>797.79998779297</ele>
        <time>2026-05-12T11:20:23.000Z</time>
      </trkpt>
      <trkpt lat="45.26236" lon="4.59091">
        <ele>796.59997558594</ele>
        <time>2026-05-12T11:20:24.000Z</time>
      </trkpt>
      <trkpt lat="45.26239" lon="4.59105">
        <ele>795.59997558594</ele>
        <time>2026-05-12T11:20:25.000Z</time>
      </trkpt>
      <trkpt lat="45.26242" lon="4.59118">
        <ele>794.79998779297</ele>
        <time>2026-05-12T11:20:26.000Z</time>
      </trkpt>
      <trkpt lat="45.26245" lon="4.59131">
        <ele>794</ele>
        <time>2026-05-12T11:20:27.000Z</time>
      </trkpt>
      <trkpt lat="45.26248" lon="4.59144">
        <ele>793.40002441406</ele>
        <time>2026-05-12T11:20:28.000Z</time>
      </trkpt>
      <trkpt lat="45.26251" lon="4.59156">
        <ele>793</ele>
        <time>2026-05-12T11:20:29.000Z</time>
      </trkpt>
      <trkpt lat="45.26255" lon="4.5917">
        <ele>792.40002441406</ele>
        <time>2026-05-12T11:20:30.000Z</time>
      </trkpt>
      <trkpt lat="45.26258" lon="4.59183">
        <ele>791.59997558594</ele>
        <time>2026-05-12T11:20:31.000Z</time>
      </trkpt>
      <trkpt lat="45.26262" lon="4.59196">
        <ele>790.79998779297</ele>
        <time>2026-05-12T11:20:32.000Z</time>
      </trkpt>
      <trkpt lat="45.26265" lon="4.5921">
        <ele>789.79998779297</ele>
        <time>2026-05-12T11:20:33.000Z</time>
      </trkpt>
      <trkpt lat="45.26269" lon="4.59223">
        <ele>788.59997558594</ele>
        <time>2026-05-12T11:20:34.000Z</time>
      </trkpt>
      <trkpt lat="45.26271" lon="4.59236">
        <ele>787.59997558594</ele>
        <time>2026-05-12T11:20:35.000Z</time>
      </trkpt>
      <trkpt lat="45.26274" lon="4.59248">
        <ele>786.79998779297</ele>
        <time>2026-05-12T11:20:36.000Z</time>
      </trkpt>
      <trkpt lat="45.26277" lon="4.59258">
        <ele>786.40002441406</ele>
        <time>2026-05-12T11:20:37.000Z</time>
      </trkpt>
      <trkpt lat="45.2628" lon="4.59267">
        <ele>786.40002441406</ele>
        <time>2026-05-12T11:20:38.000Z</time>
      </trkpt>
      <trkpt lat="45.26282" lon="4.59276">
        <ele>786.40002441406</ele>
        <time>2026-05-12T11:20:39.000Z</time>
      </trkpt>
      <trkpt lat="45.26281" lon="4.59285">
        <ele>786.40002441406</ele>
        <time>2026-05-12T11:20:40.000Z</time>
      </trkpt>
      <trkpt lat="45.26278" lon="4.59294">
        <ele>786.40002441406</ele>
        <time>2026-05-12T11:20:41.000Z</time>
      </trkpt>
      <trkpt lat="45.26275" lon="4.59302">
        <ele>786</ele>
        <time>2026-05-12T11:20:42.000Z</time>
      </trkpt>
      <trkpt lat="45.2627" lon="4.5931">
        <ele>785.40002441406</ele>
        <time>2026-05-12T11:20:43.000Z</time>
      </trkpt>
      <trkpt lat="45.26264" lon="4.59319">
        <ele>784.59997558594</ele>
        <time>2026-05-12T11:20:44.000Z</time>
      </trkpt>
      <trkpt lat="45.26259" lon="4.59328">
        <ele>783.59997558594</ele>
        <time>2026-05-12T11:20:45.000Z</time>
      </trkpt>
      <trkpt lat="45.26253" lon="4.59339">
        <ele>782.59997558594</ele>
        <time>2026-05-12T11:20:46.000Z</time>
      </trkpt>
      <trkpt lat="45.26247" lon="4.5935">
        <ele>781.59997558594</ele>
        <time>2026-05-12T11:20:47.000Z</time>
      </trkpt>
      <trkpt lat="45.26242" lon="4.59361">
        <ele>780.79998779297</ele>
        <time>2026-05-12T11:20:48.000Z</time>
      </trkpt>
      <trkpt lat="45.26236" lon="4.59373">
        <ele>779.79998779297</ele>
        <time>2026-05-12T11:20:49.000Z</time>
      </trkpt>
      <trkpt lat="45.26231" lon="4.59386">
        <ele>778.59997558594</ele>
        <time>2026-05-12T11:20:50.000Z</time>
      </trkpt>
      <trkpt lat="45.26226" lon="4.59399">
        <ele>777.59997558594</ele>
        <time>2026-05-12T11:20:51.000Z</time>
      </trkpt>
      <trkpt lat="45.26221" lon="4.59411">
        <ele>776.59997558594</ele>
        <time>2026-05-12T11:20:52.000Z</time>
      </trkpt>
      <trkpt lat="45.26218" lon="4.59424">
        <ele>775.40002441406</ele>
        <time>2026-05-12T11:20:53.000Z</time>
      </trkpt>
      <trkpt lat="45.26214" lon="4.59437">
        <ele>774.40002441406</ele>
        <time>2026-05-12T11:20:54.000Z</time>
      </trkpt>
      <trkpt lat="45.26212" lon="4.59451">
        <ele>773.59997558594</ele>
        <time>2026-05-12T11:20:55.000Z</time>
      </trkpt>
      <trkpt lat="45.2621" lon="4.59465">
        <ele>772.79998779297</ele>
        <time>2026-05-12T11:20:56.000Z</time>
      </trkpt>
      <trkpt lat="45.26209" lon="4.59479">
        <ele>771.79998779297</ele>
        <time>2026-05-12T11:20:57.000Z</time>
      </trkpt>
      <trkpt lat="45.26208" lon="4.59493">
        <ele>771</ele>
        <time>2026-05-12T11:20:58.000Z</time>
      </trkpt>
      <trkpt lat="45.26207" lon="4.59506">
        <ele>770</ele>
        <time>2026-05-12T11:20:59.000Z</time>
      </trkpt>
      <trkpt lat="45.26207" lon="4.5952">
        <ele>769</ele>
        <time>2026-05-12T11:21:00.000Z</time>
      </trkpt>
      <trkpt lat="45.26207" lon="4.59533">
        <ele>768</ele>
        <time>2026-05-12T11:21:01.000Z</time>
      </trkpt>
      <trkpt lat="45.26208" lon="4.59546">
        <ele>767</ele>
        <time>2026-05-12T11:21:02.000Z</time>
      </trkpt>
      <trkpt lat="45.2621" lon="4.59557">
        <ele>766.20001220703</ele>
        <time>2026-05-12T11:21:03.000Z</time>
      </trkpt>
      <trkpt lat="45.26212" lon="4.59568">
        <ele>765.59997558594</ele>
        <time>2026-05-12T11:21:04.000Z</time>
      </trkpt>
      <trkpt lat="45.26216" lon="4.59577">
        <ele>765</ele>
        <time>2026-05-12T11:21:05.000Z</time>
      </trkpt>
      <trkpt lat="45.2622" lon="4.59586">
        <ele>764.79998779297</ele>
        <time>2026-05-12T11:21:06.000Z</time>
      </trkpt>
      <trkpt lat="45.26226" lon="4.59594">
        <ele>764.40002441406</ele>
        <time>2026-05-12T11:21:07.000Z</time>
      </trkpt>
      <trkpt lat="45.26233" lon="4.59602">
        <ele>764.20001220703</ele>
        <time>2026-05-12T11:21:08.000Z</time>
      </trkpt>
      <trkpt lat="45.2624" lon="4.59609">
        <ele>764</ele>
        <time>2026-05-12T11:21:09.000Z</time>
      </trkpt>
      <trkpt lat="45.26246" lon="4.59618">
        <ele>763.59997558594</ele>
        <time>2026-05-12T11:21:10.000Z</time>
      </trkpt>
      <trkpt lat="45.26252" lon="4.59626">
        <ele>763.20001220703</ele>
        <time>2026-05-12T11:21:11.000Z</time>
      </trkpt>
      <trkpt lat="45.26258" lon="4.59637">
        <ele>762.79998779297</ele>
        <time>2026-05-12T11:21:12.000Z</time>
      </trkpt>
      <trkpt lat="45.26263" lon="4.59648">
        <ele>762.20001220703</ele>
        <time>2026-05-12T11:21:13.000Z</time>
      </trkpt>
      <trkpt lat="45.26267" lon="4.59661">
        <ele>761.59997558594</ele>
        <time>2026-05-12T11:21:14.000Z</time>
      </trkpt>
      <trkpt lat="45.26269" lon="4.59674">
        <ele>761</ele>
        <time>2026-05-12T11:21:15.000Z</time>
      </trkpt>
      <trkpt lat="45.26271" lon="4.59688">
        <ele>760.20001220703</ele>
        <time>2026-05-12T11:21:16.000Z</time>
      </trkpt>
      <trkpt lat="45.26273" lon="4.59701">
        <ele>759.59997558594</ele>
        <time>2026-05-12T11:21:17.000Z</time>
      </trkpt>
      <trkpt lat="45.26275" lon="4.59715">
        <ele>758.79998779297</ele>
        <time>2026-05-12T11:21:18.000Z</time>
      </trkpt>
      <trkpt lat="45.26277" lon="4.59729">
        <ele>758</ele>
        <time>2026-05-12T11:21:19.000Z</time>
      </trkpt>
      <trkpt lat="45.26281" lon="4.59742">
        <ele>757.40002441406</ele>
        <time>2026-05-12T11:21:20.000Z</time>
      </trkpt>
      <trkpt lat="45.26285" lon="4.59756">
        <ele>756.59997558594</ele>
        <time>2026-05-12T11:21:21.000Z</time>
      </trkpt>
      <trkpt lat="45.26289" lon="4.5977">
        <ele>755.79998779297</ele>
        <time>2026-05-12T11:21:22.000Z</time>
      </trkpt>
      <trkpt lat="45.26294" lon="4.59783">
        <ele>754.79998779297</ele>
        <time>2026-05-12T11:21:23.000Z</time>
      </trkpt>
      <trkpt lat="45.26299" lon="4.59796">
        <ele>754</ele>
        <time>2026-05-12T11:21:24.000Z</time>
      </trkpt>
      <trkpt lat="45.26304" lon="4.59809">
        <ele>753.20001220703</ele>
        <time>2026-05-12T11:21:25.000Z</time>
      </trkpt>
      <trkpt lat="45.26309" lon="4.59819">
        <ele>752.59997558594</ele>
        <time>2026-05-12T11:21:26.000Z</time>
      </trkpt>
      <trkpt lat="45.26313" lon="4.59829">
        <ele>752.20001220703</ele>
        <time>2026-05-12T11:21:27.000Z</time>
      </trkpt>
      <trkpt lat="45.26316" lon="4.59838">
        <ele>752</ele>
        <time>2026-05-12T11:21:28.000Z</time>
      </trkpt>
      <trkpt lat="45.2632" lon="4.59846">
        <ele>752</ele>
        <time>2026-05-12T11:21:29.000Z</time>
      </trkpt>
      <trkpt lat="45.26321" lon="4.59854">
        <ele>751.79998779297</ele>
        <time>2026-05-12T11:21:30.000Z</time>
      </trkpt>
      <trkpt lat="45.2632" lon="4.59863">
        <ele>751.59997558594</ele>
        <time>2026-05-12T11:21:31.000Z</time>
      </trkpt>
      <trkpt lat="45.26316" lon="4.59873">
        <ele>751.20001220703</ele>
        <time>2026-05-12T11:21:32.000Z</time>
      </trkpt>
      <trkpt lat="45.26313" lon="4.59884">
        <ele>750.79998779297</ele>
        <time>2026-05-12T11:21:33.000Z</time>
      </trkpt>
      <trkpt lat="45.2631" lon="4.59895">
        <ele>750.20001220703</ele>
        <time>2026-05-12T11:21:34.000Z</time>
      </trkpt>
      <trkpt lat="45.26305" lon="4.59906">
        <ele>749.40002441406</ele>
        <time>2026-05-12T11:21:35.000Z</time>
      </trkpt>
      <trkpt lat="45.26302" lon="4.59918">
        <ele>748.79998779297</ele>
        <time>2026-05-12T11:21:36.000Z</time>
      </trkpt>
      <trkpt lat="45.26299" lon="4.5993">
        <ele>748</ele>
        <time>2026-05-12T11:21:37.000Z</time>
      </trkpt>
      <trkpt lat="45.26296" lon="4.59942">
        <ele>747.40002441406</ele>
        <time>2026-05-12T11:21:38.000Z</time>
      </trkpt>
      <trkpt lat="45.26292" lon="4.59953">
        <ele>746.59997558594</ele>
        <time>2026-05-12T11:21:39.000Z</time>
      </trkpt>
      <trkpt lat="45.26286" lon="4.59964">
        <ele>746</ele>
        <time>2026-05-12T11:21:40.000Z</time>
      </trkpt>
      <trkpt lat="45.26281" lon="4.59973">
        <ele>745.40002441406</ele>
        <time>2026-05-12T11:21:41.000Z</time>
      </trkpt>
      <trkpt lat="45.26274" lon="4.5998">
        <ele>744.79998779297</ele>
        <time>2026-05-12T11:21:42.000Z</time>
      </trkpt>
      <trkpt lat="45.26267" lon="4.59985">
        <ele>744.20001220703</ele>
        <time>2026-05-12T11:21:43.000Z</time>
      </trkpt>
      <trkpt lat="45.2626" lon="4.59989">
        <ele>743.59997558594</ele>
        <time>2026-05-12T11:21:44.000Z</time>
      </trkpt>
      <trkpt lat="45.26252" lon="4.59991">
        <ele>743</ele>
        <time>2026-05-12T11:21:45.000Z</time>
      </trkpt>
      <trkpt lat="45.26241" lon="4.59992">
        <ele>742.20001220703</ele>
        <time>2026-05-12T11:21:46.000Z</time>
      </trkpt>
      <trkpt lat="45.26232" lon="4.59993">
        <ele>741.40002441406</ele>
        <time>2026-05-12T11:21:47.000Z</time>
      </trkpt>
      <trkpt lat="45.26223" lon="4.59993">
        <ele>740.59997558594</ele>
        <time>2026-05-12T11:21:48.000Z</time>
      </trkpt>
      <trkpt lat="45.26213" lon="4.59994">
        <ele>739.79998779297</ele>
        <time>2026-05-12T11:21:49.000Z</time>
      </trkpt>
      <trkpt lat="45.26204" lon="4.59995">
        <ele>738.79998779297</ele>
        <time>2026-05-12T11:21:50.000Z</time>
      </trkpt>
      <trkpt lat="45.26195" lon="4.59998">
        <ele>738</ele>
        <time>2026-05-12T11:21:51.000Z</time>
      </trkpt>
      <trkpt lat="45.26186" lon="4.60003">
        <ele>737.40002441406</ele>
        <time>2026-05-12T11:21:52.000Z</time>
      </trkpt>
      <trkpt lat="45.26177" lon="4.60008">
        <ele>736.79998779297</ele>
        <time>2026-05-12T11:21:53.000Z</time>
      </trkpt>
      <trkpt lat="45.26169" lon="4.60014">
        <ele>736.20001220703</ele>
        <time>2026-05-12T11:21:54.000Z</time>
      </trkpt>
      <trkpt lat="45.26161" lon="4.60022">
        <ele>735.59997558594</ele>
        <time>2026-05-12T11:21:55.000Z</time>
      </trkpt>
      <trkpt lat="45.26151" lon="4.6003">
        <ele>734.79998779297</ele>
        <time>2026-05-12T11:21:56.000Z</time>
      </trkpt>
      <trkpt lat="45.26144" lon="4.60038">
        <ele>734</ele>
        <time>2026-05-12T11:21:57.000Z</time>
      </trkpt>
      <trkpt lat="45.26136" lon="4.60047">
        <ele>733</ele>
        <time>2026-05-12T11:21:58.000Z</time>
      </trkpt>
      <trkpt lat="45.26129" lon="4.60058">
        <ele>731.79998779297</ele>
        <time>2026-05-12T11:21:59.000Z</time>
      </trkpt>
      <trkpt lat="45.26122" lon="4.60068">
        <ele>730.79998779297</ele>
        <time>2026-05-12T11:22:00.000Z</time>
      </trkpt>
      <trkpt lat="45.26114" lon="4.60078">
        <ele>730</ele>
        <time>2026-05-12T11:22:01.000Z</time>
      </trkpt>
      <trkpt lat="45.26108" lon="4.60087">
        <ele>729.40002441406</ele>
        <time>2026-05-12T11:22:02.000Z</time>
      </trkpt>
      <trkpt lat="45.26102" lon="4.60095">
        <ele>728.79998779297</ele>
        <time>2026-05-12T11:22:03.000Z</time>
      </trkpt>
      <trkpt lat="45.26095" lon="4.60102">
        <ele>728.59997558594</ele>
        <time>2026-05-12T11:22:04.000Z</time>
      </trkpt>
      <trkpt lat="45.2609" lon="4.60108">
        <ele>728.20001220703</ele>
        <time>2026-05-12T11:22:05.000Z</time>
      </trkpt>
      <trkpt lat="45.26085" lon="4.60113">
        <ele>728</ele>
        <time>2026-05-12T11:22:06.000Z</time>
      </trkpt>
      <trkpt lat="45.2608" lon="4.60117">
        <ele>727.79998779297</ele>
        <time>2026-05-12T11:22:07.000Z</time>
      </trkpt>
      <trkpt lat="45.26076" lon="4.6012">
        <ele>727.59997558594</ele>
        <time>2026-05-12T11:22:08.000Z</time>
      </trkpt>
      <trkpt lat="45.26072" lon="4.60123">
        <ele>727.40002441406</ele>
        <time>2026-05-12T11:22:09.000Z</time>
      </trkpt>
      <trkpt lat="45.26069" lon="4.60126">
        <ele>727.40002441406</ele>
        <time>2026-05-12T11:22:10.000Z</time>
      </trkpt>
      <trkpt lat="45.26066" lon="4.60128">
        <ele>727.40002441406</ele>
        <time>2026-05-12T11:22:11.000Z</time>
      </trkpt>
      <trkpt lat="45.26063" lon="4.6013">
        <ele>727.40002441406</ele>
        <time>2026-05-12T11:22:12.000Z</time>
      </trkpt>
      <trkpt lat="45.26061" lon="4.60132">
        <ele>727.40002441406</ele>
        <time>2026-05-12T11:22:13.000Z</time>
      </trkpt>
      <trkpt lat="45.26059" lon="4.60134">
        <ele>727.20001220703</ele>
        <time>2026-05-12T11:22:14.000Z</time>
      </trkpt>
      <trkpt lat="45.26057" lon="4.60136">
        <ele>727.20001220703</ele>
        <time>2026-05-12T11:22:15.000Z</time>
      </trkpt>
      <trkpt lat="45.26056" lon="4.60138">
        <ele>727</ele>
        <time>2026-05-12T11:22:16.000Z</time>
      </trkpt>
      <trkpt lat="45.26054" lon="4.6014">
        <ele>726.59997558594</ele>
        <time>2026-05-12T11:22:17.000Z</time>
      </trkpt>
      <trkpt lat="45.26051" lon="4.60142">
        <ele>726.40002441406</ele>
        <time>2026-05-12T11:22:18.000Z</time>
      </trkpt>
      <trkpt lat="45.26048" lon="4.60145">
        <ele>726</ele>
        <time>2026-05-12T11:22:19.000Z</time>
      </trkpt>
      <trkpt lat="45.26045" lon="4.60148">
        <ele>725.59997558594</ele>
        <time>2026-05-12T11:22:20.000Z</time>
      </trkpt>
      <trkpt lat="45.26043" lon="4.60153">
        <ele>725.40002441406</ele>
        <time>2026-05-12T11:22:21.000Z</time>
      </trkpt>
      <trkpt lat="45.26041" lon="4.60158">
        <ele>725.20001220703</ele>
        <time>2026-05-12T11:22:22.000Z</time>
      </trkpt>
      <trkpt lat="45.26039" lon="4.60162">
        <ele>725</ele>
        <time>2026-05-12T11:22:23.000Z</time>
      </trkpt>
      <trkpt lat="45.26038" lon="4.60164">
        <ele>725</ele>
        <time>2026-05-12T11:22:24.000Z</time>
      </trkpt>
      <trkpt lat="45.26037" lon="4.60167">
        <ele>725.20001220703</ele>
        <time>2026-05-12T11:22:25.000Z</time>
      </trkpt>
      <trkpt lat="45.26037" lon="4.6017">
        <ele>725.59997558594</ele>
        <time>2026-05-12T11:22:26.000Z</time>
      </trkpt>
      <trkpt lat="45.26036" lon="4.60172">
        <ele>725.79998779297</ele>
        <time>2026-05-12T11:22:27.000Z</time>
      </trkpt>
      <trkpt lat="45.26036" lon="4.60175">
        <ele>726.20001220703</ele>
        <time>2026-05-12T11:22:28.000Z</time>
      </trkpt>
      <trkpt lat="45.26036" lon="4.60177">
        <ele>726.40002441406</ele>
        <time>2026-05-12T11:22:29.000Z</time>
      </trkpt>
      <trkpt lat="45.26036" lon="4.6018">
        <ele>726.59997558594</ele>
        <time>2026-05-12T11:22:30.000Z</time>
      </trkpt>
      <trkpt lat="45.26037" lon="4.60183">
        <ele>726.79998779297</ele>
        <time>2026-05-12T11:22:31.000Z</time>
      </trkpt>
      <trkpt lat="45.26038" lon="4.60186">
        <ele>727.20001220703</ele>
        <time>2026-05-12T11:22:32.000Z</time>
      </trkpt>
      <trkpt lat="45.26039" lon="4.60188">
        <ele>727.40002441406</ele>
        <time>2026-05-12T11:22:33.000Z</time>
      </trkpt>
      <trkpt lat="45.2604" lon="4.60191">
        <ele>727.79998779297</ele>
        <time>2026-05-12T11:22:34.000Z</time>
      </trkpt>
      <trkpt lat="45.26042" lon="4.60194">
        <ele>728</ele>
        <time>2026-05-12T11:22:35.000Z</time>
      </trkpt>
      <trkpt lat="45.26044" lon="4.60196">
        <ele>728.20001220703</ele>
        <time>2026-05-12T11:22:36.000Z</time>
      </trkpt>
      <trkpt lat="45.26046" lon="4.60198">
        <ele>728.59997558594</ele>
        <time>2026-05-12T11:22:37.000Z</time>
      </trkpt>
      <trkpt lat="45.26047" lon="4.602">
        <ele>729</ele>
        <time>2026-05-12T11:22:38.000Z</time>
      </trkpt>
      <trkpt lat="45.26049" lon="4.60202">
        <ele>729.40002441406</ele>
        <time>2026-05-12T11:22:39.000Z</time>
      </trkpt>
      <trkpt lat="45.26051" lon="4.60204">
        <ele>729.79998779297</ele>
        <time>2026-05-12T11:22:40.000Z</time>
      </trkpt>
      <trkpt lat="45.26052" lon="4.60205">
        <ele>730.20001220703</ele>
        <time>2026-05-12T11:22:41.000Z</time>
      </trkpt>
      <trkpt lat="45.26054" lon="4.60206">
        <ele>730.59997558594</ele>
        <time>2026-05-12T11:22:42.000Z</time>
      </trkpt>
      <trkpt lat="45.26056" lon="4.60208">
        <ele>731</ele>
        <time>2026-05-12T11:22:43.000Z</time>
      </trkpt>
      <trkpt lat="45.26058" lon="4.60209">
        <ele>731.20001220703</ele>
        <time>2026-05-12T11:22:44.000Z</time>
      </trkpt>
      <trkpt lat="45.2606" lon="4.60211">
        <ele>731.40002441406</ele>
        <time>2026-05-12T11:22:45.000Z</time>
      </trkpt>
      <trkpt lat="45.26062" lon="4.60212">
        <ele>731.79998779297</ele>
        <time>2026-05-12T11:22:46.000Z</time>
      </trkpt>
      <trkpt lat="45.26064" lon="4.60213">
        <ele>732</ele>
        <time>2026-05-12T11:22:47.000Z</time>
      </trkpt>
      <trkpt lat="45.26065" lon="4.60214">
        <ele>732.20001220703</ele>
        <time>2026-05-12T11:22:48.000Z</time>
      </trkpt>
      <trkpt lat="45.26067" lon="4.60216">
        <ele>732.40002441406</ele>
        <time>2026-05-12T11:22:49.000Z</time>
      </trkpt>
      <trkpt lat="45.26069" lon="4.60217">
        <ele>732.59997558594</ele>
        <time>2026-05-12T11:22:50.000Z</time>
      </trkpt>
      <trkpt lat="45.26071" lon="4.60217">
        <ele>732.79998779297</ele>
        <time>2026-05-12T11:22:51.000Z</time>
      </trkpt>
      <trkpt lat="45.26073" lon="4.60218">
        <ele>733</ele>
        <time>2026-05-12T11:22:52.000Z</time>
      </trkpt>
      <trkpt lat="45.26075" lon="4.60218">
        <ele>733.20001220703</ele>
        <time>2026-05-12T11:22:53.000Z</time>
      </trkpt>
      <trkpt lat="45.26077" lon="4.60219">
        <ele>733.40002441406</ele>
        <time>2026-05-12T11:22:54.000Z</time>
      </trkpt>
      <trkpt lat="45.26079" lon="4.6022">
        <ele>733.59997558594</ele>
        <time>2026-05-12T11:22:55.000Z</time>
      </trkpt>
      <trkpt lat="45.26082" lon="4.60221">
        <ele>733.79998779297</ele>
        <time>2026-05-12T11:22:56.000Z</time>
      </trkpt>
      <trkpt lat="45.26084" lon="4.60222">
        <ele>734</ele>
        <time>2026-05-12T11:22:57.000Z</time>
      </trkpt>
      <trkpt lat="45.26086" lon="4.60223">
        <ele>734</ele>
        <time>2026-05-12T11:22:58.000Z</time>
      </trkpt>
      <trkpt lat="45.26088" lon="4.60225">
        <ele>734.20001220703</ele>
        <time>2026-05-12T11:22:59.000Z</time>
      </trkpt>
      <trkpt lat="45.2609" lon="4.60226">
        <ele>734.20001220703</ele>
        <time>2026-05-12T11:23:00.000Z</time>
      </trkpt>
      <trkpt lat="45.26092" lon="4.60228">
        <ele>734.40002441406</ele>
        <time>2026-05-12T11:23:01.000Z</time>
      </trkpt>
      <trkpt lat="45.26094" lon="4.6023">
        <ele>734.40002441406</ele>
        <time>2026-05-12T11:23:02.000Z</time>
      </trkpt>
      <trkpt lat="45.26095" lon="4.60231">
        <ele>734.59997558594</ele>
        <time>2026-05-12T11:23:03.000Z</time>
      </trkpt>
      <trkpt lat="45.26097" lon="4.60232">
        <ele>734.79998779297</ele>
        <time>2026-05-12T11:23:04.000Z</time>
      </trkpt>
      <trkpt lat="45.26099" lon="4.60234">
        <ele>734.79998779297</ele>
        <time>2026-05-12T11:23:05.000Z</time>
      </trkpt>
      <trkpt lat="45.26101" lon="4.60236">
        <ele>734.79998779297</ele>
        <time>2026-05-12T11:23:06.000Z</time>
      </trkpt>
      <trkpt lat="45.26104" lon="4.60238">
        <ele>735</ele>
        <time>2026-05-12T11:23:07.000Z</time>
      </trkpt>
      <trkpt lat="45.26106" lon="4.60239">
        <ele>735</ele>
        <time>2026-05-12T11:23:08.000Z</time>
      </trkpt>
      <trkpt lat="45.26108" lon="4.60241">
        <ele>735</ele>
        <time>2026-05-12T11:23:09.000Z</time>
      </trkpt>
      <trkpt lat="45.26109" lon="4.60242">
        <ele>735</ele>
        <time>2026-05-12T11:23:10.000Z</time>
      </trkpt>
      <trkpt lat="45.26112" lon="4.60244">
        <ele>735</ele>
        <time>2026-05-12T11:23:11.000Z</time>
      </trkpt>
      <trkpt lat="45.26113" lon="4.60245">
        <ele>735.20001220703</ele>
        <time>2026-05-12T11:23:12.000Z</time>
      </trkpt>
      <trkpt lat="45.26116" lon="4.60247">
        <ele>735.20001220703</ele>
        <time>2026-05-12T11:23:13.000Z</time>
      </trkpt>
      <trkpt lat="45.26118" lon="4.60248">
        <ele>735.40002441406</ele>
        <time>2026-05-12T11:23:14.000Z</time>
      </trkpt>
      <trkpt lat="45.2612" lon="4.60249">
        <ele>735.59997558594</ele>
        <time>2026-05-12T11:23:15.000Z</time>
      </trkpt>
      <trkpt lat="45.26122" lon="4.60251">
        <ele>735.79998779297</ele>
        <time>2026-05-12T11:23:16.000Z</time>
      </trkpt>
      <trkpt lat="45.26124" lon="4.60252">
        <ele>735.79998779297</ele>
        <time>2026-05-12T11:23:17.000Z</time>
      </trkpt>
      <trkpt lat="45.26127" lon="4.60253">
        <ele>736</ele>
        <time>2026-05-12T11:23:18.000Z</time>
      </trkpt>
      <trkpt lat="45.2613" lon="4.60254">
        <ele>736.20001220703</ele>
        <time>2026-05-12T11:23:19.000Z</time>
      </trkpt>
      <trkpt lat="45.26132" lon="4.60256">
        <ele>736.40002441406</ele>
        <time>2026-05-12T11:23:20.000Z</time>
      </trkpt>
      <trkpt lat="45.26134" lon="4.60258">
        <ele>736.79998779297</ele>
        <time>2026-05-12T11:23:21.000Z</time>
      </trkpt>
      <trkpt lat="45.26136" lon="4.60261">
        <ele>737</ele>
        <time>2026-05-12T11:23:22.000Z</time>
      </trkpt>
      <trkpt lat="45.26137" lon="4.60263">
        <ele>737.40002441406</ele>
        <time>2026-05-12T11:23:23.000Z</time>
      </trkpt>
      <trkpt lat="45.26139" lon="4.60266">
        <ele>737.59997558594</ele>
        <time>2026-05-12T11:23:24.000Z</time>
      </trkpt>
      <trkpt lat="45.26142" lon="4.60268">
        <ele>737.79998779297</ele>
        <time>2026-05-12T11:23:25.000Z</time>
      </trkpt>
      <trkpt lat="45.26145" lon="4.6027">
        <ele>737.79998779297</ele>
        <time>2026-05-12T11:23:26.000Z</time>
      </trkpt>
      <trkpt lat="45.26146" lon="4.60273">
        <ele>737.79998779297</ele>
        <time>2026-05-12T11:23:27.000Z</time>
      </trkpt>
      <trkpt lat="45.26149" lon="4.60275">
        <ele>737.59997558594</ele>
        <time>2026-05-12T11:23:28.000Z</time>
      </trkpt>
      <trkpt lat="45.2615" lon="4.60277">
        <ele>737.59997558594</ele>
        <time>2026-05-12T11:23:29.000Z</time>
      </trkpt>
      <trkpt lat="45.26152" lon="4.60279">
        <ele>737.59997558594</ele>
        <time>2026-05-12T11:23:30.000Z</time>
      </trkpt>
      <trkpt lat="45.26154" lon="4.60282">
        <ele>737.79998779297</ele>
        <time>2026-05-12T11:23:31.000Z</time>
      </trkpt>
      <trkpt lat="45.26154" lon="4.60285">
        <ele>738</ele>
        <time>2026-05-12T11:23:32.000Z</time>
      </trkpt>
      <trkpt lat="45.26155" lon="4.60289">
        <ele>738</ele>
        <time>2026-05-12T11:23:33.000Z</time>
      </trkpt>
      <trkpt lat="45.26156" lon="4.60292">
        <ele>738.20001220703</ele>
        <time>2026-05-12T11:23:34.000Z</time>
      </trkpt>
      <trkpt lat="45.26158" lon="4.60295">
        <ele>738.40002441406</ele>
        <time>2026-05-12T11:23:35.000Z</time>
      </trkpt>
      <trkpt lat="45.26159" lon="4.60298">
        <ele>738.40002441406</ele>
        <time>2026-05-12T11:23:36.000Z</time>
      </trkpt>
      <trkpt lat="45.26159" lon="4.60302">
        <ele>738.59997558594</ele>
        <time>2026-05-12T11:23:37.000Z</time>
      </trkpt>
      <trkpt lat="45.2616" lon="4.60306">
        <ele>738.59997558594</ele>
        <time>2026-05-12T11:23:38.000Z</time>
      </trkpt>
      <trkpt lat="45.2616" lon="4.60309">
        <ele>738.79998779297</ele>
        <time>2026-05-12T11:23:39.000Z</time>
      </trkpt>
      <trkpt lat="45.26161" lon="4.60313">
        <ele>738.79998779297</ele>
        <time>2026-05-12T11:23:40.000Z</time>
      </trkpt>
      <trkpt lat="45.26161" lon="4.60316">
        <ele>739</ele>
        <time>2026-05-12T11:23:41.000Z</time>
      </trkpt>
      <trkpt lat="45.26162" lon="4.6032">
        <ele>739</ele>
        <time>2026-05-12T11:23:42.000Z</time>
      </trkpt>
      <trkpt lat="45.26162" lon="4.60323">
        <ele>739.20001220703</ele>
        <time>2026-05-12T11:23:43.000Z</time>
      </trkpt>
      <trkpt lat="45.26163" lon="4.60327">
        <ele>739.40002441406</ele>
        <time>2026-05-12T11:23:44.000Z</time>
      </trkpt>
      <trkpt lat="45.26164" lon="4.6033">
        <ele>739.59997558594</ele>
        <time>2026-05-12T11:23:45.000Z</time>
      </trkpt>
      <trkpt lat="45.26165" lon="4.60334">
        <ele>739.59997558594</ele>
        <time>2026-05-12T11:23:46.000Z</time>
      </trkpt>
      <trkpt lat="45.26166" lon="4.60337">
        <ele>739.59997558594</ele>
        <time>2026-05-12T11:23:47.000Z</time>
      </trkpt>
      <trkpt lat="45.26167" lon="4.6034">
        <ele>739.79998779297</ele>
        <time>2026-05-12T11:23:48.000Z</time>
      </trkpt>
      <trkpt lat="45.26168" lon="4.60343">
        <ele>739.79998779297</ele>
        <time>2026-05-12T11:23:49.000Z</time>
      </trkpt>
      <trkpt lat="45.26169" lon="4.60347">
        <ele>739.79998779297</ele>
        <time>2026-05-12T11:23:50.000Z</time>
      </trkpt>
      <trkpt lat="45.2617" lon="4.6035">
        <ele>739.79998779297</ele>
        <time>2026-05-12T11:23:51.000Z</time>
      </trkpt>
      <trkpt lat="45.26172" lon="4.60353">
        <ele>739.79998779297</ele>
        <time>2026-05-12T11:23:52.000Z</time>
      </trkpt>
      <trkpt lat="45.26173" lon="4.60356">
        <ele>740</ele>
        <time>2026-05-12T11:23:53.000Z</time>
      </trkpt>
      <trkpt lat="45.26174" lon="4.60359">
        <ele>740.20001220703</ele>
        <time>2026-05-12T11:23:54.000Z</time>
      </trkpt>
      <trkpt lat="45.26175" lon="4.60362">
        <ele>740.20001220703</ele>
        <time>2026-05-12T11:23:55.000Z</time>
      </trkpt>
      <trkpt lat="45.26176" lon="4.60365">
        <ele>740.40002441406</ele>
        <time>2026-05-12T11:23:56.000Z</time>
      </trkpt>
      <trkpt lat="45.26177" lon="4.60369">
        <ele>740.40002441406</ele>
        <time>2026-05-12T11:23:57.000Z</time>
      </trkpt>
      <trkpt lat="45.26177" lon="4.60372">
        <ele>740.59997558594</ele>
        <time>2026-05-12T11:23:58.000Z</time>
      </trkpt>
      <trkpt lat="45.26178" lon="4.60375">
        <ele>740.59997558594</ele>
        <time>2026-05-12T11:23:59.000Z</time>
      </trkpt>
      <trkpt lat="45.26179" lon="4.60379">
        <ele>740.79998779297</ele>
        <time>2026-05-12T11:24:00.000Z</time>
      </trkpt>
      <trkpt lat="45.2618" lon="4.60382">
        <ele>740.79998779297</ele>
        <time>2026-05-12T11:24:01.000Z</time>
      </trkpt>
      <trkpt lat="45.26182" lon="4.60385">
        <ele>741</ele>
        <time>2026-05-12T11:24:02.000Z</time>
      </trkpt>
      <trkpt lat="45.26183" lon="4.60389">
        <ele>741</ele>
        <time>2026-05-12T11:24:03.000Z</time>
      </trkpt>
      <trkpt lat="45.26184" lon="4.60392">
        <ele>741</ele>
        <time>2026-05-12T11:24:04.000Z</time>
      </trkpt>
      <trkpt lat="45.26185" lon="4.60395">
        <ele>741</ele>
        <time>2026-05-12T11:24:05.000Z</time>
      </trkpt>
      <trkpt lat="45.26187" lon="4.60398">
        <ele>741</ele>
        <time>2026-05-12T11:24:06.000Z</time>
      </trkpt>
      <trkpt lat="45.26188" lon="4.60401">
        <ele>741.20001220703</ele>
        <time>2026-05-12T11:24:07.000Z</time>
      </trkpt>
      <trkpt lat="45.26189" lon="4.60404">
        <ele>741.20001220703</ele>
        <time>2026-05-12T11:24:08.000Z</time>
      </trkpt>
      <trkpt lat="45.26191" lon="4.60407">
        <ele>741.20001220703</ele>
        <time>2026-05-12T11:24:09.000Z</time>
      </trkpt>
      <trkpt lat="45.26192" lon="4.60409">
        <ele>741.20001220703</ele>
        <time>2026-05-12T11:24:10.000Z</time>
      </trkpt>
      <trkpt lat="45.26193" lon="4.60412">
        <ele>741.40002441406</ele>
        <time>2026-05-12T11:24:11.000Z</time>
      </trkpt>
      <trkpt lat="45.26194" lon="4.60415">
        <ele>741.40002441406</ele>
        <time>2026-05-12T11:24:12.000Z</time>
      </trkpt>
      <trkpt lat="45.26195" lon="4.60419">
        <ele>741.40002441406</ele>
        <time>2026-05-12T11:24:13.000Z</time>
      </trkpt>
      <trkpt lat="45.26197" lon="4.60422">
        <ele>741.40002441406</ele>
        <time>2026-05-12T11:24:14.000Z</time>
      </trkpt>
      <trkpt lat="45.26198" lon="4.60424">
        <ele>741.40002441406</ele>
        <time>2026-05-12T11:24:15.000Z</time>
      </trkpt>
      <trkpt lat="45.262" lon="4.60427">
        <ele>741.40002441406</ele>
        <time>2026-05-12T11:24:16.000Z</time>
      </trkpt>
      <trkpt lat="45.26201" lon="4.60429">
        <ele>741.40002441406</ele>
        <time>2026-05-12T11:24:17.000Z</time>
      </trkpt>
      <trkpt lat="45.26203" lon="4.60432">
        <ele>741.40002441406</ele>
        <time>2026-05-12T11:24:18.000Z</time>
      </trkpt>
      <trkpt lat="45.26204" lon="4.60435">
        <ele>741.40002441406</ele>
        <time>2026-05-12T11:24:19.000Z</time>
      </trkpt>
      <trkpt lat="45.26207" lon="4.60437">
        <ele>741.40002441406</ele>
        <time>2026-05-12T11:24:20.000Z</time>
      </trkpt>
      <trkpt lat="45.26208" lon="4.6044">
        <ele>741.40002441406</ele>
        <time>2026-05-12T11:24:21.000Z</time>
      </trkpt>
      <trkpt lat="45.26211" lon="4.60443">
        <ele>741.59997558594</ele>
        <time>2026-05-12T11:24:22.000Z</time>
      </trkpt>
      <trkpt lat="45.26213" lon="4.60445">
        <ele>741.59997558594</ele>
        <time>2026-05-12T11:24:23.000Z</time>
      </trkpt>
      <trkpt lat="45.26215" lon="4.60447">
        <ele>741.59997558594</ele>
        <time>2026-05-12T11:24:24.000Z</time>
      </trkpt>
      <trkpt lat="45.26218" lon="4.60449">
        <ele>741.59997558594</ele>
        <time>2026-05-12T11:24:25.000Z</time>
      </trkpt>
      <trkpt lat="45.2622" lon="4.6045">
        <ele>741.40002441406</ele>
        <time>2026-05-12T11:24:26.000Z</time>
      </trkpt>
      <trkpt lat="45.26222" lon="4.60452">
        <ele>741.40002441406</ele>
        <time>2026-05-12T11:24:27.000Z</time>
      </trkpt>
      <trkpt lat="45.26225" lon="4.60453">
        <ele>741.40002441406</ele>
        <time>2026-05-12T11:24:28.000Z</time>
      </trkpt>
      <trkpt lat="45.26229" lon="4.60455">
        <ele>741.40002441406</ele>
        <time>2026-05-12T11:24:29.000Z</time>
      </trkpt>
      <trkpt lat="45.26232" lon="4.60457">
        <ele>741.20001220703</ele>
        <time>2026-05-12T11:24:30.000Z</time>
      </trkpt>
      <trkpt lat="45.26235" lon="4.60459">
        <ele>741.20001220703</ele>
        <time>2026-05-12T11:24:31.000Z</time>
      </trkpt>
      <trkpt lat="45.26238" lon="4.60461">
        <ele>741.20001220703</ele>
        <time>2026-05-12T11:24:32.000Z</time>
      </trkpt>
      <trkpt lat="45.26241" lon="4.60464">
        <ele>741.20001220703</ele>
        <time>2026-05-12T11:24:33.000Z</time>
      </trkpt>
      <trkpt lat="45.26245" lon="4.60466">
        <ele>741.20001220703</ele>
        <time>2026-05-12T11:24:34.000Z</time>
      </trkpt>
      <trkpt lat="45.26248" lon="4.60468">
        <ele>741.20001220703</ele>
        <time>2026-05-12T11:24:35.000Z</time>
      </trkpt>
      <trkpt lat="45.2625" lon="4.6047">
        <ele>741.20001220703</ele>
        <time>2026-05-12T11:24:36.000Z</time>
      </trkpt>
      <trkpt lat="45.26252" lon="4.60472">
        <ele>741.20001220703</ele>
        <time>2026-05-12T11:24:37.000Z</time>
      </trkpt>
      <trkpt lat="45.26254" lon="4.60474">
        <ele>741.40002441406</ele>
        <time>2026-05-12T11:24:38.000Z</time>
      </trkpt>
      <trkpt lat="45.26255" lon="4.60476">
        <ele>741.40002441406</ele>
        <time>2026-05-12T11:24:39.000Z</time>
      </trkpt>
      <trkpt lat="45.26257" lon="4.60478">
        <ele>741.40002441406</ele>
        <time>2026-05-12T11:24:40.000Z</time>
      </trkpt>
      <trkpt lat="45.26259" lon="4.6048">
        <ele>741.40002441406</ele>
        <time>2026-05-12T11:24:41.000Z</time>
      </trkpt>
      <trkpt lat="45.26262" lon="4.60483">
        <ele>741.40002441406</ele>
        <time>2026-05-12T11:24:42.000Z</time>
      </trkpt>
      <trkpt lat="45.26264" lon="4.60485">
        <ele>741.59997558594</ele>
        <time>2026-05-12T11:24:43.000Z</time>
      </trkpt>
      <trkpt lat="45.26267" lon="4.60487">
        <ele>741.59997558594</ele>
        <time>2026-05-12T11:24:44.000Z</time>
      </trkpt>
      <trkpt lat="45.2627" lon="4.60489">
        <ele>741.59997558594</ele>
        <time>2026-05-12T11:24:45.000Z</time>
      </trkpt>
      <trkpt lat="45.26272" lon="4.60491">
        <ele>741.59997558594</ele>
        <time>2026-05-12T11:24:46.000Z</time>
      </trkpt>
      <trkpt lat="45.26274" lon="4.60494">
        <ele>741.79998779297</ele>
        <time>2026-05-12T11:24:47.000Z</time>
      </trkpt>
      <trkpt lat="45.26276" lon="4.60496">
        <ele>741.79998779297</ele>
        <time>2026-05-12T11:24:48.000Z</time>
      </trkpt>
      <trkpt lat="45.26278" lon="4.60499">
        <ele>742</ele>
        <time>2026-05-12T11:24:49.000Z</time>
      </trkpt>
      <trkpt lat="45.26281" lon="4.60501">
        <ele>742</ele>
        <time>2026-05-12T11:24:50.000Z</time>
      </trkpt>
      <trkpt lat="45.26283" lon="4.60503">
        <ele>742.20001220703</ele>
        <time>2026-05-12T11:24:51.000Z</time>
      </trkpt>
      <trkpt lat="45.26285" lon="4.60505">
        <ele>742.20001220703</ele>
        <time>2026-05-12T11:24:52.000Z</time>
      </trkpt>
      <trkpt lat="45.26287" lon="4.60507">
        <ele>742.40002441406</ele>
        <time>2026-05-12T11:24:53.000Z</time>
      </trkpt>
      <trkpt lat="45.26289" lon="4.60509">
        <ele>742.40002441406</ele>
        <time>2026-05-12T11:24:54.000Z</time>
      </trkpt>
      <trkpt lat="45.26291" lon="4.60512">
        <ele>742.40002441406</ele>
        <time>2026-05-12T11:24:55.000Z</time>
      </trkpt>
      <trkpt lat="45.26293" lon="4.60514">
        <ele>742.59997558594</ele>
        <time>2026-05-12T11:24:56.000Z</time>
      </trkpt>
      <trkpt lat="45.26295" lon="4.60516">
        <ele>742.59997558594</ele>
        <time>2026-05-12T11:24:57.000Z</time>
      </trkpt>
      <trkpt lat="45.26297" lon="4.60519">
        <ele>742.59997558594</ele>
        <time>2026-05-12T11:24:58.000Z</time>
      </trkpt>
      <trkpt lat="45.263" lon="4.6052">
        <ele>742.79998779297</ele>
        <time>2026-05-12T11:24:59.000Z</time>
      </trkpt>
      <trkpt lat="45.26302" lon="4.60522">
        <ele>742.79998779297</ele>
        <time>2026-05-12T11:25:00.000Z</time>
      </trkpt>
      <trkpt lat="45.26304" lon="4.60524">
        <ele>743</ele>
        <time>2026-05-12T11:25:01.000Z</time>
      </trkpt>
      <trkpt lat="45.26307" lon="4.60526">
        <ele>743.20001220703</ele>
        <time>2026-05-12T11:25:02.000Z</time>
      </trkpt>
      <trkpt lat="45.26309" lon="4.60527">
        <ele>743.20001220703</ele>
        <time>2026-05-12T11:25:03.000Z</time>
      </trkpt>
      <trkpt lat="45.26312" lon="4.60528">
        <ele>743.40002441406</ele>
        <time>2026-05-12T11:25:04.000Z</time>
      </trkpt>
      <trkpt lat="45.26315" lon="4.6053">
        <ele>743.40002441406</ele>
        <time>2026-05-12T11:25:05.000Z</time>
      </trkpt>
      <trkpt lat="45.26318" lon="4.60531">
        <ele>743.59997558594</ele>
        <time>2026-05-12T11:25:06.000Z</time>
      </trkpt>
      <trkpt lat="45.26321" lon="4.60532">
        <ele>743.59997558594</ele>
        <time>2026-05-12T11:25:07.000Z</time>
      </trkpt>
      <trkpt lat="45.26323" lon="4.60532">
        <ele>743.59997558594</ele>
        <time>2026-05-12T11:25:08.000Z</time>
      </trkpt>
      <trkpt lat="45.26326" lon="4.60532">
        <ele>743.79998779297</ele>
        <time>2026-05-12T11:25:09.000Z</time>
      </trkpt>
      <trkpt lat="45.26329" lon="4.60532">
        <ele>743.79998779297</ele>
        <time>2026-05-12T11:25:10.000Z</time>
      </trkpt>
      <trkpt lat="45.26331" lon="4.60533">
        <ele>743.79998779297</ele>
        <time>2026-05-12T11:25:11.000Z</time>
      </trkpt>
      <trkpt lat="45.26334" lon="4.60533">
        <ele>743.79998779297</ele>
        <time>2026-05-12T11:25:12.000Z</time>
      </trkpt>
      <trkpt lat="45.26337" lon="4.60533">
        <ele>743.79998779297</ele>
        <time>2026-05-12T11:25:13.000Z</time>
      </trkpt>
      <trkpt lat="45.26341" lon="4.60533">
        <ele>743.79998779297</ele>
        <time>2026-05-12T11:25:14.000Z</time>
      </trkpt>
      <trkpt lat="45.26345" lon="4.60533">
        <ele>743.59997558594</ele>
        <time>2026-05-12T11:25:15.000Z</time>
      </trkpt>
      <trkpt lat="45.26348" lon="4.60533">
        <ele>743.40002441406</ele>
        <time>2026-05-12T11:25:16.000Z</time>
      </trkpt>
      <trkpt lat="45.26352" lon="4.60533">
        <ele>743.20001220703</ele>
        <time>2026-05-12T11:25:17.000Z</time>
      </trkpt>
      <trkpt lat="45.26355" lon="4.60535">
        <ele>743</ele>
        <time>2026-05-12T11:25:18.000Z</time>
      </trkpt>
      <trkpt lat="45.26358" lon="4.60536">
        <ele>742.79998779297</ele>
        <time>2026-05-12T11:25:19.000Z</time>
      </trkpt>
      <trkpt lat="45.2636" lon="4.60538">
        <ele>742.79998779297</ele>
        <time>2026-05-12T11:25:20.000Z</time>
      </trkpt>
      <trkpt lat="45.26362" lon="4.6054">
        <ele>742.79998779297</ele>
        <time>2026-05-12T11:25:21.000Z</time>
      </trkpt>
      <trkpt lat="45.26364" lon="4.60542">
        <ele>743</ele>
        <time>2026-05-12T11:25:22.000Z</time>
      </trkpt>
      <trkpt lat="45.26366" lon="4.60544">
        <ele>743</ele>
        <time>2026-05-12T11:25:23.000Z</time>
      </trkpt>
      <trkpt lat="45.26368" lon="4.60547">
        <ele>743.20001220703</ele>
        <time>2026-05-12T11:25:24.000Z</time>
      </trkpt>
      <trkpt lat="45.26371" lon="4.6055">
        <ele>743.20001220703</ele>
        <time>2026-05-12T11:25:25.000Z</time>
      </trkpt>
      <trkpt lat="45.26372" lon="4.60553">
        <ele>743.40002441406</ele>
        <time>2026-05-12T11:25:26.000Z</time>
      </trkpt>
      <trkpt lat="45.26373" lon="4.60556">
        <ele>743.40002441406</ele>
        <time>2026-05-12T11:25:27.000Z</time>
      </trkpt>
      <trkpt lat="45.26373" lon="4.60561">
        <ele>743.40002441406</ele>
        <time>2026-05-12T11:25:28.000Z</time>
      </trkpt>
      <trkpt lat="45.26374" lon="4.60565">
        <ele>743.40002441406</ele>
        <time>2026-05-12T11:25:29.000Z</time>
      </trkpt>
      <trkpt lat="45.26373" lon="4.60571">
        <ele>743.40002441406</ele>
        <time>2026-05-12T11:25:30.000Z</time>
      </trkpt>
      <trkpt lat="45.26372" lon="4.60576">
        <ele>743.20001220703</ele>
        <time>2026-05-12T11:25:31.000Z</time>
      </trkpt>
      <trkpt lat="45.26371" lon="4.60581">
        <ele>743.20001220703</ele>
        <time>2026-05-12T11:25:32.000Z</time>
      </trkpt>
      <trkpt lat="45.26371" lon="4.60586">
        <ele>743</ele>
        <time>2026-05-12T11:25:33.000Z</time>
      </trkpt>
      <trkpt lat="45.2637" lon="4.60591">
        <ele>743</ele>
        <time>2026-05-12T11:25:34.000Z</time>
      </trkpt>
      <trkpt lat="45.2637" lon="4.60596">
        <ele>743</ele>
        <time>2026-05-12T11:25:35.000Z</time>
      </trkpt>
      <trkpt lat="45.26369" lon="4.60599">
        <ele>743</ele>
        <time>2026-05-12T11:25:36.000Z</time>
      </trkpt>
      <trkpt lat="45.26369" lon="4.60603">
        <ele>743</ele>
        <time>2026-05-12T11:25:37.000Z</time>
      </trkpt>
      <trkpt lat="45.26368" lon="4.60606">
        <ele>743</ele>
        <time>2026-05-12T11:25:38.000Z</time>
      </trkpt>
      <trkpt lat="45.26368" lon="4.6061">
        <ele>743.20001220703</ele>
        <time>2026-05-12T11:25:39.000Z</time>
      </trkpt>
      <trkpt lat="45.26367" lon="4.60614">
        <ele>743.20001220703</ele>
        <time>2026-05-12T11:25:40.000Z</time>
      </trkpt>
      <trkpt lat="45.26367" lon="4.60618">
        <ele>743.20001220703</ele>
        <time>2026-05-12T11:25:41.000Z</time>
      </trkpt>
      <trkpt lat="45.26366" lon="4.60622">
        <ele>743.20001220703</ele>
        <time>2026-05-12T11:25:42.000Z</time>
      </trkpt>
      <trkpt lat="45.26366" lon="4.60626">
        <ele>743.20001220703</ele>
        <time>2026-05-12T11:25:43.000Z</time>
      </trkpt>
      <trkpt lat="45.26366" lon="4.6063">
        <ele>743.20001220703</ele>
        <time>2026-05-12T11:25:44.000Z</time>
      </trkpt>
      <trkpt lat="45.26365" lon="4.60634">
        <ele>743.20001220703</ele>
        <time>2026-05-12T11:25:45.000Z</time>
      </trkpt>
      <trkpt lat="45.26365" lon="4.60638">
        <ele>743.20001220703</ele>
        <time>2026-05-12T11:25:46.000Z</time>
      </trkpt>
      <trkpt lat="45.26365" lon="4.60642">
        <ele>743.40002441406</ele>
        <time>2026-05-12T11:25:47.000Z</time>
      </trkpt>
      <trkpt lat="45.26365" lon="4.60646">
        <ele>743.40002441406</ele>
        <time>2026-05-12T11:25:48.000Z</time>
      </trkpt>
      <trkpt lat="45.26365" lon="4.60649">
        <ele>743.40002441406</ele>
        <time>2026-05-12T11:25:49.000Z</time>
      </trkpt>
      <trkpt lat="45.26365" lon="4.60653">
        <ele>743.40002441406</ele>
        <time>2026-05-12T11:25:50.000Z</time>
      </trkpt>
      <trkpt lat="45.26364" lon="4.60657">
        <ele>743.59997558594</ele>
        <time>2026-05-12T11:25:51.000Z</time>
      </trkpt>
      <trkpt lat="45.26363" lon="4.6066">
        <ele>743.59997558594</ele>
        <time>2026-05-12T11:25:52.000Z</time>
      </trkpt>
      <trkpt lat="45.26362" lon="4.60664">
        <ele>743.79998779297</ele>
        <time>2026-05-12T11:25:53.000Z</time>
      </trkpt>
      <trkpt lat="45.26362" lon="4.60667">
        <ele>743.79998779297</ele>
        <time>2026-05-12T11:25:54.000Z</time>
      </trkpt>
      <trkpt lat="45.26362" lon="4.6067">
        <ele>744</ele>
        <time>2026-05-12T11:25:55.000Z</time>
      </trkpt>
      <trkpt lat="45.26362" lon="4.60674">
        <ele>744</ele>
        <time>2026-05-12T11:25:56.000Z</time>
      </trkpt>
      <trkpt lat="45.26361" lon="4.60677">
        <ele>744.20001220703</ele>
        <time>2026-05-12T11:25:57.000Z</time>
      </trkpt>
      <trkpt lat="45.26361" lon="4.6068">
        <ele>744.20001220703</ele>
        <time>2026-05-12T11:25:58.000Z</time>
      </trkpt>
      <trkpt lat="45.26359" lon="4.60683">
        <ele>744.40002441406</ele>
        <time>2026-05-12T11:25:59.000Z</time>
      </trkpt>
      <trkpt lat="45.26358" lon="4.60687">
        <ele>744.59997558594</ele>
        <time>2026-05-12T11:26:00.000Z</time>
      </trkpt>
      <trkpt lat="45.26356" lon="4.6069">
        <ele>744.79998779297</ele>
        <time>2026-05-12T11:26:01.000Z</time>
      </trkpt>
      <trkpt lat="45.26354" lon="4.60693">
        <ele>745</ele>
        <time>2026-05-12T11:26:02.000Z</time>
      </trkpt>
      <trkpt lat="45.26352" lon="4.60696">
        <ele>745.20001220703</ele>
        <time>2026-05-12T11:26:03.000Z</time>
      </trkpt>
      <trkpt lat="45.2635" lon="4.60699">
        <ele>745.40002441406</ele>
        <time>2026-05-12T11:26:04.000Z</time>
      </trkpt>
      <trkpt lat="45.26348" lon="4.60702">
        <ele>745.79998779297</ele>
        <time>2026-05-12T11:26:05.000Z</time>
      </trkpt>
      <trkpt lat="45.26347" lon="4.60705">
        <ele>746</ele>
        <time>2026-05-12T11:26:06.000Z</time>
      </trkpt>
      <trkpt lat="45.26346" lon="4.60708">
        <ele>746.20001220703</ele>
        <time>2026-05-12T11:26:07.000Z</time>
      </trkpt>
      <trkpt lat="45.26344" lon="4.60711">
        <ele>746.59997558594</ele>
        <time>2026-05-12T11:26:08.000Z</time>
      </trkpt>
      <trkpt lat="45.26343" lon="4.60715">
        <ele>747</ele>
        <time>2026-05-12T11:26:09.000Z</time>
      </trkpt>
      <trkpt lat="45.26342" lon="4.60718">
        <ele>747.20001220703</ele>
        <time>2026-05-12T11:26:10.000Z</time>
      </trkpt>
      <trkpt lat="45.2634" lon="4.60721">
        <ele>747.59997558594</ele>
        <time>2026-05-12T11:26:11.000Z</time>
      </trkpt>
      <trkpt lat="45.26339" lon="4.60725">
        <ele>748</ele>
        <time>2026-05-12T11:26:12.000Z</time>
      </trkpt>
      <trkpt lat="45.26339" lon="4.60728">
        <ele>748.40002441406</ele>
        <time>2026-05-12T11:26:13.000Z</time>
      </trkpt>
      <trkpt lat="45.26338" lon="4.60732">
        <ele>748.59997558594</ele>
        <time>2026-05-12T11:26:14.000Z</time>
      </trkpt>
      <trkpt lat="45.26338" lon="4.60735">
        <ele>748.79998779297</ele>
        <time>2026-05-12T11:26:15.000Z</time>
      </trkpt>
      <trkpt lat="45.26336" lon="4.60738">
        <ele>749.20001220703</ele>
        <time>2026-05-12T11:26:16.000Z</time>
      </trkpt>
      <trkpt lat="45.26335" lon="4.60741">
        <ele>749.59997558594</ele>
        <time>2026-05-12T11:26:17.000Z</time>
      </trkpt>
      <trkpt lat="45.26334" lon="4.60745">
        <ele>749.79998779297</ele>
        <time>2026-05-12T11:26:18.000Z</time>
      </trkpt>
      <trkpt lat="45.26333" lon="4.60747">
        <ele>750</ele>
        <time>2026-05-12T11:26:19.000Z</time>
      </trkpt>
      <trkpt lat="45.26332" lon="4.6075">
        <ele>750.40002441406</ele>
        <time>2026-05-12T11:26:20.000Z</time>
      </trkpt>
      <trkpt lat="45.26331" lon="4.60753">
        <ele>750.59997558594</ele>
        <time>2026-05-12T11:26:21.000Z</time>
      </trkpt>
      <trkpt lat="45.2633" lon="4.60757">
        <ele>750.79998779297</ele>
        <time>2026-05-12T11:26:22.000Z</time>
      </trkpt>
      <trkpt lat="45.26328" lon="4.6076">
        <ele>751</ele>
        <time>2026-05-12T11:26:23.000Z</time>
      </trkpt>
      <trkpt lat="45.26327" lon="4.60763">
        <ele>751</ele>
        <time>2026-05-12T11:26:24.000Z</time>
      </trkpt>
      <trkpt lat="45.26325" lon="4.60766">
        <ele>751.20001220703</ele>
        <time>2026-05-12T11:26:25.000Z</time>
      </trkpt>
      <trkpt lat="45.26324" lon="4.60769">
        <ele>751.40002441406</ele>
        <time>2026-05-12T11:26:26.000Z</time>
      </trkpt>
      <trkpt lat="45.26323" lon="4.60772">
        <ele>751.40002441406</ele>
        <time>2026-05-12T11:26:27.000Z</time>
      </trkpt>
      <trkpt lat="45.26321" lon="4.60775">
        <ele>751.59997558594</ele>
        <time>2026-05-12T11:26:28.000Z</time>
      </trkpt>
      <trkpt lat="45.2632" lon="4.60778">
        <ele>751.79998779297</ele>
        <time>2026-05-12T11:26:29.000Z</time>
      </trkpt>
      <trkpt lat="45.26319" lon="4.60781">
        <ele>752</ele>
        <time>2026-05-12T11:26:30.000Z</time>
      </trkpt>
      <trkpt lat="45.26318" lon="4.60784">
        <ele>752</ele>
        <time>2026-05-12T11:26:31.000Z</time>
      </trkpt>
      <trkpt lat="45.26316" lon="4.60786">
        <ele>752.20001220703</ele>
        <time>2026-05-12T11:26:32.000Z</time>
      </trkpt>
      <trkpt lat="45.26315" lon="4.60789">
        <ele>752.40002441406</ele>
        <time>2026-05-12T11:26:33.000Z</time>
      </trkpt>
      <trkpt lat="45.26313" lon="4.60792">
        <ele>752.40002441406</ele>
        <time>2026-05-12T11:26:34.000Z</time>
      </trkpt>
      <trkpt lat="45.26312" lon="4.60795">
        <ele>752.59997558594</ele>
        <time>2026-05-12T11:26:35.000Z</time>
      </trkpt>
      <trkpt lat="45.26311" lon="4.60799">
        <ele>752.59997558594</ele>
        <time>2026-05-12T11:26:36.000Z</time>
      </trkpt>
      <trkpt lat="45.2631" lon="4.60802">
        <ele>752.59997558594</ele>
        <time>2026-05-12T11:26:37.000Z</time>
      </trkpt>
      <trkpt lat="45.26309" lon="4.60805">
        <ele>752.59997558594</ele>
        <time>2026-05-12T11:26:38.000Z</time>
      </trkpt>
      <trkpt lat="45.26309" lon="4.60808">
        <ele>752.59997558594</ele>
        <time>2026-05-12T11:26:39.000Z</time>
      </trkpt>
      <trkpt lat="45.26309" lon="4.60811">
        <ele>752.79998779297</ele>
        <time>2026-05-12T11:26:40.000Z</time>
      </trkpt>
      <trkpt lat="45.26309" lon="4.60814">
        <ele>753</ele>
        <time>2026-05-12T11:26:41.000Z</time>
      </trkpt>
      <trkpt lat="45.26309" lon="4.60817">
        <ele>753.20001220703</ele>
        <time>2026-05-12T11:26:42.000Z</time>
      </trkpt>
      <trkpt lat="45.26309" lon="4.6082">
        <ele>753.40002441406</ele>
        <time>2026-05-12T11:26:43.000Z</time>
      </trkpt>
      <trkpt lat="45.2631" lon="4.60822">
        <ele>753.59997558594</ele>
        <time>2026-05-12T11:26:44.000Z</time>
      </trkpt>
      <trkpt lat="45.2631" lon="4.60824">
        <ele>753.79998779297</ele>
        <time>2026-05-12T11:26:45.000Z</time>
      </trkpt>
      <trkpt lat="45.2631" lon="4.60825">
        <ele>754</ele>
        <time>2026-05-12T11:26:46.000Z</time>
      </trkpt>
      <trkpt lat="45.2631" lon="4.60825">
        <ele>754</ele>
        <time>2026-05-12T11:26:47.000Z</time>
      </trkpt>
      <trkpt lat="45.26318" lon="4.60835">
        <ele>753.40002441406</ele>
        <time>2026-05-12T11:28:11.000Z</time>
      </trkpt>
      <trkpt lat="45.2632" lon="4.60837">
        <ele>753.40002441406</ele>
        <time>2026-05-12T11:28:12.000Z</time>
      </trkpt>
      <trkpt lat="45.26322" lon="4.60838">
        <ele>753.20001220703</ele>
        <time>2026-05-12T11:28:13.000Z</time>
      </trkpt>
      <trkpt lat="45.26324" lon="4.6084">
        <ele>753.20001220703</ele>
        <time>2026-05-12T11:28:14.000Z</time>
      </trkpt>
      <trkpt lat="45.26326" lon="4.60842">
        <ele>753</ele>
        <time>2026-05-12T11:28:15.000Z</time>
      </trkpt>
      <trkpt lat="45.26329" lon="4.60843">
        <ele>753</ele>
        <time>2026-05-12T11:28:16.000Z</time>
      </trkpt>
      <trkpt lat="45.26332" lon="4.60845">
        <ele>752.79998779297</ele>
        <time>2026-05-12T11:28:17.000Z</time>
      </trkpt>
      <trkpt lat="45.26335" lon="4.60846">
        <ele>752.79998779297</ele>
        <time>2026-05-12T11:28:18.000Z</time>
      </trkpt>
      <trkpt lat="45.26338" lon="4.60847">
        <ele>752.79998779297</ele>
        <time>2026-05-12T11:28:19.000Z</time>
      </trkpt>
      <trkpt lat="45.26341" lon="4.60847">
        <ele>752.79998779297</ele>
        <time>2026-05-12T11:28:20.000Z</time>
      </trkpt>
      <trkpt lat="45.26344" lon="4.60848">
        <ele>752.79998779297</ele>
        <time>2026-05-12T11:28:21.000Z</time>
      </trkpt>
      <trkpt lat="45.26346" lon="4.60849">
        <ele>753</ele>
        <time>2026-05-12T11:28:22.000Z</time>
      </trkpt>
      <trkpt lat="45.26349" lon="4.60851">
        <ele>753.40002441406</ele>
        <time>2026-05-12T11:28:23.000Z</time>
      </trkpt>
      <trkpt lat="45.26351" lon="4.60852">
        <ele>753.59997558594</ele>
        <time>2026-05-12T11:28:24.000Z</time>
      </trkpt>
      <trkpt lat="45.26354" lon="4.60853">
        <ele>754</ele>
        <time>2026-05-12T11:28:25.000Z</time>
      </trkpt>
      <trkpt lat="45.26356" lon="4.60855">
        <ele>754.40002441406</ele>
        <time>2026-05-12T11:28:26.000Z</time>
      </trkpt>
      <trkpt lat="45.26358" lon="4.60857">
        <ele>754.59997558594</ele>
        <time>2026-05-12T11:28:27.000Z</time>
      </trkpt>
      <trkpt lat="45.2636" lon="4.6086">
        <ele>754.79998779297</ele>
        <time>2026-05-12T11:28:28.000Z</time>
      </trkpt>
      <trkpt lat="45.26362" lon="4.60863">
        <ele>755</ele>
        <time>2026-05-12T11:28:29.000Z</time>
      </trkpt>
      <trkpt lat="45.26363" lon="4.60866">
        <ele>755.20001220703</ele>
        <time>2026-05-12T11:28:30.000Z</time>
      </trkpt>
      <trkpt lat="45.26365" lon="4.60869">
        <ele>755.20001220703</ele>
        <time>2026-05-12T11:28:31.000Z</time>
      </trkpt>
      <trkpt lat="45.26366" lon="4.60872">
        <ele>755.20001220703</ele>
        <time>2026-05-12T11:28:32.000Z</time>
      </trkpt>
      <trkpt lat="45.26367" lon="4.60875">
        <ele>755</ele>
        <time>2026-05-12T11:28:33.000Z</time>
      </trkpt>
      <trkpt lat="45.26369" lon="4.60878">
        <ele>755</ele>
        <time>2026-05-12T11:28:34.000Z</time>
      </trkpt>
      <trkpt lat="45.26371" lon="4.60881">
        <ele>754.79998779297</ele>
        <time>2026-05-12T11:28:35.000Z</time>
      </trkpt>
      <trkpt lat="45.26373" lon="4.60883">
        <ele>754.79998779297</ele>
        <time>2026-05-12T11:28:36.000Z</time>
      </trkpt>
      <trkpt lat="45.26374" lon="4.60886">
        <ele>754.79998779297</ele>
        <time>2026-05-12T11:28:37.000Z</time>
      </trkpt>
      <trkpt lat="45.26376" lon="4.60889">
        <ele>755</ele>
        <time>2026-05-12T11:28:38.000Z</time>
      </trkpt>
      <trkpt lat="45.26378" lon="4.60891">
        <ele>755.20001220703</ele>
        <time>2026-05-12T11:28:39.000Z</time>
      </trkpt>
      <trkpt lat="45.2638" lon="4.60894">
        <ele>755.20001220703</ele>
        <time>2026-05-12T11:28:40.000Z</time>
      </trkpt>
      <trkpt lat="45.26381" lon="4.60897">
        <ele>755.40002441406</ele>
        <time>2026-05-12T11:28:41.000Z</time>
      </trkpt>
      <trkpt lat="45.26382" lon="4.609">
        <ele>755.40002441406</ele>
        <time>2026-05-12T11:28:42.000Z</time>
      </trkpt>
      <trkpt lat="45.26384" lon="4.60903">
        <ele>755.40002441406</ele>
        <time>2026-05-12T11:28:43.000Z</time>
      </trkpt>
      <trkpt lat="45.26385" lon="4.60907">
        <ele>755.40002441406</ele>
        <time>2026-05-12T11:28:44.000Z</time>
      </trkpt>
      <trkpt lat="45.26387" lon="4.6091">
        <ele>755.40002441406</ele>
        <time>2026-05-12T11:28:45.000Z</time>
      </trkpt>
      <trkpt lat="45.26388" lon="4.60913">
        <ele>755.40002441406</ele>
        <time>2026-05-12T11:28:46.000Z</time>
      </trkpt>
      <trkpt lat="45.2639" lon="4.60917">
        <ele>755.40002441406</ele>
        <time>2026-05-12T11:28:47.000Z</time>
      </trkpt>
      <trkpt lat="45.26391" lon="4.60919">
        <ele>755.40002441406</ele>
        <time>2026-05-12T11:28:48.000Z</time>
      </trkpt>
      <trkpt lat="45.26393" lon="4.60922">
        <ele>755.40002441406</ele>
        <time>2026-05-12T11:28:49.000Z</time>
      </trkpt>
      <trkpt lat="45.26394" lon="4.60925">
        <ele>755.40002441406</ele>
        <time>2026-05-12T11:28:50.000Z</time>
      </trkpt>
      <trkpt lat="45.26396" lon="4.60927">
        <ele>755.40002441406</ele>
        <time>2026-05-12T11:28:51.000Z</time>
      </trkpt>
      <trkpt lat="45.26396" lon="4.6093">
        <ele>755.40002441406</ele>
        <time>2026-05-12T11:28:52.000Z</time>
      </trkpt>
      <trkpt lat="45.26397" lon="4.60932">
        <ele>755.40002441406</ele>
        <time>2026-05-12T11:28:53.000Z</time>
      </trkpt>
      <trkpt lat="45.26398" lon="4.60935">
        <ele>755.20001220703</ele>
        <time>2026-05-12T11:28:54.000Z</time>
      </trkpt>
      <trkpt lat="45.26399" lon="4.60937">
        <ele>755.20001220703</ele>
        <time>2026-05-12T11:28:55.000Z</time>
      </trkpt>
      <trkpt lat="45.264" lon="4.60939">
        <ele>755.20001220703</ele>
        <time>2026-05-12T11:28:56.000Z</time>
      </trkpt>
      <trkpt lat="45.26401" lon="4.60942">
        <ele>755</ele>
        <time>2026-05-12T11:28:57.000Z</time>
      </trkpt>
      <trkpt lat="45.26402" lon="4.60945">
        <ele>754.79998779297</ele>
        <time>2026-05-12T11:28:58.000Z</time>
      </trkpt>
      <trkpt lat="45.26404" lon="4.60949">
        <ele>754.79998779297</ele>
        <time>2026-05-12T11:28:59.000Z</time>
      </trkpt>
      <trkpt lat="45.26405" lon="4.60952">
        <ele>754.59997558594</ele>
        <time>2026-05-12T11:29:00.000Z</time>
      </trkpt>
      <trkpt lat="45.26407" lon="4.60956">
        <ele>754.40002441406</ele>
        <time>2026-05-12T11:29:01.000Z</time>
      </trkpt>
      <trkpt lat="45.26409" lon="4.6096">
        <ele>754.20001220703</ele>
        <time>2026-05-12T11:29:02.000Z</time>
      </trkpt>
      <trkpt lat="45.2641" lon="4.60963">
        <ele>754</ele>
        <time>2026-05-12T11:29:03.000Z</time>
      </trkpt>
      <trkpt lat="45.26412" lon="4.60967">
        <ele>753.59997558594</ele>
        <time>2026-05-12T11:29:04.000Z</time>
      </trkpt>
      <trkpt lat="45.26413" lon="4.6097">
        <ele>753.20001220703</ele>
        <time>2026-05-12T11:29:05.000Z</time>
      </trkpt>
      <trkpt lat="45.26415" lon="4.60974">
        <ele>752.79998779297</ele>
        <time>2026-05-12T11:29:06.000Z</time>
      </trkpt>
      <trkpt lat="45.26417" lon="4.60979">
        <ele>752.40002441406</ele>
        <time>2026-05-12T11:29:07.000Z</time>
      </trkpt>
      <trkpt lat="45.26419" lon="4.60983">
        <ele>752</ele>
        <time>2026-05-12T11:29:08.000Z</time>
      </trkpt>
      <trkpt lat="45.26421" lon="4.60987">
        <ele>751.59997558594</ele>
        <time>2026-05-12T11:29:09.000Z</time>
      </trkpt>
      <trkpt lat="45.26423" lon="4.60991">
        <ele>751.20001220703</ele>
        <time>2026-05-12T11:29:10.000Z</time>
      </trkpt>
      <trkpt lat="45.26426" lon="4.60994">
        <ele>750.79998779297</ele>
        <time>2026-05-12T11:29:11.000Z</time>
      </trkpt>
      <trkpt lat="45.26429" lon="4.60998">
        <ele>750.20001220703</ele>
        <time>2026-05-12T11:29:12.000Z</time>
      </trkpt>
      <trkpt lat="45.26431" lon="4.61002">
        <ele>749.79998779297</ele>
        <time>2026-05-12T11:29:13.000Z</time>
      </trkpt>
      <trkpt lat="45.26434" lon="4.61006">
        <ele>749.20001220703</ele>
        <time>2026-05-12T11:29:14.000Z</time>
      </trkpt>
      <trkpt lat="45.26437" lon="4.61009">
        <ele>748.79998779297</ele>
        <time>2026-05-12T11:29:15.000Z</time>
      </trkpt>
      <trkpt lat="45.26441" lon="4.61013">
        <ele>748.20001220703</ele>
        <time>2026-05-12T11:29:16.000Z</time>
      </trkpt>
      <trkpt lat="45.26444" lon="4.61017">
        <ele>747.59997558594</ele>
        <time>2026-05-12T11:29:17.000Z</time>
      </trkpt>
      <trkpt lat="45.26448" lon="4.6102">
        <ele>747</ele>
        <time>2026-05-12T11:29:18.000Z</time>
      </trkpt>
      <trkpt lat="45.26453" lon="4.61023">
        <ele>746.40002441406</ele>
        <time>2026-05-12T11:29:19.000Z</time>
      </trkpt>
      <trkpt lat="45.26457" lon="4.61026">
        <ele>745.79998779297</ele>
        <time>2026-05-12T11:29:20.000Z</time>
      </trkpt>
      <trkpt lat="45.26462" lon="4.61029">
        <ele>745.20001220703</ele>
        <time>2026-05-12T11:29:21.000Z</time>
      </trkpt>
      <trkpt lat="45.26467" lon="4.61032">
        <ele>744.59997558594</ele>
        <time>2026-05-12T11:29:22.000Z</time>
      </trkpt>
      <trkpt lat="45.26473" lon="4.61035">
        <ele>744</ele>
        <time>2026-05-12T11:29:23.000Z</time>
      </trkpt>
      <trkpt lat="45.26479" lon="4.61037">
        <ele>743.59997558594</ele>
        <time>2026-05-12T11:29:24.000Z</time>
      </trkpt>
      <trkpt lat="45.26484" lon="4.61039">
        <ele>743</ele>
        <time>2026-05-12T11:29:25.000Z</time>
      </trkpt>
      <trkpt lat="45.26491" lon="4.61041">
        <ele>742.59997558594</ele>
        <time>2026-05-12T11:29:26.000Z</time>
      </trkpt>
      <trkpt lat="45.26497" lon="4.61043">
        <ele>742</ele>
        <time>2026-05-12T11:29:27.000Z</time>
      </trkpt>
      <trkpt lat="45.26504" lon="4.61045">
        <ele>741.40002441406</ele>
        <time>2026-05-12T11:29:28.000Z</time>
      </trkpt>
      <trkpt lat="45.26511" lon="4.61047">
        <ele>740.79998779297</ele>
        <time>2026-05-12T11:29:29.000Z</time>
      </trkpt>
      <trkpt lat="45.26517" lon="4.6105">
        <ele>740.20001220703</ele>
        <time>2026-05-12T11:29:30.000Z</time>
      </trkpt>
      <trkpt lat="45.26524" lon="4.61052">
        <ele>739.79998779297</ele>
        <time>2026-05-12T11:29:31.000Z</time>
      </trkpt>
      <trkpt lat="45.2653" lon="4.61055">
        <ele>739.20001220703</ele>
        <time>2026-05-12T11:29:32.000Z</time>
      </trkpt>
      <trkpt lat="45.26536" lon="4.61058">
        <ele>738.79998779297</ele>
        <time>2026-05-12T11:29:33.000Z</time>
      </trkpt>
      <trkpt lat="45.26542" lon="4.61062">
        <ele>738.40002441406</ele>
        <time>2026-05-12T11:29:34.000Z</time>
      </trkpt>
      <trkpt lat="45.26548" lon="4.61065">
        <ele>738</ele>
        <time>2026-05-12T11:29:35.000Z</time>
      </trkpt>
      <trkpt lat="45.26554" lon="4.61069">
        <ele>737.59997558594</ele>
        <time>2026-05-12T11:29:36.000Z</time>
      </trkpt>
      <trkpt lat="45.26559" lon="4.61073">
        <ele>737.20001220703</ele>
        <time>2026-05-12T11:29:37.000Z</time>
      </trkpt>
      <trkpt lat="45.26564" lon="4.61077">
        <ele>737</ele>
        <time>2026-05-12T11:29:38.000Z</time>
      </trkpt>
      <trkpt lat="45.26569" lon="4.6108">
        <ele>737</ele>
        <time>2026-05-12T11:29:39.000Z</time>
      </trkpt>
      <trkpt lat="45.26573" lon="4.61084">
        <ele>737</ele>
        <time>2026-05-12T11:29:40.000Z</time>
      </trkpt>
      <trkpt lat="45.26578" lon="4.61087">
        <ele>737</ele>
        <time>2026-05-12T11:29:41.000Z</time>
      </trkpt>
      <trkpt lat="45.26582" lon="4.61091">
        <ele>737</ele>
        <time>2026-05-12T11:29:42.000Z</time>
      </trkpt>
      <trkpt lat="45.26586" lon="4.61095">
        <ele>737.20001220703</ele>
        <time>2026-05-12T11:29:43.000Z</time>
      </trkpt>
      <trkpt lat="45.26589" lon="4.61099">
        <ele>737.20001220703</ele>
        <time>2026-05-12T11:29:44.000Z</time>
      </trkpt>
      <trkpt lat="45.26593" lon="4.61103">
        <ele>737.20001220703</ele>
        <time>2026-05-12T11:29:45.000Z</time>
      </trkpt>
      <trkpt lat="45.26595" lon="4.61107">
        <ele>737.20001220703</ele>
        <time>2026-05-12T11:29:46.000Z</time>
      </trkpt>
      <trkpt lat="45.26597" lon="4.6111">
        <ele>737.20001220703</ele>
        <time>2026-05-12T11:29:47.000Z</time>
      </trkpt>
      <trkpt lat="45.26599" lon="4.61113">
        <ele>737.20001220703</ele>
        <time>2026-05-12T11:29:48.000Z</time>
      </trkpt>
      <trkpt lat="45.26601" lon="4.61114">
        <ele>737.20001220703</ele>
        <time>2026-05-12T11:29:49.000Z</time>
      </trkpt>
      <trkpt lat="45.26603" lon="4.61115">
        <ele>737.40002441406</ele>
        <time>2026-05-12T11:29:50.000Z</time>
      </trkpt>
      <trkpt lat="45.26604" lon="4.61117">
        <ele>737.40002441406</ele>
        <time>2026-05-12T11:29:51.000Z</time>
      </trkpt>
      <trkpt lat="45.26605" lon="4.61119">
        <ele>737.59997558594</ele>
        <time>2026-05-12T11:29:52.000Z</time>
      </trkpt>
      <trkpt lat="45.26605" lon="4.61122">
        <ele>737.59997558594</ele>
        <time>2026-05-12T11:29:53.000Z</time>
      </trkpt>
      <trkpt lat="45.26605" lon="4.61124">
        <ele>737.59997558594</ele>
        <time>2026-05-12T11:29:54.000Z</time>
      </trkpt>
      <trkpt lat="45.26605" lon="4.61124">
        <ele>737.59997558594</ele>
        <time>2026-05-12T11:29:55.000Z</time>
      </trkpt>
      <trkpt lat="45.26605" lon="4.61124">
        <ele>737.59997558594</ele>
        <time>2026-05-12T11:29:56.000Z</time>
      </trkpt>
      <trkpt lat="45.26605" lon="4.61124">
        <ele>737.59997558594</ele>
        <time>2026-05-12T11:29:57.000Z</time>
      </trkpt>
      <trkpt lat="45.26607" lon="4.61129">
        <ele>737</ele>
        <time>2026-05-12T11:30:43.000Z</time>
      </trkpt>
      <trkpt lat="45.26608" lon="4.61132">
        <ele>736.79998779297</ele>
        <time>2026-05-12T11:30:44.000Z</time>
      </trkpt>
      <trkpt lat="45.2661" lon="4.61135">
        <ele>736.40002441406</ele>
        <time>2026-05-12T11:30:45.000Z</time>
      </trkpt>
      <trkpt lat="45.26611" lon="4.61138">
        <ele>736</ele>
        <time>2026-05-12T11:30:46.000Z</time>
      </trkpt>
      <trkpt lat="45.26611" lon="4.61141">
        <ele>735.79998779297</ele>
        <time>2026-05-12T11:30:47.000Z</time>
      </trkpt>
      <trkpt lat="45.26612" lon="4.61144">
        <ele>735.40002441406</ele>
        <time>2026-05-12T11:30:48.000Z</time>
      </trkpt>
      <trkpt lat="45.26612" lon="4.61147">
        <ele>735.20001220703</ele>
        <time>2026-05-12T11:30:49.000Z</time>
      </trkpt>
      <trkpt lat="45.26611" lon="4.6115">
        <ele>735</ele>
        <time>2026-05-12T11:30:50.000Z</time>
      </trkpt>
      <trkpt lat="45.26611" lon="4.61153">
        <ele>734.59997558594</ele>
        <time>2026-05-12T11:30:51.000Z</time>
      </trkpt>
      <trkpt lat="45.2661" lon="4.61156">
        <ele>734.40002441406</ele>
        <time>2026-05-12T11:30:52.000Z</time>
      </trkpt>
      <trkpt lat="45.26608" lon="4.61159">
        <ele>734</ele>
        <time>2026-05-12T11:30:53.000Z</time>
      </trkpt>
      <trkpt lat="45.26606" lon="4.61163">
        <ele>733.40002441406</ele>
        <time>2026-05-12T11:30:54.000Z</time>
      </trkpt>
      <trkpt lat="45.26604" lon="4.61166">
        <ele>733</ele>
        <time>2026-05-12T11:30:55.000Z</time>
      </trkpt>
      <trkpt lat="45.26603" lon="4.6117">
        <ele>732.40002441406</ele>
        <time>2026-05-12T11:30:56.000Z</time>
      </trkpt>
      <trkpt lat="45.26602" lon="4.61174">
        <ele>732</ele>
        <time>2026-05-12T11:30:57.000Z</time>
      </trkpt>
      <trkpt lat="45.26601" lon="4.61178">
        <ele>731.40002441406</ele>
        <time>2026-05-12T11:30:58.000Z</time>
      </trkpt>
      <trkpt lat="45.266" lon="4.61181">
        <ele>731</ele>
        <time>2026-05-12T11:30:59.000Z</time>
      </trkpt>
      <trkpt lat="45.26599" lon="4.61185">
        <ele>730.59997558594</ele>
        <time>2026-05-12T11:31:00.000Z</time>
      </trkpt>
      <trkpt lat="45.26599" lon="4.61189">
        <ele>730.20001220703</ele>
        <time>2026-05-12T11:31:01.000Z</time>
      </trkpt>
      <trkpt lat="45.26599" lon="4.61194">
        <ele>729.79998779297</ele>
        <time>2026-05-12T11:31:02.000Z</time>
      </trkpt>
      <trkpt lat="45.26599" lon="4.61199">
        <ele>729.40002441406</ele>
        <time>2026-05-12T11:31:03.000Z</time>
      </trkpt>
      <trkpt lat="45.26601" lon="4.61204">
        <ele>728.79998779297</ele>
        <time>2026-05-12T11:31:04.000Z</time>
      </trkpt>
      <trkpt lat="45.26603" lon="4.6121">
        <ele>728.40002441406</ele>
        <time>2026-05-12T11:31:05.000Z</time>
      </trkpt>
      <trkpt lat="45.26606" lon="4.61214">
        <ele>727.79998779297</ele>
        <time>2026-05-12T11:31:06.000Z</time>
      </trkpt>
      <trkpt lat="45.26608" lon="4.61219">
        <ele>727.40002441406</ele>
        <time>2026-05-12T11:31:07.000Z</time>
      </trkpt>
      <trkpt lat="45.26611" lon="4.61224">
        <ele>727</ele>
        <time>2026-05-12T11:31:08.000Z</time>
      </trkpt>
      <trkpt lat="45.26613" lon="4.6123">
        <ele>726.59997558594</ele>
        <time>2026-05-12T11:31:09.000Z</time>
      </trkpt>
      <trkpt lat="45.26615" lon="4.61237">
        <ele>726.40002441406</ele>
        <time>2026-05-12T11:31:10.000Z</time>
      </trkpt>
      <trkpt lat="45.26617" lon="4.61243">
        <ele>726</ele>
        <time>2026-05-12T11:31:11.000Z</time>
      </trkpt>
      <trkpt lat="45.26617" lon="4.61251">
        <ele>725.59997558594</ele>
        <time>2026-05-12T11:31:12.000Z</time>
      </trkpt>
      <trkpt lat="45.26618" lon="4.61259">
        <ele>725.20001220703</ele>
        <time>2026-05-12T11:31:13.000Z</time>
      </trkpt>
      <trkpt lat="45.26619" lon="4.61266">
        <ele>724.79998779297</ele>
        <time>2026-05-12T11:31:14.000Z</time>
      </trkpt>
      <trkpt lat="45.26619" lon="4.61273">
        <ele>724.59997558594</ele>
        <time>2026-05-12T11:31:15.000Z</time>
      </trkpt>
      <trkpt lat="45.2662" lon="4.61281">
        <ele>724.40002441406</ele>
        <time>2026-05-12T11:31:16.000Z</time>
      </trkpt>
      <trkpt lat="45.2662" lon="4.61287">
        <ele>724.40002441406</ele>
        <time>2026-05-12T11:31:17.000Z</time>
      </trkpt>
      <trkpt lat="45.2662" lon="4.61292">
        <ele>724.40002441406</ele>
        <time>2026-05-12T11:31:18.000Z</time>
      </trkpt>
      <trkpt lat="45.2662" lon="4.61296">
        <ele>724.59997558594</ele>
        <time>2026-05-12T11:31:19.000Z</time>
      </trkpt>
      <trkpt lat="45.26621" lon="4.613">
        <ele>724.59997558594</ele>
        <time>2026-05-12T11:31:20.000Z</time>
      </trkpt>
      <trkpt lat="45.26621" lon="4.61303">
        <ele>724.79998779297</ele>
        <time>2026-05-12T11:31:21.000Z</time>
      </trkpt>
      <trkpt lat="45.26621" lon="4.61307">
        <ele>724.79998779297</ele>
        <time>2026-05-12T11:31:22.000Z</time>
      </trkpt>
      <trkpt lat="45.26622" lon="4.61312">
        <ele>725</ele>
        <time>2026-05-12T11:31:23.000Z</time>
      </trkpt>
      <trkpt lat="45.26622" lon="4.61316">
        <ele>725</ele>
        <time>2026-05-12T11:31:24.000Z</time>
      </trkpt>
      <trkpt lat="45.26623" lon="4.61321">
        <ele>725.20001220703</ele>
        <time>2026-05-12T11:31:25.000Z</time>
      </trkpt>
      <trkpt lat="45.26623" lon="4.61326">
        <ele>725.20001220703</ele>
        <time>2026-05-12T11:31:26.000Z</time>
      </trkpt>
      <trkpt lat="45.26622" lon="4.6133">
        <ele>725.40002441406</ele>
        <time>2026-05-12T11:31:27.000Z</time>
      </trkpt>
      <trkpt lat="45.26622" lon="4.61335">
        <ele>725.40002441406</ele>
        <time>2026-05-12T11:31:28.000Z</time>
      </trkpt>
      <trkpt lat="45.26623" lon="4.61339">
        <ele>725.59997558594</ele>
        <time>2026-05-12T11:31:29.000Z</time>
      </trkpt>
      <trkpt lat="45.26623" lon="4.61343">
        <ele>726</ele>
        <time>2026-05-12T11:31:30.000Z</time>
      </trkpt>
      <trkpt lat="45.26624" lon="4.61347">
        <ele>726.40002441406</ele>
        <time>2026-05-12T11:31:31.000Z</time>
      </trkpt>
      <trkpt lat="45.26624" lon="4.61351">
        <ele>726.79998779297</ele>
        <time>2026-05-12T11:31:32.000Z</time>
      </trkpt>
      <trkpt lat="45.26624" lon="4.61354">
        <ele>727</ele>
        <time>2026-05-12T11:31:33.000Z</time>
      </trkpt>
      <trkpt lat="45.26624" lon="4.61359">
        <ele>727.20001220703</ele>
        <time>2026-05-12T11:31:34.000Z</time>
      </trkpt>
      <trkpt lat="45.26624" lon="4.61363">
        <ele>727.79998779297</ele>
        <time>2026-05-12T11:31:35.000Z</time>
      </trkpt>
      <trkpt lat="45.26624" lon="4.61366">
        <ele>728</ele>
        <time>2026-05-12T11:31:36.000Z</time>
      </trkpt>
      <trkpt lat="45.26624" lon="4.61369">
        <ele>728.40002441406</ele>
        <time>2026-05-12T11:31:37.000Z</time>
      </trkpt>
      <trkpt lat="45.26624" lon="4.61373">
        <ele>729</ele>
        <time>2026-05-12T11:31:38.000Z</time>
      </trkpt>
      <trkpt lat="45.26624" lon="4.61376">
        <ele>729.40002441406</ele>
        <time>2026-05-12T11:31:39.000Z</time>
      </trkpt>
      <trkpt lat="45.26624" lon="4.6138">
        <ele>729.79998779297</ele>
        <time>2026-05-12T11:31:40.000Z</time>
      </trkpt>
      <trkpt lat="45.26623" lon="4.61384">
        <ele>730</ele>
        <time>2026-05-12T11:31:41.000Z</time>
      </trkpt>
      <trkpt lat="45.26623" lon="4.61388">
        <ele>730.20001220703</ele>
        <time>2026-05-12T11:31:42.000Z</time>
      </trkpt>
      <trkpt lat="45.26623" lon="4.61392">
        <ele>730.20001220703</ele>
        <time>2026-05-12T11:31:43.000Z</time>
      </trkpt>
      <trkpt lat="45.26623" lon="4.61396">
        <ele>730.40002441406</ele>
        <time>2026-05-12T11:31:44.000Z</time>
      </trkpt>
      <trkpt lat="45.26623" lon="4.61399">
        <ele>730.59997558594</ele>
        <time>2026-05-12T11:31:45.000Z</time>
      </trkpt>
      <trkpt lat="45.26623" lon="4.61403">
        <ele>730.79998779297</ele>
        <time>2026-05-12T11:31:46.000Z</time>
      </trkpt>
      <trkpt lat="45.26624" lon="4.61407">
        <ele>731</ele>
        <time>2026-05-12T11:31:47.000Z</time>
      </trkpt>
      <trkpt lat="45.26624" lon="4.61411">
        <ele>731.20001220703</ele>
        <time>2026-05-12T11:31:48.000Z</time>
      </trkpt>
      <trkpt lat="45.26624" lon="4.61414">
        <ele>731.40002441406</ele>
        <time>2026-05-12T11:31:49.000Z</time>
      </trkpt>
      <trkpt lat="45.26624" lon="4.61417">
        <ele>731.59997558594</ele>
        <time>2026-05-12T11:31:50.000Z</time>
      </trkpt>
      <trkpt lat="45.26625" lon="4.61421">
        <ele>732</ele>
        <time>2026-05-12T11:31:51.000Z</time>
      </trkpt>
      <trkpt lat="45.26626" lon="4.61424">
        <ele>732.20001220703</ele>
        <time>2026-05-12T11:31:52.000Z</time>
      </trkpt>
      <trkpt lat="45.26626" lon="4.61427">
        <ele>732.40002441406</ele>
        <time>2026-05-12T11:31:53.000Z</time>
      </trkpt>
      <trkpt lat="45.26628" lon="4.6143">
        <ele>732.59997558594</ele>
        <time>2026-05-12T11:31:54.000Z</time>
      </trkpt>
      <trkpt lat="45.26629" lon="4.61432">
        <ele>733</ele>
        <time>2026-05-12T11:31:55.000Z</time>
      </trkpt>
      <trkpt lat="45.26631" lon="4.61435">
        <ele>733.20001220703</ele>
        <time>2026-05-12T11:31:56.000Z</time>
      </trkpt>
      <trkpt lat="45.26633" lon="4.61438">
        <ele>733.59997558594</ele>
        <time>2026-05-12T11:31:57.000Z</time>
      </trkpt>
      <trkpt lat="45.26633" lon="4.61442">
        <ele>733.79998779297</ele>
        <time>2026-05-12T11:31:58.000Z</time>
      </trkpt>
      <trkpt lat="45.26633" lon="4.61445">
        <ele>734</ele>
        <time>2026-05-12T11:31:59.000Z</time>
      </trkpt>
      <trkpt lat="45.26634" lon="4.61449">
        <ele>734.40002441406</ele>
        <time>2026-05-12T11:32:00.000Z</time>
      </trkpt>
      <trkpt lat="45.26634" lon="4.61452">
        <ele>734.59997558594</ele>
        <time>2026-05-12T11:32:01.000Z</time>
      </trkpt>
      <trkpt lat="45.26635" lon="4.61456">
        <ele>734.79998779297</ele>
        <time>2026-05-12T11:32:02.000Z</time>
      </trkpt>
      <trkpt lat="45.26636" lon="4.6146">
        <ele>735</ele>
        <time>2026-05-12T11:32:03.000Z</time>
      </trkpt>
      <trkpt lat="45.26636" lon="4.61463">
        <ele>735.20001220703</ele>
        <time>2026-05-12T11:32:04.000Z</time>
      </trkpt>
      <trkpt lat="45.26637" lon="4.61466">
        <ele>735.59997558594</ele>
        <time>2026-05-12T11:32:05.000Z</time>
      </trkpt>
      <trkpt lat="45.26638" lon="4.61469">
        <ele>735.79998779297</ele>
        <time>2026-05-12T11:32:06.000Z</time>
      </trkpt>
      <trkpt lat="45.26639" lon="4.61472">
        <ele>736</ele>
        <time>2026-05-12T11:32:07.000Z</time>
      </trkpt>
      <trkpt lat="45.2664" lon="4.61475">
        <ele>736.20001220703</ele>
        <time>2026-05-12T11:32:08.000Z</time>
      </trkpt>
      <trkpt lat="45.26641" lon="4.61479">
        <ele>736.40002441406</ele>
        <time>2026-05-12T11:32:09.000Z</time>
      </trkpt>
      <trkpt lat="45.26641" lon="4.61482">
        <ele>736.40002441406</ele>
        <time>2026-05-12T11:32:10.000Z</time>
      </trkpt>
      <trkpt lat="45.26642" lon="4.61486">
        <ele>736.59997558594</ele>
        <time>2026-05-12T11:32:11.000Z</time>
      </trkpt>
      <trkpt lat="45.26643" lon="4.61489">
        <ele>736.79998779297</ele>
        <time>2026-05-12T11:32:12.000Z</time>
      </trkpt>
      <trkpt lat="45.26644" lon="4.61492">
        <ele>737</ele>
        <time>2026-05-12T11:32:13.000Z</time>
      </trkpt>
      <trkpt lat="45.26645" lon="4.61495">
        <ele>737</ele>
        <time>2026-05-12T11:32:14.000Z</time>
      </trkpt>
      <trkpt lat="45.26646" lon="4.61498">
        <ele>737.20001220703</ele>
        <time>2026-05-12T11:32:15.000Z</time>
      </trkpt>
      <trkpt lat="45.26647" lon="4.61502">
        <ele>737.40002441406</ele>
        <time>2026-05-12T11:32:16.000Z</time>
      </trkpt>
      <trkpt lat="45.26648" lon="4.61505">
        <ele>737.59997558594</ele>
        <time>2026-05-12T11:32:17.000Z</time>
      </trkpt>
      <trkpt lat="45.26649" lon="4.61509">
        <ele>737.59997558594</ele>
        <time>2026-05-12T11:32:18.000Z</time>
      </trkpt>
      <trkpt lat="45.26649" lon="4.61512">
        <ele>737.79998779297</ele>
        <time>2026-05-12T11:32:19.000Z</time>
      </trkpt>
      <trkpt lat="45.2665" lon="4.61516">
        <ele>738</ele>
        <time>2026-05-12T11:32:20.000Z</time>
      </trkpt>
      <trkpt lat="45.26651" lon="4.61519">
        <ele>738.20001220703</ele>
        <time>2026-05-12T11:32:21.000Z</time>
      </trkpt>
      <trkpt lat="45.26651" lon="4.61522">
        <ele>738.40002441406</ele>
        <time>2026-05-12T11:32:22.000Z</time>
      </trkpt>
      <trkpt lat="45.26652" lon="4.61526">
        <ele>738.59997558594</ele>
        <time>2026-05-12T11:32:23.000Z</time>
      </trkpt>
      <trkpt lat="45.26652" lon="4.61529">
        <ele>738.59997558594</ele>
        <time>2026-05-12T11:32:24.000Z</time>
      </trkpt>
      <trkpt lat="45.26652" lon="4.61533">
        <ele>738.79998779297</ele>
        <time>2026-05-12T11:32:25.000Z</time>
      </trkpt>
      <trkpt lat="45.26652" lon="4.61536">
        <ele>738.79998779297</ele>
        <time>2026-05-12T11:32:26.000Z</time>
      </trkpt>
      <trkpt lat="45.26653" lon="4.61539">
        <ele>738.79998779297</ele>
        <time>2026-05-12T11:32:27.000Z</time>
      </trkpt>
      <trkpt lat="45.26654" lon="4.61543">
        <ele>739</ele>
        <time>2026-05-12T11:32:28.000Z</time>
      </trkpt>
      <trkpt lat="45.26654" lon="4.61547">
        <ele>739.20001220703</ele>
        <time>2026-05-12T11:32:29.000Z</time>
      </trkpt>
      <trkpt lat="45.26654" lon="4.61551">
        <ele>739.20001220703</ele>
        <time>2026-05-12T11:32:30.000Z</time>
      </trkpt>
      <trkpt lat="45.26654" lon="4.61555">
        <ele>739.40002441406</ele>
        <time>2026-05-12T11:32:31.000Z</time>
      </trkpt>
      <trkpt lat="45.26654" lon="4.61559">
        <ele>739.40002441406</ele>
        <time>2026-05-12T11:32:32.000Z</time>
      </trkpt>
      <trkpt lat="45.26655" lon="4.61562">
        <ele>739.40002441406</ele>
        <time>2026-05-12T11:32:33.000Z</time>
      </trkpt>
      <trkpt lat="45.26656" lon="4.61566">
        <ele>739.40002441406</ele>
        <time>2026-05-12T11:32:34.000Z</time>
      </trkpt>
      <trkpt lat="45.26657" lon="4.61569">
        <ele>739.40002441406</ele>
        <time>2026-05-12T11:32:35.000Z</time>
      </trkpt>
      <trkpt lat="45.26658" lon="4.61572">
        <ele>739.40002441406</ele>
        <time>2026-05-12T11:32:36.000Z</time>
      </trkpt>
      <trkpt lat="45.26658" lon="4.61575">
        <ele>739.59997558594</ele>
        <time>2026-05-12T11:32:37.000Z</time>
      </trkpt>
      <trkpt lat="45.26659" lon="4.61578">
        <ele>739.59997558594</ele>
        <time>2026-05-12T11:32:38.000Z</time>
      </trkpt>
      <trkpt lat="45.26659" lon="4.61582">
        <ele>739.40002441406</ele>
        <time>2026-05-12T11:32:39.000Z</time>
      </trkpt>
      <trkpt lat="45.2666" lon="4.61587">
        <ele>739.40002441406</ele>
        <time>2026-05-12T11:32:40.000Z</time>
      </trkpt>
      <trkpt lat="45.26661" lon="4.61591">
        <ele>739.40002441406</ele>
        <time>2026-05-12T11:32:41.000Z</time>
      </trkpt>
      <trkpt lat="45.26661" lon="4.61595">
        <ele>739.20001220703</ele>
        <time>2026-05-12T11:32:42.000Z</time>
      </trkpt>
      <trkpt lat="45.26661" lon="4.616">
        <ele>739.20001220703</ele>
        <time>2026-05-12T11:32:43.000Z</time>
      </trkpt>
      <trkpt lat="45.26661" lon="4.61605">
        <ele>739.20001220703</ele>
        <time>2026-05-12T11:32:44.000Z</time>
      </trkpt>
      <trkpt lat="45.26661" lon="4.61609">
        <ele>739</ele>
        <time>2026-05-12T11:32:45.000Z</time>
      </trkpt>
      <trkpt lat="45.26662" lon="4.61614">
        <ele>738.79998779297</ele>
        <time>2026-05-12T11:32:46.000Z</time>
      </trkpt>
      <trkpt lat="45.26661" lon="4.61619">
        <ele>738.79998779297</ele>
        <time>2026-05-12T11:32:47.000Z</time>
      </trkpt>
      <trkpt lat="45.26662" lon="4.61623">
        <ele>738.79998779297</ele>
        <time>2026-05-12T11:32:48.000Z</time>
      </trkpt>
      <trkpt lat="45.26662" lon="4.61628">
        <ele>738.59997558594</ele>
        <time>2026-05-12T11:32:49.000Z</time>
      </trkpt>
      <trkpt lat="45.26662" lon="4.61633">
        <ele>738.59997558594</ele>
        <time>2026-05-12T11:32:50.000Z</time>
      </trkpt>
      <trkpt lat="45.26661" lon="4.61637">
        <ele>738.59997558594</ele>
        <time>2026-05-12T11:32:51.000Z</time>
      </trkpt>
      <trkpt lat="45.26661" lon="4.61641">
        <ele>738.59997558594</ele>
        <time>2026-05-12T11:32:52.000Z</time>
      </trkpt>
      <trkpt lat="45.26661" lon="4.61644">
        <ele>738.59997558594</ele>
        <time>2026-05-12T11:32:53.000Z</time>
      </trkpt>
      <trkpt lat="45.26661" lon="4.61647">
        <ele>738.59997558594</ele>
        <time>2026-05-12T11:32:54.000Z</time>
      </trkpt>
      <trkpt lat="45.26662" lon="4.6165">
        <ele>738.59997558594</ele>
        <time>2026-05-12T11:32:55.000Z</time>
      </trkpt>
      <trkpt lat="45.26662" lon="4.61653">
        <ele>738.59997558594</ele>
        <time>2026-05-12T11:32:56.000Z</time>
      </trkpt>
      <trkpt lat="45.26663" lon="4.61657">
        <ele>738.59997558594</ele>
        <time>2026-05-12T11:32:57.000Z</time>
      </trkpt>
      <trkpt lat="45.26664" lon="4.6166">
        <ele>738.59997558594</ele>
        <time>2026-05-12T11:32:58.000Z</time>
      </trkpt>
      <trkpt lat="45.26664" lon="4.61664">
        <ele>738.40002441406</ele>
        <time>2026-05-12T11:32:59.000Z</time>
      </trkpt>
      <trkpt lat="45.26665" lon="4.61667">
        <ele>738.40002441406</ele>
        <time>2026-05-12T11:33:00.000Z</time>
      </trkpt>
      <trkpt lat="45.26665" lon="4.61671">
        <ele>738.40002441406</ele>
        <time>2026-05-12T11:33:01.000Z</time>
      </trkpt>
      <trkpt lat="45.26666" lon="4.61674">
        <ele>738.40002441406</ele>
        <time>2026-05-12T11:33:02.000Z</time>
      </trkpt>
      <trkpt lat="45.26666" lon="4.61678">
        <ele>738.40002441406</ele>
        <time>2026-05-12T11:33:03.000Z</time>
      </trkpt>
      <trkpt lat="45.26667" lon="4.61682">
        <ele>738.40002441406</ele>
        <time>2026-05-12T11:33:04.000Z</time>
      </trkpt>
      <trkpt lat="45.26667" lon="4.61685">
        <ele>738.40002441406</ele>
        <time>2026-05-12T11:33:05.000Z</time>
      </trkpt>
      <trkpt lat="45.26667" lon="4.61689">
        <ele>738.40002441406</ele>
        <time>2026-05-12T11:33:06.000Z</time>
      </trkpt>
      <trkpt lat="45.26668" lon="4.61693">
        <ele>738.20001220703</ele>
        <time>2026-05-12T11:33:07.000Z</time>
      </trkpt>
      <trkpt lat="45.26669" lon="4.61698">
        <ele>738</ele>
        <time>2026-05-12T11:33:08.000Z</time>
      </trkpt>
      <trkpt lat="45.2667" lon="4.61703">
        <ele>738</ele>
        <time>2026-05-12T11:33:09.000Z</time>
      </trkpt>
      <trkpt lat="45.26671" lon="4.61707">
        <ele>737.79998779297</ele>
        <time>2026-05-12T11:33:10.000Z</time>
      </trkpt>
      <trkpt lat="45.26672" lon="4.61712">
        <ele>737.59997558594</ele>
        <time>2026-05-12T11:33:11.000Z</time>
      </trkpt>
      <trkpt lat="45.26673" lon="4.61717">
        <ele>737.59997558594</ele>
        <time>2026-05-12T11:33:12.000Z</time>
      </trkpt>
      <trkpt lat="45.26674" lon="4.61722">
        <ele>737.40002441406</ele>
        <time>2026-05-12T11:33:13.000Z</time>
      </trkpt>
      <trkpt lat="45.26675" lon="4.61727">
        <ele>737.40002441406</ele>
        <time>2026-05-12T11:33:14.000Z</time>
      </trkpt>
      <trkpt lat="45.26676" lon="4.61732">
        <ele>737.20001220703</ele>
        <time>2026-05-12T11:33:15.000Z</time>
      </trkpt>
      <trkpt lat="45.26676" lon="4.61737">
        <ele>737.20001220703</ele>
        <time>2026-05-12T11:33:16.000Z</time>
      </trkpt>
      <trkpt lat="45.26677" lon="4.61742">
        <ele>737</ele>
        <time>2026-05-12T11:33:17.000Z</time>
      </trkpt>
      <trkpt lat="45.26677" lon="4.61748">
        <ele>737</ele>
        <time>2026-05-12T11:33:18.000Z</time>
      </trkpt>
      <trkpt lat="45.26677" lon="4.61753">
        <ele>736.79998779297</ele>
        <time>2026-05-12T11:33:19.000Z</time>
      </trkpt>
      <trkpt lat="45.26677" lon="4.61759">
        <ele>736.59997558594</ele>
        <time>2026-05-12T11:33:20.000Z</time>
      </trkpt>
      <trkpt lat="45.26678" lon="4.61765">
        <ele>736.40002441406</ele>
        <time>2026-05-12T11:33:21.000Z</time>
      </trkpt>
      <trkpt lat="45.26678" lon="4.6177">
        <ele>736.20001220703</ele>
        <time>2026-05-12T11:33:22.000Z</time>
      </trkpt>
      <trkpt lat="45.26679" lon="4.61775">
        <ele>736.20001220703</ele>
        <time>2026-05-12T11:33:23.000Z</time>
      </trkpt>
      <trkpt lat="45.26679" lon="4.6178">
        <ele>736</ele>
        <time>2026-05-12T11:33:24.000Z</time>
      </trkpt>
      <trkpt lat="45.2668" lon="4.61784">
        <ele>736</ele>
        <time>2026-05-12T11:33:25.000Z</time>
      </trkpt>
      <trkpt lat="45.26681" lon="4.61788">
        <ele>736.20001220703</ele>
        <time>2026-05-12T11:33:26.000Z</time>
      </trkpt>
      <trkpt lat="45.26682" lon="4.61791">
        <ele>736.20001220703</ele>
        <time>2026-05-12T11:33:27.000Z</time>
      </trkpt>
      <trkpt lat="45.26683" lon="4.61794">
        <ele>736.20001220703</ele>
        <time>2026-05-12T11:33:28.000Z</time>
      </trkpt>
      <trkpt lat="45.26684" lon="4.61797">
        <ele>736.20001220703</ele>
        <time>2026-05-12T11:33:29.000Z</time>
      </trkpt>
      <trkpt lat="45.26686" lon="4.61801">
        <ele>736.20001220703</ele>
        <time>2026-05-12T11:33:30.000Z</time>
      </trkpt>
      <trkpt lat="45.26687" lon="4.61804">
        <ele>736</ele>
        <time>2026-05-12T11:33:31.000Z</time>
      </trkpt>
      <trkpt lat="45.26688" lon="4.61808">
        <ele>736</ele>
        <time>2026-05-12T11:33:32.000Z</time>
      </trkpt>
      <trkpt lat="45.2669" lon="4.61812">
        <ele>736</ele>
        <time>2026-05-12T11:33:33.000Z</time>
      </trkpt>
      <trkpt lat="45.26692" lon="4.61815">
        <ele>736</ele>
        <time>2026-05-12T11:33:34.000Z</time>
      </trkpt>
      <trkpt lat="45.26693" lon="4.61819">
        <ele>735.79998779297</ele>
        <time>2026-05-12T11:33:35.000Z</time>
      </trkpt>
      <trkpt lat="45.26696" lon="4.61822">
        <ele>735.79998779297</ele>
        <time>2026-05-12T11:33:36.000Z</time>
      </trkpt>
      <trkpt lat="45.26698" lon="4.61825">
        <ele>735.79998779297</ele>
        <time>2026-05-12T11:33:37.000Z</time>
      </trkpt>
      <trkpt lat="45.267" lon="4.61828">
        <ele>735.79998779297</ele>
        <time>2026-05-12T11:33:38.000Z</time>
      </trkpt>
      <trkpt lat="45.26702" lon="4.61831">
        <ele>735.79998779297</ele>
        <time>2026-05-12T11:33:39.000Z</time>
      </trkpt>
      <trkpt lat="45.26704" lon="4.61834">
        <ele>735.79998779297</ele>
        <time>2026-05-12T11:33:40.000Z</time>
      </trkpt>
      <trkpt lat="45.26706" lon="4.61837">
        <ele>735.79998779297</ele>
        <time>2026-05-12T11:33:41.000Z</time>
      </trkpt>
      <trkpt lat="45.26708" lon="4.6184">
        <ele>735.79998779297</ele>
        <time>2026-05-12T11:33:42.000Z</time>
      </trkpt>
      <trkpt lat="45.26711" lon="4.61843">
        <ele>735.59997558594</ele>
        <time>2026-05-12T11:33:43.000Z</time>
      </trkpt>
      <trkpt lat="45.26713" lon="4.61846">
        <ele>735.59997558594</ele>
        <time>2026-05-12T11:33:44.000Z</time>
      </trkpt>
      <trkpt lat="45.26715" lon="4.61849">
        <ele>735.59997558594</ele>
        <time>2026-05-12T11:33:45.000Z</time>
      </trkpt>
      <trkpt lat="45.26717" lon="4.61852">
        <ele>735.59997558594</ele>
        <time>2026-05-12T11:33:46.000Z</time>
      </trkpt>
      <trkpt lat="45.26719" lon="4.61855">
        <ele>735.59997558594</ele>
        <time>2026-05-12T11:33:47.000Z</time>
      </trkpt>
      <trkpt lat="45.26721" lon="4.61858">
        <ele>735.59997558594</ele>
        <time>2026-05-12T11:33:48.000Z</time>
      </trkpt>
      <trkpt lat="45.26723" lon="4.61862">
        <ele>735.59997558594</ele>
        <time>2026-05-12T11:33:49.000Z</time>
      </trkpt>
      <trkpt lat="45.26725" lon="4.61865">
        <ele>735.59997558594</ele>
        <time>2026-05-12T11:33:50.000Z</time>
      </trkpt>
      <trkpt lat="45.26727" lon="4.61867">
        <ele>735.59997558594</ele>
        <time>2026-05-12T11:33:51.000Z</time>
      </trkpt>
      <trkpt lat="45.26729" lon="4.6187">
        <ele>735.79998779297</ele>
        <time>2026-05-12T11:33:52.000Z</time>
      </trkpt>
      <trkpt lat="45.26731" lon="4.61873">
        <ele>735.79998779297</ele>
        <time>2026-05-12T11:33:53.000Z</time>
      </trkpt>
      <trkpt lat="45.26733" lon="4.61876">
        <ele>736</ele>
        <time>2026-05-12T11:33:54.000Z</time>
      </trkpt>
      <trkpt lat="45.26735" lon="4.61879">
        <ele>736</ele>
        <time>2026-05-12T11:33:55.000Z</time>
      </trkpt>
      <trkpt lat="45.26736" lon="4.61883">
        <ele>736.20001220703</ele>
        <time>2026-05-12T11:33:56.000Z</time>
      </trkpt>
      <trkpt lat="45.26737" lon="4.61886">
        <ele>736.20001220703</ele>
        <time>2026-05-12T11:33:57.000Z</time>
      </trkpt>
      <trkpt lat="45.26739" lon="4.6189">
        <ele>736.20001220703</ele>
        <time>2026-05-12T11:33:58.000Z</time>
      </trkpt>
      <trkpt lat="45.2674" lon="4.61893">
        <ele>736.40002441406</ele>
        <time>2026-05-12T11:33:59.000Z</time>
      </trkpt>
      <trkpt lat="45.26742" lon="4.61897">
        <ele>736.40002441406</ele>
        <time>2026-05-12T11:34:00.000Z</time>
      </trkpt>
      <trkpt lat="45.26744" lon="4.619">
        <ele>736.40002441406</ele>
        <time>2026-05-12T11:34:01.000Z</time>
      </trkpt>
      <trkpt lat="45.26746" lon="4.61904">
        <ele>736.40002441406</ele>
        <time>2026-05-12T11:34:02.000Z</time>
      </trkpt>
      <trkpt lat="45.26747" lon="4.61908">
        <ele>736.40002441406</ele>
        <time>2026-05-12T11:34:03.000Z</time>
      </trkpt>
      <trkpt lat="45.26749" lon="4.61912">
        <ele>736.40002441406</ele>
        <time>2026-05-12T11:34:04.000Z</time>
      </trkpt>
      <trkpt lat="45.2675" lon="4.61916">
        <ele>736.40002441406</ele>
        <time>2026-05-12T11:34:05.000Z</time>
      </trkpt>
      <trkpt lat="45.26751" lon="4.6192">
        <ele>736.20001220703</ele>
        <time>2026-05-12T11:34:06.000Z</time>
      </trkpt>
      <trkpt lat="45.26753" lon="4.61925">
        <ele>736.20001220703</ele>
        <time>2026-05-12T11:34:07.000Z</time>
      </trkpt>
      <trkpt lat="45.26754" lon="4.61928">
        <ele>736.20001220703</ele>
        <time>2026-05-12T11:34:08.000Z</time>
      </trkpt>
      <trkpt lat="45.26755" lon="4.61932">
        <ele>736.20001220703</ele>
        <time>2026-05-12T11:34:09.000Z</time>
      </trkpt>
      <trkpt lat="45.26756" lon="4.61936">
        <ele>736.20001220703</ele>
        <time>2026-05-12T11:34:10.000Z</time>
      </trkpt>
      <trkpt lat="45.26758" lon="4.6194">
        <ele>736</ele>
        <time>2026-05-12T11:34:11.000Z</time>
      </trkpt>
      <trkpt lat="45.26759" lon="4.61944">
        <ele>736</ele>
        <time>2026-05-12T11:34:12.000Z</time>
      </trkpt>
      <trkpt lat="45.2676" lon="4.61947">
        <ele>736</ele>
        <time>2026-05-12T11:34:13.000Z</time>
      </trkpt>
      <trkpt lat="45.26762" lon="4.6195">
        <ele>736</ele>
        <time>2026-05-12T11:34:14.000Z</time>
      </trkpt>
      <trkpt lat="45.26763" lon="4.61954">
        <ele>736</ele>
        <time>2026-05-12T11:34:15.000Z</time>
      </trkpt>
      <trkpt lat="45.26764" lon="4.61958">
        <ele>736</ele>
        <time>2026-05-12T11:34:16.000Z</time>
      </trkpt>
      <trkpt lat="45.26765" lon="4.61962">
        <ele>735.79998779297</ele>
        <time>2026-05-12T11:34:17.000Z</time>
      </trkpt>
      <trkpt lat="45.26766" lon="4.61966">
        <ele>735.79998779297</ele>
        <time>2026-05-12T11:34:18.000Z</time>
      </trkpt>
      <trkpt lat="45.26767" lon="4.61971">
        <ele>735.59997558594</ele>
        <time>2026-05-12T11:34:19.000Z</time>
      </trkpt>
      <trkpt lat="45.26769" lon="4.61976">
        <ele>735.40002441406</ele>
        <time>2026-05-12T11:34:20.000Z</time>
      </trkpt>
      <trkpt lat="45.26769" lon="4.6198">
        <ele>735.40002441406</ele>
        <time>2026-05-12T11:34:21.000Z</time>
      </trkpt>
      <trkpt lat="45.26771" lon="4.61985">
        <ele>735.20001220703</ele>
        <time>2026-05-12T11:34:22.000Z</time>
      </trkpt>
      <trkpt lat="45.26772" lon="4.61989">
        <ele>735.20001220703</ele>
        <time>2026-05-12T11:34:23.000Z</time>
      </trkpt>
      <trkpt lat="45.26772" lon="4.61994">
        <ele>735.20001220703</ele>
        <time>2026-05-12T11:34:24.000Z</time>
      </trkpt>
      <trkpt lat="45.26774" lon="4.61998">
        <ele>735</ele>
        <time>2026-05-12T11:34:25.000Z</time>
      </trkpt>
      <trkpt lat="45.26775" lon="4.62002">
        <ele>735</ele>
        <time>2026-05-12T11:34:26.000Z</time>
      </trkpt>
      <trkpt lat="45.26775" lon="4.62006">
        <ele>735</ele>
        <time>2026-05-12T11:34:27.000Z</time>
      </trkpt>
      <trkpt lat="45.26776" lon="4.62009">
        <ele>735.20001220703</ele>
        <time>2026-05-12T11:34:28.000Z</time>
      </trkpt>
      <trkpt lat="45.26777" lon="4.62013">
        <ele>735.20001220703</ele>
        <time>2026-05-12T11:34:29.000Z</time>
      </trkpt>
      <trkpt lat="45.26777" lon="4.62016">
        <ele>735.20001220703</ele>
        <time>2026-05-12T11:34:30.000Z</time>
      </trkpt>
      <trkpt lat="45.26777" lon="4.6202">
        <ele>735.40002441406</ele>
        <time>2026-05-12T11:34:31.000Z</time>
      </trkpt>
      <trkpt lat="45.26777" lon="4.62025">
        <ele>735.40002441406</ele>
        <time>2026-05-12T11:34:32.000Z</time>
      </trkpt>
      <trkpt lat="45.26777" lon="4.62029">
        <ele>735.40002441406</ele>
        <time>2026-05-12T11:34:33.000Z</time>
      </trkpt>
      <trkpt lat="45.26777" lon="4.62032">
        <ele>735.40002441406</ele>
        <time>2026-05-12T11:34:34.000Z</time>
      </trkpt>
      <trkpt lat="45.26777" lon="4.62036">
        <ele>735.59997558594</ele>
        <time>2026-05-12T11:34:35.000Z</time>
      </trkpt>
      <trkpt lat="45.26778" lon="4.6204">
        <ele>735.79998779297</ele>
        <time>2026-05-12T11:34:36.000Z</time>
      </trkpt>
      <trkpt lat="45.26778" lon="4.62044">
        <ele>736</ele>
        <time>2026-05-12T11:34:37.000Z</time>
      </trkpt>
      <trkpt lat="45.26779" lon="4.62047">
        <ele>736.20001220703</ele>
        <time>2026-05-12T11:34:38.000Z</time>
      </trkpt>
      <trkpt lat="45.2678" lon="4.62051">
        <ele>736.40002441406</ele>
        <time>2026-05-12T11:34:39.000Z</time>
      </trkpt>
      <trkpt lat="45.26781" lon="4.62055">
        <ele>736.79998779297</ele>
        <time>2026-05-12T11:34:40.000Z</time>
      </trkpt>
      <trkpt lat="45.26782" lon="4.62059">
        <ele>737</ele>
        <time>2026-05-12T11:34:41.000Z</time>
      </trkpt>
      <trkpt lat="45.26783" lon="4.62063">
        <ele>737.40002441406</ele>
        <time>2026-05-12T11:34:42.000Z</time>
      </trkpt>
      <trkpt lat="45.26783" lon="4.62066">
        <ele>737.59997558594</ele>
        <time>2026-05-12T11:34:43.000Z</time>
      </trkpt>
      <trkpt lat="45.26784" lon="4.62069">
        <ele>738</ele>
        <time>2026-05-12T11:34:44.000Z</time>
      </trkpt>
      <trkpt lat="45.26785" lon="4.62073">
        <ele>738.20001220703</ele>
        <time>2026-05-12T11:34:45.000Z</time>
      </trkpt>
      <trkpt lat="45.26785" lon="4.62077">
        <ele>738.40002441406</ele>
        <time>2026-05-12T11:34:46.000Z</time>
      </trkpt>
      <trkpt lat="45.26786" lon="4.6208">
        <ele>738.59997558594</ele>
        <time>2026-05-12T11:34:47.000Z</time>
      </trkpt>
      <trkpt lat="45.26787" lon="4.62083">
        <ele>738.79998779297</ele>
        <time>2026-05-12T11:34:48.000Z</time>
      </trkpt>
      <trkpt lat="45.26787" lon="4.62087">
        <ele>739</ele>
        <time>2026-05-12T11:34:49.000Z</time>
      </trkpt>
      <trkpt lat="45.26788" lon="4.62091">
        <ele>739.20001220703</ele>
        <time>2026-05-12T11:34:50.000Z</time>
      </trkpt>
      <trkpt lat="45.26789" lon="4.62094">
        <ele>739.40002441406</ele>
        <time>2026-05-12T11:34:51.000Z</time>
      </trkpt>
      <trkpt lat="45.2679" lon="4.62097">
        <ele>739.59997558594</ele>
        <time>2026-05-12T11:34:52.000Z</time>
      </trkpt>
      <trkpt lat="45.26791" lon="4.621">
        <ele>739.79998779297</ele>
        <time>2026-05-12T11:34:53.000Z</time>
      </trkpt>
      <trkpt lat="45.26792" lon="4.62103">
        <ele>740</ele>
        <time>2026-05-12T11:34:54.000Z</time>
      </trkpt>
      <trkpt lat="45.26793" lon="4.62105">
        <ele>740</ele>
        <time>2026-05-12T11:34:55.000Z</time>
      </trkpt>
      <trkpt lat="45.26795" lon="4.62107">
        <ele>740</ele>
        <time>2026-05-12T11:34:56.000Z</time>
      </trkpt>
      <trkpt lat="45.26797" lon="4.6211">
        <ele>740</ele>
        <time>2026-05-12T11:34:57.000Z</time>
      </trkpt>
      <trkpt lat="45.26799" lon="4.62112">
        <ele>739.79998779297</ele>
        <time>2026-05-12T11:34:58.000Z</time>
      </trkpt>
      <trkpt lat="45.26801" lon="4.62115">
        <ele>739.59997558594</ele>
        <time>2026-05-12T11:34:59.000Z</time>
      </trkpt>
      <trkpt lat="45.26804" lon="4.62118">
        <ele>739.40002441406</ele>
        <time>2026-05-12T11:35:00.000Z</time>
      </trkpt>
      <trkpt lat="45.26806" lon="4.6212">
        <ele>739.20001220703</ele>
        <time>2026-05-12T11:35:01.000Z</time>
      </trkpt>
      <trkpt lat="45.26809" lon="4.62123">
        <ele>738.79998779297</ele>
        <time>2026-05-12T11:35:02.000Z</time>
      </trkpt>
      <trkpt lat="45.26812" lon="4.62125">
        <ele>738.59997558594</ele>
        <time>2026-05-12T11:35:03.000Z</time>
      </trkpt>
      <trkpt lat="45.26815" lon="4.62128">
        <ele>738.40002441406</ele>
        <time>2026-05-12T11:35:04.000Z</time>
      </trkpt>
      <trkpt lat="45.26818" lon="4.62131">
        <ele>738</ele>
        <time>2026-05-12T11:35:05.000Z</time>
      </trkpt>
      <trkpt lat="45.26821" lon="4.62134">
        <ele>737.79998779297</ele>
        <time>2026-05-12T11:35:06.000Z</time>
      </trkpt>
      <trkpt lat="45.26824" lon="4.62137">
        <ele>737.59997558594</ele>
        <time>2026-05-12T11:35:07.000Z</time>
      </trkpt>
      <trkpt lat="45.26826" lon="4.6214">
        <ele>737.59997558594</ele>
        <time>2026-05-12T11:35:08.000Z</time>
      </trkpt>
      <trkpt lat="45.26829" lon="4.62143">
        <ele>737.40002441406</ele>
        <time>2026-05-12T11:35:09.000Z</time>
      </trkpt>
      <trkpt lat="45.26832" lon="4.62147">
        <ele>737.20001220703</ele>
        <time>2026-05-12T11:35:10.000Z</time>
      </trkpt>
      <trkpt lat="45.26836" lon="4.6215">
        <ele>737</ele>
        <time>2026-05-12T11:35:11.000Z</time>
      </trkpt>
      <trkpt lat="45.26839" lon="4.62154">
        <ele>736.59997558594</ele>
        <time>2026-05-12T11:35:12.000Z</time>
      </trkpt>
      <trkpt lat="45.26843" lon="4.62158">
        <ele>736.40002441406</ele>
        <time>2026-05-12T11:35:13.000Z</time>
      </trkpt>
      <trkpt lat="45.26846" lon="4.62162">
        <ele>736</ele>
        <time>2026-05-12T11:35:14.000Z</time>
      </trkpt>
      <trkpt lat="45.26848" lon="4.62166">
        <ele>735.79998779297</ele>
        <time>2026-05-12T11:35:15.000Z</time>
      </trkpt>
      <trkpt lat="45.26851" lon="4.62171">
        <ele>735.59997558594</ele>
        <time>2026-05-12T11:35:16.000Z</time>
      </trkpt>
      <trkpt lat="45.26853" lon="4.62175">
        <ele>735.40002441406</ele>
        <time>2026-05-12T11:35:17.000Z</time>
      </trkpt>
      <trkpt lat="45.26856" lon="4.6218">
        <ele>735.40002441406</ele>
        <time>2026-05-12T11:35:18.000Z</time>
      </trkpt>
      <trkpt lat="45.26858" lon="4.62184">
        <ele>735.20001220703</ele>
        <time>2026-05-12T11:35:19.000Z</time>
      </trkpt>
      <trkpt lat="45.2686" lon="4.62188">
        <ele>734.79998779297</ele>
        <time>2026-05-12T11:35:20.000Z</time>
      </trkpt>
      <trkpt lat="45.26861" lon="4.62192">
        <ele>734.59997558594</ele>
        <time>2026-05-12T11:35:21.000Z</time>
      </trkpt>
      <trkpt lat="45.26863" lon="4.62195">
        <ele>734.40002441406</ele>
        <time>2026-05-12T11:35:22.000Z</time>
      </trkpt>
      <trkpt lat="45.26865" lon="4.62199">
        <ele>734.20001220703</ele>
        <time>2026-05-12T11:35:23.000Z</time>
      </trkpt>
      <trkpt lat="45.26867" lon="4.62203">
        <ele>734</ele>
        <time>2026-05-12T11:35:24.000Z</time>
      </trkpt>
      <trkpt lat="45.26869" lon="4.62207">
        <ele>733.79998779297</ele>
        <time>2026-05-12T11:35:25.000Z</time>
      </trkpt>
      <trkpt lat="45.26871" lon="4.62212">
        <ele>733.59997558594</ele>
        <time>2026-05-12T11:35:26.000Z</time>
      </trkpt>
      <trkpt lat="45.26873" lon="4.62217">
        <ele>733</ele>
        <time>2026-05-12T11:35:27.000Z</time>
      </trkpt>
      <trkpt lat="45.26875" lon="4.62223">
        <ele>732.59997558594</ele>
        <time>2026-05-12T11:35:28.000Z</time>
      </trkpt>
      <trkpt lat="45.26878" lon="4.62229">
        <ele>732</ele>
        <time>2026-05-12T11:35:29.000Z</time>
      </trkpt>
      <trkpt lat="45.26881" lon="4.62236">
        <ele>731.40002441406</ele>
        <time>2026-05-12T11:35:30.000Z</time>
      </trkpt>
      <trkpt lat="45.26885" lon="4.62243">
        <ele>730.79998779297</ele>
        <time>2026-05-12T11:35:31.000Z</time>
      </trkpt>
      <trkpt lat="45.26888" lon="4.6225">
        <ele>730.20001220703</ele>
        <time>2026-05-12T11:35:32.000Z</time>
      </trkpt>
      <trkpt lat="45.26891" lon="4.62255">
        <ele>729.79998779297</ele>
        <time>2026-05-12T11:35:33.000Z</time>
      </trkpt>
      <trkpt lat="45.26895" lon="4.6226">
        <ele>729.40002441406</ele>
        <time>2026-05-12T11:35:34.000Z</time>
      </trkpt>
      <trkpt lat="45.26898" lon="4.62265">
        <ele>729.20001220703</ele>
        <time>2026-05-12T11:35:35.000Z</time>
      </trkpt>
      <trkpt lat="45.269" lon="4.62269">
        <ele>728.79998779297</ele>
        <time>2026-05-12T11:35:36.000Z</time>
      </trkpt>
      <trkpt lat="45.26903" lon="4.62274">
        <ele>728.79998779297</ele>
        <time>2026-05-12T11:35:37.000Z</time>
      </trkpt>
      <trkpt lat="45.26905" lon="4.62278">
        <ele>728.59997558594</ele>
        <time>2026-05-12T11:35:38.000Z</time>
      </trkpt>
      <trkpt lat="45.26906" lon="4.62282">
        <ele>728.20001220703</ele>
        <time>2026-05-12T11:35:39.000Z</time>
      </trkpt>
      <trkpt lat="45.26908" lon="4.62287">
        <ele>728</ele>
        <time>2026-05-12T11:35:40.000Z</time>
      </trkpt>
      <trkpt lat="45.2691" lon="4.6229">
        <ele>727.59997558594</ele>
        <time>2026-05-12T11:35:41.000Z</time>
      </trkpt>
      <trkpt lat="45.26911" lon="4.62294">
        <ele>727.20001220703</ele>
        <time>2026-05-12T11:35:42.000Z</time>
      </trkpt>
      <trkpt lat="45.26912" lon="4.62298">
        <ele>726.79998779297</ele>
        <time>2026-05-12T11:35:43.000Z</time>
      </trkpt>
      <trkpt lat="45.26914" lon="4.62302">
        <ele>726.40002441406</ele>
        <time>2026-05-12T11:35:44.000Z</time>
      </trkpt>
      <trkpt lat="45.26915" lon="4.62306">
        <ele>726</ele>
        <time>2026-05-12T11:35:45.000Z</time>
      </trkpt>
      <trkpt lat="45.26916" lon="4.6231">
        <ele>725.40002441406</ele>
        <time>2026-05-12T11:35:46.000Z</time>
      </trkpt>
      <trkpt lat="45.26918" lon="4.62314">
        <ele>725</ele>
        <time>2026-05-12T11:35:47.000Z</time>
      </trkpt>
      <trkpt lat="45.26919" lon="4.62319">
        <ele>724.40002441406</ele>
        <time>2026-05-12T11:35:48.000Z</time>
      </trkpt>
      <trkpt lat="45.26921" lon="4.62323">
        <ele>723.79998779297</ele>
        <time>2026-05-12T11:35:49.000Z</time>
      </trkpt>
      <trkpt lat="45.26922" lon="4.62328">
        <ele>723.20001220703</ele>
        <time>2026-05-12T11:35:50.000Z</time>
      </trkpt>
      <trkpt lat="45.26924" lon="4.62333">
        <ele>722.59997558594</ele>
        <time>2026-05-12T11:35:51.000Z</time>
      </trkpt>
      <trkpt lat="45.26925" lon="4.62337">
        <ele>722</ele>
        <time>2026-05-12T11:35:52.000Z</time>
      </trkpt>
      <trkpt lat="45.26926" lon="4.62342">
        <ele>721.40002441406</ele>
        <time>2026-05-12T11:35:53.000Z</time>
      </trkpt>
      <trkpt lat="45.26928" lon="4.62346">
        <ele>720.59997558594</ele>
        <time>2026-05-12T11:35:54.000Z</time>
      </trkpt>
      <trkpt lat="45.26929" lon="4.62351">
        <ele>720</ele>
        <time>2026-05-12T11:35:55.000Z</time>
      </trkpt>
      <trkpt lat="45.26931" lon="4.62355">
        <ele>719.40002441406</ele>
        <time>2026-05-12T11:35:56.000Z</time>
      </trkpt>
      <trkpt lat="45.26933" lon="4.6236">
        <ele>718.79998779297</ele>
        <time>2026-05-12T11:35:57.000Z</time>
      </trkpt>
      <trkpt lat="45.26934" lon="4.62363">
        <ele>718.20001220703</ele>
        <time>2026-05-12T11:35:58.000Z</time>
      </trkpt>
      <trkpt lat="45.26936" lon="4.62367">
        <ele>717.79998779297</ele>
        <time>2026-05-12T11:35:59.000Z</time>
      </trkpt>
      <trkpt lat="45.26937" lon="4.62371">
        <ele>717.20001220703</ele>
        <time>2026-05-12T11:36:00.000Z</time>
      </trkpt>
      <trkpt lat="45.26937" lon="4.62376">
        <ele>716.59997558594</ele>
        <time>2026-05-12T11:36:01.000Z</time>
      </trkpt>
      <trkpt lat="45.26937" lon="4.6238">
        <ele>716.20001220703</ele>
        <time>2026-05-12T11:36:02.000Z</time>
      </trkpt>
      <trkpt lat="45.26936" lon="4.62384">
        <ele>715.59997558594</ele>
        <time>2026-05-12T11:36:03.000Z</time>
      </trkpt>
      <trkpt lat="45.26936" lon="4.62388">
        <ele>715</ele>
        <time>2026-05-12T11:36:04.000Z</time>
      </trkpt>
      <trkpt lat="45.26936" lon="4.62392">
        <ele>714.59997558594</ele>
        <time>2026-05-12T11:36:05.000Z</time>
      </trkpt>
      <trkpt lat="45.26937" lon="4.62396">
        <ele>714</ele>
        <time>2026-05-12T11:36:06.000Z</time>
      </trkpt>
      <trkpt lat="45.26938" lon="4.62398">
        <ele>713.40002441406</ele>
        <time>2026-05-12T11:36:07.000Z</time>
      </trkpt>
      <trkpt lat="45.26941" lon="4.624">
        <ele>712.79998779297</ele>
        <time>2026-05-12T11:36:08.000Z</time>
      </trkpt>
      <trkpt lat="45.26944" lon="4.62402">
        <ele>712.20001220703</ele>
        <time>2026-05-12T11:36:09.000Z</time>
      </trkpt>
      <trkpt lat="45.26947" lon="4.62404">
        <ele>711.59997558594</ele>
        <time>2026-05-12T11:36:10.000Z</time>
      </trkpt>
      <trkpt lat="45.2695" lon="4.62405">
        <ele>711</ele>
        <time>2026-05-12T11:36:11.000Z</time>
      </trkpt>
      <trkpt lat="45.26953" lon="4.62407">
        <ele>710.40002441406</ele>
        <time>2026-05-12T11:36:12.000Z</time>
      </trkpt>
      <trkpt lat="45.26956" lon="4.62409">
        <ele>709.79998779297</ele>
        <time>2026-05-12T11:36:13.000Z</time>
      </trkpt>
      <trkpt lat="45.2696" lon="4.6241">
        <ele>709</ele>
        <time>2026-05-12T11:36:14.000Z</time>
      </trkpt>
      <trkpt lat="45.26964" lon="4.62413">
        <ele>708.40002441406</ele>
        <time>2026-05-12T11:36:15.000Z</time>
      </trkpt>
      <trkpt lat="45.26969" lon="4.62415">
        <ele>707.40002441406</ele>
        <time>2026-05-12T11:36:16.000Z</time>
      </trkpt>
      <trkpt lat="45.26973" lon="4.62418">
        <ele>706.59997558594</ele>
        <time>2026-05-12T11:36:17.000Z</time>
      </trkpt>
      <trkpt lat="45.26978" lon="4.6242">
        <ele>705.59997558594</ele>
        <time>2026-05-12T11:36:18.000Z</time>
      </trkpt>
      <trkpt lat="45.26982" lon="4.62424">
        <ele>705</ele>
        <time>2026-05-12T11:36:19.000Z</time>
      </trkpt>
      <trkpt lat="45.26986" lon="4.62428">
        <ele>704</ele>
        <time>2026-05-12T11:36:20.000Z</time>
      </trkpt>
      <trkpt lat="45.26991" lon="4.62433">
        <ele>703.20001220703</ele>
        <time>2026-05-12T11:36:21.000Z</time>
      </trkpt>
      <trkpt lat="45.26996" lon="4.62437">
        <ele>702.20001220703</ele>
        <time>2026-05-12T11:36:22.000Z</time>
      </trkpt>
      <trkpt lat="45.26999" lon="4.62441">
        <ele>701.40002441406</ele>
        <time>2026-05-12T11:36:23.000Z</time>
      </trkpt>
      <trkpt lat="45.27003" lon="4.62444">
        <ele>700.59997558594</ele>
        <time>2026-05-12T11:36:24.000Z</time>
      </trkpt>
      <trkpt lat="45.27006" lon="4.62447">
        <ele>699.79998779297</ele>
        <time>2026-05-12T11:36:25.000Z</time>
      </trkpt>
      <trkpt lat="45.27008" lon="4.62449">
        <ele>699.40002441406</ele>
        <time>2026-05-12T11:36:26.000Z</time>
      </trkpt>
      <trkpt lat="45.27011" lon="4.62452">
        <ele>698.79998779297</ele>
        <time>2026-05-12T11:36:27.000Z</time>
      </trkpt>
      <trkpt lat="45.27015" lon="4.62455">
        <ele>698.40002441406</ele>
        <time>2026-05-12T11:36:28.000Z</time>
      </trkpt>
      <trkpt lat="45.27018" lon="4.62458">
        <ele>697.59997558594</ele>
        <time>2026-05-12T11:36:29.000Z</time>
      </trkpt>
      <trkpt lat="45.27021" lon="4.6246">
        <ele>697</ele>
        <time>2026-05-12T11:36:30.000Z</time>
      </trkpt>
      <trkpt lat="45.27025" lon="4.62462">
        <ele>696</ele>
        <time>2026-05-12T11:36:31.000Z</time>
      </trkpt>
      <trkpt lat="45.27029" lon="4.62463">
        <ele>695.20001220703</ele>
        <time>2026-05-12T11:36:32.000Z</time>
      </trkpt>
      <trkpt lat="45.27033" lon="4.62464">
        <ele>694.40002441406</ele>
        <time>2026-05-12T11:36:33.000Z</time>
      </trkpt>
      <trkpt lat="45.27036" lon="4.62465">
        <ele>693.59997558594</ele>
        <time>2026-05-12T11:36:34.000Z</time>
      </trkpt>
      <trkpt lat="45.27039" lon="4.62467">
        <ele>693</ele>
        <time>2026-05-12T11:36:35.000Z</time>
      </trkpt>
      <trkpt lat="45.27042" lon="4.62468">
        <ele>692.20001220703</ele>
        <time>2026-05-12T11:36:36.000Z</time>
      </trkpt>
      <trkpt lat="45.27046" lon="4.6247">
        <ele>691.59997558594</ele>
        <time>2026-05-12T11:36:37.000Z</time>
      </trkpt>
      <trkpt lat="45.27049" lon="4.62472">
        <ele>690.79998779297</ele>
        <time>2026-05-12T11:36:38.000Z</time>
      </trkpt>
      <trkpt lat="45.27052" lon="4.62474">
        <ele>690</ele>
        <time>2026-05-12T11:36:39.000Z</time>
      </trkpt>
      <trkpt lat="45.27055" lon="4.62476">
        <ele>689.20001220703</ele>
        <time>2026-05-12T11:36:40.000Z</time>
      </trkpt>
      <trkpt lat="45.27059" lon="4.62479">
        <ele>688.40002441406</ele>
        <time>2026-05-12T11:36:41.000Z</time>
      </trkpt>
      <trkpt lat="45.27063" lon="4.62482">
        <ele>687.59997558594</ele>
        <time>2026-05-12T11:36:42.000Z</time>
      </trkpt>
      <trkpt lat="45.27067" lon="4.62485">
        <ele>686.59997558594</ele>
        <time>2026-05-12T11:36:43.000Z</time>
      </trkpt>
      <trkpt lat="45.27072" lon="4.62486">
        <ele>685.59997558594</ele>
        <time>2026-05-12T11:36:44.000Z</time>
      </trkpt>
      <trkpt lat="45.27076" lon="4.62488">
        <ele>684.59997558594</ele>
        <time>2026-05-12T11:36:45.000Z</time>
      </trkpt>
      <trkpt lat="45.2708" lon="4.62488">
        <ele>683.59997558594</ele>
        <time>2026-05-12T11:36:46.000Z</time>
      </trkpt>
      <trkpt lat="45.27084" lon="4.62489">
        <ele>682.79998779297</ele>
        <time>2026-05-12T11:36:47.000Z</time>
      </trkpt>
      <trkpt lat="45.27088" lon="4.62488">
        <ele>682</ele>
        <time>2026-05-12T11:36:48.000Z</time>
      </trkpt>
      <trkpt lat="45.27092" lon="4.62487">
        <ele>681.20001220703</ele>
        <time>2026-05-12T11:36:49.000Z</time>
      </trkpt>
      <trkpt lat="45.27096" lon="4.62485">
        <ele>680.40002441406</ele>
        <time>2026-05-12T11:36:50.000Z</time>
      </trkpt>
      <trkpt lat="45.271" lon="4.62482">
        <ele>679.79998779297</ele>
        <time>2026-05-12T11:36:51.000Z</time>
      </trkpt>
      <trkpt lat="45.27103" lon="4.62479">
        <ele>679</ele>
        <time>2026-05-12T11:36:52.000Z</time>
      </trkpt>
      <trkpt lat="45.27106" lon="4.62475">
        <ele>678.40002441406</ele>
        <time>2026-05-12T11:36:53.000Z</time>
      </trkpt>
      <trkpt lat="45.27109" lon="4.62471">
        <ele>678</ele>
        <time>2026-05-12T11:36:54.000Z</time>
      </trkpt>
      <trkpt lat="45.27111" lon="4.62468">
        <ele>677.40002441406</ele>
        <time>2026-05-12T11:36:55.000Z</time>
      </trkpt>
      <trkpt lat="45.27114" lon="4.62464">
        <ele>676.79998779297</ele>
        <time>2026-05-12T11:36:56.000Z</time>
      </trkpt>
      <trkpt lat="45.27116" lon="4.62461">
        <ele>676.40002441406</ele>
        <time>2026-05-12T11:36:57.000Z</time>
      </trkpt>
      <trkpt lat="45.27119" lon="4.62459">
        <ele>675.79998779297</ele>
        <time>2026-05-12T11:36:58.000Z</time>
      </trkpt>
      <trkpt lat="45.27121" lon="4.62458">
        <ele>675.20001220703</ele>
        <time>2026-05-12T11:36:59.000Z</time>
      </trkpt>
      <trkpt lat="45.27124" lon="4.62459">
        <ele>674.59997558594</ele>
        <time>2026-05-12T11:37:00.000Z</time>
      </trkpt>
      <trkpt lat="45.27127" lon="4.6246">
        <ele>674</ele>
        <time>2026-05-12T11:37:01.000Z</time>
      </trkpt>
      <trkpt lat="45.27129" lon="4.62463">
        <ele>673.40002441406</ele>
        <time>2026-05-12T11:37:02.000Z</time>
      </trkpt>
      <trkpt lat="45.27132" lon="4.62466">
        <ele>672.79998779297</ele>
        <time>2026-05-12T11:37:03.000Z</time>
      </trkpt>
      <trkpt lat="45.27134" lon="4.6247">
        <ele>672</ele>
        <time>2026-05-12T11:37:04.000Z</time>
      </trkpt>
      <trkpt lat="45.27136" lon="4.62477">
        <ele>671</ele>
        <time>2026-05-12T11:37:05.000Z</time>
      </trkpt>
      <trkpt lat="45.27139" lon="4.62483">
        <ele>670.20001220703</ele>
        <time>2026-05-12T11:37:06.000Z</time>
      </trkpt>
      <trkpt lat="45.27141" lon="4.62489">
        <ele>669.20001220703</ele>
        <time>2026-05-12T11:37:07.000Z</time>
      </trkpt>
      <trkpt lat="45.27144" lon="4.62495">
        <ele>668.20001220703</ele>
        <time>2026-05-12T11:37:08.000Z</time>
      </trkpt>
      <trkpt lat="45.27146" lon="4.625">
        <ele>667.40002441406</ele>
        <time>2026-05-12T11:37:09.000Z</time>
      </trkpt>
      <trkpt lat="45.27149" lon="4.62506">
        <ele>666.59997558594</ele>
        <time>2026-05-12T11:37:10.000Z</time>
      </trkpt>
      <trkpt lat="45.27151" lon="4.62513">
        <ele>665.79998779297</ele>
        <time>2026-05-12T11:37:11.000Z</time>
      </trkpt>
      <trkpt lat="45.27154" lon="4.6252">
        <ele>665</ele>
        <time>2026-05-12T11:37:12.000Z</time>
      </trkpt>
      <trkpt lat="45.27156" lon="4.62527">
        <ele>664</ele>
        <time>2026-05-12T11:37:13.000Z</time>
      </trkpt>
      <trkpt lat="45.27158" lon="4.62533">
        <ele>663.20001220703</ele>
        <time>2026-05-12T11:37:14.000Z</time>
      </trkpt>
      <trkpt lat="45.2716" lon="4.6254">
        <ele>662.40002441406</ele>
        <time>2026-05-12T11:37:15.000Z</time>
      </trkpt>
      <trkpt lat="45.27161" lon="4.62546">
        <ele>661.79998779297</ele>
        <time>2026-05-12T11:37:16.000Z</time>
      </trkpt>
      <trkpt lat="45.27162" lon="4.62552">
        <ele>661.20001220703</ele>
        <time>2026-05-12T11:37:17.000Z</time>
      </trkpt>
      <trkpt lat="45.27163" lon="4.62558">
        <ele>660.79998779297</ele>
        <time>2026-05-12T11:37:18.000Z</time>
      </trkpt>
      <trkpt lat="45.27164" lon="4.62565">
        <ele>660.20001220703</ele>
        <time>2026-05-12T11:37:19.000Z</time>
      </trkpt>
      <trkpt lat="45.27164" lon="4.62572">
        <ele>659.59997558594</ele>
        <time>2026-05-12T11:37:20.000Z</time>
      </trkpt>
      <trkpt lat="45.27164" lon="4.6258">
        <ele>659</ele>
        <time>2026-05-12T11:37:21.000Z</time>
      </trkpt>
      <trkpt lat="45.27163" lon="4.62589">
        <ele>658.20001220703</ele>
        <time>2026-05-12T11:37:22.000Z</time>
      </trkpt>
      <trkpt lat="45.27162" lon="4.62599">
        <ele>657.59997558594</ele>
        <time>2026-05-12T11:37:23.000Z</time>
      </trkpt>
      <trkpt lat="45.2716" lon="4.62607">
        <ele>656.79998779297</ele>
        <time>2026-05-12T11:37:24.000Z</time>
      </trkpt>
      <trkpt lat="45.27159" lon="4.62615">
        <ele>656.20001220703</ele>
        <time>2026-05-12T11:37:25.000Z</time>
      </trkpt>
      <trkpt lat="45.27157" lon="4.62622">
        <ele>655.59997558594</ele>
        <time>2026-05-12T11:37:26.000Z</time>
      </trkpt>
      <trkpt lat="45.27156" lon="4.62629">
        <ele>655.20001220703</ele>
        <time>2026-05-12T11:37:27.000Z</time>
      </trkpt>
      <trkpt lat="45.27155" lon="4.62636">
        <ele>654.59997558594</ele>
        <time>2026-05-12T11:37:28.000Z</time>
      </trkpt>
      <trkpt lat="45.27154" lon="4.62642">
        <ele>654</ele>
        <time>2026-05-12T11:37:29.000Z</time>
      </trkpt>
      <trkpt lat="45.27154" lon="4.62649">
        <ele>653.40002441406</ele>
        <time>2026-05-12T11:37:30.000Z</time>
      </trkpt>
      <trkpt lat="45.27154" lon="4.62656">
        <ele>652.79998779297</ele>
        <time>2026-05-12T11:37:31.000Z</time>
      </trkpt>
      <trkpt lat="45.27153" lon="4.62662">
        <ele>652.20001220703</ele>
        <time>2026-05-12T11:37:32.000Z</time>
      </trkpt>
      <trkpt lat="45.27153" lon="4.62667">
        <ele>651.59997558594</ele>
        <time>2026-05-12T11:37:33.000Z</time>
      </trkpt>
      <trkpt lat="45.27153" lon="4.62672">
        <ele>651.20001220703</ele>
        <time>2026-05-12T11:37:34.000Z</time>
      </trkpt>
      <trkpt lat="45.27152" lon="4.62678">
        <ele>650.59997558594</ele>
        <time>2026-05-12T11:37:35.000Z</time>
      </trkpt>
      <trkpt lat="45.27153" lon="4.62684">
        <ele>650</ele>
        <time>2026-05-12T11:37:36.000Z</time>
      </trkpt>
      <trkpt lat="45.27154" lon="4.62691">
        <ele>649.40002441406</ele>
        <time>2026-05-12T11:37:37.000Z</time>
      </trkpt>
      <trkpt lat="45.27156" lon="4.62699">
        <ele>648.59997558594</ele>
        <time>2026-05-12T11:37:38.000Z</time>
      </trkpt>
      <trkpt lat="45.27158" lon="4.62707">
        <ele>647.79998779297</ele>
        <time>2026-05-12T11:37:39.000Z</time>
      </trkpt>
      <trkpt lat="45.2716" lon="4.62714">
        <ele>646.79998779297</ele>
        <time>2026-05-12T11:37:40.000Z</time>
      </trkpt>
      <trkpt lat="45.27162" lon="4.62722">
        <ele>645.79998779297</ele>
        <time>2026-05-12T11:37:41.000Z</time>
      </trkpt>
      <trkpt lat="45.27164" lon="4.6273">
        <ele>644.79998779297</ele>
        <time>2026-05-12T11:37:42.000Z</time>
      </trkpt>
      <trkpt lat="45.27166" lon="4.62739">
        <ele>643.59997558594</ele>
        <time>2026-05-12T11:37:43.000Z</time>
      </trkpt>
      <trkpt lat="45.27168" lon="4.62747">
        <ele>642.40002441406</ele>
        <time>2026-05-12T11:37:44.000Z</time>
      </trkpt>
      <trkpt lat="45.2717" lon="4.62754">
        <ele>641.40002441406</ele>
        <time>2026-05-12T11:37:45.000Z</time>
      </trkpt>
      <trkpt lat="45.27171" lon="4.6276">
        <ele>640.40002441406</ele>
        <time>2026-05-12T11:37:46.000Z</time>
      </trkpt>
      <trkpt lat="45.27173" lon="4.62766">
        <ele>639.59997558594</ele>
        <time>2026-05-12T11:37:47.000Z</time>
      </trkpt>
      <trkpt lat="45.27175" lon="4.62772">
        <ele>638.79998779297</ele>
        <time>2026-05-12T11:37:48.000Z</time>
      </trkpt>
      <trkpt lat="45.27177" lon="4.62778">
        <ele>638</ele>
        <time>2026-05-12T11:37:49.000Z</time>
      </trkpt>
      <trkpt lat="45.2718" lon="4.62785">
        <ele>637.20001220703</ele>
        <time>2026-05-12T11:37:50.000Z</time>
      </trkpt>
      <trkpt lat="45.27183" lon="4.62792">
        <ele>636.40002441406</ele>
        <time>2026-05-12T11:37:51.000Z</time>
      </trkpt>
      <trkpt lat="45.27186" lon="4.628">
        <ele>635.40002441406</ele>
        <time>2026-05-12T11:37:52.000Z</time>
      </trkpt>
      <trkpt lat="45.27189" lon="4.62808">
        <ele>634.40002441406</ele>
        <time>2026-05-12T11:37:53.000Z</time>
      </trkpt>
      <trkpt lat="45.27192" lon="4.62815">
        <ele>633.40002441406</ele>
        <time>2026-05-12T11:37:54.000Z</time>
      </trkpt>
      <trkpt lat="45.27195" lon="4.62823">
        <ele>632.40002441406</ele>
        <time>2026-05-12T11:37:55.000Z</time>
      </trkpt>
      <trkpt lat="45.27198" lon="4.6283">
        <ele>631.59997558594</ele>
        <time>2026-05-12T11:37:56.000Z</time>
      </trkpt>
      <trkpt lat="45.27201" lon="4.62838">
        <ele>630.79998779297</ele>
        <time>2026-05-12T11:37:57.000Z</time>
      </trkpt>
      <trkpt lat="45.27203" lon="4.62847">
        <ele>630</ele>
        <time>2026-05-12T11:37:58.000Z</time>
      </trkpt>
      <trkpt lat="45.27205" lon="4.62856">
        <ele>629.20001220703</ele>
        <time>2026-05-12T11:37:59.000Z</time>
      </trkpt>
      <trkpt lat="45.27207" lon="4.62866">
        <ele>628.20001220703</ele>
        <time>2026-05-12T11:38:00.000Z</time>
      </trkpt>
      <trkpt lat="45.27207" lon="4.62875">
        <ele>627.20001220703</ele>
        <time>2026-05-12T11:38:01.000Z</time>
      </trkpt>
      <trkpt lat="45.27208" lon="4.62883">
        <ele>626.40002441406</ele>
        <time>2026-05-12T11:38:02.000Z</time>
      </trkpt>
      <trkpt lat="45.27209" lon="4.6289">
        <ele>625.40002441406</ele>
        <time>2026-05-12T11:38:03.000Z</time>
      </trkpt>
      <trkpt lat="45.27209" lon="4.62897">
        <ele>624.79998779297</ele>
        <time>2026-05-12T11:38:04.000Z</time>
      </trkpt>
      <trkpt lat="45.27209" lon="4.62905">
        <ele>623.79998779297</ele>
        <time>2026-05-12T11:38:05.000Z</time>
      </trkpt>
      <trkpt lat="45.27209" lon="4.62913">
        <ele>623</ele>
        <time>2026-05-12T11:38:06.000Z</time>
      </trkpt>
      <trkpt lat="45.27209" lon="4.62921">
        <ele>621.79998779297</ele>
        <time>2026-05-12T11:38:07.000Z</time>
      </trkpt>
      <trkpt lat="45.2721" lon="4.62928">
        <ele>620.79998779297</ele>
        <time>2026-05-12T11:38:08.000Z</time>
      </trkpt>
      <trkpt lat="45.27211" lon="4.62937">
        <ele>619.40002441406</ele>
        <time>2026-05-12T11:38:09.000Z</time>
      </trkpt>
      <trkpt lat="45.27213" lon="4.62946">
        <ele>618</ele>
        <time>2026-05-12T11:38:10.000Z</time>
      </trkpt>
      <trkpt lat="45.27215" lon="4.62956">
        <ele>616.79998779297</ele>
        <time>2026-05-12T11:38:11.000Z</time>
      </trkpt>
      <trkpt lat="45.27217" lon="4.62965">
        <ele>615.40002441406</ele>
        <time>2026-05-12T11:38:12.000Z</time>
      </trkpt>
      <trkpt lat="45.27219" lon="4.62973">
        <ele>614.20001220703</ele>
        <time>2026-05-12T11:38:13.000Z</time>
      </trkpt>
      <trkpt lat="45.27222" lon="4.62982">
        <ele>613</ele>
        <time>2026-05-12T11:38:14.000Z</time>
      </trkpt>
      <trkpt lat="45.27224" lon="4.6299">
        <ele>612</ele>
        <time>2026-05-12T11:38:15.000Z</time>
      </trkpt>
      <trkpt lat="45.27227" lon="4.62999">
        <ele>611.20001220703</ele>
        <time>2026-05-12T11:38:16.000Z</time>
      </trkpt>
      <trkpt lat="45.27228" lon="4.63007">
        <ele>610.40002441406</ele>
        <time>2026-05-12T11:38:17.000Z</time>
      </trkpt>
      <trkpt lat="45.27228" lon="4.63015">
        <ele>609.59997558594</ele>
        <time>2026-05-12T11:38:18.000Z</time>
      </trkpt>
      <trkpt lat="45.27228" lon="4.63023">
        <ele>609</ele>
        <time>2026-05-12T11:38:19.000Z</time>
      </trkpt>
      <trkpt lat="45.27228" lon="4.63029">
        <ele>608.59997558594</ele>
        <time>2026-05-12T11:38:20.000Z</time>
      </trkpt>
      <trkpt lat="45.27227" lon="4.63035">
        <ele>608.40002441406</ele>
        <time>2026-05-12T11:38:21.000Z</time>
      </trkpt>
      <trkpt lat="45.27226" lon="4.6304">
        <ele>608.20001220703</ele>
        <time>2026-05-12T11:38:22.000Z</time>
      </trkpt>
      <trkpt lat="45.27225" lon="4.63045">
        <ele>608</ele>
        <time>2026-05-12T11:38:23.000Z</time>
      </trkpt>
      <trkpt lat="45.27224" lon="4.63051">
        <ele>607.59997558594</ele>
        <time>2026-05-12T11:38:24.000Z</time>
      </trkpt>
      <trkpt lat="45.27223" lon="4.63058">
        <ele>607</ele>
        <time>2026-05-12T11:38:25.000Z</time>
      </trkpt>
      <trkpt lat="45.27221" lon="4.63064">
        <ele>606.40002441406</ele>
        <time>2026-05-12T11:38:26.000Z</time>
      </trkpt>
      <trkpt lat="45.27219" lon="4.6307">
        <ele>605.79998779297</ele>
        <time>2026-05-12T11:38:27.000Z</time>
      </trkpt>
      <trkpt lat="45.27216" lon="4.63076">
        <ele>605</ele>
        <time>2026-05-12T11:38:28.000Z</time>
      </trkpt>
      <trkpt lat="45.27212" lon="4.6308">
        <ele>604.40002441406</ele>
        <time>2026-05-12T11:38:29.000Z</time>
      </trkpt>
      <trkpt lat="45.27209" lon="4.63085">
        <ele>603.59997558594</ele>
        <time>2026-05-12T11:38:30.000Z</time>
      </trkpt>
      <trkpt lat="45.27206" lon="4.63089">
        <ele>603.20001220703</ele>
        <time>2026-05-12T11:38:31.000Z</time>
      </trkpt>
      <trkpt lat="45.27203" lon="4.63094">
        <ele>602.59997558594</ele>
        <time>2026-05-12T11:38:32.000Z</time>
      </trkpt>
      <trkpt lat="45.272" lon="4.63099">
        <ele>602</ele>
        <time>2026-05-12T11:38:33.000Z</time>
      </trkpt>
      <trkpt lat="45.27197" lon="4.63105">
        <ele>601.20001220703</ele>
        <time>2026-05-12T11:38:34.000Z</time>
      </trkpt>
      <trkpt lat="45.27194" lon="4.63111">
        <ele>600.59997558594</ele>
        <time>2026-05-12T11:38:35.000Z</time>
      </trkpt>
      <trkpt lat="45.27191" lon="4.63118">
        <ele>599.79998779297</ele>
        <time>2026-05-12T11:38:36.000Z</time>
      </trkpt>
      <trkpt lat="45.27188" lon="4.63124">
        <ele>599</ele>
        <time>2026-05-12T11:38:37.000Z</time>
      </trkpt>
      <trkpt lat="45.27185" lon="4.63131">
        <ele>598</ele>
        <time>2026-05-12T11:38:38.000Z</time>
      </trkpt>
      <trkpt lat="45.27183" lon="4.63138">
        <ele>597.20001220703</ele>
        <time>2026-05-12T11:38:39.000Z</time>
      </trkpt>
      <trkpt lat="45.27181" lon="4.63145">
        <ele>596.40002441406</ele>
        <time>2026-05-12T11:38:40.000Z</time>
      </trkpt>
      <trkpt lat="45.27178" lon="4.63153">
        <ele>595.59997558594</ele>
        <time>2026-05-12T11:38:41.000Z</time>
      </trkpt>
      <trkpt lat="45.27176" lon="4.63159">
        <ele>594.79998779297</ele>
        <time>2026-05-12T11:38:42.000Z</time>
      </trkpt>
      <trkpt lat="45.27175" lon="4.63165">
        <ele>594.20001220703</ele>
        <time>2026-05-12T11:38:43.000Z</time>
      </trkpt>
      <trkpt lat="45.27173" lon="4.63169">
        <ele>593.59997558594</ele>
        <time>2026-05-12T11:38:44.000Z</time>
      </trkpt>
      <trkpt lat="45.2717" lon="4.63172">
        <ele>593.20001220703</ele>
        <time>2026-05-12T11:38:45.000Z</time>
      </trkpt>
      <trkpt lat="45.27167" lon="4.63173">
        <ele>592.79998779297</ele>
        <time>2026-05-12T11:38:46.000Z</time>
      </trkpt>
      <trkpt lat="45.27164" lon="4.63174">
        <ele>592.20001220703</ele>
        <time>2026-05-12T11:38:47.000Z</time>
      </trkpt>
      <trkpt lat="45.2716" lon="4.63175">
        <ele>591.79998779297</ele>
        <time>2026-05-12T11:38:48.000Z</time>
      </trkpt>
      <trkpt lat="45.27156" lon="4.63175">
        <ele>591.20001220703</ele>
        <time>2026-05-12T11:38:49.000Z</time>
      </trkpt>
      <trkpt lat="45.27152" lon="4.63175">
        <ele>590.40002441406</ele>
        <time>2026-05-12T11:38:50.000Z</time>
      </trkpt>
      <trkpt lat="45.27147" lon="4.63176">
        <ele>589.59997558594</ele>
        <time>2026-05-12T11:38:51.000Z</time>
      </trkpt>
      <trkpt lat="45.27141" lon="4.63179">
        <ele>588.59997558594</ele>
        <time>2026-05-12T11:38:52.000Z</time>
      </trkpt>
      <trkpt lat="45.27136" lon="4.63182">
        <ele>587.79998779297</ele>
        <time>2026-05-12T11:38:53.000Z</time>
      </trkpt>
      <trkpt lat="45.27131" lon="4.63187">
        <ele>586.79998779297</ele>
        <time>2026-05-12T11:38:54.000Z</time>
      </trkpt>
      <trkpt lat="45.27126" lon="4.63193">
        <ele>586</ele>
        <time>2026-05-12T11:38:55.000Z</time>
      </trkpt>
      <trkpt lat="45.27121" lon="4.63199">
        <ele>585</ele>
        <time>2026-05-12T11:38:56.000Z</time>
      </trkpt>
      <trkpt lat="45.27115" lon="4.63205">
        <ele>584.20001220703</ele>
        <time>2026-05-12T11:38:57.000Z</time>
      </trkpt>
      <trkpt lat="45.27109" lon="4.6321">
        <ele>583.40002441406</ele>
        <time>2026-05-12T11:38:58.000Z</time>
      </trkpt>
      <trkpt lat="45.27102" lon="4.63215">
        <ele>582.59997558594</ele>
        <time>2026-05-12T11:38:59.000Z</time>
      </trkpt>
      <trkpt lat="45.27096" lon="4.6322">
        <ele>581.79998779297</ele>
        <time>2026-05-12T11:39:00.000Z</time>
      </trkpt>
      <trkpt lat="45.27088" lon="4.63225">
        <ele>581</ele>
        <time>2026-05-12T11:39:01.000Z</time>
      </trkpt>
      <trkpt lat="45.27081" lon="4.63229">
        <ele>580.40002441406</ele>
        <time>2026-05-12T11:39:02.000Z</time>
      </trkpt>
      <trkpt lat="45.27073" lon="4.63233">
        <ele>579.79998779297</ele>
        <time>2026-05-12T11:39:03.000Z</time>
      </trkpt>
      <trkpt lat="45.27066" lon="4.63236">
        <ele>579.40002441406</ele>
        <time>2026-05-12T11:39:04.000Z</time>
      </trkpt>
      <trkpt lat="45.27058" lon="4.63238">
        <ele>579</ele>
        <time>2026-05-12T11:39:05.000Z</time>
      </trkpt>
      <trkpt lat="45.27051" lon="4.63239">
        <ele>578.59997558594</ele>
        <time>2026-05-12T11:39:06.000Z</time>
      </trkpt>
      <trkpt lat="45.27044" lon="4.63239">
        <ele>578.40002441406</ele>
        <time>2026-05-12T11:39:07.000Z</time>
      </trkpt>
      <trkpt lat="45.27037" lon="4.63238">
        <ele>578.20001220703</ele>
        <time>2026-05-12T11:39:08.000Z</time>
      </trkpt>
      <trkpt lat="45.27031" lon="4.63237">
        <ele>578</ele>
        <time>2026-05-12T11:39:09.000Z</time>
      </trkpt>
      <trkpt lat="45.27024" lon="4.63236">
        <ele>578</ele>
        <time>2026-05-12T11:39:10.000Z</time>
      </trkpt>
      <trkpt lat="45.27018" lon="4.63235">
        <ele>577.79998779297</ele>
        <time>2026-05-12T11:39:11.000Z</time>
      </trkpt>
      <trkpt lat="45.27012" lon="4.63233">
        <ele>577.79998779297</ele>
        <time>2026-05-12T11:39:12.000Z</time>
      </trkpt>
      <trkpt lat="45.27006" lon="4.6323">
        <ele>577.59997558594</ele>
        <time>2026-05-12T11:39:13.000Z</time>
      </trkpt>
      <trkpt lat="45.27" lon="4.63228">
        <ele>577.40002441406</ele>
        <time>2026-05-12T11:39:14.000Z</time>
      </trkpt>
      <trkpt lat="45.26995" lon="4.63225">
        <ele>577.40002441406</ele>
        <time>2026-05-12T11:39:15.000Z</time>
      </trkpt>
      <trkpt lat="45.26989" lon="4.63221">
        <ele>577.20001220703</ele>
        <time>2026-05-12T11:39:16.000Z</time>
      </trkpt>
      <trkpt lat="45.26985" lon="4.63217">
        <ele>577</ele>
        <time>2026-05-12T11:39:17.000Z</time>
      </trkpt>
      <trkpt lat="45.26981" lon="4.63213">
        <ele>576.79998779297</ele>
        <time>2026-05-12T11:39:18.000Z</time>
      </trkpt>
      <trkpt lat="45.26978" lon="4.63208">
        <ele>576.79998779297</ele>
        <time>2026-05-12T11:39:19.000Z</time>
      </trkpt>
      <trkpt lat="45.26976" lon="4.63203">
        <ele>576.59997558594</ele>
        <time>2026-05-12T11:39:20.000Z</time>
      </trkpt>
      <trkpt lat="45.26974" lon="4.63198">
        <ele>576.40002441406</ele>
        <time>2026-05-12T11:39:21.000Z</time>
      </trkpt>
      <trkpt lat="45.26971" lon="4.63192">
        <ele>576.20001220703</ele>
        <time>2026-05-12T11:39:22.000Z</time>
      </trkpt>
      <trkpt lat="45.26969" lon="4.63187">
        <ele>575.79998779297</ele>
        <time>2026-05-12T11:39:23.000Z</time>
      </trkpt>
      <trkpt lat="45.26967" lon="4.63182">
        <ele>575.20001220703</ele>
        <time>2026-05-12T11:39:24.000Z</time>
      </trkpt>
      <trkpt lat="45.26965" lon="4.63177">
        <ele>574.79998779297</ele>
        <time>2026-05-12T11:39:25.000Z</time>
      </trkpt>
      <trkpt lat="45.26963" lon="4.63171">
        <ele>574.20001220703</ele>
        <time>2026-05-12T11:39:26.000Z</time>
      </trkpt>
      <trkpt lat="45.2696" lon="4.63165">
        <ele>573.59997558594</ele>
        <time>2026-05-12T11:39:27.000Z</time>
      </trkpt>
      <trkpt lat="45.26957" lon="4.63158">
        <ele>573</ele>
        <time>2026-05-12T11:39:28.000Z</time>
      </trkpt>
      <trkpt lat="45.26953" lon="4.63151">
        <ele>572.40002441406</ele>
        <time>2026-05-12T11:39:29.000Z</time>
      </trkpt>
      <trkpt lat="45.26948" lon="4.63145">
        <ele>571.59997558594</ele>
        <time>2026-05-12T11:39:30.000Z</time>
      </trkpt>
      <trkpt lat="45.26943" lon="4.6314">
        <ele>571</ele>
        <time>2026-05-12T11:39:31.000Z</time>
      </trkpt>
      <trkpt lat="45.26938" lon="4.63136">
        <ele>570.59997558594</ele>
        <time>2026-05-12T11:39:32.000Z</time>
      </trkpt>
      <trkpt lat="45.26933" lon="4.63133">
        <ele>570.20001220703</ele>
        <time>2026-05-12T11:39:33.000Z</time>
      </trkpt>
      <trkpt lat="45.26928" lon="4.6313">
        <ele>570</ele>
        <time>2026-05-12T11:39:34.000Z</time>
      </trkpt>
      <trkpt lat="45.26923" lon="4.63127">
        <ele>570</ele>
        <time>2026-05-12T11:39:35.000Z</time>
      </trkpt>
      <trkpt lat="45.26919" lon="4.63124">
        <ele>570</ele>
        <time>2026-05-12T11:39:36.000Z</time>
      </trkpt>
      <trkpt lat="45.26915" lon="4.63121">
        <ele>570</ele>
        <time>2026-05-12T11:39:37.000Z</time>
      </trkpt>
      <trkpt lat="45.26911" lon="4.63118">
        <ele>570</ele>
        <time>2026-05-12T11:39:38.000Z</time>
      </trkpt>
      <trkpt lat="45.26908" lon="4.63115">
        <ele>570</ele>
        <time>2026-05-12T11:39:39.000Z</time>
      </trkpt>
      <trkpt lat="45.26904" lon="4.63112">
        <ele>570</ele>
        <time>2026-05-12T11:39:40.000Z</time>
      </trkpt>
      <trkpt lat="45.26901" lon="4.63108">
        <ele>570</ele>
        <time>2026-05-12T11:39:41.000Z</time>
      </trkpt>
      <trkpt lat="45.26898" lon="4.63105">
        <ele>570</ele>
        <time>2026-05-12T11:39:42.000Z</time>
      </trkpt>
      <trkpt lat="45.26894" lon="4.63102">
        <ele>570</ele>
        <time>2026-05-12T11:39:43.000Z</time>
      </trkpt>
      <trkpt lat="45.26891" lon="4.63099">
        <ele>570</ele>
        <time>2026-05-12T11:39:44.000Z</time>
      </trkpt>
      <trkpt lat="45.26888" lon="4.63095">
        <ele>569.79998779297</ele>
        <time>2026-05-12T11:39:45.000Z</time>
      </trkpt>
      <trkpt lat="45.26884" lon="4.63091">
        <ele>569.79998779297</ele>
        <time>2026-05-12T11:39:46.000Z</time>
      </trkpt>
      <trkpt lat="45.26881" lon="4.63087">
        <ele>569.59997558594</ele>
        <time>2026-05-12T11:39:47.000Z</time>
      </trkpt>
      <trkpt lat="45.26878" lon="4.63083">
        <ele>569.59997558594</ele>
        <time>2026-05-12T11:39:48.000Z</time>
      </trkpt>
      <trkpt lat="45.26874" lon="4.6308">
        <ele>569.59997558594</ele>
        <time>2026-05-12T11:39:49.000Z</time>
      </trkpt>
      <trkpt lat="45.26871" lon="4.63076">
        <ele>569.59997558594</ele>
        <time>2026-05-12T11:39:50.000Z</time>
      </trkpt>
      <trkpt lat="45.26868" lon="4.63073">
        <ele>569.59997558594</ele>
        <time>2026-05-12T11:39:51.000Z</time>
      </trkpt>
      <trkpt lat="45.26866" lon="4.6307">
        <ele>569.59997558594</ele>
        <time>2026-05-12T11:39:52.000Z</time>
      </trkpt>
      <trkpt lat="45.26863" lon="4.63066">
        <ele>569.79998779297</ele>
        <time>2026-05-12T11:39:53.000Z</time>
      </trkpt>
      <trkpt lat="45.26861" lon="4.63062">
        <ele>569.79998779297</ele>
        <time>2026-05-12T11:39:54.000Z</time>
      </trkpt>
      <trkpt lat="45.26858" lon="4.63058">
        <ele>569.79998779297</ele>
        <time>2026-05-12T11:39:55.000Z</time>
      </trkpt>
      <trkpt lat="45.26856" lon="4.63054">
        <ele>570</ele>
        <time>2026-05-12T11:39:56.000Z</time>
      </trkpt>
      <trkpt lat="45.26854" lon="4.63049">
        <ele>570</ele>
        <time>2026-05-12T11:39:57.000Z</time>
      </trkpt>
      <trkpt lat="45.26852" lon="4.63045">
        <ele>570</ele>
        <time>2026-05-12T11:39:58.000Z</time>
      </trkpt>
      <trkpt lat="45.26849" lon="4.63041">
        <ele>570.20001220703</ele>
        <time>2026-05-12T11:39:59.000Z</time>
      </trkpt>
      <trkpt lat="45.26847" lon="4.63037">
        <ele>570.20001220703</ele>
        <time>2026-05-12T11:40:00.000Z</time>
      </trkpt>
      <trkpt lat="45.26844" lon="4.63034">
        <ele>570.40002441406</ele>
        <time>2026-05-12T11:40:01.000Z</time>
      </trkpt>
      <trkpt lat="45.26842" lon="4.6303">
        <ele>570.40002441406</ele>
        <time>2026-05-12T11:40:02.000Z</time>
      </trkpt>
      <trkpt lat="45.2684" lon="4.63027">
        <ele>570.40002441406</ele>
        <time>2026-05-12T11:40:03.000Z</time>
      </trkpt>
      <trkpt lat="45.26838" lon="4.63024">
        <ele>570.59997558594</ele>
        <time>2026-05-12T11:40:04.000Z</time>
      </trkpt>
      <trkpt lat="45.26836" lon="4.63021">
        <ele>570.79998779297</ele>
        <time>2026-05-12T11:40:05.000Z</time>
      </trkpt>
      <trkpt lat="45.26834" lon="4.63017">
        <ele>570.79998779297</ele>
        <time>2026-05-12T11:40:06.000Z</time>
      </trkpt>
      <trkpt lat="45.26832" lon="4.63014">
        <ele>571</ele>
        <time>2026-05-12T11:40:07.000Z</time>
      </trkpt>
      <trkpt lat="45.2683" lon="4.6301">
        <ele>571.20001220703</ele>
        <time>2026-05-12T11:40:08.000Z</time>
      </trkpt>
      <trkpt lat="45.26828" lon="4.63007">
        <ele>571.40002441406</ele>
        <time>2026-05-12T11:40:09.000Z</time>
      </trkpt>
      <trkpt lat="45.26825" lon="4.63004">
        <ele>571.59997558594</ele>
        <time>2026-05-12T11:40:10.000Z</time>
      </trkpt>
      <trkpt lat="45.26823" lon="4.63">
        <ele>571.59997558594</ele>
        <time>2026-05-12T11:40:11.000Z</time>
      </trkpt>
      <trkpt lat="45.26821" lon="4.62997">
        <ele>571.79998779297</ele>
        <time>2026-05-12T11:40:12.000Z</time>
      </trkpt>
      <trkpt lat="45.26819" lon="4.62994">
        <ele>571.79998779297</ele>
        <time>2026-05-12T11:40:13.000Z</time>
      </trkpt>
      <trkpt lat="45.26817" lon="4.6299">
        <ele>571.79998779297</ele>
        <time>2026-05-12T11:40:14.000Z</time>
      </trkpt>
      <trkpt lat="45.26815" lon="4.62987">
        <ele>572</ele>
        <time>2026-05-12T11:40:15.000Z</time>
      </trkpt>
      <trkpt lat="45.26813" lon="4.62983">
        <ele>572</ele>
        <time>2026-05-12T11:40:16.000Z</time>
      </trkpt>
      <trkpt lat="45.2681" lon="4.6298">
        <ele>572</ele>
        <time>2026-05-12T11:40:17.000Z</time>
      </trkpt>
      <trkpt lat="45.26808" lon="4.62976">
        <ele>572.20001220703</ele>
        <time>2026-05-12T11:40:18.000Z</time>
      </trkpt>
      <trkpt lat="45.26806" lon="4.62973">
        <ele>572.20001220703</ele>
        <time>2026-05-12T11:40:19.000Z</time>
      </trkpt>
      <trkpt lat="45.26804" lon="4.6297">
        <ele>572.20001220703</ele>
        <time>2026-05-12T11:40:20.000Z</time>
      </trkpt>
      <trkpt lat="45.26801" lon="4.62966">
        <ele>572.20001220703</ele>
        <time>2026-05-12T11:40:21.000Z</time>
      </trkpt>
      <trkpt lat="45.26799" lon="4.62964">
        <ele>572.20001220703</ele>
        <time>2026-05-12T11:40:22.000Z</time>
      </trkpt>
      <trkpt lat="45.26796" lon="4.62961">
        <ele>572.20001220703</ele>
        <time>2026-05-12T11:40:23.000Z</time>
      </trkpt>
      <trkpt lat="45.26793" lon="4.62958">
        <ele>572</ele>
        <time>2026-05-12T11:40:24.000Z</time>
      </trkpt>
      <trkpt lat="45.2679" lon="4.62953">
        <ele>571.79998779297</ele>
        <time>2026-05-12T11:40:25.000Z</time>
      </trkpt>
      <trkpt lat="45.26786" lon="4.62949">
        <ele>571.40002441406</ele>
        <time>2026-05-12T11:40:26.000Z</time>
      </trkpt>
      <trkpt lat="45.26782" lon="4.62945">
        <ele>571.20001220703</ele>
        <time>2026-05-12T11:40:27.000Z</time>
      </trkpt>
      <trkpt lat="45.26777" lon="4.62943">
        <ele>570.59997558594</ele>
        <time>2026-05-12T11:40:28.000Z</time>
      </trkpt>
      <trkpt lat="45.26772" lon="4.6294">
        <ele>570.20001220703</ele>
        <time>2026-05-12T11:40:29.000Z</time>
      </trkpt>
      <trkpt lat="45.26767" lon="4.62938">
        <ele>569.40002441406</ele>
        <time>2026-05-12T11:40:30.000Z</time>
      </trkpt>
      <trkpt lat="45.26761" lon="4.62934">
        <ele>568.79998779297</ele>
        <time>2026-05-12T11:40:31.000Z</time>
      </trkpt>
      <trkpt lat="45.26757" lon="4.6293">
        <ele>568</ele>
        <time>2026-05-12T11:40:32.000Z</time>
      </trkpt>
      <trkpt lat="45.26752" lon="4.62927">
        <ele>567.20001220703</ele>
        <time>2026-05-12T11:40:33.000Z</time>
      </trkpt>
      <trkpt lat="45.26748" lon="4.62924">
        <ele>566.59997558594</ele>
        <time>2026-05-12T11:40:34.000Z</time>
      </trkpt>
      <trkpt lat="45.26745" lon="4.62921">
        <ele>566.20001220703</ele>
        <time>2026-05-12T11:40:35.000Z</time>
      </trkpt>
      <trkpt lat="45.26742" lon="4.62918">
        <ele>565.79998779297</ele>
        <time>2026-05-12T11:40:36.000Z</time>
      </trkpt>
      <trkpt lat="45.26739" lon="4.62916">
        <ele>565.59997558594</ele>
        <time>2026-05-12T11:40:37.000Z</time>
      </trkpt>
      <trkpt lat="45.26737" lon="4.62914">
        <ele>565.20001220703</ele>
        <time>2026-05-12T11:40:38.000Z</time>
      </trkpt>
      <trkpt lat="45.26735" lon="4.62912">
        <ele>565</ele>
        <time>2026-05-12T11:40:39.000Z</time>
      </trkpt>
      <trkpt lat="45.26733" lon="4.6291">
        <ele>564.79998779297</ele>
        <time>2026-05-12T11:40:40.000Z</time>
      </trkpt>
      <trkpt lat="45.26731" lon="4.62909">
        <ele>564.59997558594</ele>
        <time>2026-05-12T11:40:41.000Z</time>
      </trkpt>
      <trkpt lat="45.2673" lon="4.62907">
        <ele>564.20001220703</ele>
        <time>2026-05-12T11:40:42.000Z</time>
      </trkpt>
      <trkpt lat="45.26729" lon="4.62906">
        <ele>564</ele>
        <time>2026-05-12T11:40:43.000Z</time>
      </trkpt>
      <trkpt lat="45.26729" lon="4.62906">
        <ele>564</ele>
        <time>2026-05-12T11:40:44.000Z</time>
      </trkpt>
      <trkpt lat="45.26729" lon="4.62906">
        <ele>563.79998779297</ele>
        <time>2026-05-12T11:40:45.000Z</time>
      </trkpt>
      <trkpt lat="45.26726" lon="4.62903">
        <ele>563.40002441406</ele>
        <time>2026-05-12T11:41:12.000Z</time>
      </trkpt>
      <trkpt lat="45.26723" lon="4.62901">
        <ele>563.20001220703</ele>
        <time>2026-05-12T11:41:13.000Z</time>
      </trkpt>
      <trkpt lat="45.26721" lon="4.62897">
        <ele>563</ele>
        <time>2026-05-12T11:41:14.000Z</time>
      </trkpt>
      <trkpt lat="45.26718" lon="4.62894">
        <ele>562.79998779297</ele>
        <time>2026-05-12T11:41:15.000Z</time>
      </trkpt>
      <trkpt lat="45.26716" lon="4.62892">
        <ele>562.40002441406</ele>
        <time>2026-05-12T11:41:16.000Z</time>
      </trkpt>
      <trkpt lat="45.26714" lon="4.62889">
        <ele>562.20001220703</ele>
        <time>2026-05-12T11:41:17.000Z</time>
      </trkpt>
      <trkpt lat="45.26713" lon="4.62887">
        <ele>561.79998779297</ele>
        <time>2026-05-12T11:41:18.000Z</time>
      </trkpt>
      <trkpt lat="45.26712" lon="4.62886">
        <ele>561.59997558594</ele>
        <time>2026-05-12T11:41:19.000Z</time>
      </trkpt>
      <trkpt lat="45.2671" lon="4.62884">
        <ele>561.40002441406</ele>
        <time>2026-05-12T11:41:20.000Z</time>
      </trkpt>
      <trkpt lat="45.26708" lon="4.62882">
        <ele>561</ele>
        <time>2026-05-12T11:41:21.000Z</time>
      </trkpt>
      <trkpt lat="45.26705" lon="4.62882">
        <ele>560.59997558594</ele>
        <time>2026-05-12T11:41:22.000Z</time>
      </trkpt>
      <trkpt lat="45.26703" lon="4.62882">
        <ele>560.40002441406</ele>
        <time>2026-05-12T11:41:23.000Z</time>
      </trkpt>
      <trkpt lat="45.267" lon="4.62884">
        <ele>560</ele>
        <time>2026-05-12T11:41:24.000Z</time>
      </trkpt>
      <trkpt lat="45.26699" lon="4.62887">
        <ele>559.59997558594</ele>
        <time>2026-05-12T11:41:25.000Z</time>
      </trkpt>
      <trkpt lat="45.26697" lon="4.6289">
        <ele>559.20001220703</ele>
        <time>2026-05-12T11:41:26.000Z</time>
      </trkpt>
      <trkpt lat="45.26696" lon="4.62895">
        <ele>558.59997558594</ele>
        <time>2026-05-12T11:41:27.000Z</time>
      </trkpt>
      <trkpt lat="45.26695" lon="4.629">
        <ele>558.20001220703</ele>
        <time>2026-05-12T11:41:28.000Z</time>
      </trkpt>
      <trkpt lat="45.26696" lon="4.62906">
        <ele>557.59997558594</ele>
        <time>2026-05-12T11:41:29.000Z</time>
      </trkpt>
      <trkpt lat="45.26697" lon="4.62913">
        <ele>557.20001220703</ele>
        <time>2026-05-12T11:41:30.000Z</time>
      </trkpt>
      <trkpt lat="45.26698" lon="4.62919">
        <ele>556.79998779297</ele>
        <time>2026-05-12T11:41:31.000Z</time>
      </trkpt>
      <trkpt lat="45.26699" lon="4.62925">
        <ele>556.40002441406</ele>
        <time>2026-05-12T11:41:32.000Z</time>
      </trkpt>
      <trkpt lat="45.267" lon="4.62931">
        <ele>556.20001220703</ele>
        <time>2026-05-12T11:41:33.000Z</time>
      </trkpt>
      <trkpt lat="45.26702" lon="4.62938">
        <ele>555.59997558594</ele>
        <time>2026-05-12T11:41:34.000Z</time>
      </trkpt>
      <trkpt lat="45.26703" lon="4.62945">
        <ele>555</ele>
        <time>2026-05-12T11:41:35.000Z</time>
      </trkpt>
      <trkpt lat="45.26705" lon="4.62951">
        <ele>554.59997558594</ele>
        <time>2026-05-12T11:41:36.000Z</time>
      </trkpt>
      <trkpt lat="45.26706" lon="4.62959">
        <ele>553.79998779297</ele>
        <time>2026-05-12T11:41:37.000Z</time>
      </trkpt>
      <trkpt lat="45.26708" lon="4.62966">
        <ele>553.20001220703</ele>
        <time>2026-05-12T11:41:38.000Z</time>
      </trkpt>
      <trkpt lat="45.26709" lon="4.62974">
        <ele>552.40002441406</ele>
        <time>2026-05-12T11:41:39.000Z</time>
      </trkpt>
      <trkpt lat="45.2671" lon="4.62983">
        <ele>551.79998779297</ele>
        <time>2026-05-12T11:41:40.000Z</time>
      </trkpt>
      <trkpt lat="45.26712" lon="4.62991">
        <ele>551.20001220703</ele>
        <time>2026-05-12T11:41:41.000Z</time>
      </trkpt>
      <trkpt lat="45.26714" lon="4.62999">
        <ele>550.40002441406</ele>
        <time>2026-05-12T11:41:42.000Z</time>
      </trkpt>
      <trkpt lat="45.26716" lon="4.63007">
        <ele>550</ele>
        <time>2026-05-12T11:41:43.000Z</time>
      </trkpt>
      <trkpt lat="45.26718" lon="4.63014">
        <ele>549.40002441406</ele>
        <time>2026-05-12T11:41:44.000Z</time>
      </trkpt>
      <trkpt lat="45.26721" lon="4.63022">
        <ele>548.79998779297</ele>
        <time>2026-05-12T11:41:45.000Z</time>
      </trkpt>
      <trkpt lat="45.26724" lon="4.63029">
        <ele>548.40002441406</ele>
        <time>2026-05-12T11:41:46.000Z</time>
      </trkpt>
      <trkpt lat="45.26727" lon="4.63036">
        <ele>548</ele>
        <time>2026-05-12T11:41:47.000Z</time>
      </trkpt>
      <trkpt lat="45.2673" lon="4.63042">
        <ele>547.40002441406</ele>
        <time>2026-05-12T11:41:48.000Z</time>
      </trkpt>
      <trkpt lat="45.26733" lon="4.63048">
        <ele>547.20001220703</ele>
        <time>2026-05-12T11:41:49.000Z</time>
      </trkpt>
      <trkpt lat="45.26735" lon="4.63053">
        <ele>547</ele>
        <time>2026-05-12T11:41:50.000Z</time>
      </trkpt>
      <trkpt lat="45.26738" lon="4.63059">
        <ele>546.79998779297</ele>
        <time>2026-05-12T11:41:51.000Z</time>
      </trkpt>
      <trkpt lat="45.26741" lon="4.63065">
        <ele>546.59997558594</ele>
        <time>2026-05-12T11:41:52.000Z</time>
      </trkpt>
      <trkpt lat="45.26743" lon="4.6307">
        <ele>546.40002441406</ele>
        <time>2026-05-12T11:41:53.000Z</time>
      </trkpt>
      <trkpt lat="45.26746" lon="4.63075">
        <ele>546.20001220703</ele>
        <time>2026-05-12T11:41:54.000Z</time>
      </trkpt>
      <trkpt lat="45.26749" lon="4.63081">
        <ele>546</ele>
        <time>2026-05-12T11:41:55.000Z</time>
      </trkpt>
      <trkpt lat="45.26752" lon="4.63087">
        <ele>545.59997558594</ele>
        <time>2026-05-12T11:41:56.000Z</time>
      </trkpt>
      <trkpt lat="45.26755" lon="4.63093">
        <ele>545.40002441406</ele>
        <time>2026-05-12T11:41:57.000Z</time>
      </trkpt>
      <trkpt lat="45.26758" lon="4.631">
        <ele>545</ele>
        <time>2026-05-12T11:41:58.000Z</time>
      </trkpt>
      <trkpt lat="45.26762" lon="4.63106">
        <ele>544.59997558594</ele>
        <time>2026-05-12T11:41:59.000Z</time>
      </trkpt>
      <trkpt lat="45.26765" lon="4.63112">
        <ele>544.20001220703</ele>
        <time>2026-05-12T11:42:00.000Z</time>
      </trkpt>
      <trkpt lat="45.26769" lon="4.63118">
        <ele>543.79998779297</ele>
        <time>2026-05-12T11:42:01.000Z</time>
      </trkpt>
      <trkpt lat="45.26773" lon="4.63124">
        <ele>543.59997558594</ele>
        <time>2026-05-12T11:42:02.000Z</time>
      </trkpt>
      <trkpt lat="45.26777" lon="4.6313">
        <ele>543.20001220703</ele>
        <time>2026-05-12T11:42:03.000Z</time>
      </trkpt>
      <trkpt lat="45.26781" lon="4.63136">
        <ele>542.79998779297</ele>
        <time>2026-05-12T11:42:04.000Z</time>
      </trkpt>
      <trkpt lat="45.26786" lon="4.63141">
        <ele>542.59997558594</ele>
        <time>2026-05-12T11:42:05.000Z</time>
      </trkpt>
      <trkpt lat="45.2679" lon="4.63147">
        <ele>542.40002441406</ele>
        <time>2026-05-12T11:42:06.000Z</time>
      </trkpt>
      <trkpt lat="45.26794" lon="4.63152">
        <ele>542.20001220703</ele>
        <time>2026-05-12T11:42:07.000Z</time>
      </trkpt>
      <trkpt lat="45.26798" lon="4.63157">
        <ele>542.20001220703</ele>
        <time>2026-05-12T11:42:08.000Z</time>
      </trkpt>
      <trkpt lat="45.26802" lon="4.63161">
        <ele>542</ele>
        <time>2026-05-12T11:42:09.000Z</time>
      </trkpt>
      <trkpt lat="45.26806" lon="4.63166">
        <ele>542</ele>
        <time>2026-05-12T11:42:10.000Z</time>
      </trkpt>
      <trkpt lat="45.26811" lon="4.6317">
        <ele>542</ele>
        <time>2026-05-12T11:42:11.000Z</time>
      </trkpt>
      <trkpt lat="45.26815" lon="4.63174">
        <ele>541.79998779297</ele>
        <time>2026-05-12T11:42:12.000Z</time>
      </trkpt>
      <trkpt lat="45.26819" lon="4.63179">
        <ele>542</ele>
        <time>2026-05-12T11:42:13.000Z</time>
      </trkpt>
      <trkpt lat="45.26822" lon="4.63183">
        <ele>542.20001220703</ele>
        <time>2026-05-12T11:42:14.000Z</time>
      </trkpt>
      <trkpt lat="45.26826" lon="4.63187">
        <ele>542.20001220703</ele>
        <time>2026-05-12T11:42:15.000Z</time>
      </trkpt>
      <trkpt lat="45.26829" lon="4.6319">
        <ele>542.20001220703</ele>
        <time>2026-05-12T11:42:16.000Z</time>
      </trkpt>
      <trkpt lat="45.26832" lon="4.63195">
        <ele>542.20001220703</ele>
        <time>2026-05-12T11:42:17.000Z</time>
      </trkpt>
      <trkpt lat="45.26835" lon="4.63199">
        <ele>542</ele>
        <time>2026-05-12T11:42:18.000Z</time>
      </trkpt>
      <trkpt lat="45.26837" lon="4.63203">
        <ele>541.79998779297</ele>
        <time>2026-05-12T11:42:19.000Z</time>
      </trkpt>
      <trkpt lat="45.2684" lon="4.63206">
        <ele>541.79998779297</ele>
        <time>2026-05-12T11:42:20.000Z</time>
      </trkpt>
      <trkpt lat="45.26842" lon="4.63209">
        <ele>541.79998779297</ele>
        <time>2026-05-12T11:42:21.000Z</time>
      </trkpt>
      <trkpt lat="45.26844" lon="4.63214">
        <ele>542</ele>
        <time>2026-05-12T11:42:22.000Z</time>
      </trkpt>
      <trkpt lat="45.26846" lon="4.63218">
        <ele>542</ele>
        <time>2026-05-12T11:42:23.000Z</time>
      </trkpt>
      <trkpt lat="45.26847" lon="4.63224">
        <ele>542</ele>
        <time>2026-05-12T11:42:24.000Z</time>
      </trkpt>
      <trkpt lat="45.26848" lon="4.63229">
        <ele>542</ele>
        <time>2026-05-12T11:42:25.000Z</time>
      </trkpt>
      <trkpt lat="45.26848" lon="4.63235">
        <ele>542</ele>
        <time>2026-05-12T11:42:26.000Z</time>
      </trkpt>
      <trkpt lat="45.26849" lon="4.6324">
        <ele>542</ele>
        <time>2026-05-12T11:42:27.000Z</time>
      </trkpt>
      <trkpt lat="45.26851" lon="4.63245">
        <ele>542.20001220703</ele>
        <time>2026-05-12T11:42:28.000Z</time>
      </trkpt>
      <trkpt lat="45.26851" lon="4.6325">
        <ele>542.40002441406</ele>
        <time>2026-05-12T11:42:29.000Z</time>
      </trkpt>
      <trkpt lat="45.26853" lon="4.63255">
        <ele>542.59997558594</ele>
        <time>2026-05-12T11:42:30.000Z</time>
      </trkpt>
      <trkpt lat="45.26854" lon="4.63261">
        <ele>542.79998779297</ele>
        <time>2026-05-12T11:42:31.000Z</time>
      </trkpt>
      <trkpt lat="45.26855" lon="4.63266">
        <ele>542.79998779297</ele>
        <time>2026-05-12T11:42:32.000Z</time>
      </trkpt>
      <trkpt lat="45.26856" lon="4.63271">
        <ele>543.20001220703</ele>
        <time>2026-05-12T11:42:33.000Z</time>
      </trkpt>
      <trkpt lat="45.26858" lon="4.63275">
        <ele>543.40002441406</ele>
        <time>2026-05-12T11:42:34.000Z</time>
      </trkpt>
      <trkpt lat="45.26859" lon="4.6328">
        <ele>543.40002441406</ele>
        <time>2026-05-12T11:42:35.000Z</time>
      </trkpt>
      <trkpt lat="45.2686" lon="4.63285">
        <ele>543.59997558594</ele>
        <time>2026-05-12T11:42:36.000Z</time>
      </trkpt>
      <trkpt lat="45.26861" lon="4.63289">
        <ele>543.79998779297</ele>
        <time>2026-05-12T11:42:37.000Z</time>
      </trkpt>
      <trkpt lat="45.26863" lon="4.63294">
        <ele>544</ele>
        <time>2026-05-12T11:42:38.000Z</time>
      </trkpt>
      <trkpt lat="45.26864" lon="4.63298">
        <ele>544.20001220703</ele>
        <time>2026-05-12T11:42:39.000Z</time>
      </trkpt>
      <trkpt lat="45.26866" lon="4.63302">
        <ele>544.40002441406</ele>
        <time>2026-05-12T11:42:40.000Z</time>
      </trkpt>
      <trkpt lat="45.26868" lon="4.63307">
        <ele>544.59997558594</ele>
        <time>2026-05-12T11:42:41.000Z</time>
      </trkpt>
      <trkpt lat="45.26869" lon="4.63311">
        <ele>544.79998779297</ele>
        <time>2026-05-12T11:42:42.000Z</time>
      </trkpt>
      <trkpt lat="45.26871" lon="4.63315">
        <ele>545.20001220703</ele>
        <time>2026-05-12T11:42:43.000Z</time>
      </trkpt>
      <trkpt lat="45.26872" lon="4.6332">
        <ele>545.59997558594</ele>
        <time>2026-05-12T11:42:44.000Z</time>
      </trkpt>
      <trkpt lat="45.26874" lon="4.63324">
        <ele>545.79998779297</ele>
        <time>2026-05-12T11:42:45.000Z</time>
      </trkpt>
      <trkpt lat="45.26876" lon="4.63328">
        <ele>546</ele>
        <time>2026-05-12T11:42:46.000Z</time>
      </trkpt>
      <trkpt lat="45.26877" lon="4.63333">
        <ele>546.20001220703</ele>
        <time>2026-05-12T11:42:47.000Z</time>
      </trkpt>
      <trkpt lat="45.26879" lon="4.63337">
        <ele>546.40002441406</ele>
        <time>2026-05-12T11:42:48.000Z</time>
      </trkpt>
      <trkpt lat="45.2688" lon="4.6334">
        <ele>546.40002441406</ele>
        <time>2026-05-12T11:42:49.000Z</time>
      </trkpt>
      <trkpt lat="45.26882" lon="4.63344">
        <ele>546.59997558594</ele>
        <time>2026-05-12T11:42:50.000Z</time>
      </trkpt>
      <trkpt lat="45.26884" lon="4.63348">
        <ele>546.59997558594</ele>
        <time>2026-05-12T11:42:51.000Z</time>
      </trkpt>
      <trkpt lat="45.26886" lon="4.63352">
        <ele>546.59997558594</ele>
        <time>2026-05-12T11:42:52.000Z</time>
      </trkpt>
      <trkpt lat="45.26887" lon="4.63356">
        <ele>546.59997558594</ele>
        <time>2026-05-12T11:42:53.000Z</time>
      </trkpt>
      <trkpt lat="45.26889" lon="4.6336">
        <ele>546.59997558594</ele>
        <time>2026-05-12T11:42:54.000Z</time>
      </trkpt>
      <trkpt lat="45.26891" lon="4.63363">
        <ele>546.79998779297</ele>
        <time>2026-05-12T11:42:55.000Z</time>
      </trkpt>
      <trkpt lat="45.26893" lon="4.63366">
        <ele>546.79998779297</ele>
        <time>2026-05-12T11:42:56.000Z</time>
      </trkpt>
      <trkpt lat="45.26895" lon="4.63368">
        <ele>547</ele>
        <time>2026-05-12T11:42:57.000Z</time>
      </trkpt>
      <trkpt lat="45.26896" lon="4.63372">
        <ele>547</ele>
        <time>2026-05-12T11:42:58.000Z</time>
      </trkpt>
      <trkpt lat="45.26898" lon="4.63376">
        <ele>547</ele>
        <time>2026-05-12T11:42:59.000Z</time>
      </trkpt>
      <trkpt lat="45.269" lon="4.63379">
        <ele>547</ele>
        <time>2026-05-12T11:43:00.000Z</time>
      </trkpt>
      <trkpt lat="45.26902" lon="4.63383">
        <ele>547</ele>
        <time>2026-05-12T11:43:01.000Z</time>
      </trkpt>
      <trkpt lat="45.26904" lon="4.63386">
        <ele>546.79998779297</ele>
        <time>2026-05-12T11:43:02.000Z</time>
      </trkpt>
      <trkpt lat="45.26906" lon="4.63389">
        <ele>546.79998779297</ele>
        <time>2026-05-12T11:43:03.000Z</time>
      </trkpt>
      <trkpt lat="45.26909" lon="4.63393">
        <ele>546.79998779297</ele>
        <time>2026-05-12T11:43:04.000Z</time>
      </trkpt>
      <trkpt lat="45.2691" lon="4.63396">
        <ele>547</ele>
        <time>2026-05-12T11:43:05.000Z</time>
      </trkpt>
      <trkpt lat="45.26913" lon="4.63399">
        <ele>547</ele>
        <time>2026-05-12T11:43:06.000Z</time>
      </trkpt>
      <trkpt lat="45.26915" lon="4.63402">
        <ele>547</ele>
        <time>2026-05-12T11:43:07.000Z</time>
      </trkpt>
      <trkpt lat="45.26917" lon="4.63405">
        <ele>547.20001220703</ele>
        <time>2026-05-12T11:43:08.000Z</time>
      </trkpt>
      <trkpt lat="45.26919" lon="4.63408">
        <ele>547.20001220703</ele>
        <time>2026-05-12T11:43:09.000Z</time>
      </trkpt>
      <trkpt lat="45.26922" lon="4.63412">
        <ele>547.40002441406</ele>
        <time>2026-05-12T11:43:10.000Z</time>
      </trkpt>
      <trkpt lat="45.26924" lon="4.63415">
        <ele>547.40002441406</ele>
        <time>2026-05-12T11:43:11.000Z</time>
      </trkpt>
      <trkpt lat="45.26926" lon="4.63418">
        <ele>547.40002441406</ele>
        <time>2026-05-12T11:43:12.000Z</time>
      </trkpt>
      <trkpt lat="45.26928" lon="4.63421">
        <ele>547.40002441406</ele>
        <time>2026-05-12T11:43:13.000Z</time>
      </trkpt>
      <trkpt lat="45.26931" lon="4.63424">
        <ele>547.40002441406</ele>
        <time>2026-05-12T11:43:14.000Z</time>
      </trkpt>
      <trkpt lat="45.26933" lon="4.63427">
        <ele>547.40002441406</ele>
        <time>2026-05-12T11:43:15.000Z</time>
      </trkpt>
      <trkpt lat="45.26935" lon="4.63431">
        <ele>547.40002441406</ele>
        <time>2026-05-12T11:43:16.000Z</time>
      </trkpt>
      <trkpt lat="45.26937" lon="4.63434">
        <ele>547.20001220703</ele>
        <time>2026-05-12T11:43:17.000Z</time>
      </trkpt>
      <trkpt lat="45.2694" lon="4.63438">
        <ele>547</ele>
        <time>2026-05-12T11:43:18.000Z</time>
      </trkpt>
      <trkpt lat="45.26944" lon="4.63442">
        <ele>547</ele>
        <time>2026-05-12T11:43:19.000Z</time>
      </trkpt>
      <trkpt lat="45.26947" lon="4.63445">
        <ele>546.79998779297</ele>
        <time>2026-05-12T11:43:20.000Z</time>
      </trkpt>
      <trkpt lat="45.26949" lon="4.63449">
        <ele>546.79998779297</ele>
        <time>2026-05-12T11:43:21.000Z</time>
      </trkpt>
      <trkpt lat="45.26952" lon="4.63453">
        <ele>546.59997558594</ele>
        <time>2026-05-12T11:43:22.000Z</time>
      </trkpt>
      <trkpt lat="45.26954" lon="4.63456">
        <ele>546.40002441406</ele>
        <time>2026-05-12T11:43:23.000Z</time>
      </trkpt>
      <trkpt lat="45.26957" lon="4.6346">
        <ele>546.20001220703</ele>
        <time>2026-05-12T11:43:24.000Z</time>
      </trkpt>
      <trkpt lat="45.26959" lon="4.63464">
        <ele>546</ele>
        <time>2026-05-12T11:43:25.000Z</time>
      </trkpt>
      <trkpt lat="45.26961" lon="4.63469">
        <ele>545.79998779297</ele>
        <time>2026-05-12T11:43:26.000Z</time>
      </trkpt>
      <trkpt lat="45.26963" lon="4.63475">
        <ele>545.40002441406</ele>
        <time>2026-05-12T11:43:27.000Z</time>
      </trkpt>
      <trkpt lat="45.26965" lon="4.6348">
        <ele>545</ele>
        <time>2026-05-12T11:43:28.000Z</time>
      </trkpt>
      <trkpt lat="45.26968" lon="4.63486">
        <ele>544.40002441406</ele>
        <time>2026-05-12T11:43:29.000Z</time>
      </trkpt>
      <trkpt lat="45.2697" lon="4.63491">
        <ele>543.79998779297</ele>
        <time>2026-05-12T11:43:30.000Z</time>
      </trkpt>
      <trkpt lat="45.26972" lon="4.63496">
        <ele>543.40002441406</ele>
        <time>2026-05-12T11:43:31.000Z</time>
      </trkpt>
      <trkpt lat="45.26974" lon="4.635">
        <ele>542.79998779297</ele>
        <time>2026-05-12T11:43:32.000Z</time>
      </trkpt>
      <trkpt lat="45.26976" lon="4.63505">
        <ele>542.20001220703</ele>
        <time>2026-05-12T11:43:33.000Z</time>
      </trkpt>
      <trkpt lat="45.26978" lon="4.6351">
        <ele>541.79998779297</ele>
        <time>2026-05-12T11:43:34.000Z</time>
      </trkpt>
      <trkpt lat="45.2698" lon="4.63515">
        <ele>541.40002441406</ele>
        <time>2026-05-12T11:43:35.000Z</time>
      </trkpt>
      <trkpt lat="45.26982" lon="4.63519">
        <ele>541</ele>
        <time>2026-05-12T11:43:36.000Z</time>
      </trkpt>
      <trkpt lat="45.26983" lon="4.63524">
        <ele>540.40002441406</ele>
        <time>2026-05-12T11:43:37.000Z</time>
      </trkpt>
      <trkpt lat="45.26984" lon="4.63528">
        <ele>540</ele>
        <time>2026-05-12T11:43:38.000Z</time>
      </trkpt>
      <trkpt lat="45.26986" lon="4.63533">
        <ele>539.59997558594</ele>
        <time>2026-05-12T11:43:39.000Z</time>
      </trkpt>
      <trkpt lat="45.26987" lon="4.63537">
        <ele>539.20001220703</ele>
        <time>2026-05-12T11:43:40.000Z</time>
      </trkpt>
      <trkpt lat="45.26989" lon="4.63541">
        <ele>538.79998779297</ele>
        <time>2026-05-12T11:43:41.000Z</time>
      </trkpt>
      <trkpt lat="45.26991" lon="4.63546">
        <ele>538.40002441406</ele>
        <time>2026-05-12T11:43:42.000Z</time>
      </trkpt>
      <trkpt lat="45.26994" lon="4.6355">
        <ele>538</ele>
        <time>2026-05-12T11:43:43.000Z</time>
      </trkpt>
      <trkpt lat="45.26996" lon="4.63555">
        <ele>537.59997558594</ele>
        <time>2026-05-12T11:43:44.000Z</time>
      </trkpt>
      <trkpt lat="45.26999" lon="4.6356">
        <ele>537</ele>
        <time>2026-05-12T11:43:45.000Z</time>
      </trkpt>
      <trkpt lat="45.27002" lon="4.63565">
        <ele>536.40002441406</ele>
        <time>2026-05-12T11:43:46.000Z</time>
      </trkpt>
      <trkpt lat="45.27005" lon="4.6357">
        <ele>536</ele>
        <time>2026-05-12T11:43:47.000Z</time>
      </trkpt>
      <trkpt lat="45.27008" lon="4.63575">
        <ele>535.40002441406</ele>
        <time>2026-05-12T11:43:48.000Z</time>
      </trkpt>
      <trkpt lat="45.27011" lon="4.63579">
        <ele>535</ele>
        <time>2026-05-12T11:43:49.000Z</time>
      </trkpt>
      <trkpt lat="45.27014" lon="4.63583">
        <ele>534.40002441406</ele>
        <time>2026-05-12T11:43:50.000Z</time>
      </trkpt>
      <trkpt lat="45.27017" lon="4.63588">
        <ele>534</ele>
        <time>2026-05-12T11:43:51.000Z</time>
      </trkpt>
      <trkpt lat="45.2702" lon="4.63592">
        <ele>533.59997558594</ele>
        <time>2026-05-12T11:43:52.000Z</time>
      </trkpt>
      <trkpt lat="45.27023" lon="4.63596">
        <ele>533.20001220703</ele>
        <time>2026-05-12T11:43:53.000Z</time>
      </trkpt>
      <trkpt lat="45.27026" lon="4.63601">
        <ele>532.79998779297</ele>
        <time>2026-05-12T11:43:54.000Z</time>
      </trkpt>
      <trkpt lat="45.27028" lon="4.63605">
        <ele>532.59997558594</ele>
        <time>2026-05-12T11:43:55.000Z</time>
      </trkpt>
      <trkpt lat="45.2703" lon="4.63609">
        <ele>532.20001220703</ele>
        <time>2026-05-12T11:43:56.000Z</time>
      </trkpt>
      <trkpt lat="45.27032" lon="4.63613">
        <ele>531.79998779297</ele>
        <time>2026-05-12T11:43:57.000Z</time>
      </trkpt>
      <trkpt lat="45.27034" lon="4.63618">
        <ele>531.40002441406</ele>
        <time>2026-05-12T11:43:58.000Z</time>
      </trkpt>
      <trkpt lat="45.27035" lon="4.63623">
        <ele>531</ele>
        <time>2026-05-12T11:43:59.000Z</time>
      </trkpt>
      <trkpt lat="45.27037" lon="4.63628">
        <ele>530.79998779297</ele>
        <time>2026-05-12T11:44:00.000Z</time>
      </trkpt>
      <trkpt lat="45.27039" lon="4.63632">
        <ele>530.40002441406</ele>
        <time>2026-05-12T11:44:01.000Z</time>
      </trkpt>
      <trkpt lat="45.27041" lon="4.63636">
        <ele>530</ele>
        <time>2026-05-12T11:44:02.000Z</time>
      </trkpt>
      <trkpt lat="45.27043" lon="4.63641">
        <ele>529.79998779297</ele>
        <time>2026-05-12T11:44:03.000Z</time>
      </trkpt>
      <trkpt lat="45.27044" lon="4.63646">
        <ele>529.40002441406</ele>
        <time>2026-05-12T11:44:04.000Z</time>
      </trkpt>
      <trkpt lat="45.27046" lon="4.6365">
        <ele>528.79998779297</ele>
        <time>2026-05-12T11:44:05.000Z</time>
      </trkpt>
      <trkpt lat="45.27047" lon="4.63655">
        <ele>528.20001220703</ele>
        <time>2026-05-12T11:44:06.000Z</time>
      </trkpt>
      <trkpt lat="45.27049" lon="4.63661">
        <ele>527.59997558594</ele>
        <time>2026-05-12T11:44:07.000Z</time>
      </trkpt>
      <trkpt lat="45.27051" lon="4.63667">
        <ele>527.20001220703</ele>
        <time>2026-05-12T11:44:08.000Z</time>
      </trkpt>
      <trkpt lat="45.27053" lon="4.63673">
        <ele>526.79998779297</ele>
        <time>2026-05-12T11:44:09.000Z</time>
      </trkpt>
      <trkpt lat="45.27056" lon="4.63678">
        <ele>526.40002441406</ele>
        <time>2026-05-12T11:44:10.000Z</time>
      </trkpt>
      <trkpt lat="45.27058" lon="4.63684">
        <ele>526.20001220703</ele>
        <time>2026-05-12T11:44:11.000Z</time>
      </trkpt>
      <trkpt lat="45.2706" lon="4.63688">
        <ele>526</ele>
        <time>2026-05-12T11:44:12.000Z</time>
      </trkpt>
      <trkpt lat="45.27063" lon="4.63692">
        <ele>525.79998779297</ele>
        <time>2026-05-12T11:44:13.000Z</time>
      </trkpt>
      <trkpt lat="45.27067" lon="4.63693">
        <ele>525.59997558594</ele>
        <time>2026-05-12T11:44:14.000Z</time>
      </trkpt>
      <trkpt lat="45.27071" lon="4.63695">
        <ele>525.40002441406</ele>
        <time>2026-05-12T11:44:15.000Z</time>
      </trkpt>
      <trkpt lat="45.27074" lon="4.63696">
        <ele>525</ele>
        <time>2026-05-12T11:44:16.000Z</time>
      </trkpt>
      <trkpt lat="45.27077" lon="4.63698">
        <ele>524.79998779297</ele>
        <time>2026-05-12T11:44:17.000Z</time>
      </trkpt>
      <trkpt lat="45.2708" lon="4.63701">
        <ele>524.79998779297</ele>
        <time>2026-05-12T11:44:18.000Z</time>
      </trkpt>
      <trkpt lat="45.27083" lon="4.63704">
        <ele>524.59997558594</ele>
        <time>2026-05-12T11:44:19.000Z</time>
      </trkpt>
      <trkpt lat="45.27085" lon="4.63707">
        <ele>524.40002441406</ele>
        <time>2026-05-12T11:44:20.000Z</time>
      </trkpt>
      <trkpt lat="45.27088" lon="4.6371">
        <ele>524.20001220703</ele>
        <time>2026-05-12T11:44:21.000Z</time>
      </trkpt>
      <trkpt lat="45.2709" lon="4.63714">
        <ele>524</ele>
        <time>2026-05-12T11:44:22.000Z</time>
      </trkpt>
      <trkpt lat="45.27092" lon="4.63716">
        <ele>523.79998779297</ele>
        <time>2026-05-12T11:44:23.000Z</time>
      </trkpt>
      <trkpt lat="45.27093" lon="4.63719">
        <ele>523.59997558594</ele>
        <time>2026-05-12T11:44:24.000Z</time>
      </trkpt>
      <trkpt lat="45.27095" lon="4.63722">
        <ele>523.20001220703</ele>
        <time>2026-05-12T11:44:25.000Z</time>
      </trkpt>
      <trkpt lat="45.27097" lon="4.63725">
        <ele>523</ele>
        <time>2026-05-12T11:44:26.000Z</time>
      </trkpt>
      <trkpt lat="45.27099" lon="4.63727">
        <ele>522.79998779297</ele>
        <time>2026-05-12T11:44:27.000Z</time>
      </trkpt>
      <trkpt lat="45.27101" lon="4.63729">
        <ele>522.59997558594</ele>
        <time>2026-05-12T11:44:28.000Z</time>
      </trkpt>
      <trkpt lat="45.27103" lon="4.63731">
        <ele>522.40002441406</ele>
        <time>2026-05-12T11:44:29.000Z</time>
      </trkpt>
      <trkpt lat="45.27105" lon="4.63733">
        <ele>522</ele>
        <time>2026-05-12T11:44:30.000Z</time>
      </trkpt>
      <trkpt lat="45.27107" lon="4.63736">
        <ele>521.59997558594</ele>
        <time>2026-05-12T11:44:31.000Z</time>
      </trkpt>
      <trkpt lat="45.27109" lon="4.63739">
        <ele>521.40002441406</ele>
        <time>2026-05-12T11:44:32.000Z</time>
      </trkpt>
      <trkpt lat="45.2711" lon="4.63741">
        <ele>521</ele>
        <time>2026-05-12T11:44:33.000Z</time>
      </trkpt>
      <trkpt lat="45.27112" lon="4.63744">
        <ele>520.59997558594</ele>
        <time>2026-05-12T11:44:34.000Z</time>
      </trkpt>
      <trkpt lat="45.27114" lon="4.63747">
        <ele>520.20001220703</ele>
        <time>2026-05-12T11:44:35.000Z</time>
      </trkpt>
      <trkpt lat="45.27115" lon="4.6375">
        <ele>520</ele>
        <time>2026-05-12T11:44:36.000Z</time>
      </trkpt>
      <trkpt lat="45.27117" lon="4.63754">
        <ele>519.59997558594</ele>
        <time>2026-05-12T11:44:37.000Z</time>
      </trkpt>
      <trkpt lat="45.27119" lon="4.63757">
        <ele>519.20001220703</ele>
        <time>2026-05-12T11:44:38.000Z</time>
      </trkpt>
      <trkpt lat="45.2712" lon="4.63761">
        <ele>518.79998779297</ele>
        <time>2026-05-12T11:44:39.000Z</time>
      </trkpt>
      <trkpt lat="45.27121" lon="4.63766">
        <ele>518.40002441406</ele>
        <time>2026-05-12T11:44:40.000Z</time>
      </trkpt>
      <trkpt lat="45.27121" lon="4.6377">
        <ele>518</ele>
        <time>2026-05-12T11:44:41.000Z</time>
      </trkpt>
      <trkpt lat="45.27122" lon="4.63774">
        <ele>517.59997558594</ele>
        <time>2026-05-12T11:44:42.000Z</time>
      </trkpt>
      <trkpt lat="45.27122" lon="4.63778">
        <ele>517.20001220703</ele>
        <time>2026-05-12T11:44:43.000Z</time>
      </trkpt>
      <trkpt lat="45.27122" lon="4.63781">
        <ele>517</ele>
        <time>2026-05-12T11:44:44.000Z</time>
      </trkpt>
      <trkpt lat="45.27122" lon="4.63785">
        <ele>516.59997558594</ele>
        <time>2026-05-12T11:44:45.000Z</time>
      </trkpt>
      <trkpt lat="45.27123" lon="4.63789">
        <ele>516.20001220703</ele>
        <time>2026-05-12T11:44:46.000Z</time>
      </trkpt>
      <trkpt lat="45.27124" lon="4.63793">
        <ele>516</ele>
        <time>2026-05-12T11:44:47.000Z</time>
      </trkpt>
      <trkpt lat="45.27125" lon="4.63797">
        <ele>515.40002441406</ele>
        <time>2026-05-12T11:44:48.000Z</time>
      </trkpt>
      <trkpt lat="45.27126" lon="4.63801">
        <ele>515</ele>
        <time>2026-05-12T11:44:49.000Z</time>
      </trkpt>
      <trkpt lat="45.27126" lon="4.63805">
        <ele>514.59997558594</ele>
        <time>2026-05-12T11:44:50.000Z</time>
      </trkpt>
      <trkpt lat="45.27127" lon="4.63808">
        <ele>514.20001220703</ele>
        <time>2026-05-12T11:44:51.000Z</time>
      </trkpt>
      <trkpt lat="45.27128" lon="4.63812">
        <ele>513.59997558594</ele>
        <time>2026-05-12T11:44:52.000Z</time>
      </trkpt>
      <trkpt lat="45.27128" lon="4.63817">
        <ele>513</ele>
        <time>2026-05-12T11:44:53.000Z</time>
      </trkpt>
      <trkpt lat="45.27129" lon="4.63822">
        <ele>512.40002441406</ele>
        <time>2026-05-12T11:44:54.000Z</time>
      </trkpt>
      <trkpt lat="45.27131" lon="4.63827">
        <ele>511.79998779297</ele>
        <time>2026-05-12T11:44:55.000Z</time>
      </trkpt>
      <trkpt lat="45.27133" lon="4.6383">
        <ele>511.20001220703</ele>
        <time>2026-05-12T11:44:56.000Z</time>
      </trkpt>
      <trkpt lat="45.27135" lon="4.63834">
        <ele>510.60000610352</ele>
        <time>2026-05-12T11:44:57.000Z</time>
      </trkpt>
      <trkpt lat="45.27137" lon="4.63837">
        <ele>510.20001220703</ele>
        <time>2026-05-12T11:44:58.000Z</time>
      </trkpt>
      <trkpt lat="45.27139" lon="4.63842">
        <ele>509.79998779297</ele>
        <time>2026-05-12T11:44:59.000Z</time>
      </trkpt>
      <trkpt lat="45.27139" lon="4.63847">
        <ele>509.39999389648</ele>
        <time>2026-05-12T11:45:00.000Z</time>
      </trkpt>
      <trkpt lat="45.27139" lon="4.63853">
        <ele>509.20001220703</ele>
        <time>2026-05-12T11:45:01.000Z</time>
      </trkpt>
      <trkpt lat="45.27139" lon="4.63859">
        <ele>508.79998779297</ele>
        <time>2026-05-12T11:45:02.000Z</time>
      </trkpt>
      <trkpt lat="45.27139" lon="4.63867">
        <ele>508.60000610352</ele>
        <time>2026-05-12T11:45:03.000Z</time>
      </trkpt>
      <trkpt lat="45.27139" lon="4.63874">
        <ele>508.39999389648</ele>
        <time>2026-05-12T11:45:04.000Z</time>
      </trkpt>
      <trkpt lat="45.27139" lon="4.63882">
        <ele>508</ele>
        <time>2026-05-12T11:45:05.000Z</time>
      </trkpt>
      <trkpt lat="45.2714" lon="4.63889">
        <ele>507.39999389648</ele>
        <time>2026-05-12T11:45:06.000Z</time>
      </trkpt>
      <trkpt lat="45.27141" lon="4.63897">
        <ele>507</ele>
        <time>2026-05-12T11:45:07.000Z</time>
      </trkpt>
      <trkpt lat="45.27143" lon="4.63904">
        <ele>506.60000610352</ele>
        <time>2026-05-12T11:45:08.000Z</time>
      </trkpt>
      <trkpt lat="45.27144" lon="4.63911">
        <ele>506.20001220703</ele>
        <time>2026-05-12T11:45:09.000Z</time>
      </trkpt>
      <trkpt lat="45.27145" lon="4.63919">
        <ele>505.79998779297</ele>
        <time>2026-05-12T11:45:10.000Z</time>
      </trkpt>
      <trkpt lat="45.27145" lon="4.63926">
        <ele>505.60000610352</ele>
        <time>2026-05-12T11:45:11.000Z</time>
      </trkpt>
      <trkpt lat="45.27145" lon="4.63933">
        <ele>505.60000610352</ele>
        <time>2026-05-12T11:45:12.000Z</time>
      </trkpt>
      <trkpt lat="45.27145" lon="4.6394">
        <ele>505.39999389648</ele>
        <time>2026-05-12T11:45:13.000Z</time>
      </trkpt>
      <trkpt lat="45.27145" lon="4.63946">
        <ele>505.39999389648</ele>
        <time>2026-05-12T11:45:14.000Z</time>
      </trkpt>
      <trkpt lat="45.27144" lon="4.63953">
        <ele>505.20001220703</ele>
        <time>2026-05-12T11:45:15.000Z</time>
      </trkpt>
      <trkpt lat="45.27144" lon="4.63959">
        <ele>505</ele>
        <time>2026-05-12T11:45:16.000Z</time>
      </trkpt>
      <trkpt lat="45.27144" lon="4.63965">
        <ele>504.79998779297</ele>
        <time>2026-05-12T11:45:17.000Z</time>
      </trkpt>
      <trkpt lat="45.27144" lon="4.63971">
        <ele>504.60000610352</ele>
        <time>2026-05-12T11:45:18.000Z</time>
      </trkpt>
      <trkpt lat="45.27143" lon="4.63977">
        <ele>504.39999389648</ele>
        <time>2026-05-12T11:45:19.000Z</time>
      </trkpt>
      <trkpt lat="45.27142" lon="4.63982">
        <ele>504</ele>
        <time>2026-05-12T11:45:20.000Z</time>
      </trkpt>
      <trkpt lat="45.27142" lon="4.63988">
        <ele>503.79998779297</ele>
        <time>2026-05-12T11:45:21.000Z</time>
      </trkpt>
      <trkpt lat="45.27141" lon="4.63995">
        <ele>503.39999389648</ele>
        <time>2026-05-12T11:45:22.000Z</time>
      </trkpt>
      <trkpt lat="45.27139" lon="4.64002">
        <ele>503</ele>
        <time>2026-05-12T11:45:23.000Z</time>
      </trkpt>
      <trkpt lat="45.27138" lon="4.64008">
        <ele>502.60000610352</ele>
        <time>2026-05-12T11:45:24.000Z</time>
      </trkpt>
      <trkpt lat="45.27137" lon="4.64013">
        <ele>502.20001220703</ele>
        <time>2026-05-12T11:45:25.000Z</time>
      </trkpt>
      <trkpt lat="45.27137" lon="4.64019">
        <ele>501.79998779297</ele>
        <time>2026-05-12T11:45:26.000Z</time>
      </trkpt>
      <trkpt lat="45.27136" lon="4.64024">
        <ele>501.39999389648</ele>
        <time>2026-05-12T11:45:27.000Z</time>
      </trkpt>
      <trkpt lat="45.27136" lon="4.64029">
        <ele>501.20001220703</ele>
        <time>2026-05-12T11:45:28.000Z</time>
      </trkpt>
      <trkpt lat="45.27135" lon="4.64034">
        <ele>500.79998779297</ele>
        <time>2026-05-12T11:45:29.000Z</time>
      </trkpt>
      <trkpt lat="45.27135" lon="4.64039">
        <ele>500.20001220703</ele>
        <time>2026-05-12T11:45:30.000Z</time>
      </trkpt>
      <trkpt lat="45.27134" lon="4.64044">
        <ele>499.79998779297</ele>
        <time>2026-05-12T11:45:31.000Z</time>
      </trkpt>
      <trkpt lat="45.27134" lon="4.64049">
        <ele>499.39999389648</ele>
        <time>2026-05-12T11:45:32.000Z</time>
      </trkpt>
      <trkpt lat="45.27133" lon="4.64054">
        <ele>499</ele>
        <time>2026-05-12T11:45:33.000Z</time>
      </trkpt>
      <trkpt lat="45.27132" lon="4.64059">
        <ele>498.60000610352</ele>
        <time>2026-05-12T11:45:34.000Z</time>
      </trkpt>
      <trkpt lat="45.2713" lon="4.64065">
        <ele>498</ele>
        <time>2026-05-12T11:45:35.000Z</time>
      </trkpt>
      <trkpt lat="45.27129" lon="4.6407">
        <ele>497.60000610352</ele>
        <time>2026-05-12T11:45:36.000Z</time>
      </trkpt>
      <trkpt lat="45.27127" lon="4.64074">
        <ele>497</ele>
        <time>2026-05-12T11:45:37.000Z</time>
      </trkpt>
      <trkpt lat="45.27124" lon="4.64079">
        <ele>496.39999389648</ele>
        <time>2026-05-12T11:45:38.000Z</time>
      </trkpt>
      <trkpt lat="45.27122" lon="4.64083">
        <ele>495.79998779297</ele>
        <time>2026-05-12T11:45:39.000Z</time>
      </trkpt>
      <trkpt lat="45.2712" lon="4.64087">
        <ele>495.39999389648</ele>
        <time>2026-05-12T11:45:40.000Z</time>
      </trkpt>
      <trkpt lat="45.27118" lon="4.64091">
        <ele>494.79998779297</ele>
        <time>2026-05-12T11:45:41.000Z</time>
      </trkpt>
      <trkpt lat="45.27117" lon="4.64096">
        <ele>494.39999389648</ele>
        <time>2026-05-12T11:45:42.000Z</time>
      </trkpt>
      <trkpt lat="45.27115" lon="4.64101">
        <ele>494</ele>
        <time>2026-05-12T11:45:43.000Z</time>
      </trkpt>
      <trkpt lat="45.27115" lon="4.64106">
        <ele>493.39999389648</ele>
        <time>2026-05-12T11:45:44.000Z</time>
      </trkpt>
      <trkpt lat="45.27114" lon="4.64111">
        <ele>493</ele>
        <time>2026-05-12T11:45:45.000Z</time>
      </trkpt>
      <trkpt lat="45.27114" lon="4.64116">
        <ele>492.60000610352</ele>
        <time>2026-05-12T11:45:46.000Z</time>
      </trkpt>
      <trkpt lat="45.27114" lon="4.64121">
        <ele>492</ele>
        <time>2026-05-12T11:45:47.000Z</time>
      </trkpt>
      <trkpt lat="45.27113" lon="4.64125">
        <ele>491.60000610352</ele>
        <time>2026-05-12T11:45:48.000Z</time>
      </trkpt>
      <trkpt lat="45.27113" lon="4.64129">
        <ele>491.20001220703</ele>
        <time>2026-05-12T11:45:49.000Z</time>
      </trkpt>
      <trkpt lat="45.27112" lon="4.64134">
        <ele>490.79998779297</ele>
        <time>2026-05-12T11:45:50.000Z</time>
      </trkpt>
      <trkpt lat="45.27111" lon="4.64138">
        <ele>490.39999389648</ele>
        <time>2026-05-12T11:45:51.000Z</time>
      </trkpt>
      <trkpt lat="45.2711" lon="4.64142">
        <ele>490</ele>
        <time>2026-05-12T11:45:52.000Z</time>
      </trkpt>
      <trkpt lat="45.27108" lon="4.64146">
        <ele>489.39999389648</ele>
        <time>2026-05-12T11:45:53.000Z</time>
      </trkpt>
      <trkpt lat="45.27106" lon="4.6415">
        <ele>489</ele>
        <time>2026-05-12T11:45:54.000Z</time>
      </trkpt>
      <trkpt lat="45.27104" lon="4.64153">
        <ele>488.39999389648</ele>
        <time>2026-05-12T11:45:55.000Z</time>
      </trkpt>
      <trkpt lat="45.27102" lon="4.64156">
        <ele>488</ele>
        <time>2026-05-12T11:45:56.000Z</time>
      </trkpt>
      <trkpt lat="45.27101" lon="4.6416">
        <ele>487.39999389648</ele>
        <time>2026-05-12T11:45:57.000Z</time>
      </trkpt>
      <trkpt lat="45.271" lon="4.64163">
        <ele>487</ele>
        <time>2026-05-12T11:45:58.000Z</time>
      </trkpt>
      <trkpt lat="45.27101" lon="4.64168">
        <ele>486.60000610352</ele>
        <time>2026-05-12T11:45:59.000Z</time>
      </trkpt>
      <trkpt lat="45.27101" lon="4.64173">
        <ele>486.20001220703</ele>
        <time>2026-05-12T11:46:00.000Z</time>
      </trkpt>
      <trkpt lat="45.27102" lon="4.64177">
        <ele>485.60000610352</ele>
        <time>2026-05-12T11:46:01.000Z</time>
      </trkpt>
      <trkpt lat="45.27103" lon="4.64181">
        <ele>485.20001220703</ele>
        <time>2026-05-12T11:46:02.000Z</time>
      </trkpt>
      <trkpt lat="45.27104" lon="4.64185">
        <ele>484.79998779297</ele>
        <time>2026-05-12T11:46:03.000Z</time>
      </trkpt>
      <trkpt lat="45.27105" lon="4.64189">
        <ele>484.39999389648</ele>
        <time>2026-05-12T11:46:04.000Z</time>
      </trkpt>
      <trkpt lat="45.27106" lon="4.64193">
        <ele>484.20001220703</ele>
        <time>2026-05-12T11:46:05.000Z</time>
      </trkpt>
      <trkpt lat="45.27107" lon="4.64196">
        <ele>483.79998779297</ele>
        <time>2026-05-12T11:46:06.000Z</time>
      </trkpt>
      <trkpt lat="45.27109" lon="4.64199">
        <ele>483.60000610352</ele>
        <time>2026-05-12T11:46:07.000Z</time>
      </trkpt>
      <trkpt lat="45.2711" lon="4.64202">
        <ele>483.20001220703</ele>
        <time>2026-05-12T11:46:08.000Z</time>
      </trkpt>
      <trkpt lat="45.27112" lon="4.64206">
        <ele>482.60000610352</ele>
        <time>2026-05-12T11:46:09.000Z</time>
      </trkpt>
      <trkpt lat="45.27114" lon="4.6421">
        <ele>482.20001220703</ele>
        <time>2026-05-12T11:46:10.000Z</time>
      </trkpt>
      <trkpt lat="45.27115" lon="4.64215">
        <ele>481.60000610352</ele>
        <time>2026-05-12T11:46:11.000Z</time>
      </trkpt>
      <trkpt lat="45.27116" lon="4.64219">
        <ele>481</ele>
        <time>2026-05-12T11:46:12.000Z</time>
      </trkpt>
      <trkpt lat="45.27117" lon="4.64223">
        <ele>480.60000610352</ele>
        <time>2026-05-12T11:46:13.000Z</time>
      </trkpt>
      <trkpt lat="45.27119" lon="4.64227">
        <ele>480</ele>
        <time>2026-05-12T11:46:14.000Z</time>
      </trkpt>
      <trkpt lat="45.27122" lon="4.6423">
        <ele>479.60000610352</ele>
        <time>2026-05-12T11:46:15.000Z</time>
      </trkpt>
      <trkpt lat="45.27124" lon="4.64234">
        <ele>479.20001220703</ele>
        <time>2026-05-12T11:46:16.000Z</time>
      </trkpt>
      <trkpt lat="45.27126" lon="4.64238">
        <ele>478.79998779297</ele>
        <time>2026-05-12T11:46:17.000Z</time>
      </trkpt>
      <trkpt lat="45.27128" lon="4.64242">
        <ele>478.20001220703</ele>
        <time>2026-05-12T11:46:18.000Z</time>
      </trkpt>
      <trkpt lat="45.27131" lon="4.64246">
        <ele>477.60000610352</ele>
        <time>2026-05-12T11:46:19.000Z</time>
      </trkpt>
      <trkpt lat="45.27134" lon="4.64251">
        <ele>477</ele>
        <time>2026-05-12T11:46:20.000Z</time>
      </trkpt>
      <trkpt lat="45.27136" lon="4.64255">
        <ele>476.60000610352</ele>
        <time>2026-05-12T11:46:21.000Z</time>
      </trkpt>
      <trkpt lat="45.27137" lon="4.6426">
        <ele>476</ele>
        <time>2026-05-12T11:46:22.000Z</time>
      </trkpt>
      <trkpt lat="45.27139" lon="4.64265">
        <ele>475.60000610352</ele>
        <time>2026-05-12T11:46:23.000Z</time>
      </trkpt>
      <trkpt lat="45.2714" lon="4.64269">
        <ele>475.20001220703</ele>
        <time>2026-05-12T11:46:24.000Z</time>
      </trkpt>
      <trkpt lat="45.27141" lon="4.64274">
        <ele>474.79998779297</ele>
        <time>2026-05-12T11:46:25.000Z</time>
      </trkpt>
      <trkpt lat="45.27142" lon="4.64278">
        <ele>474.39999389648</ele>
        <time>2026-05-12T11:46:26.000Z</time>
      </trkpt>
      <trkpt lat="45.27144" lon="4.64282">
        <ele>474</ele>
        <time>2026-05-12T11:46:27.000Z</time>
      </trkpt>
      <trkpt lat="45.27146" lon="4.64286">
        <ele>473.60000610352</ele>
        <time>2026-05-12T11:46:28.000Z</time>
      </trkpt>
      <trkpt lat="45.27148" lon="4.64289">
        <ele>473</ele>
        <time>2026-05-12T11:46:29.000Z</time>
      </trkpt>
      <trkpt lat="45.27151" lon="4.64291">
        <ele>472.39999389648</ele>
        <time>2026-05-12T11:46:30.000Z</time>
      </trkpt>
      <trkpt lat="45.27154" lon="4.64293">
        <ele>472</ele>
        <time>2026-05-12T11:46:31.000Z</time>
      </trkpt>
      <trkpt lat="45.27158" lon="4.64296">
        <ele>471.39999389648</ele>
        <time>2026-05-12T11:46:32.000Z</time>
      </trkpt>
      <trkpt lat="45.27161" lon="4.64298">
        <ele>471</ele>
        <time>2026-05-12T11:46:33.000Z</time>
      </trkpt>
      <trkpt lat="45.27163" lon="4.643">
        <ele>470.60000610352</ele>
        <time>2026-05-12T11:46:34.000Z</time>
      </trkpt>
      <trkpt lat="45.27166" lon="4.64303">
        <ele>470.39999389648</ele>
        <time>2026-05-12T11:46:35.000Z</time>
      </trkpt>
      <trkpt lat="45.27167" lon="4.64308">
        <ele>470</ele>
        <time>2026-05-12T11:46:36.000Z</time>
      </trkpt>
      <trkpt lat="45.27167" lon="4.64312">
        <ele>469.60000610352</ele>
        <time>2026-05-12T11:46:37.000Z</time>
      </trkpt>
      <trkpt lat="45.27167" lon="4.64315">
        <ele>469.20001220703</ele>
        <time>2026-05-12T11:46:38.000Z</time>
      </trkpt>
      <trkpt lat="45.27166" lon="4.64318">
        <ele>468.79998779297</ele>
        <time>2026-05-12T11:46:39.000Z</time>
      </trkpt>
      <trkpt lat="45.27164" lon="4.6432">
        <ele>468.39999389648</ele>
        <time>2026-05-12T11:46:40.000Z</time>
      </trkpt>
      <trkpt lat="45.27162" lon="4.64322">
        <ele>468</ele>
        <time>2026-05-12T11:46:41.000Z</time>
      </trkpt>
      <trkpt lat="45.2716" lon="4.64325">
        <ele>467.39999389648</ele>
        <time>2026-05-12T11:46:42.000Z</time>
      </trkpt>
      <trkpt lat="45.27157" lon="4.64328">
        <ele>467</ele>
        <time>2026-05-12T11:46:43.000Z</time>
      </trkpt>
      <trkpt lat="45.27153" lon="4.6433">
        <ele>466.39999389648</ele>
        <time>2026-05-12T11:46:44.000Z</time>
      </trkpt>
      <trkpt lat="45.2715" lon="4.64333">
        <ele>466</ele>
        <time>2026-05-12T11:46:45.000Z</time>
      </trkpt>
      <trkpt lat="45.27147" lon="4.64335">
        <ele>465.39999389648</ele>
        <time>2026-05-12T11:46:46.000Z</time>
      </trkpt>
      <trkpt lat="45.27144" lon="4.64337">
        <ele>464.79998779297</ele>
        <time>2026-05-12T11:46:47.000Z</time>
      </trkpt>
      <trkpt lat="45.2714" lon="4.64339">
        <ele>464.39999389648</ele>
        <time>2026-05-12T11:46:48.000Z</time>
      </trkpt>
      <trkpt lat="45.27137" lon="4.6434">
        <ele>463.79998779297</ele>
        <time>2026-05-12T11:46:49.000Z</time>
      </trkpt>
      <trkpt lat="45.27134" lon="4.64342">
        <ele>463.39999389648</ele>
        <time>2026-05-12T11:46:50.000Z</time>
      </trkpt>
      <trkpt lat="45.27132" lon="4.64344">
        <ele>463</ele>
        <time>2026-05-12T11:46:51.000Z</time>
      </trkpt>
      <trkpt lat="45.2713" lon="4.64347">
        <ele>462.60000610352</ele>
        <time>2026-05-12T11:46:52.000Z</time>
      </trkpt>
      <trkpt lat="45.27129" lon="4.64349">
        <ele>462.39999389648</ele>
        <time>2026-05-12T11:46:53.000Z</time>
      </trkpt>
      <trkpt lat="45.27129" lon="4.64352">
        <ele>462</ele>
        <time>2026-05-12T11:46:54.000Z</time>
      </trkpt>
      <trkpt lat="45.2713" lon="4.64355">
        <ele>461.79998779297</ele>
        <time>2026-05-12T11:46:55.000Z</time>
      </trkpt>
      <trkpt lat="45.27132" lon="4.64358">
        <ele>461.60000610352</ele>
        <time>2026-05-12T11:46:56.000Z</time>
      </trkpt>
      <trkpt lat="45.27134" lon="4.6436">
        <ele>461.20001220703</ele>
        <time>2026-05-12T11:46:57.000Z</time>
      </trkpt>
      <trkpt lat="45.27136" lon="4.64361">
        <ele>461</ele>
        <time>2026-05-12T11:46:58.000Z</time>
      </trkpt>
      <trkpt lat="45.27139" lon="4.64363">
        <ele>460.60000610352</ele>
        <time>2026-05-12T11:46:59.000Z</time>
      </trkpt>
      <trkpt lat="45.27142" lon="4.64365">
        <ele>460.39999389648</ele>
        <time>2026-05-12T11:47:00.000Z</time>
      </trkpt>
      <trkpt lat="45.27144" lon="4.64367">
        <ele>460.20001220703</ele>
        <time>2026-05-12T11:47:01.000Z</time>
      </trkpt>
      <trkpt lat="45.27146" lon="4.64368">
        <ele>460</ele>
        <time>2026-05-12T11:47:02.000Z</time>
      </trkpt>
      <trkpt lat="45.27149" lon="4.6437">
        <ele>460</ele>
        <time>2026-05-12T11:47:03.000Z</time>
      </trkpt>
      <trkpt lat="45.27152" lon="4.64372">
        <ele>459.79998779297</ele>
        <time>2026-05-12T11:47:04.000Z</time>
      </trkpt>
      <trkpt lat="45.27155" lon="4.64375">
        <ele>459.79998779297</ele>
        <time>2026-05-12T11:47:05.000Z</time>
      </trkpt>
      <trkpt lat="45.27159" lon="4.64377">
        <ele>459.60000610352</ele>
        <time>2026-05-12T11:47:06.000Z</time>
      </trkpt>
      <trkpt lat="45.27162" lon="4.6438">
        <ele>459.39999389648</ele>
        <time>2026-05-12T11:47:07.000Z</time>
      </trkpt>
      <trkpt lat="45.27166" lon="4.64383">
        <ele>459.20001220703</ele>
        <time>2026-05-12T11:47:08.000Z</time>
      </trkpt>
      <trkpt lat="45.27169" lon="4.64385">
        <ele>459</ele>
        <time>2026-05-12T11:47:09.000Z</time>
      </trkpt>
      <trkpt lat="45.27173" lon="4.64388">
        <ele>458.60000610352</ele>
        <time>2026-05-12T11:47:10.000Z</time>
      </trkpt>
      <trkpt lat="45.27177" lon="4.6439">
        <ele>458.39999389648</ele>
        <time>2026-05-12T11:47:11.000Z</time>
      </trkpt>
      <trkpt lat="45.2718" lon="4.64393">
        <ele>458.20001220703</ele>
        <time>2026-05-12T11:47:12.000Z</time>
      </trkpt>
      <trkpt lat="45.27184" lon="4.64395">
        <ele>458</ele>
        <time>2026-05-12T11:47:13.000Z</time>
      </trkpt>
      <trkpt lat="45.27188" lon="4.64398">
        <ele>457.79998779297</ele>
        <time>2026-05-12T11:47:14.000Z</time>
      </trkpt>
      <trkpt lat="45.27192" lon="4.64401">
        <ele>457.60000610352</ele>
        <time>2026-05-12T11:47:15.000Z</time>
      </trkpt>
      <trkpt lat="45.27196" lon="4.64403">
        <ele>457.39999389648</ele>
        <time>2026-05-12T11:47:16.000Z</time>
      </trkpt>
      <trkpt lat="45.27199" lon="4.64406">
        <ele>457.20001220703</ele>
        <time>2026-05-12T11:47:17.000Z</time>
      </trkpt>
      <trkpt lat="45.27203" lon="4.64409">
        <ele>456.79998779297</ele>
        <time>2026-05-12T11:47:18.000Z</time>
      </trkpt>
      <trkpt lat="45.27207" lon="4.64412">
        <ele>456.79998779297</ele>
        <time>2026-05-12T11:47:19.000Z</time>
      </trkpt>
      <trkpt lat="45.27211" lon="4.64415">
        <ele>456.60000610352</ele>
        <time>2026-05-12T11:47:20.000Z</time>
      </trkpt>
      <trkpt lat="45.27215" lon="4.64417">
        <ele>456.60000610352</ele>
        <time>2026-05-12T11:47:21.000Z</time>
      </trkpt>
      <trkpt lat="45.27219" lon="4.64419">
        <ele>456.60000610352</ele>
        <time>2026-05-12T11:47:22.000Z</time>
      </trkpt>
      <trkpt lat="45.27223" lon="4.64421">
        <ele>456.39999389648</ele>
        <time>2026-05-12T11:47:23.000Z</time>
      </trkpt>
      <trkpt lat="45.27226" lon="4.64423">
        <ele>456.39999389648</ele>
        <time>2026-05-12T11:47:24.000Z</time>
      </trkpt>
      <trkpt lat="45.27229" lon="4.64425">
        <ele>456.39999389648</ele>
        <time>2026-05-12T11:47:25.000Z</time>
      </trkpt>
      <trkpt lat="45.27232" lon="4.64429">
        <ele>456.39999389648</ele>
        <time>2026-05-12T11:47:26.000Z</time>
      </trkpt>
      <trkpt lat="45.27236" lon="4.64434">
        <ele>456</ele>
        <time>2026-05-12T11:47:27.000Z</time>
      </trkpt>
      <trkpt lat="45.2724" lon="4.64439">
        <ele>455.60000610352</ele>
        <time>2026-05-12T11:47:28.000Z</time>
      </trkpt>
      <trkpt lat="45.27243" lon="4.64445">
        <ele>455</ele>
        <time>2026-05-12T11:47:29.000Z</time>
      </trkpt>
      <trkpt lat="45.27247" lon="4.64452">
        <ele>454</ele>
        <time>2026-05-12T11:47:30.000Z</time>
      </trkpt>
      <trkpt lat="45.27251" lon="4.6446">
        <ele>453.20001220703</ele>
        <time>2026-05-12T11:47:31.000Z</time>
      </trkpt>
      <trkpt lat="45.27256" lon="4.64466">
        <ele>452.39999389648</ele>
        <time>2026-05-12T11:47:32.000Z</time>
      </trkpt>
      <trkpt lat="45.27261" lon="4.64472">
        <ele>451.79998779297</ele>
        <time>2026-05-12T11:47:33.000Z</time>
      </trkpt>
      <trkpt lat="45.27266" lon="4.64477">
        <ele>451.39999389648</ele>
        <time>2026-05-12T11:47:34.000Z</time>
      </trkpt>
      <trkpt lat="45.27271" lon="4.64481">
        <ele>451</ele>
        <time>2026-05-12T11:47:35.000Z</time>
      </trkpt>
      <trkpt lat="45.27277" lon="4.64484">
        <ele>450.39999389648</ele>
        <time>2026-05-12T11:47:36.000Z</time>
      </trkpt>
      <trkpt lat="45.27283" lon="4.64487">
        <ele>449.79998779297</ele>
        <time>2026-05-12T11:47:37.000Z</time>
      </trkpt>
      <trkpt lat="45.2729" lon="4.64489">
        <ele>448.79998779297</ele>
        <time>2026-05-12T11:47:38.000Z</time>
      </trkpt>
      <trkpt lat="45.27297" lon="4.64492">
        <ele>447.60000610352</ele>
        <time>2026-05-12T11:47:39.000Z</time>
      </trkpt>
      <trkpt lat="45.27306" lon="4.64494">
        <ele>446.39999389648</ele>
        <time>2026-05-12T11:47:40.000Z</time>
      </trkpt>
      <trkpt lat="45.27314" lon="4.64495">
        <ele>445.39999389648</ele>
        <time>2026-05-12T11:47:41.000Z</time>
      </trkpt>
      <trkpt lat="45.27322" lon="4.64495">
        <ele>444.20001220703</ele>
        <time>2026-05-12T11:47:42.000Z</time>
      </trkpt>
      <trkpt lat="45.27329" lon="4.64495">
        <ele>443.20001220703</ele>
        <time>2026-05-12T11:47:43.000Z</time>
      </trkpt>
      <trkpt lat="45.27335" lon="4.64496">
        <ele>442.39999389648</ele>
        <time>2026-05-12T11:47:44.000Z</time>
      </trkpt>
      <trkpt lat="45.27341" lon="4.64496">
        <ele>441.79998779297</ele>
        <time>2026-05-12T11:47:45.000Z</time>
      </trkpt>
      <trkpt lat="45.27348" lon="4.64495">
        <ele>441</ele>
        <time>2026-05-12T11:47:46.000Z</time>
      </trkpt>
      <trkpt lat="45.27354" lon="4.64493">
        <ele>440.39999389648</ele>
        <time>2026-05-12T11:47:47.000Z</time>
      </trkpt>
      <trkpt lat="45.27361" lon="4.64491">
        <ele>439.60000610352</ele>
        <time>2026-05-12T11:47:48.000Z</time>
      </trkpt>
      <trkpt lat="45.27367" lon="4.64488">
        <ele>438.79998779297</ele>
        <time>2026-05-12T11:47:49.000Z</time>
      </trkpt>
      <trkpt lat="45.27374" lon="4.64485">
        <ele>438.20001220703</ele>
        <time>2026-05-12T11:47:50.000Z</time>
      </trkpt>
      <trkpt lat="45.27381" lon="4.64482">
        <ele>437.39999389648</ele>
        <time>2026-05-12T11:47:51.000Z</time>
      </trkpt>
      <trkpt lat="45.27386" lon="4.64478">
        <ele>436.60000610352</ele>
        <time>2026-05-12T11:47:52.000Z</time>
      </trkpt>
      <trkpt lat="45.2739" lon="4.64474">
        <ele>436</ele>
        <time>2026-05-12T11:47:53.000Z</time>
      </trkpt>
      <trkpt lat="45.27394" lon="4.64471">
        <ele>435.39999389648</ele>
        <time>2026-05-12T11:47:54.000Z</time>
      </trkpt>
      <trkpt lat="45.27399" lon="4.64469">
        <ele>434.79998779297</ele>
        <time>2026-05-12T11:47:55.000Z</time>
      </trkpt>
      <trkpt lat="45.27404" lon="4.64467">
        <ele>434.39999389648</ele>
        <time>2026-05-12T11:47:56.000Z</time>
      </trkpt>
      <trkpt lat="45.27409" lon="4.64466">
        <ele>433.79998779297</ele>
        <time>2026-05-12T11:47:57.000Z</time>
      </trkpt>
      <trkpt lat="45.27415" lon="4.64466">
        <ele>433.20001220703</ele>
        <time>2026-05-12T11:47:58.000Z</time>
      </trkpt>
      <trkpt lat="45.2742" lon="4.64468">
        <ele>432.39999389648</ele>
        <time>2026-05-12T11:47:59.000Z</time>
      </trkpt>
      <trkpt lat="45.27426" lon="4.64471">
        <ele>431.60000610352</ele>
        <time>2026-05-12T11:48:00.000Z</time>
      </trkpt>
      <trkpt lat="45.27432" lon="4.64473">
        <ele>430.79998779297</ele>
        <time>2026-05-12T11:48:01.000Z</time>
      </trkpt>
      <trkpt lat="45.27438" lon="4.64475">
        <ele>429.79998779297</ele>
        <time>2026-05-12T11:48:02.000Z</time>
      </trkpt>
      <trkpt lat="45.27445" lon="4.64476">
        <ele>428.79998779297</ele>
        <time>2026-05-12T11:48:03.000Z</time>
      </trkpt>
      <trkpt lat="45.27451" lon="4.64476">
        <ele>428</ele>
        <time>2026-05-12T11:48:04.000Z</time>
      </trkpt>
      <trkpt lat="45.27458" lon="4.64476">
        <ele>427.20001220703</ele>
        <time>2026-05-12T11:48:05.000Z</time>
      </trkpt>
      <trkpt lat="45.27464" lon="4.64476">
        <ele>426.39999389648</ele>
        <time>2026-05-12T11:48:06.000Z</time>
      </trkpt>
      <trkpt lat="45.2747" lon="4.64477">
        <ele>425.60000610352</ele>
        <time>2026-05-12T11:48:07.000Z</time>
      </trkpt>
      <trkpt lat="45.27476" lon="4.64479">
        <ele>425</ele>
        <time>2026-05-12T11:48:08.000Z</time>
      </trkpt>
      <trkpt lat="45.27483" lon="4.6448">
        <ele>424.20001220703</ele>
        <time>2026-05-12T11:48:09.000Z</time>
      </trkpt>
      <trkpt lat="45.2749" lon="4.64481">
        <ele>423.20001220703</ele>
        <time>2026-05-12T11:48:10.000Z</time>
      </trkpt>
      <trkpt lat="45.27497" lon="4.64482">
        <ele>422.39999389648</ele>
        <time>2026-05-12T11:48:11.000Z</time>
      </trkpt>
      <trkpt lat="45.27505" lon="4.64482">
        <ele>421.39999389648</ele>
        <time>2026-05-12T11:48:12.000Z</time>
      </trkpt>
      <trkpt lat="45.27512" lon="4.64482">
        <ele>420.39999389648</ele>
        <time>2026-05-12T11:48:13.000Z</time>
      </trkpt>
      <trkpt lat="45.27518" lon="4.64483">
        <ele>419.79998779297</ele>
        <time>2026-05-12T11:48:14.000Z</time>
      </trkpt>
      <trkpt lat="45.27524" lon="4.64484">
        <ele>419.20001220703</ele>
        <time>2026-05-12T11:48:15.000Z</time>
      </trkpt>
      <trkpt lat="45.27529" lon="4.64486">
        <ele>418.79998779297</ele>
        <time>2026-05-12T11:48:16.000Z</time>
      </trkpt>
      <trkpt lat="45.27533" lon="4.6449">
        <ele>418.39999389648</ele>
        <time>2026-05-12T11:48:17.000Z</time>
      </trkpt>
      <trkpt lat="45.27538" lon="4.64495">
        <ele>418</ele>
        <time>2026-05-12T11:48:18.000Z</time>
      </trkpt>
      <trkpt lat="45.27543" lon="4.64499">
        <ele>417.60000610352</ele>
        <time>2026-05-12T11:48:19.000Z</time>
      </trkpt>
      <trkpt lat="45.27547" lon="4.64504">
        <ele>417.20001220703</ele>
        <time>2026-05-12T11:48:20.000Z</time>
      </trkpt>
      <trkpt lat="45.27552" lon="4.64508">
        <ele>416.79998779297</ele>
        <time>2026-05-12T11:48:21.000Z</time>
      </trkpt>
      <trkpt lat="45.27556" lon="4.64514">
        <ele>416.60000610352</ele>
        <time>2026-05-12T11:48:22.000Z</time>
      </trkpt>
      <trkpt lat="45.2756" lon="4.64519">
        <ele>416.39999389648</ele>
        <time>2026-05-12T11:48:23.000Z</time>
      </trkpt>
      <trkpt lat="45.27564" lon="4.64523">
        <ele>416.39999389648</ele>
        <time>2026-05-12T11:48:24.000Z</time>
      </trkpt>
      <trkpt lat="45.27568" lon="4.64528">
        <ele>416.20001220703</ele>
        <time>2026-05-12T11:48:25.000Z</time>
      </trkpt>
      <trkpt lat="45.27573" lon="4.64533">
        <ele>416</ele>
        <time>2026-05-12T11:48:26.000Z</time>
      </trkpt>
      <trkpt lat="45.27577" lon="4.64538">
        <ele>416</ele>
        <time>2026-05-12T11:48:27.000Z</time>
      </trkpt>
      <trkpt lat="45.27582" lon="4.64542">
        <ele>416</ele>
        <time>2026-05-12T11:48:28.000Z</time>
      </trkpt>
      <trkpt lat="45.27586" lon="4.64547">
        <ele>416</ele>
        <time>2026-05-12T11:48:29.000Z</time>
      </trkpt>
      <trkpt lat="45.2759" lon="4.64551">
        <ele>416</ele>
        <time>2026-05-12T11:48:30.000Z</time>
      </trkpt>
      <trkpt lat="45.27594" lon="4.64555">
        <ele>416.20001220703</ele>
        <time>2026-05-12T11:48:31.000Z</time>
      </trkpt>
      <trkpt lat="45.27597" lon="4.64559">
        <ele>416.39999389648</ele>
        <time>2026-05-12T11:48:32.000Z</time>
      </trkpt>
      <trkpt lat="45.276" lon="4.64562">
        <ele>416.79998779297</ele>
        <time>2026-05-12T11:48:33.000Z</time>
      </trkpt>
      <trkpt lat="45.27602" lon="4.64565">
        <ele>417.20001220703</ele>
        <time>2026-05-12T11:48:34.000Z</time>
      </trkpt>
      <trkpt lat="45.27605" lon="4.64567">
        <ele>417.79998779297</ele>
        <time>2026-05-12T11:48:35.000Z</time>
      </trkpt>
      <trkpt lat="45.27606" lon="4.64569">
        <ele>418.20001220703</ele>
        <time>2026-05-12T11:48:36.000Z</time>
      </trkpt>
      <trkpt lat="45.27609" lon="4.64572">
        <ele>419</ele>
        <time>2026-05-12T11:48:37.000Z</time>
      </trkpt>
      <trkpt lat="45.27609" lon="4.64572">
        <ele>419</ele>
        <time>2026-05-12T11:48:38.000Z</time>
      </trkpt>
      <trkpt lat="45.27611" lon="4.64574">
        <ele>419.20001220703</ele>
        <time>2026-05-12T11:48:39.000Z</time>
      </trkpt>
      <trkpt lat="45.27612" lon="4.64575">
        <ele>419.39999389648</ele>
        <time>2026-05-12T11:48:40.000Z</time>
      </trkpt>
      <trkpt lat="45.27614" lon="4.64576">
        <ele>419.39999389648</ele>
        <time>2026-05-12T11:48:41.000Z</time>
      </trkpt>
      <trkpt lat="45.27615" lon="4.64578">
        <ele>419.20001220703</ele>
        <time>2026-05-12T11:48:42.000Z</time>
      </trkpt>
      <trkpt lat="45.27617" lon="4.6458">
        <ele>419.20001220703</ele>
        <time>2026-05-12T11:48:43.000Z</time>
      </trkpt>
      <trkpt lat="45.27619" lon="4.64582">
        <ele>419</ele>
        <time>2026-05-12T11:48:44.000Z</time>
      </trkpt>
      <trkpt lat="45.27621" lon="4.64584">
        <ele>419</ele>
        <time>2026-05-12T11:48:45.000Z</time>
      </trkpt>
      <trkpt lat="45.27623" lon="4.64586">
        <ele>418.79998779297</ele>
        <time>2026-05-12T11:48:46.000Z</time>
      </trkpt>
      <trkpt lat="45.27626" lon="4.64589">
        <ele>418.79998779297</ele>
        <time>2026-05-12T11:48:47.000Z</time>
      </trkpt>
      <trkpt lat="45.27629" lon="4.64592">
        <ele>418.60000610352</ele>
        <time>2026-05-12T11:48:48.000Z</time>
      </trkpt>
      <trkpt lat="45.27632" lon="4.64594">
        <ele>418.60000610352</ele>
        <time>2026-05-12T11:48:49.000Z</time>
      </trkpt>
      <trkpt lat="45.27634" lon="4.64597">
        <ele>418.39999389648</ele>
        <time>2026-05-12T11:48:50.000Z</time>
      </trkpt>
      <trkpt lat="45.27637" lon="4.646">
        <ele>418.39999389648</ele>
        <time>2026-05-12T11:48:51.000Z</time>
      </trkpt>
      <trkpt lat="45.2764" lon="4.64603">
        <ele>418.39999389648</ele>
        <time>2026-05-12T11:48:52.000Z</time>
      </trkpt>
      <trkpt lat="45.27642" lon="4.64606">
        <ele>418.39999389648</ele>
        <time>2026-05-12T11:48:53.000Z</time>
      </trkpt>
      <trkpt lat="45.27645" lon="4.64608">
        <ele>418.39999389648</ele>
        <time>2026-05-12T11:48:54.000Z</time>
      </trkpt>
      <trkpt lat="45.27648" lon="4.64611">
        <ele>418.39999389648</ele>
        <time>2026-05-12T11:48:55.000Z</time>
      </trkpt>
      <trkpt lat="45.2765" lon="4.64613">
        <ele>418.39999389648</ele>
        <time>2026-05-12T11:48:56.000Z</time>
      </trkpt>
      <trkpt lat="45.27653" lon="4.64615">
        <ele>418.39999389648</ele>
        <time>2026-05-12T11:48:57.000Z</time>
      </trkpt>
      <trkpt lat="45.27655" lon="4.64618">
        <ele>418.39999389648</ele>
        <time>2026-05-12T11:48:58.000Z</time>
      </trkpt>
      <trkpt lat="45.27657" lon="4.6462">
        <ele>418.39999389648</ele>
        <time>2026-05-12T11:48:59.000Z</time>
      </trkpt>
      <trkpt lat="45.27659" lon="4.64622">
        <ele>418.39999389648</ele>
        <time>2026-05-12T11:49:00.000Z</time>
      </trkpt>
      <trkpt lat="45.27661" lon="4.64624">
        <ele>418.39999389648</ele>
        <time>2026-05-12T11:49:01.000Z</time>
      </trkpt>
      <trkpt lat="45.27663" lon="4.64625">
        <ele>418.39999389648</ele>
        <time>2026-05-12T11:49:02.000Z</time>
      </trkpt>
      <trkpt lat="45.27665" lon="4.64627">
        <ele>418.39999389648</ele>
        <time>2026-05-12T11:49:03.000Z</time>
      </trkpt>
      <trkpt lat="45.27667" lon="4.64629">
        <ele>418.39999389648</ele>
        <time>2026-05-12T11:49:04.000Z</time>
      </trkpt>
      <trkpt lat="45.27668" lon="4.64631">
        <ele>418.39999389648</ele>
        <time>2026-05-12T11:49:05.000Z</time>
      </trkpt>
      <trkpt lat="45.2767" lon="4.64632">
        <ele>418.60000610352</ele>
        <time>2026-05-12T11:49:06.000Z</time>
      </trkpt>
      <trkpt lat="45.27671" lon="4.64633">
        <ele>418.60000610352</ele>
        <time>2026-05-12T11:49:07.000Z</time>
      </trkpt>
      <trkpt lat="45.27672" lon="4.64634">
        <ele>418.60000610352</ele>
        <time>2026-05-12T11:49:08.000Z</time>
      </trkpt>
      <trkpt lat="45.27674" lon="4.64636">
        <ele>418.60000610352</ele>
        <time>2026-05-12T11:49:09.000Z</time>
      </trkpt>
      <trkpt lat="45.27675" lon="4.64638">
        <ele>418.79998779297</ele>
        <time>2026-05-12T11:49:10.000Z</time>
      </trkpt>
      <trkpt lat="45.27676" lon="4.64639">
        <ele>418.79998779297</ele>
        <time>2026-05-12T11:49:11.000Z</time>
      </trkpt>
      <trkpt lat="45.27678" lon="4.64641">
        <ele>418.79998779297</ele>
        <time>2026-05-12T11:49:12.000Z</time>
      </trkpt>
      <trkpt lat="45.27679" lon="4.64642">
        <ele>418.79998779297</ele>
        <time>2026-05-12T11:49:13.000Z</time>
      </trkpt>
      <trkpt lat="45.27681" lon="4.64643">
        <ele>418.79998779297</ele>
        <time>2026-05-12T11:49:14.000Z</time>
      </trkpt>
      <trkpt lat="45.27682" lon="4.64644">
        <ele>418.79998779297</ele>
        <time>2026-05-12T11:49:15.000Z</time>
      </trkpt>
      <trkpt lat="45.27684" lon="4.64646">
        <ele>418.79998779297</ele>
        <time>2026-05-12T11:49:16.000Z</time>
      </trkpt>
      <trkpt lat="45.27685" lon="4.64647">
        <ele>419</ele>
        <time>2026-05-12T11:49:17.000Z</time>
      </trkpt>
      <trkpt lat="45.27686" lon="4.64649">
        <ele>419</ele>
        <time>2026-05-12T11:49:18.000Z</time>
      </trkpt>
      <trkpt lat="45.27687" lon="4.64651">
        <ele>419</ele>
        <time>2026-05-12T11:49:19.000Z</time>
      </trkpt>
      <trkpt lat="45.27689" lon="4.64653">
        <ele>419</ele>
        <time>2026-05-12T11:49:20.000Z</time>
      </trkpt>
      <trkpt lat="45.2769" lon="4.64654">
        <ele>419.20001220703</ele>
        <time>2026-05-12T11:49:21.000Z</time>
      </trkpt>
      <trkpt lat="45.27691" lon="4.64656">
        <ele>419.20001220703</ele>
        <time>2026-05-12T11:49:22.000Z</time>
      </trkpt>
      <trkpt lat="45.27692" lon="4.64658">
        <ele>419.20001220703</ele>
        <time>2026-05-12T11:49:23.000Z</time>
      </trkpt>
      <trkpt lat="45.27693" lon="4.6466">
        <ele>419.39999389648</ele>
        <time>2026-05-12T11:49:24.000Z</time>
      </trkpt>
      <trkpt lat="45.27694" lon="4.64662">
        <ele>419.39999389648</ele>
        <time>2026-05-12T11:49:25.000Z</time>
      </trkpt>
      <trkpt lat="45.27695" lon="4.64664">
        <ele>419.60000610352</ele>
        <time>2026-05-12T11:49:26.000Z</time>
      </trkpt>
      <trkpt lat="45.27695" lon="4.64666">
        <ele>419.60000610352</ele>
        <time>2026-05-12T11:49:27.000Z</time>
      </trkpt>
      <trkpt lat="45.27695" lon="4.64668">
        <ele>419.79998779297</ele>
        <time>2026-05-12T11:49:28.000Z</time>
      </trkpt>
      <trkpt lat="45.27694" lon="4.64669">
        <ele>419.79998779297</ele>
        <time>2026-05-12T11:49:29.000Z</time>
      </trkpt>
      <trkpt lat="45.27694" lon="4.64669">
        <ele>420</ele>
        <time>2026-05-12T11:49:30.000Z</time>
      </trkpt>
      <trkpt lat="45.27693" lon="4.64674">
        <ele>420.60000610352</ele>
        <time>2026-05-12T11:50:41.000Z</time>
      </trkpt>
      <trkpt lat="45.27691" lon="4.64677">
        <ele>420.39999389648</ele>
        <time>2026-05-12T11:50:42.000Z</time>
      </trkpt>
      <trkpt lat="45.2769" lon="4.6468">
        <ele>420.20001220703</ele>
        <time>2026-05-12T11:50:43.000Z</time>
      </trkpt>
      <trkpt lat="45.27688" lon="4.64684">
        <ele>420</ele>
        <time>2026-05-12T11:50:44.000Z</time>
      </trkpt>
      <trkpt lat="45.27686" lon="4.64689">
        <ele>419.79998779297</ele>
        <time>2026-05-12T11:50:45.000Z</time>
      </trkpt>
      <trkpt lat="45.27684" lon="4.64693">
        <ele>419.60000610352</ele>
        <time>2026-05-12T11:50:46.000Z</time>
      </trkpt>
      <trkpt lat="45.27682" lon="4.64698">
        <ele>419.20001220703</ele>
        <time>2026-05-12T11:50:47.000Z</time>
      </trkpt>
      <trkpt lat="45.2768" lon="4.64703">
        <ele>419</ele>
        <time>2026-05-12T11:50:48.000Z</time>
      </trkpt>
      <trkpt lat="45.27677" lon="4.64708">
        <ele>418.79998779297</ele>
        <time>2026-05-12T11:50:49.000Z</time>
      </trkpt>
      <trkpt lat="45.27675" lon="4.64712">
        <ele>418.60000610352</ele>
        <time>2026-05-12T11:50:50.000Z</time>
      </trkpt>
      <trkpt lat="45.27672" lon="4.64717">
        <ele>418.39999389648</ele>
        <time>2026-05-12T11:50:51.000Z</time>
      </trkpt>
      <trkpt lat="45.2767" lon="4.64722">
        <ele>418.39999389648</ele>
        <time>2026-05-12T11:50:52.000Z</time>
      </trkpt>
      <trkpt lat="45.27668" lon="4.64726">
        <ele>418.20001220703</ele>
        <time>2026-05-12T11:50:53.000Z</time>
      </trkpt>
      <trkpt lat="45.27666" lon="4.64731">
        <ele>418.20001220703</ele>
        <time>2026-05-12T11:50:54.000Z</time>
      </trkpt>
      <trkpt lat="45.27663" lon="4.64735">
        <ele>418.20001220703</ele>
        <time>2026-05-12T11:50:55.000Z</time>
      </trkpt>
      <trkpt lat="45.27661" lon="4.64739">
        <ele>418.20001220703</ele>
        <time>2026-05-12T11:50:56.000Z</time>
      </trkpt>
      <trkpt lat="45.27659" lon="4.64743">
        <ele>418.20001220703</ele>
        <time>2026-05-12T11:50:57.000Z</time>
      </trkpt>
      <trkpt lat="45.27658" lon="4.64746">
        <ele>418.39999389648</ele>
        <time>2026-05-12T11:50:58.000Z</time>
      </trkpt>
      <trkpt lat="45.27655" lon="4.6475">
        <ele>418.39999389648</ele>
        <time>2026-05-12T11:50:59.000Z</time>
      </trkpt>
      <trkpt lat="45.27653" lon="4.64753">
        <ele>418.39999389648</ele>
        <time>2026-05-12T11:51:00.000Z</time>
      </trkpt>
      <trkpt lat="45.27651" lon="4.64757">
        <ele>418.39999389648</ele>
        <time>2026-05-12T11:51:01.000Z</time>
      </trkpt>
      <trkpt lat="45.27649" lon="4.64761">
        <ele>418.39999389648</ele>
        <time>2026-05-12T11:51:02.000Z</time>
      </trkpt>
      <trkpt lat="45.27647" lon="4.64764">
        <ele>418.39999389648</ele>
        <time>2026-05-12T11:51:03.000Z</time>
      </trkpt>
      <trkpt lat="45.27644" lon="4.64768">
        <ele>418.39999389648</ele>
        <time>2026-05-12T11:51:04.000Z</time>
      </trkpt>
      <trkpt lat="45.27641" lon="4.64772">
        <ele>418.39999389648</ele>
        <time>2026-05-12T11:51:05.000Z</time>
      </trkpt>
      <trkpt lat="45.27639" lon="4.64775">
        <ele>418.39999389648</ele>
        <time>2026-05-12T11:51:06.000Z</time>
      </trkpt>
      <trkpt lat="45.27635" lon="4.64779">
        <ele>418.39999389648</ele>
        <time>2026-05-12T11:51:07.000Z</time>
      </trkpt>
      <trkpt lat="45.27632" lon="4.64783">
        <ele>418.39999389648</ele>
        <time>2026-05-12T11:51:08.000Z</time>
      </trkpt>
      <trkpt lat="45.27629" lon="4.64787">
        <ele>418.39999389648</ele>
        <time>2026-05-12T11:51:09.000Z</time>
      </trkpt>
      <trkpt lat="45.27625" lon="4.6479">
        <ele>418.20001220703</ele>
        <time>2026-05-12T11:51:10.000Z</time>
      </trkpt>
      <trkpt lat="45.27622" lon="4.64794">
        <ele>418.20001220703</ele>
        <time>2026-05-12T11:51:11.000Z</time>
      </trkpt>
      <trkpt lat="45.27619" lon="4.64798">
        <ele>418.20001220703</ele>
        <time>2026-05-12T11:51:12.000Z</time>
      </trkpt>
      <trkpt lat="45.27615" lon="4.64801">
        <ele>418</ele>
        <time>2026-05-12T11:51:13.000Z</time>
      </trkpt>
      <trkpt lat="45.27612" lon="4.64804">
        <ele>418</ele>
        <time>2026-05-12T11:51:14.000Z</time>
      </trkpt>
      <trkpt lat="45.27608" lon="4.64807">
        <ele>418</ele>
        <time>2026-05-12T11:51:15.000Z</time>
      </trkpt>
      <trkpt lat="45.27604" lon="4.64809">
        <ele>418</ele>
        <time>2026-05-12T11:51:16.000Z</time>
      </trkpt>
      <trkpt lat="45.27601" lon="4.64812">
        <ele>417.79998779297</ele>
        <time>2026-05-12T11:51:17.000Z</time>
      </trkpt>
      <trkpt lat="45.27597" lon="4.64815">
        <ele>417.79998779297</ele>
        <time>2026-05-12T11:51:18.000Z</time>
      </trkpt>
      <trkpt lat="45.27593" lon="4.64818">
        <ele>417.79998779297</ele>
        <time>2026-05-12T11:51:19.000Z</time>
      </trkpt>
      <trkpt lat="45.27589" lon="4.64821">
        <ele>417.60000610352</ele>
        <time>2026-05-12T11:51:20.000Z</time>
      </trkpt>
      <trkpt lat="45.27586" lon="4.64825">
        <ele>417.60000610352</ele>
        <time>2026-05-12T11:51:21.000Z</time>
      </trkpt>
      <trkpt lat="45.27583" lon="4.6483">
        <ele>417.60000610352</ele>
        <time>2026-05-12T11:51:22.000Z</time>
      </trkpt>
      <trkpt lat="45.2758" lon="4.64835">
        <ele>417.39999389648</ele>
        <time>2026-05-12T11:51:23.000Z</time>
      </trkpt>
      <trkpt lat="45.27577" lon="4.6484">
        <ele>417.20001220703</ele>
        <time>2026-05-12T11:51:24.000Z</time>
      </trkpt>
      <trkpt lat="45.27574" lon="4.64845">
        <ele>417</ele>
        <time>2026-05-12T11:51:25.000Z</time>
      </trkpt>
      <trkpt lat="45.2757" lon="4.64849">
        <ele>416.79998779297</ele>
        <time>2026-05-12T11:51:26.000Z</time>
      </trkpt>
      <trkpt lat="45.27566" lon="4.64853">
        <ele>416.79998779297</ele>
        <time>2026-05-12T11:51:27.000Z</time>
      </trkpt>
      <trkpt lat="45.27562" lon="4.64857">
        <ele>416.79998779297</ele>
        <time>2026-05-12T11:51:28.000Z</time>
      </trkpt>
      <trkpt lat="45.27557" lon="4.64861">
        <ele>416.79998779297</ele>
        <time>2026-05-12T11:51:29.000Z</time>
      </trkpt>
      <trkpt lat="45.27553" lon="4.64864">
        <ele>416.79998779297</ele>
        <time>2026-05-12T11:51:30.000Z</time>
      </trkpt>
      <trkpt lat="45.27548" lon="4.64868">
        <ele>416.60000610352</ele>
        <time>2026-05-12T11:51:31.000Z</time>
      </trkpt>
      <trkpt lat="45.27544" lon="4.64872">
        <ele>416.60000610352</ele>
        <time>2026-05-12T11:51:32.000Z</time>
      </trkpt>
      <trkpt lat="45.2754" lon="4.64875">
        <ele>416.60000610352</ele>
        <time>2026-05-12T11:51:33.000Z</time>
      </trkpt>
      <trkpt lat="45.27535" lon="4.64879">
        <ele>416.39999389648</ele>
        <time>2026-05-12T11:51:34.000Z</time>
      </trkpt>
      <trkpt lat="45.27531" lon="4.64883">
        <ele>416.39999389648</ele>
        <time>2026-05-12T11:51:35.000Z</time>
      </trkpt>
      <trkpt lat="45.27527" lon="4.64885">
        <ele>416.60000610352</ele>
        <time>2026-05-12T11:51:36.000Z</time>
      </trkpt>
      <trkpt lat="45.27523" lon="4.64887">
        <ele>416.60000610352</ele>
        <time>2026-05-12T11:51:37.000Z</time>
      </trkpt>
      <trkpt lat="45.27519" lon="4.6489">
        <ele>416.79998779297</ele>
        <time>2026-05-12T11:51:38.000Z</time>
      </trkpt>
      <trkpt lat="45.27515" lon="4.64892">
        <ele>416.79998779297</ele>
        <time>2026-05-12T11:51:39.000Z</time>
      </trkpt>
      <trkpt lat="45.2751" lon="4.64894">
        <ele>417</ele>
        <time>2026-05-12T11:51:40.000Z</time>
      </trkpt>
      <trkpt lat="45.27506" lon="4.64896">
        <ele>417</ele>
        <time>2026-05-12T11:51:41.000Z</time>
      </trkpt>
      <trkpt lat="45.27501" lon="4.64898">
        <ele>417</ele>
        <time>2026-05-12T11:51:42.000Z</time>
      </trkpt>
      <trkpt lat="45.27497" lon="4.649">
        <ele>417.20001220703</ele>
        <time>2026-05-12T11:51:43.000Z</time>
      </trkpt>
      <trkpt lat="45.27492" lon="4.64902">
        <ele>417.20001220703</ele>
        <time>2026-05-12T11:51:44.000Z</time>
      </trkpt>
      <trkpt lat="45.27488" lon="4.64904">
        <ele>417.20001220703</ele>
        <time>2026-05-12T11:51:45.000Z</time>
      </trkpt>
      <trkpt lat="45.27483" lon="4.64906">
        <ele>417.39999389648</ele>
        <time>2026-05-12T11:51:46.000Z</time>
      </trkpt>
      <trkpt lat="45.27478" lon="4.64907">
        <ele>417.39999389648</ele>
        <time>2026-05-12T11:51:47.000Z</time>
      </trkpt>
      <trkpt lat="45.27473" lon="4.64909">
        <ele>417.39999389648</ele>
        <time>2026-05-12T11:51:48.000Z</time>
      </trkpt>
      <trkpt lat="45.27469" lon="4.6491">
        <ele>417.39999389648</ele>
        <time>2026-05-12T11:51:49.000Z</time>
      </trkpt>
      <trkpt lat="45.27464" lon="4.64911">
        <ele>417.39999389648</ele>
        <time>2026-05-12T11:51:50.000Z</time>
      </trkpt>
      <trkpt lat="45.27459" lon="4.64912">
        <ele>417.20001220703</ele>
        <time>2026-05-12T11:51:51.000Z</time>
      </trkpt>
      <trkpt lat="45.27455" lon="4.64913">
        <ele>417.20001220703</ele>
        <time>2026-05-12T11:51:52.000Z</time>
      </trkpt>
      <trkpt lat="45.2745" lon="4.64914">
        <ele>417.20001220703</ele>
        <time>2026-05-12T11:51:53.000Z</time>
      </trkpt>
      <trkpt lat="45.27445" lon="4.64915">
        <ele>417</ele>
        <time>2026-05-12T11:51:54.000Z</time>
      </trkpt>
      <trkpt lat="45.2744" lon="4.64915">
        <ele>417</ele>
        <time>2026-05-12T11:51:55.000Z</time>
      </trkpt>
      <trkpt lat="45.27435" lon="4.64915">
        <ele>416.79998779297</ele>
        <time>2026-05-12T11:51:56.000Z</time>
      </trkpt>
      <trkpt lat="45.27429" lon="4.64915">
        <ele>416.60000610352</ele>
        <time>2026-05-12T11:51:57.000Z</time>
      </trkpt>
      <trkpt lat="45.27424" lon="4.64915">
        <ele>416.39999389648</ele>
        <time>2026-05-12T11:51:58.000Z</time>
      </trkpt>
      <trkpt lat="45.27418" lon="4.64914">
        <ele>416.20001220703</ele>
        <time>2026-05-12T11:51:59.000Z</time>
      </trkpt>
      <trkpt lat="45.27412" lon="4.64914">
        <ele>415.79998779297</ele>
        <time>2026-05-12T11:52:00.000Z</time>
      </trkpt>
      <trkpt lat="45.27406" lon="4.64914">
        <ele>415.60000610352</ele>
        <time>2026-05-12T11:52:01.000Z</time>
      </trkpt>
      <trkpt lat="45.274" lon="4.64913">
        <ele>415.20001220703</ele>
        <time>2026-05-12T11:52:02.000Z</time>
      </trkpt>
      <trkpt lat="45.27393" lon="4.64913">
        <ele>414.79998779297</ele>
        <time>2026-05-12T11:52:03.000Z</time>
      </trkpt>
      <trkpt lat="45.27387" lon="4.64913">
        <ele>414.60000610352</ele>
        <time>2026-05-12T11:52:04.000Z</time>
      </trkpt>
      <trkpt lat="45.27381" lon="4.64912">
        <ele>414.20001220703</ele>
        <time>2026-05-12T11:52:05.000Z</time>
      </trkpt>
      <trkpt lat="45.27375" lon="4.64911">
        <ele>414</ele>
        <time>2026-05-12T11:52:06.000Z</time>
      </trkpt>
      <trkpt lat="45.27368" lon="4.6491">
        <ele>413.60000610352</ele>
        <time>2026-05-12T11:52:07.000Z</time>
      </trkpt>
      <trkpt lat="45.27361" lon="4.64909">
        <ele>413.20001220703</ele>
        <time>2026-05-12T11:52:08.000Z</time>
      </trkpt>
      <trkpt lat="45.27354" lon="4.64907">
        <ele>412.79998779297</ele>
        <time>2026-05-12T11:52:09.000Z</time>
      </trkpt>
      <trkpt lat="45.27348" lon="4.64906">
        <ele>412.39999389648</ele>
        <time>2026-05-12T11:52:10.000Z</time>
      </trkpt>
      <trkpt lat="45.27341" lon="4.64904">
        <ele>412.20001220703</ele>
        <time>2026-05-12T11:52:11.000Z</time>
      </trkpt>
      <trkpt lat="45.27335" lon="4.64902">
        <ele>411.79998779297</ele>
        <time>2026-05-12T11:52:12.000Z</time>
      </trkpt>
      <trkpt lat="45.27328" lon="4.649">
        <ele>411.60000610352</ele>
        <time>2026-05-12T11:52:13.000Z</time>
      </trkpt>
      <trkpt lat="45.27322" lon="4.64898">
        <ele>411.39999389648</ele>
        <time>2026-05-12T11:52:14.000Z</time>
      </trkpt>
      <trkpt lat="45.27315" lon="4.64895">
        <ele>411.20001220703</ele>
        <time>2026-05-12T11:52:15.000Z</time>
      </trkpt>
      <trkpt lat="45.27309" lon="4.64892">
        <ele>410.79998779297</ele>
        <time>2026-05-12T11:52:16.000Z</time>
      </trkpt>
      <trkpt lat="45.27303" lon="4.6489">
        <ele>410.79998779297</ele>
        <time>2026-05-12T11:52:17.000Z</time>
      </trkpt>
      <trkpt lat="45.27298" lon="4.64888">
        <ele>410.60000610352</ele>
        <time>2026-05-12T11:52:18.000Z</time>
      </trkpt>
      <trkpt lat="45.27292" lon="4.64885">
        <ele>410.39999389648</ele>
        <time>2026-05-12T11:52:19.000Z</time>
      </trkpt>
      <trkpt lat="45.27286" lon="4.64883">
        <ele>410.39999389648</ele>
        <time>2026-05-12T11:52:20.000Z</time>
      </trkpt>
      <trkpt lat="45.2728" lon="4.6488">
        <ele>410.20001220703</ele>
        <time>2026-05-12T11:52:21.000Z</time>
      </trkpt>
      <trkpt lat="45.27275" lon="4.64878">
        <ele>410.20001220703</ele>
        <time>2026-05-12T11:52:22.000Z</time>
      </trkpt>
      <trkpt lat="45.27269" lon="4.64875">
        <ele>410.20001220703</ele>
        <time>2026-05-12T11:52:23.000Z</time>
      </trkpt>
      <trkpt lat="45.27264" lon="4.64873">
        <ele>410.20001220703</ele>
        <time>2026-05-12T11:52:24.000Z</time>
      </trkpt>
      <trkpt lat="45.2726" lon="4.6487">
        <ele>410.39999389648</ele>
        <time>2026-05-12T11:52:25.000Z</time>
      </trkpt>
      <trkpt lat="45.27255" lon="4.64868">
        <ele>410.60000610352</ele>
        <time>2026-05-12T11:52:26.000Z</time>
      </trkpt>
      <trkpt lat="45.2725" lon="4.64865">
        <ele>410.79998779297</ele>
        <time>2026-05-12T11:52:27.000Z</time>
      </trkpt>
      <trkpt lat="45.27246" lon="4.64864">
        <ele>411</ele>
        <time>2026-05-12T11:52:28.000Z</time>
      </trkpt>
      <trkpt lat="45.27242" lon="4.64862">
        <ele>411.20001220703</ele>
        <time>2026-05-12T11:52:29.000Z</time>
      </trkpt>
      <trkpt lat="45.27237" lon="4.6486">
        <ele>411.39999389648</ele>
        <time>2026-05-12T11:52:30.000Z</time>
      </trkpt>
      <trkpt lat="45.27234" lon="4.64859">
        <ele>411.39999389648</ele>
        <time>2026-05-12T11:52:31.000Z</time>
      </trkpt>
      <trkpt lat="45.2723" lon="4.64858">
        <ele>411.60000610352</ele>
        <time>2026-05-12T11:52:32.000Z</time>
      </trkpt>
      <trkpt lat="45.27225" lon="4.64856">
        <ele>411.60000610352</ele>
        <time>2026-05-12T11:52:33.000Z</time>
      </trkpt>
      <trkpt lat="45.2722" lon="4.64853">
        <ele>411.39999389648</ele>
        <time>2026-05-12T11:52:34.000Z</time>
      </trkpt>
      <trkpt lat="45.27215" lon="4.64852">
        <ele>411.39999389648</ele>
        <time>2026-05-12T11:52:35.000Z</time>
      </trkpt>
      <trkpt lat="45.2721" lon="4.6485">
        <ele>411.20001220703</ele>
        <time>2026-05-12T11:52:36.000Z</time>
      </trkpt>
      <trkpt lat="45.27205" lon="4.64849">
        <ele>411.20001220703</ele>
        <time>2026-05-12T11:52:37.000Z</time>
      </trkpt>
      <trkpt lat="45.272" lon="4.64847">
        <ele>411</ele>
        <time>2026-05-12T11:52:38.000Z</time>
      </trkpt>
      <trkpt lat="45.27195" lon="4.64846">
        <ele>411</ele>
        <time>2026-05-12T11:52:39.000Z</time>
      </trkpt>
      <trkpt lat="45.2719" lon="4.64845">
        <ele>411</ele>
        <time>2026-05-12T11:52:40.000Z</time>
      </trkpt>
      <trkpt lat="45.27186" lon="4.64845">
        <ele>411</ele>
        <time>2026-05-12T11:52:41.000Z</time>
      </trkpt>
      <trkpt lat="45.27182" lon="4.64845">
        <ele>410.79998779297</ele>
        <time>2026-05-12T11:52:42.000Z</time>
      </trkpt>
      <trkpt lat="45.27178" lon="4.64844">
        <ele>410.79998779297</ele>
        <time>2026-05-12T11:52:43.000Z</time>
      </trkpt>
      <trkpt lat="45.27174" lon="4.64844">
        <ele>410.79998779297</ele>
        <time>2026-05-12T11:52:44.000Z</time>
      </trkpt>
      <trkpt lat="45.2717" lon="4.64844">
        <ele>410.79998779297</ele>
        <time>2026-05-12T11:52:45.000Z</time>
      </trkpt>
      <trkpt lat="45.27166" lon="4.64845">
        <ele>410.79998779297</ele>
        <time>2026-05-12T11:52:46.000Z</time>
      </trkpt>
      <trkpt lat="45.27162" lon="4.64846">
        <ele>410.79998779297</ele>
        <time>2026-05-12T11:52:47.000Z</time>
      </trkpt>
      <trkpt lat="45.27157" lon="4.64846">
        <ele>410.79998779297</ele>
        <time>2026-05-12T11:52:48.000Z</time>
      </trkpt>
      <trkpt lat="45.27152" lon="4.64846">
        <ele>410.60000610352</ele>
        <time>2026-05-12T11:52:49.000Z</time>
      </trkpt>
      <trkpt lat="45.27147" lon="4.64846">
        <ele>410.39999389648</ele>
        <time>2026-05-12T11:52:50.000Z</time>
      </trkpt>
      <trkpt lat="45.27142" lon="4.64845">
        <ele>410.39999389648</ele>
        <time>2026-05-12T11:52:51.000Z</time>
      </trkpt>
      <trkpt lat="45.27136" lon="4.64846">
        <ele>410.20001220703</ele>
        <time>2026-05-12T11:52:52.000Z</time>
      </trkpt>
      <trkpt lat="45.27131" lon="4.64846">
        <ele>410</ele>
        <time>2026-05-12T11:52:53.000Z</time>
      </trkpt>
      <trkpt lat="45.27125" lon="4.64847">
        <ele>409.79998779297</ele>
        <time>2026-05-12T11:52:54.000Z</time>
      </trkpt>
      <trkpt lat="45.27119" lon="4.64848">
        <ele>409.79998779297</ele>
        <time>2026-05-12T11:52:55.000Z</time>
      </trkpt>
      <trkpt lat="45.27114" lon="4.64849">
        <ele>409.79998779297</ele>
        <time>2026-05-12T11:52:56.000Z</time>
      </trkpt>
      <trkpt lat="45.27109" lon="4.6485">
        <ele>409.79998779297</ele>
        <time>2026-05-12T11:52:57.000Z</time>
      </trkpt>
      <trkpt lat="45.27105" lon="4.64851">
        <ele>410</ele>
        <time>2026-05-12T11:52:58.000Z</time>
      </trkpt>
      <trkpt lat="45.271" lon="4.64852">
        <ele>410.20001220703</ele>
        <time>2026-05-12T11:52:59.000Z</time>
      </trkpt>
      <trkpt lat="45.27096" lon="4.64853">
        <ele>410.39999389648</ele>
        <time>2026-05-12T11:53:00.000Z</time>
      </trkpt>
      <trkpt lat="45.27091" lon="4.64854">
        <ele>410.39999389648</ele>
        <time>2026-05-12T11:53:01.000Z</time>
      </trkpt>
      <trkpt lat="45.27088" lon="4.64856">
        <ele>410.60000610352</ele>
        <time>2026-05-12T11:53:02.000Z</time>
      </trkpt>
      <trkpt lat="45.27083" lon="4.64858">
        <ele>410.79998779297</ele>
        <time>2026-05-12T11:53:03.000Z</time>
      </trkpt>
      <trkpt lat="45.27079" lon="4.64861">
        <ele>411</ele>
        <time>2026-05-12T11:53:04.000Z</time>
      </trkpt>
      <trkpt lat="45.27075" lon="4.64862">
        <ele>411</ele>
        <time>2026-05-12T11:53:05.000Z</time>
      </trkpt>
      <trkpt lat="45.27071" lon="4.64865">
        <ele>411.20001220703</ele>
        <time>2026-05-12T11:53:06.000Z</time>
      </trkpt>
      <trkpt lat="45.27067" lon="4.64867">
        <ele>411.39999389648</ele>
        <time>2026-05-12T11:53:07.000Z</time>
      </trkpt>
      <trkpt lat="45.27063" lon="4.6487">
        <ele>411.60000610352</ele>
        <time>2026-05-12T11:53:08.000Z</time>
      </trkpt>
      <trkpt lat="45.2706" lon="4.64872">
        <ele>411.79998779297</ele>
        <time>2026-05-12T11:53:09.000Z</time>
      </trkpt>
      <trkpt lat="45.27058" lon="4.64874">
        <ele>412</ele>
        <time>2026-05-12T11:53:10.000Z</time>
      </trkpt>
      <trkpt lat="45.27055" lon="4.64876">
        <ele>412.20001220703</ele>
        <time>2026-05-12T11:53:11.000Z</time>
      </trkpt>
      <trkpt lat="45.27053" lon="4.64876">
        <ele>412.39999389648</ele>
        <time>2026-05-12T11:53:12.000Z</time>
      </trkpt>
      <trkpt lat="45.2705" lon="4.64878">
        <ele>412.79998779297</ele>
        <time>2026-05-12T11:53:13.000Z</time>
      </trkpt>
      <trkpt lat="45.27048" lon="4.64879">
        <ele>412.79998779297</ele>
        <time>2026-05-12T11:53:14.000Z</time>
      </trkpt>
      <trkpt lat="45.27045" lon="4.64882">
        <ele>413</ele>
        <time>2026-05-12T11:53:15.000Z</time>
      </trkpt>
      <trkpt lat="45.27042" lon="4.64884">
        <ele>413</ele>
        <time>2026-05-12T11:53:16.000Z</time>
      </trkpt>
      <trkpt lat="45.27038" lon="4.64887">
        <ele>412.79998779297</ele>
        <time>2026-05-12T11:53:17.000Z</time>
      </trkpt>
      <trkpt lat="45.27034" lon="4.6489">
        <ele>412.39999389648</ele>
        <time>2026-05-12T11:53:18.000Z</time>
      </trkpt>
      <trkpt lat="45.2703" lon="4.64894">
        <ele>412</ele>
        <time>2026-05-12T11:53:19.000Z</time>
      </trkpt>
      <trkpt lat="45.27025" lon="4.64898">
        <ele>411.60000610352</ele>
        <time>2026-05-12T11:53:20.000Z</time>
      </trkpt>
      <trkpt lat="45.27021" lon="4.64901">
        <ele>411</ele>
        <time>2026-05-12T11:53:21.000Z</time>
      </trkpt>
      <trkpt lat="45.27015" lon="4.64905">
        <ele>410.39999389648</ele>
        <time>2026-05-12T11:53:22.000Z</time>
      </trkpt>
      <trkpt lat="45.2701" lon="4.64908">
        <ele>410</ele>
        <time>2026-05-12T11:53:23.000Z</time>
      </trkpt>
      <trkpt lat="45.27005" lon="4.64913">
        <ele>409.60000610352</ele>
        <time>2026-05-12T11:53:24.000Z</time>
      </trkpt>
      <trkpt lat="45.27001" lon="4.64918">
        <ele>409.20001220703</ele>
        <time>2026-05-12T11:53:25.000Z</time>
      </trkpt>
      <trkpt lat="45.26996" lon="4.64922">
        <ele>409</ele>
        <time>2026-05-12T11:53:26.000Z</time>
      </trkpt>
      <trkpt lat="45.26992" lon="4.64927">
        <ele>409</ele>
        <time>2026-05-12T11:53:27.000Z</time>
      </trkpt>
      <trkpt lat="45.26989" lon="4.64931">
        <ele>408.79998779297</ele>
        <time>2026-05-12T11:53:28.000Z</time>
      </trkpt>
      <trkpt lat="45.26985" lon="4.64936">
        <ele>409</ele>
        <time>2026-05-12T11:53:29.000Z</time>
      </trkpt>
      <trkpt lat="45.26981" lon="4.6494">
        <ele>409</ele>
        <time>2026-05-12T11:53:30.000Z</time>
      </trkpt>
      <trkpt lat="45.26977" lon="4.64945">
        <ele>409</ele>
        <time>2026-05-12T11:53:31.000Z</time>
      </trkpt>
      <trkpt lat="45.26974" lon="4.6495">
        <ele>409</ele>
        <time>2026-05-12T11:53:32.000Z</time>
      </trkpt>
      <trkpt lat="45.26971" lon="4.64955">
        <ele>409.20001220703</ele>
        <time>2026-05-12T11:53:33.000Z</time>
      </trkpt>
      <trkpt lat="45.26967" lon="4.6496">
        <ele>409.20001220703</ele>
        <time>2026-05-12T11:53:34.000Z</time>
      </trkpt>
      <trkpt lat="45.26964" lon="4.64965">
        <ele>409.20001220703</ele>
        <time>2026-05-12T11:53:35.000Z</time>
      </trkpt>
      <trkpt lat="45.26961" lon="4.6497">
        <ele>409.39999389648</ele>
        <time>2026-05-12T11:53:36.000Z</time>
      </trkpt>
      <trkpt lat="45.26958" lon="4.64975">
        <ele>409.39999389648</ele>
        <time>2026-05-12T11:53:37.000Z</time>
      </trkpt>
      <trkpt lat="45.26955" lon="4.6498">
        <ele>409.39999389648</ele>
        <time>2026-05-12T11:53:38.000Z</time>
      </trkpt>
      <trkpt lat="45.2695" lon="4.64985">
        <ele>409.39999389648</ele>
        <time>2026-05-12T11:53:39.000Z</time>
      </trkpt>
      <trkpt lat="45.26947" lon="4.64989">
        <ele>409.39999389648</ele>
        <time>2026-05-12T11:53:40.000Z</time>
      </trkpt>
      <trkpt lat="45.26944" lon="4.64995">
        <ele>409.39999389648</ele>
        <time>2026-05-12T11:53:41.000Z</time>
      </trkpt>
      <trkpt lat="45.26941" lon="4.65">
        <ele>409.39999389648</ele>
        <time>2026-05-12T11:53:42.000Z</time>
      </trkpt>
      <trkpt lat="45.26938" lon="4.65006">
        <ele>409.20001220703</ele>
        <time>2026-05-12T11:53:43.000Z</time>
      </trkpt>
      <trkpt lat="45.26936" lon="4.65013">
        <ele>409.20001220703</ele>
        <time>2026-05-12T11:53:44.000Z</time>
      </trkpt>
      <trkpt lat="45.26933" lon="4.65019">
        <ele>409.20001220703</ele>
        <time>2026-05-12T11:53:45.000Z</time>
      </trkpt>
      <trkpt lat="45.2693" lon="4.65025">
        <ele>409.20001220703</ele>
        <time>2026-05-12T11:53:46.000Z</time>
      </trkpt>
      <trkpt lat="45.26928" lon="4.65031">
        <ele>409.39999389648</ele>
        <time>2026-05-12T11:53:47.000Z</time>
      </trkpt>
      <trkpt lat="45.26926" lon="4.65037">
        <ele>409.39999389648</ele>
        <time>2026-05-12T11:53:48.000Z</time>
      </trkpt>
      <trkpt lat="45.26923" lon="4.65042">
        <ele>409.39999389648</ele>
        <time>2026-05-12T11:53:49.000Z</time>
      </trkpt>
      <trkpt lat="45.26921" lon="4.65048">
        <ele>409.60000610352</ele>
        <time>2026-05-12T11:53:50.000Z</time>
      </trkpt>
      <trkpt lat="45.26919" lon="4.65053">
        <ele>409.60000610352</ele>
        <time>2026-05-12T11:53:51.000Z</time>
      </trkpt>
      <trkpt lat="45.26918" lon="4.65059">
        <ele>409.60000610352</ele>
        <time>2026-05-12T11:53:52.000Z</time>
      </trkpt>
      <trkpt lat="45.26916" lon="4.65064">
        <ele>409.60000610352</ele>
        <time>2026-05-12T11:53:53.000Z</time>
      </trkpt>
      <trkpt lat="45.26913" lon="4.65069">
        <ele>409.60000610352</ele>
        <time>2026-05-12T11:53:54.000Z</time>
      </trkpt>
      <trkpt lat="45.26911" lon="4.65074">
        <ele>409.60000610352</ele>
        <time>2026-05-12T11:53:55.000Z</time>
      </trkpt>
      <trkpt lat="45.26909" lon="4.65079">
        <ele>409.60000610352</ele>
        <time>2026-05-12T11:53:56.000Z</time>
      </trkpt>
      <trkpt lat="45.26907" lon="4.65084">
        <ele>409.39999389648</ele>
        <time>2026-05-12T11:53:57.000Z</time>
      </trkpt>
      <trkpt lat="45.26905" lon="4.65089">
        <ele>409.20001220703</ele>
        <time>2026-05-12T11:53:58.000Z</time>
      </trkpt>
      <trkpt lat="45.26903" lon="4.65095">
        <ele>409</ele>
        <time>2026-05-12T11:53:59.000Z</time>
      </trkpt>
      <trkpt lat="45.26901" lon="4.65101">
        <ele>408.79998779297</ele>
        <time>2026-05-12T11:54:00.000Z</time>
      </trkpt>
      <trkpt lat="45.269" lon="4.65107">
        <ele>408.60000610352</ele>
        <time>2026-05-12T11:54:01.000Z</time>
      </trkpt>
      <trkpt lat="45.26898" lon="4.65113">
        <ele>408.39999389648</ele>
        <time>2026-05-12T11:54:02.000Z</time>
      </trkpt>
      <trkpt lat="45.26896" lon="4.65119">
        <ele>408.20001220703</ele>
        <time>2026-05-12T11:54:03.000Z</time>
      </trkpt>
      <trkpt lat="45.26894" lon="4.65126">
        <ele>408</ele>
        <time>2026-05-12T11:54:04.000Z</time>
      </trkpt>
      <trkpt lat="45.26892" lon="4.65133">
        <ele>407.60000610352</ele>
        <time>2026-05-12T11:54:05.000Z</time>
      </trkpt>
      <trkpt lat="45.2689" lon="4.65139">
        <ele>407.39999389648</ele>
        <time>2026-05-12T11:54:06.000Z</time>
      </trkpt>
      <trkpt lat="45.26889" lon="4.65146">
        <ele>407.20001220703</ele>
        <time>2026-05-12T11:54:07.000Z</time>
      </trkpt>
      <trkpt lat="45.26887" lon="4.65153">
        <ele>407</ele>
        <time>2026-05-12T11:54:08.000Z</time>
      </trkpt>
      <trkpt lat="45.26886" lon="4.65161">
        <ele>406.79998779297</ele>
        <time>2026-05-12T11:54:09.000Z</time>
      </trkpt>
      <trkpt lat="45.26884" lon="4.65168">
        <ele>406.60000610352</ele>
        <time>2026-05-12T11:54:10.000Z</time>
      </trkpt>
      <trkpt lat="45.26883" lon="4.65176">
        <ele>406.39999389648</ele>
        <time>2026-05-12T11:54:11.000Z</time>
      </trkpt>
      <trkpt lat="45.26881" lon="4.65184">
        <ele>406</ele>
        <time>2026-05-12T11:54:12.000Z</time>
      </trkpt>
      <trkpt lat="45.2688" lon="4.65192">
        <ele>405.79998779297</ele>
        <time>2026-05-12T11:54:13.000Z</time>
      </trkpt>
      <trkpt lat="45.26879" lon="4.65201">
        <ele>405.39999389648</ele>
        <time>2026-05-12T11:54:14.000Z</time>
      </trkpt>
      <trkpt lat="45.26878" lon="4.65209">
        <ele>405.20001220703</ele>
        <time>2026-05-12T11:54:15.000Z</time>
      </trkpt>
      <trkpt lat="45.26877" lon="4.65218">
        <ele>404.79998779297</ele>
        <time>2026-05-12T11:54:16.000Z</time>
      </trkpt>
      <trkpt lat="45.26877" lon="4.65226">
        <ele>404.60000610352</ele>
        <time>2026-05-12T11:54:17.000Z</time>
      </trkpt>
      <trkpt lat="45.26878" lon="4.65234">
        <ele>404.39999389648</ele>
        <time>2026-05-12T11:54:18.000Z</time>
      </trkpt>
      <trkpt lat="45.26878" lon="4.65241">
        <ele>404.39999389648</ele>
        <time>2026-05-12T11:54:19.000Z</time>
      </trkpt>
      <trkpt lat="45.2688" lon="4.65247">
        <ele>404.39999389648</ele>
        <time>2026-05-12T11:54:20.000Z</time>
      </trkpt>
      <trkpt lat="45.26882" lon="4.65253">
        <ele>404.39999389648</ele>
        <time>2026-05-12T11:54:21.000Z</time>
      </trkpt>
      <trkpt lat="45.26885" lon="4.65258">
        <ele>404.39999389648</ele>
        <time>2026-05-12T11:54:22.000Z</time>
      </trkpt>
      <trkpt lat="45.26887" lon="4.65262">
        <ele>404.60000610352</ele>
        <time>2026-05-12T11:54:23.000Z</time>
      </trkpt>
      <trkpt lat="45.26888" lon="4.65266">
        <ele>404.60000610352</ele>
        <time>2026-05-12T11:54:24.000Z</time>
      </trkpt>
      <trkpt lat="45.26889" lon="4.65268">
        <ele>404.60000610352</ele>
        <time>2026-05-12T11:54:25.000Z</time>
      </trkpt>
      <trkpt lat="45.26891" lon="4.65271">
        <ele>404.60000610352</ele>
        <time>2026-05-12T11:54:26.000Z</time>
      </trkpt>
      <trkpt lat="45.26906" lon="4.65319">
        <ele>404.39999389648</ele>
        <time>2026-05-12T11:54:36.000Z</time>
      </trkpt>
      <trkpt lat="45.26908" lon="4.65322">
        <ele>404.39999389648</ele>
        <time>2026-05-12T11:54:37.000Z</time>
      </trkpt>
      <trkpt lat="45.26907" lon="4.65327">
        <ele>404.39999389648</ele>
        <time>2026-05-12T11:54:38.000Z</time>
      </trkpt>
      <trkpt lat="45.26906" lon="4.65332">
        <ele>404.60000610352</ele>
        <time>2026-05-12T11:54:39.000Z</time>
      </trkpt>
      <trkpt lat="45.26906" lon="4.65337">
        <ele>404.79998779297</ele>
        <time>2026-05-12T11:54:40.000Z</time>
      </trkpt>
      <trkpt lat="45.26906" lon="4.65343">
        <ele>405</ele>
        <time>2026-05-12T11:54:41.000Z</time>
      </trkpt>
      <trkpt lat="45.26906" lon="4.65349">
        <ele>405.20001220703</ele>
        <time>2026-05-12T11:54:42.000Z</time>
      </trkpt>
      <trkpt lat="45.26906" lon="4.65354">
        <ele>405.39999389648</ele>
        <time>2026-05-12T11:54:43.000Z</time>
      </trkpt>
      <trkpt lat="45.26906" lon="4.65359">
        <ele>405.79998779297</ele>
        <time>2026-05-12T11:54:44.000Z</time>
      </trkpt>
      <trkpt lat="45.26906" lon="4.65364">
        <ele>406</ele>
        <time>2026-05-12T11:54:45.000Z</time>
      </trkpt>
      <trkpt lat="45.26906" lon="4.65369">
        <ele>406.20001220703</ele>
        <time>2026-05-12T11:54:46.000Z</time>
      </trkpt>
      <trkpt lat="45.26906" lon="4.65375">
        <ele>406.39999389648</ele>
        <time>2026-05-12T11:54:47.000Z</time>
      </trkpt>
      <trkpt lat="45.26906" lon="4.6538">
        <ele>406.79998779297</ele>
        <time>2026-05-12T11:54:48.000Z</time>
      </trkpt>
      <trkpt lat="45.26906" lon="4.65386">
        <ele>407</ele>
        <time>2026-05-12T11:54:49.000Z</time>
      </trkpt>
      <trkpt lat="45.26906" lon="4.65392">
        <ele>407.20001220703</ele>
        <time>2026-05-12T11:54:50.000Z</time>
      </trkpt>
      <trkpt lat="45.26907" lon="4.65397">
        <ele>407.39999389648</ele>
        <time>2026-05-12T11:54:51.000Z</time>
      </trkpt>
      <trkpt lat="45.26907" lon="4.65403">
        <ele>407.60000610352</ele>
        <time>2026-05-12T11:54:52.000Z</time>
      </trkpt>
      <trkpt lat="45.26907" lon="4.65408">
        <ele>407.79998779297</ele>
        <time>2026-05-12T11:54:53.000Z</time>
      </trkpt>
      <trkpt lat="45.26907" lon="4.65413">
        <ele>408</ele>
        <time>2026-05-12T11:54:54.000Z</time>
      </trkpt>
      <trkpt lat="45.26907" lon="4.65418">
        <ele>408.20001220703</ele>
        <time>2026-05-12T11:54:55.000Z</time>
      </trkpt>
      <trkpt lat="45.26908" lon="4.65423">
        <ele>408.39999389648</ele>
        <time>2026-05-12T11:54:56.000Z</time>
      </trkpt>
      <trkpt lat="45.26908" lon="4.65428">
        <ele>408.79998779297</ele>
        <time>2026-05-12T11:54:57.000Z</time>
      </trkpt>
      <trkpt lat="45.26908" lon="4.65433">
        <ele>409</ele>
        <time>2026-05-12T11:54:58.000Z</time>
      </trkpt>
      <trkpt lat="45.26908" lon="4.65438">
        <ele>409.20001220703</ele>
        <time>2026-05-12T11:54:59.000Z</time>
      </trkpt>
      <trkpt lat="45.26909" lon="4.65443">
        <ele>409.39999389648</ele>
        <time>2026-05-12T11:55:00.000Z</time>
      </trkpt>
      <trkpt lat="45.26909" lon="4.65447">
        <ele>409.79998779297</ele>
        <time>2026-05-12T11:55:01.000Z</time>
      </trkpt>
      <trkpt lat="45.26909" lon="4.65452">
        <ele>410</ele>
        <time>2026-05-12T11:55:02.000Z</time>
      </trkpt>
      <trkpt lat="45.26909" lon="4.65456">
        <ele>410.20001220703</ele>
        <time>2026-05-12T11:55:03.000Z</time>
      </trkpt>
      <trkpt lat="45.26909" lon="4.65461">
        <ele>410.39999389648</ele>
        <time>2026-05-12T11:55:04.000Z</time>
      </trkpt>
      <trkpt lat="45.26909" lon="4.65465">
        <ele>410.60000610352</ele>
        <time>2026-05-12T11:55:05.000Z</time>
      </trkpt>
      <trkpt lat="45.26909" lon="4.6547">
        <ele>411</ele>
        <time>2026-05-12T11:55:06.000Z</time>
      </trkpt>
      <trkpt lat="45.26909" lon="4.65475">
        <ele>411</ele>
        <time>2026-05-12T11:55:07.000Z</time>
      </trkpt>
      <trkpt lat="45.26909" lon="4.65479">
        <ele>411.20001220703</ele>
        <time>2026-05-12T11:55:08.000Z</time>
      </trkpt>
      <trkpt lat="45.26909" lon="4.65484">
        <ele>411.39999389648</ele>
        <time>2026-05-12T11:55:09.000Z</time>
      </trkpt>
      <trkpt lat="45.26908" lon="4.65489">
        <ele>411.60000610352</ele>
        <time>2026-05-12T11:55:10.000Z</time>
      </trkpt>
      <trkpt lat="45.26908" lon="4.65494">
        <ele>411.79998779297</ele>
        <time>2026-05-12T11:55:11.000Z</time>
      </trkpt>
      <trkpt lat="45.26908" lon="4.65499">
        <ele>412</ele>
        <time>2026-05-12T11:55:12.000Z</time>
      </trkpt>
      <trkpt lat="45.26908" lon="4.65504">
        <ele>412.39999389648</ele>
        <time>2026-05-12T11:55:13.000Z</time>
      </trkpt>
      <trkpt lat="45.26908" lon="4.6551">
        <ele>412.60000610352</ele>
        <time>2026-05-12T11:55:14.000Z</time>
      </trkpt>
      <trkpt lat="45.26908" lon="4.65515">
        <ele>412.79998779297</ele>
        <time>2026-05-12T11:55:15.000Z</time>
      </trkpt>
      <trkpt lat="45.26908" lon="4.6552">
        <ele>413</ele>
        <time>2026-05-12T11:55:16.000Z</time>
      </trkpt>
      <trkpt lat="45.26909" lon="4.65524">
        <ele>413.20001220703</ele>
        <time>2026-05-12T11:55:17.000Z</time>
      </trkpt>
      <trkpt lat="45.26909" lon="4.65529">
        <ele>413.39999389648</ele>
        <time>2026-05-12T11:55:18.000Z</time>
      </trkpt>
      <trkpt lat="45.26908" lon="4.65533">
        <ele>413.60000610352</ele>
        <time>2026-05-12T11:55:19.000Z</time>
      </trkpt>
      <trkpt lat="45.26908" lon="4.65537">
        <ele>413.60000610352</ele>
        <time>2026-05-12T11:55:20.000Z</time>
      </trkpt>
      <trkpt lat="45.26908" lon="4.65539">
        <ele>413.79998779297</ele>
        <time>2026-05-12T11:55:21.000Z</time>
      </trkpt>
      <trkpt lat="45.26909" lon="4.65544">
        <ele>413.79998779297</ele>
        <time>2026-05-12T11:55:22.000Z</time>
      </trkpt>
      <trkpt lat="45.2691" lon="4.65547">
        <ele>414</ele>
        <time>2026-05-12T11:55:23.000Z</time>
      </trkpt>
      <trkpt lat="45.26911" lon="4.6555">
        <ele>414</ele>
        <time>2026-05-12T11:55:24.000Z</time>
      </trkpt>
      <trkpt lat="45.26911" lon="4.65552">
        <ele>414.20001220703</ele>
        <time>2026-05-12T11:55:25.000Z</time>
      </trkpt>
      <trkpt lat="45.26911" lon="4.65554">
        <ele>414.39999389648</ele>
        <time>2026-05-12T11:55:26.000Z</time>
      </trkpt>
      <trkpt lat="45.26911" lon="4.65557">
        <ele>414.39999389648</ele>
        <time>2026-05-12T11:55:27.000Z</time>
      </trkpt>
      <trkpt lat="45.26912" lon="4.65559">
        <ele>414.39999389648</ele>
        <time>2026-05-12T11:55:28.000Z</time>
      </trkpt>
      <trkpt lat="45.26912" lon="4.65562">
        <ele>414.39999389648</ele>
        <time>2026-05-12T11:55:29.000Z</time>
      </trkpt>
      <trkpt lat="45.26912" lon="4.65565">
        <ele>414.39999389648</ele>
        <time>2026-05-12T11:55:30.000Z</time>
      </trkpt>
      <trkpt lat="45.26912" lon="4.65569">
        <ele>414.60000610352</ele>
        <time>2026-05-12T11:55:31.000Z</time>
      </trkpt>
      <trkpt lat="45.26913" lon="4.65574">
        <ele>414.60000610352</ele>
        <time>2026-05-12T11:55:32.000Z</time>
      </trkpt>
      <trkpt lat="45.26914" lon="4.65578">
        <ele>414.60000610352</ele>
        <time>2026-05-12T11:55:33.000Z</time>
      </trkpt>
      <trkpt lat="45.26915" lon="4.65583">
        <ele>414.60000610352</ele>
        <time>2026-05-12T11:55:34.000Z</time>
      </trkpt>
      <trkpt lat="45.26915" lon="4.65588">
        <ele>414.60000610352</ele>
        <time>2026-05-12T11:55:35.000Z</time>
      </trkpt>
      <trkpt lat="45.26916" lon="4.65593">
        <ele>414.60000610352</ele>
        <time>2026-05-12T11:55:36.000Z</time>
      </trkpt>
      <trkpt lat="45.26917" lon="4.65598">
        <ele>414.60000610352</ele>
        <time>2026-05-12T11:55:37.000Z</time>
      </trkpt>
      <trkpt lat="45.26918" lon="4.65603">
        <ele>414.60000610352</ele>
        <time>2026-05-12T11:55:38.000Z</time>
      </trkpt>
      <trkpt lat="45.26919" lon="4.65608">
        <ele>414.60000610352</ele>
        <time>2026-05-12T11:55:39.000Z</time>
      </trkpt>
      <trkpt lat="45.2692" lon="4.65613">
        <ele>414.79998779297</ele>
        <time>2026-05-12T11:55:40.000Z</time>
      </trkpt>
      <trkpt lat="45.26921" lon="4.65618">
        <ele>414.79998779297</ele>
        <time>2026-05-12T11:55:41.000Z</time>
      </trkpt>
      <trkpt lat="45.26922" lon="4.65622">
        <ele>414.79998779297</ele>
        <time>2026-05-12T11:55:42.000Z</time>
      </trkpt>
      <trkpt lat="45.26923" lon="4.65627">
        <ele>414.79998779297</ele>
        <time>2026-05-12T11:55:43.000Z</time>
      </trkpt>
      <trkpt lat="45.26924" lon="4.65632">
        <ele>414.79998779297</ele>
        <time>2026-05-12T11:55:44.000Z</time>
      </trkpt>
      <trkpt lat="45.26925" lon="4.65637">
        <ele>415</ele>
        <time>2026-05-12T11:55:45.000Z</time>
      </trkpt>
      <trkpt lat="45.26926" lon="4.65643">
        <ele>415</ele>
        <time>2026-05-12T11:55:46.000Z</time>
      </trkpt>
      <trkpt lat="45.26927" lon="4.65648">
        <ele>415</ele>
        <time>2026-05-12T11:55:47.000Z</time>
      </trkpt>
      <trkpt lat="45.26929" lon="4.65653">
        <ele>415.20001220703</ele>
        <time>2026-05-12T11:55:48.000Z</time>
      </trkpt>
      <trkpt lat="45.2693" lon="4.65658">
        <ele>415.20001220703</ele>
        <time>2026-05-12T11:55:49.000Z</time>
      </trkpt>
      <trkpt lat="45.26931" lon="4.65663">
        <ele>415.20001220703</ele>
        <time>2026-05-12T11:55:50.000Z</time>
      </trkpt>
      <trkpt lat="45.26933" lon="4.65669">
        <ele>415.20001220703</ele>
        <time>2026-05-12T11:55:51.000Z</time>
      </trkpt>
      <trkpt lat="45.26934" lon="4.65674">
        <ele>415.20001220703</ele>
        <time>2026-05-12T11:55:52.000Z</time>
      </trkpt>
      <trkpt lat="45.26935" lon="4.6568">
        <ele>415.20001220703</ele>
        <time>2026-05-12T11:55:53.000Z</time>
      </trkpt>
      <trkpt lat="45.26935" lon="4.65685">
        <ele>415.20001220703</ele>
        <time>2026-05-12T11:55:54.000Z</time>
      </trkpt>
      <trkpt lat="45.26937" lon="4.65691">
        <ele>415.20001220703</ele>
        <time>2026-05-12T11:55:55.000Z</time>
      </trkpt>
      <trkpt lat="45.26938" lon="4.65696">
        <ele>415.20001220703</ele>
        <time>2026-05-12T11:55:56.000Z</time>
      </trkpt>
      <trkpt lat="45.2694" lon="4.65702">
        <ele>415.20001220703</ele>
        <time>2026-05-12T11:55:57.000Z</time>
      </trkpt>
      <trkpt lat="45.26941" lon="4.65707">
        <ele>415.20001220703</ele>
        <time>2026-05-12T11:55:58.000Z</time>
      </trkpt>
      <trkpt lat="45.26943" lon="4.65713">
        <ele>415.20001220703</ele>
        <time>2026-05-12T11:55:59.000Z</time>
      </trkpt>
      <trkpt lat="45.26944" lon="4.65719">
        <ele>415.20001220703</ele>
        <time>2026-05-12T11:56:00.000Z</time>
      </trkpt>
      <trkpt lat="45.26946" lon="4.65725">
        <ele>415.39999389648</ele>
        <time>2026-05-12T11:56:01.000Z</time>
      </trkpt>
      <trkpt lat="45.26947" lon="4.65731">
        <ele>415.39999389648</ele>
        <time>2026-05-12T11:56:02.000Z</time>
      </trkpt>
      <trkpt lat="45.26949" lon="4.65737">
        <ele>415.39999389648</ele>
        <time>2026-05-12T11:56:03.000Z</time>
      </trkpt>
      <trkpt lat="45.2695" lon="4.65743">
        <ele>415.60000610352</ele>
        <time>2026-05-12T11:56:04.000Z</time>
      </trkpt>
      <trkpt lat="45.26951" lon="4.65748">
        <ele>415.79998779297</ele>
        <time>2026-05-12T11:56:05.000Z</time>
      </trkpt>
      <trkpt lat="45.26952" lon="4.65753">
        <ele>415.79998779297</ele>
        <time>2026-05-12T11:56:06.000Z</time>
      </trkpt>
      <trkpt lat="45.26953" lon="4.65758">
        <ele>416</ele>
        <time>2026-05-12T11:56:07.000Z</time>
      </trkpt>
      <trkpt lat="45.26953" lon="4.65763">
        <ele>416</ele>
        <time>2026-05-12T11:56:08.000Z</time>
      </trkpt>
      <trkpt lat="45.26954" lon="4.65767">
        <ele>416.20001220703</ele>
        <time>2026-05-12T11:56:09.000Z</time>
      </trkpt>
      <trkpt lat="45.26955" lon="4.65771">
        <ele>416.20001220703</ele>
        <time>2026-05-12T11:56:10.000Z</time>
      </trkpt>
      <trkpt lat="45.26956" lon="4.65775">
        <ele>416.20001220703</ele>
        <time>2026-05-12T11:56:11.000Z</time>
      </trkpt>
      <trkpt lat="45.26957" lon="4.65779">
        <ele>416.39999389648</ele>
        <time>2026-05-12T11:56:12.000Z</time>
      </trkpt>
      <trkpt lat="45.26958" lon="4.65782">
        <ele>416.39999389648</ele>
        <time>2026-05-12T11:56:13.000Z</time>
      </trkpt>
      <trkpt lat="45.26958" lon="4.65786">
        <ele>416.39999389648</ele>
        <time>2026-05-12T11:56:14.000Z</time>
      </trkpt>
      <trkpt lat="45.26959" lon="4.6579">
        <ele>416.39999389648</ele>
        <time>2026-05-12T11:56:15.000Z</time>
      </trkpt>
      <trkpt lat="45.26959" lon="4.65795">
        <ele>416.39999389648</ele>
        <time>2026-05-12T11:56:16.000Z</time>
      </trkpt>
      <trkpt lat="45.2696" lon="4.658">
        <ele>416.39999389648</ele>
        <time>2026-05-12T11:56:17.000Z</time>
      </trkpt>
      <trkpt lat="45.26961" lon="4.65805">
        <ele>416.39999389648</ele>
        <time>2026-05-12T11:56:18.000Z</time>
      </trkpt>
      <trkpt lat="45.26961" lon="4.6581">
        <ele>416.39999389648</ele>
        <time>2026-05-12T11:56:19.000Z</time>
      </trkpt>
      <trkpt lat="45.26962" lon="4.65816">
        <ele>416.39999389648</ele>
        <time>2026-05-12T11:56:20.000Z</time>
      </trkpt>
      <trkpt lat="45.26963" lon="4.65822">
        <ele>416.20001220703</ele>
        <time>2026-05-12T11:56:21.000Z</time>
      </trkpt>
      <trkpt lat="45.26963" lon="4.65828">
        <ele>416.20001220703</ele>
        <time>2026-05-12T11:56:22.000Z</time>
      </trkpt>
      <trkpt lat="45.26964" lon="4.65833">
        <ele>416</ele>
        <time>2026-05-12T11:56:23.000Z</time>
      </trkpt>
      <trkpt lat="45.26964" lon="4.65839">
        <ele>416</ele>
        <time>2026-05-12T11:56:24.000Z</time>
      </trkpt>
      <trkpt lat="45.26964" lon="4.65844">
        <ele>416</ele>
        <time>2026-05-12T11:56:25.000Z</time>
      </trkpt>
      <trkpt lat="45.26965" lon="4.65849">
        <ele>416</ele>
        <time>2026-05-12T11:56:26.000Z</time>
      </trkpt>
      <trkpt lat="45.26965" lon="4.65853">
        <ele>416</ele>
        <time>2026-05-12T11:56:27.000Z</time>
      </trkpt>
      <trkpt lat="45.26966" lon="4.65858">
        <ele>416</ele>
        <time>2026-05-12T11:56:28.000Z</time>
      </trkpt>
      <trkpt lat="45.26966" lon="4.65863">
        <ele>416</ele>
        <time>2026-05-12T11:56:29.000Z</time>
      </trkpt>
      <trkpt lat="45.26966" lon="4.65867">
        <ele>416</ele>
        <time>2026-05-12T11:56:30.000Z</time>
      </trkpt>
      <trkpt lat="45.26966" lon="4.65871">
        <ele>416</ele>
        <time>2026-05-12T11:56:31.000Z</time>
      </trkpt>
      <trkpt lat="45.26967" lon="4.65875">
        <ele>416.20001220703</ele>
        <time>2026-05-12T11:56:32.000Z</time>
      </trkpt>
      <trkpt lat="45.26967" lon="4.65878">
        <ele>416.20001220703</ele>
        <time>2026-05-12T11:56:33.000Z</time>
      </trkpt>
      <trkpt lat="45.26966" lon="4.65882">
        <ele>416.39999389648</ele>
        <time>2026-05-12T11:56:34.000Z</time>
      </trkpt>
      <trkpt lat="45.26966" lon="4.65887">
        <ele>416.39999389648</ele>
        <time>2026-05-12T11:56:35.000Z</time>
      </trkpt>
      <trkpt lat="45.26965" lon="4.65891">
        <ele>416.39999389648</ele>
        <time>2026-05-12T11:56:36.000Z</time>
      </trkpt>
      <trkpt lat="45.26964" lon="4.65895">
        <ele>416.39999389648</ele>
        <time>2026-05-12T11:56:37.000Z</time>
      </trkpt>
      <trkpt lat="45.26963" lon="4.659">
        <ele>416.39999389648</ele>
        <time>2026-05-12T11:56:38.000Z</time>
      </trkpt>
      <trkpt lat="45.26962" lon="4.65905">
        <ele>416.20001220703</ele>
        <time>2026-05-12T11:56:39.000Z</time>
      </trkpt>
      <trkpt lat="45.26961" lon="4.6591">
        <ele>416.20001220703</ele>
        <time>2026-05-12T11:56:40.000Z</time>
      </trkpt>
      <trkpt lat="45.2696" lon="4.65914">
        <ele>416.20001220703</ele>
        <time>2026-05-12T11:56:41.000Z</time>
      </trkpt>
      <trkpt lat="45.26959" lon="4.65918">
        <ele>416.20001220703</ele>
        <time>2026-05-12T11:56:42.000Z</time>
      </trkpt>
      <trkpt lat="45.26958" lon="4.65923">
        <ele>416.20001220703</ele>
        <time>2026-05-12T11:56:43.000Z</time>
      </trkpt>
      <trkpt lat="45.26957" lon="4.65927">
        <ele>416</ele>
        <time>2026-05-12T11:56:44.000Z</time>
      </trkpt>
      <trkpt lat="45.26956" lon="4.65932">
        <ele>416</ele>
        <time>2026-05-12T11:56:45.000Z</time>
      </trkpt>
      <trkpt lat="45.26956" lon="4.65936">
        <ele>416</ele>
        <time>2026-05-12T11:56:46.000Z</time>
      </trkpt>
      <trkpt lat="45.26956" lon="4.65941">
        <ele>416</ele>
        <time>2026-05-12T11:56:47.000Z</time>
      </trkpt>
      <trkpt lat="45.26955" lon="4.65945">
        <ele>415.79998779297</ele>
        <time>2026-05-12T11:56:48.000Z</time>
      </trkpt>
      <trkpt lat="45.26955" lon="4.6595">
        <ele>415.79998779297</ele>
        <time>2026-05-12T11:56:49.000Z</time>
      </trkpt>
      <trkpt lat="45.26955" lon="4.65954">
        <ele>415.79998779297</ele>
        <time>2026-05-12T11:56:50.000Z</time>
      </trkpt>
      <trkpt lat="45.26954" lon="4.65958">
        <ele>415.79998779297</ele>
        <time>2026-05-12T11:56:51.000Z</time>
      </trkpt>
      <trkpt lat="45.26953" lon="4.65962">
        <ele>415.79998779297</ele>
        <time>2026-05-12T11:56:52.000Z</time>
      </trkpt>
      <trkpt lat="45.26952" lon="4.65966">
        <ele>415.60000610352</ele>
        <time>2026-05-12T11:56:53.000Z</time>
      </trkpt>
      <trkpt lat="45.26951" lon="4.6597">
        <ele>415.60000610352</ele>
        <time>2026-05-12T11:56:54.000Z</time>
      </trkpt>
      <trkpt lat="45.2695" lon="4.65973">
        <ele>415.39999389648</ele>
        <time>2026-05-12T11:56:55.000Z</time>
      </trkpt>
      <trkpt lat="45.26949" lon="4.65977">
        <ele>415.39999389648</ele>
        <time>2026-05-12T11:56:56.000Z</time>
      </trkpt>
      <trkpt lat="45.26949" lon="4.65981">
        <ele>415.20001220703</ele>
        <time>2026-05-12T11:56:57.000Z</time>
      </trkpt>
      <trkpt lat="45.26948" lon="4.65985">
        <ele>415.20001220703</ele>
        <time>2026-05-12T11:56:58.000Z</time>
      </trkpt>
      <trkpt lat="45.26947" lon="4.65989">
        <ele>415</ele>
        <time>2026-05-12T11:56:59.000Z</time>
      </trkpt>
      <trkpt lat="45.26946" lon="4.65993">
        <ele>414.79998779297</ele>
        <time>2026-05-12T11:57:00.000Z</time>
      </trkpt>
      <trkpt lat="45.26945" lon="4.65998">
        <ele>414.79998779297</ele>
        <time>2026-05-12T11:57:01.000Z</time>
      </trkpt>
      <trkpt lat="45.26945" lon="4.66002">
        <ele>414.60000610352</ele>
        <time>2026-05-12T11:57:02.000Z</time>
      </trkpt>
      <trkpt lat="45.26944" lon="4.66006">
        <ele>414.39999389648</ele>
        <time>2026-05-12T11:57:03.000Z</time>
      </trkpt>
      <trkpt lat="45.26944" lon="4.66011">
        <ele>414.39999389648</ele>
        <time>2026-05-12T11:57:04.000Z</time>
      </trkpt>
      <trkpt lat="45.26946" lon="4.66015">
        <ele>414.39999389648</ele>
        <time>2026-05-12T11:57:05.000Z</time>
      </trkpt>
      <trkpt lat="45.26948" lon="4.66019">
        <ele>414.39999389648</ele>
        <time>2026-05-12T11:57:06.000Z</time>
      </trkpt>
      <trkpt lat="45.2695" lon="4.66022">
        <ele>414.39999389648</ele>
        <time>2026-05-12T11:57:07.000Z</time>
      </trkpt>
      <trkpt lat="45.26953" lon="4.66025">
        <ele>414.39999389648</ele>
        <time>2026-05-12T11:57:08.000Z</time>
      </trkpt>
      <trkpt lat="45.26956" lon="4.66026">
        <ele>414.60000610352</ele>
        <time>2026-05-12T11:57:09.000Z</time>
      </trkpt>
      <trkpt lat="45.26959" lon="4.66027">
        <ele>414.79998779297</ele>
        <time>2026-05-12T11:57:10.000Z</time>
      </trkpt>
      <trkpt lat="45.2696" lon="4.66027">
        <ele>415.20001220703</ele>
        <time>2026-05-12T11:57:11.000Z</time>
      </trkpt>
      <trkpt lat="45.26961" lon="4.66027">
        <ele>415.60000610352</ele>
        <time>2026-05-12T11:57:12.000Z</time>
      </trkpt>
      <trkpt lat="45.26961" lon="4.66028">
        <ele>416</ele>
        <time>2026-05-12T11:57:13.000Z</time>
      </trkpt>
      <trkpt lat="45.26961" lon="4.66028">
        <ele>416.39999389648</ele>
        <time>2026-05-12T11:57:14.000Z</time>
      </trkpt>
      <trkpt lat="45.26964" lon="4.66026">
        <ele>416.60000610352</ele>
        <time>2026-05-12T11:58:30.000Z</time>
      </trkpt>
      <trkpt lat="45.26967" lon="4.66027">
        <ele>416.79998779297</ele>
        <time>2026-05-12T11:58:31.000Z</time>
      </trkpt>
      <trkpt lat="45.26969" lon="4.66028">
        <ele>417</ele>
        <time>2026-05-12T11:58:32.000Z</time>
      </trkpt>
      <trkpt lat="45.2697" lon="4.66029">
        <ele>417.20001220703</ele>
        <time>2026-05-12T11:58:33.000Z</time>
      </trkpt>
      <trkpt lat="45.26972" lon="4.66029">
        <ele>417.39999389648</ele>
        <time>2026-05-12T11:58:34.000Z</time>
      </trkpt>
      <trkpt lat="45.26974" lon="4.66029">
        <ele>417.60000610352</ele>
        <time>2026-05-12T11:58:35.000Z</time>
      </trkpt>
      <trkpt lat="45.26976" lon="4.66029">
        <ele>417.79998779297</ele>
        <time>2026-05-12T11:58:36.000Z</time>
      </trkpt>
      <trkpt lat="45.26978" lon="4.66029">
        <ele>418</ele>
        <time>2026-05-12T11:58:37.000Z</time>
      </trkpt>
      <trkpt lat="45.2698" lon="4.6603">
        <ele>418.20001220703</ele>
        <time>2026-05-12T11:58:38.000Z</time>
      </trkpt>
      <trkpt lat="45.26981" lon="4.6603">
        <ele>418.39999389648</ele>
        <time>2026-05-12T11:58:39.000Z</time>
      </trkpt>
      <trkpt lat="45.26983" lon="4.66031">
        <ele>418.60000610352</ele>
        <time>2026-05-12T11:58:40.000Z</time>
      </trkpt>
      <trkpt lat="45.26984" lon="4.66031">
        <ele>419</ele>
        <time>2026-05-12T11:58:41.000Z</time>
      </trkpt>
      <trkpt lat="45.26985" lon="4.66031">
        <ele>419.20001220703</ele>
        <time>2026-05-12T11:58:42.000Z</time>
      </trkpt>
      <trkpt lat="45.26986" lon="4.66031">
        <ele>419.20001220703</ele>
        <time>2026-05-12T11:58:43.000Z</time>
      </trkpt>
      <trkpt lat="45.26987" lon="4.66032">
        <ele>419.39999389648</ele>
        <time>2026-05-12T11:58:44.000Z</time>
      </trkpt>
      <trkpt lat="45.26989" lon="4.66032">
        <ele>419.60000610352</ele>
        <time>2026-05-12T11:58:45.000Z</time>
      </trkpt>
      <trkpt lat="45.2699" lon="4.66033">
        <ele>419.79998779297</ele>
        <time>2026-05-12T11:58:46.000Z</time>
      </trkpt>
      <trkpt lat="45.26991" lon="4.66032">
        <ele>420</ele>
        <time>2026-05-12T11:58:47.000Z</time>
      </trkpt>
      <trkpt lat="45.26992" lon="4.66032">
        <ele>420.20001220703</ele>
        <time>2026-05-12T11:58:48.000Z</time>
      </trkpt>
      <trkpt lat="45.26994" lon="4.6603">
        <ele>420.20001220703</ele>
        <time>2026-05-12T11:58:49.000Z</time>
      </trkpt>
      <trkpt lat="45.26994" lon="4.66028">
        <ele>420.39999389648</ele>
        <time>2026-05-12T11:58:50.000Z</time>
      </trkpt>
      <trkpt lat="45.26995" lon="4.66026">
        <ele>420.60000610352</ele>
        <time>2026-05-12T11:58:51.000Z</time>
      </trkpt>
      <trkpt lat="45.26995" lon="4.66023">
        <ele>420.79998779297</ele>
        <time>2026-05-12T11:58:52.000Z</time>
      </trkpt>
      <trkpt lat="45.26995" lon="4.6602">
        <ele>421</ele>
        <time>2026-05-12T11:58:53.000Z</time>
      </trkpt>
      <trkpt lat="45.26995" lon="4.66016">
        <ele>421.39999389648</ele>
        <time>2026-05-12T11:58:54.000Z</time>
      </trkpt>
      <trkpt lat="45.26995" lon="4.66013">
        <ele>421.60000610352</ele>
        <time>2026-05-12T11:58:55.000Z</time>
      </trkpt>
      <trkpt lat="45.26995" lon="4.6601">
        <ele>421.79998779297</ele>
        <time>2026-05-12T11:58:56.000Z</time>
      </trkpt>
      <trkpt lat="45.26995" lon="4.66007">
        <ele>422</ele>
        <time>2026-05-12T11:58:57.000Z</time>
      </trkpt>
      <trkpt lat="45.26995" lon="4.66005">
        <ele>422.20001220703</ele>
        <time>2026-05-12T11:58:58.000Z</time>
      </trkpt>
      <trkpt lat="45.26995" lon="4.66002">
        <ele>422.39999389648</ele>
        <time>2026-05-12T11:58:59.000Z</time>
      </trkpt>
      <trkpt lat="45.26995" lon="4.66">
        <ele>422.60000610352</ele>
        <time>2026-05-12T11:59:00.000Z</time>
      </trkpt>
      <trkpt lat="45.26995" lon="4.65997">
        <ele>423</ele>
        <time>2026-05-12T11:59:01.000Z</time>
      </trkpt>
      <trkpt lat="45.26995" lon="4.65995">
        <ele>423</ele>
        <time>2026-05-12T11:59:02.000Z</time>
      </trkpt>
      <trkpt lat="45.26994" lon="4.65993">
        <ele>423.20001220703</ele>
        <time>2026-05-12T11:59:03.000Z</time>
      </trkpt>
      <trkpt lat="45.26995" lon="4.65991">
        <ele>423.39999389648</ele>
        <time>2026-05-12T11:59:04.000Z</time>
      </trkpt>
      <trkpt lat="45.26995" lon="4.65989">
        <ele>423.60000610352</ele>
        <time>2026-05-12T11:59:05.000Z</time>
      </trkpt>
      <trkpt lat="45.26995" lon="4.65987">
        <ele>423.79998779297</ele>
        <time>2026-05-12T11:59:06.000Z</time>
      </trkpt>
      <trkpt lat="45.26995" lon="4.65984">
        <ele>423.79998779297</ele>
        <time>2026-05-12T11:59:07.000Z</time>
      </trkpt>
      <trkpt lat="45.26996" lon="4.65982">
        <ele>424</ele>
        <time>2026-05-12T11:59:08.000Z</time>
      </trkpt>
      <trkpt lat="45.26996" lon="4.6598">
        <ele>424.20001220703</ele>
        <time>2026-05-12T11:59:09.000Z</time>
      </trkpt>
      <trkpt lat="45.26996" lon="4.65978">
        <ele>424.20001220703</ele>
        <time>2026-05-12T11:59:10.000Z</time>
      </trkpt>
      <trkpt lat="45.26997" lon="4.65976">
        <ele>424.39999389648</ele>
        <time>2026-05-12T11:59:11.000Z</time>
      </trkpt>
      <trkpt lat="45.26998" lon="4.65974">
        <ele>424.60000610352</ele>
        <time>2026-05-12T11:59:12.000Z</time>
      </trkpt>
      <trkpt lat="45.26998" lon="4.65973">
        <ele>424.60000610352</ele>
        <time>2026-05-12T11:59:13.000Z</time>
      </trkpt>
      <trkpt lat="45.27" lon="4.65972">
        <ele>424.79998779297</ele>
        <time>2026-05-12T11:59:14.000Z</time>
      </trkpt>
      <trkpt lat="45.27001" lon="4.65971">
        <ele>425</ele>
        <time>2026-05-12T11:59:15.000Z</time>
      </trkpt>
      <trkpt lat="45.27003" lon="4.6597">
        <ele>425.20001220703</ele>
        <time>2026-05-12T11:59:16.000Z</time>
      </trkpt>
      <trkpt lat="45.27004" lon="4.65968">
        <ele>425.39999389648</ele>
        <time>2026-05-12T11:59:17.000Z</time>
      </trkpt>
      <trkpt lat="45.27004" lon="4.65966">
        <ele>425.60000610352</ele>
        <time>2026-05-12T11:59:18.000Z</time>
      </trkpt>
      <trkpt lat="45.27005" lon="4.65964">
        <ele>425.60000610352</ele>
        <time>2026-05-12T11:59:19.000Z</time>
      </trkpt>
      <trkpt lat="45.27005" lon="4.65962">
        <ele>425.79998779297</ele>
        <time>2026-05-12T11:59:20.000Z</time>
      </trkpt>
      <trkpt lat="45.27006" lon="4.6596">
        <ele>426</ele>
        <time>2026-05-12T11:59:21.000Z</time>
      </trkpt>
      <trkpt lat="45.27006" lon="4.65958">
        <ele>426</ele>
        <time>2026-05-12T11:59:22.000Z</time>
      </trkpt>
      <trkpt lat="45.27007" lon="4.65956">
        <ele>426.20001220703</ele>
        <time>2026-05-12T11:59:23.000Z</time>
      </trkpt>
      <trkpt lat="45.27008" lon="4.65954">
        <ele>426.39999389648</ele>
        <time>2026-05-12T11:59:24.000Z</time>
      </trkpt>
      <trkpt lat="45.27008" lon="4.65953">
        <ele>426.39999389648</ele>
        <time>2026-05-12T11:59:25.000Z</time>
      </trkpt>
      <trkpt lat="45.27009" lon="4.65951">
        <ele>426.60000610352</ele>
        <time>2026-05-12T11:59:26.000Z</time>
      </trkpt>
      <trkpt lat="45.2701" lon="4.65949">
        <ele>426.79998779297</ele>
        <time>2026-05-12T11:59:27.000Z</time>
      </trkpt>
      <trkpt lat="45.2701" lon="4.65947">
        <ele>426.79998779297</ele>
        <time>2026-05-12T11:59:28.000Z</time>
      </trkpt>
      <trkpt lat="45.2701" lon="4.65942">
        <ele>426.79998779297</ele>
        <time>2026-05-12T11:59:29.000Z</time>
      </trkpt>
      <trkpt lat="45.27009" lon="4.65938">
        <ele>427</ele>
        <time>2026-05-12T11:59:30.000Z</time>
      </trkpt>
      <trkpt lat="45.27009" lon="4.65934">
        <ele>427</ele>
        <time>2026-05-12T11:59:31.000Z</time>
      </trkpt>
      <trkpt lat="45.27008" lon="4.65931">
        <ele>427.20001220703</ele>
        <time>2026-05-12T11:59:32.000Z</time>
      </trkpt>
      <trkpt lat="45.27008" lon="4.65929">
        <ele>427.39999389648</ele>
        <time>2026-05-12T11:59:33.000Z</time>
      </trkpt>
      <trkpt lat="45.27008" lon="4.65927">
        <ele>427.60000610352</ele>
        <time>2026-05-12T11:59:34.000Z</time>
      </trkpt>
      <trkpt lat="45.27007" lon="4.65924">
        <ele>427.79998779297</ele>
        <time>2026-05-12T11:59:35.000Z</time>
      </trkpt>
      <trkpt lat="45.27007" lon="4.65922">
        <ele>428</ele>
        <time>2026-05-12T11:59:36.000Z</time>
      </trkpt>
      <trkpt lat="45.27006" lon="4.65919">
        <ele>428</ele>
        <time>2026-05-12T11:59:37.000Z</time>
      </trkpt>
      <trkpt lat="45.27006" lon="4.65917">
        <ele>428.20001220703</ele>
        <time>2026-05-12T11:59:38.000Z</time>
      </trkpt>
      <trkpt lat="45.27005" lon="4.65914">
        <ele>428.20001220703</ele>
        <time>2026-05-12T11:59:39.000Z</time>
      </trkpt>
      <trkpt lat="45.27006" lon="4.65911">
        <ele>428.20001220703</ele>
        <time>2026-05-12T11:59:40.000Z</time>
      </trkpt>
      <trkpt lat="45.27007" lon="4.65909">
        <ele>428.20001220703</ele>
        <time>2026-05-12T11:59:41.000Z</time>
      </trkpt>
      <trkpt lat="45.27008" lon="4.65908">
        <ele>428.39999389648</ele>
        <time>2026-05-12T11:59:42.000Z</time>
      </trkpt>
      <trkpt lat="45.2701" lon="4.65906">
        <ele>428.39999389648</ele>
        <time>2026-05-12T11:59:43.000Z</time>
      </trkpt>
      <trkpt lat="45.27011" lon="4.65905">
        <ele>428.60000610352</ele>
        <time>2026-05-12T11:59:44.000Z</time>
      </trkpt>
      <trkpt lat="45.27013" lon="4.65904">
        <ele>428.79998779297</ele>
        <time>2026-05-12T11:59:45.000Z</time>
      </trkpt>
      <trkpt lat="45.27015" lon="4.65903">
        <ele>429</ele>
        <time>2026-05-12T11:59:46.000Z</time>
      </trkpt>
      <trkpt lat="45.27017" lon="4.65902">
        <ele>429</ele>
        <time>2026-05-12T11:59:47.000Z</time>
      </trkpt>
      <trkpt lat="45.27019" lon="4.65901">
        <ele>429.20001220703</ele>
        <time>2026-05-12T11:59:48.000Z</time>
      </trkpt>
      <trkpt lat="45.27021" lon="4.65901">
        <ele>429.39999389648</ele>
        <time>2026-05-12T11:59:49.000Z</time>
      </trkpt>
      <trkpt lat="45.27023" lon="4.659">
        <ele>429.60000610352</ele>
        <time>2026-05-12T11:59:50.000Z</time>
      </trkpt>
      <trkpt lat="45.27025" lon="4.65899">
        <ele>429.79998779297</ele>
        <time>2026-05-12T11:59:51.000Z</time>
      </trkpt>
      <trkpt lat="45.27026" lon="4.65898">
        <ele>430</ele>
        <time>2026-05-12T11:59:52.000Z</time>
      </trkpt>
      <trkpt lat="45.27028" lon="4.65897">
        <ele>430.20001220703</ele>
        <time>2026-05-12T11:59:53.000Z</time>
      </trkpt>
      <trkpt lat="45.2703" lon="4.65897">
        <ele>430.39999389648</ele>
        <time>2026-05-12T11:59:54.000Z</time>
      </trkpt>
      <trkpt lat="45.27031" lon="4.65896">
        <ele>430.60000610352</ele>
        <time>2026-05-12T11:59:55.000Z</time>
      </trkpt>
      <trkpt lat="45.27033" lon="4.65895">
        <ele>430.79998779297</ele>
        <time>2026-05-12T11:59:56.000Z</time>
      </trkpt>
      <trkpt lat="45.27035" lon="4.65895">
        <ele>431</ele>
        <time>2026-05-12T11:59:57.000Z</time>
      </trkpt>
      <trkpt lat="45.27037" lon="4.65894">
        <ele>431.20001220703</ele>
        <time>2026-05-12T11:59:58.000Z</time>
      </trkpt>
      <trkpt lat="45.27038" lon="4.65893">
        <ele>431.39999389648</ele>
        <time>2026-05-12T11:59:59.000Z</time>
      </trkpt>
      <trkpt lat="45.2704" lon="4.65893">
        <ele>431.60000610352</ele>
        <time>2026-05-12T12:00:00.000Z</time>
      </trkpt>
      <trkpt lat="45.27042" lon="4.65892">
        <ele>431.79998779297</ele>
        <time>2026-05-12T12:00:01.000Z</time>
      </trkpt>
      <trkpt lat="45.27044" lon="4.65891">
        <ele>432</ele>
        <time>2026-05-12T12:00:02.000Z</time>
      </trkpt>
      <trkpt lat="45.27045" lon="4.65891">
        <ele>432.20001220703</ele>
        <time>2026-05-12T12:00:03.000Z</time>
      </trkpt>
      <trkpt lat="45.27047" lon="4.65891">
        <ele>432.39999389648</ele>
        <time>2026-05-12T12:00:04.000Z</time>
      </trkpt>
      <trkpt lat="45.27049" lon="4.6589">
        <ele>432.60000610352</ele>
        <time>2026-05-12T12:00:05.000Z</time>
      </trkpt>
      <trkpt lat="45.2705" lon="4.6589">
        <ele>432.79998779297</ele>
        <time>2026-05-12T12:00:06.000Z</time>
      </trkpt>
      <trkpt lat="45.27052" lon="4.65889">
        <ele>433</ele>
        <time>2026-05-12T12:00:07.000Z</time>
      </trkpt>
      <trkpt lat="45.27053" lon="4.65888">
        <ele>433.20001220703</ele>
        <time>2026-05-12T12:00:08.000Z</time>
      </trkpt>
      <trkpt lat="45.27055" lon="4.65887">
        <ele>433.39999389648</ele>
        <time>2026-05-12T12:00:09.000Z</time>
      </trkpt>
      <trkpt lat="45.27056" lon="4.65886">
        <ele>433.60000610352</ele>
        <time>2026-05-12T12:00:10.000Z</time>
      </trkpt>
      <trkpt lat="45.27058" lon="4.65885">
        <ele>433.79998779297</ele>
        <time>2026-05-12T12:00:11.000Z</time>
      </trkpt>
      <trkpt lat="45.27059" lon="4.65884">
        <ele>434</ele>
        <time>2026-05-12T12:00:12.000Z</time>
      </trkpt>
      <trkpt lat="45.27061" lon="4.65883">
        <ele>434.20001220703</ele>
        <time>2026-05-12T12:00:13.000Z</time>
      </trkpt>
      <trkpt lat="45.27062" lon="4.65882">
        <ele>434.39999389648</ele>
        <time>2026-05-12T12:00:14.000Z</time>
      </trkpt>
      <trkpt lat="45.27064" lon="4.65881">
        <ele>434.60000610352</ele>
        <time>2026-05-12T12:00:15.000Z</time>
      </trkpt>
      <trkpt lat="45.27066" lon="4.65879">
        <ele>434.79998779297</ele>
        <time>2026-05-12T12:00:16.000Z</time>
      </trkpt>
      <trkpt lat="45.27067" lon="4.65878">
        <ele>435</ele>
        <time>2026-05-12T12:00:17.000Z</time>
      </trkpt>
      <trkpt lat="45.27069" lon="4.65877">
        <ele>435.20001220703</ele>
        <time>2026-05-12T12:00:18.000Z</time>
      </trkpt>
      <trkpt lat="45.27071" lon="4.65876">
        <ele>435.60000610352</ele>
        <time>2026-05-12T12:00:19.000Z</time>
      </trkpt>
      <trkpt lat="45.27072" lon="4.65875">
        <ele>435.79998779297</ele>
        <time>2026-05-12T12:00:20.000Z</time>
      </trkpt>
      <trkpt lat="45.27074" lon="4.65874">
        <ele>436</ele>
        <time>2026-05-12T12:00:21.000Z</time>
      </trkpt>
      <trkpt lat="45.27075" lon="4.65873">
        <ele>436.20001220703</ele>
        <time>2026-05-12T12:00:22.000Z</time>
      </trkpt>
      <trkpt lat="45.27077" lon="4.65872">
        <ele>436.39999389648</ele>
        <time>2026-05-12T12:00:23.000Z</time>
      </trkpt>
      <trkpt lat="45.27079" lon="4.65871">
        <ele>436.60000610352</ele>
        <time>2026-05-12T12:00:24.000Z</time>
      </trkpt>
      <trkpt lat="45.2708" lon="4.65869">
        <ele>436.79998779297</ele>
        <time>2026-05-12T12:00:25.000Z</time>
      </trkpt>
      <trkpt lat="45.27082" lon="4.65868">
        <ele>436.79998779297</ele>
        <time>2026-05-12T12:00:26.000Z</time>
      </trkpt>
      <trkpt lat="45.27084" lon="4.65867">
        <ele>437</ele>
        <time>2026-05-12T12:00:27.000Z</time>
      </trkpt>
      <trkpt lat="45.27086" lon="4.65867">
        <ele>437</ele>
        <time>2026-05-12T12:00:28.000Z</time>
      </trkpt>
      <trkpt lat="45.27088" lon="4.65866">
        <ele>437.20001220703</ele>
        <time>2026-05-12T12:00:29.000Z</time>
      </trkpt>
      <trkpt lat="45.2709" lon="4.65865">
        <ele>437.39999389648</ele>
        <time>2026-05-12T12:00:30.000Z</time>
      </trkpt>
      <trkpt lat="45.27092" lon="4.65864">
        <ele>437.60000610352</ele>
        <time>2026-05-12T12:00:31.000Z</time>
      </trkpt>
      <trkpt lat="45.27094" lon="4.65863">
        <ele>437.79998779297</ele>
        <time>2026-05-12T12:00:32.000Z</time>
      </trkpt>
      <trkpt lat="45.27095" lon="4.65861">
        <ele>438</ele>
        <time>2026-05-12T12:00:33.000Z</time>
      </trkpt>
      <trkpt lat="45.27097" lon="4.6586">
        <ele>438.20001220703</ele>
        <time>2026-05-12T12:00:34.000Z</time>
      </trkpt>
      <trkpt lat="45.27099" lon="4.65859">
        <ele>438.20001220703</ele>
        <time>2026-05-12T12:00:35.000Z</time>
      </trkpt>
      <trkpt lat="45.271" lon="4.65858">
        <ele>438.39999389648</ele>
        <time>2026-05-12T12:00:36.000Z</time>
      </trkpt>
      <trkpt lat="45.27102" lon="4.65857">
        <ele>438.79998779297</ele>
        <time>2026-05-12T12:00:37.000Z</time>
      </trkpt>
      <trkpt lat="45.27104" lon="4.65856">
        <ele>439</ele>
        <time>2026-05-12T12:00:38.000Z</time>
      </trkpt>
      <trkpt lat="45.27105" lon="4.65854">
        <ele>439.20001220703</ele>
        <time>2026-05-12T12:00:39.000Z</time>
      </trkpt>
      <trkpt lat="45.27107" lon="4.65853">
        <ele>439.60000610352</ele>
        <time>2026-05-12T12:00:40.000Z</time>
      </trkpt>
      <trkpt lat="45.27108" lon="4.65851">
        <ele>439.79998779297</ele>
        <time>2026-05-12T12:00:41.000Z</time>
      </trkpt>
      <trkpt lat="45.2711" lon="4.6585">
        <ele>440</ele>
        <time>2026-05-12T12:00:42.000Z</time>
      </trkpt>
      <trkpt lat="45.27111" lon="4.65849">
        <ele>440.20001220703</ele>
        <time>2026-05-12T12:00:43.000Z</time>
      </trkpt>
      <trkpt lat="45.27113" lon="4.65848">
        <ele>440.39999389648</ele>
        <time>2026-05-12T12:00:44.000Z</time>
      </trkpt>
      <trkpt lat="45.27115" lon="4.65847">
        <ele>440.39999389648</ele>
        <time>2026-05-12T12:00:45.000Z</time>
      </trkpt>
      <trkpt lat="45.27117" lon="4.65845">
        <ele>440.60000610352</ele>
        <time>2026-05-12T12:00:46.000Z</time>
      </trkpt>
      <trkpt lat="45.27118" lon="4.65844">
        <ele>440.79998779297</ele>
        <time>2026-05-12T12:00:47.000Z</time>
      </trkpt>
      <trkpt lat="45.2712" lon="4.65842">
        <ele>441</ele>
        <time>2026-05-12T12:00:48.000Z</time>
      </trkpt>
      <trkpt lat="45.27121" lon="4.65841">
        <ele>441.20001220703</ele>
        <time>2026-05-12T12:00:49.000Z</time>
      </trkpt>
      <trkpt lat="45.27123" lon="4.65839">
        <ele>441.39999389648</ele>
        <time>2026-05-12T12:00:50.000Z</time>
      </trkpt>
      <trkpt lat="45.27125" lon="4.65838">
        <ele>441.39999389648</ele>
        <time>2026-05-12T12:00:51.000Z</time>
      </trkpt>
      <trkpt lat="45.27126" lon="4.65837">
        <ele>441.60000610352</ele>
        <time>2026-05-12T12:00:52.000Z</time>
      </trkpt>
      <trkpt lat="45.27128" lon="4.65836">
        <ele>441.79998779297</ele>
        <time>2026-05-12T12:00:53.000Z</time>
      </trkpt>
      <trkpt lat="45.2713" lon="4.65835">
        <ele>442</ele>
        <time>2026-05-12T12:00:54.000Z</time>
      </trkpt>
      <trkpt lat="45.27131" lon="4.65834">
        <ele>442.20001220703</ele>
        <time>2026-05-12T12:00:55.000Z</time>
      </trkpt>
      <trkpt lat="45.27133" lon="4.65833">
        <ele>442.60000610352</ele>
        <time>2026-05-12T12:00:56.000Z</time>
      </trkpt>
      <trkpt lat="45.27135" lon="4.65832">
        <ele>442.79998779297</ele>
        <time>2026-05-12T12:00:57.000Z</time>
      </trkpt>
      <trkpt lat="45.27136" lon="4.65831">
        <ele>443</ele>
        <time>2026-05-12T12:00:58.000Z</time>
      </trkpt>
      <trkpt lat="45.27138" lon="4.6583">
        <ele>443.20001220703</ele>
        <time>2026-05-12T12:00:59.000Z</time>
      </trkpt>
      <trkpt lat="45.2714" lon="4.6583">
        <ele>443.39999389648</ele>
        <time>2026-05-12T12:01:00.000Z</time>
      </trkpt>
      <trkpt lat="45.27141" lon="4.65829">
        <ele>443.79998779297</ele>
        <time>2026-05-12T12:01:01.000Z</time>
      </trkpt>
      <trkpt lat="45.27143" lon="4.65829">
        <ele>443.79998779297</ele>
        <time>2026-05-12T12:01:02.000Z</time>
      </trkpt>
      <trkpt lat="45.27144" lon="4.6583">
        <ele>444</ele>
        <time>2026-05-12T12:01:03.000Z</time>
      </trkpt>
      <trkpt lat="45.27145" lon="4.65831">
        <ele>444.20001220703</ele>
        <time>2026-05-12T12:01:04.000Z</time>
      </trkpt>
      <trkpt lat="45.27146" lon="4.65833">
        <ele>444.20001220703</ele>
        <time>2026-05-12T12:01:05.000Z</time>
      </trkpt>
      <trkpt lat="45.27146" lon="4.65836">
        <ele>444.20001220703</ele>
        <time>2026-05-12T12:01:06.000Z</time>
      </trkpt>
      <trkpt lat="45.27147" lon="4.65837">
        <ele>444.39999389648</ele>
        <time>2026-05-12T12:01:07.000Z</time>
      </trkpt>
      <trkpt lat="45.27147" lon="4.65838">
        <ele>444.60000610352</ele>
        <time>2026-05-12T12:01:08.000Z</time>
      </trkpt>
      <trkpt lat="45.27147" lon="4.65838">
        <ele>444.60000610352</ele>
        <time>2026-05-12T12:01:09.000Z</time>
      </trkpt>
      <trkpt lat="45.27154" lon="4.65822">
        <ele>444</ele>
        <time>2026-05-12T12:01:37.000Z</time>
      </trkpt>
      <trkpt lat="45.27154" lon="4.65821">
        <ele>444</ele>
        <time>2026-05-12T12:01:38.000Z</time>
      </trkpt>
      <trkpt lat="45.27154" lon="4.65818">
        <ele>444</ele>
        <time>2026-05-12T12:01:39.000Z</time>
      </trkpt>
      <trkpt lat="45.27153" lon="4.65815">
        <ele>443.79998779297</ele>
        <time>2026-05-12T12:01:40.000Z</time>
      </trkpt>
      <trkpt lat="45.27153" lon="4.65811">
        <ele>443.79998779297</ele>
        <time>2026-05-12T12:01:41.000Z</time>
      </trkpt>
      <trkpt lat="45.27153" lon="4.65807">
        <ele>443.60000610352</ele>
        <time>2026-05-12T12:01:42.000Z</time>
      </trkpt>
      <trkpt lat="45.27153" lon="4.65804">
        <ele>443.60000610352</ele>
        <time>2026-05-12T12:01:43.000Z</time>
      </trkpt>
      <trkpt lat="45.27153" lon="4.65801">
        <ele>443.60000610352</ele>
        <time>2026-05-12T12:01:44.000Z</time>
      </trkpt>
      <trkpt lat="45.27152" lon="4.65798">
        <ele>443.60000610352</ele>
        <time>2026-05-12T12:01:45.000Z</time>
      </trkpt>
      <trkpt lat="45.27152" lon="4.65795">
        <ele>443.60000610352</ele>
        <time>2026-05-12T12:01:46.000Z</time>
      </trkpt>
      <trkpt lat="45.27152" lon="4.65792">
        <ele>443.79998779297</ele>
        <time>2026-05-12T12:01:47.000Z</time>
      </trkpt>
      <trkpt lat="45.27152" lon="4.65788">
        <ele>443.79998779297</ele>
        <time>2026-05-12T12:01:48.000Z</time>
      </trkpt>
      <trkpt lat="45.27153" lon="4.65785">
        <ele>443.79998779297</ele>
        <time>2026-05-12T12:01:49.000Z</time>
      </trkpt>
      <trkpt lat="45.27153" lon="4.65782">
        <ele>444</ele>
        <time>2026-05-12T12:01:50.000Z</time>
      </trkpt>
      <trkpt lat="45.27153" lon="4.65778">
        <ele>444</ele>
        <time>2026-05-12T12:01:51.000Z</time>
      </trkpt>
      <trkpt lat="45.27153" lon="4.65775">
        <ele>444</ele>
        <time>2026-05-12T12:01:52.000Z</time>
      </trkpt>
      <trkpt lat="45.27153" lon="4.65772">
        <ele>444.20001220703</ele>
        <time>2026-05-12T12:01:53.000Z</time>
      </trkpt>
      <trkpt lat="45.27153" lon="4.65768">
        <ele>444.20001220703</ele>
        <time>2026-05-12T12:01:54.000Z</time>
      </trkpt>
      <trkpt lat="45.27154" lon="4.65765">
        <ele>444.20001220703</ele>
        <time>2026-05-12T12:01:55.000Z</time>
      </trkpt>
      <trkpt lat="45.27154" lon="4.65762">
        <ele>444.20001220703</ele>
        <time>2026-05-12T12:01:56.000Z</time>
      </trkpt>
      <trkpt lat="45.27154" lon="4.65759">
        <ele>444.20001220703</ele>
        <time>2026-05-12T12:01:57.000Z</time>
      </trkpt>
      <trkpt lat="45.27155" lon="4.65755">
        <ele>444.39999389648</ele>
        <time>2026-05-12T12:01:58.000Z</time>
      </trkpt>
      <trkpt lat="45.27155" lon="4.65752">
        <ele>444.39999389648</ele>
        <time>2026-05-12T12:01:59.000Z</time>
      </trkpt>
      <trkpt lat="45.27155" lon="4.65748">
        <ele>444.39999389648</ele>
        <time>2026-05-12T12:02:00.000Z</time>
      </trkpt>
      <trkpt lat="45.27156" lon="4.65745">
        <ele>444.39999389648</ele>
        <time>2026-05-12T12:02:01.000Z</time>
      </trkpt>
      <trkpt lat="45.27157" lon="4.65741">
        <ele>444.39999389648</ele>
        <time>2026-05-12T12:02:02.000Z</time>
      </trkpt>
      <trkpt lat="45.27157" lon="4.65737">
        <ele>444.39999389648</ele>
        <time>2026-05-12T12:02:03.000Z</time>
      </trkpt>
      <trkpt lat="45.27158" lon="4.65733">
        <ele>444.39999389648</ele>
        <time>2026-05-12T12:02:04.000Z</time>
      </trkpt>
      <trkpt lat="45.27158" lon="4.65729">
        <ele>444.20001220703</ele>
        <time>2026-05-12T12:02:05.000Z</time>
      </trkpt>
      <trkpt lat="45.27159" lon="4.65725">
        <ele>444.20001220703</ele>
        <time>2026-05-12T12:02:06.000Z</time>
      </trkpt>
      <trkpt lat="45.2716" lon="4.65721">
        <ele>444</ele>
        <time>2026-05-12T12:02:07.000Z</time>
      </trkpt>
      <trkpt lat="45.27161" lon="4.65717">
        <ele>444</ele>
        <time>2026-05-12T12:02:08.000Z</time>
      </trkpt>
      <trkpt lat="45.27161" lon="4.65714">
        <ele>444</ele>
        <time>2026-05-12T12:02:09.000Z</time>
      </trkpt>
      <trkpt lat="45.27162" lon="4.65711">
        <ele>444</ele>
        <time>2026-05-12T12:02:10.000Z</time>
      </trkpt>
      <trkpt lat="45.27163" lon="4.65707">
        <ele>444</ele>
        <time>2026-05-12T12:02:11.000Z</time>
      </trkpt>
      <trkpt lat="45.27164" lon="4.65703">
        <ele>444.20001220703</ele>
        <time>2026-05-12T12:02:12.000Z</time>
      </trkpt>
      <trkpt lat="45.27165" lon="4.657">
        <ele>444.20001220703</ele>
        <time>2026-05-12T12:02:13.000Z</time>
      </trkpt>
      <trkpt lat="45.27166" lon="4.65696">
        <ele>444.20001220703</ele>
        <time>2026-05-12T12:02:14.000Z</time>
      </trkpt>
      <trkpt lat="45.27167" lon="4.65692">
        <ele>444</ele>
        <time>2026-05-12T12:02:15.000Z</time>
      </trkpt>
      <trkpt lat="45.27168" lon="4.65687">
        <ele>444</ele>
        <time>2026-05-12T12:02:16.000Z</time>
      </trkpt>
      <trkpt lat="45.27169" lon="4.65683">
        <ele>444</ele>
        <time>2026-05-12T12:02:17.000Z</time>
      </trkpt>
      <trkpt lat="45.2717" lon="4.65679">
        <ele>444</ele>
        <time>2026-05-12T12:02:18.000Z</time>
      </trkpt>
      <trkpt lat="45.27171" lon="4.65675">
        <ele>444</ele>
        <time>2026-05-12T12:02:19.000Z</time>
      </trkpt>
      <trkpt lat="45.27171" lon="4.6567">
        <ele>444</ele>
        <time>2026-05-12T12:02:20.000Z</time>
      </trkpt>
      <trkpt lat="45.27173" lon="4.65666">
        <ele>444</ele>
        <time>2026-05-12T12:02:21.000Z</time>
      </trkpt>
      <trkpt lat="45.27173" lon="4.65662">
        <ele>444</ele>
        <time>2026-05-12T12:02:22.000Z</time>
      </trkpt>
      <trkpt lat="45.27174" lon="4.65658">
        <ele>444</ele>
        <time>2026-05-12T12:02:23.000Z</time>
      </trkpt>
      <trkpt lat="45.27175" lon="4.65654">
        <ele>444</ele>
        <time>2026-05-12T12:02:24.000Z</time>
      </trkpt>
      <trkpt lat="45.27176" lon="4.65651">
        <ele>444</ele>
        <time>2026-05-12T12:02:25.000Z</time>
      </trkpt>
      <trkpt lat="45.27177" lon="4.65647">
        <ele>444</ele>
        <time>2026-05-12T12:02:26.000Z</time>
      </trkpt>
      <trkpt lat="45.27178" lon="4.65644">
        <ele>444</ele>
        <time>2026-05-12T12:02:27.000Z</time>
      </trkpt>
      <trkpt lat="45.27179" lon="4.6564">
        <ele>444</ele>
        <time>2026-05-12T12:02:28.000Z</time>
      </trkpt>
      <trkpt lat="45.2718" lon="4.65635">
        <ele>444</ele>
        <time>2026-05-12T12:02:29.000Z</time>
      </trkpt>
      <trkpt lat="45.27181" lon="4.65631">
        <ele>444</ele>
        <time>2026-05-12T12:02:30.000Z</time>
      </trkpt>
      <trkpt lat="45.27182" lon="4.65626">
        <ele>444</ele>
        <time>2026-05-12T12:02:31.000Z</time>
      </trkpt>
      <trkpt lat="45.27183" lon="4.65621">
        <ele>444</ele>
        <time>2026-05-12T12:02:32.000Z</time>
      </trkpt>
      <trkpt lat="45.27184" lon="4.65616">
        <ele>444</ele>
        <time>2026-05-12T12:02:33.000Z</time>
      </trkpt>
      <trkpt lat="45.27185" lon="4.65612">
        <ele>444.20001220703</ele>
        <time>2026-05-12T12:02:34.000Z</time>
      </trkpt>
      <trkpt lat="45.27186" lon="4.65607">
        <ele>444.20001220703</ele>
        <time>2026-05-12T12:02:35.000Z</time>
      </trkpt>
      <trkpt lat="45.27187" lon="4.65603">
        <ele>444.20001220703</ele>
        <time>2026-05-12T12:02:36.000Z</time>
      </trkpt>
      <trkpt lat="45.27188" lon="4.65599">
        <ele>444.20001220703</ele>
        <time>2026-05-12T12:02:37.000Z</time>
      </trkpt>
      <trkpt lat="45.27189" lon="4.65595">
        <ele>444.20001220703</ele>
        <time>2026-05-12T12:02:38.000Z</time>
      </trkpt>
      <trkpt lat="45.27191" lon="4.65592">
        <ele>444.20001220703</ele>
        <time>2026-05-12T12:02:39.000Z</time>
      </trkpt>
      <trkpt lat="45.27192" lon="4.65588">
        <ele>444.20001220703</ele>
        <time>2026-05-12T12:02:40.000Z</time>
      </trkpt>
      <trkpt lat="45.27193" lon="4.65584">
        <ele>444.20001220703</ele>
        <time>2026-05-12T12:02:41.000Z</time>
      </trkpt>
      <trkpt lat="45.27194" lon="4.6558">
        <ele>444.20001220703</ele>
        <time>2026-05-12T12:02:42.000Z</time>
      </trkpt>
      <trkpt lat="45.27194" lon="4.65577">
        <ele>444.20001220703</ele>
        <time>2026-05-12T12:02:43.000Z</time>
      </trkpt>
      <trkpt lat="45.27195" lon="4.65573">
        <ele>444.20001220703</ele>
        <time>2026-05-12T12:02:44.000Z</time>
      </trkpt>
      <trkpt lat="45.27196" lon="4.6557">
        <ele>444.20001220703</ele>
        <time>2026-05-12T12:02:45.000Z</time>
      </trkpt>
      <trkpt lat="45.27197" lon="4.65566">
        <ele>444.20001220703</ele>
        <time>2026-05-12T12:02:46.000Z</time>
      </trkpt>
      <trkpt lat="45.27198" lon="4.65562">
        <ele>444</ele>
        <time>2026-05-12T12:02:47.000Z</time>
      </trkpt>
      <trkpt lat="45.272" lon="4.65558">
        <ele>444</ele>
        <time>2026-05-12T12:02:48.000Z</time>
      </trkpt>
      <trkpt lat="45.27201" lon="4.65554">
        <ele>443.79998779297</ele>
        <time>2026-05-12T12:02:49.000Z</time>
      </trkpt>
      <trkpt lat="45.27201" lon="4.6555">
        <ele>443.79998779297</ele>
        <time>2026-05-12T12:02:50.000Z</time>
      </trkpt>
      <trkpt lat="45.27202" lon="4.65546">
        <ele>443.79998779297</ele>
        <time>2026-05-12T12:02:51.000Z</time>
      </trkpt>
      <trkpt lat="45.27203" lon="4.65543">
        <ele>443.60000610352</ele>
        <time>2026-05-12T12:02:52.000Z</time>
      </trkpt>
      <trkpt lat="45.27205" lon="4.6554">
        <ele>443.60000610352</ele>
        <time>2026-05-12T12:02:53.000Z</time>
      </trkpt>
      <trkpt lat="45.27207" lon="4.65536">
        <ele>443.60000610352</ele>
        <time>2026-05-12T12:02:54.000Z</time>
      </trkpt>
      <trkpt lat="45.27209" lon="4.65533">
        <ele>443.39999389648</ele>
        <time>2026-05-12T12:02:55.000Z</time>
      </trkpt>
      <trkpt lat="45.27211" lon="4.65531">
        <ele>443.20001220703</ele>
        <time>2026-05-12T12:02:56.000Z</time>
      </trkpt>
      <trkpt lat="45.27213" lon="4.65529">
        <ele>443.20001220703</ele>
        <time>2026-05-12T12:02:57.000Z</time>
      </trkpt>
      <trkpt lat="45.27216" lon="4.65528">
        <ele>443</ele>
        <time>2026-05-12T12:02:58.000Z</time>
      </trkpt>
      <trkpt lat="45.27218" lon="4.65528">
        <ele>443</ele>
        <time>2026-05-12T12:02:59.000Z</time>
      </trkpt>
      <trkpt lat="45.27221" lon="4.65527">
        <ele>443</ele>
        <time>2026-05-12T12:03:00.000Z</time>
      </trkpt>
      <trkpt lat="45.27224" lon="4.65527">
        <ele>443</ele>
        <time>2026-05-12T12:03:01.000Z</time>
      </trkpt>
      <trkpt lat="45.27226" lon="4.65528">
        <ele>443.20001220703</ele>
        <time>2026-05-12T12:03:02.000Z</time>
      </trkpt>
      <trkpt lat="45.27229" lon="4.65529">
        <ele>443</ele>
        <time>2026-05-12T12:03:03.000Z</time>
      </trkpt>
      <trkpt lat="45.27231" lon="4.6553">
        <ele>442.79998779297</ele>
        <time>2026-05-12T12:03:04.000Z</time>
      </trkpt>
      <trkpt lat="45.27233" lon="4.65532">
        <ele>442.79998779297</ele>
        <time>2026-05-12T12:03:05.000Z</time>
      </trkpt>
      <trkpt lat="45.27235" lon="4.65534">
        <ele>442.79998779297</ele>
        <time>2026-05-12T12:03:06.000Z</time>
      </trkpt>
      <trkpt lat="45.27237" lon="4.65536">
        <ele>442.79998779297</ele>
        <time>2026-05-12T12:03:07.000Z</time>
      </trkpt>
      <trkpt lat="45.27238" lon="4.65539">
        <ele>443.20001220703</ele>
        <time>2026-05-12T12:03:08.000Z</time>
      </trkpt>
      <trkpt lat="45.2724" lon="4.65542">
        <ele>443.60000610352</ele>
        <time>2026-05-12T12:03:09.000Z</time>
      </trkpt>
      <trkpt lat="45.27241" lon="4.65544">
        <ele>444</ele>
        <time>2026-05-12T12:03:10.000Z</time>
      </trkpt>
      <trkpt lat="45.27243" lon="4.65546">
        <ele>444.20001220703</ele>
        <time>2026-05-12T12:03:11.000Z</time>
      </trkpt>
      <trkpt lat="45.27245" lon="4.65548">
        <ele>444.39999389648</ele>
        <time>2026-05-12T12:03:12.000Z</time>
      </trkpt>
      <trkpt lat="45.27247" lon="4.65549">
        <ele>444.60000610352</ele>
        <time>2026-05-12T12:03:13.000Z</time>
      </trkpt>
      <trkpt lat="45.27248" lon="4.6555">
        <ele>444.79998779297</ele>
        <time>2026-05-12T12:03:14.000Z</time>
      </trkpt>
      <trkpt lat="45.27248" lon="4.6555">
        <ele>445</ele>
        <time>2026-05-12T12:03:15.000Z</time>
      </trkpt>
      <trkpt lat="45.27248" lon="4.6555">
        <ele>445.20001220703</ele>
        <time>2026-05-12T12:03:16.000Z</time>
      </trkpt>
      <trkpt lat="45.27257" lon="4.65553">
        <ele>446</ele>
        <time>2026-05-12T12:10:49.000Z</time>
      </trkpt>
      <trkpt lat="45.2726" lon="4.65554">
        <ele>445.79998779297</ele>
        <time>2026-05-12T12:10:50.000Z</time>
      </trkpt>
      <trkpt lat="45.27262" lon="4.65556">
        <ele>445.79998779297</ele>
        <time>2026-05-12T12:10:51.000Z</time>
      </trkpt>
      <trkpt lat="45.27265" lon="4.65559">
        <ele>445.60000610352</ele>
        <time>2026-05-12T12:10:52.000Z</time>
      </trkpt>
      <trkpt lat="45.27267" lon="4.65561">
        <ele>445.60000610352</ele>
        <time>2026-05-12T12:10:53.000Z</time>
      </trkpt>
      <trkpt lat="45.2727" lon="4.65563">
        <ele>445.60000610352</ele>
        <time>2026-05-12T12:10:54.000Z</time>
      </trkpt>
      <trkpt lat="45.27272" lon="4.65564">
        <ele>445.60000610352</ele>
        <time>2026-05-12T12:10:55.000Z</time>
      </trkpt>
      <trkpt lat="45.27274" lon="4.65566">
        <ele>445.79998779297</ele>
        <time>2026-05-12T12:10:56.000Z</time>
      </trkpt>
      <trkpt lat="45.27276" lon="4.65567">
        <ele>446</ele>
        <time>2026-05-12T12:10:57.000Z</time>
      </trkpt>
      <trkpt lat="45.27278" lon="4.65569">
        <ele>446.39999389648</ele>
        <time>2026-05-12T12:10:58.000Z</time>
      </trkpt>
      <trkpt lat="45.2728" lon="4.65571">
        <ele>446.60000610352</ele>
        <time>2026-05-12T12:10:59.000Z</time>
      </trkpt>
      <trkpt lat="45.27281" lon="4.65572">
        <ele>446.79998779297</ele>
        <time>2026-05-12T12:11:00.000Z</time>
      </trkpt>
      <trkpt lat="45.27282" lon="4.65574">
        <ele>447.20001220703</ele>
        <time>2026-05-12T12:11:01.000Z</time>
      </trkpt>
      <trkpt lat="45.27282" lon="4.65574">
        <ele>447.60000610352</ele>
        <time>2026-05-12T12:11:02.000Z</time>
      </trkpt>
      <trkpt lat="45.27282" lon="4.65574">
        <ele>447.79998779297</ele>
        <time>2026-05-12T12:11:03.000Z</time>
      </trkpt>
      <trkpt lat="45.27287" lon="4.6558">
        <ele>448.60000610352</ele>
        <time>2026-05-12T12:11:53.000Z</time>
      </trkpt>
      <trkpt lat="45.27289" lon="4.6558">
        <ele>448.60000610352</ele>
        <time>2026-05-12T12:11:54.000Z</time>
      </trkpt>
      <trkpt lat="45.27291" lon="4.65582">
        <ele>448.60000610352</ele>
        <time>2026-05-12T12:11:55.000Z</time>
      </trkpt>
      <trkpt lat="45.27293" lon="4.65583">
        <ele>448.60000610352</ele>
        <time>2026-05-12T12:11:56.000Z</time>
      </trkpt>
      <trkpt lat="45.27295" lon="4.65584">
        <ele>448.79998779297</ele>
        <time>2026-05-12T12:11:57.000Z</time>
      </trkpt>
      <trkpt lat="45.27297" lon="4.65585">
        <ele>448.79998779297</ele>
        <time>2026-05-12T12:11:58.000Z</time>
      </trkpt>
      <trkpt lat="45.27299" lon="4.65586">
        <ele>449</ele>
        <time>2026-05-12T12:11:59.000Z</time>
      </trkpt>
      <trkpt lat="45.27301" lon="4.65587">
        <ele>449</ele>
        <time>2026-05-12T12:12:00.000Z</time>
      </trkpt>
      <trkpt lat="45.27303" lon="4.65588">
        <ele>449.20001220703</ele>
        <time>2026-05-12T12:12:01.000Z</time>
      </trkpt>
      <trkpt lat="45.27305" lon="4.65589">
        <ele>449.20001220703</ele>
        <time>2026-05-12T12:12:02.000Z</time>
      </trkpt>
      <trkpt lat="45.27307" lon="4.6559">
        <ele>449.39999389648</ele>
        <time>2026-05-12T12:12:03.000Z</time>
      </trkpt>
      <trkpt lat="45.2731" lon="4.65591">
        <ele>449.60000610352</ele>
        <time>2026-05-12T12:12:04.000Z</time>
      </trkpt>
      <trkpt lat="45.27312" lon="4.65592">
        <ele>449.79998779297</ele>
        <time>2026-05-12T12:12:05.000Z</time>
      </trkpt>
      <trkpt lat="45.27315" lon="4.65593">
        <ele>449.79998779297</ele>
        <time>2026-05-12T12:12:06.000Z</time>
      </trkpt>
      <trkpt lat="45.27317" lon="4.65594">
        <ele>450</ele>
        <time>2026-05-12T12:12:07.000Z</time>
      </trkpt>
      <trkpt lat="45.27319" lon="4.65594">
        <ele>450.20001220703</ele>
        <time>2026-05-12T12:12:08.000Z</time>
      </trkpt>
      <trkpt lat="45.27322" lon="4.65595">
        <ele>450.39999389648</ele>
        <time>2026-05-12T12:12:09.000Z</time>
      </trkpt>
      <trkpt lat="45.27324" lon="4.65595">
        <ele>450.60000610352</ele>
        <time>2026-05-12T12:12:10.000Z</time>
      </trkpt>
      <trkpt lat="45.27327" lon="4.65595">
        <ele>450.79998779297</ele>
        <time>2026-05-12T12:12:11.000Z</time>
      </trkpt>
      <trkpt lat="45.27329" lon="4.65596">
        <ele>450.79998779297</ele>
        <time>2026-05-12T12:12:12.000Z</time>
      </trkpt>
      <trkpt lat="45.27332" lon="4.65597">
        <ele>451.20001220703</ele>
        <time>2026-05-12T12:12:13.000Z</time>
      </trkpt>
      <trkpt lat="45.27334" lon="4.65597">
        <ele>451.39999389648</ele>
        <time>2026-05-12T12:12:14.000Z</time>
      </trkpt>
      <trkpt lat="45.27337" lon="4.65597">
        <ele>451.79998779297</ele>
        <time>2026-05-12T12:12:15.000Z</time>
      </trkpt>
      <trkpt lat="45.2734" lon="4.65598">
        <ele>452</ele>
        <time>2026-05-12T12:12:16.000Z</time>
      </trkpt>
      <trkpt lat="45.27343" lon="4.65598">
        <ele>452.20001220703</ele>
        <time>2026-05-12T12:12:17.000Z</time>
      </trkpt>
      <trkpt lat="45.27345" lon="4.65598">
        <ele>452.60000610352</ele>
        <time>2026-05-12T12:12:18.000Z</time>
      </trkpt>
      <trkpt lat="45.27348" lon="4.65599">
        <ele>452.79998779297</ele>
        <time>2026-05-12T12:12:19.000Z</time>
      </trkpt>
      <trkpt lat="45.2735" lon="4.65599">
        <ele>452.79998779297</ele>
        <time>2026-05-12T12:12:20.000Z</time>
      </trkpt>
      <trkpt lat="45.27352" lon="4.65599">
        <ele>453</ele>
        <time>2026-05-12T12:12:21.000Z</time>
      </trkpt>
      <trkpt lat="45.27355" lon="4.65599">
        <ele>453.20001220703</ele>
        <time>2026-05-12T12:12:22.000Z</time>
      </trkpt>
      <trkpt lat="45.27358" lon="4.656">
        <ele>453.39999389648</ele>
        <time>2026-05-12T12:12:23.000Z</time>
      </trkpt>
      <trkpt lat="45.2736" lon="4.656">
        <ele>453.60000610352</ele>
        <time>2026-05-12T12:12:24.000Z</time>
      </trkpt>
      <trkpt lat="45.27363" lon="4.65601">
        <ele>453.79998779297</ele>
        <time>2026-05-12T12:12:25.000Z</time>
      </trkpt>
      <trkpt lat="45.27365" lon="4.65601">
        <ele>454</ele>
        <time>2026-05-12T12:12:26.000Z</time>
      </trkpt>
      <trkpt lat="45.27367" lon="4.65601">
        <ele>454.20001220703</ele>
        <time>2026-05-12T12:12:27.000Z</time>
      </trkpt>
      <trkpt lat="45.2737" lon="4.65601">
        <ele>454.39999389648</ele>
        <time>2026-05-12T12:12:28.000Z</time>
      </trkpt>
      <trkpt lat="45.27372" lon="4.65601">
        <ele>454.79998779297</ele>
        <time>2026-05-12T12:12:29.000Z</time>
      </trkpt>
      <trkpt lat="45.27374" lon="4.65602">
        <ele>455</ele>
        <time>2026-05-12T12:12:30.000Z</time>
      </trkpt>
      <trkpt lat="45.27377" lon="4.65602">
        <ele>455.20001220703</ele>
        <time>2026-05-12T12:12:31.000Z</time>
      </trkpt>
      <trkpt lat="45.27379" lon="4.65602">
        <ele>455.39999389648</ele>
        <time>2026-05-12T12:12:32.000Z</time>
      </trkpt>
      <trkpt lat="45.27381" lon="4.65602">
        <ele>455.39999389648</ele>
        <time>2026-05-12T12:12:33.000Z</time>
      </trkpt>
      <trkpt lat="45.27383" lon="4.65602">
        <ele>455.39999389648</ele>
        <time>2026-05-12T12:12:34.000Z</time>
      </trkpt>
      <trkpt lat="45.27385" lon="4.65602">
        <ele>455.60000610352</ele>
        <time>2026-05-12T12:12:35.000Z</time>
      </trkpt>
      <trkpt lat="45.27388" lon="4.65603">
        <ele>455.79998779297</ele>
        <time>2026-05-12T12:12:36.000Z</time>
      </trkpt>
      <trkpt lat="45.2739" lon="4.65603">
        <ele>456</ele>
        <time>2026-05-12T12:12:37.000Z</time>
      </trkpt>
      <trkpt lat="45.27392" lon="4.65603">
        <ele>456.20001220703</ele>
        <time>2026-05-12T12:12:38.000Z</time>
      </trkpt>
      <trkpt lat="45.27394" lon="4.65603">
        <ele>456.20001220703</ele>
        <time>2026-05-12T12:12:39.000Z</time>
      </trkpt>
      <trkpt lat="45.27397" lon="4.65603">
        <ele>456.39999389648</ele>
        <time>2026-05-12T12:12:40.000Z</time>
      </trkpt>
      <trkpt lat="45.27399" lon="4.65603">
        <ele>456.79998779297</ele>
        <time>2026-05-12T12:12:41.000Z</time>
      </trkpt>
      <trkpt lat="45.27401" lon="4.65603">
        <ele>457</ele>
        <time>2026-05-12T12:12:42.000Z</time>
      </trkpt>
      <trkpt lat="45.27403" lon="4.65603">
        <ele>457.20001220703</ele>
        <time>2026-05-12T12:12:43.000Z</time>
      </trkpt>
      <trkpt lat="45.27405" lon="4.65603">
        <ele>457.39999389648</ele>
        <time>2026-05-12T12:12:44.000Z</time>
      </trkpt>
      <trkpt lat="45.27408" lon="4.65603">
        <ele>457.60000610352</ele>
        <time>2026-05-12T12:12:45.000Z</time>
      </trkpt>
      <trkpt lat="45.2741" lon="4.65603">
        <ele>457.60000610352</ele>
        <time>2026-05-12T12:12:46.000Z</time>
      </trkpt>
      <trkpt lat="45.27412" lon="4.65603">
        <ele>457.79998779297</ele>
        <time>2026-05-12T12:12:47.000Z</time>
      </trkpt>
      <trkpt lat="45.27415" lon="4.65603">
        <ele>457.79998779297</ele>
        <time>2026-05-12T12:12:48.000Z</time>
      </trkpt>
      <trkpt lat="45.27417" lon="4.65603">
        <ele>458</ele>
        <time>2026-05-12T12:12:49.000Z</time>
      </trkpt>
      <trkpt lat="45.2742" lon="4.65603">
        <ele>458</ele>
        <time>2026-05-12T12:12:50.000Z</time>
      </trkpt>
      <trkpt lat="45.27422" lon="4.65603">
        <ele>458.20001220703</ele>
        <time>2026-05-12T12:12:51.000Z</time>
      </trkpt>
      <trkpt lat="45.27424" lon="4.65603">
        <ele>458.39999389648</ele>
        <time>2026-05-12T12:12:52.000Z</time>
      </trkpt>
      <trkpt lat="45.27427" lon="4.65604">
        <ele>458.79998779297</ele>
        <time>2026-05-12T12:12:53.000Z</time>
      </trkpt>
      <trkpt lat="45.27429" lon="4.65605">
        <ele>459</ele>
        <time>2026-05-12T12:12:54.000Z</time>
      </trkpt>
      <trkpt lat="45.27431" lon="4.65607">
        <ele>459.20001220703</ele>
        <time>2026-05-12T12:12:55.000Z</time>
      </trkpt>
      <trkpt lat="45.27433" lon="4.65608">
        <ele>459.39999389648</ele>
        <time>2026-05-12T12:12:56.000Z</time>
      </trkpt>
      <trkpt lat="45.27435" lon="4.65609">
        <ele>459.79998779297</ele>
        <time>2026-05-12T12:12:57.000Z</time>
      </trkpt>
      <trkpt lat="45.27437" lon="4.65611">
        <ele>460</ele>
        <time>2026-05-12T12:12:58.000Z</time>
      </trkpt>
      <trkpt lat="45.27439" lon="4.65613">
        <ele>460.39999389648</ele>
        <time>2026-05-12T12:12:59.000Z</time>
      </trkpt>
      <trkpt lat="45.2744" lon="4.65616">
        <ele>460.79998779297</ele>
        <time>2026-05-12T12:13:00.000Z</time>
      </trkpt>
      <trkpt lat="45.2744" lon="4.65618">
        <ele>461.20001220703</ele>
        <time>2026-05-12T12:13:01.000Z</time>
      </trkpt>
      <trkpt lat="45.2744" lon="4.65621">
        <ele>461.60000610352</ele>
        <time>2026-05-12T12:13:02.000Z</time>
      </trkpt>
      <trkpt lat="45.27439" lon="4.65624">
        <ele>462.20001220703</ele>
        <time>2026-05-12T12:13:03.000Z</time>
      </trkpt>
      <trkpt lat="45.27438" lon="4.65627">
        <ele>462.60000610352</ele>
        <time>2026-05-12T12:13:04.000Z</time>
      </trkpt>
      <trkpt lat="45.27437" lon="4.65629">
        <ele>462.79998779297</ele>
        <time>2026-05-12T12:13:05.000Z</time>
      </trkpt>
      <trkpt lat="45.27435" lon="4.65632">
        <ele>463.20001220703</ele>
        <time>2026-05-12T12:13:06.000Z</time>
      </trkpt>
      <trkpt lat="45.27433" lon="4.65634">
        <ele>463.39999389648</ele>
        <time>2026-05-12T12:13:07.000Z</time>
      </trkpt>
      <trkpt lat="45.27432" lon="4.65636">
        <ele>463.60000610352</ele>
        <time>2026-05-12T12:13:08.000Z</time>
      </trkpt>
      <trkpt lat="45.2743" lon="4.65639">
        <ele>463.79998779297</ele>
        <time>2026-05-12T12:13:09.000Z</time>
      </trkpt>
      <trkpt lat="45.27428" lon="4.65641">
        <ele>464</ele>
        <time>2026-05-12T12:13:10.000Z</time>
      </trkpt>
      <trkpt lat="45.27427" lon="4.65643">
        <ele>464</ele>
        <time>2026-05-12T12:13:11.000Z</time>
      </trkpt>
      <trkpt lat="45.27425" lon="4.65646">
        <ele>464.20001220703</ele>
        <time>2026-05-12T12:13:12.000Z</time>
      </trkpt>
      <trkpt lat="45.27424" lon="4.65648">
        <ele>464.39999389648</ele>
        <time>2026-05-12T12:13:13.000Z</time>
      </trkpt>
      <trkpt lat="45.27423" lon="4.65651">
        <ele>464.60000610352</ele>
        <time>2026-05-12T12:13:14.000Z</time>
      </trkpt>
      <trkpt lat="45.27422" lon="4.65654">
        <ele>464.60000610352</ele>
        <time>2026-05-12T12:13:15.000Z</time>
      </trkpt>
      <trkpt lat="45.27421" lon="4.65657">
        <ele>464.79998779297</ele>
        <time>2026-05-12T12:13:16.000Z</time>
      </trkpt>
      <trkpt lat="45.2742" lon="4.6566">
        <ele>464.79998779297</ele>
        <time>2026-05-12T12:13:17.000Z</time>
      </trkpt>
      <trkpt lat="45.27419" lon="4.65663">
        <ele>465</ele>
        <time>2026-05-12T12:13:18.000Z</time>
      </trkpt>
      <trkpt lat="45.27419" lon="4.65665">
        <ele>465</ele>
        <time>2026-05-12T12:13:19.000Z</time>
      </trkpt>
      <trkpt lat="45.27419" lon="4.65668">
        <ele>465.20001220703</ele>
        <time>2026-05-12T12:13:20.000Z</time>
      </trkpt>
      <trkpt lat="45.27418" lon="4.65671">
        <ele>465.39999389648</ele>
        <time>2026-05-12T12:13:21.000Z</time>
      </trkpt>
      <trkpt lat="45.27418" lon="4.65674">
        <ele>465.39999389648</ele>
        <time>2026-05-12T12:13:22.000Z</time>
      </trkpt>
      <trkpt lat="45.27418" lon="4.65677">
        <ele>465.60000610352</ele>
        <time>2026-05-12T12:13:23.000Z</time>
      </trkpt>
      <trkpt lat="45.27418" lon="4.6568">
        <ele>465.60000610352</ele>
        <time>2026-05-12T12:13:24.000Z</time>
      </trkpt>
      <trkpt lat="45.27418" lon="4.65682">
        <ele>465.79998779297</ele>
        <time>2026-05-12T12:13:25.000Z</time>
      </trkpt>
      <trkpt lat="45.27417" lon="4.65684">
        <ele>466</ele>
        <time>2026-05-12T12:13:26.000Z</time>
      </trkpt>
      <trkpt lat="45.27417" lon="4.65687">
        <ele>466.20001220703</ele>
        <time>2026-05-12T12:13:27.000Z</time>
      </trkpt>
      <trkpt lat="45.27417" lon="4.65689">
        <ele>466.39999389648</ele>
        <time>2026-05-12T12:13:28.000Z</time>
      </trkpt>
      <trkpt lat="45.27417" lon="4.65691">
        <ele>466.60000610352</ele>
        <time>2026-05-12T12:13:29.000Z</time>
      </trkpt>
      <trkpt lat="45.27418" lon="4.65692">
        <ele>466.79998779297</ele>
        <time>2026-05-12T12:13:30.000Z</time>
      </trkpt>
      <trkpt lat="45.27418" lon="4.65694">
        <ele>467</ele>
        <time>2026-05-12T12:13:31.000Z</time>
      </trkpt>
      <trkpt lat="45.27417" lon="4.65696">
        <ele>467.20001220703</ele>
        <time>2026-05-12T12:13:32.000Z</time>
      </trkpt>
      <trkpt lat="45.27418" lon="4.65698">
        <ele>467.20001220703</ele>
        <time>2026-05-12T12:13:33.000Z</time>
      </trkpt>
      <trkpt lat="45.27418" lon="4.657">
        <ele>467.39999389648</ele>
        <time>2026-05-12T12:13:34.000Z</time>
      </trkpt>
      <trkpt lat="45.27419" lon="4.65702">
        <ele>467.39999389648</ele>
        <time>2026-05-12T12:13:35.000Z</time>
      </trkpt>
      <trkpt lat="45.27419" lon="4.65704">
        <ele>467.60000610352</ele>
        <time>2026-05-12T12:13:36.000Z</time>
      </trkpt>
      <trkpt lat="45.27418" lon="4.65707">
        <ele>467.60000610352</ele>
        <time>2026-05-12T12:13:37.000Z</time>
      </trkpt>
      <trkpt lat="45.27418" lon="4.65709">
        <ele>467.79998779297</ele>
        <time>2026-05-12T12:13:38.000Z</time>
      </trkpt>
      <trkpt lat="45.27418" lon="4.65712">
        <ele>467.79998779297</ele>
        <time>2026-05-12T12:13:39.000Z</time>
      </trkpt>
      <trkpt lat="45.27419" lon="4.65714">
        <ele>468</ele>
        <time>2026-05-12T12:13:40.000Z</time>
      </trkpt>
      <trkpt lat="45.27419" lon="4.65717">
        <ele>468.20001220703</ele>
        <time>2026-05-12T12:13:41.000Z</time>
      </trkpt>
      <trkpt lat="45.27419" lon="4.65719">
        <ele>468.39999389648</ele>
        <time>2026-05-12T12:13:42.000Z</time>
      </trkpt>
      <trkpt lat="45.2742" lon="4.65721">
        <ele>468.39999389648</ele>
        <time>2026-05-12T12:13:43.000Z</time>
      </trkpt>
      <trkpt lat="45.2742" lon="4.65723">
        <ele>468.60000610352</ele>
        <time>2026-05-12T12:13:44.000Z</time>
      </trkpt>
      <trkpt lat="45.2742" lon="4.65725">
        <ele>468.79998779297</ele>
        <time>2026-05-12T12:13:45.000Z</time>
      </trkpt>
      <trkpt lat="45.2742" lon="4.65727">
        <ele>468.79998779297</ele>
        <time>2026-05-12T12:13:46.000Z</time>
      </trkpt>
      <trkpt lat="45.27419" lon="4.65729">
        <ele>469</ele>
        <time>2026-05-12T12:13:47.000Z</time>
      </trkpt>
      <trkpt lat="45.27419" lon="4.65731">
        <ele>469.20001220703</ele>
        <time>2026-05-12T12:13:48.000Z</time>
      </trkpt>
      <trkpt lat="45.27419" lon="4.65734">
        <ele>469.60000610352</ele>
        <time>2026-05-12T12:13:49.000Z</time>
      </trkpt>
      <trkpt lat="45.27419" lon="4.65736">
        <ele>469.79998779297</ele>
        <time>2026-05-12T12:13:50.000Z</time>
      </trkpt>
      <trkpt lat="45.27419" lon="4.65739">
        <ele>470</ele>
        <time>2026-05-12T12:13:51.000Z</time>
      </trkpt>
      <trkpt lat="45.27419" lon="4.65741">
        <ele>470</ele>
        <time>2026-05-12T12:13:52.000Z</time>
      </trkpt>
      <trkpt lat="45.27419" lon="4.65744">
        <ele>470.20001220703</ele>
        <time>2026-05-12T12:13:53.000Z</time>
      </trkpt>
      <trkpt lat="45.27419" lon="4.65747">
        <ele>470.20001220703</ele>
        <time>2026-05-12T12:13:54.000Z</time>
      </trkpt>
      <trkpt lat="45.2742" lon="4.65749">
        <ele>470.39999389648</ele>
        <time>2026-05-12T12:13:55.000Z</time>
      </trkpt>
      <trkpt lat="45.2742" lon="4.65751">
        <ele>470.39999389648</ele>
        <time>2026-05-12T12:13:56.000Z</time>
      </trkpt>
      <trkpt lat="45.2742" lon="4.65753">
        <ele>470.60000610352</ele>
        <time>2026-05-12T12:13:57.000Z</time>
      </trkpt>
      <trkpt lat="45.2742" lon="4.65756">
        <ele>470.79998779297</ele>
        <time>2026-05-12T12:13:58.000Z</time>
      </trkpt>
      <trkpt lat="45.27419" lon="4.65758">
        <ele>471</ele>
        <time>2026-05-12T12:13:59.000Z</time>
      </trkpt>
      <trkpt lat="45.2742" lon="4.65761">
        <ele>471.20001220703</ele>
        <time>2026-05-12T12:14:00.000Z</time>
      </trkpt>
      <trkpt lat="45.2742" lon="4.65763">
        <ele>471.39999389648</ele>
        <time>2026-05-12T12:14:01.000Z</time>
      </trkpt>
      <trkpt lat="45.2742" lon="4.65765">
        <ele>471.79998779297</ele>
        <time>2026-05-12T12:14:02.000Z</time>
      </trkpt>
      <trkpt lat="45.27419" lon="4.65767">
        <ele>472</ele>
        <time>2026-05-12T12:14:03.000Z</time>
      </trkpt>
      <trkpt lat="45.27419" lon="4.6577">
        <ele>472.20001220703</ele>
        <time>2026-05-12T12:14:04.000Z</time>
      </trkpt>
      <trkpt lat="45.27419" lon="4.65772">
        <ele>472.39999389648</ele>
        <time>2026-05-12T12:14:05.000Z</time>
      </trkpt>
      <trkpt lat="45.27419" lon="4.65774">
        <ele>472.60000610352</ele>
        <time>2026-05-12T12:14:06.000Z</time>
      </trkpt>
      <trkpt lat="45.27419" lon="4.65776">
        <ele>472.79998779297</ele>
        <time>2026-05-12T12:14:07.000Z</time>
      </trkpt>
      <trkpt lat="45.27419" lon="4.65778">
        <ele>473</ele>
        <time>2026-05-12T12:14:08.000Z</time>
      </trkpt>
      <trkpt lat="45.27418" lon="4.6578">
        <ele>473.20001220703</ele>
        <time>2026-05-12T12:14:09.000Z</time>
      </trkpt>
      <trkpt lat="45.27418" lon="4.65782">
        <ele>473.39999389648</ele>
        <time>2026-05-12T12:14:10.000Z</time>
      </trkpt>
      <trkpt lat="45.27418" lon="4.65784">
        <ele>473.60000610352</ele>
        <time>2026-05-12T12:14:11.000Z</time>
      </trkpt>
      <trkpt lat="45.27417" lon="4.65786">
        <ele>474</ele>
        <time>2026-05-12T12:14:12.000Z</time>
      </trkpt>
      <trkpt lat="45.27418" lon="4.65789">
        <ele>474.20001220703</ele>
        <time>2026-05-12T12:14:13.000Z</time>
      </trkpt>
      <trkpt lat="45.27418" lon="4.65791">
        <ele>474.39999389648</ele>
        <time>2026-05-12T12:14:14.000Z</time>
      </trkpt>
      <trkpt lat="45.27418" lon="4.65793">
        <ele>474.60000610352</ele>
        <time>2026-05-12T12:14:15.000Z</time>
      </trkpt>
      <trkpt lat="45.27418" lon="4.65795">
        <ele>474.79998779297</ele>
        <time>2026-05-12T12:14:16.000Z</time>
      </trkpt>
      <trkpt lat="45.27418" lon="4.65797">
        <ele>475</ele>
        <time>2026-05-12T12:14:17.000Z</time>
      </trkpt>
      <trkpt lat="45.27417" lon="4.65799">
        <ele>475</ele>
        <time>2026-05-12T12:14:18.000Z</time>
      </trkpt>
      <trkpt lat="45.27417" lon="4.65801">
        <ele>475.20001220703</ele>
        <time>2026-05-12T12:14:19.000Z</time>
      </trkpt>
      <trkpt lat="45.27417" lon="4.65804">
        <ele>475.20001220703</ele>
        <time>2026-05-12T12:14:20.000Z</time>
      </trkpt>
      <trkpt lat="45.27418" lon="4.65807">
        <ele>475.39999389648</ele>
        <time>2026-05-12T12:14:21.000Z</time>
      </trkpt>
      <trkpt lat="45.27418" lon="4.65809">
        <ele>475.39999389648</ele>
        <time>2026-05-12T12:14:22.000Z</time>
      </trkpt>
      <trkpt lat="45.27417" lon="4.65812">
        <ele>475.39999389648</ele>
        <time>2026-05-12T12:14:23.000Z</time>
      </trkpt>
      <trkpt lat="45.27417" lon="4.65815">
        <ele>475.39999389648</ele>
        <time>2026-05-12T12:14:24.000Z</time>
      </trkpt>
      <trkpt lat="45.27416" lon="4.65818">
        <ele>475.39999389648</ele>
        <time>2026-05-12T12:14:25.000Z</time>
      </trkpt>
      <trkpt lat="45.27416" lon="4.65821">
        <ele>475.39999389648</ele>
        <time>2026-05-12T12:14:26.000Z</time>
      </trkpt>
      <trkpt lat="45.27416" lon="4.65824">
        <ele>475.39999389648</ele>
        <time>2026-05-12T12:14:27.000Z</time>
      </trkpt>
      <trkpt lat="45.27416" lon="4.65826">
        <ele>475.60000610352</ele>
        <time>2026-05-12T12:14:28.000Z</time>
      </trkpt>
      <trkpt lat="45.27415" lon="4.65829">
        <ele>475.60000610352</ele>
        <time>2026-05-12T12:14:29.000Z</time>
      </trkpt>
      <trkpt lat="45.27415" lon="4.65831">
        <ele>475.60000610352</ele>
        <time>2026-05-12T12:14:30.000Z</time>
      </trkpt>
      <trkpt lat="45.27414" lon="4.65834">
        <ele>475.39999389648</ele>
        <time>2026-05-12T12:14:31.000Z</time>
      </trkpt>
      <trkpt lat="45.27414" lon="4.65837">
        <ele>475.39999389648</ele>
        <time>2026-05-12T12:14:32.000Z</time>
      </trkpt>
      <trkpt lat="45.27414" lon="4.6584">
        <ele>475.39999389648</ele>
        <time>2026-05-12T12:14:33.000Z</time>
      </trkpt>
      <trkpt lat="45.27414" lon="4.65843">
        <ele>475.39999389648</ele>
        <time>2026-05-12T12:14:34.000Z</time>
      </trkpt>
      <trkpt lat="45.27414" lon="4.65846">
        <ele>475.39999389648</ele>
        <time>2026-05-12T12:14:35.000Z</time>
      </trkpt>
      <trkpt lat="45.27414" lon="4.65849">
        <ele>475.39999389648</ele>
        <time>2026-05-12T12:14:36.000Z</time>
      </trkpt>
      <trkpt lat="45.27413" lon="4.65852">
        <ele>475.39999389648</ele>
        <time>2026-05-12T12:14:37.000Z</time>
      </trkpt>
      <trkpt lat="45.27413" lon="4.65854">
        <ele>475.39999389648</ele>
        <time>2026-05-12T12:14:38.000Z</time>
      </trkpt>
      <trkpt lat="45.27413" lon="4.65857">
        <ele>475.39999389648</ele>
        <time>2026-05-12T12:14:39.000Z</time>
      </trkpt>
      <trkpt lat="45.27413" lon="4.6586">
        <ele>475.20001220703</ele>
        <time>2026-05-12T12:14:40.000Z</time>
      </trkpt>
      <trkpt lat="45.27413" lon="4.65864">
        <ele>475.20001220703</ele>
        <time>2026-05-12T12:14:41.000Z</time>
      </trkpt>
      <trkpt lat="45.27413" lon="4.65867">
        <ele>475.39999389648</ele>
        <time>2026-05-12T12:14:42.000Z</time>
      </trkpt>
      <trkpt lat="45.27413" lon="4.65871">
        <ele>475.39999389648</ele>
        <time>2026-05-12T12:14:43.000Z</time>
      </trkpt>
      <trkpt lat="45.27413" lon="4.65875">
        <ele>475.39999389648</ele>
        <time>2026-05-12T12:14:44.000Z</time>
      </trkpt>
      <trkpt lat="45.27413" lon="4.65878">
        <ele>475.39999389648</ele>
        <time>2026-05-12T12:14:45.000Z</time>
      </trkpt>
      <trkpt lat="45.27413" lon="4.65882">
        <ele>475.39999389648</ele>
        <time>2026-05-12T12:14:46.000Z</time>
      </trkpt>
      <trkpt lat="45.27413" lon="4.65885">
        <ele>475.39999389648</ele>
        <time>2026-05-12T12:14:47.000Z</time>
      </trkpt>
      <trkpt lat="45.27414" lon="4.65888">
        <ele>475.20001220703</ele>
        <time>2026-05-12T12:14:48.000Z</time>
      </trkpt>
      <trkpt lat="45.27414" lon="4.65892">
        <ele>475.20001220703</ele>
        <time>2026-05-12T12:14:49.000Z</time>
      </trkpt>
      <trkpt lat="45.27414" lon="4.65896">
        <ele>475.20001220703</ele>
        <time>2026-05-12T12:14:50.000Z</time>
      </trkpt>
      <trkpt lat="45.27415" lon="4.65899">
        <ele>475.39999389648</ele>
        <time>2026-05-12T12:14:51.000Z</time>
      </trkpt>
      <trkpt lat="45.27415" lon="4.65903">
        <ele>475.39999389648</ele>
        <time>2026-05-12T12:14:52.000Z</time>
      </trkpt>
      <trkpt lat="45.27415" lon="4.65907">
        <ele>475.39999389648</ele>
        <time>2026-05-12T12:14:53.000Z</time>
      </trkpt>
      <trkpt lat="45.27415" lon="4.65911">
        <ele>475.20001220703</ele>
        <time>2026-05-12T12:14:54.000Z</time>
      </trkpt>
      <trkpt lat="45.27415" lon="4.65914">
        <ele>475.20001220703</ele>
        <time>2026-05-12T12:14:55.000Z</time>
      </trkpt>
      <trkpt lat="45.27416" lon="4.65918">
        <ele>475.20001220703</ele>
        <time>2026-05-12T12:14:56.000Z</time>
      </trkpt>
      <trkpt lat="45.27416" lon="4.65922">
        <ele>475.20001220703</ele>
        <time>2026-05-12T12:14:57.000Z</time>
      </trkpt>
      <trkpt lat="45.27416" lon="4.65925">
        <ele>475.20001220703</ele>
        <time>2026-05-12T12:14:58.000Z</time>
      </trkpt>
      <trkpt lat="45.27416" lon="4.65929">
        <ele>475</ele>
        <time>2026-05-12T12:14:59.000Z</time>
      </trkpt>
      <trkpt lat="45.27417" lon="4.65933">
        <ele>475</ele>
        <time>2026-05-12T12:15:00.000Z</time>
      </trkpt>
      <trkpt lat="45.27417" lon="4.65936">
        <ele>475</ele>
        <time>2026-05-12T12:15:01.000Z</time>
      </trkpt>
      <trkpt lat="45.27417" lon="4.6594">
        <ele>475</ele>
        <time>2026-05-12T12:15:02.000Z</time>
      </trkpt>
      <trkpt lat="45.27417" lon="4.65943">
        <ele>475</ele>
        <time>2026-05-12T12:15:03.000Z</time>
      </trkpt>
      <trkpt lat="45.27417" lon="4.65946">
        <ele>475.20001220703</ele>
        <time>2026-05-12T12:15:04.000Z</time>
      </trkpt>
      <trkpt lat="45.27416" lon="4.65949">
        <ele>475.20001220703</ele>
        <time>2026-05-12T12:15:05.000Z</time>
      </trkpt>
      <trkpt lat="45.27416" lon="4.65952">
        <ele>475.20001220703</ele>
        <time>2026-05-12T12:15:06.000Z</time>
      </trkpt>
      <trkpt lat="45.27416" lon="4.65955">
        <ele>475.20001220703</ele>
        <time>2026-05-12T12:15:07.000Z</time>
      </trkpt>
      <trkpt lat="45.27416" lon="4.65957">
        <ele>475.20001220703</ele>
        <time>2026-05-12T12:15:08.000Z</time>
      </trkpt>
      <trkpt lat="45.27417" lon="4.6596">
        <ele>475.20001220703</ele>
        <time>2026-05-12T12:15:09.000Z</time>
      </trkpt>
      <trkpt lat="45.27416" lon="4.65963">
        <ele>475.20001220703</ele>
        <time>2026-05-12T12:15:10.000Z</time>
      </trkpt>
      <trkpt lat="45.27416" lon="4.65966">
        <ele>475.20001220703</ele>
        <time>2026-05-12T12:15:11.000Z</time>
      </trkpt>
      <trkpt lat="45.27416" lon="4.65969">
        <ele>475.20001220703</ele>
        <time>2026-05-12T12:15:12.000Z</time>
      </trkpt>
      <trkpt lat="45.27416" lon="4.65973">
        <ele>475.20001220703</ele>
        <time>2026-05-12T12:15:13.000Z</time>
      </trkpt>
      <trkpt lat="45.27416" lon="4.65976">
        <ele>475.20001220703</ele>
        <time>2026-05-12T12:15:14.000Z</time>
      </trkpt>
      <trkpt lat="45.27416" lon="4.65979">
        <ele>475.20001220703</ele>
        <time>2026-05-12T12:15:15.000Z</time>
      </trkpt>
      <trkpt lat="45.27417" lon="4.65983">
        <ele>475.20001220703</ele>
        <time>2026-05-12T12:15:16.000Z</time>
      </trkpt>
      <trkpt lat="45.27417" lon="4.65986">
        <ele>475.20001220703</ele>
        <time>2026-05-12T12:15:17.000Z</time>
      </trkpt>
      <trkpt lat="45.27416" lon="4.6599">
        <ele>475.20001220703</ele>
        <time>2026-05-12T12:15:18.000Z</time>
      </trkpt>
      <trkpt lat="45.27416" lon="4.65993">
        <ele>475.20001220703</ele>
        <time>2026-05-12T12:15:19.000Z</time>
      </trkpt>
      <trkpt lat="45.27415" lon="4.65997">
        <ele>475.20001220703</ele>
        <time>2026-05-12T12:15:20.000Z</time>
      </trkpt>
      <trkpt lat="45.27414" lon="4.66">
        <ele>475.39999389648</ele>
        <time>2026-05-12T12:15:21.000Z</time>
      </trkpt>
      <trkpt lat="45.27413" lon="4.66003">
        <ele>475.60000610352</ele>
        <time>2026-05-12T12:15:22.000Z</time>
      </trkpt>
      <trkpt lat="45.27413" lon="4.66006">
        <ele>475.79998779297</ele>
        <time>2026-05-12T12:15:23.000Z</time>
      </trkpt>
      <trkpt lat="45.27412" lon="4.66009">
        <ele>476</ele>
        <time>2026-05-12T12:15:24.000Z</time>
      </trkpt>
      <trkpt lat="45.27412" lon="4.66012">
        <ele>476.20001220703</ele>
        <time>2026-05-12T12:15:25.000Z</time>
      </trkpt>
      <trkpt lat="45.27412" lon="4.66015">
        <ele>476.39999389648</ele>
        <time>2026-05-12T12:15:26.000Z</time>
      </trkpt>
      <trkpt lat="45.27411" lon="4.66017">
        <ele>476.60000610352</ele>
        <time>2026-05-12T12:15:27.000Z</time>
      </trkpt>
      <trkpt lat="45.2741" lon="4.6602">
        <ele>476.60000610352</ele>
        <time>2026-05-12T12:15:28.000Z</time>
      </trkpt>
      <trkpt lat="45.2741" lon="4.66022">
        <ele>476.79998779297</ele>
        <time>2026-05-12T12:15:29.000Z</time>
      </trkpt>
      <trkpt lat="45.27409" lon="4.66024">
        <ele>477</ele>
        <time>2026-05-12T12:15:30.000Z</time>
      </trkpt>
      <trkpt lat="45.27408" lon="4.66026">
        <ele>477.20001220703</ele>
        <time>2026-05-12T12:15:31.000Z</time>
      </trkpt>
      <trkpt lat="45.27408" lon="4.66027">
        <ele>477.20001220703</ele>
        <time>2026-05-12T12:15:32.000Z</time>
      </trkpt>
      <trkpt lat="45.27408" lon="4.66028">
        <ele>477.39999389648</ele>
        <time>2026-05-12T12:15:33.000Z</time>
      </trkpt>
      <trkpt lat="45.27408" lon="4.6603">
        <ele>477.39999389648</ele>
        <time>2026-05-12T12:15:34.000Z</time>
      </trkpt>
      <trkpt lat="45.27409" lon="4.66035">
        <ele>477.39999389648</ele>
        <time>2026-05-12T12:15:36.000Z</time>
      </trkpt>
      <trkpt lat="45.27412" lon="4.66036">
        <ele>477.39999389648</ele>
        <time>2026-05-12T12:15:37.000Z</time>
      </trkpt>
      <trkpt lat="45.27414" lon="4.66037">
        <ele>477.20001220703</ele>
        <time>2026-05-12T12:15:38.000Z</time>
      </trkpt>
      <trkpt lat="45.27416" lon="4.66037">
        <ele>477.39999389648</ele>
        <time>2026-05-12T12:15:39.000Z</time>
      </trkpt>
      <trkpt lat="45.27418" lon="4.66036">
        <ele>477.39999389648</ele>
        <time>2026-05-12T12:15:40.000Z</time>
      </trkpt>
      <trkpt lat="45.2742" lon="4.66035">
        <ele>477.39999389648</ele>
        <time>2026-05-12T12:15:41.000Z</time>
      </trkpt>
      <trkpt lat="45.27422" lon="4.66034">
        <ele>477.60000610352</ele>
        <time>2026-05-12T12:15:42.000Z</time>
      </trkpt>
      <trkpt lat="45.27423" lon="4.66033">
        <ele>477.60000610352</ele>
        <time>2026-05-12T12:15:43.000Z</time>
      </trkpt>
      <trkpt lat="45.27425" lon="4.66032">
        <ele>477.60000610352</ele>
        <time>2026-05-12T12:15:44.000Z</time>
      </trkpt>
      <trkpt lat="45.27427" lon="4.6603">
        <ele>477.60000610352</ele>
        <time>2026-05-12T12:15:45.000Z</time>
      </trkpt>
      <trkpt lat="45.27429" lon="4.66029">
        <ele>477.60000610352</ele>
        <time>2026-05-12T12:15:46.000Z</time>
      </trkpt>
      <trkpt lat="45.27431" lon="4.66027">
        <ele>477.79998779297</ele>
        <time>2026-05-12T12:15:47.000Z</time>
      </trkpt>
      <trkpt lat="45.27434" lon="4.66025">
        <ele>477.79998779297</ele>
        <time>2026-05-12T12:15:48.000Z</time>
      </trkpt>
      <trkpt lat="45.27436" lon="4.66024">
        <ele>478</ele>
        <time>2026-05-12T12:15:49.000Z</time>
      </trkpt>
      <trkpt lat="45.27438" lon="4.66023">
        <ele>478.20001220703</ele>
        <time>2026-05-12T12:15:50.000Z</time>
      </trkpt>
      <trkpt lat="45.2744" lon="4.66021">
        <ele>478.20001220703</ele>
        <time>2026-05-12T12:15:51.000Z</time>
      </trkpt>
      <trkpt lat="45.27441" lon="4.6602">
        <ele>478.39999389648</ele>
        <time>2026-05-12T12:15:52.000Z</time>
      </trkpt>
      <trkpt lat="45.27442" lon="4.66019">
        <ele>478.39999389648</ele>
        <time>2026-05-12T12:15:53.000Z</time>
      </trkpt>
      <trkpt lat="45.27444" lon="4.66017">
        <ele>478.39999389648</ele>
        <time>2026-05-12T12:15:54.000Z</time>
      </trkpt>
      <trkpt lat="45.27446" lon="4.66016">
        <ele>478.39999389648</ele>
        <time>2026-05-12T12:15:55.000Z</time>
      </trkpt>
      <trkpt lat="45.27448" lon="4.66015">
        <ele>478.60000610352</ele>
        <time>2026-05-12T12:15:56.000Z</time>
      </trkpt>
      <trkpt lat="45.2745" lon="4.66015">
        <ele>478.60000610352</ele>
        <time>2026-05-12T12:15:57.000Z</time>
      </trkpt>
      <trkpt lat="45.27451" lon="4.66015">
        <ele>478.79998779297</ele>
        <time>2026-05-12T12:15:58.000Z</time>
      </trkpt>
      <trkpt lat="45.27453" lon="4.66016">
        <ele>479</ele>
        <time>2026-05-12T12:15:59.000Z</time>
      </trkpt>
      <trkpt lat="45.27454" lon="4.66017">
        <ele>479</ele>
        <time>2026-05-12T12:16:00.000Z</time>
      </trkpt>
      <trkpt lat="45.27456" lon="4.66019">
        <ele>479.20001220703</ele>
        <time>2026-05-12T12:16:01.000Z</time>
      </trkpt>
      <trkpt lat="45.27457" lon="4.66021">
        <ele>479.20001220703</ele>
        <time>2026-05-12T12:16:02.000Z</time>
      </trkpt>
      <trkpt lat="45.27458" lon="4.66023">
        <ele>479.39999389648</ele>
        <time>2026-05-12T12:16:03.000Z</time>
      </trkpt>
      <trkpt lat="45.2746" lon="4.66025">
        <ele>479.39999389648</ele>
        <time>2026-05-12T12:16:04.000Z</time>
      </trkpt>
      <trkpt lat="45.27461" lon="4.66027">
        <ele>479.39999389648</ele>
        <time>2026-05-12T12:16:05.000Z</time>
      </trkpt>
      <trkpt lat="45.27462" lon="4.66029">
        <ele>479.60000610352</ele>
        <time>2026-05-12T12:16:06.000Z</time>
      </trkpt>
      <trkpt lat="45.27463" lon="4.66032">
        <ele>479.60000610352</ele>
        <time>2026-05-12T12:16:07.000Z</time>
      </trkpt>
      <trkpt lat="45.27464" lon="4.66034">
        <ele>479.79998779297</ele>
        <time>2026-05-12T12:16:08.000Z</time>
      </trkpt>
      <trkpt lat="45.27465" lon="4.66036">
        <ele>480.20001220703</ele>
        <time>2026-05-12T12:16:09.000Z</time>
      </trkpt>
      <trkpt lat="45.27466" lon="4.66037">
        <ele>480.39999389648</ele>
        <time>2026-05-12T12:16:10.000Z</time>
      </trkpt>
      <trkpt lat="45.27468" lon="4.66039">
        <ele>480.60000610352</ele>
        <time>2026-05-12T12:16:11.000Z</time>
      </trkpt>
      <trkpt lat="45.27469" lon="4.6604">
        <ele>480.79998779297</ele>
        <time>2026-05-12T12:16:12.000Z</time>
      </trkpt>
      <trkpt lat="45.2747" lon="4.66042">
        <ele>481</ele>
        <time>2026-05-12T12:16:13.000Z</time>
      </trkpt>
      <trkpt lat="45.27471" lon="4.66044">
        <ele>481.20001220703</ele>
        <time>2026-05-12T12:16:14.000Z</time>
      </trkpt>
      <trkpt lat="45.27471" lon="4.66046">
        <ele>481.39999389648</ele>
        <time>2026-05-12T12:16:15.000Z</time>
      </trkpt>
      <trkpt lat="45.27472" lon="4.66047">
        <ele>481.79998779297</ele>
        <time>2026-05-12T12:16:16.000Z</time>
      </trkpt>
      <trkpt lat="45.27473" lon="4.66048">
        <ele>482</ele>
        <time>2026-05-12T12:16:17.000Z</time>
      </trkpt>
      <trkpt lat="45.27474" lon="4.66049">
        <ele>482.20001220703</ele>
        <time>2026-05-12T12:16:18.000Z</time>
      </trkpt>
      <trkpt lat="45.27476" lon="4.66051">
        <ele>482.20001220703</ele>
        <time>2026-05-12T12:16:19.000Z</time>
      </trkpt>
      <trkpt lat="45.27477" lon="4.66051">
        <ele>482.39999389648</ele>
        <time>2026-05-12T12:16:20.000Z</time>
      </trkpt>
      <trkpt lat="45.27478" lon="4.66052">
        <ele>482.60000610352</ele>
        <time>2026-05-12T12:16:21.000Z</time>
      </trkpt>
      <trkpt lat="45.2748" lon="4.66054">
        <ele>482.60000610352</ele>
        <time>2026-05-12T12:16:22.000Z</time>
      </trkpt>
      <trkpt lat="45.27481" lon="4.66055">
        <ele>482.79998779297</ele>
        <time>2026-05-12T12:16:23.000Z</time>
      </trkpt>
      <trkpt lat="45.27482" lon="4.66057">
        <ele>483</ele>
        <time>2026-05-12T12:16:24.000Z</time>
      </trkpt>
      <trkpt lat="45.27483" lon="4.66059">
        <ele>483.20001220703</ele>
        <time>2026-05-12T12:16:25.000Z</time>
      </trkpt>
      <trkpt lat="45.27485" lon="4.6606">
        <ele>483.20001220703</ele>
        <time>2026-05-12T12:16:26.000Z</time>
      </trkpt>
      <trkpt lat="45.27486" lon="4.66062">
        <ele>483.39999389648</ele>
        <time>2026-05-12T12:16:27.000Z</time>
      </trkpt>
      <trkpt lat="45.27488" lon="4.66063">
        <ele>483.39999389648</ele>
        <time>2026-05-12T12:16:28.000Z</time>
      </trkpt>
      <trkpt lat="45.27489" lon="4.66065">
        <ele>483.79998779297</ele>
        <time>2026-05-12T12:16:29.000Z</time>
      </trkpt>
      <trkpt lat="45.2749" lon="4.66066">
        <ele>484</ele>
        <time>2026-05-12T12:16:30.000Z</time>
      </trkpt>
      <trkpt lat="45.27492" lon="4.66068">
        <ele>484.20001220703</ele>
        <time>2026-05-12T12:16:31.000Z</time>
      </trkpt>
      <trkpt lat="45.27493" lon="4.66069">
        <ele>484.39999389648</ele>
        <time>2026-05-12T12:16:32.000Z</time>
      </trkpt>
      <trkpt lat="45.27495" lon="4.66071">
        <ele>484.60000610352</ele>
        <time>2026-05-12T12:16:33.000Z</time>
      </trkpt>
      <trkpt lat="45.27496" lon="4.66072">
        <ele>484.79998779297</ele>
        <time>2026-05-12T12:16:34.000Z</time>
      </trkpt>
      <trkpt lat="45.27497" lon="4.66074">
        <ele>485</ele>
        <time>2026-05-12T12:16:35.000Z</time>
      </trkpt>
      <trkpt lat="45.27499" lon="4.66075">
        <ele>485.20001220703</ele>
        <time>2026-05-12T12:16:36.000Z</time>
      </trkpt>
      <trkpt lat="45.275" lon="4.66077">
        <ele>485.39999389648</ele>
        <time>2026-05-12T12:16:37.000Z</time>
      </trkpt>
      <trkpt lat="45.27502" lon="4.66078">
        <ele>485.79998779297</ele>
        <time>2026-05-12T12:16:38.000Z</time>
      </trkpt>
      <trkpt lat="45.27503" lon="4.66078">
        <ele>486</ele>
        <time>2026-05-12T12:16:39.000Z</time>
      </trkpt>
      <trkpt lat="45.27505" lon="4.66079">
        <ele>486.20001220703</ele>
        <time>2026-05-12T12:16:40.000Z</time>
      </trkpt>
      <trkpt lat="45.27506" lon="4.6608">
        <ele>486.60000610352</ele>
        <time>2026-05-12T12:16:41.000Z</time>
      </trkpt>
      <trkpt lat="45.27508" lon="4.66081">
        <ele>486.79998779297</ele>
        <time>2026-05-12T12:16:42.000Z</time>
      </trkpt>
      <trkpt lat="45.2751" lon="4.66081">
        <ele>487</ele>
        <time>2026-05-12T12:16:43.000Z</time>
      </trkpt>
      <trkpt lat="45.27511" lon="4.66082">
        <ele>487</ele>
        <time>2026-05-12T12:16:44.000Z</time>
      </trkpt>
      <trkpt lat="45.27513" lon="4.66082">
        <ele>487.39999389648</ele>
        <time>2026-05-12T12:16:45.000Z</time>
      </trkpt>
      <trkpt lat="45.27515" lon="4.66083">
        <ele>487.60000610352</ele>
        <time>2026-05-12T12:16:46.000Z</time>
      </trkpt>
      <trkpt lat="45.27516" lon="4.66084">
        <ele>487.79998779297</ele>
        <time>2026-05-12T12:16:47.000Z</time>
      </trkpt>
      <trkpt lat="45.27518" lon="4.66085">
        <ele>488.20001220703</ele>
        <time>2026-05-12T12:16:48.000Z</time>
      </trkpt>
      <trkpt lat="45.27519" lon="4.66086">
        <ele>488.39999389648</ele>
        <time>2026-05-12T12:16:49.000Z</time>
      </trkpt>
      <trkpt lat="45.27521" lon="4.66087">
        <ele>488.60000610352</ele>
        <time>2026-05-12T12:16:50.000Z</time>
      </trkpt>
      <trkpt lat="45.27522" lon="4.66089">
        <ele>488.79998779297</ele>
        <time>2026-05-12T12:16:51.000Z</time>
      </trkpt>
      <trkpt lat="45.27523" lon="4.66091">
        <ele>489</ele>
        <time>2026-05-12T12:16:52.000Z</time>
      </trkpt>
      <trkpt lat="45.27523" lon="4.66093">
        <ele>489</ele>
        <time>2026-05-12T12:16:53.000Z</time>
      </trkpt>
      <trkpt lat="45.27524" lon="4.66095">
        <ele>489.20001220703</ele>
        <time>2026-05-12T12:16:54.000Z</time>
      </trkpt>
      <trkpt lat="45.27524" lon="4.66098">
        <ele>489.39999389648</ele>
        <time>2026-05-12T12:16:55.000Z</time>
      </trkpt>
      <trkpt lat="45.27525" lon="4.661">
        <ele>489.79998779297</ele>
        <time>2026-05-12T12:16:56.000Z</time>
      </trkpt>
      <trkpt lat="45.27525" lon="4.66102">
        <ele>490</ele>
        <time>2026-05-12T12:16:57.000Z</time>
      </trkpt>
      <trkpt lat="45.27526" lon="4.66105">
        <ele>490.20001220703</ele>
        <time>2026-05-12T12:16:58.000Z</time>
      </trkpt>
      <trkpt lat="45.27526" lon="4.66107">
        <ele>490.39999389648</ele>
        <time>2026-05-12T12:16:59.000Z</time>
      </trkpt>
      <trkpt lat="45.27527" lon="4.66109">
        <ele>490.60000610352</ele>
        <time>2026-05-12T12:17:00.000Z</time>
      </trkpt>
      <trkpt lat="45.27527" lon="4.66112">
        <ele>490.79998779297</ele>
        <time>2026-05-12T12:17:01.000Z</time>
      </trkpt>
      <trkpt lat="45.27528" lon="4.66114">
        <ele>491</ele>
        <time>2026-05-12T12:17:02.000Z</time>
      </trkpt>
      <trkpt lat="45.27529" lon="4.66116">
        <ele>491.39999389648</ele>
        <time>2026-05-12T12:17:03.000Z</time>
      </trkpt>
      <trkpt lat="45.2753" lon="4.66118">
        <ele>491.60000610352</ele>
        <time>2026-05-12T12:17:04.000Z</time>
      </trkpt>
      <trkpt lat="45.27531" lon="4.6612">
        <ele>492</ele>
        <time>2026-05-12T12:17:05.000Z</time>
      </trkpt>
      <trkpt lat="45.27532" lon="4.66122">
        <ele>492.39999389648</ele>
        <time>2026-05-12T12:17:06.000Z</time>
      </trkpt>
      <trkpt lat="45.27533" lon="4.66124">
        <ele>492.79998779297</ele>
        <time>2026-05-12T12:17:07.000Z</time>
      </trkpt>
      <trkpt lat="45.27533" lon="4.66126">
        <ele>493</ele>
        <time>2026-05-12T12:17:08.000Z</time>
      </trkpt>
      <trkpt lat="45.27534" lon="4.66128">
        <ele>493.39999389648</ele>
        <time>2026-05-12T12:17:09.000Z</time>
      </trkpt>
      <trkpt lat="45.27535" lon="4.6613">
        <ele>493.79998779297</ele>
        <time>2026-05-12T12:17:10.000Z</time>
      </trkpt>
      <trkpt lat="45.27536" lon="4.66132">
        <ele>494.39999389648</ele>
        <time>2026-05-12T12:17:11.000Z</time>
      </trkpt>
      <trkpt lat="45.27537" lon="4.66134">
        <ele>494.79998779297</ele>
        <time>2026-05-12T12:17:12.000Z</time>
      </trkpt>
      <trkpt lat="45.27537" lon="4.66137">
        <ele>495.39999389648</ele>
        <time>2026-05-12T12:17:13.000Z</time>
      </trkpt>
      <trkpt lat="45.27538" lon="4.66139">
        <ele>495.79998779297</ele>
        <time>2026-05-12T12:17:14.000Z</time>
      </trkpt>
      <trkpt lat="45.27539" lon="4.66141">
        <ele>496.20001220703</ele>
        <time>2026-05-12T12:17:15.000Z</time>
      </trkpt>
      <trkpt lat="45.27539" lon="4.66144">
        <ele>496.60000610352</ele>
        <time>2026-05-12T12:17:16.000Z</time>
      </trkpt>
      <trkpt lat="45.2754" lon="4.66146">
        <ele>497</ele>
        <time>2026-05-12T12:17:17.000Z</time>
      </trkpt>
      <trkpt lat="45.27541" lon="4.66148">
        <ele>497.39999389648</ele>
        <time>2026-05-12T12:17:18.000Z</time>
      </trkpt>
      <trkpt lat="45.27541" lon="4.66151">
        <ele>497.60000610352</ele>
        <time>2026-05-12T12:17:19.000Z</time>
      </trkpt>
      <trkpt lat="45.27542" lon="4.66153">
        <ele>497.79998779297</ele>
        <time>2026-05-12T12:17:20.000Z</time>
      </trkpt>
      <trkpt lat="45.27542" lon="4.66155">
        <ele>498.20001220703</ele>
        <time>2026-05-12T12:17:21.000Z</time>
      </trkpt>
      <trkpt lat="45.27543" lon="4.66157">
        <ele>498.60000610352</ele>
        <time>2026-05-12T12:17:22.000Z</time>
      </trkpt>
      <trkpt lat="45.27543" lon="4.6616">
        <ele>498.79998779297</ele>
        <time>2026-05-12T12:17:23.000Z</time>
      </trkpt>
      <trkpt lat="45.27544" lon="4.66162">
        <ele>499.20001220703</ele>
        <time>2026-05-12T12:17:24.000Z</time>
      </trkpt>
      <trkpt lat="45.27544" lon="4.66164">
        <ele>499.39999389648</ele>
        <time>2026-05-12T12:17:25.000Z</time>
      </trkpt>
      <trkpt lat="45.27545" lon="4.66167">
        <ele>499.60000610352</ele>
        <time>2026-05-12T12:17:26.000Z</time>
      </trkpt>
      <trkpt lat="45.27545" lon="4.66169">
        <ele>499.60000610352</ele>
        <time>2026-05-12T12:17:27.000Z</time>
      </trkpt>
      <trkpt lat="45.27545" lon="4.66171">
        <ele>500</ele>
        <time>2026-05-12T12:17:28.000Z</time>
      </trkpt>
      <trkpt lat="45.27546" lon="4.66173">
        <ele>500.20001220703</ele>
        <time>2026-05-12T12:17:29.000Z</time>
      </trkpt>
      <trkpt lat="45.27546" lon="4.66176">
        <ele>500.60000610352</ele>
        <time>2026-05-12T12:17:30.000Z</time>
      </trkpt>
      <trkpt lat="45.27546" lon="4.66178">
        <ele>501.20001220703</ele>
        <time>2026-05-12T12:17:31.000Z</time>
      </trkpt>
      <trkpt lat="45.27546" lon="4.6618">
        <ele>501.60000610352</ele>
        <time>2026-05-12T12:17:32.000Z</time>
      </trkpt>
      <trkpt lat="45.27545" lon="4.66183">
        <ele>501.79998779297</ele>
        <time>2026-05-12T12:17:33.000Z</time>
      </trkpt>
      <trkpt lat="45.27545" lon="4.66185">
        <ele>502.20001220703</ele>
        <time>2026-05-12T12:17:34.000Z</time>
      </trkpt>
      <trkpt lat="45.27545" lon="4.66187">
        <ele>502.39999389648</ele>
        <time>2026-05-12T12:17:35.000Z</time>
      </trkpt>
      <trkpt lat="45.27544" lon="4.66189">
        <ele>502.79998779297</ele>
        <time>2026-05-12T12:17:36.000Z</time>
      </trkpt>
      <trkpt lat="45.27544" lon="4.66192">
        <ele>503</ele>
        <time>2026-05-12T12:17:37.000Z</time>
      </trkpt>
      <trkpt lat="45.27544" lon="4.66194">
        <ele>503.20001220703</ele>
        <time>2026-05-12T12:17:38.000Z</time>
      </trkpt>
      <trkpt lat="45.27544" lon="4.66196">
        <ele>503.60000610352</ele>
        <time>2026-05-12T12:17:39.000Z</time>
      </trkpt>
      <trkpt lat="45.27543" lon="4.66199">
        <ele>503.79998779297</ele>
        <time>2026-05-12T12:17:40.000Z</time>
      </trkpt>
      <trkpt lat="45.27543" lon="4.66201">
        <ele>504</ele>
        <time>2026-05-12T12:17:41.000Z</time>
      </trkpt>
      <trkpt lat="45.27543" lon="4.66204">
        <ele>504.20001220703</ele>
        <time>2026-05-12T12:17:42.000Z</time>
      </trkpt>
      <trkpt lat="45.27543" lon="4.66206">
        <ele>504.39999389648</ele>
        <time>2026-05-12T12:17:43.000Z</time>
      </trkpt>
      <trkpt lat="45.27543" lon="4.66209">
        <ele>504.60000610352</ele>
        <time>2026-05-12T12:17:44.000Z</time>
      </trkpt>
      <trkpt lat="45.27542" lon="4.66211">
        <ele>505</ele>
        <time>2026-05-12T12:17:45.000Z</time>
      </trkpt>
      <trkpt lat="45.27542" lon="4.66213">
        <ele>505.20001220703</ele>
        <time>2026-05-12T12:17:46.000Z</time>
      </trkpt>
      <trkpt lat="45.27541" lon="4.66215">
        <ele>505.39999389648</ele>
        <time>2026-05-12T12:17:47.000Z</time>
      </trkpt>
      <trkpt lat="45.27541" lon="4.66217">
        <ele>505.79998779297</ele>
        <time>2026-05-12T12:17:48.000Z</time>
      </trkpt>
      <trkpt lat="45.27541" lon="4.6622">
        <ele>506</ele>
        <time>2026-05-12T12:17:49.000Z</time>
      </trkpt>
      <trkpt lat="45.27541" lon="4.66222">
        <ele>506.20001220703</ele>
        <time>2026-05-12T12:17:50.000Z</time>
      </trkpt>
      <trkpt lat="45.27541" lon="4.66225">
        <ele>506.39999389648</ele>
        <time>2026-05-12T12:17:51.000Z</time>
      </trkpt>
      <trkpt lat="45.27541" lon="4.66227">
        <ele>506.60000610352</ele>
        <time>2026-05-12T12:17:52.000Z</time>
      </trkpt>
      <trkpt lat="45.27542" lon="4.6623">
        <ele>506.79998779297</ele>
        <time>2026-05-12T12:17:53.000Z</time>
      </trkpt>
      <trkpt lat="45.27542" lon="4.66232">
        <ele>507.20001220703</ele>
        <time>2026-05-12T12:17:54.000Z</time>
      </trkpt>
      <trkpt lat="45.27543" lon="4.66234">
        <ele>507.39999389648</ele>
        <time>2026-05-12T12:17:55.000Z</time>
      </trkpt>
      <trkpt lat="45.27544" lon="4.66236">
        <ele>507.60000610352</ele>
        <time>2026-05-12T12:17:56.000Z</time>
      </trkpt>
      <trkpt lat="45.27545" lon="4.66238">
        <ele>507.79998779297</ele>
        <time>2026-05-12T12:17:57.000Z</time>
      </trkpt>
      <trkpt lat="45.27545" lon="4.6624">
        <ele>508</ele>
        <time>2026-05-12T12:17:58.000Z</time>
      </trkpt>
      <trkpt lat="45.27546" lon="4.66242">
        <ele>508.20001220703</ele>
        <time>2026-05-12T12:17:59.000Z</time>
      </trkpt>
      <trkpt lat="45.27546" lon="4.66244">
        <ele>508.39999389648</ele>
        <time>2026-05-12T12:18:00.000Z</time>
      </trkpt>
      <trkpt lat="45.27546" lon="4.66246">
        <ele>508.39999389648</ele>
        <time>2026-05-12T12:18:01.000Z</time>
      </trkpt>
      <trkpt lat="45.27547" lon="4.66248">
        <ele>508.79998779297</ele>
        <time>2026-05-12T12:18:02.000Z</time>
      </trkpt>
      <trkpt lat="45.27548" lon="4.66249">
        <ele>509</ele>
        <time>2026-05-12T12:18:03.000Z</time>
      </trkpt>
      <trkpt lat="45.27548" lon="4.66251">
        <ele>509.20001220703</ele>
        <time>2026-05-12T12:18:04.000Z</time>
      </trkpt>
      <trkpt lat="45.27549" lon="4.66253">
        <ele>509.39999389648</ele>
        <time>2026-05-12T12:18:05.000Z</time>
      </trkpt>
      <trkpt lat="45.27549" lon="4.66255">
        <ele>509.60000610352</ele>
        <time>2026-05-12T12:18:06.000Z</time>
      </trkpt>
      <trkpt lat="45.2755" lon="4.66257">
        <ele>510</ele>
        <time>2026-05-12T12:18:07.000Z</time>
      </trkpt>
      <trkpt lat="45.27551" lon="4.66259">
        <ele>510.20001220703</ele>
        <time>2026-05-12T12:18:08.000Z</time>
      </trkpt>
      <trkpt lat="45.27551" lon="4.6626">
        <ele>510.39999389648</ele>
        <time>2026-05-12T12:18:09.000Z</time>
      </trkpt>
      <trkpt lat="45.27552" lon="4.66262">
        <ele>510.60000610352</ele>
        <time>2026-05-12T12:18:10.000Z</time>
      </trkpt>
      <trkpt lat="45.27552" lon="4.66264">
        <ele>511</ele>
        <time>2026-05-12T12:18:11.000Z</time>
      </trkpt>
      <trkpt lat="45.27553" lon="4.66266">
        <ele>511.39999389648</ele>
        <time>2026-05-12T12:18:12.000Z</time>
      </trkpt>
      <trkpt lat="45.27553" lon="4.66268">
        <ele>511.60000610352</ele>
        <time>2026-05-12T12:18:13.000Z</time>
      </trkpt>
      <trkpt lat="45.27554" lon="4.6627">
        <ele>512</ele>
        <time>2026-05-12T12:18:14.000Z</time>
      </trkpt>
      <trkpt lat="45.27555" lon="4.66272">
        <ele>512.20001220703</ele>
        <time>2026-05-12T12:18:15.000Z</time>
      </trkpt>
      <trkpt lat="45.27555" lon="4.66274">
        <ele>512.40002441406</ele>
        <time>2026-05-12T12:18:16.000Z</time>
      </trkpt>
      <trkpt lat="45.27556" lon="4.66276">
        <ele>512.59997558594</ele>
        <time>2026-05-12T12:18:17.000Z</time>
      </trkpt>
      <trkpt lat="45.27556" lon="4.66278">
        <ele>512.79998779297</ele>
        <time>2026-05-12T12:18:18.000Z</time>
      </trkpt>
      <trkpt lat="45.27557" lon="4.6628">
        <ele>513</ele>
        <time>2026-05-12T12:18:19.000Z</time>
      </trkpt>
      <trkpt lat="45.27557" lon="4.66282">
        <ele>513.20001220703</ele>
        <time>2026-05-12T12:18:20.000Z</time>
      </trkpt>
      <trkpt lat="45.27558" lon="4.66284">
        <ele>513.59997558594</ele>
        <time>2026-05-12T12:18:21.000Z</time>
      </trkpt>
      <trkpt lat="45.27559" lon="4.66286">
        <ele>513.79998779297</ele>
        <time>2026-05-12T12:18:22.000Z</time>
      </trkpt>
      <trkpt lat="45.2756" lon="4.66288">
        <ele>513.79998779297</ele>
        <time>2026-05-12T12:18:23.000Z</time>
      </trkpt>
      <trkpt lat="45.2756" lon="4.6629">
        <ele>514.20001220703</ele>
        <time>2026-05-12T12:18:24.000Z</time>
      </trkpt>
      <trkpt lat="45.27561" lon="4.66292">
        <ele>514.40002441406</ele>
        <time>2026-05-12T12:18:25.000Z</time>
      </trkpt>
      <trkpt lat="45.27561" lon="4.66294">
        <ele>514.59997558594</ele>
        <time>2026-05-12T12:18:26.000Z</time>
      </trkpt>
      <trkpt lat="45.27561" lon="4.66296">
        <ele>515</ele>
        <time>2026-05-12T12:18:27.000Z</time>
      </trkpt>
      <trkpt lat="45.27562" lon="4.66299">
        <ele>515.40002441406</ele>
        <time>2026-05-12T12:18:28.000Z</time>
      </trkpt>
      <trkpt lat="45.27562" lon="4.66301">
        <ele>515.59997558594</ele>
        <time>2026-05-12T12:18:29.000Z</time>
      </trkpt>
      <trkpt lat="45.27563" lon="4.66303">
        <ele>515.79998779297</ele>
        <time>2026-05-12T12:18:30.000Z</time>
      </trkpt>
      <trkpt lat="45.27564" lon="4.66304">
        <ele>516.20001220703</ele>
        <time>2026-05-12T12:18:31.000Z</time>
      </trkpt>
      <trkpt lat="45.27565" lon="4.66306">
        <ele>516.20001220703</ele>
        <time>2026-05-12T12:18:32.000Z</time>
      </trkpt>
      <trkpt lat="45.27565" lon="4.66308">
        <ele>516.40002441406</ele>
        <time>2026-05-12T12:18:33.000Z</time>
      </trkpt>
      <trkpt lat="45.27565" lon="4.6631">
        <ele>516.59997558594</ele>
        <time>2026-05-12T12:18:34.000Z</time>
      </trkpt>
      <trkpt lat="45.27566" lon="4.66312">
        <ele>517</ele>
        <time>2026-05-12T12:18:35.000Z</time>
      </trkpt>
      <trkpt lat="45.27566" lon="4.66314">
        <ele>517.20001220703</ele>
        <time>2026-05-12T12:18:36.000Z</time>
      </trkpt>
      <trkpt lat="45.27566" lon="4.66316">
        <ele>517.59997558594</ele>
        <time>2026-05-12T12:18:37.000Z</time>
      </trkpt>
      <trkpt lat="45.27566" lon="4.66318">
        <ele>518</ele>
        <time>2026-05-12T12:18:38.000Z</time>
      </trkpt>
      <trkpt lat="45.27566" lon="4.66321">
        <ele>518.40002441406</ele>
        <time>2026-05-12T12:18:39.000Z</time>
      </trkpt>
      <trkpt lat="45.27566" lon="4.66323">
        <ele>518.79998779297</ele>
        <time>2026-05-12T12:18:40.000Z</time>
      </trkpt>
      <trkpt lat="45.27567" lon="4.66325">
        <ele>519</ele>
        <time>2026-05-12T12:18:41.000Z</time>
      </trkpt>
      <trkpt lat="45.27567" lon="4.66327">
        <ele>519.40002441406</ele>
        <time>2026-05-12T12:18:42.000Z</time>
      </trkpt>
      <trkpt lat="45.27567" lon="4.66329">
        <ele>519.59997558594</ele>
        <time>2026-05-12T12:18:43.000Z</time>
      </trkpt>
      <trkpt lat="45.27567" lon="4.66331">
        <ele>519.79998779297</ele>
        <time>2026-05-12T12:18:44.000Z</time>
      </trkpt>
      <trkpt lat="45.27568" lon="4.66333">
        <ele>520.20001220703</ele>
        <time>2026-05-12T12:18:45.000Z</time>
      </trkpt>
      <trkpt lat="45.27568" lon="4.66335">
        <ele>520.40002441406</ele>
        <time>2026-05-12T12:18:46.000Z</time>
      </trkpt>
      <trkpt lat="45.27568" lon="4.66337">
        <ele>520.59997558594</ele>
        <time>2026-05-12T12:18:47.000Z</time>
      </trkpt>
      <trkpt lat="45.27569" lon="4.66339">
        <ele>520.79998779297</ele>
        <time>2026-05-12T12:18:48.000Z</time>
      </trkpt>
      <trkpt lat="45.27569" lon="4.66341">
        <ele>521</ele>
        <time>2026-05-12T12:18:49.000Z</time>
      </trkpt>
      <trkpt lat="45.27569" lon="4.66343">
        <ele>521.20001220703</ele>
        <time>2026-05-12T12:18:50.000Z</time>
      </trkpt>
      <trkpt lat="45.27569" lon="4.66345">
        <ele>521.40002441406</ele>
        <time>2026-05-12T12:18:51.000Z</time>
      </trkpt>
      <trkpt lat="45.2757" lon="4.66348">
        <ele>521.59997558594</ele>
        <time>2026-05-12T12:18:52.000Z</time>
      </trkpt>
      <trkpt lat="45.2757" lon="4.6635">
        <ele>521.79998779297</ele>
        <time>2026-05-12T12:18:53.000Z</time>
      </trkpt>
      <trkpt lat="45.2757" lon="4.66352">
        <ele>522.20001220703</ele>
        <time>2026-05-12T12:18:54.000Z</time>
      </trkpt>
      <trkpt lat="45.2757" lon="4.66355">
        <ele>522.40002441406</ele>
        <time>2026-05-12T12:18:55.000Z</time>
      </trkpt>
      <trkpt lat="45.2757" lon="4.66357">
        <ele>522.59997558594</ele>
        <time>2026-05-12T12:18:56.000Z</time>
      </trkpt>
      <trkpt lat="45.27569" lon="4.66359">
        <ele>523</ele>
        <time>2026-05-12T12:18:57.000Z</time>
      </trkpt>
      <trkpt lat="45.27569" lon="4.66361">
        <ele>523.20001220703</ele>
        <time>2026-05-12T12:18:58.000Z</time>
      </trkpt>
      <trkpt lat="45.27569" lon="4.66363">
        <ele>523.20001220703</ele>
        <time>2026-05-12T12:18:59.000Z</time>
      </trkpt>
      <trkpt lat="45.27569" lon="4.66365">
        <ele>523.40002441406</ele>
        <time>2026-05-12T12:19:00.000Z</time>
      </trkpt>
      <trkpt lat="45.27568" lon="4.66367">
        <ele>523.59997558594</ele>
        <time>2026-05-12T12:19:01.000Z</time>
      </trkpt>
      <trkpt lat="45.27568" lon="4.66369">
        <ele>523.59997558594</ele>
        <time>2026-05-12T12:19:02.000Z</time>
      </trkpt>
      <trkpt lat="45.27568" lon="4.66371">
        <ele>523.79998779297</ele>
        <time>2026-05-12T12:19:03.000Z</time>
      </trkpt>
      <trkpt lat="45.27567" lon="4.66374">
        <ele>524</ele>
        <time>2026-05-12T12:19:04.000Z</time>
      </trkpt>
      <trkpt lat="45.27567" lon="4.66376">
        <ele>524</ele>
        <time>2026-05-12T12:19:05.000Z</time>
      </trkpt>
      <trkpt lat="45.27566" lon="4.66379">
        <ele>524.20001220703</ele>
        <time>2026-05-12T12:19:06.000Z</time>
      </trkpt>
      <trkpt lat="45.27566" lon="4.66381">
        <ele>524.20001220703</ele>
        <time>2026-05-12T12:19:07.000Z</time>
      </trkpt>
      <trkpt lat="45.27565" lon="4.66383">
        <ele>524.40002441406</ele>
        <time>2026-05-12T12:19:08.000Z</time>
      </trkpt>
      <trkpt lat="45.27565" lon="4.66384">
        <ele>524.40002441406</ele>
        <time>2026-05-12T12:19:09.000Z</time>
      </trkpt>
      <trkpt lat="45.27565" lon="4.66386">
        <ele>524.40002441406</ele>
        <time>2026-05-12T12:19:10.000Z</time>
      </trkpt>
      <trkpt lat="45.27565" lon="4.66388">
        <ele>524.40002441406</ele>
        <time>2026-05-12T12:19:11.000Z</time>
      </trkpt>
      <trkpt lat="45.27564" lon="4.66391">
        <ele>524.40002441406</ele>
        <time>2026-05-12T12:19:12.000Z</time>
      </trkpt>
      <trkpt lat="45.27563" lon="4.66394">
        <ele>524.40002441406</ele>
        <time>2026-05-12T12:19:13.000Z</time>
      </trkpt>
      <trkpt lat="45.27563" lon="4.66397">
        <ele>524.20001220703</ele>
        <time>2026-05-12T12:19:14.000Z</time>
      </trkpt>
      <trkpt lat="45.27562" lon="4.664">
        <ele>524.20001220703</ele>
        <time>2026-05-12T12:19:15.000Z</time>
      </trkpt>
      <trkpt lat="45.27561" lon="4.66403">
        <ele>524.20001220703</ele>
        <time>2026-05-12T12:19:16.000Z</time>
      </trkpt>
      <trkpt lat="45.27561" lon="4.66406">
        <ele>524.20001220703</ele>
        <time>2026-05-12T12:19:17.000Z</time>
      </trkpt>
      <trkpt lat="45.2756" lon="4.66409">
        <ele>524.20001220703</ele>
        <time>2026-05-12T12:19:18.000Z</time>
      </trkpt>
      <trkpt lat="45.2756" lon="4.66413">
        <ele>524.20001220703</ele>
        <time>2026-05-12T12:19:19.000Z</time>
      </trkpt>
      <trkpt lat="45.27559" lon="4.66416">
        <ele>524.20001220703</ele>
        <time>2026-05-12T12:19:20.000Z</time>
      </trkpt>
      <trkpt lat="45.27558" lon="4.66419">
        <ele>524.20001220703</ele>
        <time>2026-05-12T12:19:21.000Z</time>
      </trkpt>
      <trkpt lat="45.27558" lon="4.66422">
        <ele>524.20001220703</ele>
        <time>2026-05-12T12:19:22.000Z</time>
      </trkpt>
      <trkpt lat="45.27557" lon="4.66425">
        <ele>524.20001220703</ele>
        <time>2026-05-12T12:19:23.000Z</time>
      </trkpt>
      <trkpt lat="45.27556" lon="4.66427">
        <ele>524.20001220703</ele>
        <time>2026-05-12T12:19:24.000Z</time>
      </trkpt>
      <trkpt lat="45.27556" lon="4.6643">
        <ele>524.20001220703</ele>
        <time>2026-05-12T12:19:25.000Z</time>
      </trkpt>
      <trkpt lat="45.27555" lon="4.66432">
        <ele>524.40002441406</ele>
        <time>2026-05-12T12:19:26.000Z</time>
      </trkpt>
      <trkpt lat="45.27555" lon="4.66435">
        <ele>524.40002441406</ele>
        <time>2026-05-12T12:19:27.000Z</time>
      </trkpt>
      <trkpt lat="45.27554" lon="4.66437">
        <ele>524.40002441406</ele>
        <time>2026-05-12T12:19:28.000Z</time>
      </trkpt>
      <trkpt lat="45.27554" lon="4.66439">
        <ele>524.40002441406</ele>
        <time>2026-05-12T12:19:29.000Z</time>
      </trkpt>
      <trkpt lat="45.27553" lon="4.66441">
        <ele>524.40002441406</ele>
        <time>2026-05-12T12:19:30.000Z</time>
      </trkpt>
      <trkpt lat="45.27552" lon="4.66444">
        <ele>524.59997558594</ele>
        <time>2026-05-12T12:19:31.000Z</time>
      </trkpt>
      <trkpt lat="45.27552" lon="4.66447">
        <ele>524.59997558594</ele>
        <time>2026-05-12T12:19:32.000Z</time>
      </trkpt>
      <trkpt lat="45.27551" lon="4.6645">
        <ele>524.79998779297</ele>
        <time>2026-05-12T12:19:33.000Z</time>
      </trkpt>
      <trkpt lat="45.27551" lon="4.66452">
        <ele>524.79998779297</ele>
        <time>2026-05-12T12:19:34.000Z</time>
      </trkpt>
      <trkpt lat="45.27551" lon="4.66455">
        <ele>525</ele>
        <time>2026-05-12T12:19:35.000Z</time>
      </trkpt>
      <trkpt lat="45.27551" lon="4.66458">
        <ele>525.20001220703</ele>
        <time>2026-05-12T12:19:36.000Z</time>
      </trkpt>
      <trkpt lat="45.27551" lon="4.66461">
        <ele>525.20001220703</ele>
        <time>2026-05-12T12:19:37.000Z</time>
      </trkpt>
      <trkpt lat="45.27551" lon="4.66464">
        <ele>525.40002441406</ele>
        <time>2026-05-12T12:19:38.000Z</time>
      </trkpt>
      <trkpt lat="45.27551" lon="4.66467">
        <ele>525.59997558594</ele>
        <time>2026-05-12T12:19:39.000Z</time>
      </trkpt>
      <trkpt lat="45.27551" lon="4.6647">
        <ele>525.79998779297</ele>
        <time>2026-05-12T12:19:40.000Z</time>
      </trkpt>
      <trkpt lat="45.27551" lon="4.66473">
        <ele>526</ele>
        <time>2026-05-12T12:19:41.000Z</time>
      </trkpt>
      <trkpt lat="45.27551" lon="4.66476">
        <ele>526.40002441406</ele>
        <time>2026-05-12T12:19:42.000Z</time>
      </trkpt>
      <trkpt lat="45.27552" lon="4.66479">
        <ele>526.59997558594</ele>
        <time>2026-05-12T12:19:43.000Z</time>
      </trkpt>
      <trkpt lat="45.27553" lon="4.66481">
        <ele>527</ele>
        <time>2026-05-12T12:19:44.000Z</time>
      </trkpt>
      <trkpt lat="45.27553" lon="4.66484">
        <ele>527.20001220703</ele>
        <time>2026-05-12T12:19:45.000Z</time>
      </trkpt>
      <trkpt lat="45.27554" lon="4.66487">
        <ele>527.59997558594</ele>
        <time>2026-05-12T12:19:46.000Z</time>
      </trkpt>
      <trkpt lat="45.27555" lon="4.66489">
        <ele>527.79998779297</ele>
        <time>2026-05-12T12:19:47.000Z</time>
      </trkpt>
      <trkpt lat="45.27555" lon="4.66491">
        <ele>528</ele>
        <time>2026-05-12T12:19:48.000Z</time>
      </trkpt>
      <trkpt lat="45.27556" lon="4.66494">
        <ele>528.20001220703</ele>
        <time>2026-05-12T12:19:49.000Z</time>
      </trkpt>
      <trkpt lat="45.27556" lon="4.66496">
        <ele>528.40002441406</ele>
        <time>2026-05-12T12:19:50.000Z</time>
      </trkpt>
      <trkpt lat="45.27557" lon="4.66499">
        <ele>528.59997558594</ele>
        <time>2026-05-12T12:19:51.000Z</time>
      </trkpt>
      <trkpt lat="45.27558" lon="4.66501">
        <ele>528.79998779297</ele>
        <time>2026-05-12T12:19:52.000Z</time>
      </trkpt>
      <trkpt lat="45.27558" lon="4.66504">
        <ele>529.20001220703</ele>
        <time>2026-05-12T12:19:53.000Z</time>
      </trkpt>
      <trkpt lat="45.27559" lon="4.66507">
        <ele>529.40002441406</ele>
        <time>2026-05-12T12:19:54.000Z</time>
      </trkpt>
      <trkpt lat="45.2756" lon="4.66509">
        <ele>529.59997558594</ele>
        <time>2026-05-12T12:19:55.000Z</time>
      </trkpt>
      <trkpt lat="45.27561" lon="4.66511">
        <ele>530</ele>
        <time>2026-05-12T12:19:56.000Z</time>
      </trkpt>
      <trkpt lat="45.27562" lon="4.66513">
        <ele>530.40002441406</ele>
        <time>2026-05-12T12:19:57.000Z</time>
      </trkpt>
      <trkpt lat="45.27563" lon="4.66515">
        <ele>530.59997558594</ele>
        <time>2026-05-12T12:19:58.000Z</time>
      </trkpt>
      <trkpt lat="45.27565" lon="4.66517">
        <ele>531</ele>
        <time>2026-05-12T12:19:59.000Z</time>
      </trkpt>
      <trkpt lat="45.27566" lon="4.66518">
        <ele>531.20001220703</ele>
        <time>2026-05-12T12:20:00.000Z</time>
      </trkpt>
      <trkpt lat="45.27567" lon="4.6652">
        <ele>531.59997558594</ele>
        <time>2026-05-12T12:20:01.000Z</time>
      </trkpt>
      <trkpt lat="45.27569" lon="4.66522">
        <ele>532</ele>
        <time>2026-05-12T12:20:02.000Z</time>
      </trkpt>
      <trkpt lat="45.2757" lon="4.66524">
        <ele>532.20001220703</ele>
        <time>2026-05-12T12:20:03.000Z</time>
      </trkpt>
      <trkpt lat="45.27571" lon="4.66526">
        <ele>532.59997558594</ele>
        <time>2026-05-12T12:20:04.000Z</time>
      </trkpt>
      <trkpt lat="45.27573" lon="4.66528">
        <ele>532.79998779297</ele>
        <time>2026-05-12T12:20:05.000Z</time>
      </trkpt>
      <trkpt lat="45.27574" lon="4.6653">
        <ele>533.20001220703</ele>
        <time>2026-05-12T12:20:06.000Z</time>
      </trkpt>
      <trkpt lat="45.27575" lon="4.66531">
        <ele>533.59997558594</ele>
        <time>2026-05-12T12:20:07.000Z</time>
      </trkpt>
      <trkpt lat="45.27577" lon="4.66533">
        <ele>534</ele>
        <time>2026-05-12T12:20:08.000Z</time>
      </trkpt>
      <trkpt lat="45.27579" lon="4.66535">
        <ele>534.40002441406</ele>
        <time>2026-05-12T12:20:09.000Z</time>
      </trkpt>
      <trkpt lat="45.27581" lon="4.66537">
        <ele>534.79998779297</ele>
        <time>2026-05-12T12:20:10.000Z</time>
      </trkpt>
      <trkpt lat="45.27582" lon="4.66539">
        <ele>535</ele>
        <time>2026-05-12T12:20:11.000Z</time>
      </trkpt>
      <trkpt lat="45.27583" lon="4.66541">
        <ele>535.40002441406</ele>
        <time>2026-05-12T12:20:12.000Z</time>
      </trkpt>
      <trkpt lat="45.27584" lon="4.66542">
        <ele>535.79998779297</ele>
        <time>2026-05-12T12:20:13.000Z</time>
      </trkpt>
      <trkpt lat="45.27586" lon="4.66543">
        <ele>536</ele>
        <time>2026-05-12T12:20:14.000Z</time>
      </trkpt>
      <trkpt lat="45.27587" lon="4.66545">
        <ele>536.20001220703</ele>
        <time>2026-05-12T12:20:15.000Z</time>
      </trkpt>
      <trkpt lat="45.27589" lon="4.66547">
        <ele>536.40002441406</ele>
        <time>2026-05-12T12:20:16.000Z</time>
      </trkpt>
      <trkpt lat="45.27591" lon="4.66548">
        <ele>536.59997558594</ele>
        <time>2026-05-12T12:20:17.000Z</time>
      </trkpt>
      <trkpt lat="45.27593" lon="4.66549">
        <ele>537</ele>
        <time>2026-05-12T12:20:18.000Z</time>
      </trkpt>
      <trkpt lat="45.27594" lon="4.6655">
        <ele>537.20001220703</ele>
        <time>2026-05-12T12:20:19.000Z</time>
      </trkpt>
      <trkpt lat="45.27596" lon="4.66551">
        <ele>537.40002441406</ele>
        <time>2026-05-12T12:20:20.000Z</time>
      </trkpt>
      <trkpt lat="45.27597" lon="4.66552">
        <ele>537.40002441406</ele>
        <time>2026-05-12T12:20:21.000Z</time>
      </trkpt>
      <trkpt lat="45.27598" lon="4.66553">
        <ele>537.59997558594</ele>
        <time>2026-05-12T12:20:22.000Z</time>
      </trkpt>
      <trkpt lat="45.27599" lon="4.66554">
        <ele>537.40002441406</ele>
        <time>2026-05-12T12:20:23.000Z</time>
      </trkpt>
      <trkpt lat="45.27601" lon="4.66555">
        <ele>537.59997558594</ele>
        <time>2026-05-12T12:20:24.000Z</time>
      </trkpt>
      <trkpt lat="45.27602" lon="4.66557">
        <ele>537.59997558594</ele>
        <time>2026-05-12T12:20:25.000Z</time>
      </trkpt>
      <trkpt lat="45.27604" lon="4.66558">
        <ele>537.59997558594</ele>
        <time>2026-05-12T12:20:26.000Z</time>
      </trkpt>
      <trkpt lat="45.27606" lon="4.6656">
        <ele>537.59997558594</ele>
        <time>2026-05-12T12:20:27.000Z</time>
      </trkpt>
      <trkpt lat="45.27607" lon="4.66562">
        <ele>537.59997558594</ele>
        <time>2026-05-12T12:20:28.000Z</time>
      </trkpt>
      <trkpt lat="45.27608" lon="4.66563">
        <ele>537.79998779297</ele>
        <time>2026-05-12T12:20:29.000Z</time>
      </trkpt>
      <trkpt lat="45.2761" lon="4.66565">
        <ele>537.79998779297</ele>
        <time>2026-05-12T12:20:30.000Z</time>
      </trkpt>
      <trkpt lat="45.27611" lon="4.66568">
        <ele>538</ele>
        <time>2026-05-12T12:20:31.000Z</time>
      </trkpt>
      <trkpt lat="45.27612" lon="4.6657">
        <ele>538.20001220703</ele>
        <time>2026-05-12T12:20:32.000Z</time>
      </trkpt>
      <trkpt lat="45.27613" lon="4.66572">
        <ele>538.40002441406</ele>
        <time>2026-05-12T12:20:33.000Z</time>
      </trkpt>
      <trkpt lat="45.27614" lon="4.66575">
        <ele>538.59997558594</ele>
        <time>2026-05-12T12:20:34.000Z</time>
      </trkpt>
      <trkpt lat="45.27615" lon="4.66576">
        <ele>538.59997558594</ele>
        <time>2026-05-12T12:20:35.000Z</time>
      </trkpt>
      <trkpt lat="45.27616" lon="4.66578">
        <ele>538.59997558594</ele>
        <time>2026-05-12T12:20:36.000Z</time>
      </trkpt>
      <trkpt lat="45.27618" lon="4.6658">
        <ele>538.79998779297</ele>
        <time>2026-05-12T12:20:37.000Z</time>
      </trkpt>
      <trkpt lat="45.27618" lon="4.66583">
        <ele>538.79998779297</ele>
        <time>2026-05-12T12:20:38.000Z</time>
      </trkpt>
      <trkpt lat="45.27619" lon="4.66585">
        <ele>539</ele>
        <time>2026-05-12T12:20:39.000Z</time>
      </trkpt>
      <trkpt lat="45.27621" lon="4.66587">
        <ele>539.20001220703</ele>
        <time>2026-05-12T12:20:40.000Z</time>
      </trkpt>
      <trkpt lat="45.27622" lon="4.66589">
        <ele>539.20001220703</ele>
        <time>2026-05-12T12:20:41.000Z</time>
      </trkpt>
      <trkpt lat="45.27623" lon="4.66591">
        <ele>539.40002441406</ele>
        <time>2026-05-12T12:20:42.000Z</time>
      </trkpt>
      <trkpt lat="45.27624" lon="4.66593">
        <ele>539.59997558594</ele>
        <time>2026-05-12T12:20:43.000Z</time>
      </trkpt>
      <trkpt lat="45.27625" lon="4.66595">
        <ele>539.59997558594</ele>
        <time>2026-05-12T12:20:44.000Z</time>
      </trkpt>
      <trkpt lat="45.27626" lon="4.66597">
        <ele>539.79998779297</ele>
        <time>2026-05-12T12:20:45.000Z</time>
      </trkpt>
      <trkpt lat="45.27628" lon="4.66599">
        <ele>540</ele>
        <time>2026-05-12T12:20:46.000Z</time>
      </trkpt>
      <trkpt lat="45.27629" lon="4.66601">
        <ele>540.20001220703</ele>
        <time>2026-05-12T12:20:47.000Z</time>
      </trkpt>
      <trkpt lat="45.27631" lon="4.66604">
        <ele>540.20001220703</ele>
        <time>2026-05-12T12:20:48.000Z</time>
      </trkpt>
      <trkpt lat="45.27632" lon="4.66606">
        <ele>540.40002441406</ele>
        <time>2026-05-12T12:20:49.000Z</time>
      </trkpt>
      <trkpt lat="45.27633" lon="4.66608">
        <ele>540.59997558594</ele>
        <time>2026-05-12T12:20:50.000Z</time>
      </trkpt>
      <trkpt lat="45.27635" lon="4.6661">
        <ele>540.79998779297</ele>
        <time>2026-05-12T12:20:51.000Z</time>
      </trkpt>
      <trkpt lat="45.27636" lon="4.66612">
        <ele>540.79998779297</ele>
        <time>2026-05-12T12:20:52.000Z</time>
      </trkpt>
      <trkpt lat="45.27637" lon="4.66615">
        <ele>540.79998779297</ele>
        <time>2026-05-12T12:20:53.000Z</time>
      </trkpt>
      <trkpt lat="45.27638" lon="4.66618">
        <ele>540.79998779297</ele>
        <time>2026-05-12T12:20:54.000Z</time>
      </trkpt>
      <trkpt lat="45.2764" lon="4.6662">
        <ele>540.79998779297</ele>
        <time>2026-05-12T12:20:55.000Z</time>
      </trkpt>
      <trkpt lat="45.27641" lon="4.66622">
        <ele>540.79998779297</ele>
        <time>2026-05-12T12:20:56.000Z</time>
      </trkpt>
      <trkpt lat="45.27642" lon="4.66624">
        <ele>541</ele>
        <time>2026-05-12T12:20:57.000Z</time>
      </trkpt>
      <trkpt lat="45.27644" lon="4.66626">
        <ele>541</ele>
        <time>2026-05-12T12:20:58.000Z</time>
      </trkpt>
      <trkpt lat="45.27646" lon="4.66629">
        <ele>541</ele>
        <time>2026-05-12T12:20:59.000Z</time>
      </trkpt>
      <trkpt lat="45.27647" lon="4.66631">
        <ele>541.20001220703</ele>
        <time>2026-05-12T12:21:00.000Z</time>
      </trkpt>
      <trkpt lat="45.27649" lon="4.66633">
        <ele>541.20001220703</ele>
        <time>2026-05-12T12:21:01.000Z</time>
      </trkpt>
      <trkpt lat="45.2765" lon="4.66635">
        <ele>541.40002441406</ele>
        <time>2026-05-12T12:21:02.000Z</time>
      </trkpt>
      <trkpt lat="45.27651" lon="4.66637">
        <ele>541.59997558594</ele>
        <time>2026-05-12T12:21:03.000Z</time>
      </trkpt>
      <trkpt lat="45.27652" lon="4.6664">
        <ele>541.59997558594</ele>
        <time>2026-05-12T12:21:04.000Z</time>
      </trkpt>
      <trkpt lat="45.27654" lon="4.66642">
        <ele>541.79998779297</ele>
        <time>2026-05-12T12:21:05.000Z</time>
      </trkpt>
      <trkpt lat="45.27657" lon="4.66643">
        <ele>542</ele>
        <time>2026-05-12T12:21:06.000Z</time>
      </trkpt>
      <trkpt lat="45.27658" lon="4.66645">
        <ele>542.20001220703</ele>
        <time>2026-05-12T12:21:07.000Z</time>
      </trkpt>
      <trkpt lat="45.2766" lon="4.66646">
        <ele>542.40002441406</ele>
        <time>2026-05-12T12:21:08.000Z</time>
      </trkpt>
      <trkpt lat="45.27662" lon="4.66648">
        <ele>542.59997558594</ele>
        <time>2026-05-12T12:21:09.000Z</time>
      </trkpt>
      <trkpt lat="45.27664" lon="4.66649">
        <ele>543</ele>
        <time>2026-05-12T12:21:10.000Z</time>
      </trkpt>
      <trkpt lat="45.27665" lon="4.66651">
        <ele>543.20001220703</ele>
        <time>2026-05-12T12:21:11.000Z</time>
      </trkpt>
      <trkpt lat="45.27666" lon="4.66653">
        <ele>543.40002441406</ele>
        <time>2026-05-12T12:21:12.000Z</time>
      </trkpt>
      <trkpt lat="45.27668" lon="4.66655">
        <ele>543.79998779297</ele>
        <time>2026-05-12T12:21:13.000Z</time>
      </trkpt>
      <trkpt lat="45.27669" lon="4.66657">
        <ele>544</ele>
        <time>2026-05-12T12:21:14.000Z</time>
      </trkpt>
      <trkpt lat="45.27671" lon="4.66659">
        <ele>544.20001220703</ele>
        <time>2026-05-12T12:21:15.000Z</time>
      </trkpt>
      <trkpt lat="45.27672" lon="4.66661">
        <ele>544.40002441406</ele>
        <time>2026-05-12T12:21:16.000Z</time>
      </trkpt>
      <trkpt lat="45.27673" lon="4.66663">
        <ele>544.59997558594</ele>
        <time>2026-05-12T12:21:17.000Z</time>
      </trkpt>
      <trkpt lat="45.27674" lon="4.66665">
        <ele>544.59997558594</ele>
        <time>2026-05-12T12:21:18.000Z</time>
      </trkpt>
      <trkpt lat="45.27675" lon="4.66667">
        <ele>544.79998779297</ele>
        <time>2026-05-12T12:21:19.000Z</time>
      </trkpt>
      <trkpt lat="45.27676" lon="4.66668">
        <ele>545</ele>
        <time>2026-05-12T12:21:20.000Z</time>
      </trkpt>
      <trkpt lat="45.27678" lon="4.6667">
        <ele>545.20001220703</ele>
        <time>2026-05-12T12:21:21.000Z</time>
      </trkpt>
      <trkpt lat="45.27679" lon="4.66672">
        <ele>545.40002441406</ele>
        <time>2026-05-12T12:21:22.000Z</time>
      </trkpt>
      <trkpt lat="45.2768" lon="4.66673">
        <ele>545.40002441406</ele>
        <time>2026-05-12T12:21:23.000Z</time>
      </trkpt>
      <trkpt lat="45.27682" lon="4.66675">
        <ele>545.40002441406</ele>
        <time>2026-05-12T12:21:24.000Z</time>
      </trkpt>
      <trkpt lat="45.27684" lon="4.66677">
        <ele>545.59997558594</ele>
        <time>2026-05-12T12:21:25.000Z</time>
      </trkpt>
      <trkpt lat="45.27685" lon="4.66678">
        <ele>545.59997558594</ele>
        <time>2026-05-12T12:21:26.000Z</time>
      </trkpt>
      <trkpt lat="45.27687" lon="4.66679">
        <ele>545.79998779297</ele>
        <time>2026-05-12T12:21:27.000Z</time>
      </trkpt>
      <trkpt lat="45.27689" lon="4.66681">
        <ele>546</ele>
        <time>2026-05-12T12:21:28.000Z</time>
      </trkpt>
      <trkpt lat="45.2769" lon="4.66682">
        <ele>546.20001220703</ele>
        <time>2026-05-12T12:21:29.000Z</time>
      </trkpt>
      <trkpt lat="45.27692" lon="4.66684">
        <ele>546.40002441406</ele>
        <time>2026-05-12T12:21:30.000Z</time>
      </trkpt>
      <trkpt lat="45.27694" lon="4.66685">
        <ele>546.59997558594</ele>
        <time>2026-05-12T12:21:31.000Z</time>
      </trkpt>
      <trkpt lat="45.27696" lon="4.66686">
        <ele>546.79998779297</ele>
        <time>2026-05-12T12:21:32.000Z</time>
      </trkpt>
      <trkpt lat="45.27697" lon="4.66688">
        <ele>546.79998779297</ele>
        <time>2026-05-12T12:21:33.000Z</time>
      </trkpt>
      <trkpt lat="45.27699" lon="4.6669">
        <ele>547</ele>
        <time>2026-05-12T12:21:34.000Z</time>
      </trkpt>
      <trkpt lat="45.27701" lon="4.66691">
        <ele>547.20001220703</ele>
        <time>2026-05-12T12:21:35.000Z</time>
      </trkpt>
      <trkpt lat="45.27702" lon="4.66692">
        <ele>547.40002441406</ele>
        <time>2026-05-12T12:21:36.000Z</time>
      </trkpt>
      <trkpt lat="45.27704" lon="4.66694">
        <ele>547.59997558594</ele>
        <time>2026-05-12T12:21:37.000Z</time>
      </trkpt>
      <trkpt lat="45.27706" lon="4.66695">
        <ele>547.79998779297</ele>
        <time>2026-05-12T12:21:38.000Z</time>
      </trkpt>
      <trkpt lat="45.27707" lon="4.66696">
        <ele>548</ele>
        <time>2026-05-12T12:21:39.000Z</time>
      </trkpt>
      <trkpt lat="45.27709" lon="4.66697">
        <ele>548.20001220703</ele>
        <time>2026-05-12T12:21:40.000Z</time>
      </trkpt>
      <trkpt lat="45.27711" lon="4.66698">
        <ele>548.40002441406</ele>
        <time>2026-05-12T12:21:41.000Z</time>
      </trkpt>
      <trkpt lat="45.27712" lon="4.667">
        <ele>548.59997558594</ele>
        <time>2026-05-12T12:21:42.000Z</time>
      </trkpt>
      <trkpt lat="45.27714" lon="4.66701">
        <ele>549</ele>
        <time>2026-05-12T12:21:43.000Z</time>
      </trkpt>
      <trkpt lat="45.27716" lon="4.66702">
        <ele>549.40002441406</ele>
        <time>2026-05-12T12:21:44.000Z</time>
      </trkpt>
      <trkpt lat="45.27718" lon="4.66703">
        <ele>549.59997558594</ele>
        <time>2026-05-12T12:21:45.000Z</time>
      </trkpt>
      <trkpt lat="45.2772" lon="4.66704">
        <ele>550</ele>
        <time>2026-05-12T12:21:46.000Z</time>
      </trkpt>
      <trkpt lat="45.27721" lon="4.66705">
        <ele>550.40002441406</ele>
        <time>2026-05-12T12:21:47.000Z</time>
      </trkpt>
      <trkpt lat="45.27723" lon="4.66706">
        <ele>550.79998779297</ele>
        <time>2026-05-12T12:21:48.000Z</time>
      </trkpt>
      <trkpt lat="45.27725" lon="4.66707">
        <ele>551</ele>
        <time>2026-05-12T12:21:49.000Z</time>
      </trkpt>
      <trkpt lat="45.27727" lon="4.66707">
        <ele>551.20001220703</ele>
        <time>2026-05-12T12:21:50.000Z</time>
      </trkpt>
      <trkpt lat="45.27729" lon="4.66707">
        <ele>551.59997558594</ele>
        <time>2026-05-12T12:21:51.000Z</time>
      </trkpt>
      <trkpt lat="45.27731" lon="4.66708">
        <ele>551.79998779297</ele>
        <time>2026-05-12T12:21:52.000Z</time>
      </trkpt>
      <trkpt lat="45.27733" lon="4.66708">
        <ele>552.20001220703</ele>
        <time>2026-05-12T12:21:53.000Z</time>
      </trkpt>
      <trkpt lat="45.27735" lon="4.66708">
        <ele>552.40002441406</ele>
        <time>2026-05-12T12:21:54.000Z</time>
      </trkpt>
      <trkpt lat="45.27738" lon="4.66708">
        <ele>552.79998779297</ele>
        <time>2026-05-12T12:21:55.000Z</time>
      </trkpt>
      <trkpt lat="45.2774" lon="4.66709">
        <ele>553</ele>
        <time>2026-05-12T12:21:56.000Z</time>
      </trkpt>
      <trkpt lat="45.27742" lon="4.6671">
        <ele>553.40002441406</ele>
        <time>2026-05-12T12:21:57.000Z</time>
      </trkpt>
      <trkpt lat="45.27743" lon="4.66711">
        <ele>553.59997558594</ele>
        <time>2026-05-12T12:21:58.000Z</time>
      </trkpt>
      <trkpt lat="45.27745" lon="4.66711">
        <ele>554</ele>
        <time>2026-05-12T12:21:59.000Z</time>
      </trkpt>
      <trkpt lat="45.27747" lon="4.66712">
        <ele>554.20001220703</ele>
        <time>2026-05-12T12:22:00.000Z</time>
      </trkpt>
      <trkpt lat="45.27749" lon="4.66713">
        <ele>554.40002441406</ele>
        <time>2026-05-12T12:22:01.000Z</time>
      </trkpt>
      <trkpt lat="45.27751" lon="4.66713">
        <ele>554.59997558594</ele>
        <time>2026-05-12T12:22:02.000Z</time>
      </trkpt>
      <trkpt lat="45.27753" lon="4.66713">
        <ele>554.79998779297</ele>
        <time>2026-05-12T12:22:03.000Z</time>
      </trkpt>
      <trkpt lat="45.27755" lon="4.66713">
        <ele>555</ele>
        <time>2026-05-12T12:22:04.000Z</time>
      </trkpt>
      <trkpt lat="45.27757" lon="4.66713">
        <ele>555.20001220703</ele>
        <time>2026-05-12T12:22:05.000Z</time>
      </trkpt>
      <trkpt lat="45.27759" lon="4.66714">
        <ele>555.40002441406</ele>
        <time>2026-05-12T12:22:06.000Z</time>
      </trkpt>
      <trkpt lat="45.27761" lon="4.66714">
        <ele>555.59997558594</ele>
        <time>2026-05-12T12:22:07.000Z</time>
      </trkpt>
      <trkpt lat="45.27763" lon="4.66715">
        <ele>555.79998779297</ele>
        <time>2026-05-12T12:22:08.000Z</time>
      </trkpt>
      <trkpt lat="45.27764" lon="4.66715">
        <ele>556</ele>
        <time>2026-05-12T12:22:09.000Z</time>
      </trkpt>
      <trkpt lat="45.27766" lon="4.66716">
        <ele>556.20001220703</ele>
        <time>2026-05-12T12:22:10.000Z</time>
      </trkpt>
      <trkpt lat="45.27768" lon="4.66716">
        <ele>556.59997558594</ele>
        <time>2026-05-12T12:22:11.000Z</time>
      </trkpt>
      <trkpt lat="45.2777" lon="4.66717">
        <ele>556.79998779297</ele>
        <time>2026-05-12T12:22:12.000Z</time>
      </trkpt>
      <trkpt lat="45.27771" lon="4.66717">
        <ele>557</ele>
        <time>2026-05-12T12:22:13.000Z</time>
      </trkpt>
      <trkpt lat="45.27773" lon="4.66718">
        <ele>557.40002441406</ele>
        <time>2026-05-12T12:22:14.000Z</time>
      </trkpt>
      <trkpt lat="45.27775" lon="4.66718">
        <ele>557.59997558594</ele>
        <time>2026-05-12T12:22:15.000Z</time>
      </trkpt>
      <trkpt lat="45.27776" lon="4.66719">
        <ele>557.79998779297</ele>
        <time>2026-05-12T12:22:16.000Z</time>
      </trkpt>
      <trkpt lat="45.27778" lon="4.6672">
        <ele>558</ele>
        <time>2026-05-12T12:22:17.000Z</time>
      </trkpt>
      <trkpt lat="45.27779" lon="4.66721">
        <ele>558.20001220703</ele>
        <time>2026-05-12T12:22:18.000Z</time>
      </trkpt>
      <trkpt lat="45.2778" lon="4.66721">
        <ele>558.59997558594</ele>
        <time>2026-05-12T12:22:19.000Z</time>
      </trkpt>
      <trkpt lat="45.27781" lon="4.66721">
        <ele>558.79998779297</ele>
        <time>2026-05-12T12:22:20.000Z</time>
      </trkpt>
      <trkpt lat="45.27781" lon="4.66721">
        <ele>559</ele>
        <time>2026-05-12T12:22:21.000Z</time>
      </trkpt>
      <trkpt lat="45.27781" lon="4.66721">
        <ele>559</ele>
        <time>2026-05-12T12:22:22.000Z</time>
      </trkpt>
      <trkpt lat="45.27792" lon="4.66722">
        <ele>561.40002441406</ele>
        <time>2026-05-12T12:25:19.000Z</time>
      </trkpt>
      <trkpt lat="45.27794" lon="4.66723">
        <ele>561.40002441406</ele>
        <time>2026-05-12T12:25:20.000Z</time>
      </trkpt>
      <trkpt lat="45.27795" lon="4.66723">
        <ele>561.40002441406</ele>
        <time>2026-05-12T12:25:21.000Z</time>
      </trkpt>
      <trkpt lat="45.27797" lon="4.66723">
        <ele>561.40002441406</ele>
        <time>2026-05-12T12:25:22.000Z</time>
      </trkpt>
      <trkpt lat="45.27799" lon="4.66724">
        <ele>561.40002441406</ele>
        <time>2026-05-12T12:25:23.000Z</time>
      </trkpt>
      <trkpt lat="45.27801" lon="4.66724">
        <ele>561.59997558594</ele>
        <time>2026-05-12T12:25:24.000Z</time>
      </trkpt>
      <trkpt lat="45.27802" lon="4.66724">
        <ele>561.79998779297</ele>
        <time>2026-05-12T12:25:25.000Z</time>
      </trkpt>
      <trkpt lat="45.27804" lon="4.66725">
        <ele>562</ele>
        <time>2026-05-12T12:25:26.000Z</time>
      </trkpt>
      <trkpt lat="45.27806" lon="4.66725">
        <ele>562.20001220703</ele>
        <time>2026-05-12T12:25:27.000Z</time>
      </trkpt>
      <trkpt lat="45.27808" lon="4.66726">
        <ele>562.40002441406</ele>
        <time>2026-05-12T12:25:28.000Z</time>
      </trkpt>
      <trkpt lat="45.2781" lon="4.66726">
        <ele>562.59997558594</ele>
        <time>2026-05-12T12:25:29.000Z</time>
      </trkpt>
      <trkpt lat="45.27813" lon="4.66727">
        <ele>562.79998779297</ele>
        <time>2026-05-12T12:25:30.000Z</time>
      </trkpt>
      <trkpt lat="45.27815" lon="4.66727">
        <ele>563</ele>
        <time>2026-05-12T12:25:31.000Z</time>
      </trkpt>
      <trkpt lat="45.27818" lon="4.66727">
        <ele>563.40002441406</ele>
        <time>2026-05-12T12:25:32.000Z</time>
      </trkpt>
      <trkpt lat="45.2782" lon="4.66727">
        <ele>563.59997558594</ele>
        <time>2026-05-12T12:25:33.000Z</time>
      </trkpt>
      <trkpt lat="45.27822" lon="4.66727">
        <ele>564</ele>
        <time>2026-05-12T12:25:34.000Z</time>
      </trkpt>
      <trkpt lat="45.27824" lon="4.66727">
        <ele>564.20001220703</ele>
        <time>2026-05-12T12:25:35.000Z</time>
      </trkpt>
      <trkpt lat="45.27826" lon="4.66727">
        <ele>564.59997558594</ele>
        <time>2026-05-12T12:25:36.000Z</time>
      </trkpt>
      <trkpt lat="45.27828" lon="4.66727">
        <ele>565</ele>
        <time>2026-05-12T12:25:37.000Z</time>
      </trkpt>
      <trkpt lat="45.2783" lon="4.66727">
        <ele>565.20001220703</ele>
        <time>2026-05-12T12:25:38.000Z</time>
      </trkpt>
      <trkpt lat="45.27832" lon="4.66728">
        <ele>565.40002441406</ele>
        <time>2026-05-12T12:25:39.000Z</time>
      </trkpt>
      <trkpt lat="45.27834" lon="4.66727">
        <ele>565.59997558594</ele>
        <time>2026-05-12T12:25:40.000Z</time>
      </trkpt>
      <trkpt lat="45.27836" lon="4.66727">
        <ele>565.59997558594</ele>
        <time>2026-05-12T12:25:41.000Z</time>
      </trkpt>
      <trkpt lat="45.27838" lon="4.66727">
        <ele>565.79998779297</ele>
        <time>2026-05-12T12:25:42.000Z</time>
      </trkpt>
      <trkpt lat="45.2784" lon="4.66727">
        <ele>565.79998779297</ele>
        <time>2026-05-12T12:25:43.000Z</time>
      </trkpt>
      <trkpt lat="45.27842" lon="4.66727">
        <ele>566</ele>
        <time>2026-05-12T12:25:44.000Z</time>
      </trkpt>
      <trkpt lat="45.27844" lon="4.66727">
        <ele>566</ele>
        <time>2026-05-12T12:25:45.000Z</time>
      </trkpt>
      <trkpt lat="45.27846" lon="4.66727">
        <ele>566.20001220703</ele>
        <time>2026-05-12T12:25:46.000Z</time>
      </trkpt>
      <trkpt lat="45.27847" lon="4.66727">
        <ele>566.40002441406</ele>
        <time>2026-05-12T12:25:47.000Z</time>
      </trkpt>
      <trkpt lat="45.27849" lon="4.66727">
        <ele>566.59997558594</ele>
        <time>2026-05-12T12:25:48.000Z</time>
      </trkpt>
      <trkpt lat="45.27851" lon="4.66727">
        <ele>566.79998779297</ele>
        <time>2026-05-12T12:25:49.000Z</time>
      </trkpt>
      <trkpt lat="45.27852" lon="4.66728">
        <ele>567.20001220703</ele>
        <time>2026-05-12T12:25:50.000Z</time>
      </trkpt>
      <trkpt lat="45.27855" lon="4.66727">
        <ele>567.40002441406</ele>
        <time>2026-05-12T12:25:51.000Z</time>
      </trkpt>
      <trkpt lat="45.27857" lon="4.66727">
        <ele>567.59997558594</ele>
        <time>2026-05-12T12:25:52.000Z</time>
      </trkpt>
      <trkpt lat="45.27859" lon="4.66727">
        <ele>568</ele>
        <time>2026-05-12T12:25:53.000Z</time>
      </trkpt>
      <trkpt lat="45.2786" lon="4.66727">
        <ele>568.20001220703</ele>
        <time>2026-05-12T12:25:54.000Z</time>
      </trkpt>
      <trkpt lat="45.27862" lon="4.66726">
        <ele>568.40002441406</ele>
        <time>2026-05-12T12:25:55.000Z</time>
      </trkpt>
      <trkpt lat="45.27864" lon="4.66726">
        <ele>568.59997558594</ele>
        <time>2026-05-12T12:25:56.000Z</time>
      </trkpt>
      <trkpt lat="45.27865" lon="4.66725">
        <ele>568.79998779297</ele>
        <time>2026-05-12T12:25:57.000Z</time>
      </trkpt>
      <trkpt lat="45.27866" lon="4.66725">
        <ele>569.20001220703</ele>
        <time>2026-05-12T12:25:58.000Z</time>
      </trkpt>
      <trkpt lat="45.27868" lon="4.66725">
        <ele>569.40002441406</ele>
        <time>2026-05-12T12:25:59.000Z</time>
      </trkpt>
      <trkpt lat="45.27869" lon="4.66724">
        <ele>569.59997558594</ele>
        <time>2026-05-12T12:26:00.000Z</time>
      </trkpt>
      <trkpt lat="45.2787" lon="4.66724">
        <ele>569.79998779297</ele>
        <time>2026-05-12T12:26:01.000Z</time>
      </trkpt>
      <trkpt lat="45.27871" lon="4.66724">
        <ele>570</ele>
        <time>2026-05-12T12:26:02.000Z</time>
      </trkpt>
      <trkpt lat="45.27873" lon="4.66723">
        <ele>570.20001220703</ele>
        <time>2026-05-12T12:26:03.000Z</time>
      </trkpt>
      <trkpt lat="45.27875" lon="4.66724">
        <ele>570.40002441406</ele>
        <time>2026-05-12T12:26:04.000Z</time>
      </trkpt>
      <trkpt lat="45.27877" lon="4.66724">
        <ele>570.40002441406</ele>
        <time>2026-05-12T12:26:05.000Z</time>
      </trkpt>
      <trkpt lat="45.27878" lon="4.66724">
        <ele>570.40002441406</ele>
        <time>2026-05-12T12:26:06.000Z</time>
      </trkpt>
      <trkpt lat="45.27879" lon="4.66723">
        <ele>570.59997558594</ele>
        <time>2026-05-12T12:26:07.000Z</time>
      </trkpt>
      <trkpt lat="45.2788" lon="4.66723">
        <ele>570.79998779297</ele>
        <time>2026-05-12T12:26:08.000Z</time>
      </trkpt>
      <trkpt lat="45.27882" lon="4.66723">
        <ele>570.79998779297</ele>
        <time>2026-05-12T12:26:09.000Z</time>
      </trkpt>
      <trkpt lat="45.27883" lon="4.66722">
        <ele>571</ele>
        <time>2026-05-12T12:26:10.000Z</time>
      </trkpt>
      <trkpt lat="45.27884" lon="4.66722">
        <ele>571.20001220703</ele>
        <time>2026-05-12T12:26:11.000Z</time>
      </trkpt>
      <trkpt lat="45.27886" lon="4.66722">
        <ele>571.40002441406</ele>
        <time>2026-05-12T12:26:12.000Z</time>
      </trkpt>
      <trkpt lat="45.27887" lon="4.66722">
        <ele>571.59997558594</ele>
        <time>2026-05-12T12:26:13.000Z</time>
      </trkpt>
      <trkpt lat="45.27889" lon="4.66721">
        <ele>571.59997558594</ele>
        <time>2026-05-12T12:26:14.000Z</time>
      </trkpt>
      <trkpt lat="45.2789" lon="4.66721">
        <ele>572</ele>
        <time>2026-05-12T12:26:15.000Z</time>
      </trkpt>
      <trkpt lat="45.27892" lon="4.66721">
        <ele>572.20001220703</ele>
        <time>2026-05-12T12:26:16.000Z</time>
      </trkpt>
      <trkpt lat="45.27893" lon="4.66721">
        <ele>572.59997558594</ele>
        <time>2026-05-12T12:26:17.000Z</time>
      </trkpt>
      <trkpt lat="45.27895" lon="4.66721">
        <ele>572.79998779297</ele>
        <time>2026-05-12T12:26:18.000Z</time>
      </trkpt>
      <trkpt lat="45.27896" lon="4.66721">
        <ele>572.79998779297</ele>
        <time>2026-05-12T12:26:19.000Z</time>
      </trkpt>
      <trkpt lat="45.27898" lon="4.66721">
        <ele>572.79998779297</ele>
        <time>2026-05-12T12:26:20.000Z</time>
      </trkpt>
      <trkpt lat="45.27899" lon="4.6672">
        <ele>572.79998779297</ele>
        <time>2026-05-12T12:26:21.000Z</time>
      </trkpt>
      <trkpt lat="45.27901" lon="4.6672">
        <ele>573</ele>
        <time>2026-05-12T12:26:22.000Z</time>
      </trkpt>
      <trkpt lat="45.27902" lon="4.6672">
        <ele>573</ele>
        <time>2026-05-12T12:26:23.000Z</time>
      </trkpt>
      <trkpt lat="45.27903" lon="4.6672">
        <ele>573.20001220703</ele>
        <time>2026-05-12T12:26:24.000Z</time>
      </trkpt>
      <trkpt lat="45.27905" lon="4.6672">
        <ele>573.40002441406</ele>
        <time>2026-05-12T12:26:25.000Z</time>
      </trkpt>
      <trkpt lat="45.27907" lon="4.6672">
        <ele>573.59997558594</ele>
        <time>2026-05-12T12:26:26.000Z</time>
      </trkpt>
      <trkpt lat="45.27908" lon="4.66719">
        <ele>573.79998779297</ele>
        <time>2026-05-12T12:26:27.000Z</time>
      </trkpt>
      <trkpt lat="45.2791" lon="4.6672">
        <ele>573.79998779297</ele>
        <time>2026-05-12T12:26:28.000Z</time>
      </trkpt>
      <trkpt lat="45.27911" lon="4.6672">
        <ele>574</ele>
        <time>2026-05-12T12:26:29.000Z</time>
      </trkpt>
      <trkpt lat="45.27913" lon="4.66719">
        <ele>574.20001220703</ele>
        <time>2026-05-12T12:26:30.000Z</time>
      </trkpt>
      <trkpt lat="45.27914" lon="4.66719">
        <ele>574.40002441406</ele>
        <time>2026-05-12T12:26:31.000Z</time>
      </trkpt>
      <trkpt lat="45.27916" lon="4.66718">
        <ele>574.59997558594</ele>
        <time>2026-05-12T12:26:32.000Z</time>
      </trkpt>
      <trkpt lat="45.27917" lon="4.66718">
        <ele>574.79998779297</ele>
        <time>2026-05-12T12:26:33.000Z</time>
      </trkpt>
      <trkpt lat="45.27919" lon="4.66719">
        <ele>574.79998779297</ele>
        <time>2026-05-12T12:26:34.000Z</time>
      </trkpt>
      <trkpt lat="45.2792" lon="4.66719">
        <ele>575</ele>
        <time>2026-05-12T12:26:35.000Z</time>
      </trkpt>
      <trkpt lat="45.27921" lon="4.66718">
        <ele>575.20001220703</ele>
        <time>2026-05-12T12:26:36.000Z</time>
      </trkpt>
      <trkpt lat="45.27922" lon="4.66717">
        <ele>575.40002441406</ele>
        <time>2026-05-12T12:26:37.000Z</time>
      </trkpt>
      <trkpt lat="45.27923" lon="4.66716">
        <ele>575.59997558594</ele>
        <time>2026-05-12T12:26:38.000Z</time>
      </trkpt>
      <trkpt lat="45.27924" lon="4.66715">
        <ele>575.79998779297</ele>
        <time>2026-05-12T12:26:39.000Z</time>
      </trkpt>
      <trkpt lat="45.27925" lon="4.66715">
        <ele>575.79998779297</ele>
        <time>2026-05-12T12:26:40.000Z</time>
      </trkpt>
      <trkpt lat="45.27927" lon="4.66714">
        <ele>576</ele>
        <time>2026-05-12T12:26:41.000Z</time>
      </trkpt>
      <trkpt lat="45.27928" lon="4.66714">
        <ele>576.20001220703</ele>
        <time>2026-05-12T12:26:42.000Z</time>
      </trkpt>
      <trkpt lat="45.2793" lon="4.66714">
        <ele>576.40002441406</ele>
        <time>2026-05-12T12:26:43.000Z</time>
      </trkpt>
      <trkpt lat="45.27931" lon="4.66714">
        <ele>576.40002441406</ele>
        <time>2026-05-12T12:26:44.000Z</time>
      </trkpt>
      <trkpt lat="45.27932" lon="4.66713">
        <ele>576.59997558594</ele>
        <time>2026-05-12T12:26:45.000Z</time>
      </trkpt>
      <trkpt lat="45.27933" lon="4.66713">
        <ele>576.79998779297</ele>
        <time>2026-05-12T12:26:46.000Z</time>
      </trkpt>
      <trkpt lat="45.27935" lon="4.66712">
        <ele>577</ele>
        <time>2026-05-12T12:26:47.000Z</time>
      </trkpt>
      <trkpt lat="45.27937" lon="4.66713">
        <ele>577</ele>
        <time>2026-05-12T12:26:48.000Z</time>
      </trkpt>
      <trkpt lat="45.27938" lon="4.66713">
        <ele>577.20001220703</ele>
        <time>2026-05-12T12:26:49.000Z</time>
      </trkpt>
      <trkpt lat="45.27939" lon="4.66713">
        <ele>577.40002441406</ele>
        <time>2026-05-12T12:26:50.000Z</time>
      </trkpt>
      <trkpt lat="45.27941" lon="4.66713">
        <ele>577.59997558594</ele>
        <time>2026-05-12T12:26:51.000Z</time>
      </trkpt>
      <trkpt lat="45.27942" lon="4.66713">
        <ele>577.79998779297</ele>
        <time>2026-05-12T12:26:52.000Z</time>
      </trkpt>
      <trkpt lat="45.27944" lon="4.66713">
        <ele>578</ele>
        <time>2026-05-12T12:26:53.000Z</time>
      </trkpt>
      <trkpt lat="45.27946" lon="4.66713">
        <ele>578.20001220703</ele>
        <time>2026-05-12T12:26:54.000Z</time>
      </trkpt>
      <trkpt lat="45.27947" lon="4.66712">
        <ele>578.40002441406</ele>
        <time>2026-05-12T12:26:55.000Z</time>
      </trkpt>
      <trkpt lat="45.27949" lon="4.66712">
        <ele>578.59997558594</ele>
        <time>2026-05-12T12:26:56.000Z</time>
      </trkpt>
      <trkpt lat="45.2795" lon="4.66711">
        <ele>578.79998779297</ele>
        <time>2026-05-12T12:26:57.000Z</time>
      </trkpt>
      <trkpt lat="45.27951" lon="4.66711">
        <ele>579.20001220703</ele>
        <time>2026-05-12T12:26:58.000Z</time>
      </trkpt>
      <trkpt lat="45.27953" lon="4.66711">
        <ele>579.40002441406</ele>
        <time>2026-05-12T12:26:59.000Z</time>
      </trkpt>
      <trkpt lat="45.27954" lon="4.66711">
        <ele>579.59997558594</ele>
        <time>2026-05-12T12:27:00.000Z</time>
      </trkpt>
      <trkpt lat="45.27956" lon="4.66712">
        <ele>579.79998779297</ele>
        <time>2026-05-12T12:27:01.000Z</time>
      </trkpt>
      <trkpt lat="45.27957" lon="4.66712">
        <ele>580</ele>
        <time>2026-05-12T12:27:02.000Z</time>
      </trkpt>
      <trkpt lat="45.27958" lon="4.66712">
        <ele>580.20001220703</ele>
        <time>2026-05-12T12:27:03.000Z</time>
      </trkpt>
      <trkpt lat="45.2796" lon="4.66713">
        <ele>580.40002441406</ele>
        <time>2026-05-12T12:27:04.000Z</time>
      </trkpt>
      <trkpt lat="45.27961" lon="4.66713">
        <ele>580.40002441406</ele>
        <time>2026-05-12T12:27:05.000Z</time>
      </trkpt>
      <trkpt lat="45.27962" lon="4.66713">
        <ele>580.59997558594</ele>
        <time>2026-05-12T12:27:06.000Z</time>
      </trkpt>
      <trkpt lat="45.27964" lon="4.66713">
        <ele>580.59997558594</ele>
        <time>2026-05-12T12:27:07.000Z</time>
      </trkpt>
      <trkpt lat="45.27966" lon="4.66714">
        <ele>580.79998779297</ele>
        <time>2026-05-12T12:27:08.000Z</time>
      </trkpt>
      <trkpt lat="45.27967" lon="4.66714">
        <ele>581</ele>
        <time>2026-05-12T12:27:09.000Z</time>
      </trkpt>
      <trkpt lat="45.27969" lon="4.66714">
        <ele>581.20001220703</ele>
        <time>2026-05-12T12:27:10.000Z</time>
      </trkpt>
      <trkpt lat="45.2797" lon="4.66714">
        <ele>581.40002441406</ele>
        <time>2026-05-12T12:27:11.000Z</time>
      </trkpt>
      <trkpt lat="45.27972" lon="4.66714">
        <ele>581.40002441406</ele>
        <time>2026-05-12T12:27:12.000Z</time>
      </trkpt>
      <trkpt lat="45.27974" lon="4.66714">
        <ele>581.59997558594</ele>
        <time>2026-05-12T12:27:13.000Z</time>
      </trkpt>
      <trkpt lat="45.27975" lon="4.66715">
        <ele>581.79998779297</ele>
        <time>2026-05-12T12:27:14.000Z</time>
      </trkpt>
      <trkpt lat="45.27977" lon="4.66715">
        <ele>582</ele>
        <time>2026-05-12T12:27:15.000Z</time>
      </trkpt>
      <trkpt lat="45.27978" lon="4.66715">
        <ele>582.20001220703</ele>
        <time>2026-05-12T12:27:16.000Z</time>
      </trkpt>
      <trkpt lat="45.2798" lon="4.66714">
        <ele>582.40002441406</ele>
        <time>2026-05-12T12:27:17.000Z</time>
      </trkpt>
      <trkpt lat="45.27982" lon="4.66714">
        <ele>582.59997558594</ele>
        <time>2026-05-12T12:27:18.000Z</time>
      </trkpt>
      <trkpt lat="45.27983" lon="4.66714">
        <ele>582.79998779297</ele>
        <time>2026-05-12T12:27:19.000Z</time>
      </trkpt>
      <trkpt lat="45.27985" lon="4.66713">
        <ele>583.20001220703</ele>
        <time>2026-05-12T12:27:20.000Z</time>
      </trkpt>
      <trkpt lat="45.27987" lon="4.66713">
        <ele>583.40002441406</ele>
        <time>2026-05-12T12:27:21.000Z</time>
      </trkpt>
      <trkpt lat="45.27988" lon="4.66713">
        <ele>583.59997558594</ele>
        <time>2026-05-12T12:27:22.000Z</time>
      </trkpt>
      <trkpt lat="45.27989" lon="4.66713">
        <ele>583.59997558594</ele>
        <time>2026-05-12T12:27:23.000Z</time>
      </trkpt>
      <trkpt lat="45.27991" lon="4.66712">
        <ele>583.79998779297</ele>
        <time>2026-05-12T12:27:24.000Z</time>
      </trkpt>
      <trkpt lat="45.27992" lon="4.66711">
        <ele>584</ele>
        <time>2026-05-12T12:27:25.000Z</time>
      </trkpt>
      <trkpt lat="45.27993" lon="4.6671">
        <ele>584</ele>
        <time>2026-05-12T12:27:26.000Z</time>
      </trkpt>
      <trkpt lat="45.27995" lon="4.66709">
        <ele>584.20001220703</ele>
        <time>2026-05-12T12:27:27.000Z</time>
      </trkpt>
      <trkpt lat="45.27996" lon="4.66709">
        <ele>584.40002441406</ele>
        <time>2026-05-12T12:27:28.000Z</time>
      </trkpt>
      <trkpt lat="45.27997" lon="4.66708">
        <ele>584.79998779297</ele>
        <time>2026-05-12T12:27:29.000Z</time>
      </trkpt>
      <trkpt lat="45.27999" lon="4.66708">
        <ele>585</ele>
        <time>2026-05-12T12:27:30.000Z</time>
      </trkpt>
      <trkpt lat="45.28001" lon="4.66708">
        <ele>585.20001220703</ele>
        <time>2026-05-12T12:27:31.000Z</time>
      </trkpt>
      <trkpt lat="45.28003" lon="4.66707">
        <ele>585.59997558594</ele>
        <time>2026-05-12T12:27:32.000Z</time>
      </trkpt>
      <trkpt lat="45.28004" lon="4.66706">
        <ele>585.79998779297</ele>
        <time>2026-05-12T12:27:33.000Z</time>
      </trkpt>
      <trkpt lat="45.28006" lon="4.66706">
        <ele>586</ele>
        <time>2026-05-12T12:27:34.000Z</time>
      </trkpt>
      <trkpt lat="45.28008" lon="4.66705">
        <ele>586.20001220703</ele>
        <time>2026-05-12T12:27:35.000Z</time>
      </trkpt>
      <trkpt lat="45.28009" lon="4.66705">
        <ele>586.40002441406</ele>
        <time>2026-05-12T12:27:36.000Z</time>
      </trkpt>
      <trkpt lat="45.28011" lon="4.66705">
        <ele>586.59997558594</ele>
        <time>2026-05-12T12:27:37.000Z</time>
      </trkpt>
      <trkpt lat="45.28012" lon="4.66705">
        <ele>586.79998779297</ele>
        <time>2026-05-12T12:27:38.000Z</time>
      </trkpt>
      <trkpt lat="45.28014" lon="4.66705">
        <ele>587</ele>
        <time>2026-05-12T12:27:39.000Z</time>
      </trkpt>
      <trkpt lat="45.28016" lon="4.66705">
        <ele>587.20001220703</ele>
        <time>2026-05-12T12:27:40.000Z</time>
      </trkpt>
      <trkpt lat="45.28018" lon="4.66705">
        <ele>587.20001220703</ele>
        <time>2026-05-12T12:27:41.000Z</time>
      </trkpt>
      <trkpt lat="45.2802" lon="4.66705">
        <ele>587.40002441406</ele>
        <time>2026-05-12T12:27:42.000Z</time>
      </trkpt>
      <trkpt lat="45.28022" lon="4.66705">
        <ele>587.40002441406</ele>
        <time>2026-05-12T12:27:43.000Z</time>
      </trkpt>
      <trkpt lat="45.28023" lon="4.66705">
        <ele>587.59997558594</ele>
        <time>2026-05-12T12:27:44.000Z</time>
      </trkpt>
      <trkpt lat="45.28025" lon="4.66705">
        <ele>587.59997558594</ele>
        <time>2026-05-12T12:27:45.000Z</time>
      </trkpt>
      <trkpt lat="45.28027" lon="4.66705">
        <ele>587.59997558594</ele>
        <time>2026-05-12T12:27:46.000Z</time>
      </trkpt>
      <trkpt lat="45.28029" lon="4.66705">
        <ele>587.79998779297</ele>
        <time>2026-05-12T12:27:47.000Z</time>
      </trkpt>
      <trkpt lat="45.2803" lon="4.66706">
        <ele>587.79998779297</ele>
        <time>2026-05-12T12:27:48.000Z</time>
      </trkpt>
      <trkpt lat="45.28032" lon="4.66706">
        <ele>588</ele>
        <time>2026-05-12T12:27:49.000Z</time>
      </trkpt>
      <trkpt lat="45.28034" lon="4.66706">
        <ele>588.20001220703</ele>
        <time>2026-05-12T12:27:50.000Z</time>
      </trkpt>
      <trkpt lat="45.28036" lon="4.66706">
        <ele>588.20001220703</ele>
        <time>2026-05-12T12:27:51.000Z</time>
      </trkpt>
      <trkpt lat="45.28038" lon="4.66707">
        <ele>588.40002441406</ele>
        <time>2026-05-12T12:27:52.000Z</time>
      </trkpt>
      <trkpt lat="45.2804" lon="4.66708">
        <ele>588.59997558594</ele>
        <time>2026-05-12T12:27:53.000Z</time>
      </trkpt>
      <trkpt lat="45.28042" lon="4.66708">
        <ele>588.79998779297</ele>
        <time>2026-05-12T12:27:54.000Z</time>
      </trkpt>
      <trkpt lat="45.28044" lon="4.66709">
        <ele>589</ele>
        <time>2026-05-12T12:27:55.000Z</time>
      </trkpt>
      <trkpt lat="45.28046" lon="4.6671">
        <ele>589.20001220703</ele>
        <time>2026-05-12T12:27:56.000Z</time>
      </trkpt>
      <trkpt lat="45.28048" lon="4.66711">
        <ele>589.20001220703</ele>
        <time>2026-05-12T12:27:57.000Z</time>
      </trkpt>
      <trkpt lat="45.28049" lon="4.66711">
        <ele>589.40002441406</ele>
        <time>2026-05-12T12:27:58.000Z</time>
      </trkpt>
      <trkpt lat="45.28051" lon="4.66712">
        <ele>589.59997558594</ele>
        <time>2026-05-12T12:27:59.000Z</time>
      </trkpt>
      <trkpt lat="45.28053" lon="4.66713">
        <ele>589.59997558594</ele>
        <time>2026-05-12T12:28:00.000Z</time>
      </trkpt>
      <trkpt lat="45.28055" lon="4.66713">
        <ele>589.79998779297</ele>
        <time>2026-05-12T12:28:01.000Z</time>
      </trkpt>
      <trkpt lat="45.28057" lon="4.66714">
        <ele>590</ele>
        <time>2026-05-12T12:28:02.000Z</time>
      </trkpt>
      <trkpt lat="45.28059" lon="4.66714">
        <ele>590</ele>
        <time>2026-05-12T12:28:03.000Z</time>
      </trkpt>
      <trkpt lat="45.28061" lon="4.66714">
        <ele>590.20001220703</ele>
        <time>2026-05-12T12:28:04.000Z</time>
      </trkpt>
      <trkpt lat="45.28063" lon="4.66715">
        <ele>590.20001220703</ele>
        <time>2026-05-12T12:28:05.000Z</time>
      </trkpt>
      <trkpt lat="45.28065" lon="4.66715">
        <ele>590.40002441406</ele>
        <time>2026-05-12T12:28:06.000Z</time>
      </trkpt>
      <trkpt lat="45.28067" lon="4.66716">
        <ele>590.40002441406</ele>
        <time>2026-05-12T12:28:07.000Z</time>
      </trkpt>
      <trkpt lat="45.2807" lon="4.66717">
        <ele>590.40002441406</ele>
        <time>2026-05-12T12:28:08.000Z</time>
      </trkpt>
      <trkpt lat="45.28072" lon="4.66718">
        <ele>590.59997558594</ele>
        <time>2026-05-12T12:28:09.000Z</time>
      </trkpt>
      <trkpt lat="45.28075" lon="4.66719">
        <ele>590.59997558594</ele>
        <time>2026-05-12T12:28:10.000Z</time>
      </trkpt>
      <trkpt lat="45.28077" lon="4.66719">
        <ele>590.79998779297</ele>
        <time>2026-05-12T12:28:11.000Z</time>
      </trkpt>
      <trkpt lat="45.2808" lon="4.6672">
        <ele>590.79998779297</ele>
        <time>2026-05-12T12:28:12.000Z</time>
      </trkpt>
      <trkpt lat="45.28082" lon="4.6672">
        <ele>591</ele>
        <time>2026-05-12T12:28:13.000Z</time>
      </trkpt>
      <trkpt lat="45.28085" lon="4.6672">
        <ele>591</ele>
        <time>2026-05-12T12:28:14.000Z</time>
      </trkpt>
      <trkpt lat="45.28087" lon="4.6672">
        <ele>591.20001220703</ele>
        <time>2026-05-12T12:28:15.000Z</time>
      </trkpt>
      <trkpt lat="45.2809" lon="4.6672">
        <ele>591.20001220703</ele>
        <time>2026-05-12T12:28:16.000Z</time>
      </trkpt>
      <trkpt lat="45.28093" lon="4.6672">
        <ele>591.40002441406</ele>
        <time>2026-05-12T12:28:17.000Z</time>
      </trkpt>
      <trkpt lat="45.28095" lon="4.6672">
        <ele>591.40002441406</ele>
        <time>2026-05-12T12:28:18.000Z</time>
      </trkpt>
      <trkpt lat="45.28097" lon="4.6672">
        <ele>591.59997558594</ele>
        <time>2026-05-12T12:28:19.000Z</time>
      </trkpt>
      <trkpt lat="45.281" lon="4.6672">
        <ele>591.59997558594</ele>
        <time>2026-05-12T12:28:20.000Z</time>
      </trkpt>
      <trkpt lat="45.28102" lon="4.66719">
        <ele>591.59997558594</ele>
        <time>2026-05-12T12:28:21.000Z</time>
      </trkpt>
      <trkpt lat="45.28105" lon="4.66719">
        <ele>591.79998779297</ele>
        <time>2026-05-12T12:28:22.000Z</time>
      </trkpt>
      <trkpt lat="45.28108" lon="4.66719">
        <ele>591.79998779297</ele>
        <time>2026-05-12T12:28:23.000Z</time>
      </trkpt>
      <trkpt lat="45.28111" lon="4.66718">
        <ele>592</ele>
        <time>2026-05-12T12:28:24.000Z</time>
      </trkpt>
      <trkpt lat="45.28113" lon="4.66718">
        <ele>592</ele>
        <time>2026-05-12T12:28:25.000Z</time>
      </trkpt>
      <trkpt lat="45.28117" lon="4.66716">
        <ele>592</ele>
        <time>2026-05-12T12:28:26.000Z</time>
      </trkpt>
      <trkpt lat="45.2812" lon="4.66715">
        <ele>592</ele>
        <time>2026-05-12T12:28:27.000Z</time>
      </trkpt>
      <trkpt lat="45.28123" lon="4.66714">
        <ele>592</ele>
        <time>2026-05-12T12:28:28.000Z</time>
      </trkpt>
      <trkpt lat="45.28126" lon="4.66712">
        <ele>591.79998779297</ele>
        <time>2026-05-12T12:28:29.000Z</time>
      </trkpt>
      <trkpt lat="45.28128" lon="4.6671">
        <ele>591.79998779297</ele>
        <time>2026-05-12T12:28:30.000Z</time>
      </trkpt>
      <trkpt lat="45.28131" lon="4.66708">
        <ele>591.79998779297</ele>
        <time>2026-05-12T12:28:31.000Z</time>
      </trkpt>
      <trkpt lat="45.28133" lon="4.66706">
        <ele>591.79998779297</ele>
        <time>2026-05-12T12:28:32.000Z</time>
      </trkpt>
      <trkpt lat="45.28135" lon="4.66704">
        <ele>591.79998779297</ele>
        <time>2026-05-12T12:28:33.000Z</time>
      </trkpt>
      <trkpt lat="45.28138" lon="4.66701">
        <ele>591.79998779297</ele>
        <time>2026-05-12T12:28:34.000Z</time>
      </trkpt>
      <trkpt lat="45.2814" lon="4.66698">
        <ele>592</ele>
        <time>2026-05-12T12:28:35.000Z</time>
      </trkpt>
      <trkpt lat="45.28142" lon="4.66695">
        <ele>592</ele>
        <time>2026-05-12T12:28:36.000Z</time>
      </trkpt>
      <trkpt lat="45.28144" lon="4.66691">
        <ele>592</ele>
        <time>2026-05-12T12:28:37.000Z</time>
      </trkpt>
      <trkpt lat="45.28146" lon="4.66688">
        <ele>592.20001220703</ele>
        <time>2026-05-12T12:28:38.000Z</time>
      </trkpt>
      <trkpt lat="45.28148" lon="4.66686">
        <ele>592.40002441406</ele>
        <time>2026-05-12T12:28:39.000Z</time>
      </trkpt>
      <trkpt lat="45.2815" lon="4.66682">
        <ele>592.59997558594</ele>
        <time>2026-05-12T12:28:40.000Z</time>
      </trkpt>
      <trkpt lat="45.28151" lon="4.6668">
        <ele>592.79998779297</ele>
        <time>2026-05-12T12:28:41.000Z</time>
      </trkpt>
      <trkpt lat="45.28152" lon="4.66677">
        <ele>593.20001220703</ele>
        <time>2026-05-12T12:28:42.000Z</time>
      </trkpt>
      <trkpt lat="45.28154" lon="4.66673">
        <ele>593.40002441406</ele>
        <time>2026-05-12T12:28:43.000Z</time>
      </trkpt>
      <trkpt lat="45.28155" lon="4.6667">
        <ele>593.59997558594</ele>
        <time>2026-05-12T12:28:44.000Z</time>
      </trkpt>
      <trkpt lat="45.28157" lon="4.66665">
        <ele>593.79998779297</ele>
        <time>2026-05-12T12:28:45.000Z</time>
      </trkpt>
      <trkpt lat="45.28158" lon="4.66662">
        <ele>594.20001220703</ele>
        <time>2026-05-12T12:28:46.000Z</time>
      </trkpt>
      <trkpt lat="45.2816" lon="4.66658">
        <ele>594.40002441406</ele>
        <time>2026-05-12T12:28:47.000Z</time>
      </trkpt>
      <trkpt lat="45.28162" lon="4.66655">
        <ele>594.59997558594</ele>
        <time>2026-05-12T12:28:48.000Z</time>
      </trkpt>
      <trkpt lat="45.28163" lon="4.66651">
        <ele>594.79998779297</ele>
        <time>2026-05-12T12:28:49.000Z</time>
      </trkpt>
      <trkpt lat="45.28166" lon="4.66649">
        <ele>595</ele>
        <time>2026-05-12T12:28:50.000Z</time>
      </trkpt>
      <trkpt lat="45.28169" lon="4.66647">
        <ele>595.20001220703</ele>
        <time>2026-05-12T12:28:51.000Z</time>
      </trkpt>
      <trkpt lat="45.28171" lon="4.66645">
        <ele>595.20001220703</ele>
        <time>2026-05-12T12:28:52.000Z</time>
      </trkpt>
      <trkpt lat="45.28174" lon="4.66643">
        <ele>595.40002441406</ele>
        <time>2026-05-12T12:28:53.000Z</time>
      </trkpt>
      <trkpt lat="45.28176" lon="4.66642">
        <ele>595.59997558594</ele>
        <time>2026-05-12T12:28:54.000Z</time>
      </trkpt>
      <trkpt lat="45.28179" lon="4.66641">
        <ele>595.59997558594</ele>
        <time>2026-05-12T12:28:55.000Z</time>
      </trkpt>
      <trkpt lat="45.28182" lon="4.66639">
        <ele>595.79998779297</ele>
        <time>2026-05-12T12:28:56.000Z</time>
      </trkpt>
      <trkpt lat="45.28185" lon="4.66637">
        <ele>596</ele>
        <time>2026-05-12T12:28:57.000Z</time>
      </trkpt>
      <trkpt lat="45.28188" lon="4.66635">
        <ele>596.20001220703</ele>
        <time>2026-05-12T12:28:58.000Z</time>
      </trkpt>
      <trkpt lat="45.2819" lon="4.66634">
        <ele>596.20001220703</ele>
        <time>2026-05-12T12:28:59.000Z</time>
      </trkpt>
      <trkpt lat="45.28193" lon="4.66633">
        <ele>596.40002441406</ele>
        <time>2026-05-12T12:29:00.000Z</time>
      </trkpt>
      <trkpt lat="45.28196" lon="4.66633">
        <ele>596.40002441406</ele>
        <time>2026-05-12T12:29:01.000Z</time>
      </trkpt>
      <trkpt lat="45.28199" lon="4.66633">
        <ele>596.59997558594</ele>
        <time>2026-05-12T12:29:02.000Z</time>
      </trkpt>
      <trkpt lat="45.28202" lon="4.66632">
        <ele>596.79998779297</ele>
        <time>2026-05-12T12:29:03.000Z</time>
      </trkpt>
      <trkpt lat="45.28205" lon="4.66632">
        <ele>597</ele>
        <time>2026-05-12T12:29:04.000Z</time>
      </trkpt>
      <trkpt lat="45.28207" lon="4.66632">
        <ele>597.20001220703</ele>
        <time>2026-05-12T12:29:05.000Z</time>
      </trkpt>
      <trkpt lat="45.2821" lon="4.66632">
        <ele>597.20001220703</ele>
        <time>2026-05-12T12:29:06.000Z</time>
      </trkpt>
      <trkpt lat="45.28213" lon="4.66631">
        <ele>597.40002441406</ele>
        <time>2026-05-12T12:29:07.000Z</time>
      </trkpt>
      <trkpt lat="45.28215" lon="4.66632">
        <ele>597.59997558594</ele>
        <time>2026-05-12T12:29:08.000Z</time>
      </trkpt>
      <trkpt lat="45.28217" lon="4.66632">
        <ele>597.79998779297</ele>
        <time>2026-05-12T12:29:09.000Z</time>
      </trkpt>
      <trkpt lat="45.2822" lon="4.66632">
        <ele>598</ele>
        <time>2026-05-12T12:29:10.000Z</time>
      </trkpt>
      <trkpt lat="45.28222" lon="4.66632">
        <ele>598.20001220703</ele>
        <time>2026-05-12T12:29:11.000Z</time>
      </trkpt>
      <trkpt lat="45.28225" lon="4.66633">
        <ele>598.40002441406</ele>
        <time>2026-05-12T12:29:12.000Z</time>
      </trkpt>
      <trkpt lat="45.28227" lon="4.66633">
        <ele>598.59997558594</ele>
        <time>2026-05-12T12:29:13.000Z</time>
      </trkpt>
      <trkpt lat="45.2823" lon="4.66632">
        <ele>598.79998779297</ele>
        <time>2026-05-12T12:29:14.000Z</time>
      </trkpt>
      <trkpt lat="45.28232" lon="4.66632">
        <ele>598.79998779297</ele>
        <time>2026-05-12T12:29:15.000Z</time>
      </trkpt>
      <trkpt lat="45.28235" lon="4.66632">
        <ele>599</ele>
        <time>2026-05-12T12:29:16.000Z</time>
      </trkpt>
      <trkpt lat="45.28238" lon="4.66632">
        <ele>599.20001220703</ele>
        <time>2026-05-12T12:29:17.000Z</time>
      </trkpt>
      <trkpt lat="45.2824" lon="4.66631">
        <ele>599.40002441406</ele>
        <time>2026-05-12T12:29:18.000Z</time>
      </trkpt>
      <trkpt lat="45.28243" lon="4.66631">
        <ele>599.59997558594</ele>
        <time>2026-05-12T12:29:19.000Z</time>
      </trkpt>
      <trkpt lat="45.28245" lon="4.6663">
        <ele>599.79998779297</ele>
        <time>2026-05-12T12:29:20.000Z</time>
      </trkpt>
      <trkpt lat="45.28248" lon="4.6663">
        <ele>599.79998779297</ele>
        <time>2026-05-12T12:29:21.000Z</time>
      </trkpt>
      <trkpt lat="45.2825" lon="4.66629">
        <ele>599.79998779297</ele>
        <time>2026-05-12T12:29:22.000Z</time>
      </trkpt>
      <trkpt lat="45.28253" lon="4.66628">
        <ele>600</ele>
        <time>2026-05-12T12:29:23.000Z</time>
      </trkpt>
      <trkpt lat="45.28254" lon="4.66627">
        <ele>600.20001220703</ele>
        <time>2026-05-12T12:29:24.000Z</time>
      </trkpt>
      <trkpt lat="45.28257" lon="4.66626">
        <ele>600.20001220703</ele>
        <time>2026-05-12T12:29:25.000Z</time>
      </trkpt>
      <trkpt lat="45.28258" lon="4.66626">
        <ele>600.40002441406</ele>
        <time>2026-05-12T12:29:26.000Z</time>
      </trkpt>
      <trkpt lat="45.2826" lon="4.66626">
        <ele>600.79998779297</ele>
        <time>2026-05-12T12:29:27.000Z</time>
      </trkpt>
      <trkpt lat="45.28263" lon="4.66626">
        <ele>601</ele>
        <time>2026-05-12T12:29:28.000Z</time>
      </trkpt>
      <trkpt lat="45.28265" lon="4.66625">
        <ele>601.20001220703</ele>
        <time>2026-05-12T12:29:29.000Z</time>
      </trkpt>
      <trkpt lat="45.28267" lon="4.66624">
        <ele>601.40002441406</ele>
        <time>2026-05-12T12:29:30.000Z</time>
      </trkpt>
      <trkpt lat="45.28268" lon="4.66623">
        <ele>601.40002441406</ele>
        <time>2026-05-12T12:29:31.000Z</time>
      </trkpt>
      <trkpt lat="45.2827" lon="4.66622">
        <ele>601.79998779297</ele>
        <time>2026-05-12T12:29:32.000Z</time>
      </trkpt>
      <trkpt lat="45.28272" lon="4.66621">
        <ele>601.79998779297</ele>
        <time>2026-05-12T12:29:33.000Z</time>
      </trkpt>
      <trkpt lat="45.28274" lon="4.66621">
        <ele>601.79998779297</ele>
        <time>2026-05-12T12:29:34.000Z</time>
      </trkpt>
      <trkpt lat="45.28276" lon="4.6662">
        <ele>601.79998779297</ele>
        <time>2026-05-12T12:29:35.000Z</time>
      </trkpt>
      <trkpt lat="45.28277" lon="4.6662">
        <ele>601.79998779297</ele>
        <time>2026-05-12T12:29:36.000Z</time>
      </trkpt>
      <trkpt lat="45.28279" lon="4.66619">
        <ele>602</ele>
        <time>2026-05-12T12:29:37.000Z</time>
      </trkpt>
      <trkpt lat="45.28281" lon="4.66617">
        <ele>602</ele>
        <time>2026-05-12T12:29:38.000Z</time>
      </trkpt>
      <trkpt lat="45.28283" lon="4.66617">
        <ele>602.20001220703</ele>
        <time>2026-05-12T12:29:39.000Z</time>
      </trkpt>
      <trkpt lat="45.28285" lon="4.66617">
        <ele>602.20001220703</ele>
        <time>2026-05-12T12:29:40.000Z</time>
      </trkpt>
      <trkpt lat="45.28287" lon="4.66616">
        <ele>602.40002441406</ele>
        <time>2026-05-12T12:29:41.000Z</time>
      </trkpt>
      <trkpt lat="45.28289" lon="4.66615">
        <ele>602.59997558594</ele>
        <time>2026-05-12T12:29:42.000Z</time>
      </trkpt>
      <trkpt lat="45.28291" lon="4.66614">
        <ele>602.59997558594</ele>
        <time>2026-05-12T12:29:43.000Z</time>
      </trkpt>
      <trkpt lat="45.28293" lon="4.66613">
        <ele>602.79998779297</ele>
        <time>2026-05-12T12:29:44.000Z</time>
      </trkpt>
      <trkpt lat="45.28294" lon="4.66613">
        <ele>602.79998779297</ele>
        <time>2026-05-12T12:29:45.000Z</time>
      </trkpt>
      <trkpt lat="45.28296" lon="4.66612">
        <ele>603</ele>
        <time>2026-05-12T12:29:46.000Z</time>
      </trkpt>
      <trkpt lat="45.28299" lon="4.66612">
        <ele>603</ele>
        <time>2026-05-12T12:29:47.000Z</time>
      </trkpt>
      <trkpt lat="45.283" lon="4.66612">
        <ele>603.20001220703</ele>
        <time>2026-05-12T12:29:48.000Z</time>
      </trkpt>
      <trkpt lat="45.28302" lon="4.66612">
        <ele>603.20001220703</ele>
        <time>2026-05-12T12:29:49.000Z</time>
      </trkpt>
      <trkpt lat="45.28304" lon="4.66611">
        <ele>603.40002441406</ele>
        <time>2026-05-12T12:29:50.000Z</time>
      </trkpt>
      <trkpt lat="45.28306" lon="4.66611">
        <ele>603.40002441406</ele>
        <time>2026-05-12T12:29:51.000Z</time>
      </trkpt>
      <trkpt lat="45.28307" lon="4.66611">
        <ele>603.59997558594</ele>
        <time>2026-05-12T12:29:52.000Z</time>
      </trkpt>
      <trkpt lat="45.28309" lon="4.6661">
        <ele>604</ele>
        <time>2026-05-12T12:29:53.000Z</time>
      </trkpt>
      <trkpt lat="45.28311" lon="4.66611">
        <ele>604.59997558594</ele>
        <time>2026-05-12T12:29:54.000Z</time>
      </trkpt>
      <trkpt lat="45.28312" lon="4.6661">
        <ele>604.59997558594</ele>
        <time>2026-05-12T12:29:55.000Z</time>
      </trkpt>
      <trkpt lat="45.28314" lon="4.6661">
        <ele>604.79998779297</ele>
        <time>2026-05-12T12:29:56.000Z</time>
      </trkpt>
      <trkpt lat="45.28316" lon="4.66609">
        <ele>604.79998779297</ele>
        <time>2026-05-12T12:29:57.000Z</time>
      </trkpt>
      <trkpt lat="45.28318" lon="4.66609">
        <ele>604.59997558594</ele>
        <time>2026-05-12T12:29:58.000Z</time>
      </trkpt>
      <trkpt lat="45.28319" lon="4.66608">
        <ele>604.59997558594</ele>
        <time>2026-05-12T12:29:59.000Z</time>
      </trkpt>
      <trkpt lat="45.28321" lon="4.66607">
        <ele>604.59997558594</ele>
        <time>2026-05-12T12:30:00.000Z</time>
      </trkpt>
      <trkpt lat="45.28323" lon="4.66607">
        <ele>604.59997558594</ele>
        <time>2026-05-12T12:30:01.000Z</time>
      </trkpt>
      <trkpt lat="45.28325" lon="4.66605">
        <ele>604.79998779297</ele>
        <time>2026-05-12T12:30:02.000Z</time>
      </trkpt>
      <trkpt lat="45.28327" lon="4.66603">
        <ele>604.79998779297</ele>
        <time>2026-05-12T12:30:03.000Z</time>
      </trkpt>
      <trkpt lat="45.28329" lon="4.66602">
        <ele>605</ele>
        <time>2026-05-12T12:30:04.000Z</time>
      </trkpt>
      <trkpt lat="45.2833" lon="4.666">
        <ele>605</ele>
        <time>2026-05-12T12:30:05.000Z</time>
      </trkpt>
      <trkpt lat="45.28331" lon="4.66598">
        <ele>605.20001220703</ele>
        <time>2026-05-12T12:30:06.000Z</time>
      </trkpt>
      <trkpt lat="45.28333" lon="4.66597">
        <ele>605.40002441406</ele>
        <time>2026-05-12T12:30:07.000Z</time>
      </trkpt>
      <trkpt lat="45.28335" lon="4.66595">
        <ele>605.59997558594</ele>
        <time>2026-05-12T12:30:08.000Z</time>
      </trkpt>
      <trkpt lat="45.28336" lon="4.66593">
        <ele>605.79998779297</ele>
        <time>2026-05-12T12:30:09.000Z</time>
      </trkpt>
      <trkpt lat="45.28337" lon="4.66592">
        <ele>606.20001220703</ele>
        <time>2026-05-12T12:30:10.000Z</time>
      </trkpt>
      <trkpt lat="45.28339" lon="4.6659">
        <ele>606.40002441406</ele>
        <time>2026-05-12T12:30:11.000Z</time>
      </trkpt>
      <trkpt lat="45.28341" lon="4.6659">
        <ele>606.59997558594</ele>
        <time>2026-05-12T12:30:12.000Z</time>
      </trkpt>
      <trkpt lat="45.28343" lon="4.6659">
        <ele>606.79998779297</ele>
        <time>2026-05-12T12:30:13.000Z</time>
      </trkpt>
      <trkpt lat="45.28344" lon="4.66591">
        <ele>607</ele>
        <time>2026-05-12T12:30:14.000Z</time>
      </trkpt>
      <trkpt lat="45.28346" lon="4.66592">
        <ele>607.20001220703</ele>
        <time>2026-05-12T12:30:15.000Z</time>
      </trkpt>
      <trkpt lat="45.28348" lon="4.66593">
        <ele>607.40002441406</ele>
        <time>2026-05-12T12:30:16.000Z</time>
      </trkpt>
      <trkpt lat="45.2835" lon="4.66594">
        <ele>607.59997558594</ele>
        <time>2026-05-12T12:30:17.000Z</time>
      </trkpt>
      <trkpt lat="45.28352" lon="4.66596">
        <ele>607.59997558594</ele>
        <time>2026-05-12T12:30:18.000Z</time>
      </trkpt>
      <trkpt lat="45.28354" lon="4.66598">
        <ele>607.59997558594</ele>
        <time>2026-05-12T12:30:19.000Z</time>
      </trkpt>
      <trkpt lat="45.28355" lon="4.66599">
        <ele>607.40002441406</ele>
        <time>2026-05-12T12:30:20.000Z</time>
      </trkpt>
      <trkpt lat="45.28357" lon="4.66601">
        <ele>607.40002441406</ele>
        <time>2026-05-12T12:30:21.000Z</time>
      </trkpt>
      <trkpt lat="45.28358" lon="4.66602">
        <ele>607.20001220703</ele>
        <time>2026-05-12T12:30:22.000Z</time>
      </trkpt>
      <trkpt lat="45.28361" lon="4.66604">
        <ele>607.20001220703</ele>
        <time>2026-05-12T12:30:23.000Z</time>
      </trkpt>
      <trkpt lat="45.28363" lon="4.66605">
        <ele>607.20001220703</ele>
        <time>2026-05-12T12:30:24.000Z</time>
      </trkpt>
      <trkpt lat="45.28365" lon="4.66607">
        <ele>607.20001220703</ele>
        <time>2026-05-12T12:30:25.000Z</time>
      </trkpt>
      <trkpt lat="45.28367" lon="4.66609">
        <ele>607.40002441406</ele>
        <time>2026-05-12T12:30:26.000Z</time>
      </trkpt>
      <trkpt lat="45.28369" lon="4.66611">
        <ele>607.40002441406</ele>
        <time>2026-05-12T12:30:27.000Z</time>
      </trkpt>
      <trkpt lat="45.28371" lon="4.66612">
        <ele>607.40002441406</ele>
        <time>2026-05-12T12:30:28.000Z</time>
      </trkpt>
      <trkpt lat="45.28373" lon="4.66614">
        <ele>607.40002441406</ele>
        <time>2026-05-12T12:30:29.000Z</time>
      </trkpt>
      <trkpt lat="45.28375" lon="4.66615">
        <ele>607.40002441406</ele>
        <time>2026-05-12T12:30:30.000Z</time>
      </trkpt>
      <trkpt lat="45.28378" lon="4.66616">
        <ele>607.40002441406</ele>
        <time>2026-05-12T12:30:31.000Z</time>
      </trkpt>
      <trkpt lat="45.2838" lon="4.66618">
        <ele>607.40002441406</ele>
        <time>2026-05-12T12:30:32.000Z</time>
      </trkpt>
      <trkpt lat="45.28382" lon="4.66619">
        <ele>607.40002441406</ele>
        <time>2026-05-12T12:30:33.000Z</time>
      </trkpt>
      <trkpt lat="45.28384" lon="4.6662">
        <ele>607.59997558594</ele>
        <time>2026-05-12T12:30:34.000Z</time>
      </trkpt>
      <trkpt lat="45.28386" lon="4.66621">
        <ele>607.79998779297</ele>
        <time>2026-05-12T12:30:35.000Z</time>
      </trkpt>
      <trkpt lat="45.28388" lon="4.66622">
        <ele>608</ele>
        <time>2026-05-12T12:30:36.000Z</time>
      </trkpt>
      <trkpt lat="45.2839" lon="4.66623">
        <ele>608.20001220703</ele>
        <time>2026-05-12T12:30:37.000Z</time>
      </trkpt>
      <trkpt lat="45.28392" lon="4.66623">
        <ele>608.59997558594</ele>
        <time>2026-05-12T12:30:38.000Z</time>
      </trkpt>
      <trkpt lat="45.28395" lon="4.66623">
        <ele>608.59997558594</ele>
        <time>2026-05-12T12:30:39.000Z</time>
      </trkpt>
      <trkpt lat="45.28397" lon="4.66624">
        <ele>608.79998779297</ele>
        <time>2026-05-12T12:30:40.000Z</time>
      </trkpt>
      <trkpt lat="45.28399" lon="4.66625">
        <ele>609</ele>
        <time>2026-05-12T12:30:41.000Z</time>
      </trkpt>
      <trkpt lat="45.28401" lon="4.66625">
        <ele>609.20001220703</ele>
        <time>2026-05-12T12:30:42.000Z</time>
      </trkpt>
      <trkpt lat="45.28402" lon="4.66626">
        <ele>609.40002441406</ele>
        <time>2026-05-12T12:30:43.000Z</time>
      </trkpt>
      <trkpt lat="45.28404" lon="4.66626">
        <ele>609.40002441406</ele>
        <time>2026-05-12T12:30:44.000Z</time>
      </trkpt>
      <trkpt lat="45.28406" lon="4.66627">
        <ele>609.59997558594</ele>
        <time>2026-05-12T12:30:45.000Z</time>
      </trkpt>
      <trkpt lat="45.28408" lon="4.66627">
        <ele>609.79998779297</ele>
        <time>2026-05-12T12:30:46.000Z</time>
      </trkpt>
      <trkpt lat="45.28409" lon="4.66627">
        <ele>610</ele>
        <time>2026-05-12T12:30:47.000Z</time>
      </trkpt>
      <trkpt lat="45.28411" lon="4.66628">
        <ele>610</ele>
        <time>2026-05-12T12:30:48.000Z</time>
      </trkpt>
      <trkpt lat="45.28413" lon="4.66628">
        <ele>610.20001220703</ele>
        <time>2026-05-12T12:30:49.000Z</time>
      </trkpt>
      <trkpt lat="45.28414" lon="4.66629">
        <ele>610.40002441406</ele>
        <time>2026-05-12T12:30:50.000Z</time>
      </trkpt>
      <trkpt lat="45.28416" lon="4.66629">
        <ele>610.40002441406</ele>
        <time>2026-05-12T12:30:51.000Z</time>
      </trkpt>
      <trkpt lat="45.28418" lon="4.66629">
        <ele>610.59997558594</ele>
        <time>2026-05-12T12:30:52.000Z</time>
      </trkpt>
      <trkpt lat="45.28419" lon="4.6663">
        <ele>610.59997558594</ele>
        <time>2026-05-12T12:30:53.000Z</time>
      </trkpt>
      <trkpt lat="45.28421" lon="4.66631">
        <ele>610.79998779297</ele>
        <time>2026-05-12T12:30:54.000Z</time>
      </trkpt>
      <trkpt lat="45.28423" lon="4.66632">
        <ele>610.79998779297</ele>
        <time>2026-05-12T12:30:55.000Z</time>
      </trkpt>
      <trkpt lat="45.28424" lon="4.66632">
        <ele>611</ele>
        <time>2026-05-12T12:30:56.000Z</time>
      </trkpt>
      <trkpt lat="45.28426" lon="4.66634">
        <ele>611.20001220703</ele>
        <time>2026-05-12T12:30:57.000Z</time>
      </trkpt>
      <trkpt lat="45.28428" lon="4.66634">
        <ele>611.40002441406</ele>
        <time>2026-05-12T12:30:58.000Z</time>
      </trkpt>
      <trkpt lat="45.28429" lon="4.66635">
        <ele>611.59997558594</ele>
        <time>2026-05-12T12:30:59.000Z</time>
      </trkpt>
      <trkpt lat="45.2843" lon="4.66636">
        <ele>612</ele>
        <time>2026-05-12T12:31:00.000Z</time>
      </trkpt>
      <trkpt lat="45.28431" lon="4.66638">
        <ele>612.20001220703</ele>
        <time>2026-05-12T12:31:01.000Z</time>
      </trkpt>
      <trkpt lat="45.28433" lon="4.66639">
        <ele>612.40002441406</ele>
        <time>2026-05-12T12:31:02.000Z</time>
      </trkpt>
      <trkpt lat="45.28434" lon="4.6664">
        <ele>612.59997558594</ele>
        <time>2026-05-12T12:31:03.000Z</time>
      </trkpt>
      <trkpt lat="45.28435" lon="4.66639">
        <ele>612.79998779297</ele>
        <time>2026-05-12T12:31:04.000Z</time>
      </trkpt>
      <trkpt lat="45.28437" lon="4.66639">
        <ele>613.20001220703</ele>
        <time>2026-05-12T12:31:05.000Z</time>
      </trkpt>
      <trkpt lat="45.28438" lon="4.66637">
        <ele>613.20001220703</ele>
        <time>2026-05-12T12:31:06.000Z</time>
      </trkpt>
      <trkpt lat="45.28439" lon="4.66636">
        <ele>613.40002441406</ele>
        <time>2026-05-12T12:31:07.000Z</time>
      </trkpt>
      <trkpt lat="45.2844" lon="4.66634">
        <ele>613.40002441406</ele>
        <time>2026-05-12T12:31:08.000Z</time>
      </trkpt>
      <trkpt lat="45.28442" lon="4.66633">
        <ele>613.40002441406</ele>
        <time>2026-05-12T12:31:09.000Z</time>
      </trkpt>
      <trkpt lat="45.28443" lon="4.66631">
        <ele>613.20001220703</ele>
        <time>2026-05-12T12:31:10.000Z</time>
      </trkpt>
      <trkpt lat="45.28445" lon="4.6663">
        <ele>613.20001220703</ele>
        <time>2026-05-12T12:31:11.000Z</time>
      </trkpt>
      <trkpt lat="45.28446" lon="4.6663">
        <ele>613.20001220703</ele>
        <time>2026-05-12T12:31:12.000Z</time>
      </trkpt>
      <trkpt lat="45.28448" lon="4.6663">
        <ele>613.20001220703</ele>
        <time>2026-05-12T12:31:13.000Z</time>
      </trkpt>
      <trkpt lat="45.2845" lon="4.66629">
        <ele>613.20001220703</ele>
        <time>2026-05-12T12:31:14.000Z</time>
      </trkpt>
      <trkpt lat="45.28453" lon="4.66629">
        <ele>613.40002441406</ele>
        <time>2026-05-12T12:31:15.000Z</time>
      </trkpt>
      <trkpt lat="45.28456" lon="4.66628">
        <ele>613.59997558594</ele>
        <time>2026-05-12T12:31:16.000Z</time>
      </trkpt>
      <trkpt lat="45.28458" lon="4.66627">
        <ele>613.59997558594</ele>
        <time>2026-05-12T12:31:17.000Z</time>
      </trkpt>
      <trkpt lat="45.2846" lon="4.66627">
        <ele>613.59997558594</ele>
        <time>2026-05-12T12:31:18.000Z</time>
      </trkpt>
      <trkpt lat="45.28461" lon="4.66626">
        <ele>613.59997558594</ele>
        <time>2026-05-12T12:31:19.000Z</time>
      </trkpt>
      <trkpt lat="45.28463" lon="4.66625">
        <ele>613.59997558594</ele>
        <time>2026-05-12T12:31:20.000Z</time>
      </trkpt>
      <trkpt lat="45.28464" lon="4.66625">
        <ele>613.59997558594</ele>
        <time>2026-05-12T12:31:21.000Z</time>
      </trkpt>
      <trkpt lat="45.28466" lon="4.66624">
        <ele>613.59997558594</ele>
        <time>2026-05-12T12:31:22.000Z</time>
      </trkpt>
      <trkpt lat="45.28468" lon="4.66623">
        <ele>613.59997558594</ele>
        <time>2026-05-12T12:31:23.000Z</time>
      </trkpt>
      <trkpt lat="45.2847" lon="4.66622">
        <ele>613.40002441406</ele>
        <time>2026-05-12T12:31:24.000Z</time>
      </trkpt>
      <trkpt lat="45.28472" lon="4.66622">
        <ele>613.40002441406</ele>
        <time>2026-05-12T12:31:25.000Z</time>
      </trkpt>
      <trkpt lat="45.28474" lon="4.66621">
        <ele>613.40002441406</ele>
        <time>2026-05-12T12:31:26.000Z</time>
      </trkpt>
      <trkpt lat="45.28476" lon="4.6662">
        <ele>613.40002441406</ele>
        <time>2026-05-12T12:31:27.000Z</time>
      </trkpt>
      <trkpt lat="45.28478" lon="4.66618">
        <ele>613.40002441406</ele>
        <time>2026-05-12T12:31:28.000Z</time>
      </trkpt>
      <trkpt lat="45.2848" lon="4.66617">
        <ele>613.40002441406</ele>
        <time>2026-05-12T12:31:29.000Z</time>
      </trkpt>
      <trkpt lat="45.28482" lon="4.66616">
        <ele>613.40002441406</ele>
        <time>2026-05-12T12:31:30.000Z</time>
      </trkpt>
      <trkpt lat="45.28484" lon="4.66615">
        <ele>613.40002441406</ele>
        <time>2026-05-12T12:31:31.000Z</time>
      </trkpt>
      <trkpt lat="45.28486" lon="4.66614">
        <ele>613.40002441406</ele>
        <time>2026-05-12T12:31:32.000Z</time>
      </trkpt>
      <trkpt lat="45.28488" lon="4.66613">
        <ele>613.59997558594</ele>
        <time>2026-05-12T12:31:33.000Z</time>
      </trkpt>
      <trkpt lat="45.28489" lon="4.66611">
        <ele>613.79998779297</ele>
        <time>2026-05-12T12:31:34.000Z</time>
      </trkpt>
      <trkpt lat="45.28491" lon="4.6661">
        <ele>613.79998779297</ele>
        <time>2026-05-12T12:31:35.000Z</time>
      </trkpt>
      <trkpt lat="45.28493" lon="4.66609">
        <ele>614</ele>
        <time>2026-05-12T12:31:36.000Z</time>
      </trkpt>
      <trkpt lat="45.28494" lon="4.66608">
        <ele>614</ele>
        <time>2026-05-12T12:31:37.000Z</time>
      </trkpt>
      <trkpt lat="45.28496" lon="4.66607">
        <ele>614</ele>
        <time>2026-05-12T12:31:38.000Z</time>
      </trkpt>
      <trkpt lat="45.28498" lon="4.66606">
        <ele>614.20001220703</ele>
        <time>2026-05-12T12:31:39.000Z</time>
      </trkpt>
      <trkpt lat="45.285" lon="4.66604">
        <ele>614.20001220703</ele>
        <time>2026-05-12T12:31:40.000Z</time>
      </trkpt>
      <trkpt lat="45.28503" lon="4.66603">
        <ele>614.40002441406</ele>
        <time>2026-05-12T12:31:41.000Z</time>
      </trkpt>
      <trkpt lat="45.28505" lon="4.66602">
        <ele>614.20001220703</ele>
        <time>2026-05-12T12:31:42.000Z</time>
      </trkpt>
      <trkpt lat="45.28507" lon="4.66601">
        <ele>614.20001220703</ele>
        <time>2026-05-12T12:31:43.000Z</time>
      </trkpt>
      <trkpt lat="45.28509" lon="4.66599">
        <ele>614.40002441406</ele>
        <time>2026-05-12T12:31:44.000Z</time>
      </trkpt>
      <trkpt lat="45.2851" lon="4.66599">
        <ele>614.59997558594</ele>
        <time>2026-05-12T12:31:45.000Z</time>
      </trkpt>
      <trkpt lat="45.28512" lon="4.66598">
        <ele>614.79998779297</ele>
        <time>2026-05-12T12:31:46.000Z</time>
      </trkpt>
      <trkpt lat="45.28514" lon="4.66596">
        <ele>615</ele>
        <time>2026-05-12T12:31:47.000Z</time>
      </trkpt>
      <trkpt lat="45.28515" lon="4.66595">
        <ele>615.20001220703</ele>
        <time>2026-05-12T12:31:48.000Z</time>
      </trkpt>
      <trkpt lat="45.28517" lon="4.66593">
        <ele>615.40002441406</ele>
        <time>2026-05-12T12:31:49.000Z</time>
      </trkpt>
      <trkpt lat="45.28518" lon="4.66592">
        <ele>615.40002441406</ele>
        <time>2026-05-12T12:31:50.000Z</time>
      </trkpt>
      <trkpt lat="45.2852" lon="4.6659">
        <ele>615.59997558594</ele>
        <time>2026-05-12T12:31:51.000Z</time>
      </trkpt>
      <trkpt lat="45.28522" lon="4.6659">
        <ele>615.59997558594</ele>
        <time>2026-05-12T12:31:52.000Z</time>
      </trkpt>
      <trkpt lat="45.28524" lon="4.66589">
        <ele>615.79998779297</ele>
        <time>2026-05-12T12:31:53.000Z</time>
      </trkpt>
      <trkpt lat="45.28526" lon="4.66588">
        <ele>616</ele>
        <time>2026-05-12T12:31:54.000Z</time>
      </trkpt>
      <trkpt lat="45.28528" lon="4.66586">
        <ele>616</ele>
        <time>2026-05-12T12:31:55.000Z</time>
      </trkpt>
      <trkpt lat="45.2853" lon="4.66585">
        <ele>616.20001220703</ele>
        <time>2026-05-12T12:31:56.000Z</time>
      </trkpt>
      <trkpt lat="45.28532" lon="4.66584">
        <ele>616.20001220703</ele>
        <time>2026-05-12T12:31:57.000Z</time>
      </trkpt>
      <trkpt lat="45.28534" lon="4.66583">
        <ele>616.20001220703</ele>
        <time>2026-05-12T12:31:58.000Z</time>
      </trkpt>
      <trkpt lat="45.28537" lon="4.66581">
        <ele>616.20001220703</ele>
        <time>2026-05-12T12:31:59.000Z</time>
      </trkpt>
      <trkpt lat="45.28539" lon="4.6658">
        <ele>616.20001220703</ele>
        <time>2026-05-12T12:32:00.000Z</time>
      </trkpt>
      <trkpt lat="45.28541" lon="4.66579">
        <ele>616.20001220703</ele>
        <time>2026-05-12T12:32:01.000Z</time>
      </trkpt>
      <trkpt lat="45.28544" lon="4.66577">
        <ele>616.40002441406</ele>
        <time>2026-05-12T12:32:02.000Z</time>
      </trkpt>
      <trkpt lat="45.28546" lon="4.66576">
        <ele>616.40002441406</ele>
        <time>2026-05-12T12:32:03.000Z</time>
      </trkpt>
      <trkpt lat="45.28548" lon="4.66575">
        <ele>616.59997558594</ele>
        <time>2026-05-12T12:32:04.000Z</time>
      </trkpt>
      <trkpt lat="45.28551" lon="4.66574">
        <ele>616.59997558594</ele>
        <time>2026-05-12T12:32:05.000Z</time>
      </trkpt>
      <trkpt lat="45.28553" lon="4.66573">
        <ele>616.59997558594</ele>
        <time>2026-05-12T12:32:06.000Z</time>
      </trkpt>
      <trkpt lat="45.28556" lon="4.66571">
        <ele>616.59997558594</ele>
        <time>2026-05-12T12:32:07.000Z</time>
      </trkpt>
      <trkpt lat="45.28558" lon="4.6657">
        <ele>616.79998779297</ele>
        <time>2026-05-12T12:32:08.000Z</time>
      </trkpt>
      <trkpt lat="45.28559" lon="4.66569">
        <ele>616.79998779297</ele>
        <time>2026-05-12T12:32:09.000Z</time>
      </trkpt>
      <trkpt lat="45.28561" lon="4.66569">
        <ele>616.79998779297</ele>
        <time>2026-05-12T12:32:10.000Z</time>
      </trkpt>
      <trkpt lat="45.28563" lon="4.66568">
        <ele>616.79998779297</ele>
        <time>2026-05-12T12:32:11.000Z</time>
      </trkpt>
      <trkpt lat="45.28566" lon="4.66566">
        <ele>617</ele>
        <time>2026-05-12T12:32:12.000Z</time>
      </trkpt>
      <trkpt lat="45.28568" lon="4.66565">
        <ele>616.79998779297</ele>
        <time>2026-05-12T12:32:13.000Z</time>
      </trkpt>
      <trkpt lat="45.2857" lon="4.66564">
        <ele>616.79998779297</ele>
        <time>2026-05-12T12:32:14.000Z</time>
      </trkpt>
      <trkpt lat="45.28573" lon="4.66563">
        <ele>616.59997558594</ele>
        <time>2026-05-12T12:32:15.000Z</time>
      </trkpt>
      <trkpt lat="45.28575" lon="4.66562">
        <ele>616.59997558594</ele>
        <time>2026-05-12T12:32:16.000Z</time>
      </trkpt>
      <trkpt lat="45.28577" lon="4.66561">
        <ele>616.40002441406</ele>
        <time>2026-05-12T12:32:17.000Z</time>
      </trkpt>
      <trkpt lat="45.28579" lon="4.6656">
        <ele>616.40002441406</ele>
        <time>2026-05-12T12:32:18.000Z</time>
      </trkpt>
      <trkpt lat="45.28581" lon="4.66559">
        <ele>616.40002441406</ele>
        <time>2026-05-12T12:32:19.000Z</time>
      </trkpt>
      <trkpt lat="45.28583" lon="4.66558">
        <ele>616.59997558594</ele>
        <time>2026-05-12T12:32:20.000Z</time>
      </trkpt>
      <trkpt lat="45.28584" lon="4.66557">
        <ele>616.79998779297</ele>
        <time>2026-05-12T12:32:21.000Z</time>
      </trkpt>
      <trkpt lat="45.28586" lon="4.66556">
        <ele>616.79998779297</ele>
        <time>2026-05-12T12:32:22.000Z</time>
      </trkpt>
      <trkpt lat="45.28587" lon="4.66554">
        <ele>616.79998779297</ele>
        <time>2026-05-12T12:32:23.000Z</time>
      </trkpt>
      <trkpt lat="45.2859" lon="4.66553">
        <ele>616.79998779297</ele>
        <time>2026-05-12T12:32:24.000Z</time>
      </trkpt>
      <trkpt lat="45.28592" lon="4.66551">
        <ele>616.79998779297</ele>
        <time>2026-05-12T12:32:25.000Z</time>
      </trkpt>
      <trkpt lat="45.28594" lon="4.66549">
        <ele>616.79998779297</ele>
        <time>2026-05-12T12:32:26.000Z</time>
      </trkpt>
      <trkpt lat="45.28597" lon="4.66548">
        <ele>616.79998779297</ele>
        <time>2026-05-12T12:32:27.000Z</time>
      </trkpt>
      <trkpt lat="45.28599" lon="4.66546">
        <ele>616.79998779297</ele>
        <time>2026-05-12T12:32:28.000Z</time>
      </trkpt>
      <trkpt lat="45.28601" lon="4.66544">
        <ele>616.79998779297</ele>
        <time>2026-05-12T12:32:29.000Z</time>
      </trkpt>
      <trkpt lat="45.28602" lon="4.66543">
        <ele>616.79998779297</ele>
        <time>2026-05-12T12:32:30.000Z</time>
      </trkpt>
      <trkpt lat="45.28604" lon="4.66541">
        <ele>617</ele>
        <time>2026-05-12T12:32:31.000Z</time>
      </trkpt>
      <trkpt lat="45.28606" lon="4.66539">
        <ele>617</ele>
        <time>2026-05-12T12:32:32.000Z</time>
      </trkpt>
      <trkpt lat="45.28607" lon="4.66538">
        <ele>617</ele>
        <time>2026-05-12T12:32:33.000Z</time>
      </trkpt>
      <trkpt lat="45.28609" lon="4.66536">
        <ele>617.20001220703</ele>
        <time>2026-05-12T12:32:34.000Z</time>
      </trkpt>
      <trkpt lat="45.28611" lon="4.66534">
        <ele>617.20001220703</ele>
        <time>2026-05-12T12:32:35.000Z</time>
      </trkpt>
      <trkpt lat="45.28613" lon="4.66531">
        <ele>617.20001220703</ele>
        <time>2026-05-12T12:32:36.000Z</time>
      </trkpt>
      <trkpt lat="45.28616" lon="4.66529">
        <ele>617.20001220703</ele>
        <time>2026-05-12T12:32:37.000Z</time>
      </trkpt>
      <trkpt lat="45.28618" lon="4.66526">
        <ele>617</ele>
        <time>2026-05-12T12:32:38.000Z</time>
      </trkpt>
      <trkpt lat="45.2862" lon="4.66524">
        <ele>617</ele>
        <time>2026-05-12T12:32:39.000Z</time>
      </trkpt>
      <trkpt lat="45.28623" lon="4.66522">
        <ele>616.79998779297</ele>
        <time>2026-05-12T12:32:40.000Z</time>
      </trkpt>
      <trkpt lat="45.28625" lon="4.6652">
        <ele>616.79998779297</ele>
        <time>2026-05-12T12:32:41.000Z</time>
      </trkpt>
      <trkpt lat="45.28627" lon="4.66518">
        <ele>616.79998779297</ele>
        <time>2026-05-12T12:32:42.000Z</time>
      </trkpt>
      <trkpt lat="45.28629" lon="4.66516">
        <ele>616.79998779297</ele>
        <time>2026-05-12T12:32:43.000Z</time>
      </trkpt>
      <trkpt lat="45.28631" lon="4.66514">
        <ele>616.79998779297</ele>
        <time>2026-05-12T12:32:44.000Z</time>
      </trkpt>
      <trkpt lat="45.28633" lon="4.66512">
        <ele>617</ele>
        <time>2026-05-12T12:32:45.000Z</time>
      </trkpt>
      <trkpt lat="45.28635" lon="4.6651">
        <ele>616.79998779297</ele>
        <time>2026-05-12T12:32:46.000Z</time>
      </trkpt>
      <trkpt lat="45.28637" lon="4.66508">
        <ele>616.79998779297</ele>
        <time>2026-05-12T12:32:47.000Z</time>
      </trkpt>
      <trkpt lat="45.2864" lon="4.66507">
        <ele>616.79998779297</ele>
        <time>2026-05-12T12:32:48.000Z</time>
      </trkpt>
      <trkpt lat="45.28642" lon="4.66505">
        <ele>616.79998779297</ele>
        <time>2026-05-12T12:32:49.000Z</time>
      </trkpt>
      <trkpt lat="45.28644" lon="4.66503">
        <ele>616.79998779297</ele>
        <time>2026-05-12T12:32:50.000Z</time>
      </trkpt>
      <trkpt lat="45.28647" lon="4.66501">
        <ele>616.79998779297</ele>
        <time>2026-05-12T12:32:51.000Z</time>
      </trkpt>
      <trkpt lat="45.28649" lon="4.66499">
        <ele>616.79998779297</ele>
        <time>2026-05-12T12:32:52.000Z</time>
      </trkpt>
      <trkpt lat="45.28651" lon="4.66497">
        <ele>616.79998779297</ele>
        <time>2026-05-12T12:32:53.000Z</time>
      </trkpt>
      <trkpt lat="45.28653" lon="4.66495">
        <ele>617</ele>
        <time>2026-05-12T12:32:54.000Z</time>
      </trkpt>
      <trkpt lat="45.28655" lon="4.66493">
        <ele>617.20001220703</ele>
        <time>2026-05-12T12:32:55.000Z</time>
      </trkpt>
      <trkpt lat="45.28657" lon="4.66491">
        <ele>617.20001220703</ele>
        <time>2026-05-12T12:32:56.000Z</time>
      </trkpt>
      <trkpt lat="45.28659" lon="4.66489">
        <ele>617.20001220703</ele>
        <time>2026-05-12T12:32:57.000Z</time>
      </trkpt>
      <trkpt lat="45.28661" lon="4.66487">
        <ele>617.20001220703</ele>
        <time>2026-05-12T12:32:58.000Z</time>
      </trkpt>
      <trkpt lat="45.28664" lon="4.66486">
        <ele>617.20001220703</ele>
        <time>2026-05-12T12:32:59.000Z</time>
      </trkpt>
      <trkpt lat="45.28666" lon="4.66484">
        <ele>617.20001220703</ele>
        <time>2026-05-12T12:33:00.000Z</time>
      </trkpt>
      <trkpt lat="45.28668" lon="4.66482">
        <ele>617</ele>
        <time>2026-05-12T12:33:01.000Z</time>
      </trkpt>
      <trkpt lat="45.2867" lon="4.66479">
        <ele>617</ele>
        <time>2026-05-12T12:33:02.000Z</time>
      </trkpt>
      <trkpt lat="45.28672" lon="4.66477">
        <ele>617</ele>
        <time>2026-05-12T12:33:03.000Z</time>
      </trkpt>
      <trkpt lat="45.28674" lon="4.66475">
        <ele>617</ele>
        <time>2026-05-12T12:33:04.000Z</time>
      </trkpt>
      <trkpt lat="45.28677" lon="4.66473">
        <ele>617.20001220703</ele>
        <time>2026-05-12T12:33:05.000Z</time>
      </trkpt>
      <trkpt lat="45.28679" lon="4.66471">
        <ele>617</ele>
        <time>2026-05-12T12:33:06.000Z</time>
      </trkpt>
      <trkpt lat="45.28681" lon="4.66469">
        <ele>617</ele>
        <time>2026-05-12T12:33:07.000Z</time>
      </trkpt>
      <trkpt lat="45.28683" lon="4.66467">
        <ele>616.79998779297</ele>
        <time>2026-05-12T12:33:08.000Z</time>
      </trkpt>
      <trkpt lat="45.28686" lon="4.66466">
        <ele>616.59997558594</ele>
        <time>2026-05-12T12:33:09.000Z</time>
      </trkpt>
      <trkpt lat="45.28689" lon="4.66464">
        <ele>616.20001220703</ele>
        <time>2026-05-12T12:33:10.000Z</time>
      </trkpt>
      <trkpt lat="45.28691" lon="4.66462">
        <ele>616</ele>
        <time>2026-05-12T12:33:11.000Z</time>
      </trkpt>
      <trkpt lat="45.28694" lon="4.6646">
        <ele>615.59997558594</ele>
        <time>2026-05-12T12:33:12.000Z</time>
      </trkpt>
      <trkpt lat="45.28697" lon="4.66459">
        <ele>615.40002441406</ele>
        <time>2026-05-12T12:33:13.000Z</time>
      </trkpt>
      <trkpt lat="45.287" lon="4.66457">
        <ele>615.20001220703</ele>
        <time>2026-05-12T12:33:14.000Z</time>
      </trkpt>
      <trkpt lat="45.28703" lon="4.66455">
        <ele>615</ele>
        <time>2026-05-12T12:33:15.000Z</time>
      </trkpt>
      <trkpt lat="45.28706" lon="4.66453">
        <ele>615</ele>
        <time>2026-05-12T12:33:16.000Z</time>
      </trkpt>
      <trkpt lat="45.2871" lon="4.66452">
        <ele>614.79998779297</ele>
        <time>2026-05-12T12:33:17.000Z</time>
      </trkpt>
      <trkpt lat="45.28713" lon="4.66451">
        <ele>614.59997558594</ele>
        <time>2026-05-12T12:33:18.000Z</time>
      </trkpt>
      <trkpt lat="45.28716" lon="4.66451">
        <ele>614.59997558594</ele>
        <time>2026-05-12T12:33:19.000Z</time>
      </trkpt>
      <trkpt lat="45.2872" lon="4.6645">
        <ele>614.40002441406</ele>
        <time>2026-05-12T12:33:20.000Z</time>
      </trkpt>
      <trkpt lat="45.28723" lon="4.66449">
        <ele>614.40002441406</ele>
        <time>2026-05-12T12:33:21.000Z</time>
      </trkpt>
      <trkpt lat="45.28727" lon="4.66448">
        <ele>614.20001220703</ele>
        <time>2026-05-12T12:33:22.000Z</time>
      </trkpt>
      <trkpt lat="45.28731" lon="4.66448">
        <ele>614</ele>
        <time>2026-05-12T12:33:23.000Z</time>
      </trkpt>
      <trkpt lat="45.28734" lon="4.66448">
        <ele>613.79998779297</ele>
        <time>2026-05-12T12:33:24.000Z</time>
      </trkpt>
      <trkpt lat="45.28737" lon="4.66448">
        <ele>613.59997558594</ele>
        <time>2026-05-12T12:33:25.000Z</time>
      </trkpt>
      <trkpt lat="45.28741" lon="4.66448">
        <ele>613.40002441406</ele>
        <time>2026-05-12T12:33:26.000Z</time>
      </trkpt>
      <trkpt lat="45.28744" lon="4.66448">
        <ele>613</ele>
        <time>2026-05-12T12:33:27.000Z</time>
      </trkpt>
      <trkpt lat="45.28747" lon="4.66447">
        <ele>612.79998779297</ele>
        <time>2026-05-12T12:33:28.000Z</time>
      </trkpt>
      <trkpt lat="45.2875" lon="4.66447">
        <ele>612.59997558594</ele>
        <time>2026-05-12T12:33:29.000Z</time>
      </trkpt>
      <trkpt lat="45.28753" lon="4.66448">
        <ele>612.20001220703</ele>
        <time>2026-05-12T12:33:30.000Z</time>
      </trkpt>
      <trkpt lat="45.28757" lon="4.66448">
        <ele>612.20001220703</ele>
        <time>2026-05-12T12:33:31.000Z</time>
      </trkpt>
      <trkpt lat="45.2876" lon="4.66448">
        <ele>612</ele>
        <time>2026-05-12T12:33:32.000Z</time>
      </trkpt>
      <trkpt lat="45.28764" lon="4.66449">
        <ele>611.79998779297</ele>
        <time>2026-05-12T12:33:33.000Z</time>
      </trkpt>
      <trkpt lat="45.28767" lon="4.6645">
        <ele>611.79998779297</ele>
        <time>2026-05-12T12:33:34.000Z</time>
      </trkpt>
      <trkpt lat="45.28771" lon="4.66451">
        <ele>611.59997558594</ele>
        <time>2026-05-12T12:33:35.000Z</time>
      </trkpt>
      <trkpt lat="45.28774" lon="4.66452">
        <ele>611.59997558594</ele>
        <time>2026-05-12T12:33:36.000Z</time>
      </trkpt>
      <trkpt lat="45.28778" lon="4.66454">
        <ele>611.20001220703</ele>
        <time>2026-05-12T12:33:37.000Z</time>
      </trkpt>
      <trkpt lat="45.28781" lon="4.66456">
        <ele>611</ele>
        <time>2026-05-12T12:33:38.000Z</time>
      </trkpt>
      <trkpt lat="45.28785" lon="4.66458">
        <ele>610.79998779297</ele>
        <time>2026-05-12T12:33:39.000Z</time>
      </trkpt>
      <trkpt lat="45.28788" lon="4.66459">
        <ele>610.40002441406</ele>
        <time>2026-05-12T12:33:40.000Z</time>
      </trkpt>
      <trkpt lat="45.28792" lon="4.6646">
        <ele>610</ele>
        <time>2026-05-12T12:33:41.000Z</time>
      </trkpt>
      <trkpt lat="45.28795" lon="4.66462">
        <ele>609.79998779297</ele>
        <time>2026-05-12T12:33:42.000Z</time>
      </trkpt>
      <trkpt lat="45.28799" lon="4.66465">
        <ele>609.40002441406</ele>
        <time>2026-05-12T12:33:43.000Z</time>
      </trkpt>
      <trkpt lat="45.28803" lon="4.66467">
        <ele>609</ele>
        <time>2026-05-12T12:33:44.000Z</time>
      </trkpt>
      <trkpt lat="45.28807" lon="4.66469">
        <ele>608.59997558594</ele>
        <time>2026-05-12T12:33:45.000Z</time>
      </trkpt>
      <trkpt lat="45.2881" lon="4.66471">
        <ele>608.40002441406</ele>
        <time>2026-05-12T12:33:46.000Z</time>
      </trkpt>
      <trkpt lat="45.28814" lon="4.66471">
        <ele>608</ele>
        <time>2026-05-12T12:33:47.000Z</time>
      </trkpt>
      <trkpt lat="45.28816" lon="4.66472">
        <ele>607.79998779297</ele>
        <time>2026-05-12T12:33:48.000Z</time>
      </trkpt>
      <trkpt lat="45.28819" lon="4.66474">
        <ele>607.59997558594</ele>
        <time>2026-05-12T12:33:49.000Z</time>
      </trkpt>
      <trkpt lat="45.28822" lon="4.66475">
        <ele>607.20001220703</ele>
        <time>2026-05-12T12:33:50.000Z</time>
      </trkpt>
      <trkpt lat="45.28824" lon="4.66476">
        <ele>607</ele>
        <time>2026-05-12T12:33:51.000Z</time>
      </trkpt>
      <trkpt lat="45.28827" lon="4.66476">
        <ele>606.59997558594</ele>
        <time>2026-05-12T12:33:52.000Z</time>
      </trkpt>
      <trkpt lat="45.2883" lon="4.66477">
        <ele>606.20001220703</ele>
        <time>2026-05-12T12:33:53.000Z</time>
      </trkpt>
      <trkpt lat="45.28834" lon="4.66478">
        <ele>605.79998779297</ele>
        <time>2026-05-12T12:33:54.000Z</time>
      </trkpt>
      <trkpt lat="45.28837" lon="4.66479">
        <ele>605.59997558594</ele>
        <time>2026-05-12T12:33:55.000Z</time>
      </trkpt>
      <trkpt lat="45.28841" lon="4.66479">
        <ele>605</ele>
        <time>2026-05-12T12:33:56.000Z</time>
      </trkpt>
      <trkpt lat="45.28843" lon="4.66479">
        <ele>604.59997558594</ele>
        <time>2026-05-12T12:33:57.000Z</time>
      </trkpt>
      <trkpt lat="45.28846" lon="4.6648">
        <ele>604.20001220703</ele>
        <time>2026-05-12T12:33:58.000Z</time>
      </trkpt>
      <trkpt lat="45.28849" lon="4.6648">
        <ele>603.59997558594</ele>
        <time>2026-05-12T12:33:59.000Z</time>
      </trkpt>
      <trkpt lat="45.28853" lon="4.66481">
        <ele>603.20001220703</ele>
        <time>2026-05-12T12:34:00.000Z</time>
      </trkpt>
      <trkpt lat="45.28856" lon="4.66482">
        <ele>602.59997558594</ele>
        <time>2026-05-12T12:34:01.000Z</time>
      </trkpt>
      <trkpt lat="45.28859" lon="4.66482">
        <ele>602.20001220703</ele>
        <time>2026-05-12T12:34:02.000Z</time>
      </trkpt>
      <trkpt lat="45.28861" lon="4.66483">
        <ele>601.79998779297</ele>
        <time>2026-05-12T12:34:03.000Z</time>
      </trkpt>
      <trkpt lat="45.28864" lon="4.66484">
        <ele>601.40002441406</ele>
        <time>2026-05-12T12:34:04.000Z</time>
      </trkpt>
      <trkpt lat="45.28867" lon="4.66485">
        <ele>600.79998779297</ele>
        <time>2026-05-12T12:34:05.000Z</time>
      </trkpt>
      <trkpt lat="45.2887" lon="4.66487">
        <ele>600.40002441406</ele>
        <time>2026-05-12T12:34:06.000Z</time>
      </trkpt>
      <trkpt lat="45.28874" lon="4.66488">
        <ele>600</ele>
        <time>2026-05-12T12:34:07.000Z</time>
      </trkpt>
      <trkpt lat="45.28877" lon="4.6649">
        <ele>599.59997558594</ele>
        <time>2026-05-12T12:34:08.000Z</time>
      </trkpt>
      <trkpt lat="45.2888" lon="4.6649">
        <ele>599.40002441406</ele>
        <time>2026-05-12T12:34:09.000Z</time>
      </trkpt>
      <trkpt lat="45.28882" lon="4.66491">
        <ele>599.20001220703</ele>
        <time>2026-05-12T12:34:10.000Z</time>
      </trkpt>
      <trkpt lat="45.28885" lon="4.66492">
        <ele>599</ele>
        <time>2026-05-12T12:34:11.000Z</time>
      </trkpt>
      <trkpt lat="45.28887" lon="4.66493">
        <ele>598.59997558594</ele>
        <time>2026-05-12T12:34:12.000Z</time>
      </trkpt>
      <trkpt lat="45.28889" lon="4.66494">
        <ele>598.20001220703</ele>
        <time>2026-05-12T12:34:13.000Z</time>
      </trkpt>
      <trkpt lat="45.28892" lon="4.66495">
        <ele>597.59997558594</ele>
        <time>2026-05-12T12:34:14.000Z</time>
      </trkpt>
      <trkpt lat="45.28895" lon="4.66496">
        <ele>597.20001220703</ele>
        <time>2026-05-12T12:34:15.000Z</time>
      </trkpt>
      <trkpt lat="45.28897" lon="4.66496">
        <ele>597</ele>
        <time>2026-05-12T12:34:16.000Z</time>
      </trkpt>
      <trkpt lat="45.289" lon="4.66497">
        <ele>596.59997558594</ele>
        <time>2026-05-12T12:34:17.000Z</time>
      </trkpt>
      <trkpt lat="45.28903" lon="4.66497">
        <ele>596.40002441406</ele>
        <time>2026-05-12T12:34:18.000Z</time>
      </trkpt>
      <trkpt lat="45.28905" lon="4.66498">
        <ele>596.20001220703</ele>
        <time>2026-05-12T12:34:19.000Z</time>
      </trkpt>
      <trkpt lat="45.28908" lon="4.66499">
        <ele>595.79998779297</ele>
        <time>2026-05-12T12:34:20.000Z</time>
      </trkpt>
      <trkpt lat="45.28911" lon="4.66501">
        <ele>595.59997558594</ele>
        <time>2026-05-12T12:34:21.000Z</time>
      </trkpt>
      <trkpt lat="45.28914" lon="4.66502">
        <ele>595</ele>
        <time>2026-05-12T12:34:22.000Z</time>
      </trkpt>
      <trkpt lat="45.28917" lon="4.66504">
        <ele>594.59997558594</ele>
        <time>2026-05-12T12:34:23.000Z</time>
      </trkpt>
      <trkpt lat="45.28921" lon="4.66505">
        <ele>593.79998779297</ele>
        <time>2026-05-12T12:34:24.000Z</time>
      </trkpt>
      <trkpt lat="45.28924" lon="4.66507">
        <ele>593.20001220703</ele>
        <time>2026-05-12T12:34:25.000Z</time>
      </trkpt>
      <trkpt lat="45.28929" lon="4.6651">
        <ele>592.59997558594</ele>
        <time>2026-05-12T12:34:26.000Z</time>
      </trkpt>
      <trkpt lat="45.28933" lon="4.66512">
        <ele>591.79998779297</ele>
        <time>2026-05-12T12:34:27.000Z</time>
      </trkpt>
      <trkpt lat="45.28936" lon="4.66514">
        <ele>591.20001220703</ele>
        <time>2026-05-12T12:34:28.000Z</time>
      </trkpt>
      <trkpt lat="45.2894" lon="4.66516">
        <ele>590.59997558594</ele>
        <time>2026-05-12T12:34:29.000Z</time>
      </trkpt>
      <trkpt lat="45.28943" lon="4.66518">
        <ele>590</ele>
        <time>2026-05-12T12:34:30.000Z</time>
      </trkpt>
      <trkpt lat="45.28947" lon="4.66521">
        <ele>589.40002441406</ele>
        <time>2026-05-12T12:34:31.000Z</time>
      </trkpt>
      <trkpt lat="45.28951" lon="4.66523">
        <ele>588.79998779297</ele>
        <time>2026-05-12T12:34:32.000Z</time>
      </trkpt>
      <trkpt lat="45.28955" lon="4.66526">
        <ele>588.40002441406</ele>
        <time>2026-05-12T12:34:33.000Z</time>
      </trkpt>
      <trkpt lat="45.28959" lon="4.66529">
        <ele>588.20001220703</ele>
        <time>2026-05-12T12:34:34.000Z</time>
      </trkpt>
      <trkpt lat="45.28963" lon="4.66532">
        <ele>587.79998779297</ele>
        <time>2026-05-12T12:34:35.000Z</time>
      </trkpt>
      <trkpt lat="45.28968" lon="4.66535">
        <ele>587.59997558594</ele>
        <time>2026-05-12T12:34:36.000Z</time>
      </trkpt>
      <trkpt lat="45.28972" lon="4.66538">
        <ele>587.40002441406</ele>
        <time>2026-05-12T12:34:37.000Z</time>
      </trkpt>
      <trkpt lat="45.28975" lon="4.66541">
        <ele>587.20001220703</ele>
        <time>2026-05-12T12:34:38.000Z</time>
      </trkpt>
      <trkpt lat="45.28978" lon="4.66544">
        <ele>586.79998779297</ele>
        <time>2026-05-12T12:34:39.000Z</time>
      </trkpt>
      <trkpt lat="45.28981" lon="4.66547">
        <ele>586.59997558594</ele>
        <time>2026-05-12T12:34:40.000Z</time>
      </trkpt>
      <trkpt lat="45.28983" lon="4.6655">
        <ele>586.20001220703</ele>
        <time>2026-05-12T12:34:41.000Z</time>
      </trkpt>
      <trkpt lat="45.28985" lon="4.66553">
        <ele>586</ele>
        <time>2026-05-12T12:34:42.000Z</time>
      </trkpt>
      <trkpt lat="45.28987" lon="4.66556">
        <ele>585.79998779297</ele>
        <time>2026-05-12T12:34:43.000Z</time>
      </trkpt>
      <trkpt lat="45.2899" lon="4.66558">
        <ele>585.59997558594</ele>
        <time>2026-05-12T12:34:44.000Z</time>
      </trkpt>
      <trkpt lat="45.28991" lon="4.66561">
        <ele>585.20001220703</ele>
        <time>2026-05-12T12:34:45.000Z</time>
      </trkpt>
      <trkpt lat="45.28993" lon="4.66563">
        <ele>584.79998779297</ele>
        <time>2026-05-12T12:34:46.000Z</time>
      </trkpt>
      <trkpt lat="45.28994" lon="4.66565">
        <ele>584.40002441406</ele>
        <time>2026-05-12T12:34:47.000Z</time>
      </trkpt>
      <trkpt lat="45.28996" lon="4.66568">
        <ele>584</ele>
        <time>2026-05-12T12:34:48.000Z</time>
      </trkpt>
      <trkpt lat="45.28999" lon="4.6657">
        <ele>583.59997558594</ele>
        <time>2026-05-12T12:34:49.000Z</time>
      </trkpt>
      <trkpt lat="45.29002" lon="4.66573">
        <ele>583.20001220703</ele>
        <time>2026-05-12T12:34:50.000Z</time>
      </trkpt>
      <trkpt lat="45.29006" lon="4.66576">
        <ele>582.79998779297</ele>
        <time>2026-05-12T12:34:51.000Z</time>
      </trkpt>
      <trkpt lat="45.2901" lon="4.66579">
        <ele>582.59997558594</ele>
        <time>2026-05-12T12:34:52.000Z</time>
      </trkpt>
      <trkpt lat="45.29014" lon="4.66582">
        <ele>582.40002441406</ele>
        <time>2026-05-12T12:34:53.000Z</time>
      </trkpt>
      <trkpt lat="45.29018" lon="4.66585">
        <ele>582.20001220703</ele>
        <time>2026-05-12T12:34:54.000Z</time>
      </trkpt>
      <trkpt lat="45.29022" lon="4.66588">
        <ele>582</ele>
        <time>2026-05-12T12:34:55.000Z</time>
      </trkpt>
      <trkpt lat="45.29026" lon="4.66591">
        <ele>581.79998779297</ele>
        <time>2026-05-12T12:34:56.000Z</time>
      </trkpt>
      <trkpt lat="45.2903" lon="4.66593">
        <ele>581.40002441406</ele>
        <time>2026-05-12T12:34:57.000Z</time>
      </trkpt>
      <trkpt lat="45.29034" lon="4.66596">
        <ele>581</ele>
        <time>2026-05-12T12:34:58.000Z</time>
      </trkpt>
      <trkpt lat="45.29038" lon="4.66599">
        <ele>580.40002441406</ele>
        <time>2026-05-12T12:34:59.000Z</time>
      </trkpt>
      <trkpt lat="45.29042" lon="4.66602">
        <ele>580</ele>
        <time>2026-05-12T12:35:00.000Z</time>
      </trkpt>
      <trkpt lat="45.29045" lon="4.66607">
        <ele>579.40002441406</ele>
        <time>2026-05-12T12:35:01.000Z</time>
      </trkpt>
      <trkpt lat="45.2905" lon="4.66613">
        <ele>579</ele>
        <time>2026-05-12T12:35:02.000Z</time>
      </trkpt>
      <trkpt lat="45.29053" lon="4.66619">
        <ele>578.59997558594</ele>
        <time>2026-05-12T12:35:03.000Z</time>
      </trkpt>
      <trkpt lat="45.29056" lon="4.66625">
        <ele>578.59997558594</ele>
        <time>2026-05-12T12:35:04.000Z</time>
      </trkpt>
      <trkpt lat="45.29058" lon="4.66629">
        <ele>578.79998779297</ele>
        <time>2026-05-12T12:35:05.000Z</time>
      </trkpt>
      <trkpt lat="45.2906" lon="4.66633">
        <ele>579</ele>
        <time>2026-05-12T12:35:06.000Z</time>
      </trkpt>
      <trkpt lat="45.29062" lon="4.66636">
        <ele>579.40002441406</ele>
        <time>2026-05-12T12:35:07.000Z</time>
      </trkpt>
      <trkpt lat="45.29064" lon="4.66638">
        <ele>579.79998779297</ele>
        <time>2026-05-12T12:35:08.000Z</time>
      </trkpt>
      <trkpt lat="45.29066" lon="4.66641">
        <ele>580.20001220703</ele>
        <time>2026-05-12T12:35:09.000Z</time>
      </trkpt>
      <trkpt lat="45.29067" lon="4.66643">
        <ele>580.40002441406</ele>
        <time>2026-05-12T12:35:10.000Z</time>
      </trkpt>
      <trkpt lat="45.29069" lon="4.66647">
        <ele>580.79998779297</ele>
        <time>2026-05-12T12:35:11.000Z</time>
      </trkpt>
      <trkpt lat="45.29071" lon="4.6665">
        <ele>581</ele>
        <time>2026-05-12T12:35:12.000Z</time>
      </trkpt>
      <trkpt lat="45.29072" lon="4.66652">
        <ele>581.20001220703</ele>
        <time>2026-05-12T12:35:13.000Z</time>
      </trkpt>
      <trkpt lat="45.29072" lon="4.66654">
        <ele>581.59997558594</ele>
        <time>2026-05-12T12:35:14.000Z</time>
      </trkpt>
      <trkpt lat="45.29073" lon="4.66656">
        <ele>581.79998779297</ele>
        <time>2026-05-12T12:35:15.000Z</time>
      </trkpt>
      <trkpt lat="45.29075" lon="4.6666">
        <ele>582.20001220703</ele>
        <time>2026-05-12T12:35:16.000Z</time>
      </trkpt>
      <trkpt lat="45.29076" lon="4.66663">
        <ele>582.40002441406</ele>
        <time>2026-05-12T12:35:17.000Z</time>
      </trkpt>
      <trkpt lat="45.29079" lon="4.66667">
        <ele>582.79998779297</ele>
        <time>2026-05-12T12:35:18.000Z</time>
      </trkpt>
      <trkpt lat="45.29081" lon="4.6667">
        <ele>583</ele>
        <time>2026-05-12T12:35:19.000Z</time>
      </trkpt>
      <trkpt lat="45.29081" lon="4.66671">
        <ele>583.20001220703</ele>
        <time>2026-05-12T12:35:20.000Z</time>
      </trkpt>
      <trkpt lat="45.29083" lon="4.66673">
        <ele>583.20001220703</ele>
        <time>2026-05-12T12:35:21.000Z</time>
      </trkpt>
      <trkpt lat="45.29084" lon="4.66675">
        <ele>583.40002441406</ele>
        <time>2026-05-12T12:35:22.000Z</time>
      </trkpt>
      <trkpt lat="45.29085" lon="4.66678">
        <ele>583.59997558594</ele>
        <time>2026-05-12T12:35:23.000Z</time>
      </trkpt>
      <trkpt lat="45.29085" lon="4.6668">
        <ele>583.79998779297</ele>
        <time>2026-05-12T12:35:24.000Z</time>
      </trkpt>
      <trkpt lat="45.29086" lon="4.66682">
        <ele>584</ele>
        <time>2026-05-12T12:35:25.000Z</time>
      </trkpt>
      <trkpt lat="45.29086" lon="4.66683">
        <ele>584.20001220703</ele>
        <time>2026-05-12T12:35:26.000Z</time>
      </trkpt>
      <trkpt lat="45.29086" lon="4.66685">
        <ele>584.59997558594</ele>
        <time>2026-05-12T12:35:27.000Z</time>
      </trkpt>
      <trkpt lat="45.29087" lon="4.66688">
        <ele>584.79998779297</ele>
        <time>2026-05-12T12:35:28.000Z</time>
      </trkpt>
      <trkpt lat="45.29088" lon="4.6669">
        <ele>585</ele>
        <time>2026-05-12T12:35:29.000Z</time>
      </trkpt>
      <trkpt lat="45.29088" lon="4.66693">
        <ele>585.20001220703</ele>
        <time>2026-05-12T12:35:30.000Z</time>
      </trkpt>
      <trkpt lat="45.29089" lon="4.66695">
        <ele>585.40002441406</ele>
        <time>2026-05-12T12:35:31.000Z</time>
      </trkpt>
      <trkpt lat="45.29089" lon="4.66698">
        <ele>585.59997558594</ele>
        <time>2026-05-12T12:35:32.000Z</time>
      </trkpt>
      <trkpt lat="45.29089" lon="4.667">
        <ele>586</ele>
        <time>2026-05-12T12:35:33.000Z</time>
      </trkpt>
      <trkpt lat="45.29089" lon="4.66701">
        <ele>586.20001220703</ele>
        <time>2026-05-12T12:35:34.000Z</time>
      </trkpt>
      <trkpt lat="45.29089" lon="4.66703">
        <ele>586.20001220703</ele>
        <time>2026-05-12T12:35:35.000Z</time>
      </trkpt>
      <trkpt lat="45.2909" lon="4.66705">
        <ele>586.40002441406</ele>
        <time>2026-05-12T12:35:36.000Z</time>
      </trkpt>
      <trkpt lat="45.2909" lon="4.66707">
        <ele>586.59997558594</ele>
        <time>2026-05-12T12:35:37.000Z</time>
      </trkpt>
      <trkpt lat="45.29091" lon="4.66709">
        <ele>586.79998779297</ele>
        <time>2026-05-12T12:35:38.000Z</time>
      </trkpt>
      <trkpt lat="45.29092" lon="4.66712">
        <ele>586.79998779297</ele>
        <time>2026-05-12T12:35:39.000Z</time>
      </trkpt>
      <trkpt lat="45.29093" lon="4.66714">
        <ele>587</ele>
        <time>2026-05-12T12:35:40.000Z</time>
      </trkpt>
      <trkpt lat="45.29094" lon="4.66717">
        <ele>587.20001220703</ele>
        <time>2026-05-12T12:35:41.000Z</time>
      </trkpt>
      <trkpt lat="45.29094" lon="4.66719">
        <ele>587.20001220703</ele>
        <time>2026-05-12T12:35:42.000Z</time>
      </trkpt>
      <trkpt lat="45.29095" lon="4.66722">
        <ele>587.40002441406</ele>
        <time>2026-05-12T12:35:43.000Z</time>
      </trkpt>
      <trkpt lat="45.29096" lon="4.66724">
        <ele>587.40002441406</ele>
        <time>2026-05-12T12:35:44.000Z</time>
      </trkpt>
      <trkpt lat="45.29097" lon="4.66728">
        <ele>587.59997558594</ele>
        <time>2026-05-12T12:35:45.000Z</time>
      </trkpt>
      <trkpt lat="45.29097" lon="4.66731">
        <ele>587.79998779297</ele>
        <time>2026-05-12T12:35:46.000Z</time>
      </trkpt>
      <trkpt lat="45.29098" lon="4.66735">
        <ele>588</ele>
        <time>2026-05-12T12:35:47.000Z</time>
      </trkpt>
      <trkpt lat="45.29099" lon="4.66738">
        <ele>588.20001220703</ele>
        <time>2026-05-12T12:35:48.000Z</time>
      </trkpt>
      <trkpt lat="45.291" lon="4.66741">
        <ele>588.59997558594</ele>
        <time>2026-05-12T12:35:49.000Z</time>
      </trkpt>
      <trkpt lat="45.291" lon="4.66744">
        <ele>588.79998779297</ele>
        <time>2026-05-12T12:35:50.000Z</time>
      </trkpt>
      <trkpt lat="45.29101" lon="4.66747">
        <ele>588.79998779297</ele>
        <time>2026-05-12T12:35:51.000Z</time>
      </trkpt>
      <trkpt lat="45.29102" lon="4.6675">
        <ele>589</ele>
        <time>2026-05-12T12:35:52.000Z</time>
      </trkpt>
      <trkpt lat="45.29103" lon="4.66753">
        <ele>589</ele>
        <time>2026-05-12T12:35:53.000Z</time>
      </trkpt>
      <trkpt lat="45.29104" lon="4.66756">
        <ele>589</ele>
        <time>2026-05-12T12:35:54.000Z</time>
      </trkpt>
      <trkpt lat="45.29105" lon="4.66759">
        <ele>589</ele>
        <time>2026-05-12T12:35:55.000Z</time>
      </trkpt>
      <trkpt lat="45.29106" lon="4.66762">
        <ele>588.79998779297</ele>
        <time>2026-05-12T12:35:56.000Z</time>
      </trkpt>
      <trkpt lat="45.29106" lon="4.66765">
        <ele>588.79998779297</ele>
        <time>2026-05-12T12:35:57.000Z</time>
      </trkpt>
      <trkpt lat="45.29107" lon="4.66768">
        <ele>588.79998779297</ele>
        <time>2026-05-12T12:35:58.000Z</time>
      </trkpt>
      <trkpt lat="45.29107" lon="4.6677">
        <ele>588.59997558594</ele>
        <time>2026-05-12T12:35:59.000Z</time>
      </trkpt>
      <trkpt lat="45.29108" lon="4.66773">
        <ele>588.59997558594</ele>
        <time>2026-05-12T12:36:00.000Z</time>
      </trkpt>
      <trkpt lat="45.29108" lon="4.66775">
        <ele>588.40002441406</ele>
        <time>2026-05-12T12:36:01.000Z</time>
      </trkpt>
      <trkpt lat="45.29108" lon="4.66778">
        <ele>588.40002441406</ele>
        <time>2026-05-12T12:36:02.000Z</time>
      </trkpt>
      <trkpt lat="45.29109" lon="4.66781">
        <ele>588.40002441406</ele>
        <time>2026-05-12T12:36:03.000Z</time>
      </trkpt>
      <trkpt lat="45.29109" lon="4.66785">
        <ele>588.20001220703</ele>
        <time>2026-05-12T12:36:04.000Z</time>
      </trkpt>
      <trkpt lat="45.2911" lon="4.66788">
        <ele>588.20001220703</ele>
        <time>2026-05-12T12:36:05.000Z</time>
      </trkpt>
      <trkpt lat="45.29111" lon="4.6679">
        <ele>588.40002441406</ele>
        <time>2026-05-12T12:36:06.000Z</time>
      </trkpt>
      <trkpt lat="45.29112" lon="4.66794">
        <ele>588.40002441406</ele>
        <time>2026-05-12T12:36:07.000Z</time>
      </trkpt>
      <trkpt lat="45.29113" lon="4.66798">
        <ele>588.59997558594</ele>
        <time>2026-05-12T12:36:08.000Z</time>
      </trkpt>
      <trkpt lat="45.29115" lon="4.66801">
        <ele>588.79998779297</ele>
        <time>2026-05-12T12:36:09.000Z</time>
      </trkpt>
      <trkpt lat="45.29117" lon="4.66804">
        <ele>589</ele>
        <time>2026-05-12T12:36:10.000Z</time>
      </trkpt>
      <trkpt lat="45.29118" lon="4.66806">
        <ele>589.20001220703</ele>
        <time>2026-05-12T12:36:11.000Z</time>
      </trkpt>
      <trkpt lat="45.29119" lon="4.6681">
        <ele>589.40002441406</ele>
        <time>2026-05-12T12:36:12.000Z</time>
      </trkpt>
      <trkpt lat="45.29121" lon="4.66813">
        <ele>589.59997558594</ele>
        <time>2026-05-12T12:36:13.000Z</time>
      </trkpt>
      <trkpt lat="45.29122" lon="4.66816">
        <ele>589.79998779297</ele>
        <time>2026-05-12T12:36:14.000Z</time>
      </trkpt>
      <trkpt lat="45.29123" lon="4.66819">
        <ele>589.79998779297</ele>
        <time>2026-05-12T12:36:15.000Z</time>
      </trkpt>
      <trkpt lat="45.29124" lon="4.66822">
        <ele>590</ele>
        <time>2026-05-12T12:36:16.000Z</time>
      </trkpt>
      <trkpt lat="45.29126" lon="4.66826">
        <ele>590.20001220703</ele>
        <time>2026-05-12T12:36:17.000Z</time>
      </trkpt>
      <trkpt lat="45.29127" lon="4.66829">
        <ele>590.40002441406</ele>
        <time>2026-05-12T12:36:18.000Z</time>
      </trkpt>
      <trkpt lat="45.29129" lon="4.66833">
        <ele>590.59997558594</ele>
        <time>2026-05-12T12:36:19.000Z</time>
      </trkpt>
      <trkpt lat="45.2913" lon="4.66835">
        <ele>591</ele>
        <time>2026-05-12T12:36:20.000Z</time>
      </trkpt>
      <trkpt lat="45.29132" lon="4.66838">
        <ele>591.20001220703</ele>
        <time>2026-05-12T12:36:21.000Z</time>
      </trkpt>
      <trkpt lat="45.29133" lon="4.66841">
        <ele>591.40002441406</ele>
        <time>2026-05-12T12:36:22.000Z</time>
      </trkpt>
      <trkpt lat="45.29135" lon="4.66844">
        <ele>591.40002441406</ele>
        <time>2026-05-12T12:36:23.000Z</time>
      </trkpt>
      <trkpt lat="45.29136" lon="4.66847">
        <ele>591.59997558594</ele>
        <time>2026-05-12T12:36:24.000Z</time>
      </trkpt>
      <trkpt lat="45.29138" lon="4.6685">
        <ele>591.59997558594</ele>
        <time>2026-05-12T12:36:25.000Z</time>
      </trkpt>
      <trkpt lat="45.29139" lon="4.66853">
        <ele>591.59997558594</ele>
        <time>2026-05-12T12:36:26.000Z</time>
      </trkpt>
      <trkpt lat="45.29141" lon="4.66856">
        <ele>591.79998779297</ele>
        <time>2026-05-12T12:36:27.000Z</time>
      </trkpt>
      <trkpt lat="45.29142" lon="4.66858">
        <ele>592.20001220703</ele>
        <time>2026-05-12T12:36:28.000Z</time>
      </trkpt>
      <trkpt lat="45.29144" lon="4.6686">
        <ele>592.40002441406</ele>
        <time>2026-05-12T12:36:29.000Z</time>
      </trkpt>
      <trkpt lat="45.29146" lon="4.66863">
        <ele>592.40002441406</ele>
        <time>2026-05-12T12:36:30.000Z</time>
      </trkpt>
      <trkpt lat="45.29148" lon="4.66866">
        <ele>592.59997558594</ele>
        <time>2026-05-12T12:36:31.000Z</time>
      </trkpt>
      <trkpt lat="45.29149" lon="4.6687">
        <ele>592.59997558594</ele>
        <time>2026-05-12T12:36:32.000Z</time>
      </trkpt>
      <trkpt lat="45.29151" lon="4.66873">
        <ele>592.40002441406</ele>
        <time>2026-05-12T12:36:33.000Z</time>
      </trkpt>
      <trkpt lat="45.29153" lon="4.66875">
        <ele>592.20001220703</ele>
        <time>2026-05-12T12:36:34.000Z</time>
      </trkpt>
      <trkpt lat="45.29154" lon="4.66878">
        <ele>592</ele>
        <time>2026-05-12T12:36:35.000Z</time>
      </trkpt>
      <trkpt lat="45.29156" lon="4.6688">
        <ele>591.79998779297</ele>
        <time>2026-05-12T12:36:36.000Z</time>
      </trkpt>
      <trkpt lat="45.29158" lon="4.66883">
        <ele>591.79998779297</ele>
        <time>2026-05-12T12:36:37.000Z</time>
      </trkpt>
      <trkpt lat="45.29159" lon="4.66886">
        <ele>591.59997558594</ele>
        <time>2026-05-12T12:36:38.000Z</time>
      </trkpt>
      <trkpt lat="45.29161" lon="4.66889">
        <ele>591.59997558594</ele>
        <time>2026-05-12T12:36:39.000Z</time>
      </trkpt>
      <trkpt lat="45.29163" lon="4.66892">
        <ele>591.59997558594</ele>
        <time>2026-05-12T12:36:40.000Z</time>
      </trkpt>
      <trkpt lat="45.29164" lon="4.66896">
        <ele>591.40002441406</ele>
        <time>2026-05-12T12:36:41.000Z</time>
      </trkpt>
      <trkpt lat="45.29166" lon="4.66899">
        <ele>591.40002441406</ele>
        <time>2026-05-12T12:36:42.000Z</time>
      </trkpt>
      <trkpt lat="45.29168" lon="4.66903">
        <ele>591.20001220703</ele>
        <time>2026-05-12T12:36:43.000Z</time>
      </trkpt>
      <trkpt lat="45.2917" lon="4.66907">
        <ele>591.20001220703</ele>
        <time>2026-05-12T12:36:44.000Z</time>
      </trkpt>
      <trkpt lat="45.29172" lon="4.66911">
        <ele>591.20001220703</ele>
        <time>2026-05-12T12:36:45.000Z</time>
      </trkpt>
      <trkpt lat="45.29173" lon="4.66914">
        <ele>591.40002441406</ele>
        <time>2026-05-12T12:36:46.000Z</time>
      </trkpt>
      <trkpt lat="45.29175" lon="4.66917">
        <ele>591.40002441406</ele>
        <time>2026-05-12T12:36:47.000Z</time>
      </trkpt>
      <trkpt lat="45.29176" lon="4.6692">
        <ele>591.40002441406</ele>
        <time>2026-05-12T12:36:48.000Z</time>
      </trkpt>
      <trkpt lat="45.29177" lon="4.66922">
        <ele>591.40002441406</ele>
        <time>2026-05-12T12:36:49.000Z</time>
      </trkpt>
      <trkpt lat="45.29179" lon="4.66925">
        <ele>591.40002441406</ele>
        <time>2026-05-12T12:36:50.000Z</time>
      </trkpt>
      <trkpt lat="45.29181" lon="4.66927">
        <ele>591.40002441406</ele>
        <time>2026-05-12T12:36:51.000Z</time>
      </trkpt>
      <trkpt lat="45.29184" lon="4.66928">
        <ele>591.20001220703</ele>
        <time>2026-05-12T12:36:52.000Z</time>
      </trkpt>
      <trkpt lat="45.29187" lon="4.6693">
        <ele>591.20001220703</ele>
        <time>2026-05-12T12:36:53.000Z</time>
      </trkpt>
      <trkpt lat="45.2919" lon="4.66931">
        <ele>591</ele>
        <time>2026-05-12T12:36:54.000Z</time>
      </trkpt>
      <trkpt lat="45.29193" lon="4.66932">
        <ele>591</ele>
        <time>2026-05-12T12:36:55.000Z</time>
      </trkpt>
      <trkpt lat="45.29197" lon="4.66932">
        <ele>591</ele>
        <time>2026-05-12T12:36:56.000Z</time>
      </trkpt>
      <trkpt lat="45.292" lon="4.66932">
        <ele>591</ele>
        <time>2026-05-12T12:36:57.000Z</time>
      </trkpt>
      <trkpt lat="45.29203" lon="4.66932">
        <ele>591</ele>
        <time>2026-05-12T12:36:58.000Z</time>
      </trkpt>
      <trkpt lat="45.29206" lon="4.66932">
        <ele>591</ele>
        <time>2026-05-12T12:36:59.000Z</time>
      </trkpt>
      <trkpt lat="45.29209" lon="4.66932">
        <ele>591</ele>
        <time>2026-05-12T12:37:00.000Z</time>
      </trkpt>
      <trkpt lat="45.29212" lon="4.66932">
        <ele>591</ele>
        <time>2026-05-12T12:37:01.000Z</time>
      </trkpt>
      <trkpt lat="45.29215" lon="4.66932">
        <ele>591</ele>
        <time>2026-05-12T12:37:02.000Z</time>
      </trkpt>
      <trkpt lat="45.29218" lon="4.66932">
        <ele>591</ele>
        <time>2026-05-12T12:37:03.000Z</time>
      </trkpt>
      <trkpt lat="45.29221" lon="4.66933">
        <ele>591.20001220703</ele>
        <time>2026-05-12T12:37:04.000Z</time>
      </trkpt>
      <trkpt lat="45.29224" lon="4.66933">
        <ele>591.20001220703</ele>
        <time>2026-05-12T12:37:05.000Z</time>
      </trkpt>
      <trkpt lat="45.29227" lon="4.66934">
        <ele>591.40002441406</ele>
        <time>2026-05-12T12:37:06.000Z</time>
      </trkpt>
      <trkpt lat="45.2923" lon="4.66934">
        <ele>591.40002441406</ele>
        <time>2026-05-12T12:37:07.000Z</time>
      </trkpt>
      <trkpt lat="45.29233" lon="4.66935">
        <ele>591.59997558594</ele>
        <time>2026-05-12T12:37:08.000Z</time>
      </trkpt>
      <trkpt lat="45.29236" lon="4.66935">
        <ele>591.59997558594</ele>
        <time>2026-05-12T12:37:09.000Z</time>
      </trkpt>
      <trkpt lat="45.29239" lon="4.66936">
        <ele>591.59997558594</ele>
        <time>2026-05-12T12:37:10.000Z</time>
      </trkpt>
      <trkpt lat="45.29241" lon="4.66937">
        <ele>591.59997558594</ele>
        <time>2026-05-12T12:37:11.000Z</time>
      </trkpt>
      <trkpt lat="45.29244" lon="4.66939">
        <ele>591.59997558594</ele>
        <time>2026-05-12T12:37:12.000Z</time>
      </trkpt>
      <trkpt lat="45.29247" lon="4.66941">
        <ele>591.59997558594</ele>
        <time>2026-05-12T12:37:13.000Z</time>
      </trkpt>
      <trkpt lat="45.29249" lon="4.66943">
        <ele>591.59997558594</ele>
        <time>2026-05-12T12:37:14.000Z</time>
      </trkpt>
      <trkpt lat="45.29252" lon="4.66945">
        <ele>591.59997558594</ele>
        <time>2026-05-12T12:37:15.000Z</time>
      </trkpt>
      <trkpt lat="45.29254" lon="4.66947">
        <ele>591.40002441406</ele>
        <time>2026-05-12T12:37:16.000Z</time>
      </trkpt>
      <trkpt lat="45.29256" lon="4.66949">
        <ele>591.59997558594</ele>
        <time>2026-05-12T12:37:17.000Z</time>
      </trkpt>
      <trkpt lat="45.29258" lon="4.66951">
        <ele>591.59997558594</ele>
        <time>2026-05-12T12:37:18.000Z</time>
      </trkpt>
      <trkpt lat="45.29261" lon="4.66954">
        <ele>591.79998779297</ele>
        <time>2026-05-12T12:37:19.000Z</time>
      </trkpt>
      <trkpt lat="45.29263" lon="4.66957">
        <ele>592</ele>
        <time>2026-05-12T12:37:20.000Z</time>
      </trkpt>
      <trkpt lat="45.29265" lon="4.66959">
        <ele>592.20001220703</ele>
        <time>2026-05-12T12:37:21.000Z</time>
      </trkpt>
      <trkpt lat="45.29267" lon="4.66961">
        <ele>592.40002441406</ele>
        <time>2026-05-12T12:37:22.000Z</time>
      </trkpt>
      <trkpt lat="45.29269" lon="4.66964">
        <ele>592.59997558594</ele>
        <time>2026-05-12T12:37:23.000Z</time>
      </trkpt>
      <trkpt lat="45.29271" lon="4.66966">
        <ele>592.79998779297</ele>
        <time>2026-05-12T12:37:24.000Z</time>
      </trkpt>
      <trkpt lat="45.29273" lon="4.66969">
        <ele>592.79998779297</ele>
        <time>2026-05-12T12:37:25.000Z</time>
      </trkpt>
      <trkpt lat="45.29275" lon="4.66971">
        <ele>593</ele>
        <time>2026-05-12T12:37:26.000Z</time>
      </trkpt>
      <trkpt lat="45.29277" lon="4.66973">
        <ele>593</ele>
        <time>2026-05-12T12:37:27.000Z</time>
      </trkpt>
      <trkpt lat="45.29279" lon="4.66976">
        <ele>593.20001220703</ele>
        <time>2026-05-12T12:37:28.000Z</time>
      </trkpt>
      <trkpt lat="45.29281" lon="4.66978">
        <ele>593.20001220703</ele>
        <time>2026-05-12T12:37:29.000Z</time>
      </trkpt>
      <trkpt lat="45.29283" lon="4.66981">
        <ele>593.59997558594</ele>
        <time>2026-05-12T12:37:30.000Z</time>
      </trkpt>
      <trkpt lat="45.29284" lon="4.66983">
        <ele>593.79998779297</ele>
        <time>2026-05-12T12:37:31.000Z</time>
      </trkpt>
      <trkpt lat="45.29286" lon="4.66985">
        <ele>593.79998779297</ele>
        <time>2026-05-12T12:37:32.000Z</time>
      </trkpt>
      <trkpt lat="45.29288" lon="4.66987">
        <ele>594</ele>
        <time>2026-05-12T12:37:33.000Z</time>
      </trkpt>
      <trkpt lat="45.2929" lon="4.66989">
        <ele>594.40002441406</ele>
        <time>2026-05-12T12:37:34.000Z</time>
      </trkpt>
      <trkpt lat="45.29291" lon="4.66991">
        <ele>594.79998779297</ele>
        <time>2026-05-12T12:37:35.000Z</time>
      </trkpt>
      <trkpt lat="45.29293" lon="4.66992">
        <ele>595.20001220703</ele>
        <time>2026-05-12T12:37:36.000Z</time>
      </trkpt>
      <trkpt lat="45.29294" lon="4.66993">
        <ele>595.59997558594</ele>
        <time>2026-05-12T12:37:37.000Z</time>
      </trkpt>
      <trkpt lat="45.29295" lon="4.66993">
        <ele>595.59997558594</ele>
        <time>2026-05-12T12:37:38.000Z</time>
      </trkpt>
      <trkpt lat="45.29297" lon="4.66994">
        <ele>595.59997558594</ele>
        <time>2026-05-12T12:37:39.000Z</time>
      </trkpt>
      <trkpt lat="45.29298" lon="4.66995">
        <ele>595.59997558594</ele>
        <time>2026-05-12T12:37:40.000Z</time>
      </trkpt>
      <trkpt lat="45.29299" lon="4.66996">
        <ele>595.40002441406</ele>
        <time>2026-05-12T12:37:41.000Z</time>
      </trkpt>
      <trkpt lat="45.293" lon="4.66996">
        <ele>595.40002441406</ele>
        <time>2026-05-12T12:37:42.000Z</time>
      </trkpt>
      <trkpt lat="45.29301" lon="4.66996">
        <ele>595.40002441406</ele>
        <time>2026-05-12T12:37:43.000Z</time>
      </trkpt>
      <trkpt lat="45.29302" lon="4.66997">
        <ele>595.59997558594</ele>
        <time>2026-05-12T12:37:44.000Z</time>
      </trkpt>
      <trkpt lat="45.29303" lon="4.66997">
        <ele>595.59997558594</ele>
        <time>2026-05-12T12:37:45.000Z</time>
      </trkpt>
      <trkpt lat="45.29304" lon="4.66997">
        <ele>595.59997558594</ele>
        <time>2026-05-12T12:37:46.000Z</time>
      </trkpt>
      <trkpt lat="45.29305" lon="4.66997">
        <ele>595.59997558594</ele>
        <time>2026-05-12T12:37:47.000Z</time>
      </trkpt>
      <trkpt lat="45.29305" lon="4.66997">
        <ele>595.79998779297</ele>
        <time>2026-05-12T12:37:48.000Z</time>
      </trkpt>
      <trkpt lat="45.29317" lon="4.67162">
        <ele>619.20001220703</ele>
        <time>2026-05-12T12:44:20.000Z</time>
      </trkpt>
      <trkpt lat="45.29317" lon="4.67165">
        <ele>619.20001220703</ele>
        <time>2026-05-12T12:44:21.000Z</time>
      </trkpt>
      <trkpt lat="45.29317" lon="4.67167">
        <ele>619.59997558594</ele>
        <time>2026-05-12T12:44:22.000Z</time>
      </trkpt>
      <trkpt lat="45.29317" lon="4.67169">
        <ele>619.79998779297</ele>
        <time>2026-05-12T12:44:23.000Z</time>
      </trkpt>
      <trkpt lat="45.29317" lon="4.67172">
        <ele>620</ele>
        <time>2026-05-12T12:44:24.000Z</time>
      </trkpt>
      <trkpt lat="45.29317" lon="4.67175">
        <ele>620.20001220703</ele>
        <time>2026-05-12T12:44:25.000Z</time>
      </trkpt>
      <trkpt lat="45.29317" lon="4.67177">
        <ele>620.40002441406</ele>
        <time>2026-05-12T12:44:26.000Z</time>
      </trkpt>
      <trkpt lat="45.29318" lon="4.6718">
        <ele>620.59997558594</ele>
        <time>2026-05-12T12:44:27.000Z</time>
      </trkpt>
      <trkpt lat="45.29318" lon="4.67183">
        <ele>620.79998779297</ele>
        <time>2026-05-12T12:44:28.000Z</time>
      </trkpt>
      <trkpt lat="45.29318" lon="4.67186">
        <ele>621</ele>
        <time>2026-05-12T12:44:29.000Z</time>
      </trkpt>
      <trkpt lat="45.29318" lon="4.67189">
        <ele>621.20001220703</ele>
        <time>2026-05-12T12:44:30.000Z</time>
      </trkpt>
      <trkpt lat="45.29318" lon="4.67191">
        <ele>621.40002441406</ele>
        <time>2026-05-12T12:44:31.000Z</time>
      </trkpt>
      <trkpt lat="45.29318" lon="4.67194">
        <ele>621.79998779297</ele>
        <time>2026-05-12T12:44:32.000Z</time>
      </trkpt>
      <trkpt lat="45.29318" lon="4.67197">
        <ele>622</ele>
        <time>2026-05-12T12:44:33.000Z</time>
      </trkpt>
      <trkpt lat="45.29319" lon="4.672">
        <ele>622.20001220703</ele>
        <time>2026-05-12T12:44:34.000Z</time>
      </trkpt>
      <trkpt lat="45.29319" lon="4.67203">
        <ele>622.40002441406</ele>
        <time>2026-05-12T12:44:35.000Z</time>
      </trkpt>
      <trkpt lat="45.2932" lon="4.67206">
        <ele>622.40002441406</ele>
        <time>2026-05-12T12:44:36.000Z</time>
      </trkpt>
      <trkpt lat="45.29321" lon="4.67209">
        <ele>622.59997558594</ele>
        <time>2026-05-12T12:44:37.000Z</time>
      </trkpt>
      <trkpt lat="45.29321" lon="4.67212">
        <ele>622.79998779297</ele>
        <time>2026-05-12T12:44:38.000Z</time>
      </trkpt>
      <trkpt lat="45.29322" lon="4.67214">
        <ele>623</ele>
        <time>2026-05-12T12:44:39.000Z</time>
      </trkpt>
      <trkpt lat="45.29323" lon="4.67216">
        <ele>623.40002441406</ele>
        <time>2026-05-12T12:44:40.000Z</time>
      </trkpt>
      <trkpt lat="45.29323" lon="4.67219">
        <ele>623.59997558594</ele>
        <time>2026-05-12T12:44:41.000Z</time>
      </trkpt>
      <trkpt lat="45.29324" lon="4.67221">
        <ele>624</ele>
        <time>2026-05-12T12:44:42.000Z</time>
      </trkpt>
      <trkpt lat="45.29325" lon="4.67224">
        <ele>624.40002441406</ele>
        <time>2026-05-12T12:44:43.000Z</time>
      </trkpt>
      <trkpt lat="45.29326" lon="4.67226">
        <ele>624.79998779297</ele>
        <time>2026-05-12T12:44:44.000Z</time>
      </trkpt>
      <trkpt lat="45.29326" lon="4.67228">
        <ele>625</ele>
        <time>2026-05-12T12:44:45.000Z</time>
      </trkpt>
      <trkpt lat="45.29327" lon="4.67231">
        <ele>625.20001220703</ele>
        <time>2026-05-12T12:44:46.000Z</time>
      </trkpt>
      <trkpt lat="45.29328" lon="4.67233">
        <ele>625.40002441406</ele>
        <time>2026-05-12T12:44:47.000Z</time>
      </trkpt>
      <trkpt lat="45.29329" lon="4.67235">
        <ele>625.40002441406</ele>
        <time>2026-05-12T12:44:48.000Z</time>
      </trkpt>
      <trkpt lat="45.29329" lon="4.67238">
        <ele>625.40002441406</ele>
        <time>2026-05-12T12:44:49.000Z</time>
      </trkpt>
      <trkpt lat="45.2933" lon="4.6724">
        <ele>625.59997558594</ele>
        <time>2026-05-12T12:44:50.000Z</time>
      </trkpt>
      <trkpt lat="45.29331" lon="4.67243">
        <ele>625.59997558594</ele>
        <time>2026-05-12T12:44:51.000Z</time>
      </trkpt>
      <trkpt lat="45.29331" lon="4.67246">
        <ele>626</ele>
        <time>2026-05-12T12:44:52.000Z</time>
      </trkpt>
      <trkpt lat="45.29332" lon="4.67249">
        <ele>626.20001220703</ele>
        <time>2026-05-12T12:44:53.000Z</time>
      </trkpt>
      <trkpt lat="45.29332" lon="4.67251">
        <ele>626.40002441406</ele>
        <time>2026-05-12T12:44:54.000Z</time>
      </trkpt>
      <trkpt lat="45.29333" lon="4.67254">
        <ele>626.59997558594</ele>
        <time>2026-05-12T12:44:55.000Z</time>
      </trkpt>
      <trkpt lat="45.29333" lon="4.67256">
        <ele>626.59997558594</ele>
        <time>2026-05-12T12:44:56.000Z</time>
      </trkpt>
      <trkpt lat="45.29333" lon="4.67259">
        <ele>626.79998779297</ele>
        <time>2026-05-12T12:44:57.000Z</time>
      </trkpt>
      <trkpt lat="45.29333" lon="4.67261">
        <ele>626.59997558594</ele>
        <time>2026-05-12T12:44:58.000Z</time>
      </trkpt>
      <trkpt lat="45.29333" lon="4.67264">
        <ele>626.79998779297</ele>
        <time>2026-05-12T12:44:59.000Z</time>
      </trkpt>
      <trkpt lat="45.29334" lon="4.67267">
        <ele>627</ele>
        <time>2026-05-12T12:45:00.000Z</time>
      </trkpt>
      <trkpt lat="45.29334" lon="4.67269">
        <ele>627.40002441406</ele>
        <time>2026-05-12T12:45:01.000Z</time>
      </trkpt>
      <trkpt lat="45.29335" lon="4.67272">
        <ele>627.79998779297</ele>
        <time>2026-05-12T12:45:02.000Z</time>
      </trkpt>
      <trkpt lat="45.29335" lon="4.67274">
        <ele>628.20001220703</ele>
        <time>2026-05-12T12:45:03.000Z</time>
      </trkpt>
      <trkpt lat="45.29335" lon="4.67277">
        <ele>628.59997558594</ele>
        <time>2026-05-12T12:45:04.000Z</time>
      </trkpt>
      <trkpt lat="45.29336" lon="4.6728">
        <ele>628.79998779297</ele>
        <time>2026-05-12T12:45:05.000Z</time>
      </trkpt>
      <trkpt lat="45.29336" lon="4.67282">
        <ele>629</ele>
        <time>2026-05-12T12:45:06.000Z</time>
      </trkpt>
      <trkpt lat="45.29336" lon="4.67285">
        <ele>629.20001220703</ele>
        <time>2026-05-12T12:45:07.000Z</time>
      </trkpt>
      <trkpt lat="45.29337" lon="4.67288">
        <ele>629.40002441406</ele>
        <time>2026-05-12T12:45:08.000Z</time>
      </trkpt>
      <trkpt lat="45.29337" lon="4.67291">
        <ele>629.40002441406</ele>
        <time>2026-05-12T12:45:09.000Z</time>
      </trkpt>
      <trkpt lat="45.29338" lon="4.67293">
        <ele>629.40002441406</ele>
        <time>2026-05-12T12:45:10.000Z</time>
      </trkpt>
      <trkpt lat="45.29338" lon="4.67296">
        <ele>629.40002441406</ele>
        <time>2026-05-12T12:45:11.000Z</time>
      </trkpt>
      <trkpt lat="45.29338" lon="4.67299">
        <ele>629.59997558594</ele>
        <time>2026-05-12T12:45:12.000Z</time>
      </trkpt>
      <trkpt lat="45.29339" lon="4.67301">
        <ele>629.59997558594</ele>
        <time>2026-05-12T12:45:13.000Z</time>
      </trkpt>
      <trkpt lat="45.29339" lon="4.67304">
        <ele>629.79998779297</ele>
        <time>2026-05-12T12:45:14.000Z</time>
      </trkpt>
      <trkpt lat="45.2934" lon="4.67307">
        <ele>630</ele>
        <time>2026-05-12T12:45:15.000Z</time>
      </trkpt>
      <trkpt lat="45.2934" lon="4.67309">
        <ele>630.20001220703</ele>
        <time>2026-05-12T12:45:16.000Z</time>
      </trkpt>
      <trkpt lat="45.29341" lon="4.67311">
        <ele>630.40002441406</ele>
        <time>2026-05-12T12:45:17.000Z</time>
      </trkpt>
      <trkpt lat="45.29341" lon="4.67314">
        <ele>630.59997558594</ele>
        <time>2026-05-12T12:45:18.000Z</time>
      </trkpt>
      <trkpt lat="45.29342" lon="4.67316">
        <ele>630.79998779297</ele>
        <time>2026-05-12T12:45:19.000Z</time>
      </trkpt>
      <trkpt lat="45.29342" lon="4.67318">
        <ele>631</ele>
        <time>2026-05-12T12:45:20.000Z</time>
      </trkpt>
      <trkpt lat="45.29343" lon="4.67321">
        <ele>631</ele>
        <time>2026-05-12T12:45:21.000Z</time>
      </trkpt>
      <trkpt lat="45.29343" lon="4.67323">
        <ele>631</ele>
        <time>2026-05-12T12:45:22.000Z</time>
      </trkpt>
      <trkpt lat="45.29344" lon="4.67326">
        <ele>631</ele>
        <time>2026-05-12T12:45:23.000Z</time>
      </trkpt>
      <trkpt lat="45.29344" lon="4.67328">
        <ele>631</ele>
        <time>2026-05-12T12:45:24.000Z</time>
      </trkpt>
      <trkpt lat="45.29344" lon="4.6733">
        <ele>631.20001220703</ele>
        <time>2026-05-12T12:45:25.000Z</time>
      </trkpt>
      <trkpt lat="45.29345" lon="4.67333">
        <ele>631.40002441406</ele>
        <time>2026-05-12T12:45:26.000Z</time>
      </trkpt>
      <trkpt lat="45.29345" lon="4.67336">
        <ele>631.59997558594</ele>
        <time>2026-05-12T12:45:27.000Z</time>
      </trkpt>
      <trkpt lat="45.29346" lon="4.67339">
        <ele>632</ele>
        <time>2026-05-12T12:45:28.000Z</time>
      </trkpt>
      <trkpt lat="45.29346" lon="4.67341">
        <ele>632.20001220703</ele>
        <time>2026-05-12T12:45:29.000Z</time>
      </trkpt>
      <trkpt lat="45.29347" lon="4.67344">
        <ele>632.40002441406</ele>
        <time>2026-05-12T12:45:30.000Z</time>
      </trkpt>
      <trkpt lat="45.29347" lon="4.67347">
        <ele>632.40002441406</ele>
        <time>2026-05-12T12:45:31.000Z</time>
      </trkpt>
      <trkpt lat="45.29348" lon="4.67349">
        <ele>632.59997558594</ele>
        <time>2026-05-12T12:45:32.000Z</time>
      </trkpt>
      <trkpt lat="45.29349" lon="4.67352">
        <ele>632.59997558594</ele>
        <time>2026-05-12T12:45:33.000Z</time>
      </trkpt>
      <trkpt lat="45.29349" lon="4.67355">
        <ele>632.59997558594</ele>
        <time>2026-05-12T12:45:34.000Z</time>
      </trkpt>
      <trkpt lat="45.2935" lon="4.67358">
        <ele>632.79998779297</ele>
        <time>2026-05-12T12:45:35.000Z</time>
      </trkpt>
      <trkpt lat="45.29351" lon="4.67361">
        <ele>633</ele>
        <time>2026-05-12T12:45:36.000Z</time>
      </trkpt>
      <trkpt lat="45.29351" lon="4.67364">
        <ele>633.20001220703</ele>
        <time>2026-05-12T12:45:37.000Z</time>
      </trkpt>
      <trkpt lat="45.29352" lon="4.67367">
        <ele>633.20001220703</ele>
        <time>2026-05-12T12:45:38.000Z</time>
      </trkpt>
      <trkpt lat="45.29353" lon="4.6737">
        <ele>633.40002441406</ele>
        <time>2026-05-12T12:45:39.000Z</time>
      </trkpt>
      <trkpt lat="45.29355" lon="4.67373">
        <ele>633.59997558594</ele>
        <time>2026-05-12T12:45:40.000Z</time>
      </trkpt>
      <trkpt lat="45.29355" lon="4.67376">
        <ele>633.59997558594</ele>
        <time>2026-05-12T12:45:41.000Z</time>
      </trkpt>
      <trkpt lat="45.29356" lon="4.67379">
        <ele>633.79998779297</ele>
        <time>2026-05-12T12:45:42.000Z</time>
      </trkpt>
      <trkpt lat="45.29357" lon="4.67383">
        <ele>633.79998779297</ele>
        <time>2026-05-12T12:45:43.000Z</time>
      </trkpt>
      <trkpt lat="45.29358" lon="4.67386">
        <ele>633.79998779297</ele>
        <time>2026-05-12T12:45:44.000Z</time>
      </trkpt>
      <trkpt lat="45.29359" lon="4.6739">
        <ele>633.79998779297</ele>
        <time>2026-05-12T12:45:45.000Z</time>
      </trkpt>
      <trkpt lat="45.2936" lon="4.67394">
        <ele>633.79998779297</ele>
        <time>2026-05-12T12:45:46.000Z</time>
      </trkpt>
      <trkpt lat="45.29361" lon="4.67397">
        <ele>633.59997558594</ele>
        <time>2026-05-12T12:45:47.000Z</time>
      </trkpt>
      <trkpt lat="45.29362" lon="4.67401">
        <ele>633.59997558594</ele>
        <time>2026-05-12T12:45:48.000Z</time>
      </trkpt>
      <trkpt lat="45.29363" lon="4.67404">
        <ele>633.40002441406</ele>
        <time>2026-05-12T12:45:49.000Z</time>
      </trkpt>
      <trkpt lat="45.29363" lon="4.67407">
        <ele>633.20001220703</ele>
        <time>2026-05-12T12:45:50.000Z</time>
      </trkpt>
      <trkpt lat="45.29364" lon="4.6741">
        <ele>633.20001220703</ele>
        <time>2026-05-12T12:45:51.000Z</time>
      </trkpt>
      <trkpt lat="45.29365" lon="4.67413">
        <ele>633.20001220703</ele>
        <time>2026-05-12T12:45:52.000Z</time>
      </trkpt>
      <trkpt lat="45.29365" lon="4.67417">
        <ele>633.20001220703</ele>
        <time>2026-05-12T12:45:53.000Z</time>
      </trkpt>
      <trkpt lat="45.29366" lon="4.6742">
        <ele>633.20001220703</ele>
        <time>2026-05-12T12:45:54.000Z</time>
      </trkpt>
      <trkpt lat="45.29367" lon="4.67424">
        <ele>633.20001220703</ele>
        <time>2026-05-12T12:45:55.000Z</time>
      </trkpt>
      <trkpt lat="45.29368" lon="4.67428">
        <ele>633</ele>
        <time>2026-05-12T12:45:56.000Z</time>
      </trkpt>
      <trkpt lat="45.29368" lon="4.67431">
        <ele>633</ele>
        <time>2026-05-12T12:45:57.000Z</time>
      </trkpt>
      <trkpt lat="45.29369" lon="4.67435">
        <ele>633</ele>
        <time>2026-05-12T12:45:58.000Z</time>
      </trkpt>
      <trkpt lat="45.2937" lon="4.67439">
        <ele>633</ele>
        <time>2026-05-12T12:45:59.000Z</time>
      </trkpt>
      <trkpt lat="45.29371" lon="4.67443">
        <ele>633</ele>
        <time>2026-05-12T12:46:00.000Z</time>
      </trkpt>
      <trkpt lat="45.29372" lon="4.67446">
        <ele>633</ele>
        <time>2026-05-12T12:46:01.000Z</time>
      </trkpt>
      <trkpt lat="45.29373" lon="4.67449">
        <ele>633</ele>
        <time>2026-05-12T12:46:02.000Z</time>
      </trkpt>
      <trkpt lat="45.29374" lon="4.67452">
        <ele>633</ele>
        <time>2026-05-12T12:46:03.000Z</time>
      </trkpt>
      <trkpt lat="45.29375" lon="4.67456">
        <ele>633</ele>
        <time>2026-05-12T12:46:04.000Z</time>
      </trkpt>
      <trkpt lat="45.29376" lon="4.67459">
        <ele>633</ele>
        <time>2026-05-12T12:46:05.000Z</time>
      </trkpt>
      <trkpt lat="45.29377" lon="4.67463">
        <ele>632.79998779297</ele>
        <time>2026-05-12T12:46:06.000Z</time>
      </trkpt>
      <trkpt lat="45.29378" lon="4.67467">
        <ele>632.59997558594</ele>
        <time>2026-05-12T12:46:07.000Z</time>
      </trkpt>
      <trkpt lat="45.29379" lon="4.67471">
        <ele>632.40002441406</ele>
        <time>2026-05-12T12:46:08.000Z</time>
      </trkpt>
      <trkpt lat="45.2938" lon="4.67475">
        <ele>632.40002441406</ele>
        <time>2026-05-12T12:46:09.000Z</time>
      </trkpt>
      <trkpt lat="45.29381" lon="4.67479">
        <ele>632.20001220703</ele>
        <time>2026-05-12T12:46:10.000Z</time>
      </trkpt>
      <trkpt lat="45.29382" lon="4.67483">
        <ele>632.20001220703</ele>
        <time>2026-05-12T12:46:11.000Z</time>
      </trkpt>
      <trkpt lat="45.29383" lon="4.67486">
        <ele>632.20001220703</ele>
        <time>2026-05-12T12:46:12.000Z</time>
      </trkpt>
      <trkpt lat="45.29384" lon="4.6749">
        <ele>632</ele>
        <time>2026-05-12T12:46:13.000Z</time>
      </trkpt>
      <trkpt lat="45.29386" lon="4.67493">
        <ele>632</ele>
        <time>2026-05-12T12:46:14.000Z</time>
      </trkpt>
      <trkpt lat="45.29387" lon="4.67497">
        <ele>631.79998779297</ele>
        <time>2026-05-12T12:46:15.000Z</time>
      </trkpt>
      <trkpt lat="45.29389" lon="4.675">
        <ele>631.79998779297</ele>
        <time>2026-05-12T12:46:16.000Z</time>
      </trkpt>
      <trkpt lat="45.2939" lon="4.67503">
        <ele>631.59997558594</ele>
        <time>2026-05-12T12:46:17.000Z</time>
      </trkpt>
      <trkpt lat="45.29392" lon="4.67507">
        <ele>631.40002441406</ele>
        <time>2026-05-12T12:46:18.000Z</time>
      </trkpt>
      <trkpt lat="45.29393" lon="4.6751">
        <ele>631.20001220703</ele>
        <time>2026-05-12T12:46:19.000Z</time>
      </trkpt>
      <trkpt lat="45.29395" lon="4.67513">
        <ele>631</ele>
        <time>2026-05-12T12:46:20.000Z</time>
      </trkpt>
      <trkpt lat="45.29396" lon="4.67517">
        <ele>630.79998779297</ele>
        <time>2026-05-12T12:46:21.000Z</time>
      </trkpt>
      <trkpt lat="45.29398" lon="4.6752">
        <ele>630.79998779297</ele>
        <time>2026-05-12T12:46:22.000Z</time>
      </trkpt>
      <trkpt lat="45.29399" lon="4.67524">
        <ele>630.59997558594</ele>
        <time>2026-05-12T12:46:23.000Z</time>
      </trkpt>
      <trkpt lat="45.29401" lon="4.67527">
        <ele>630.59997558594</ele>
        <time>2026-05-12T12:46:24.000Z</time>
      </trkpt>
      <trkpt lat="45.29402" lon="4.67531">
        <ele>630.40002441406</ele>
        <time>2026-05-12T12:46:25.000Z</time>
      </trkpt>
      <trkpt lat="45.29404" lon="4.67535">
        <ele>630.40002441406</ele>
        <time>2026-05-12T12:46:26.000Z</time>
      </trkpt>
      <trkpt lat="45.29405" lon="4.67538">
        <ele>630.20001220703</ele>
        <time>2026-05-12T12:46:27.000Z</time>
      </trkpt>
      <trkpt lat="45.29407" lon="4.67542">
        <ele>630</ele>
        <time>2026-05-12T12:46:28.000Z</time>
      </trkpt>
      <trkpt lat="45.29408" lon="4.67546">
        <ele>629.79998779297</ele>
        <time>2026-05-12T12:46:29.000Z</time>
      </trkpt>
      <trkpt lat="45.29409" lon="4.67549">
        <ele>629.59997558594</ele>
        <time>2026-05-12T12:46:30.000Z</time>
      </trkpt>
      <trkpt lat="45.29409" lon="4.67553">
        <ele>629.40002441406</ele>
        <time>2026-05-12T12:46:31.000Z</time>
      </trkpt>
      <trkpt lat="45.2941" lon="4.67556">
        <ele>629.20001220703</ele>
        <time>2026-05-12T12:46:32.000Z</time>
      </trkpt>
      <trkpt lat="45.2941" lon="4.6756">
        <ele>629</ele>
        <time>2026-05-12T12:46:33.000Z</time>
      </trkpt>
      <trkpt lat="45.2941" lon="4.67564">
        <ele>628.79998779297</ele>
        <time>2026-05-12T12:46:34.000Z</time>
      </trkpt>
      <trkpt lat="45.2941" lon="4.67568">
        <ele>628.40002441406</ele>
        <time>2026-05-12T12:46:35.000Z</time>
      </trkpt>
      <trkpt lat="45.2941" lon="4.67572">
        <ele>628</ele>
        <time>2026-05-12T12:46:36.000Z</time>
      </trkpt>
      <trkpt lat="45.29409" lon="4.67575">
        <ele>627.59997558594</ele>
        <time>2026-05-12T12:46:37.000Z</time>
      </trkpt>
      <trkpt lat="45.29409" lon="4.67579">
        <ele>627.20001220703</ele>
        <time>2026-05-12T12:46:38.000Z</time>
      </trkpt>
      <trkpt lat="45.29409" lon="4.67583">
        <ele>627</ele>
        <time>2026-05-12T12:46:39.000Z</time>
      </trkpt>
      <trkpt lat="45.29409" lon="4.67586">
        <ele>626.59997558594</ele>
        <time>2026-05-12T12:46:40.000Z</time>
      </trkpt>
      <trkpt lat="45.2941" lon="4.6759">
        <ele>626.40002441406</ele>
        <time>2026-05-12T12:46:41.000Z</time>
      </trkpt>
      <trkpt lat="45.2941" lon="4.67594">
        <ele>626.40002441406</ele>
        <time>2026-05-12T12:46:42.000Z</time>
      </trkpt>
      <trkpt lat="45.29411" lon="4.67598">
        <ele>626.20001220703</ele>
        <time>2026-05-12T12:46:43.000Z</time>
      </trkpt>
      <trkpt lat="45.29412" lon="4.67601">
        <ele>626</ele>
        <time>2026-05-12T12:46:44.000Z</time>
      </trkpt>
      <trkpt lat="45.29412" lon="4.67605">
        <ele>625.79998779297</ele>
        <time>2026-05-12T12:46:45.000Z</time>
      </trkpt>
      <trkpt lat="45.29413" lon="4.67608">
        <ele>625.40002441406</ele>
        <time>2026-05-12T12:46:46.000Z</time>
      </trkpt>
      <trkpt lat="45.29413" lon="4.67611">
        <ele>625</ele>
        <time>2026-05-12T12:46:47.000Z</time>
      </trkpt>
      <trkpt lat="45.29413" lon="4.67614">
        <ele>624.40002441406</ele>
        <time>2026-05-12T12:46:48.000Z</time>
      </trkpt>
      <trkpt lat="45.29414" lon="4.67617">
        <ele>623.79998779297</ele>
        <time>2026-05-12T12:46:49.000Z</time>
      </trkpt>
      <trkpt lat="45.29415" lon="4.6762">
        <ele>623.40002441406</ele>
        <time>2026-05-12T12:46:50.000Z</time>
      </trkpt>
      <trkpt lat="45.29415" lon="4.67623">
        <ele>622.79998779297</ele>
        <time>2026-05-12T12:46:51.000Z</time>
      </trkpt>
      <trkpt lat="45.29416" lon="4.67626">
        <ele>622</ele>
        <time>2026-05-12T12:46:52.000Z</time>
      </trkpt>
      <trkpt lat="45.29416" lon="4.67628">
        <ele>621.59997558594</ele>
        <time>2026-05-12T12:46:53.000Z</time>
      </trkpt>
      <trkpt lat="45.29417" lon="4.67631">
        <ele>621</ele>
        <time>2026-05-12T12:46:54.000Z</time>
      </trkpt>
      <trkpt lat="45.29417" lon="4.67634">
        <ele>620.40002441406</ele>
        <time>2026-05-12T12:46:55.000Z</time>
      </trkpt>
      <trkpt lat="45.29417" lon="4.67637">
        <ele>620</ele>
        <time>2026-05-12T12:46:56.000Z</time>
      </trkpt>
      <trkpt lat="45.29418" lon="4.67641">
        <ele>619.40002441406</ele>
        <time>2026-05-12T12:46:57.000Z</time>
      </trkpt>
      <trkpt lat="45.29418" lon="4.67644">
        <ele>619</ele>
        <time>2026-05-12T12:46:58.000Z</time>
      </trkpt>
      <trkpt lat="45.29417" lon="4.67647">
        <ele>618.59997558594</ele>
        <time>2026-05-12T12:46:59.000Z</time>
      </trkpt>
      <trkpt lat="45.29417" lon="4.67651">
        <ele>618</ele>
        <time>2026-05-12T12:47:00.000Z</time>
      </trkpt>
      <trkpt lat="45.29417" lon="4.67654">
        <ele>617.40002441406</ele>
        <time>2026-05-12T12:47:01.000Z</time>
      </trkpt>
      <trkpt lat="45.29418" lon="4.67656">
        <ele>617</ele>
        <time>2026-05-12T12:47:02.000Z</time>
      </trkpt>
      <trkpt lat="45.2942" lon="4.67657">
        <ele>616.40002441406</ele>
        <time>2026-05-12T12:47:03.000Z</time>
      </trkpt>
      <trkpt lat="45.29423" lon="4.67659">
        <ele>616</ele>
        <time>2026-05-12T12:47:04.000Z</time>
      </trkpt>
      <trkpt lat="45.29426" lon="4.67659">
        <ele>615.79998779297</ele>
        <time>2026-05-12T12:47:05.000Z</time>
      </trkpt>
      <trkpt lat="45.29428" lon="4.67659">
        <ele>615.79998779297</ele>
        <time>2026-05-12T12:47:06.000Z</time>
      </trkpt>
      <trkpt lat="45.2943" lon="4.67658">
        <ele>615.79998779297</ele>
        <time>2026-05-12T12:47:07.000Z</time>
      </trkpt>
      <trkpt lat="45.29433" lon="4.67658">
        <ele>616</ele>
        <time>2026-05-12T12:47:08.000Z</time>
      </trkpt>
      <trkpt lat="45.29435" lon="4.67657">
        <ele>616</ele>
        <time>2026-05-12T12:47:09.000Z</time>
      </trkpt>
      <trkpt lat="45.29437" lon="4.67655">
        <ele>616</ele>
        <time>2026-05-12T12:47:10.000Z</time>
      </trkpt>
      <trkpt lat="45.2944" lon="4.67654">
        <ele>616</ele>
        <time>2026-05-12T12:47:11.000Z</time>
      </trkpt>
      <trkpt lat="45.29442" lon="4.67654">
        <ele>616.20001220703</ele>
        <time>2026-05-12T12:47:12.000Z</time>
      </trkpt>
      <trkpt lat="45.29445" lon="4.67652">
        <ele>616.20001220703</ele>
        <time>2026-05-12T12:47:13.000Z</time>
      </trkpt>
      <trkpt lat="45.29447" lon="4.67651">
        <ele>616.20001220703</ele>
        <time>2026-05-12T12:47:14.000Z</time>
      </trkpt>
      <trkpt lat="45.29449" lon="4.6765">
        <ele>616.20001220703</ele>
        <time>2026-05-12T12:47:15.000Z</time>
      </trkpt>
      <trkpt lat="45.29452" lon="4.67649">
        <ele>616.20001220703</ele>
        <time>2026-05-12T12:47:16.000Z</time>
      </trkpt>
      <trkpt lat="45.29454" lon="4.67648">
        <ele>616.20001220703</ele>
        <time>2026-05-12T12:47:17.000Z</time>
      </trkpt>
      <trkpt lat="45.29456" lon="4.67647">
        <ele>616.20001220703</ele>
        <time>2026-05-12T12:47:18.000Z</time>
      </trkpt>
      <trkpt lat="45.29459" lon="4.67645">
        <ele>616.20001220703</ele>
        <time>2026-05-12T12:47:19.000Z</time>
      </trkpt>
      <trkpt lat="45.29461" lon="4.67643">
        <ele>616.20001220703</ele>
        <time>2026-05-12T12:47:20.000Z</time>
      </trkpt>
      <trkpt lat="45.29463" lon="4.67641">
        <ele>616.40002441406</ele>
        <time>2026-05-12T12:47:21.000Z</time>
      </trkpt>
      <trkpt lat="45.29466" lon="4.6764">
        <ele>616.40002441406</ele>
        <time>2026-05-12T12:47:22.000Z</time>
      </trkpt>
      <trkpt lat="45.29468" lon="4.67637">
        <ele>616.59997558594</ele>
        <time>2026-05-12T12:47:23.000Z</time>
      </trkpt>
      <trkpt lat="45.2947" lon="4.67635">
        <ele>616.59997558594</ele>
        <time>2026-05-12T12:47:24.000Z</time>
      </trkpt>
      <trkpt lat="45.29471" lon="4.67634">
        <ele>616.79998779297</ele>
        <time>2026-05-12T12:47:25.000Z</time>
      </trkpt>
      <trkpt lat="45.29473" lon="4.67632">
        <ele>616.79998779297</ele>
        <time>2026-05-12T12:47:26.000Z</time>
      </trkpt>
      <trkpt lat="45.29475" lon="4.6763">
        <ele>617</ele>
        <time>2026-05-12T12:47:27.000Z</time>
      </trkpt>
      <trkpt lat="45.29477" lon="4.67628">
        <ele>617.20001220703</ele>
        <time>2026-05-12T12:47:28.000Z</time>
      </trkpt>
      <trkpt lat="45.29478" lon="4.67627">
        <ele>617.40002441406</ele>
        <time>2026-05-12T12:47:29.000Z</time>
      </trkpt>
      <trkpt lat="45.2948" lon="4.67625">
        <ele>617.59997558594</ele>
        <time>2026-05-12T12:47:30.000Z</time>
      </trkpt>
      <trkpt lat="45.29481" lon="4.67623">
        <ele>617.79998779297</ele>
        <time>2026-05-12T12:47:31.000Z</time>
      </trkpt>
      <trkpt lat="45.29483" lon="4.67621">
        <ele>618</ele>
        <time>2026-05-12T12:47:32.000Z</time>
      </trkpt>
      <trkpt lat="45.29485" lon="4.67619">
        <ele>618.40002441406</ele>
        <time>2026-05-12T12:47:33.000Z</time>
      </trkpt>
      <trkpt lat="45.29487" lon="4.67617">
        <ele>618.59997558594</ele>
        <time>2026-05-12T12:47:34.000Z</time>
      </trkpt>
      <trkpt lat="45.29489" lon="4.67616">
        <ele>618.79998779297</ele>
        <time>2026-05-12T12:47:35.000Z</time>
      </trkpt>
      <trkpt lat="45.29491" lon="4.67615">
        <ele>619</ele>
        <time>2026-05-12T12:47:36.000Z</time>
      </trkpt>
      <trkpt lat="45.29493" lon="4.67613">
        <ele>619.20001220703</ele>
        <time>2026-05-12T12:47:37.000Z</time>
      </trkpt>
      <trkpt lat="45.29495" lon="4.67612">
        <ele>619.40002441406</ele>
        <time>2026-05-12T12:47:38.000Z</time>
      </trkpt>
      <trkpt lat="45.29496" lon="4.67611">
        <ele>619.59997558594</ele>
        <time>2026-05-12T12:47:39.000Z</time>
      </trkpt>
      <trkpt lat="45.29498" lon="4.6761">
        <ele>619.59997558594</ele>
        <time>2026-05-12T12:47:40.000Z</time>
      </trkpt>
      <trkpt lat="45.295" lon="4.67609">
        <ele>619.79998779297</ele>
        <time>2026-05-12T12:47:41.000Z</time>
      </trkpt>
      <trkpt lat="45.29502" lon="4.67608">
        <ele>620</ele>
        <time>2026-05-12T12:47:42.000Z</time>
      </trkpt>
      <trkpt lat="45.29504" lon="4.67608">
        <ele>620.20001220703</ele>
        <time>2026-05-12T12:47:43.000Z</time>
      </trkpt>
      <trkpt lat="45.29505" lon="4.67608">
        <ele>620.20001220703</ele>
        <time>2026-05-12T12:47:44.000Z</time>
      </trkpt>
      <trkpt lat="45.29507" lon="4.67607">
        <ele>620.40002441406</ele>
        <time>2026-05-12T12:47:45.000Z</time>
      </trkpt>
      <trkpt lat="45.29508" lon="4.67607">
        <ele>620.59997558594</ele>
        <time>2026-05-12T12:47:46.000Z</time>
      </trkpt>
      <trkpt lat="45.2951" lon="4.67607">
        <ele>620.79998779297</ele>
        <time>2026-05-12T12:47:47.000Z</time>
      </trkpt>
      <trkpt lat="45.29512" lon="4.67607">
        <ele>621</ele>
        <time>2026-05-12T12:47:48.000Z</time>
      </trkpt>
      <trkpt lat="45.29513" lon="4.67607">
        <ele>621.20001220703</ele>
        <time>2026-05-12T12:47:49.000Z</time>
      </trkpt>
      <trkpt lat="45.29515" lon="4.67608">
        <ele>621.59997558594</ele>
        <time>2026-05-12T12:47:50.000Z</time>
      </trkpt>
      <trkpt lat="45.29516" lon="4.67608">
        <ele>621.79998779297</ele>
        <time>2026-05-12T12:47:51.000Z</time>
      </trkpt>
      <trkpt lat="45.29518" lon="4.67608">
        <ele>622</ele>
        <time>2026-05-12T12:47:52.000Z</time>
      </trkpt>
      <trkpt lat="45.29519" lon="4.67609">
        <ele>622.20001220703</ele>
        <time>2026-05-12T12:47:53.000Z</time>
      </trkpt>
      <trkpt lat="45.29522" lon="4.67609">
        <ele>622.40002441406</ele>
        <time>2026-05-12T12:47:54.000Z</time>
      </trkpt>
      <trkpt lat="45.29523" lon="4.67609">
        <ele>622.40002441406</ele>
        <time>2026-05-12T12:47:55.000Z</time>
      </trkpt>
      <trkpt lat="45.29525" lon="4.67609">
        <ele>622.59997558594</ele>
        <time>2026-05-12T12:47:56.000Z</time>
      </trkpt>
      <trkpt lat="45.29527" lon="4.6761">
        <ele>622.59997558594</ele>
        <time>2026-05-12T12:47:57.000Z</time>
      </trkpt>
      <trkpt lat="45.29529" lon="4.6761">
        <ele>622.79998779297</ele>
        <time>2026-05-12T12:47:58.000Z</time>
      </trkpt>
      <trkpt lat="45.29531" lon="4.67609">
        <ele>623</ele>
        <time>2026-05-12T12:47:59.000Z</time>
      </trkpt>
      <trkpt lat="45.29533" lon="4.67609">
        <ele>623</ele>
        <time>2026-05-12T12:48:00.000Z</time>
      </trkpt>
      <trkpt lat="45.29534" lon="4.6761">
        <ele>623.20001220703</ele>
        <time>2026-05-12T12:48:01.000Z</time>
      </trkpt>
      <trkpt lat="45.29536" lon="4.6761">
        <ele>623.40002441406</ele>
        <time>2026-05-12T12:48:02.000Z</time>
      </trkpt>
      <trkpt lat="45.29538" lon="4.6761">
        <ele>623.40002441406</ele>
        <time>2026-05-12T12:48:03.000Z</time>
      </trkpt>
      <trkpt lat="45.29541" lon="4.6761">
        <ele>623.59997558594</ele>
        <time>2026-05-12T12:48:04.000Z</time>
      </trkpt>
      <trkpt lat="45.29543" lon="4.67609">
        <ele>623.79998779297</ele>
        <time>2026-05-12T12:48:05.000Z</time>
      </trkpt>
      <trkpt lat="45.29545" lon="4.67608">
        <ele>623.79998779297</ele>
        <time>2026-05-12T12:48:06.000Z</time>
      </trkpt>
      <trkpt lat="45.29547" lon="4.67607">
        <ele>623.79998779297</ele>
        <time>2026-05-12T12:48:07.000Z</time>
      </trkpt>
      <trkpt lat="45.29549" lon="4.67607">
        <ele>623.79998779297</ele>
        <time>2026-05-12T12:48:08.000Z</time>
      </trkpt>
      <trkpt lat="45.29551" lon="4.67606">
        <ele>624</ele>
        <time>2026-05-12T12:48:09.000Z</time>
      </trkpt>
      <trkpt lat="45.29553" lon="4.67605">
        <ele>624.20001220703</ele>
        <time>2026-05-12T12:48:10.000Z</time>
      </trkpt>
      <trkpt lat="45.29555" lon="4.67604">
        <ele>624.40002441406</ele>
        <time>2026-05-12T12:48:11.000Z</time>
      </trkpt>
      <trkpt lat="45.29557" lon="4.67602">
        <ele>624.59997558594</ele>
        <time>2026-05-12T12:48:12.000Z</time>
      </trkpt>
      <trkpt lat="45.29558" lon="4.67601">
        <ele>624.79998779297</ele>
        <time>2026-05-12T12:48:13.000Z</time>
      </trkpt>
      <trkpt lat="45.2956" lon="4.676">
        <ele>625</ele>
        <time>2026-05-12T12:48:14.000Z</time>
      </trkpt>
      <trkpt lat="45.29561" lon="4.67598">
        <ele>625.20001220703</ele>
        <time>2026-05-12T12:48:15.000Z</time>
      </trkpt>
      <trkpt lat="45.29563" lon="4.67596">
        <ele>625.20001220703</ele>
        <time>2026-05-12T12:48:16.000Z</time>
      </trkpt>
      <trkpt lat="45.29564" lon="4.67594">
        <ele>625.40002441406</ele>
        <time>2026-05-12T12:48:17.000Z</time>
      </trkpt>
      <trkpt lat="45.29565" lon="4.67592">
        <ele>625.79998779297</ele>
        <time>2026-05-12T12:48:18.000Z</time>
      </trkpt>
      <trkpt lat="45.29566" lon="4.6759">
        <ele>625.79998779297</ele>
        <time>2026-05-12T12:48:19.000Z</time>
      </trkpt>
      <trkpt lat="45.29567" lon="4.67589">
        <ele>625.79998779297</ele>
        <time>2026-05-12T12:48:20.000Z</time>
      </trkpt>
      <trkpt lat="45.29569" lon="4.67587">
        <ele>626</ele>
        <time>2026-05-12T12:48:21.000Z</time>
      </trkpt>
      <trkpt lat="45.2957" lon="4.67586">
        <ele>626</ele>
        <time>2026-05-12T12:48:22.000Z</time>
      </trkpt>
      <trkpt lat="45.29572" lon="4.67585">
        <ele>626</ele>
        <time>2026-05-12T12:48:23.000Z</time>
      </trkpt>
      <trkpt lat="45.29574" lon="4.67584">
        <ele>626</ele>
        <time>2026-05-12T12:48:24.000Z</time>
      </trkpt>
      <trkpt lat="45.29576" lon="4.67584">
        <ele>626.20001220703</ele>
        <time>2026-05-12T12:48:25.000Z</time>
      </trkpt>
      <trkpt lat="45.29578" lon="4.67584">
        <ele>626.40002441406</ele>
        <time>2026-05-12T12:48:26.000Z</time>
      </trkpt>
      <trkpt lat="45.2958" lon="4.67584">
        <ele>626.59997558594</ele>
        <time>2026-05-12T12:48:27.000Z</time>
      </trkpt>
      <trkpt lat="45.29582" lon="4.67585">
        <ele>626.59997558594</ele>
        <time>2026-05-12T12:48:28.000Z</time>
      </trkpt>
      <trkpt lat="45.29583" lon="4.67586">
        <ele>626.79998779297</ele>
        <time>2026-05-12T12:48:29.000Z</time>
      </trkpt>
      <trkpt lat="45.29585" lon="4.67587">
        <ele>626.79998779297</ele>
        <time>2026-05-12T12:48:30.000Z</time>
      </trkpt>
      <trkpt lat="45.29587" lon="4.67588">
        <ele>627</ele>
        <time>2026-05-12T12:48:31.000Z</time>
      </trkpt>
      <trkpt lat="45.29588" lon="4.67589">
        <ele>627.20001220703</ele>
        <time>2026-05-12T12:48:32.000Z</time>
      </trkpt>
      <trkpt lat="45.2959" lon="4.6759">
        <ele>627.20001220703</ele>
        <time>2026-05-12T12:48:33.000Z</time>
      </trkpt>
      <trkpt lat="45.29592" lon="4.67592">
        <ele>627.40002441406</ele>
        <time>2026-05-12T12:48:34.000Z</time>
      </trkpt>
      <trkpt lat="45.29594" lon="4.67594">
        <ele>627.40002441406</ele>
        <time>2026-05-12T12:48:35.000Z</time>
      </trkpt>
      <trkpt lat="45.29595" lon="4.67595">
        <ele>627.40002441406</ele>
        <time>2026-05-12T12:48:36.000Z</time>
      </trkpt>
      <trkpt lat="45.29597" lon="4.67597">
        <ele>627.40002441406</ele>
        <time>2026-05-12T12:48:37.000Z</time>
      </trkpt>
      <trkpt lat="45.29599" lon="4.67599">
        <ele>627.20001220703</ele>
        <time>2026-05-12T12:48:38.000Z</time>
      </trkpt>
      <trkpt lat="45.296" lon="4.67601">
        <ele>627.20001220703</ele>
        <time>2026-05-12T12:48:39.000Z</time>
      </trkpt>
      <trkpt lat="45.29602" lon="4.67603">
        <ele>627.20001220703</ele>
        <time>2026-05-12T12:48:40.000Z</time>
      </trkpt>
      <trkpt lat="45.29603" lon="4.67605">
        <ele>627.20001220703</ele>
        <time>2026-05-12T12:48:41.000Z</time>
      </trkpt>
      <trkpt lat="45.29605" lon="4.67607">
        <ele>627.40002441406</ele>
        <time>2026-05-12T12:48:42.000Z</time>
      </trkpt>
      <trkpt lat="45.29606" lon="4.67608">
        <ele>627.40002441406</ele>
        <time>2026-05-12T12:48:43.000Z</time>
      </trkpt>
      <trkpt lat="45.29608" lon="4.6761">
        <ele>627.40002441406</ele>
        <time>2026-05-12T12:48:44.000Z</time>
      </trkpt>
      <trkpt lat="45.29609" lon="4.67612">
        <ele>627.59997558594</ele>
        <time>2026-05-12T12:48:45.000Z</time>
      </trkpt>
      <trkpt lat="45.29611" lon="4.67614">
        <ele>627.59997558594</ele>
        <time>2026-05-12T12:48:46.000Z</time>
      </trkpt>
      <trkpt lat="45.29612" lon="4.67615">
        <ele>627.79998779297</ele>
        <time>2026-05-12T12:48:47.000Z</time>
      </trkpt>
      <trkpt lat="45.29614" lon="4.67616">
        <ele>628</ele>
        <time>2026-05-12T12:48:48.000Z</time>
      </trkpt>
      <trkpt lat="45.29616" lon="4.67618">
        <ele>628.20001220703</ele>
        <time>2026-05-12T12:48:49.000Z</time>
      </trkpt>
      <trkpt lat="45.29617" lon="4.6762">
        <ele>628.40002441406</ele>
        <time>2026-05-12T12:48:50.000Z</time>
      </trkpt>
      <trkpt lat="45.29619" lon="4.67622">
        <ele>628.59997558594</ele>
        <time>2026-05-12T12:48:51.000Z</time>
      </trkpt>
      <trkpt lat="45.2962" lon="4.67624">
        <ele>629</ele>
        <time>2026-05-12T12:48:52.000Z</time>
      </trkpt>
      <trkpt lat="45.29621" lon="4.67625">
        <ele>629.20001220703</ele>
        <time>2026-05-12T12:48:53.000Z</time>
      </trkpt>
      <trkpt lat="45.29622" lon="4.67627">
        <ele>629.40002441406</ele>
        <time>2026-05-12T12:48:54.000Z</time>
      </trkpt>
      <trkpt lat="45.29624" lon="4.67628">
        <ele>629.59997558594</ele>
        <time>2026-05-12T12:48:55.000Z</time>
      </trkpt>
      <trkpt lat="45.29625" lon="4.6763">
        <ele>630</ele>
        <time>2026-05-12T12:48:56.000Z</time>
      </trkpt>
      <trkpt lat="45.29627" lon="4.67632">
        <ele>630.20001220703</ele>
        <time>2026-05-12T12:48:57.000Z</time>
      </trkpt>
      <trkpt lat="45.29628" lon="4.67634">
        <ele>630.20001220703</ele>
        <time>2026-05-12T12:48:58.000Z</time>
      </trkpt>
      <trkpt lat="45.29629" lon="4.67636">
        <ele>630.40002441406</ele>
        <time>2026-05-12T12:48:59.000Z</time>
      </trkpt>
      <trkpt lat="45.29631" lon="4.67637">
        <ele>630.59997558594</ele>
        <time>2026-05-12T12:49:00.000Z</time>
      </trkpt>
      <trkpt lat="45.29633" lon="4.67639">
        <ele>630.59997558594</ele>
        <time>2026-05-12T12:49:01.000Z</time>
      </trkpt>
      <trkpt lat="45.29634" lon="4.67641">
        <ele>630.79998779297</ele>
        <time>2026-05-12T12:49:02.000Z</time>
      </trkpt>
      <trkpt lat="45.29636" lon="4.67642">
        <ele>631</ele>
        <time>2026-05-12T12:49:03.000Z</time>
      </trkpt>
      <trkpt lat="45.29638" lon="4.67643">
        <ele>631.40002441406</ele>
        <time>2026-05-12T12:49:04.000Z</time>
      </trkpt>
      <trkpt lat="45.29639" lon="4.67645">
        <ele>631.59997558594</ele>
        <time>2026-05-12T12:49:05.000Z</time>
      </trkpt>
      <trkpt lat="45.29641" lon="4.67647">
        <ele>631.79998779297</ele>
        <time>2026-05-12T12:49:06.000Z</time>
      </trkpt>
      <trkpt lat="45.29643" lon="4.6765">
        <ele>632</ele>
        <time>2026-05-12T12:49:07.000Z</time>
      </trkpt>
      <trkpt lat="45.29645" lon="4.67652">
        <ele>632</ele>
        <time>2026-05-12T12:49:08.000Z</time>
      </trkpt>
      <trkpt lat="45.29646" lon="4.67654">
        <ele>632</ele>
        <time>2026-05-12T12:49:09.000Z</time>
      </trkpt>
      <trkpt lat="45.29648" lon="4.67655">
        <ele>632</ele>
        <time>2026-05-12T12:49:10.000Z</time>
      </trkpt>
      <trkpt lat="45.2965" lon="4.67657">
        <ele>632</ele>
        <time>2026-05-12T12:49:11.000Z</time>
      </trkpt>
      <trkpt lat="45.29652" lon="4.67659">
        <ele>632</ele>
        <time>2026-05-12T12:49:12.000Z</time>
      </trkpt>
      <trkpt lat="45.29654" lon="4.67661">
        <ele>632.20001220703</ele>
        <time>2026-05-12T12:49:13.000Z</time>
      </trkpt>
      <trkpt lat="45.29656" lon="4.67664">
        <ele>632.40002441406</ele>
        <time>2026-05-12T12:49:14.000Z</time>
      </trkpt>
      <trkpt lat="45.29658" lon="4.67666">
        <ele>632.59997558594</ele>
        <time>2026-05-12T12:49:15.000Z</time>
      </trkpt>
      <trkpt lat="45.2966" lon="4.67668">
        <ele>633</ele>
        <time>2026-05-12T12:49:16.000Z</time>
      </trkpt>
      <trkpt lat="45.29661" lon="4.6767">
        <ele>633.20001220703</ele>
        <time>2026-05-12T12:49:17.000Z</time>
      </trkpt>
      <trkpt lat="45.29663" lon="4.67671">
        <ele>633.40002441406</ele>
        <time>2026-05-12T12:49:18.000Z</time>
      </trkpt>
      <trkpt lat="45.29665" lon="4.67672">
        <ele>633.79998779297</ele>
        <time>2026-05-12T12:49:19.000Z</time>
      </trkpt>
      <trkpt lat="45.29668" lon="4.67674">
        <ele>634</ele>
        <time>2026-05-12T12:49:20.000Z</time>
      </trkpt>
      <trkpt lat="45.29669" lon="4.67675">
        <ele>634.20001220703</ele>
        <time>2026-05-12T12:49:21.000Z</time>
      </trkpt>
      <trkpt lat="45.29671" lon="4.67676">
        <ele>634.40002441406</ele>
        <time>2026-05-12T12:49:22.000Z</time>
      </trkpt>
      <trkpt lat="45.29673" lon="4.67677">
        <ele>634.59997558594</ele>
        <time>2026-05-12T12:49:23.000Z</time>
      </trkpt>
      <trkpt lat="45.29675" lon="4.67678">
        <ele>634.79998779297</ele>
        <time>2026-05-12T12:49:24.000Z</time>
      </trkpt>
      <trkpt lat="45.29677" lon="4.67679">
        <ele>635</ele>
        <time>2026-05-12T12:49:25.000Z</time>
      </trkpt>
      <trkpt lat="45.29679" lon="4.6768">
        <ele>635.20001220703</ele>
        <time>2026-05-12T12:49:26.000Z</time>
      </trkpt>
      <trkpt lat="45.29681" lon="4.67681">
        <ele>635.40002441406</ele>
        <time>2026-05-12T12:49:27.000Z</time>
      </trkpt>
      <trkpt lat="45.29683" lon="4.67682">
        <ele>635.79998779297</ele>
        <time>2026-05-12T12:49:28.000Z</time>
      </trkpt>
      <trkpt lat="45.29685" lon="4.67683">
        <ele>636</ele>
        <time>2026-05-12T12:49:29.000Z</time>
      </trkpt>
      <trkpt lat="45.29687" lon="4.67683">
        <ele>636.40002441406</ele>
        <time>2026-05-12T12:49:30.000Z</time>
      </trkpt>
      <trkpt lat="45.29689" lon="4.67684">
        <ele>636.59997558594</ele>
        <time>2026-05-12T12:49:31.000Z</time>
      </trkpt>
      <trkpt lat="45.29691" lon="4.67685">
        <ele>637</ele>
        <time>2026-05-12T12:49:32.000Z</time>
      </trkpt>
      <trkpt lat="45.29693" lon="4.67686">
        <ele>637.20001220703</ele>
        <time>2026-05-12T12:49:33.000Z</time>
      </trkpt>
      <trkpt lat="45.29695" lon="4.67687">
        <ele>637.40002441406</ele>
        <time>2026-05-12T12:49:34.000Z</time>
      </trkpt>
      <trkpt lat="45.29697" lon="4.67688">
        <ele>637.59997558594</ele>
        <time>2026-05-12T12:49:35.000Z</time>
      </trkpt>
      <trkpt lat="45.29699" lon="4.6769">
        <ele>638</ele>
        <time>2026-05-12T12:49:36.000Z</time>
      </trkpt>
      <trkpt lat="45.29701" lon="4.67691">
        <ele>638</ele>
        <time>2026-05-12T12:49:37.000Z</time>
      </trkpt>
      <trkpt lat="45.29703" lon="4.67692">
        <ele>638.40002441406</ele>
        <time>2026-05-12T12:49:38.000Z</time>
      </trkpt>
      <trkpt lat="45.29705" lon="4.67693">
        <ele>638.59997558594</ele>
        <time>2026-05-12T12:49:39.000Z</time>
      </trkpt>
      <trkpt lat="45.29706" lon="4.67694">
        <ele>638.79998779297</ele>
        <time>2026-05-12T12:49:40.000Z</time>
      </trkpt>
      <trkpt lat="45.29708" lon="4.67694">
        <ele>639</ele>
        <time>2026-05-12T12:49:41.000Z</time>
      </trkpt>
      <trkpt lat="45.2971" lon="4.67695">
        <ele>639.20001220703</ele>
        <time>2026-05-12T12:49:42.000Z</time>
      </trkpt>
      <trkpt lat="45.29712" lon="4.67696">
        <ele>639.59997558594</ele>
        <time>2026-05-12T12:49:43.000Z</time>
      </trkpt>
      <trkpt lat="45.29714" lon="4.67697">
        <ele>639.79998779297</ele>
        <time>2026-05-12T12:49:44.000Z</time>
      </trkpt>
      <trkpt lat="45.29715" lon="4.67698">
        <ele>640</ele>
        <time>2026-05-12T12:49:45.000Z</time>
      </trkpt>
      <trkpt lat="45.29717" lon="4.67698">
        <ele>640.20001220703</ele>
        <time>2026-05-12T12:49:46.000Z</time>
      </trkpt>
      <trkpt lat="45.29719" lon="4.67699">
        <ele>640.40002441406</ele>
        <time>2026-05-12T12:49:47.000Z</time>
      </trkpt>
      <trkpt lat="45.29721" lon="4.677">
        <ele>640.40002441406</ele>
        <time>2026-05-12T12:49:48.000Z</time>
      </trkpt>
      <trkpt lat="45.29722" lon="4.677">
        <ele>640.59997558594</ele>
        <time>2026-05-12T12:49:49.000Z</time>
      </trkpt>
      <trkpt lat="45.29724" lon="4.67701">
        <ele>641</ele>
        <time>2026-05-12T12:49:50.000Z</time>
      </trkpt>
      <trkpt lat="45.29726" lon="4.67701">
        <ele>641.20001220703</ele>
        <time>2026-05-12T12:49:51.000Z</time>
      </trkpt>
      <trkpt lat="45.29727" lon="4.67701">
        <ele>641.40002441406</ele>
        <time>2026-05-12T12:49:52.000Z</time>
      </trkpt>
      <trkpt lat="45.29729" lon="4.67701">
        <ele>641.59997558594</ele>
        <time>2026-05-12T12:49:53.000Z</time>
      </trkpt>
      <trkpt lat="45.29731" lon="4.67701">
        <ele>642</ele>
        <time>2026-05-12T12:49:54.000Z</time>
      </trkpt>
      <trkpt lat="45.29733" lon="4.67701">
        <ele>642.20001220703</ele>
        <time>2026-05-12T12:49:55.000Z</time>
      </trkpt>
      <trkpt lat="45.29735" lon="4.67701">
        <ele>642.40002441406</ele>
        <time>2026-05-12T12:49:56.000Z</time>
      </trkpt>
      <trkpt lat="45.29737" lon="4.67701">
        <ele>642.59997558594</ele>
        <time>2026-05-12T12:49:57.000Z</time>
      </trkpt>
      <trkpt lat="45.29738" lon="4.67703">
        <ele>642.79998779297</ele>
        <time>2026-05-12T12:49:58.000Z</time>
      </trkpt>
      <trkpt lat="45.2974" lon="4.67703">
        <ele>642.79998779297</ele>
        <time>2026-05-12T12:49:59.000Z</time>
      </trkpt>
      <trkpt lat="45.29742" lon="4.67704">
        <ele>643</ele>
        <time>2026-05-12T12:50:00.000Z</time>
      </trkpt>
      <trkpt lat="45.29744" lon="4.67704">
        <ele>643.20001220703</ele>
        <time>2026-05-12T12:50:01.000Z</time>
      </trkpt>
      <trkpt lat="45.29745" lon="4.67705">
        <ele>643.40002441406</ele>
        <time>2026-05-12T12:50:02.000Z</time>
      </trkpt>
      <trkpt lat="45.29747" lon="4.67706">
        <ele>643.59997558594</ele>
        <time>2026-05-12T12:50:03.000Z</time>
      </trkpt>
      <trkpt lat="45.29748" lon="4.67707">
        <ele>644</ele>
        <time>2026-05-12T12:50:04.000Z</time>
      </trkpt>
      <trkpt lat="45.2975" lon="4.67707">
        <ele>644.20001220703</ele>
        <time>2026-05-12T12:50:05.000Z</time>
      </trkpt>
      <trkpt lat="45.29752" lon="4.67708">
        <ele>644.40002441406</ele>
        <time>2026-05-12T12:50:06.000Z</time>
      </trkpt>
      <trkpt lat="45.29753" lon="4.67708">
        <ele>644.79998779297</ele>
        <time>2026-05-12T12:50:07.000Z</time>
      </trkpt>
      <trkpt lat="45.29755" lon="4.67709">
        <ele>645</ele>
        <time>2026-05-12T12:50:08.000Z</time>
      </trkpt>
      <trkpt lat="45.29756" lon="4.67709">
        <ele>645.20001220703</ele>
        <time>2026-05-12T12:50:09.000Z</time>
      </trkpt>
      <trkpt lat="45.29757" lon="4.67709">
        <ele>645.40002441406</ele>
        <time>2026-05-12T12:50:10.000Z</time>
      </trkpt>
      <trkpt lat="45.29759" lon="4.6771">
        <ele>645.59997558594</ele>
        <time>2026-05-12T12:50:11.000Z</time>
      </trkpt>
      <trkpt lat="45.2976" lon="4.67711">
        <ele>645.79998779297</ele>
        <time>2026-05-12T12:50:12.000Z</time>
      </trkpt>
      <trkpt lat="45.29762" lon="4.67711">
        <ele>646</ele>
        <time>2026-05-12T12:50:13.000Z</time>
      </trkpt>
      <trkpt lat="45.29764" lon="4.67712">
        <ele>646.20001220703</ele>
        <time>2026-05-12T12:50:14.000Z</time>
      </trkpt>
      <trkpt lat="45.29765" lon="4.67712">
        <ele>646.20001220703</ele>
        <time>2026-05-12T12:50:15.000Z</time>
      </trkpt>
      <trkpt lat="45.29767" lon="4.67712">
        <ele>646.40002441406</ele>
        <time>2026-05-12T12:50:16.000Z</time>
      </trkpt>
      <trkpt lat="45.29769" lon="4.67712">
        <ele>646.59997558594</ele>
        <time>2026-05-12T12:50:17.000Z</time>
      </trkpt>
      <trkpt lat="45.2977" lon="4.67713">
        <ele>646.79998779297</ele>
        <time>2026-05-12T12:50:18.000Z</time>
      </trkpt>
      <trkpt lat="45.29772" lon="4.67712">
        <ele>646.79998779297</ele>
        <time>2026-05-12T12:50:19.000Z</time>
      </trkpt>
      <trkpt lat="45.29774" lon="4.67712">
        <ele>647</ele>
        <time>2026-05-12T12:50:20.000Z</time>
      </trkpt>
      <trkpt lat="45.29776" lon="4.67712">
        <ele>647.40002441406</ele>
        <time>2026-05-12T12:50:21.000Z</time>
      </trkpt>
      <trkpt lat="45.29778" lon="4.67712">
        <ele>647.59997558594</ele>
        <time>2026-05-12T12:50:22.000Z</time>
      </trkpt>
      <trkpt lat="45.2978" lon="4.67713">
        <ele>647.79998779297</ele>
        <time>2026-05-12T12:50:23.000Z</time>
      </trkpt>
      <trkpt lat="45.29781" lon="4.67713">
        <ele>648</ele>
        <time>2026-05-12T12:50:24.000Z</time>
      </trkpt>
      <trkpt lat="45.29783" lon="4.67713">
        <ele>648.20001220703</ele>
        <time>2026-05-12T12:50:25.000Z</time>
      </trkpt>
      <trkpt lat="45.29785" lon="4.67713">
        <ele>648.40002441406</ele>
        <time>2026-05-12T12:50:26.000Z</time>
      </trkpt>
      <trkpt lat="45.29786" lon="4.67713">
        <ele>648.59997558594</ele>
        <time>2026-05-12T12:50:27.000Z</time>
      </trkpt>
      <trkpt lat="45.29787" lon="4.67714">
        <ele>648.79998779297</ele>
        <time>2026-05-12T12:50:28.000Z</time>
      </trkpt>
      <trkpt lat="45.29789" lon="4.67715">
        <ele>649.20001220703</ele>
        <time>2026-05-12T12:50:29.000Z</time>
      </trkpt>
      <trkpt lat="45.29791" lon="4.67715">
        <ele>649.40002441406</ele>
        <time>2026-05-12T12:50:30.000Z</time>
      </trkpt>
      <trkpt lat="45.29793" lon="4.67716">
        <ele>649.59997558594</ele>
        <time>2026-05-12T12:50:31.000Z</time>
      </trkpt>
      <trkpt lat="45.29795" lon="4.67717">
        <ele>649.79998779297</ele>
        <time>2026-05-12T12:50:32.000Z</time>
      </trkpt>
      <trkpt lat="45.29797" lon="4.67717">
        <ele>650</ele>
        <time>2026-05-12T12:50:33.000Z</time>
      </trkpt>
      <trkpt lat="45.29799" lon="4.67718">
        <ele>650.20001220703</ele>
        <time>2026-05-12T12:50:34.000Z</time>
      </trkpt>
      <trkpt lat="45.298" lon="4.67719">
        <ele>650.40002441406</ele>
        <time>2026-05-12T12:50:35.000Z</time>
      </trkpt>
      <trkpt lat="45.29802" lon="4.6772">
        <ele>650.59997558594</ele>
        <time>2026-05-12T12:50:36.000Z</time>
      </trkpt>
      <trkpt lat="45.29803" lon="4.67721">
        <ele>650.79998779297</ele>
        <time>2026-05-12T12:50:37.000Z</time>
      </trkpt>
      <trkpt lat="45.29805" lon="4.67722">
        <ele>651</ele>
        <time>2026-05-12T12:50:38.000Z</time>
      </trkpt>
      <trkpt lat="45.29807" lon="4.67722">
        <ele>651.20001220703</ele>
        <time>2026-05-12T12:50:39.000Z</time>
      </trkpt>
      <trkpt lat="45.29809" lon="4.67723">
        <ele>651.40002441406</ele>
        <time>2026-05-12T12:50:40.000Z</time>
      </trkpt>
      <trkpt lat="45.29811" lon="4.67724">
        <ele>651.40002441406</ele>
        <time>2026-05-12T12:50:41.000Z</time>
      </trkpt>
      <trkpt lat="45.29813" lon="4.67725">
        <ele>651.59997558594</ele>
        <time>2026-05-12T12:50:42.000Z</time>
      </trkpt>
      <trkpt lat="45.29814" lon="4.67726">
        <ele>651.59997558594</ele>
        <time>2026-05-12T12:50:43.000Z</time>
      </trkpt>
      <trkpt lat="45.29816" lon="4.67726">
        <ele>651.59997558594</ele>
        <time>2026-05-12T12:50:44.000Z</time>
      </trkpt>
      <trkpt lat="45.29818" lon="4.67727">
        <ele>651.59997558594</ele>
        <time>2026-05-12T12:50:45.000Z</time>
      </trkpt>
      <trkpt lat="45.29819" lon="4.67727">
        <ele>651.59997558594</ele>
        <time>2026-05-12T12:50:46.000Z</time>
      </trkpt>
      <trkpt lat="45.29821" lon="4.67728">
        <ele>651.79998779297</ele>
        <time>2026-05-12T12:50:47.000Z</time>
      </trkpt>
      <trkpt lat="45.29823" lon="4.6773">
        <ele>652</ele>
        <time>2026-05-12T12:50:48.000Z</time>
      </trkpt>
      <trkpt lat="45.29824" lon="4.67731">
        <ele>652.20001220703</ele>
        <time>2026-05-12T12:50:49.000Z</time>
      </trkpt>
      <trkpt lat="45.29825" lon="4.67731">
        <ele>652.20001220703</ele>
        <time>2026-05-12T12:50:50.000Z</time>
      </trkpt>
      <trkpt lat="45.29827" lon="4.67732">
        <ele>652.40002441406</ele>
        <time>2026-05-12T12:50:51.000Z</time>
      </trkpt>
      <trkpt lat="45.29828" lon="4.67732">
        <ele>652.40002441406</ele>
        <time>2026-05-12T12:50:52.000Z</time>
      </trkpt>
      <trkpt lat="45.2983" lon="4.67733">
        <ele>652.59997558594</ele>
        <time>2026-05-12T12:50:53.000Z</time>
      </trkpt>
      <trkpt lat="45.29832" lon="4.67733">
        <ele>652.59997558594</ele>
        <time>2026-05-12T12:50:54.000Z</time>
      </trkpt>
      <trkpt lat="45.29833" lon="4.67733">
        <ele>652.79998779297</ele>
        <time>2026-05-12T12:50:55.000Z</time>
      </trkpt>
      <trkpt lat="45.29835" lon="4.67733">
        <ele>653.20001220703</ele>
        <time>2026-05-12T12:50:56.000Z</time>
      </trkpt>
      <trkpt lat="45.29837" lon="4.67734">
        <ele>653.40002441406</ele>
        <time>2026-05-12T12:50:57.000Z</time>
      </trkpt>
      <trkpt lat="45.29839" lon="4.67734">
        <ele>653.59997558594</ele>
        <time>2026-05-12T12:50:58.000Z</time>
      </trkpt>
      <trkpt lat="45.29841" lon="4.67734">
        <ele>653.79998779297</ele>
        <time>2026-05-12T12:50:59.000Z</time>
      </trkpt>
      <trkpt lat="45.29843" lon="4.67734">
        <ele>654</ele>
        <time>2026-05-12T12:51:00.000Z</time>
      </trkpt>
      <trkpt lat="45.29844" lon="4.67735">
        <ele>654.40002441406</ele>
        <time>2026-05-12T12:51:01.000Z</time>
      </trkpt>
      <trkpt lat="45.29846" lon="4.67736">
        <ele>654.59997558594</ele>
        <time>2026-05-12T12:51:02.000Z</time>
      </trkpt>
      <trkpt lat="45.29848" lon="4.67737">
        <ele>654.79998779297</ele>
        <time>2026-05-12T12:51:03.000Z</time>
      </trkpt>
      <trkpt lat="45.2985" lon="4.67737">
        <ele>655.20001220703</ele>
        <time>2026-05-12T12:51:04.000Z</time>
      </trkpt>
      <trkpt lat="45.29851" lon="4.67738">
        <ele>655.40002441406</ele>
        <time>2026-05-12T12:51:05.000Z</time>
      </trkpt>
      <trkpt lat="45.29853" lon="4.67738">
        <ele>655.59997558594</ele>
        <time>2026-05-12T12:51:06.000Z</time>
      </trkpt>
      <trkpt lat="45.29855" lon="4.67738">
        <ele>655.79998779297</ele>
        <time>2026-05-12T12:51:07.000Z</time>
      </trkpt>
      <trkpt lat="45.29857" lon="4.67739">
        <ele>656</ele>
        <time>2026-05-12T12:51:08.000Z</time>
      </trkpt>
      <trkpt lat="45.29858" lon="4.67739">
        <ele>656.20001220703</ele>
        <time>2026-05-12T12:51:09.000Z</time>
      </trkpt>
      <trkpt lat="45.2986" lon="4.6774">
        <ele>656.40002441406</ele>
        <time>2026-05-12T12:51:10.000Z</time>
      </trkpt>
      <trkpt lat="45.29862" lon="4.67741">
        <ele>656.59997558594</ele>
        <time>2026-05-12T12:51:11.000Z</time>
      </trkpt>
      <trkpt lat="45.29864" lon="4.67741">
        <ele>656.79998779297</ele>
        <time>2026-05-12T12:51:12.000Z</time>
      </trkpt>
      <trkpt lat="45.29866" lon="4.67742">
        <ele>656.79998779297</ele>
        <time>2026-05-12T12:51:13.000Z</time>
      </trkpt>
      <trkpt lat="45.29867" lon="4.67742">
        <ele>656.79998779297</ele>
        <time>2026-05-12T12:51:14.000Z</time>
      </trkpt>
      <trkpt lat="45.2987" lon="4.67743">
        <ele>656.79998779297</ele>
        <time>2026-05-12T12:51:15.000Z</time>
      </trkpt>
      <trkpt lat="45.29872" lon="4.67744">
        <ele>656.79998779297</ele>
        <time>2026-05-12T12:51:16.000Z</time>
      </trkpt>
      <trkpt lat="45.29874" lon="4.67746">
        <ele>656.79998779297</ele>
        <time>2026-05-12T12:51:17.000Z</time>
      </trkpt>
      <trkpt lat="45.29875" lon="4.67747">
        <ele>656.79998779297</ele>
        <time>2026-05-12T12:51:18.000Z</time>
      </trkpt>
      <trkpt lat="45.29877" lon="4.67747">
        <ele>656.79998779297</ele>
        <time>2026-05-12T12:51:19.000Z</time>
      </trkpt>
      <trkpt lat="45.29879" lon="4.67747">
        <ele>657</ele>
        <time>2026-05-12T12:51:20.000Z</time>
      </trkpt>
      <trkpt lat="45.2988" lon="4.67748">
        <ele>657</ele>
        <time>2026-05-12T12:51:21.000Z</time>
      </trkpt>
      <trkpt lat="45.29881" lon="4.67748">
        <ele>657.20001220703</ele>
        <time>2026-05-12T12:51:22.000Z</time>
      </trkpt>
      <trkpt lat="45.29884" lon="4.67749">
        <ele>657.20001220703</ele>
        <time>2026-05-12T12:51:23.000Z</time>
      </trkpt>
      <trkpt lat="45.29886" lon="4.67751">
        <ele>657.40002441406</ele>
        <time>2026-05-12T12:51:24.000Z</time>
      </trkpt>
      <trkpt lat="45.29888" lon="4.67751">
        <ele>657.40002441406</ele>
        <time>2026-05-12T12:51:25.000Z</time>
      </trkpt>
      <trkpt lat="45.2989" lon="4.67751">
        <ele>657.59997558594</ele>
        <time>2026-05-12T12:51:26.000Z</time>
      </trkpt>
      <trkpt lat="45.29892" lon="4.67752">
        <ele>657.59997558594</ele>
        <time>2026-05-12T12:51:27.000Z</time>
      </trkpt>
      <trkpt lat="45.29894" lon="4.67753">
        <ele>657.59997558594</ele>
        <time>2026-05-12T12:51:28.000Z</time>
      </trkpt>
      <trkpt lat="45.29895" lon="4.67754">
        <ele>657.59997558594</ele>
        <time>2026-05-12T12:51:29.000Z</time>
      </trkpt>
      <trkpt lat="45.29897" lon="4.67755">
        <ele>657.79998779297</ele>
        <time>2026-05-12T12:51:30.000Z</time>
      </trkpt>
      <trkpt lat="45.29898" lon="4.67756">
        <ele>657.79998779297</ele>
        <time>2026-05-12T12:51:31.000Z</time>
      </trkpt>
      <trkpt lat="45.299" lon="4.67756">
        <ele>658</ele>
        <time>2026-05-12T12:51:32.000Z</time>
      </trkpt>
      <trkpt lat="45.29902" lon="4.67757">
        <ele>658.20001220703</ele>
        <time>2026-05-12T12:51:33.000Z</time>
      </trkpt>
      <trkpt lat="45.29904" lon="4.67758">
        <ele>658.20001220703</ele>
        <time>2026-05-12T12:51:34.000Z</time>
      </trkpt>
      <trkpt lat="45.29907" lon="4.67759">
        <ele>658.40002441406</ele>
        <time>2026-05-12T12:51:35.000Z</time>
      </trkpt>
      <trkpt lat="45.29909" lon="4.6776">
        <ele>658.40002441406</ele>
        <time>2026-05-12T12:51:36.000Z</time>
      </trkpt>
      <trkpt lat="45.29912" lon="4.67762">
        <ele>658.40002441406</ele>
        <time>2026-05-12T12:51:37.000Z</time>
      </trkpt>
      <trkpt lat="45.29914" lon="4.67764">
        <ele>658.40002441406</ele>
        <time>2026-05-12T12:51:38.000Z</time>
      </trkpt>
      <trkpt lat="45.29917" lon="4.67766">
        <ele>658.40002441406</ele>
        <time>2026-05-12T12:51:39.000Z</time>
      </trkpt>
      <trkpt lat="45.2992" lon="4.67768">
        <ele>658</ele>
        <time>2026-05-12T12:51:40.000Z</time>
      </trkpt>
      <trkpt lat="45.29923" lon="4.6777">
        <ele>657.59997558594</ele>
        <time>2026-05-12T12:51:41.000Z</time>
      </trkpt>
      <trkpt lat="45.29926" lon="4.67773">
        <ele>657.40002441406</ele>
        <time>2026-05-12T12:51:42.000Z</time>
      </trkpt>
      <trkpt lat="45.2993" lon="4.67776">
        <ele>657</ele>
        <time>2026-05-12T12:51:43.000Z</time>
      </trkpt>
      <trkpt lat="45.29933" lon="4.67778">
        <ele>656.59997558594</ele>
        <time>2026-05-12T12:51:44.000Z</time>
      </trkpt>
      <trkpt lat="45.29935" lon="4.6778">
        <ele>656.40002441406</ele>
        <time>2026-05-12T12:51:45.000Z</time>
      </trkpt>
      <trkpt lat="45.29938" lon="4.67782">
        <ele>656.20001220703</ele>
        <time>2026-05-12T12:51:46.000Z</time>
      </trkpt>
      <trkpt lat="45.29941" lon="4.67784">
        <ele>656</ele>
        <time>2026-05-12T12:51:47.000Z</time>
      </trkpt>
      <trkpt lat="45.29944" lon="4.67787">
        <ele>655.79998779297</ele>
        <time>2026-05-12T12:51:48.000Z</time>
      </trkpt>
      <trkpt lat="45.29948" lon="4.67789">
        <ele>655.79998779297</ele>
        <time>2026-05-12T12:51:49.000Z</time>
      </trkpt>
      <trkpt lat="45.29951" lon="4.67792">
        <ele>656</ele>
        <time>2026-05-12T12:51:50.000Z</time>
      </trkpt>
      <trkpt lat="45.29954" lon="4.67795">
        <ele>656.20001220703</ele>
        <time>2026-05-12T12:51:51.000Z</time>
      </trkpt>
      <trkpt lat="45.29956" lon="4.67797">
        <ele>656.40002441406</ele>
        <time>2026-05-12T12:51:52.000Z</time>
      </trkpt>
      <trkpt lat="45.29959" lon="4.678">
        <ele>656.59997558594</ele>
        <time>2026-05-12T12:51:53.000Z</time>
      </trkpt>
      <trkpt lat="45.29961" lon="4.67801">
        <ele>656.79998779297</ele>
        <time>2026-05-12T12:51:54.000Z</time>
      </trkpt>
      <trkpt lat="45.29963" lon="4.67802">
        <ele>657.20001220703</ele>
        <time>2026-05-12T12:51:55.000Z</time>
      </trkpt>
      <trkpt lat="45.29965" lon="4.67803">
        <ele>657.20001220703</ele>
        <time>2026-05-12T12:51:56.000Z</time>
      </trkpt>
      <trkpt lat="45.29968" lon="4.67805">
        <ele>657.40002441406</ele>
        <time>2026-05-12T12:51:57.000Z</time>
      </trkpt>
      <trkpt lat="45.2997" lon="4.67807">
        <ele>657.59997558594</ele>
        <time>2026-05-12T12:51:58.000Z</time>
      </trkpt>
      <trkpt lat="45.29972" lon="4.67809">
        <ele>657.59997558594</ele>
        <time>2026-05-12T12:51:59.000Z</time>
      </trkpt>
      <trkpt lat="45.29974" lon="4.67812">
        <ele>657.40002441406</ele>
        <time>2026-05-12T12:52:00.000Z</time>
      </trkpt>
      <trkpt lat="45.29976" lon="4.67814">
        <ele>657.40002441406</ele>
        <time>2026-05-12T12:52:01.000Z</time>
      </trkpt>
      <trkpt lat="45.29977" lon="4.67816">
        <ele>657.20001220703</ele>
        <time>2026-05-12T12:52:02.000Z</time>
      </trkpt>
      <trkpt lat="45.29978" lon="4.67818">
        <ele>657.20001220703</ele>
        <time>2026-05-12T12:52:03.000Z</time>
      </trkpt>
      <trkpt lat="45.29979" lon="4.67821">
        <ele>657.20001220703</ele>
        <time>2026-05-12T12:52:04.000Z</time>
      </trkpt>
      <trkpt lat="45.2998" lon="4.67824">
        <ele>657.20001220703</ele>
        <time>2026-05-12T12:52:05.000Z</time>
      </trkpt>
      <trkpt lat="45.29982" lon="4.67827">
        <ele>657.20001220703</ele>
        <time>2026-05-12T12:52:06.000Z</time>
      </trkpt>
      <trkpt lat="45.29983" lon="4.67829">
        <ele>657.20001220703</ele>
        <time>2026-05-12T12:52:07.000Z</time>
      </trkpt>
      <trkpt lat="45.29984" lon="4.67832">
        <ele>657.40002441406</ele>
        <time>2026-05-12T12:52:08.000Z</time>
      </trkpt>
      <trkpt lat="45.29985" lon="4.67836">
        <ele>657.40002441406</ele>
        <time>2026-05-12T12:52:09.000Z</time>
      </trkpt>
      <trkpt lat="45.29985" lon="4.67838">
        <ele>657.59997558594</ele>
        <time>2026-05-12T12:52:10.000Z</time>
      </trkpt>
      <trkpt lat="45.29986" lon="4.67841">
        <ele>657.59997558594</ele>
        <time>2026-05-12T12:52:11.000Z</time>
      </trkpt>
      <trkpt lat="45.29988" lon="4.67843">
        <ele>657.59997558594</ele>
        <time>2026-05-12T12:52:12.000Z</time>
      </trkpt>
      <trkpt lat="45.29989" lon="4.67846">
        <ele>657.59997558594</ele>
        <time>2026-05-12T12:52:13.000Z</time>
      </trkpt>
      <trkpt lat="45.2999" lon="4.67848">
        <ele>657.79998779297</ele>
        <time>2026-05-12T12:52:14.000Z</time>
      </trkpt>
      <trkpt lat="45.29991" lon="4.67851">
        <ele>657.79998779297</ele>
        <time>2026-05-12T12:52:15.000Z</time>
      </trkpt>
      <trkpt lat="45.29992" lon="4.67853">
        <ele>657.79998779297</ele>
        <time>2026-05-12T12:52:16.000Z</time>
      </trkpt>
      <trkpt lat="45.29994" lon="4.67855">
        <ele>658</ele>
        <time>2026-05-12T12:52:17.000Z</time>
      </trkpt>
      <trkpt lat="45.29995" lon="4.67858">
        <ele>658</ele>
        <time>2026-05-12T12:52:18.000Z</time>
      </trkpt>
      <trkpt lat="45.29996" lon="4.67861">
        <ele>658.20001220703</ele>
        <time>2026-05-12T12:52:19.000Z</time>
      </trkpt>
      <trkpt lat="45.29997" lon="4.67864">
        <ele>658.40002441406</ele>
        <time>2026-05-12T12:52:20.000Z</time>
      </trkpt>
      <trkpt lat="45.29999" lon="4.67866">
        <ele>658.40002441406</ele>
        <time>2026-05-12T12:52:21.000Z</time>
      </trkpt>
      <trkpt lat="45.3" lon="4.67869">
        <ele>658.59997558594</ele>
        <time>2026-05-12T12:52:22.000Z</time>
      </trkpt>
      <trkpt lat="45.30002" lon="4.67871">
        <ele>658.79998779297</ele>
        <time>2026-05-12T12:52:23.000Z</time>
      </trkpt>
      <trkpt lat="45.30004" lon="4.67873">
        <ele>659</ele>
        <time>2026-05-12T12:52:24.000Z</time>
      </trkpt>
      <trkpt lat="45.30006" lon="4.67875">
        <ele>659</ele>
        <time>2026-05-12T12:52:25.000Z</time>
      </trkpt>
      <trkpt lat="45.30008" lon="4.67878">
        <ele>659.20001220703</ele>
        <time>2026-05-12T12:52:26.000Z</time>
      </trkpt>
      <trkpt lat="45.30009" lon="4.6788">
        <ele>659.40002441406</ele>
        <time>2026-05-12T12:52:27.000Z</time>
      </trkpt>
      <trkpt lat="45.30011" lon="4.67882">
        <ele>659.59997558594</ele>
        <time>2026-05-12T12:52:28.000Z</time>
      </trkpt>
      <trkpt lat="45.30013" lon="4.67884">
        <ele>660</ele>
        <time>2026-05-12T12:52:29.000Z</time>
      </trkpt>
      <trkpt lat="45.30015" lon="4.67886">
        <ele>660.20001220703</ele>
        <time>2026-05-12T12:52:30.000Z</time>
      </trkpt>
      <trkpt lat="45.30017" lon="4.67889">
        <ele>660.40002441406</ele>
        <time>2026-05-12T12:52:31.000Z</time>
      </trkpt>
      <trkpt lat="45.30018" lon="4.67892">
        <ele>660.59997558594</ele>
        <time>2026-05-12T12:52:32.000Z</time>
      </trkpt>
      <trkpt lat="45.3002" lon="4.67894">
        <ele>660.79998779297</ele>
        <time>2026-05-12T12:52:33.000Z</time>
      </trkpt>
      <trkpt lat="45.30022" lon="4.67896">
        <ele>661</ele>
        <time>2026-05-12T12:52:34.000Z</time>
      </trkpt>
      <trkpt lat="45.30023" lon="4.67899">
        <ele>661.20001220703</ele>
        <time>2026-05-12T12:52:35.000Z</time>
      </trkpt>
      <trkpt lat="45.30025" lon="4.67903">
        <ele>661.20001220703</ele>
        <time>2026-05-12T12:52:36.000Z</time>
      </trkpt>
      <trkpt lat="45.30027" lon="4.67906">
        <ele>661.40002441406</ele>
        <time>2026-05-12T12:52:37.000Z</time>
      </trkpt>
      <trkpt lat="45.30028" lon="4.67909">
        <ele>661.40002441406</ele>
        <time>2026-05-12T12:52:38.000Z</time>
      </trkpt>
      <trkpt lat="45.3003" lon="4.67912">
        <ele>661.59997558594</ele>
        <time>2026-05-12T12:52:39.000Z</time>
      </trkpt>
      <trkpt lat="45.30031" lon="4.67915">
        <ele>661.79998779297</ele>
        <time>2026-05-12T12:52:40.000Z</time>
      </trkpt>
      <trkpt lat="45.30032" lon="4.67918">
        <ele>661.79998779297</ele>
        <time>2026-05-12T12:52:41.000Z</time>
      </trkpt>
      <trkpt lat="45.30033" lon="4.67922">
        <ele>661.79998779297</ele>
        <time>2026-05-12T12:52:42.000Z</time>
      </trkpt>
      <trkpt lat="45.30034" lon="4.67925">
        <ele>662</ele>
        <time>2026-05-12T12:52:43.000Z</time>
      </trkpt>
      <trkpt lat="45.30035" lon="4.67929">
        <ele>662</ele>
        <time>2026-05-12T12:52:44.000Z</time>
      </trkpt>
      <trkpt lat="45.30036" lon="4.67931">
        <ele>662</ele>
        <time>2026-05-12T12:52:45.000Z</time>
      </trkpt>
      <trkpt lat="45.30037" lon="4.67935">
        <ele>662</ele>
        <time>2026-05-12T12:52:46.000Z</time>
      </trkpt>
      <trkpt lat="45.30038" lon="4.67939">
        <ele>662</ele>
        <time>2026-05-12T12:52:47.000Z</time>
      </trkpt>
      <trkpt lat="45.30039" lon="4.67942">
        <ele>662.20001220703</ele>
        <time>2026-05-12T12:52:48.000Z</time>
      </trkpt>
      <trkpt lat="45.3004" lon="4.67946">
        <ele>662.20001220703</ele>
        <time>2026-05-12T12:52:49.000Z</time>
      </trkpt>
      <trkpt lat="45.3004" lon="4.67949">
        <ele>662.40002441406</ele>
        <time>2026-05-12T12:52:50.000Z</time>
      </trkpt>
      <trkpt lat="45.30041" lon="4.67953">
        <ele>662.40002441406</ele>
        <time>2026-05-12T12:52:51.000Z</time>
      </trkpt>
      <trkpt lat="45.30041" lon="4.67957">
        <ele>662.40002441406</ele>
        <time>2026-05-12T12:52:52.000Z</time>
      </trkpt>
      <trkpt lat="45.30041" lon="4.67961">
        <ele>662.40002441406</ele>
        <time>2026-05-12T12:52:53.000Z</time>
      </trkpt>
      <trkpt lat="45.30042" lon="4.67964">
        <ele>662.40002441406</ele>
        <time>2026-05-12T12:52:54.000Z</time>
      </trkpt>
      <trkpt lat="45.30042" lon="4.67968">
        <ele>662.40002441406</ele>
        <time>2026-05-12T12:52:55.000Z</time>
      </trkpt>
      <trkpt lat="45.30043" lon="4.67972">
        <ele>662.59997558594</ele>
        <time>2026-05-12T12:52:56.000Z</time>
      </trkpt>
      <trkpt lat="45.30045" lon="4.67975">
        <ele>662.59997558594</ele>
        <time>2026-05-12T12:52:57.000Z</time>
      </trkpt>
      <trkpt lat="45.30046" lon="4.67979">
        <ele>662.79998779297</ele>
        <time>2026-05-12T12:52:58.000Z</time>
      </trkpt>
      <trkpt lat="45.30048" lon="4.67982">
        <ele>662.79998779297</ele>
        <time>2026-05-12T12:52:59.000Z</time>
      </trkpt>
      <trkpt lat="45.30049" lon="4.67985">
        <ele>662.79998779297</ele>
        <time>2026-05-12T12:53:00.000Z</time>
      </trkpt>
      <trkpt lat="45.30051" lon="4.67988">
        <ele>663</ele>
        <time>2026-05-12T12:53:01.000Z</time>
      </trkpt>
      <trkpt lat="45.30053" lon="4.6799">
        <ele>663</ele>
        <time>2026-05-12T12:53:02.000Z</time>
      </trkpt>
      <trkpt lat="45.30056" lon="4.67993">
        <ele>663</ele>
        <time>2026-05-12T12:53:03.000Z</time>
      </trkpt>
      <trkpt lat="45.30058" lon="4.67995">
        <ele>663</ele>
        <time>2026-05-12T12:53:04.000Z</time>
      </trkpt>
      <trkpt lat="45.3006" lon="4.67997">
        <ele>663</ele>
        <time>2026-05-12T12:53:05.000Z</time>
      </trkpt>
      <trkpt lat="45.30062" lon="4.67999">
        <ele>663</ele>
        <time>2026-05-12T12:53:06.000Z</time>
      </trkpt>
      <trkpt lat="45.30064" lon="4.68002">
        <ele>663</ele>
        <time>2026-05-12T12:53:07.000Z</time>
      </trkpt>
      <trkpt lat="45.30066" lon="4.68004">
        <ele>663</ele>
        <time>2026-05-12T12:53:08.000Z</time>
      </trkpt>
      <trkpt lat="45.30068" lon="4.68007">
        <ele>663</ele>
        <time>2026-05-12T12:53:09.000Z</time>
      </trkpt>
      <trkpt lat="45.3007" lon="4.6801">
        <ele>663</ele>
        <time>2026-05-12T12:53:10.000Z</time>
      </trkpt>
      <trkpt lat="45.30071" lon="4.68012">
        <ele>663.20001220703</ele>
        <time>2026-05-12T12:53:11.000Z</time>
      </trkpt>
      <trkpt lat="45.30073" lon="4.68015">
        <ele>663.40002441406</ele>
        <time>2026-05-12T12:53:12.000Z</time>
      </trkpt>
      <trkpt lat="45.30075" lon="4.68016">
        <ele>663.40002441406</ele>
        <time>2026-05-12T12:53:13.000Z</time>
      </trkpt>
      <trkpt lat="45.30077" lon="4.68017">
        <ele>663.59997558594</ele>
        <time>2026-05-12T12:53:14.000Z</time>
      </trkpt>
      <trkpt lat="45.30079" lon="4.68018">
        <ele>663.79998779297</ele>
        <time>2026-05-12T12:53:15.000Z</time>
      </trkpt>
      <trkpt lat="45.30082" lon="4.68019">
        <ele>663.79998779297</ele>
        <time>2026-05-12T12:53:16.000Z</time>
      </trkpt>
      <trkpt lat="45.30084" lon="4.6802">
        <ele>663.79998779297</ele>
        <time>2026-05-12T12:53:17.000Z</time>
      </trkpt>
      <trkpt lat="45.30087" lon="4.68021">
        <ele>664</ele>
        <time>2026-05-12T12:53:18.000Z</time>
      </trkpt>
      <trkpt lat="45.30089" lon="4.68021">
        <ele>664.20001220703</ele>
        <time>2026-05-12T12:53:19.000Z</time>
      </trkpt>
      <trkpt lat="45.30091" lon="4.68022">
        <ele>664.40002441406</ele>
        <time>2026-05-12T12:53:20.000Z</time>
      </trkpt>
      <trkpt lat="45.30092" lon="4.68022">
        <ele>664.59997558594</ele>
        <time>2026-05-12T12:53:21.000Z</time>
      </trkpt>
      <trkpt lat="45.30092" lon="4.68023">
        <ele>665</ele>
        <time>2026-05-12T12:53:22.000Z</time>
      </trkpt>
      <trkpt lat="45.30093" lon="4.68023">
        <ele>665.20001220703</ele>
        <time>2026-05-12T12:53:23.000Z</time>
      </trkpt>
      <trkpt lat="45.30094" lon="4.68023">
        <ele>665.20001220703</ele>
        <time>2026-05-12T12:53:24.000Z</time>
      </trkpt>
      <trkpt lat="45.30097" lon="4.68024">
        <ele>665.20001220703</ele>
        <time>2026-05-12T12:53:25.000Z</time>
      </trkpt>
      <trkpt lat="45.30099" lon="4.68025">
        <ele>665</ele>
        <time>2026-05-12T12:53:26.000Z</time>
      </trkpt>
      <trkpt lat="45.30101" lon="4.68026">
        <ele>665</ele>
        <time>2026-05-12T12:53:27.000Z</time>
      </trkpt>
      <trkpt lat="45.30104" lon="4.68027">
        <ele>664.59997558594</ele>
        <time>2026-05-12T12:53:28.000Z</time>
      </trkpt>
      <trkpt lat="45.30107" lon="4.68028">
        <ele>664.59997558594</ele>
        <time>2026-05-12T12:53:29.000Z</time>
      </trkpt>
      <trkpt lat="45.3011" lon="4.68028">
        <ele>664.40002441406</ele>
        <time>2026-05-12T12:53:30.000Z</time>
      </trkpt>
      <trkpt lat="45.30114" lon="4.68028">
        <ele>664.40002441406</ele>
        <time>2026-05-12T12:53:31.000Z</time>
      </trkpt>
      <trkpt lat="45.30117" lon="4.68029">
        <ele>664.40002441406</ele>
        <time>2026-05-12T12:53:32.000Z</time>
      </trkpt>
      <trkpt lat="45.3012" lon="4.6803">
        <ele>664.40002441406</ele>
        <time>2026-05-12T12:53:33.000Z</time>
      </trkpt>
      <trkpt lat="45.30123" lon="4.68032">
        <ele>664.20001220703</ele>
        <time>2026-05-12T12:53:34.000Z</time>
      </trkpt>
      <trkpt lat="45.30125" lon="4.68032">
        <ele>663.79998779297</ele>
        <time>2026-05-12T12:53:35.000Z</time>
      </trkpt>
      <trkpt lat="45.30129" lon="4.68033">
        <ele>663.40002441406</ele>
        <time>2026-05-12T12:53:36.000Z</time>
      </trkpt>
      <trkpt lat="45.30133" lon="4.68033">
        <ele>663</ele>
        <time>2026-05-12T12:53:37.000Z</time>
      </trkpt>
      <trkpt lat="45.30136" lon="4.68034">
        <ele>662.59997558594</ele>
        <time>2026-05-12T12:53:38.000Z</time>
      </trkpt>
      <trkpt lat="45.3014" lon="4.68035">
        <ele>662.20001220703</ele>
        <time>2026-05-12T12:53:39.000Z</time>
      </trkpt>
      <trkpt lat="45.30143" lon="4.68037">
        <ele>661.79998779297</ele>
        <time>2026-05-12T12:53:40.000Z</time>
      </trkpt>
      <trkpt lat="45.30147" lon="4.68038">
        <ele>661.40002441406</ele>
        <time>2026-05-12T12:53:41.000Z</time>
      </trkpt>
      <trkpt lat="45.30151" lon="4.6804">
        <ele>661.20001220703</ele>
        <time>2026-05-12T12:53:42.000Z</time>
      </trkpt>
      <trkpt lat="45.30155" lon="4.68041">
        <ele>660.79998779297</ele>
        <time>2026-05-12T12:53:43.000Z</time>
      </trkpt>
      <trkpt lat="45.3016" lon="4.68043">
        <ele>660.59997558594</ele>
        <time>2026-05-12T12:53:44.000Z</time>
      </trkpt>
      <trkpt lat="45.30164" lon="4.68045">
        <ele>660.40002441406</ele>
        <time>2026-05-12T12:53:45.000Z</time>
      </trkpt>
      <trkpt lat="45.30169" lon="4.68048">
        <ele>660.20001220703</ele>
        <time>2026-05-12T12:53:46.000Z</time>
      </trkpt>
      <trkpt lat="45.30173" lon="4.6805">
        <ele>659.79998779297</ele>
        <time>2026-05-12T12:53:47.000Z</time>
      </trkpt>
      <trkpt lat="45.30178" lon="4.68051">
        <ele>659.59997558594</ele>
        <time>2026-05-12T12:53:48.000Z</time>
      </trkpt>
      <trkpt lat="45.30182" lon="4.68051">
        <ele>659.20001220703</ele>
        <time>2026-05-12T12:53:49.000Z</time>
      </trkpt>
      <trkpt lat="45.30185" lon="4.68051">
        <ele>658.79998779297</ele>
        <time>2026-05-12T12:53:50.000Z</time>
      </trkpt>
      <trkpt lat="45.30189" lon="4.68052">
        <ele>658.40002441406</ele>
        <time>2026-05-12T12:53:51.000Z</time>
      </trkpt>
      <trkpt lat="45.30193" lon="4.68052">
        <ele>658</ele>
        <time>2026-05-12T12:53:52.000Z</time>
      </trkpt>
      <trkpt lat="45.30198" lon="4.68055">
        <ele>657.59997558594</ele>
        <time>2026-05-12T12:53:53.000Z</time>
      </trkpt>
      <trkpt lat="45.30203" lon="4.68056">
        <ele>657.20001220703</ele>
        <time>2026-05-12T12:53:54.000Z</time>
      </trkpt>
      <trkpt lat="45.30208" lon="4.68061">
        <ele>656.59997558594</ele>
        <time>2026-05-12T12:53:55.000Z</time>
      </trkpt>
      <trkpt lat="45.30212" lon="4.68065">
        <ele>656</ele>
        <time>2026-05-12T12:53:56.000Z</time>
      </trkpt>
      <trkpt lat="45.30217" lon="4.68066">
        <ele>655.40002441406</ele>
        <time>2026-05-12T12:53:57.000Z</time>
      </trkpt>
      <trkpt lat="45.30222" lon="4.68067">
        <ele>654.79998779297</ele>
        <time>2026-05-12T12:53:58.000Z</time>
      </trkpt>
      <trkpt lat="45.30225" lon="4.68068">
        <ele>654.20001220703</ele>
        <time>2026-05-12T12:53:59.000Z</time>
      </trkpt>
      <trkpt lat="45.30229" lon="4.6807">
        <ele>653.79998779297</ele>
        <time>2026-05-12T12:54:00.000Z</time>
      </trkpt>
      <trkpt lat="45.30233" lon="4.68071">
        <ele>653.40002441406</ele>
        <time>2026-05-12T12:54:01.000Z</time>
      </trkpt>
      <trkpt lat="45.30237" lon="4.68071">
        <ele>653</ele>
        <time>2026-05-12T12:54:02.000Z</time>
      </trkpt>
      <trkpt lat="45.30239" lon="4.6807">
        <ele>652.79998779297</ele>
        <time>2026-05-12T12:54:03.000Z</time>
      </trkpt>
      <trkpt lat="45.30242" lon="4.68071">
        <ele>652.59997558594</ele>
        <time>2026-05-12T12:54:04.000Z</time>
      </trkpt>
      <trkpt lat="45.30245" lon="4.68072">
        <ele>652.20001220703</ele>
        <time>2026-05-12T12:54:05.000Z</time>
      </trkpt>
      <trkpt lat="45.30249" lon="4.68072">
        <ele>651.79998779297</ele>
        <time>2026-05-12T12:54:06.000Z</time>
      </trkpt>
      <trkpt lat="45.30252" lon="4.68073">
        <ele>651.40002441406</ele>
        <time>2026-05-12T12:54:07.000Z</time>
      </trkpt>
      <trkpt lat="45.30254" lon="4.68074">
        <ele>650.79998779297</ele>
        <time>2026-05-12T12:54:08.000Z</time>
      </trkpt>
      <trkpt lat="45.30257" lon="4.68074">
        <ele>650.40002441406</ele>
        <time>2026-05-12T12:54:09.000Z</time>
      </trkpt>
      <trkpt lat="45.30259" lon="4.68074">
        <ele>650</ele>
        <time>2026-05-12T12:54:10.000Z</time>
      </trkpt>
      <trkpt lat="45.30261" lon="4.68074">
        <ele>649.40002441406</ele>
        <time>2026-05-12T12:54:11.000Z</time>
      </trkpt>
      <trkpt lat="45.30263" lon="4.68074">
        <ele>649</ele>
        <time>2026-05-12T12:54:12.000Z</time>
      </trkpt>
      <trkpt lat="45.30266" lon="4.68075">
        <ele>648.40002441406</ele>
        <time>2026-05-12T12:54:13.000Z</time>
      </trkpt>
      <trkpt lat="45.3027" lon="4.68075">
        <ele>647.79998779297</ele>
        <time>2026-05-12T12:54:14.000Z</time>
      </trkpt>
      <trkpt lat="45.30274" lon="4.68076">
        <ele>647.20001220703</ele>
        <time>2026-05-12T12:54:15.000Z</time>
      </trkpt>
      <trkpt lat="45.30278" lon="4.68077">
        <ele>646.40002441406</ele>
        <time>2026-05-12T12:54:16.000Z</time>
      </trkpt>
      <trkpt lat="45.30282" lon="4.68078">
        <ele>645.79998779297</ele>
        <time>2026-05-12T12:54:17.000Z</time>
      </trkpt>
      <trkpt lat="45.30287" lon="4.6808">
        <ele>645</ele>
        <time>2026-05-12T12:54:18.000Z</time>
      </trkpt>
      <trkpt lat="45.30291" lon="4.68082">
        <ele>644.20001220703</ele>
        <time>2026-05-12T12:54:19.000Z</time>
      </trkpt>
      <trkpt lat="45.30295" lon="4.68084">
        <ele>643.40002441406</ele>
        <time>2026-05-12T12:54:20.000Z</time>
      </trkpt>
      <trkpt lat="45.303" lon="4.68087">
        <ele>642.59997558594</ele>
        <time>2026-05-12T12:54:21.000Z</time>
      </trkpt>
      <trkpt lat="45.30304" lon="4.68089">
        <ele>641.79998779297</ele>
        <time>2026-05-12T12:54:22.000Z</time>
      </trkpt>
      <trkpt lat="45.30309" lon="4.68091">
        <ele>641</ele>
        <time>2026-05-12T12:54:23.000Z</time>
      </trkpt>
      <trkpt lat="45.30315" lon="4.68092">
        <ele>640.20001220703</ele>
        <time>2026-05-12T12:54:24.000Z</time>
      </trkpt>
      <trkpt lat="45.30319" lon="4.68094">
        <ele>639.40002441406</ele>
        <time>2026-05-12T12:54:25.000Z</time>
      </trkpt>
      <trkpt lat="45.30324" lon="4.68096">
        <ele>638.59997558594</ele>
        <time>2026-05-12T12:54:26.000Z</time>
      </trkpt>
      <trkpt lat="45.30328" lon="4.68097">
        <ele>638</ele>
        <time>2026-05-12T12:54:27.000Z</time>
      </trkpt>
      <trkpt lat="45.30332" lon="4.68099">
        <ele>637.40002441406</ele>
        <time>2026-05-12T12:54:28.000Z</time>
      </trkpt>
      <trkpt lat="45.30337" lon="4.68101">
        <ele>636.79998779297</ele>
        <time>2026-05-12T12:54:29.000Z</time>
      </trkpt>
      <trkpt lat="45.30342" lon="4.68103">
        <ele>636</ele>
        <time>2026-05-12T12:54:30.000Z</time>
      </trkpt>
      <trkpt lat="45.30347" lon="4.68104">
        <ele>635.40002441406</ele>
        <time>2026-05-12T12:54:31.000Z</time>
      </trkpt>
      <trkpt lat="45.30351" lon="4.68105">
        <ele>634.59997558594</ele>
        <time>2026-05-12T12:54:32.000Z</time>
      </trkpt>
      <trkpt lat="45.30355" lon="4.68106">
        <ele>634.20001220703</ele>
        <time>2026-05-12T12:54:33.000Z</time>
      </trkpt>
      <trkpt lat="45.30359" lon="4.68107">
        <ele>633.79998779297</ele>
        <time>2026-05-12T12:54:34.000Z</time>
      </trkpt>
      <trkpt lat="45.30364" lon="4.68109">
        <ele>633.40002441406</ele>
        <time>2026-05-12T12:54:35.000Z</time>
      </trkpt>
      <trkpt lat="45.3037" lon="4.6811">
        <ele>633.20001220703</ele>
        <time>2026-05-12T12:54:36.000Z</time>
      </trkpt>
      <trkpt lat="45.30374" lon="4.6811">
        <ele>632.79998779297</ele>
        <time>2026-05-12T12:54:37.000Z</time>
      </trkpt>
      <trkpt lat="45.30378" lon="4.68112">
        <ele>632.59997558594</ele>
        <time>2026-05-12T12:54:38.000Z</time>
      </trkpt>
      <trkpt lat="45.30382" lon="4.68114">
        <ele>632.20001220703</ele>
        <time>2026-05-12T12:54:39.000Z</time>
      </trkpt>
      <trkpt lat="45.30385" lon="4.68117">
        <ele>631.79998779297</ele>
        <time>2026-05-12T12:54:40.000Z</time>
      </trkpt>
      <trkpt lat="45.3039" lon="4.6812">
        <ele>631.40002441406</ele>
        <time>2026-05-12T12:54:41.000Z</time>
      </trkpt>
      <trkpt lat="45.30394" lon="4.68121">
        <ele>630.79998779297</ele>
        <time>2026-05-12T12:54:42.000Z</time>
      </trkpt>
      <trkpt lat="45.30398" lon="4.68121">
        <ele>630.20001220703</ele>
        <time>2026-05-12T12:54:43.000Z</time>
      </trkpt>
      <trkpt lat="45.30402" lon="4.68124">
        <ele>629.79998779297</ele>
        <time>2026-05-12T12:54:44.000Z</time>
      </trkpt>
      <trkpt lat="45.30408" lon="4.68125">
        <ele>629.20001220703</ele>
        <time>2026-05-12T12:54:45.000Z</time>
      </trkpt>
      <trkpt lat="45.30412" lon="4.68126">
        <ele>628.59997558594</ele>
        <time>2026-05-12T12:54:46.000Z</time>
      </trkpt>
      <trkpt lat="45.30417" lon="4.68128">
        <ele>628</ele>
        <time>2026-05-12T12:54:47.000Z</time>
      </trkpt>
      <trkpt lat="45.30421" lon="4.68128">
        <ele>627.59997558594</ele>
        <time>2026-05-12T12:54:48.000Z</time>
      </trkpt>
      <trkpt lat="45.30428" lon="4.68128">
        <ele>627</ele>
        <time>2026-05-12T12:54:49.000Z</time>
      </trkpt>
      <trkpt lat="45.30434" lon="4.68127">
        <ele>626.59997558594</ele>
        <time>2026-05-12T12:54:50.000Z</time>
      </trkpt>
      <trkpt lat="45.3044" lon="4.68126">
        <ele>626.40002441406</ele>
        <time>2026-05-12T12:54:51.000Z</time>
      </trkpt>
      <trkpt lat="45.30446" lon="4.68125">
        <ele>626</ele>
        <time>2026-05-12T12:54:52.000Z</time>
      </trkpt>
      <trkpt lat="45.30452" lon="4.68122">
        <ele>626</ele>
        <time>2026-05-12T12:54:53.000Z</time>
      </trkpt>
      <trkpt lat="45.30456" lon="4.68119">
        <ele>626</ele>
        <time>2026-05-12T12:54:54.000Z</time>
      </trkpt>
      <trkpt lat="45.30461" lon="4.68116">
        <ele>626</ele>
        <time>2026-05-12T12:54:55.000Z</time>
      </trkpt>
      <trkpt lat="45.30465" lon="4.68113">
        <ele>626</ele>
        <time>2026-05-12T12:54:56.000Z</time>
      </trkpt>
      <trkpt lat="45.30469" lon="4.68109">
        <ele>626</ele>
        <time>2026-05-12T12:54:57.000Z</time>
      </trkpt>
      <trkpt lat="45.30473" lon="4.68106">
        <ele>626.20001220703</ele>
        <time>2026-05-12T12:54:58.000Z</time>
      </trkpt>
      <trkpt lat="45.30476" lon="4.68103">
        <ele>626.20001220703</ele>
        <time>2026-05-12T12:54:59.000Z</time>
      </trkpt>
      <trkpt lat="45.3048" lon="4.68101">
        <ele>626.40002441406</ele>
        <time>2026-05-12T12:55:00.000Z</time>
      </trkpt>
      <trkpt lat="45.30483" lon="4.68099">
        <ele>626.40002441406</ele>
        <time>2026-05-12T12:55:01.000Z</time>
      </trkpt>
      <trkpt lat="45.30485" lon="4.68098">
        <ele>626.40002441406</ele>
        <time>2026-05-12T12:55:02.000Z</time>
      </trkpt>
      <trkpt lat="45.30488" lon="4.68097">
        <ele>626.59997558594</ele>
        <time>2026-05-12T12:55:03.000Z</time>
      </trkpt>
      <trkpt lat="45.30491" lon="4.68097">
        <ele>626.59997558594</ele>
        <time>2026-05-12T12:55:04.000Z</time>
      </trkpt>
      <trkpt lat="45.30493" lon="4.68098">
        <ele>626.59997558594</ele>
        <time>2026-05-12T12:55:05.000Z</time>
      </trkpt>
      <trkpt lat="45.30496" lon="4.68098">
        <ele>626.59997558594</ele>
        <time>2026-05-12T12:55:06.000Z</time>
      </trkpt>
      <trkpt lat="45.30498" lon="4.681">
        <ele>626.59997558594</ele>
        <time>2026-05-12T12:55:07.000Z</time>
      </trkpt>
      <trkpt lat="45.305" lon="4.681">
        <ele>626.59997558594</ele>
        <time>2026-05-12T12:55:08.000Z</time>
      </trkpt>
      <trkpt lat="45.30503" lon="4.681">
        <ele>626.59997558594</ele>
        <time>2026-05-12T12:55:09.000Z</time>
      </trkpt>
      <trkpt lat="45.30505" lon="4.68098">
        <ele>626.40002441406</ele>
        <time>2026-05-12T12:55:10.000Z</time>
      </trkpt>
      <trkpt lat="45.30507" lon="4.68096">
        <ele>626.59997558594</ele>
        <time>2026-05-12T12:55:11.000Z</time>
      </trkpt>
      <trkpt lat="45.30508" lon="4.68093">
        <ele>626.79998779297</ele>
        <time>2026-05-12T12:55:12.000Z</time>
      </trkpt>
      <trkpt lat="45.30509" lon="4.68089">
        <ele>627</ele>
        <time>2026-05-12T12:55:13.000Z</time>
      </trkpt>
      <trkpt lat="45.3051" lon="4.68086">
        <ele>627.40002441406</ele>
        <time>2026-05-12T12:55:14.000Z</time>
      </trkpt>
      <trkpt lat="45.30511" lon="4.68082">
        <ele>627.79998779297</ele>
        <time>2026-05-12T12:55:15.000Z</time>
      </trkpt>
      <trkpt lat="45.30512" lon="4.68079">
        <ele>628</ele>
        <time>2026-05-12T12:55:16.000Z</time>
      </trkpt>
      <trkpt lat="45.30512" lon="4.68075">
        <ele>628.20001220703</ele>
        <time>2026-05-12T12:55:17.000Z</time>
      </trkpt>
      <trkpt lat="45.30512" lon="4.68071">
        <ele>628.40002441406</ele>
        <time>2026-05-12T12:55:18.000Z</time>
      </trkpt>
      <trkpt lat="45.30512" lon="4.68067">
        <ele>628.59997558594</ele>
        <time>2026-05-12T12:55:19.000Z</time>
      </trkpt>
      <trkpt lat="45.30513" lon="4.68064">
        <ele>628.79998779297</ele>
        <time>2026-05-12T12:55:20.000Z</time>
      </trkpt>
      <trkpt lat="45.30513" lon="4.6806">
        <ele>629</ele>
        <time>2026-05-12T12:55:21.000Z</time>
      </trkpt>
      <trkpt lat="45.30514" lon="4.68058">
        <ele>629.20001220703</ele>
        <time>2026-05-12T12:55:22.000Z</time>
      </trkpt>
      <trkpt lat="45.30514" lon="4.68054">
        <ele>629.40002441406</ele>
        <time>2026-05-12T12:55:23.000Z</time>
      </trkpt>
      <trkpt lat="45.30515" lon="4.68051">
        <ele>629.40002441406</ele>
        <time>2026-05-12T12:55:24.000Z</time>
      </trkpt>
      <trkpt lat="45.30515" lon="4.68046">
        <ele>629.59997558594</ele>
        <time>2026-05-12T12:55:25.000Z</time>
      </trkpt>
      <trkpt lat="45.30516" lon="4.68042">
        <ele>629.59997558594</ele>
        <time>2026-05-12T12:55:26.000Z</time>
      </trkpt>
      <trkpt lat="45.30517" lon="4.68038">
        <ele>629.59997558594</ele>
        <time>2026-05-12T12:55:27.000Z</time>
      </trkpt>
      <trkpt lat="45.30518" lon="4.68035">
        <ele>629.59997558594</ele>
        <time>2026-05-12T12:55:28.000Z</time>
      </trkpt>
      <trkpt lat="45.30519" lon="4.68031">
        <ele>629.79998779297</ele>
        <time>2026-05-12T12:55:29.000Z</time>
      </trkpt>
      <trkpt lat="45.3052" lon="4.68027">
        <ele>629.79998779297</ele>
        <time>2026-05-12T12:55:30.000Z</time>
      </trkpt>
      <trkpt lat="45.30521" lon="4.68023">
        <ele>629.79998779297</ele>
        <time>2026-05-12T12:55:31.000Z</time>
      </trkpt>
      <trkpt lat="45.30522" lon="4.68021">
        <ele>629.59997558594</ele>
        <time>2026-05-12T12:55:32.000Z</time>
      </trkpt>
      <trkpt lat="45.30523" lon="4.68017">
        <ele>629.59997558594</ele>
        <time>2026-05-12T12:55:33.000Z</time>
      </trkpt>
      <trkpt lat="45.30525" lon="4.68013">
        <ele>629.59997558594</ele>
        <time>2026-05-12T12:55:34.000Z</time>
      </trkpt>
      <trkpt lat="45.30526" lon="4.6801">
        <ele>629.40002441406</ele>
        <time>2026-05-12T12:55:35.000Z</time>
      </trkpt>
      <trkpt lat="45.30528" lon="4.68006">
        <ele>629.20001220703</ele>
        <time>2026-05-12T12:55:36.000Z</time>
      </trkpt>
      <trkpt lat="45.30531" lon="4.68002">
        <ele>629</ele>
        <time>2026-05-12T12:55:37.000Z</time>
      </trkpt>
      <trkpt lat="45.30533" lon="4.67998">
        <ele>628.79998779297</ele>
        <time>2026-05-12T12:55:38.000Z</time>
      </trkpt>
      <trkpt lat="45.30535" lon="4.67994">
        <ele>628.59997558594</ele>
        <time>2026-05-12T12:55:39.000Z</time>
      </trkpt>
      <trkpt lat="45.30537" lon="4.67989">
        <ele>628.40002441406</ele>
        <time>2026-05-12T12:55:40.000Z</time>
      </trkpt>
      <trkpt lat="45.3054" lon="4.67985">
        <ele>628.20001220703</ele>
        <time>2026-05-12T12:55:41.000Z</time>
      </trkpt>
      <trkpt lat="45.30543" lon="4.67981">
        <ele>628</ele>
        <time>2026-05-12T12:55:42.000Z</time>
      </trkpt>
      <trkpt lat="45.30545" lon="4.67976">
        <ele>627.79998779297</ele>
        <time>2026-05-12T12:55:43.000Z</time>
      </trkpt>
      <trkpt lat="45.30548" lon="4.67972">
        <ele>627.59997558594</ele>
        <time>2026-05-12T12:55:44.000Z</time>
      </trkpt>
      <trkpt lat="45.30551" lon="4.67968">
        <ele>627.59997558594</ele>
        <time>2026-05-12T12:55:45.000Z</time>
      </trkpt>
      <trkpt lat="45.30554" lon="4.67964">
        <ele>627.40002441406</ele>
        <time>2026-05-12T12:55:46.000Z</time>
      </trkpt>
      <trkpt lat="45.30556" lon="4.67961">
        <ele>627.20001220703</ele>
        <time>2026-05-12T12:55:47.000Z</time>
      </trkpt>
      <trkpt lat="45.30558" lon="4.67957">
        <ele>627</ele>
        <time>2026-05-12T12:55:48.000Z</time>
      </trkpt>
      <trkpt lat="45.3056" lon="4.67954">
        <ele>626.79998779297</ele>
        <time>2026-05-12T12:55:49.000Z</time>
      </trkpt>
      <trkpt lat="45.30562" lon="4.67952">
        <ele>626.59997558594</ele>
        <time>2026-05-12T12:55:50.000Z</time>
      </trkpt>
      <trkpt lat="45.30563" lon="4.67949">
        <ele>626.59997558594</ele>
        <time>2026-05-12T12:55:51.000Z</time>
      </trkpt>
      <trkpt lat="45.30565" lon="4.67945">
        <ele>626.40002441406</ele>
        <time>2026-05-12T12:55:52.000Z</time>
      </trkpt>
      <trkpt lat="45.30567" lon="4.67941">
        <ele>626.20001220703</ele>
        <time>2026-05-12T12:55:53.000Z</time>
      </trkpt>
      <trkpt lat="45.30569" lon="4.67937">
        <ele>625.79998779297</ele>
        <time>2026-05-12T12:55:54.000Z</time>
      </trkpt>
      <trkpt lat="45.30571" lon="4.67933">
        <ele>625.40002441406</ele>
        <time>2026-05-12T12:55:55.000Z</time>
      </trkpt>
      <trkpt lat="45.30574" lon="4.67929">
        <ele>625</ele>
        <time>2026-05-12T12:55:56.000Z</time>
      </trkpt>
      <trkpt lat="45.30576" lon="4.67924">
        <ele>624.59997558594</ele>
        <time>2026-05-12T12:55:57.000Z</time>
      </trkpt>
      <trkpt lat="45.30578" lon="4.6792">
        <ele>624</ele>
        <time>2026-05-12T12:55:58.000Z</time>
      </trkpt>
      <trkpt lat="45.3058" lon="4.67916">
        <ele>623.59997558594</ele>
        <time>2026-05-12T12:55:59.000Z</time>
      </trkpt>
      <trkpt lat="45.30582" lon="4.67912">
        <ele>623.20001220703</ele>
        <time>2026-05-12T12:56:00.000Z</time>
      </trkpt>
      <trkpt lat="45.30584" lon="4.67909">
        <ele>622.79998779297</ele>
        <time>2026-05-12T12:56:01.000Z</time>
      </trkpt>
      <trkpt lat="45.30586" lon="4.67905">
        <ele>622.40002441406</ele>
        <time>2026-05-12T12:56:02.000Z</time>
      </trkpt>
      <trkpt lat="45.30588" lon="4.67902">
        <ele>622</ele>
        <time>2026-05-12T12:56:03.000Z</time>
      </trkpt>
      <trkpt lat="45.30591" lon="4.67898">
        <ele>621.59997558594</ele>
        <time>2026-05-12T12:56:04.000Z</time>
      </trkpt>
      <trkpt lat="45.30593" lon="4.67895">
        <ele>621</ele>
        <time>2026-05-12T12:56:05.000Z</time>
      </trkpt>
      <trkpt lat="45.30595" lon="4.67892">
        <ele>620.59997558594</ele>
        <time>2026-05-12T12:56:06.000Z</time>
      </trkpt>
      <trkpt lat="45.30596" lon="4.6789">
        <ele>620.20001220703</ele>
        <time>2026-05-12T12:56:07.000Z</time>
      </trkpt>
      <trkpt lat="45.30598" lon="4.67887">
        <ele>619.79998779297</ele>
        <time>2026-05-12T12:56:08.000Z</time>
      </trkpt>
      <trkpt lat="45.30601" lon="4.67885">
        <ele>619.40002441406</ele>
        <time>2026-05-12T12:56:09.000Z</time>
      </trkpt>
      <trkpt lat="45.30604" lon="4.67883">
        <ele>618.79998779297</ele>
        <time>2026-05-12T12:56:10.000Z</time>
      </trkpt>
      <trkpt lat="45.30608" lon="4.67882">
        <ele>618.20001220703</ele>
        <time>2026-05-12T12:56:11.000Z</time>
      </trkpt>
      <trkpt lat="45.30612" lon="4.67883">
        <ele>617.79998779297</ele>
        <time>2026-05-12T12:56:12.000Z</time>
      </trkpt>
      <trkpt lat="45.30616" lon="4.67884">
        <ele>617.59997558594</ele>
        <time>2026-05-12T12:56:13.000Z</time>
      </trkpt>
      <trkpt lat="45.3062" lon="4.67886">
        <ele>617.59997558594</ele>
        <time>2026-05-12T12:56:14.000Z</time>
      </trkpt>
      <trkpt lat="45.30624" lon="4.67888">
        <ele>617.59997558594</ele>
        <time>2026-05-12T12:56:15.000Z</time>
      </trkpt>
      <trkpt lat="45.30628" lon="4.6789">
        <ele>617.59997558594</ele>
        <time>2026-05-12T12:56:16.000Z</time>
      </trkpt>
      <trkpt lat="45.30632" lon="4.67892">
        <ele>617.40002441406</ele>
        <time>2026-05-12T12:56:17.000Z</time>
      </trkpt>
      <trkpt lat="45.30636" lon="4.67893">
        <ele>617</ele>
        <time>2026-05-12T12:56:18.000Z</time>
      </trkpt>
      <trkpt lat="45.3064" lon="4.67896">
        <ele>616.59997558594</ele>
        <time>2026-05-12T12:56:19.000Z</time>
      </trkpt>
      <trkpt lat="45.30644" lon="4.67898">
        <ele>616.40002441406</ele>
        <time>2026-05-12T12:56:20.000Z</time>
      </trkpt>
      <trkpt lat="45.30648" lon="4.67901">
        <ele>616</ele>
        <time>2026-05-12T12:56:21.000Z</time>
      </trkpt>
      <trkpt lat="45.30653" lon="4.67904">
        <ele>615.79998779297</ele>
        <time>2026-05-12T12:56:22.000Z</time>
      </trkpt>
      <trkpt lat="45.30657" lon="4.67906">
        <ele>615.59997558594</ele>
        <time>2026-05-12T12:56:23.000Z</time>
      </trkpt>
      <trkpt lat="45.30661" lon="4.67909">
        <ele>615.40002441406</ele>
        <time>2026-05-12T12:56:24.000Z</time>
      </trkpt>
      <trkpt lat="45.30665" lon="4.67912">
        <ele>615.20001220703</ele>
        <time>2026-05-12T12:56:25.000Z</time>
      </trkpt>
      <trkpt lat="45.3067" lon="4.67916">
        <ele>615</ele>
        <time>2026-05-12T12:56:26.000Z</time>
      </trkpt>
      <trkpt lat="45.30674" lon="4.67919">
        <ele>614.79998779297</ele>
        <time>2026-05-12T12:56:27.000Z</time>
      </trkpt>
      <trkpt lat="45.30678" lon="4.67922">
        <ele>614.59997558594</ele>
        <time>2026-05-12T12:56:28.000Z</time>
      </trkpt>
      <trkpt lat="45.30682" lon="4.67925">
        <ele>614.40002441406</ele>
        <time>2026-05-12T12:56:29.000Z</time>
      </trkpt>
      <trkpt lat="45.30687" lon="4.67927">
        <ele>614.40002441406</ele>
        <time>2026-05-12T12:56:30.000Z</time>
      </trkpt>
      <trkpt lat="45.30691" lon="4.67929">
        <ele>614.20001220703</ele>
        <time>2026-05-12T12:56:31.000Z</time>
      </trkpt>
      <trkpt lat="45.30695" lon="4.67931">
        <ele>614.20001220703</ele>
        <time>2026-05-12T12:56:32.000Z</time>
      </trkpt>
      <trkpt lat="45.307" lon="4.67932">
        <ele>614</ele>
        <time>2026-05-12T12:56:33.000Z</time>
      </trkpt>
      <trkpt lat="45.30703" lon="4.67933">
        <ele>614</ele>
        <time>2026-05-12T12:56:34.000Z</time>
      </trkpt>
      <trkpt lat="45.30707" lon="4.67934">
        <ele>613.79998779297</ele>
        <time>2026-05-12T12:56:35.000Z</time>
      </trkpt>
      <trkpt lat="45.30711" lon="4.67936">
        <ele>613.79998779297</ele>
        <time>2026-05-12T12:56:36.000Z</time>
      </trkpt>
      <trkpt lat="45.30715" lon="4.67938">
        <ele>613.79998779297</ele>
        <time>2026-05-12T12:56:37.000Z</time>
      </trkpt>
      <trkpt lat="45.30719" lon="4.67939">
        <ele>613.79998779297</ele>
        <time>2026-05-12T12:56:38.000Z</time>
      </trkpt>
      <trkpt lat="45.30723" lon="4.6794">
        <ele>614</ele>
        <time>2026-05-12T12:56:39.000Z</time>
      </trkpt>
      <trkpt lat="45.30727" lon="4.67942">
        <ele>614.20001220703</ele>
        <time>2026-05-12T12:56:40.000Z</time>
      </trkpt>
      <trkpt lat="45.30731" lon="4.67943">
        <ele>614.40002441406</ele>
        <time>2026-05-12T12:56:41.000Z</time>
      </trkpt>
      <trkpt lat="45.30735" lon="4.67944">
        <ele>614.59997558594</ele>
        <time>2026-05-12T12:56:42.000Z</time>
      </trkpt>
      <trkpt lat="45.3074" lon="4.67946">
        <ele>614.59997558594</ele>
        <time>2026-05-12T12:56:43.000Z</time>
      </trkpt>
      <trkpt lat="45.30744" lon="4.67947">
        <ele>614.59997558594</ele>
        <time>2026-05-12T12:56:44.000Z</time>
      </trkpt>
      <trkpt lat="45.30749" lon="4.67948">
        <ele>614.20001220703</ele>
        <time>2026-05-12T12:56:45.000Z</time>
      </trkpt>
      <trkpt lat="45.30754" lon="4.67949">
        <ele>614</ele>
        <time>2026-05-12T12:56:46.000Z</time>
      </trkpt>
      <trkpt lat="45.30758" lon="4.6795">
        <ele>614</ele>
        <time>2026-05-12T12:56:47.000Z</time>
      </trkpt>
      <trkpt lat="45.30763" lon="4.67952">
        <ele>613.79998779297</ele>
        <time>2026-05-12T12:56:48.000Z</time>
      </trkpt>
      <trkpt lat="45.30768" lon="4.67953">
        <ele>613.79998779297</ele>
        <time>2026-05-12T12:56:49.000Z</time>
      </trkpt>
      <trkpt lat="45.30773" lon="4.67955">
        <ele>614</ele>
        <time>2026-05-12T12:56:50.000Z</time>
      </trkpt>
      <trkpt lat="45.30778" lon="4.67956">
        <ele>613.79998779297</ele>
        <time>2026-05-12T12:56:51.000Z</time>
      </trkpt>
      <trkpt lat="45.30783" lon="4.67957">
        <ele>613.59997558594</ele>
        <time>2026-05-12T12:56:52.000Z</time>
      </trkpt>
      <trkpt lat="45.30787" lon="4.67958">
        <ele>613.20001220703</ele>
        <time>2026-05-12T12:56:53.000Z</time>
      </trkpt>
      <trkpt lat="45.30792" lon="4.6796">
        <ele>613</ele>
        <time>2026-05-12T12:56:54.000Z</time>
      </trkpt>
      <trkpt lat="45.30797" lon="4.67961">
        <ele>613</ele>
        <time>2026-05-12T12:56:55.000Z</time>
      </trkpt>
      <trkpt lat="45.30801" lon="4.67963">
        <ele>612.79998779297</ele>
        <time>2026-05-12T12:56:56.000Z</time>
      </trkpt>
      <trkpt lat="45.30805" lon="4.67965">
        <ele>612.59997558594</ele>
        <time>2026-05-12T12:56:57.000Z</time>
      </trkpt>
      <trkpt lat="45.30809" lon="4.67966">
        <ele>612.59997558594</ele>
        <time>2026-05-12T12:56:58.000Z</time>
      </trkpt>
      <trkpt lat="45.30813" lon="4.67967">
        <ele>612.40002441406</ele>
        <time>2026-05-12T12:56:59.000Z</time>
      </trkpt>
      <trkpt lat="45.30816" lon="4.67969">
        <ele>612.40002441406</ele>
        <time>2026-05-12T12:57:00.000Z</time>
      </trkpt>
      <trkpt lat="45.30818" lon="4.67971">
        <ele>612.40002441406</ele>
        <time>2026-05-12T12:57:01.000Z</time>
      </trkpt>
      <trkpt lat="45.30821" lon="4.67972">
        <ele>612.40002441406</ele>
        <time>2026-05-12T12:57:02.000Z</time>
      </trkpt>
      <trkpt lat="45.30823" lon="4.67973">
        <ele>612.40002441406</ele>
        <time>2026-05-12T12:57:03.000Z</time>
      </trkpt>
      <trkpt lat="45.30826" lon="4.67974">
        <ele>612.40002441406</ele>
        <time>2026-05-12T12:57:04.000Z</time>
      </trkpt>
      <trkpt lat="45.30828" lon="4.67975">
        <ele>612.40002441406</ele>
        <time>2026-05-12T12:57:05.000Z</time>
      </trkpt>
      <trkpt lat="45.3083" lon="4.67975">
        <ele>612.79998779297</ele>
        <time>2026-05-12T12:57:06.000Z</time>
      </trkpt>
      <trkpt lat="45.30833" lon="4.67975">
        <ele>613</ele>
        <time>2026-05-12T12:57:07.000Z</time>
      </trkpt>
      <trkpt lat="45.30835" lon="4.67974">
        <ele>613.20001220703</ele>
        <time>2026-05-12T12:57:08.000Z</time>
      </trkpt>
      <trkpt lat="45.30837" lon="4.67973">
        <ele>613.40002441406</ele>
        <time>2026-05-12T12:57:09.000Z</time>
      </trkpt>
      <trkpt lat="45.30838" lon="4.67971">
        <ele>613.40002441406</ele>
        <time>2026-05-12T12:57:10.000Z</time>
      </trkpt>
      <trkpt lat="45.3084" lon="4.67969">
        <ele>613.40002441406</ele>
        <time>2026-05-12T12:57:11.000Z</time>
      </trkpt>
      <trkpt lat="45.3084" lon="4.67967">
        <ele>613.40002441406</ele>
        <time>2026-05-12T12:57:12.000Z</time>
      </trkpt>
      <trkpt lat="45.30841" lon="4.67965">
        <ele>613.40002441406</ele>
        <time>2026-05-12T12:57:13.000Z</time>
      </trkpt>
      <trkpt lat="45.30842" lon="4.67964">
        <ele>613.40002441406</ele>
        <time>2026-05-12T12:57:14.000Z</time>
      </trkpt>
      <trkpt lat="45.30843" lon="4.67962">
        <ele>613.40002441406</ele>
        <time>2026-05-12T12:57:15.000Z</time>
      </trkpt>
      <trkpt lat="45.30844" lon="4.67961">
        <ele>613.40002441406</ele>
        <time>2026-05-12T12:57:16.000Z</time>
      </trkpt>
      <trkpt lat="45.30844" lon="4.6796">
        <ele>613.40002441406</ele>
        <time>2026-05-12T12:57:17.000Z</time>
      </trkpt>
      <trkpt lat="45.30845" lon="4.67959">
        <ele>613.20001220703</ele>
        <time>2026-05-12T12:57:18.000Z</time>
      </trkpt>
      <trkpt lat="45.30846" lon="4.67957">
        <ele>613.40002441406</ele>
        <time>2026-05-12T12:57:19.000Z</time>
      </trkpt>
      <trkpt lat="45.30847" lon="4.67956">
        <ele>613.40002441406</ele>
        <time>2026-05-12T12:57:20.000Z</time>
      </trkpt>
      <trkpt lat="45.30848" lon="4.67955">
        <ele>613.40002441406</ele>
        <time>2026-05-12T12:57:21.000Z</time>
      </trkpt>
      <trkpt lat="45.30848" lon="4.67955">
        <ele>613.59997558594</ele>
        <time>2026-05-12T12:57:22.000Z</time>
      </trkpt>
      <trkpt lat="45.30848" lon="4.67955">
        <ele>613.59997558594</ele>
        <time>2026-05-12T12:57:23.000Z</time>
      </trkpt>
      <trkpt lat="45.30851" lon="4.6795">
        <ele>614</ele>
        <time>2026-05-12T12:57:55.000Z</time>
      </trkpt>
      <trkpt lat="45.30852" lon="4.67948">
        <ele>614</ele>
        <time>2026-05-12T12:57:56.000Z</time>
      </trkpt>
      <trkpt lat="45.30853" lon="4.67945">
        <ele>614</ele>
        <time>2026-05-12T12:57:57.000Z</time>
      </trkpt>
      <trkpt lat="45.30854" lon="4.67943">
        <ele>614</ele>
        <time>2026-05-12T12:57:58.000Z</time>
      </trkpt>
      <trkpt lat="45.30855" lon="4.67941">
        <ele>614</ele>
        <time>2026-05-12T12:57:59.000Z</time>
      </trkpt>
      <trkpt lat="45.30856" lon="4.67939">
        <ele>614</ele>
        <time>2026-05-12T12:58:00.000Z</time>
      </trkpt>
      <trkpt lat="45.30857" lon="4.67937">
        <ele>614</ele>
        <time>2026-05-12T12:58:01.000Z</time>
      </trkpt>
      <trkpt lat="45.30858" lon="4.67935">
        <ele>614</ele>
        <time>2026-05-12T12:58:02.000Z</time>
      </trkpt>
      <trkpt lat="45.3086" lon="4.67932">
        <ele>613.79998779297</ele>
        <time>2026-05-12T12:58:03.000Z</time>
      </trkpt>
      <trkpt lat="45.30861" lon="4.6793">
        <ele>613.79998779297</ele>
        <time>2026-05-12T12:58:04.000Z</time>
      </trkpt>
      <trkpt lat="45.30863" lon="4.67928">
        <ele>613.79998779297</ele>
        <time>2026-05-12T12:58:05.000Z</time>
      </trkpt>
      <trkpt lat="45.30864" lon="4.67925">
        <ele>613.79998779297</ele>
        <time>2026-05-12T12:58:06.000Z</time>
      </trkpt>
      <trkpt lat="45.30866" lon="4.67923">
        <ele>613.79998779297</ele>
        <time>2026-05-12T12:58:07.000Z</time>
      </trkpt>
      <trkpt lat="45.30867" lon="4.6792">
        <ele>614</ele>
        <time>2026-05-12T12:58:08.000Z</time>
      </trkpt>
      <trkpt lat="45.30869" lon="4.67918">
        <ele>614</ele>
        <time>2026-05-12T12:58:09.000Z</time>
      </trkpt>
      <trkpt lat="45.3087" lon="4.67915">
        <ele>614.20001220703</ele>
        <time>2026-05-12T12:58:10.000Z</time>
      </trkpt>
      <trkpt lat="45.30871" lon="4.67912">
        <ele>614.40002441406</ele>
        <time>2026-05-12T12:58:11.000Z</time>
      </trkpt>
      <trkpt lat="45.30872" lon="4.67909">
        <ele>614.40002441406</ele>
        <time>2026-05-12T12:58:12.000Z</time>
      </trkpt>
      <trkpt lat="45.30873" lon="4.67906">
        <ele>614.59997558594</ele>
        <time>2026-05-12T12:58:13.000Z</time>
      </trkpt>
      <trkpt lat="45.30874" lon="4.67904">
        <ele>614.59997558594</ele>
        <time>2026-05-12T12:58:14.000Z</time>
      </trkpt>
      <trkpt lat="45.30875" lon="4.67901">
        <ele>614.59997558594</ele>
        <time>2026-05-12T12:58:15.000Z</time>
      </trkpt>
      <trkpt lat="45.30876" lon="4.67898">
        <ele>614.79998779297</ele>
        <time>2026-05-12T12:58:16.000Z</time>
      </trkpt>
      <trkpt lat="45.30877" lon="4.67895">
        <ele>614.79998779297</ele>
        <time>2026-05-12T12:58:17.000Z</time>
      </trkpt>
      <trkpt lat="45.30878" lon="4.67892">
        <ele>614.79998779297</ele>
        <time>2026-05-12T12:58:18.000Z</time>
      </trkpt>
      <trkpt lat="45.3088" lon="4.67889">
        <ele>614.79998779297</ele>
        <time>2026-05-12T12:58:19.000Z</time>
      </trkpt>
      <trkpt lat="45.30881" lon="4.67886">
        <ele>614.79998779297</ele>
        <time>2026-05-12T12:58:20.000Z</time>
      </trkpt>
      <trkpt lat="45.30882" lon="4.67883">
        <ele>614.79998779297</ele>
        <time>2026-05-12T12:58:21.000Z</time>
      </trkpt>
      <trkpt lat="45.30884" lon="4.6788">
        <ele>614.79998779297</ele>
        <time>2026-05-12T12:58:22.000Z</time>
      </trkpt>
      <trkpt lat="45.30885" lon="4.67877">
        <ele>614.79998779297</ele>
        <time>2026-05-12T12:58:23.000Z</time>
      </trkpt>
      <trkpt lat="45.30886" lon="4.67874">
        <ele>614.79998779297</ele>
        <time>2026-05-12T12:58:24.000Z</time>
      </trkpt>
      <trkpt lat="45.30887" lon="4.67871">
        <ele>614.79998779297</ele>
        <time>2026-05-12T12:58:25.000Z</time>
      </trkpt>
      <trkpt lat="45.30888" lon="4.67868">
        <ele>615</ele>
        <time>2026-05-12T12:58:26.000Z</time>
      </trkpt>
      <trkpt lat="45.30889" lon="4.67865">
        <ele>615</ele>
        <time>2026-05-12T12:58:27.000Z</time>
      </trkpt>
      <trkpt lat="45.3089" lon="4.67861">
        <ele>615</ele>
        <time>2026-05-12T12:58:28.000Z</time>
      </trkpt>
      <trkpt lat="45.30892" lon="4.67857">
        <ele>614.79998779297</ele>
        <time>2026-05-12T12:58:29.000Z</time>
      </trkpt>
      <trkpt lat="45.30893" lon="4.67854">
        <ele>615</ele>
        <time>2026-05-12T12:58:30.000Z</time>
      </trkpt>
      <trkpt lat="45.30894" lon="4.6785">
        <ele>615</ele>
        <time>2026-05-12T12:58:31.000Z</time>
      </trkpt>
      <trkpt lat="45.30895" lon="4.67846">
        <ele>615.20001220703</ele>
        <time>2026-05-12T12:58:32.000Z</time>
      </trkpt>
      <trkpt lat="45.30896" lon="4.67843">
        <ele>615.20001220703</ele>
        <time>2026-05-12T12:58:33.000Z</time>
      </trkpt>
      <trkpt lat="45.30897" lon="4.67839">
        <ele>615.40002441406</ele>
        <time>2026-05-12T12:58:34.000Z</time>
      </trkpt>
      <trkpt lat="45.30898" lon="4.67835">
        <ele>615.59997558594</ele>
        <time>2026-05-12T12:58:35.000Z</time>
      </trkpt>
      <trkpt lat="45.30899" lon="4.67831">
        <ele>615.79998779297</ele>
        <time>2026-05-12T12:58:36.000Z</time>
      </trkpt>
      <trkpt lat="45.309" lon="4.67828">
        <ele>615.79998779297</ele>
        <time>2026-05-12T12:58:37.000Z</time>
      </trkpt>
      <trkpt lat="45.30901" lon="4.67825">
        <ele>616</ele>
        <time>2026-05-12T12:58:38.000Z</time>
      </trkpt>
      <trkpt lat="45.30901" lon="4.67822">
        <ele>616</ele>
        <time>2026-05-12T12:58:39.000Z</time>
      </trkpt>
      <trkpt lat="45.30902" lon="4.67819">
        <ele>616</ele>
        <time>2026-05-12T12:58:40.000Z</time>
      </trkpt>
      <trkpt lat="45.30903" lon="4.67815">
        <ele>615.79998779297</ele>
        <time>2026-05-12T12:58:41.000Z</time>
      </trkpt>
      <trkpt lat="45.30904" lon="4.67812">
        <ele>615.79998779297</ele>
        <time>2026-05-12T12:58:42.000Z</time>
      </trkpt>
      <trkpt lat="45.30905" lon="4.67809">
        <ele>615.79998779297</ele>
        <time>2026-05-12T12:58:43.000Z</time>
      </trkpt>
      <trkpt lat="45.30906" lon="4.67806">
        <ele>615.79998779297</ele>
        <time>2026-05-12T12:58:44.000Z</time>
      </trkpt>
      <trkpt lat="45.30906" lon="4.67803">
        <ele>616</ele>
        <time>2026-05-12T12:58:45.000Z</time>
      </trkpt>
      <trkpt lat="45.30907" lon="4.678">
        <ele>616</ele>
        <time>2026-05-12T12:58:46.000Z</time>
      </trkpt>
      <trkpt lat="45.30908" lon="4.67796">
        <ele>616.20001220703</ele>
        <time>2026-05-12T12:58:47.000Z</time>
      </trkpt>
      <trkpt lat="45.30909" lon="4.67793">
        <ele>616.20001220703</ele>
        <time>2026-05-12T12:58:48.000Z</time>
      </trkpt>
      <trkpt lat="45.3091" lon="4.6779">
        <ele>616.40002441406</ele>
        <time>2026-05-12T12:58:49.000Z</time>
      </trkpt>
      <trkpt lat="45.30911" lon="4.67786">
        <ele>616.40002441406</ele>
        <time>2026-05-12T12:58:50.000Z</time>
      </trkpt>
      <trkpt lat="45.30912" lon="4.67783">
        <ele>616.40002441406</ele>
        <time>2026-05-12T12:58:51.000Z</time>
      </trkpt>
      <trkpt lat="45.30913" lon="4.67779">
        <ele>616.40002441406</ele>
        <time>2026-05-12T12:58:52.000Z</time>
      </trkpt>
      <trkpt lat="45.30914" lon="4.67776">
        <ele>616.40002441406</ele>
        <time>2026-05-12T12:58:53.000Z</time>
      </trkpt>
      <trkpt lat="45.30915" lon="4.67772">
        <ele>616.40002441406</ele>
        <time>2026-05-12T12:58:54.000Z</time>
      </trkpt>
      <trkpt lat="45.30916" lon="4.67769">
        <ele>616.40002441406</ele>
        <time>2026-05-12T12:58:55.000Z</time>
      </trkpt>
      <trkpt lat="45.30917" lon="4.67766">
        <ele>616.40002441406</ele>
        <time>2026-05-12T12:58:56.000Z</time>
      </trkpt>
      <trkpt lat="45.30918" lon="4.67763">
        <ele>616.40002441406</ele>
        <time>2026-05-12T12:58:57.000Z</time>
      </trkpt>
      <trkpt lat="45.30918" lon="4.67759">
        <ele>616.59997558594</ele>
        <time>2026-05-12T12:58:58.000Z</time>
      </trkpt>
      <trkpt lat="45.30919" lon="4.67756">
        <ele>616.59997558594</ele>
        <time>2026-05-12T12:58:59.000Z</time>
      </trkpt>
      <trkpt lat="45.3092" lon="4.67753">
        <ele>616.59997558594</ele>
        <time>2026-05-12T12:59:00.000Z</time>
      </trkpt>
      <trkpt lat="45.30921" lon="4.67749">
        <ele>616.59997558594</ele>
        <time>2026-05-12T12:59:01.000Z</time>
      </trkpt>
      <trkpt lat="45.30922" lon="4.67746">
        <ele>616.59997558594</ele>
        <time>2026-05-12T12:59:02.000Z</time>
      </trkpt>
      <trkpt lat="45.30923" lon="4.67742">
        <ele>616.59997558594</ele>
        <time>2026-05-12T12:59:03.000Z</time>
      </trkpt>
      <trkpt lat="45.30924" lon="4.67739">
        <ele>616.79998779297</ele>
        <time>2026-05-12T12:59:04.000Z</time>
      </trkpt>
      <trkpt lat="45.30925" lon="4.67736">
        <ele>616.79998779297</ele>
        <time>2026-05-12T12:59:05.000Z</time>
      </trkpt>
      <trkpt lat="45.30926" lon="4.67733">
        <ele>616.79998779297</ele>
        <time>2026-05-12T12:59:06.000Z</time>
      </trkpt>
      <trkpt lat="45.30927" lon="4.6773">
        <ele>617</ele>
        <time>2026-05-12T12:59:07.000Z</time>
      </trkpt>
      <trkpt lat="45.30928" lon="4.67726">
        <ele>617.20001220703</ele>
        <time>2026-05-12T12:59:08.000Z</time>
      </trkpt>
      <trkpt lat="45.30929" lon="4.67723">
        <ele>617.20001220703</ele>
        <time>2026-05-12T12:59:09.000Z</time>
      </trkpt>
      <trkpt lat="45.3093" lon="4.67719">
        <ele>617.40002441406</ele>
        <time>2026-05-12T12:59:10.000Z</time>
      </trkpt>
      <trkpt lat="45.30931" lon="4.67716">
        <ele>617.59997558594</ele>
        <time>2026-05-12T12:59:11.000Z</time>
      </trkpt>
      <trkpt lat="45.30932" lon="4.67712">
        <ele>617.59997558594</ele>
        <time>2026-05-12T12:59:12.000Z</time>
      </trkpt>
      <trkpt lat="45.30932" lon="4.67709">
        <ele>617.79998779297</ele>
        <time>2026-05-12T12:59:13.000Z</time>
      </trkpt>
      <trkpt lat="45.30933" lon="4.67706">
        <ele>617.79998779297</ele>
        <time>2026-05-12T12:59:14.000Z</time>
      </trkpt>
      <trkpt lat="45.30935" lon="4.67703">
        <ele>617.79998779297</ele>
        <time>2026-05-12T12:59:15.000Z</time>
      </trkpt>
      <trkpt lat="45.30936" lon="4.67699">
        <ele>617.79998779297</ele>
        <time>2026-05-12T12:59:16.000Z</time>
      </trkpt>
      <trkpt lat="45.30937" lon="4.67696">
        <ele>617.79998779297</ele>
        <time>2026-05-12T12:59:17.000Z</time>
      </trkpt>
      <trkpt lat="45.30938" lon="4.67693">
        <ele>617.59997558594</ele>
        <time>2026-05-12T12:59:18.000Z</time>
      </trkpt>
      <trkpt lat="45.30939" lon="4.6769">
        <ele>617.59997558594</ele>
        <time>2026-05-12T12:59:19.000Z</time>
      </trkpt>
      <trkpt lat="45.3094" lon="4.67686">
        <ele>617.59997558594</ele>
        <time>2026-05-12T12:59:20.000Z</time>
      </trkpt>
      <trkpt lat="45.30941" lon="4.67683">
        <ele>617.79998779297</ele>
        <time>2026-05-12T12:59:21.000Z</time>
      </trkpt>
      <trkpt lat="45.30942" lon="4.6768">
        <ele>617.79998779297</ele>
        <time>2026-05-12T12:59:22.000Z</time>
      </trkpt>
      <trkpt lat="45.30943" lon="4.67677">
        <ele>617.79998779297</ele>
        <time>2026-05-12T12:59:23.000Z</time>
      </trkpt>
      <trkpt lat="45.30944" lon="4.67674">
        <ele>617.79998779297</ele>
        <time>2026-05-12T12:59:24.000Z</time>
      </trkpt>
      <trkpt lat="45.30944" lon="4.67671">
        <ele>617.79998779297</ele>
        <time>2026-05-12T12:59:25.000Z</time>
      </trkpt>
      <trkpt lat="45.30945" lon="4.67668">
        <ele>617.79998779297</ele>
        <time>2026-05-12T12:59:26.000Z</time>
      </trkpt>
      <trkpt lat="45.30946" lon="4.67665">
        <ele>618</ele>
        <time>2026-05-12T12:59:27.000Z</time>
      </trkpt>
      <trkpt lat="45.30947" lon="4.67663">
        <ele>618.20001220703</ele>
        <time>2026-05-12T12:59:28.000Z</time>
      </trkpt>
      <trkpt lat="45.30948" lon="4.6766">
        <ele>618.20001220703</ele>
        <time>2026-05-12T12:59:29.000Z</time>
      </trkpt>
      <trkpt lat="45.30949" lon="4.67657">
        <ele>618.40002441406</ele>
        <time>2026-05-12T12:59:30.000Z</time>
      </trkpt>
      <trkpt lat="45.3095" lon="4.67655">
        <ele>618.59997558594</ele>
        <time>2026-05-12T12:59:31.000Z</time>
      </trkpt>
      <trkpt lat="45.3095" lon="4.67652">
        <ele>618.79998779297</ele>
        <time>2026-05-12T12:59:32.000Z</time>
      </trkpt>
      <trkpt lat="45.30951" lon="4.67649">
        <ele>619</ele>
        <time>2026-05-12T12:59:33.000Z</time>
      </trkpt>
      <trkpt lat="45.30952" lon="4.67646">
        <ele>619</ele>
        <time>2026-05-12T12:59:34.000Z</time>
      </trkpt>
      <trkpt lat="45.30952" lon="4.67643">
        <ele>619.20001220703</ele>
        <time>2026-05-12T12:59:35.000Z</time>
      </trkpt>
      <trkpt lat="45.30951" lon="4.67639">
        <ele>619.20001220703</ele>
        <time>2026-05-12T12:59:36.000Z</time>
      </trkpt>
      <trkpt lat="45.3095" lon="4.67636">
        <ele>619.40002441406</ele>
        <time>2026-05-12T12:59:37.000Z</time>
      </trkpt>
      <trkpt lat="45.30949" lon="4.67632">
        <ele>619.40002441406</ele>
        <time>2026-05-12T12:59:38.000Z</time>
      </trkpt>
      <trkpt lat="45.30948" lon="4.6763">
        <ele>619.59997558594</ele>
        <time>2026-05-12T12:59:39.000Z</time>
      </trkpt>
      <trkpt lat="45.30947" lon="4.67627">
        <ele>619.59997558594</ele>
        <time>2026-05-12T12:59:40.000Z</time>
      </trkpt>
      <trkpt lat="45.30945" lon="4.67625">
        <ele>619.59997558594</ele>
        <time>2026-05-12T12:59:41.000Z</time>
      </trkpt>
      <trkpt lat="45.30944" lon="4.67623">
        <ele>619.79998779297</ele>
        <time>2026-05-12T12:59:42.000Z</time>
      </trkpt>
      <trkpt lat="45.30943" lon="4.6762">
        <ele>619.79998779297</ele>
        <time>2026-05-12T12:59:43.000Z</time>
      </trkpt>
      <trkpt lat="45.30942" lon="4.67618">
        <ele>619.79998779297</ele>
        <time>2026-05-12T12:59:44.000Z</time>
      </trkpt>
      <trkpt lat="45.30941" lon="4.67617">
        <ele>619.79998779297</ele>
        <time>2026-05-12T12:59:45.000Z</time>
      </trkpt>
      <trkpt lat="45.3094" lon="4.67615">
        <ele>619.79998779297</ele>
        <time>2026-05-12T12:59:46.000Z</time>
      </trkpt>
      <trkpt lat="45.30939" lon="4.67614">
        <ele>620</ele>
        <time>2026-05-12T12:59:47.000Z</time>
      </trkpt>
      <trkpt lat="45.30938" lon="4.67613">
        <ele>620</ele>
        <time>2026-05-12T12:59:48.000Z</time>
      </trkpt>
      <trkpt lat="45.30937" lon="4.67612">
        <ele>620.20001220703</ele>
        <time>2026-05-12T12:59:49.000Z</time>
      </trkpt>
      <trkpt lat="45.30935" lon="4.67611">
        <ele>620.20001220703</ele>
        <time>2026-05-12T12:59:50.000Z</time>
      </trkpt>
      <trkpt lat="45.30934" lon="4.6761">
        <ele>620.20001220703</ele>
        <time>2026-05-12T12:59:51.000Z</time>
      </trkpt>
      <trkpt lat="45.30935" lon="4.67609">
        <ele>620.20001220703</ele>
        <time>2026-05-12T12:59:52.000Z</time>
      </trkpt>
      <trkpt lat="45.30935" lon="4.67606">
        <ele>620.20001220703</ele>
        <time>2026-05-12T12:59:53.000Z</time>
      </trkpt>
      <trkpt lat="45.30937" lon="4.67604">
        <ele>620.20001220703</ele>
        <time>2026-05-12T12:59:54.000Z</time>
      </trkpt>
      <trkpt lat="45.30938" lon="4.67601">
        <ele>620.20001220703</ele>
        <time>2026-05-12T12:59:55.000Z</time>
      </trkpt>
      <trkpt lat="45.30939" lon="4.67598">
        <ele>620.59997558594</ele>
        <time>2026-05-12T12:59:56.000Z</time>
      </trkpt>
      <trkpt lat="45.3094" lon="4.67595">
        <ele>621</ele>
        <time>2026-05-12T12:59:57.000Z</time>
      </trkpt>
      <trkpt lat="45.30942" lon="4.67592">
        <ele>621.40002441406</ele>
        <time>2026-05-12T12:59:58.000Z</time>
      </trkpt>
      <trkpt lat="45.30943" lon="4.6759">
        <ele>622</ele>
        <time>2026-05-12T12:59:59.000Z</time>
      </trkpt>
      <trkpt lat="45.30945" lon="4.67587">
        <ele>622.40002441406</ele>
        <time>2026-05-12T13:00:00.000Z</time>
      </trkpt>
      <trkpt lat="45.30946" lon="4.67585">
        <ele>623</ele>
        <time>2026-05-12T13:00:01.000Z</time>
      </trkpt>
      <trkpt lat="45.30948" lon="4.67583">
        <ele>623.59997558594</ele>
        <time>2026-05-12T13:00:02.000Z</time>
      </trkpt>
      <trkpt lat="45.30949" lon="4.6758">
        <ele>624</ele>
        <time>2026-05-12T13:00:03.000Z</time>
      </trkpt>
      <trkpt lat="45.3095" lon="4.67578">
        <ele>624.40002441406</ele>
        <time>2026-05-12T13:00:04.000Z</time>
      </trkpt>
      <trkpt lat="45.30952" lon="4.67576">
        <ele>624.79998779297</ele>
        <time>2026-05-12T13:00:05.000Z</time>
      </trkpt>
      <trkpt lat="45.30953" lon="4.67574">
        <ele>625.20001220703</ele>
        <time>2026-05-12T13:00:06.000Z</time>
      </trkpt>
      <trkpt lat="45.30954" lon="4.67572">
        <ele>625.59997558594</ele>
        <time>2026-05-12T13:00:07.000Z</time>
      </trkpt>
      <trkpt lat="45.30956" lon="4.6757">
        <ele>625.79998779297</ele>
        <time>2026-05-12T13:00:08.000Z</time>
      </trkpt>
      <trkpt lat="45.30957" lon="4.67567">
        <ele>626.20001220703</ele>
        <time>2026-05-12T13:00:09.000Z</time>
      </trkpt>
      <trkpt lat="45.30958" lon="4.67565">
        <ele>626.59997558594</ele>
        <time>2026-05-12T13:00:10.000Z</time>
      </trkpt>
      <trkpt lat="45.30959" lon="4.67563">
        <ele>626.79998779297</ele>
        <time>2026-05-12T13:00:11.000Z</time>
      </trkpt>
      <trkpt lat="45.30961" lon="4.67561">
        <ele>627</ele>
        <time>2026-05-12T13:00:12.000Z</time>
      </trkpt>
      <trkpt lat="45.30962" lon="4.67559">
        <ele>627.20001220703</ele>
        <time>2026-05-12T13:00:13.000Z</time>
      </trkpt>
      <trkpt lat="45.30963" lon="4.67557">
        <ele>627.40002441406</ele>
        <time>2026-05-12T13:00:14.000Z</time>
      </trkpt>
      <trkpt lat="45.30964" lon="4.67556">
        <ele>627.59997558594</ele>
        <time>2026-05-12T13:00:15.000Z</time>
      </trkpt>
      <trkpt lat="45.30965" lon="4.67554">
        <ele>627.79998779297</ele>
        <time>2026-05-12T13:00:16.000Z</time>
      </trkpt>
      <trkpt lat="45.30966" lon="4.67552">
        <ele>628</ele>
        <time>2026-05-12T13:00:17.000Z</time>
      </trkpt>
      <trkpt lat="45.30968" lon="4.6755">
        <ele>628.40002441406</ele>
        <time>2026-05-12T13:00:18.000Z</time>
      </trkpt>
      <trkpt lat="45.30969" lon="4.67548">
        <ele>628.59997558594</ele>
        <time>2026-05-12T13:00:19.000Z</time>
      </trkpt>
      <trkpt lat="45.30971" lon="4.67546">
        <ele>629</ele>
        <time>2026-05-12T13:00:20.000Z</time>
      </trkpt>
      <trkpt lat="45.30972" lon="4.67544">
        <ele>629.20001220703</ele>
        <time>2026-05-12T13:00:21.000Z</time>
      </trkpt>
      <trkpt lat="45.30974" lon="4.67542">
        <ele>629.59997558594</ele>
        <time>2026-05-12T13:00:22.000Z</time>
      </trkpt>
      <trkpt lat="45.30975" lon="4.67541">
        <ele>629.79998779297</ele>
        <time>2026-05-12T13:00:23.000Z</time>
      </trkpt>
      <trkpt lat="45.30976" lon="4.6754">
        <ele>630.20001220703</ele>
        <time>2026-05-12T13:00:24.000Z</time>
      </trkpt>
      <trkpt lat="45.30978" lon="4.67539">
        <ele>630.40002441406</ele>
        <time>2026-05-12T13:00:25.000Z</time>
      </trkpt>
      <trkpt lat="45.30979" lon="4.67537">
        <ele>630.79998779297</ele>
        <time>2026-05-12T13:00:26.000Z</time>
      </trkpt>
      <trkpt lat="45.3098" lon="4.67535">
        <ele>631</ele>
        <time>2026-05-12T13:00:27.000Z</time>
      </trkpt>
      <trkpt lat="45.30982" lon="4.67533">
        <ele>631.20001220703</ele>
        <time>2026-05-12T13:00:28.000Z</time>
      </trkpt>
      <trkpt lat="45.30983" lon="4.67532">
        <ele>631.40002441406</ele>
        <time>2026-05-12T13:00:29.000Z</time>
      </trkpt>
      <trkpt lat="45.30985" lon="4.6753">
        <ele>631.59997558594</ele>
        <time>2026-05-12T13:00:30.000Z</time>
      </trkpt>
      <trkpt lat="45.30986" lon="4.67529">
        <ele>631.79998779297</ele>
        <time>2026-05-12T13:00:31.000Z</time>
      </trkpt>
      <trkpt lat="45.30988" lon="4.67528">
        <ele>632</ele>
        <time>2026-05-12T13:00:32.000Z</time>
      </trkpt>
      <trkpt lat="45.3099" lon="4.67527">
        <ele>632.40002441406</ele>
        <time>2026-05-12T13:00:33.000Z</time>
      </trkpt>
      <trkpt lat="45.30991" lon="4.67526">
        <ele>632.79998779297</ele>
        <time>2026-05-12T13:00:34.000Z</time>
      </trkpt>
      <trkpt lat="45.30993" lon="4.67525">
        <ele>633</ele>
        <time>2026-05-12T13:00:35.000Z</time>
      </trkpt>
      <trkpt lat="45.30994" lon="4.67524">
        <ele>633.40002441406</ele>
        <time>2026-05-12T13:00:36.000Z</time>
      </trkpt>
      <trkpt lat="45.30996" lon="4.67523">
        <ele>633.59997558594</ele>
        <time>2026-05-12T13:00:37.000Z</time>
      </trkpt>
      <trkpt lat="45.30997" lon="4.67522">
        <ele>633.79998779297</ele>
        <time>2026-05-12T13:00:38.000Z</time>
      </trkpt>
      <trkpt lat="45.30999" lon="4.67521">
        <ele>634</ele>
        <time>2026-05-12T13:00:39.000Z</time>
      </trkpt>
      <trkpt lat="45.31001" lon="4.67519">
        <ele>634</ele>
        <time>2026-05-12T13:00:40.000Z</time>
      </trkpt>
      <trkpt lat="45.31003" lon="4.67519">
        <ele>634</ele>
        <time>2026-05-12T13:00:41.000Z</time>
      </trkpt>
      <trkpt lat="45.31004" lon="4.67519">
        <ele>634.20001220703</ele>
        <time>2026-05-12T13:00:42.000Z</time>
      </trkpt>
      <trkpt lat="45.31006" lon="4.67519">
        <ele>634.20001220703</ele>
        <time>2026-05-12T13:00:43.000Z</time>
      </trkpt>
      <trkpt lat="45.31008" lon="4.67519">
        <ele>634.20001220703</ele>
        <time>2026-05-12T13:00:44.000Z</time>
      </trkpt>
      <trkpt lat="45.3101" lon="4.67519">
        <ele>634.40002441406</ele>
        <time>2026-05-12T13:00:45.000Z</time>
      </trkpt>
      <trkpt lat="45.31011" lon="4.67519">
        <ele>634.59997558594</ele>
        <time>2026-05-12T13:00:46.000Z</time>
      </trkpt>
      <trkpt lat="45.31012" lon="4.6752">
        <ele>634.59997558594</ele>
        <time>2026-05-12T13:00:47.000Z</time>
      </trkpt>
      <trkpt lat="45.31013" lon="4.67521">
        <ele>634.79998779297</ele>
        <time>2026-05-12T13:00:48.000Z</time>
      </trkpt>
      <trkpt lat="45.31015" lon="4.67522">
        <ele>635</ele>
        <time>2026-05-12T13:00:49.000Z</time>
      </trkpt>
      <trkpt lat="45.31016" lon="4.67524">
        <ele>635</ele>
        <time>2026-05-12T13:00:50.000Z</time>
      </trkpt>
      <trkpt lat="45.31017" lon="4.67526">
        <ele>635</ele>
        <time>2026-05-12T13:00:51.000Z</time>
      </trkpt>
      <trkpt lat="45.31018" lon="4.67529">
        <ele>635.20001220703</ele>
        <time>2026-05-12T13:00:52.000Z</time>
      </trkpt>
      <trkpt lat="45.3102" lon="4.67532">
        <ele>635.20001220703</ele>
        <time>2026-05-12T13:00:53.000Z</time>
      </trkpt>
      <trkpt lat="45.31021" lon="4.67535">
        <ele>635.40002441406</ele>
        <time>2026-05-12T13:00:54.000Z</time>
      </trkpt>
      <trkpt lat="45.31022" lon="4.67537">
        <ele>635.40002441406</ele>
        <time>2026-05-12T13:00:55.000Z</time>
      </trkpt>
      <trkpt lat="45.31023" lon="4.6754">
        <ele>635.59997558594</ele>
        <time>2026-05-12T13:00:56.000Z</time>
      </trkpt>
      <trkpt lat="45.31024" lon="4.67543">
        <ele>635.59997558594</ele>
        <time>2026-05-12T13:00:57.000Z</time>
      </trkpt>
      <trkpt lat="45.31024" lon="4.67545">
        <ele>635.59997558594</ele>
        <time>2026-05-12T13:00:58.000Z</time>
      </trkpt>
      <trkpt lat="45.31025" lon="4.67548">
        <ele>635.59997558594</ele>
        <time>2026-05-12T13:00:59.000Z</time>
      </trkpt>
      <trkpt lat="45.31026" lon="4.67551">
        <ele>635.79998779297</ele>
        <time>2026-05-12T13:01:00.000Z</time>
      </trkpt>
      <trkpt lat="45.31026" lon="4.67554">
        <ele>635.79998779297</ele>
        <time>2026-05-12T13:01:01.000Z</time>
      </trkpt>
      <trkpt lat="45.31027" lon="4.67557">
        <ele>636</ele>
        <time>2026-05-12T13:01:02.000Z</time>
      </trkpt>
      <trkpt lat="45.31027" lon="4.6756">
        <ele>636.20001220703</ele>
        <time>2026-05-12T13:01:03.000Z</time>
      </trkpt>
      <trkpt lat="45.31028" lon="4.67562">
        <ele>636.20001220703</ele>
        <time>2026-05-12T13:01:04.000Z</time>
      </trkpt>
      <trkpt lat="45.31029" lon="4.67565">
        <ele>636.40002441406</ele>
        <time>2026-05-12T13:01:05.000Z</time>
      </trkpt>
      <trkpt lat="45.31029" lon="4.67568">
        <ele>636.59997558594</ele>
        <time>2026-05-12T13:01:06.000Z</time>
      </trkpt>
      <trkpt lat="45.31029" lon="4.6757">
        <ele>636.79998779297</ele>
        <time>2026-05-12T13:01:07.000Z</time>
      </trkpt>
      <trkpt lat="45.31029" lon="4.67573">
        <ele>637</ele>
        <time>2026-05-12T13:01:08.000Z</time>
      </trkpt>
      <trkpt lat="45.3103" lon="4.67575">
        <ele>637.20001220703</ele>
        <time>2026-05-12T13:01:09.000Z</time>
      </trkpt>
      <trkpt lat="45.3103" lon="4.67578">
        <ele>637.20001220703</ele>
        <time>2026-05-12T13:01:10.000Z</time>
      </trkpt>
      <trkpt lat="45.31031" lon="4.67581">
        <ele>637.40002441406</ele>
        <time>2026-05-12T13:01:11.000Z</time>
      </trkpt>
      <trkpt lat="45.31031" lon="4.67583">
        <ele>637.59997558594</ele>
        <time>2026-05-12T13:01:12.000Z</time>
      </trkpt>
      <trkpt lat="45.31031" lon="4.67586">
        <ele>637.59997558594</ele>
        <time>2026-05-12T13:01:13.000Z</time>
      </trkpt>
      <trkpt lat="45.31032" lon="4.67589">
        <ele>637.79998779297</ele>
        <time>2026-05-12T13:01:14.000Z</time>
      </trkpt>
      <trkpt lat="45.31032" lon="4.67592">
        <ele>637.79998779297</ele>
        <time>2026-05-12T13:01:15.000Z</time>
      </trkpt>
      <trkpt lat="45.31032" lon="4.67594">
        <ele>638</ele>
        <time>2026-05-12T13:01:16.000Z</time>
      </trkpt>
      <trkpt lat="45.31033" lon="4.67597">
        <ele>638.20001220703</ele>
        <time>2026-05-12T13:01:17.000Z</time>
      </trkpt>
      <trkpt lat="45.31033" lon="4.676">
        <ele>638.40002441406</ele>
        <time>2026-05-12T13:01:18.000Z</time>
      </trkpt>
      <trkpt lat="45.31033" lon="4.67602">
        <ele>638.59997558594</ele>
        <time>2026-05-12T13:01:19.000Z</time>
      </trkpt>
      <trkpt lat="45.31033" lon="4.67605">
        <ele>638.79998779297</ele>
        <time>2026-05-12T13:01:20.000Z</time>
      </trkpt>
      <trkpt lat="45.31034" lon="4.67607">
        <ele>638.79998779297</ele>
        <time>2026-05-12T13:01:21.000Z</time>
      </trkpt>
      <trkpt lat="45.31033" lon="4.67609">
        <ele>639</ele>
        <time>2026-05-12T13:01:22.000Z</time>
      </trkpt>
      <trkpt lat="45.31033" lon="4.67612">
        <ele>639.20001220703</ele>
        <time>2026-05-12T13:01:23.000Z</time>
      </trkpt>
      <trkpt lat="45.31034" lon="4.67615">
        <ele>639.40002441406</ele>
        <time>2026-05-12T13:01:24.000Z</time>
      </trkpt>
      <trkpt lat="45.31034" lon="4.67617">
        <ele>639.40002441406</ele>
        <time>2026-05-12T13:01:25.000Z</time>
      </trkpt>
      <trkpt lat="45.31035" lon="4.6762">
        <ele>639.59997558594</ele>
        <time>2026-05-12T13:01:26.000Z</time>
      </trkpt>
      <trkpt lat="45.31035" lon="4.67622">
        <ele>639.59997558594</ele>
        <time>2026-05-12T13:01:27.000Z</time>
      </trkpt>
      <trkpt lat="45.31035" lon="4.67625">
        <ele>639.79998779297</ele>
        <time>2026-05-12T13:01:28.000Z</time>
      </trkpt>
      <trkpt lat="45.31035" lon="4.67628">
        <ele>639.79998779297</ele>
        <time>2026-05-12T13:01:29.000Z</time>
      </trkpt>
      <trkpt lat="45.31035" lon="4.67631">
        <ele>639.79998779297</ele>
        <time>2026-05-12T13:01:30.000Z</time>
      </trkpt>
      <trkpt lat="45.31036" lon="4.67633">
        <ele>640</ele>
        <time>2026-05-12T13:01:31.000Z</time>
      </trkpt>
      <trkpt lat="45.31036" lon="4.67636">
        <ele>640</ele>
        <time>2026-05-12T13:01:32.000Z</time>
      </trkpt>
      <trkpt lat="45.31036" lon="4.67638">
        <ele>640.20001220703</ele>
        <time>2026-05-12T13:01:33.000Z</time>
      </trkpt>
      <trkpt lat="45.31036" lon="4.67641">
        <ele>640.20001220703</ele>
        <time>2026-05-12T13:01:34.000Z</time>
      </trkpt>
      <trkpt lat="45.31036" lon="4.67644">
        <ele>640.40002441406</ele>
        <time>2026-05-12T13:01:35.000Z</time>
      </trkpt>
      <trkpt lat="45.31036" lon="4.67646">
        <ele>640.59997558594</ele>
        <time>2026-05-12T13:01:36.000Z</time>
      </trkpt>
      <trkpt lat="45.31036" lon="4.67649">
        <ele>640.59997558594</ele>
        <time>2026-05-12T13:01:37.000Z</time>
      </trkpt>
      <trkpt lat="45.31036" lon="4.67651">
        <ele>640.79998779297</ele>
        <time>2026-05-12T13:01:38.000Z</time>
      </trkpt>
      <trkpt lat="45.31037" lon="4.67654">
        <ele>641</ele>
        <time>2026-05-12T13:01:39.000Z</time>
      </trkpt>
      <trkpt lat="45.31037" lon="4.67656">
        <ele>641.20001220703</ele>
        <time>2026-05-12T13:01:40.000Z</time>
      </trkpt>
      <trkpt lat="45.31038" lon="4.67659">
        <ele>641.40002441406</ele>
        <time>2026-05-12T13:01:41.000Z</time>
      </trkpt>
      <trkpt lat="45.31038" lon="4.67662">
        <ele>641.59997558594</ele>
        <time>2026-05-12T13:01:42.000Z</time>
      </trkpt>
      <trkpt lat="45.31038" lon="4.67664">
        <ele>641.79998779297</ele>
        <time>2026-05-12T13:01:43.000Z</time>
      </trkpt>
      <trkpt lat="45.31038" lon="4.67666">
        <ele>642</ele>
        <time>2026-05-12T13:01:44.000Z</time>
      </trkpt>
      <trkpt lat="45.31038" lon="4.67668">
        <ele>642.40002441406</ele>
        <time>2026-05-12T13:01:45.000Z</time>
      </trkpt>
      <trkpt lat="45.31038" lon="4.67671">
        <ele>642.59997558594</ele>
        <time>2026-05-12T13:01:46.000Z</time>
      </trkpt>
      <trkpt lat="45.31038" lon="4.67673">
        <ele>642.79998779297</ele>
        <time>2026-05-12T13:01:47.000Z</time>
      </trkpt>
      <trkpt lat="45.31038" lon="4.67676">
        <ele>643.20001220703</ele>
        <time>2026-05-12T13:01:48.000Z</time>
      </trkpt>
      <trkpt lat="45.31038" lon="4.67679">
        <ele>643.40002441406</ele>
        <time>2026-05-12T13:01:49.000Z</time>
      </trkpt>
      <trkpt lat="45.31038" lon="4.67681">
        <ele>643.59997558594</ele>
        <time>2026-05-12T13:01:50.000Z</time>
      </trkpt>
      <trkpt lat="45.31038" lon="4.67684">
        <ele>643.79998779297</ele>
        <time>2026-05-12T13:01:51.000Z</time>
      </trkpt>
      <trkpt lat="45.31037" lon="4.67687">
        <ele>644</ele>
        <time>2026-05-12T13:01:52.000Z</time>
      </trkpt>
      <trkpt lat="45.31037" lon="4.67689">
        <ele>644.20001220703</ele>
        <time>2026-05-12T13:01:53.000Z</time>
      </trkpt>
      <trkpt lat="45.31037" lon="4.67692">
        <ele>644.40002441406</ele>
        <time>2026-05-12T13:01:54.000Z</time>
      </trkpt>
      <trkpt lat="45.31037" lon="4.67695">
        <ele>644.59997558594</ele>
        <time>2026-05-12T13:01:55.000Z</time>
      </trkpt>
      <trkpt lat="45.31037" lon="4.67697">
        <ele>644.79998779297</ele>
        <time>2026-05-12T13:01:56.000Z</time>
      </trkpt>
      <trkpt lat="45.31037" lon="4.67699">
        <ele>644.79998779297</ele>
        <time>2026-05-12T13:01:57.000Z</time>
      </trkpt>
      <trkpt lat="45.31036" lon="4.67702">
        <ele>645</ele>
        <time>2026-05-12T13:01:58.000Z</time>
      </trkpt>
      <trkpt lat="45.31036" lon="4.67705">
        <ele>645</ele>
        <time>2026-05-12T13:01:59.000Z</time>
      </trkpt>
      <trkpt lat="45.31036" lon="4.67707">
        <ele>645.20001220703</ele>
        <time>2026-05-12T13:02:00.000Z</time>
      </trkpt>
      <trkpt lat="45.31036" lon="4.6771">
        <ele>645.40002441406</ele>
        <time>2026-05-12T13:02:01.000Z</time>
      </trkpt>
      <trkpt lat="45.31035" lon="4.67712">
        <ele>645.59997558594</ele>
        <time>2026-05-12T13:02:02.000Z</time>
      </trkpt>
      <trkpt lat="45.31035" lon="4.67714">
        <ele>645.79998779297</ele>
        <time>2026-05-12T13:02:03.000Z</time>
      </trkpt>
      <trkpt lat="45.31035" lon="4.67717">
        <ele>646</ele>
        <time>2026-05-12T13:02:04.000Z</time>
      </trkpt>
      <trkpt lat="45.31036" lon="4.67719">
        <ele>646.20001220703</ele>
        <time>2026-05-12T13:02:05.000Z</time>
      </trkpt>
      <trkpt lat="45.31036" lon="4.67721">
        <ele>646.40002441406</ele>
        <time>2026-05-12T13:02:06.000Z</time>
      </trkpt>
      <trkpt lat="45.31036" lon="4.67724">
        <ele>646.59997558594</ele>
        <time>2026-05-12T13:02:07.000Z</time>
      </trkpt>
      <trkpt lat="45.31036" lon="4.67727">
        <ele>646.79998779297</ele>
        <time>2026-05-12T13:02:08.000Z</time>
      </trkpt>
      <trkpt lat="45.31036" lon="4.6773">
        <ele>647</ele>
        <time>2026-05-12T13:02:09.000Z</time>
      </trkpt>
      <trkpt lat="45.31037" lon="4.67733">
        <ele>647.20001220703</ele>
        <time>2026-05-12T13:02:10.000Z</time>
      </trkpt>
      <trkpt lat="45.31037" lon="4.67735">
        <ele>647.40002441406</ele>
        <time>2026-05-12T13:02:11.000Z</time>
      </trkpt>
      <trkpt lat="45.31038" lon="4.67737">
        <ele>647.59997558594</ele>
        <time>2026-05-12T13:02:12.000Z</time>
      </trkpt>
      <trkpt lat="45.31038" lon="4.67739">
        <ele>647.79998779297</ele>
        <time>2026-05-12T13:02:13.000Z</time>
      </trkpt>
      <trkpt lat="45.31039" lon="4.67742">
        <ele>647.79998779297</ele>
        <time>2026-05-12T13:02:14.000Z</time>
      </trkpt>
      <trkpt lat="45.31039" lon="4.67744">
        <ele>648</ele>
        <time>2026-05-12T13:02:15.000Z</time>
      </trkpt>
      <trkpt lat="45.3104" lon="4.67747">
        <ele>648</ele>
        <time>2026-05-12T13:02:16.000Z</time>
      </trkpt>
      <trkpt lat="45.3104" lon="4.6775">
        <ele>648.20001220703</ele>
        <time>2026-05-12T13:02:17.000Z</time>
      </trkpt>
      <trkpt lat="45.31041" lon="4.67753">
        <ele>648.20001220703</ele>
        <time>2026-05-12T13:02:18.000Z</time>
      </trkpt>
      <trkpt lat="45.31041" lon="4.67756">
        <ele>648.20001220703</ele>
        <time>2026-05-12T13:02:19.000Z</time>
      </trkpt>
      <trkpt lat="45.31042" lon="4.67759">
        <ele>648.20001220703</ele>
        <time>2026-05-12T13:02:20.000Z</time>
      </trkpt>
      <trkpt lat="45.31042" lon="4.67761">
        <ele>648.20001220703</ele>
        <time>2026-05-12T13:02:21.000Z</time>
      </trkpt>
      <trkpt lat="45.31043" lon="4.67764">
        <ele>648.20001220703</ele>
        <time>2026-05-12T13:02:22.000Z</time>
      </trkpt>
      <trkpt lat="45.31044" lon="4.67767">
        <ele>648.20001220703</ele>
        <time>2026-05-12T13:02:23.000Z</time>
      </trkpt>
      <trkpt lat="45.31044" lon="4.6777">
        <ele>648.20001220703</ele>
        <time>2026-05-12T13:02:24.000Z</time>
      </trkpt>
      <trkpt lat="45.31045" lon="4.67773">
        <ele>648.40002441406</ele>
        <time>2026-05-12T13:02:25.000Z</time>
      </trkpt>
      <trkpt lat="45.31046" lon="4.67775">
        <ele>648.40002441406</ele>
        <time>2026-05-12T13:02:26.000Z</time>
      </trkpt>
      <trkpt lat="45.31047" lon="4.67778">
        <ele>648.40002441406</ele>
        <time>2026-05-12T13:02:27.000Z</time>
      </trkpt>
      <trkpt lat="45.31047" lon="4.67781">
        <ele>648.40002441406</ele>
        <time>2026-05-12T13:02:28.000Z</time>
      </trkpt>
      <trkpt lat="45.31049" lon="4.67784">
        <ele>648.20001220703</ele>
        <time>2026-05-12T13:02:29.000Z</time>
      </trkpt>
      <trkpt lat="45.3105" lon="4.67786">
        <ele>648.20001220703</ele>
        <time>2026-05-12T13:02:30.000Z</time>
      </trkpt>
      <trkpt lat="45.31051" lon="4.67788">
        <ele>648.20001220703</ele>
        <time>2026-05-12T13:02:31.000Z</time>
      </trkpt>
      <trkpt lat="45.31053" lon="4.67791">
        <ele>648.20001220703</ele>
        <time>2026-05-12T13:02:32.000Z</time>
      </trkpt>
      <trkpt lat="45.31054" lon="4.67793">
        <ele>648.20001220703</ele>
        <time>2026-05-12T13:02:33.000Z</time>
      </trkpt>
      <trkpt lat="45.31055" lon="4.67795">
        <ele>648.20001220703</ele>
        <time>2026-05-12T13:02:34.000Z</time>
      </trkpt>
      <trkpt lat="45.31056" lon="4.67797">
        <ele>648.40002441406</ele>
        <time>2026-05-12T13:02:35.000Z</time>
      </trkpt>
      <trkpt lat="45.31057" lon="4.678">
        <ele>648.59997558594</ele>
        <time>2026-05-12T13:02:36.000Z</time>
      </trkpt>
      <trkpt lat="45.31058" lon="4.67802">
        <ele>648.79998779297</ele>
        <time>2026-05-12T13:02:37.000Z</time>
      </trkpt>
      <trkpt lat="45.3106" lon="4.67804">
        <ele>649</ele>
        <time>2026-05-12T13:02:38.000Z</time>
      </trkpt>
      <trkpt lat="45.31061" lon="4.67806">
        <ele>649.20001220703</ele>
        <time>2026-05-12T13:02:39.000Z</time>
      </trkpt>
      <trkpt lat="45.31062" lon="4.67808">
        <ele>649.40002441406</ele>
        <time>2026-05-12T13:02:40.000Z</time>
      </trkpt>
      <trkpt lat="45.31064" lon="4.6781">
        <ele>649.40002441406</ele>
        <time>2026-05-12T13:02:41.000Z</time>
      </trkpt>
      <trkpt lat="45.31065" lon="4.67812">
        <ele>649.59997558594</ele>
        <time>2026-05-12T13:02:42.000Z</time>
      </trkpt>
      <trkpt lat="45.31067" lon="4.67814">
        <ele>649.79998779297</ele>
        <time>2026-05-12T13:02:43.000Z</time>
      </trkpt>
      <trkpt lat="45.31068" lon="4.67816">
        <ele>649.79998779297</ele>
        <time>2026-05-12T13:02:44.000Z</time>
      </trkpt>
      <trkpt lat="45.31069" lon="4.67818">
        <ele>649.79998779297</ele>
        <time>2026-05-12T13:02:45.000Z</time>
      </trkpt>
      <trkpt lat="45.31071" lon="4.6782">
        <ele>649.79998779297</ele>
        <time>2026-05-12T13:02:46.000Z</time>
      </trkpt>
      <trkpt lat="45.31072" lon="4.67823">
        <ele>649.79998779297</ele>
        <time>2026-05-12T13:02:47.000Z</time>
      </trkpt>
      <trkpt lat="45.31073" lon="4.67825">
        <ele>649.79998779297</ele>
        <time>2026-05-12T13:02:48.000Z</time>
      </trkpt>
      <trkpt lat="45.31074" lon="4.67827">
        <ele>649.79998779297</ele>
        <time>2026-05-12T13:02:49.000Z</time>
      </trkpt>
      <trkpt lat="45.31076" lon="4.67829">
        <ele>649.79998779297</ele>
        <time>2026-05-12T13:02:50.000Z</time>
      </trkpt>
      <trkpt lat="45.31077" lon="4.67832">
        <ele>649.79998779297</ele>
        <time>2026-05-12T13:02:51.000Z</time>
      </trkpt>
      <trkpt lat="45.31078" lon="4.67834">
        <ele>650</ele>
        <time>2026-05-12T13:02:52.000Z</time>
      </trkpt>
      <trkpt lat="45.3108" lon="4.67836">
        <ele>650.20001220703</ele>
        <time>2026-05-12T13:02:53.000Z</time>
      </trkpt>
      <trkpt lat="45.31081" lon="4.67838">
        <ele>650.40002441406</ele>
        <time>2026-05-12T13:02:54.000Z</time>
      </trkpt>
      <trkpt lat="45.31083" lon="4.6784">
        <ele>650.59997558594</ele>
        <time>2026-05-12T13:02:55.000Z</time>
      </trkpt>
      <trkpt lat="45.31084" lon="4.67842">
        <ele>650.79998779297</ele>
        <time>2026-05-12T13:02:56.000Z</time>
      </trkpt>
      <trkpt lat="45.31085" lon="4.67844">
        <ele>651</ele>
        <time>2026-05-12T13:02:57.000Z</time>
      </trkpt>
      <trkpt lat="45.31087" lon="4.67846">
        <ele>651</ele>
        <time>2026-05-12T13:02:58.000Z</time>
      </trkpt>
      <trkpt lat="45.31088" lon="4.67847">
        <ele>650.79998779297</ele>
        <time>2026-05-12T13:02:59.000Z</time>
      </trkpt>
      <trkpt lat="45.3109" lon="4.67849">
        <ele>650.79998779297</ele>
        <time>2026-05-12T13:03:00.000Z</time>
      </trkpt>
      <trkpt lat="45.31091" lon="4.67851">
        <ele>650.79998779297</ele>
        <time>2026-05-12T13:03:01.000Z</time>
      </trkpt>
      <trkpt lat="45.31092" lon="4.67853">
        <ele>650.79998779297</ele>
        <time>2026-05-12T13:03:02.000Z</time>
      </trkpt>
      <trkpt lat="45.31094" lon="4.67855">
        <ele>651</ele>
        <time>2026-05-12T13:03:03.000Z</time>
      </trkpt>
      <trkpt lat="45.31095" lon="4.67857">
        <ele>651.20001220703</ele>
        <time>2026-05-12T13:03:04.000Z</time>
      </trkpt>
      <trkpt lat="45.31096" lon="4.67859">
        <ele>651.40002441406</ele>
        <time>2026-05-12T13:03:05.000Z</time>
      </trkpt>
      <trkpt lat="45.31097" lon="4.67861">
        <ele>651.79998779297</ele>
        <time>2026-05-12T13:03:06.000Z</time>
      </trkpt>
      <trkpt lat="45.31098" lon="4.67864">
        <ele>652</ele>
        <time>2026-05-12T13:03:07.000Z</time>
      </trkpt>
      <trkpt lat="45.31099" lon="4.67867">
        <ele>652.20001220703</ele>
        <time>2026-05-12T13:03:08.000Z</time>
      </trkpt>
      <trkpt lat="45.31099" lon="4.67869">
        <ele>652.40002441406</ele>
        <time>2026-05-12T13:03:09.000Z</time>
      </trkpt>
      <trkpt lat="45.311" lon="4.67871">
        <ele>652.59997558594</ele>
        <time>2026-05-12T13:03:10.000Z</time>
      </trkpt>
      <trkpt lat="45.31101" lon="4.67874">
        <ele>652.79998779297</ele>
        <time>2026-05-12T13:03:11.000Z</time>
      </trkpt>
      <trkpt lat="45.31102" lon="4.67877">
        <ele>653</ele>
        <time>2026-05-12T13:03:12.000Z</time>
      </trkpt>
      <trkpt lat="45.31102" lon="4.67879">
        <ele>653</ele>
        <time>2026-05-12T13:03:13.000Z</time>
      </trkpt>
      <trkpt lat="45.31104" lon="4.67882">
        <ele>653.20001220703</ele>
        <time>2026-05-12T13:03:14.000Z</time>
      </trkpt>
      <trkpt lat="45.31104" lon="4.67884">
        <ele>653.40002441406</ele>
        <time>2026-05-12T13:03:15.000Z</time>
      </trkpt>
      <trkpt lat="45.31105" lon="4.67885">
        <ele>653.59997558594</ele>
        <time>2026-05-12T13:03:16.000Z</time>
      </trkpt>
      <trkpt lat="45.31106" lon="4.67888">
        <ele>653.79998779297</ele>
        <time>2026-05-12T13:03:17.000Z</time>
      </trkpt>
      <trkpt lat="45.31108" lon="4.6789">
        <ele>654</ele>
        <time>2026-05-12T13:03:18.000Z</time>
      </trkpt>
      <trkpt lat="45.31109" lon="4.67892">
        <ele>654.20001220703</ele>
        <time>2026-05-12T13:03:19.000Z</time>
      </trkpt>
      <trkpt lat="45.3111" lon="4.67894">
        <ele>654.40002441406</ele>
        <time>2026-05-12T13:03:20.000Z</time>
      </trkpt>
      <trkpt lat="45.31111" lon="4.67896">
        <ele>654.59997558594</ele>
        <time>2026-05-12T13:03:21.000Z</time>
      </trkpt>
      <trkpt lat="45.31113" lon="4.67898">
        <ele>654.59997558594</ele>
        <time>2026-05-12T13:03:22.000Z</time>
      </trkpt>
      <trkpt lat="45.31114" lon="4.67899">
        <ele>654.79998779297</ele>
        <time>2026-05-12T13:03:23.000Z</time>
      </trkpt>
      <trkpt lat="45.31116" lon="4.67901">
        <ele>655</ele>
        <time>2026-05-12T13:03:24.000Z</time>
      </trkpt>
      <trkpt lat="45.31118" lon="4.67902">
        <ele>655.20001220703</ele>
        <time>2026-05-12T13:03:25.000Z</time>
      </trkpt>
      <trkpt lat="45.31119" lon="4.67904">
        <ele>655.40002441406</ele>
        <time>2026-05-12T13:03:26.000Z</time>
      </trkpt>
      <trkpt lat="45.31121" lon="4.67905">
        <ele>655.79998779297</ele>
        <time>2026-05-12T13:03:27.000Z</time>
      </trkpt>
      <trkpt lat="45.31123" lon="4.67907">
        <ele>656.20001220703</ele>
        <time>2026-05-12T13:03:28.000Z</time>
      </trkpt>
      <trkpt lat="45.31124" lon="4.6791">
        <ele>656.40002441406</ele>
        <time>2026-05-12T13:03:29.000Z</time>
      </trkpt>
      <trkpt lat="45.31126" lon="4.67912">
        <ele>656.59997558594</ele>
        <time>2026-05-12T13:03:30.000Z</time>
      </trkpt>
      <trkpt lat="45.31127" lon="4.67914">
        <ele>656.59997558594</ele>
        <time>2026-05-12T13:03:31.000Z</time>
      </trkpt>
      <trkpt lat="45.31128" lon="4.67916">
        <ele>656.59997558594</ele>
        <time>2026-05-12T13:03:32.000Z</time>
      </trkpt>
      <trkpt lat="45.31129" lon="4.67918">
        <ele>656.59997558594</ele>
        <time>2026-05-12T13:03:33.000Z</time>
      </trkpt>
      <trkpt lat="45.31131" lon="4.6792">
        <ele>656.59997558594</ele>
        <time>2026-05-12T13:03:34.000Z</time>
      </trkpt>
      <trkpt lat="45.31131" lon="4.67922">
        <ele>656.40002441406</ele>
        <time>2026-05-12T13:03:35.000Z</time>
      </trkpt>
      <trkpt lat="45.31132" lon="4.67924">
        <ele>656.40002441406</ele>
        <time>2026-05-12T13:03:36.000Z</time>
      </trkpt>
      <trkpt lat="45.31133" lon="4.67926">
        <ele>656.40002441406</ele>
        <time>2026-05-12T13:03:37.000Z</time>
      </trkpt>
      <trkpt lat="45.31135" lon="4.67927">
        <ele>656.59997558594</ele>
        <time>2026-05-12T13:03:38.000Z</time>
      </trkpt>
      <trkpt lat="45.31137" lon="4.67929">
        <ele>656.79998779297</ele>
        <time>2026-05-12T13:03:39.000Z</time>
      </trkpt>
      <trkpt lat="45.31139" lon="4.6793">
        <ele>657</ele>
        <time>2026-05-12T13:03:40.000Z</time>
      </trkpt>
      <trkpt lat="45.31141" lon="4.67931">
        <ele>657.20001220703</ele>
        <time>2026-05-12T13:03:41.000Z</time>
      </trkpt>
      <trkpt lat="45.31142" lon="4.67933">
        <ele>657.40002441406</ele>
        <time>2026-05-12T13:03:42.000Z</time>
      </trkpt>
      <trkpt lat="45.31144" lon="4.67934">
        <ele>657.59997558594</ele>
        <time>2026-05-12T13:03:43.000Z</time>
      </trkpt>
      <trkpt lat="45.31145" lon="4.67937">
        <ele>657.79998779297</ele>
        <time>2026-05-12T13:03:44.000Z</time>
      </trkpt>
      <trkpt lat="45.31147" lon="4.67938">
        <ele>657.79998779297</ele>
        <time>2026-05-12T13:03:45.000Z</time>
      </trkpt>
      <trkpt lat="45.31148" lon="4.6794">
        <ele>658</ele>
        <time>2026-05-12T13:03:46.000Z</time>
      </trkpt>
      <trkpt lat="45.3115" lon="4.67941">
        <ele>658.20001220703</ele>
        <time>2026-05-12T13:03:47.000Z</time>
      </trkpt>
      <trkpt lat="45.31151" lon="4.67942">
        <ele>658.20001220703</ele>
        <time>2026-05-12T13:03:48.000Z</time>
      </trkpt>
      <trkpt lat="45.31153" lon="4.67943">
        <ele>658.40002441406</ele>
        <time>2026-05-12T13:03:49.000Z</time>
      </trkpt>
      <trkpt lat="45.31154" lon="4.67943">
        <ele>658.59997558594</ele>
        <time>2026-05-12T13:03:50.000Z</time>
      </trkpt>
      <trkpt lat="45.31155" lon="4.67943">
        <ele>658.59997558594</ele>
        <time>2026-05-12T13:03:51.000Z</time>
      </trkpt>
      <trkpt lat="45.31157" lon="4.67943">
        <ele>658.79998779297</ele>
        <time>2026-05-12T13:03:52.000Z</time>
      </trkpt>
      <trkpt lat="45.31158" lon="4.67943">
        <ele>659</ele>
        <time>2026-05-12T13:03:53.000Z</time>
      </trkpt>
      <trkpt lat="45.31158" lon="4.67943">
        <ele>659</ele>
        <time>2026-05-12T13:03:54.000Z</time>
      </trkpt>
      <trkpt lat="45.31158" lon="4.67943">
        <ele>659</ele>
        <time>2026-05-12T13:03:55.000Z</time>
      </trkpt>
      <trkpt lat="45.31161" lon="4.67937">
        <ele>660</ele>
        <time>2026-05-12T13:07:52.000Z</time>
      </trkpt>
      <trkpt lat="45.31161" lon="4.67934">
        <ele>660</ele>
        <time>2026-05-12T13:07:53.000Z</time>
      </trkpt>
      <trkpt lat="45.31161" lon="4.67931">
        <ele>660.20001220703</ele>
        <time>2026-05-12T13:07:54.000Z</time>
      </trkpt>
      <trkpt lat="45.3116" lon="4.67929">
        <ele>660.40002441406</ele>
        <time>2026-05-12T13:07:55.000Z</time>
      </trkpt>
      <trkpt lat="45.3116" lon="4.67926">
        <ele>660.59997558594</ele>
        <time>2026-05-12T13:07:56.000Z</time>
      </trkpt>
      <trkpt lat="45.31159" lon="4.67923">
        <ele>660.79998779297</ele>
        <time>2026-05-12T13:07:57.000Z</time>
      </trkpt>
      <trkpt lat="45.31159" lon="4.6792">
        <ele>661</ele>
        <time>2026-05-12T13:07:58.000Z</time>
      </trkpt>
      <trkpt lat="45.31159" lon="4.67917">
        <ele>661.40002441406</ele>
        <time>2026-05-12T13:07:59.000Z</time>
      </trkpt>
      <trkpt lat="45.31158" lon="4.67914">
        <ele>661.59997558594</ele>
        <time>2026-05-12T13:08:00.000Z</time>
      </trkpt>
      <trkpt lat="45.31158" lon="4.67911">
        <ele>661.79998779297</ele>
        <time>2026-05-12T13:08:01.000Z</time>
      </trkpt>
      <trkpt lat="45.31158" lon="4.67908">
        <ele>662.20001220703</ele>
        <time>2026-05-12T13:08:02.000Z</time>
      </trkpt>
      <trkpt lat="45.31158" lon="4.67905">
        <ele>662.40002441406</ele>
        <time>2026-05-12T13:08:03.000Z</time>
      </trkpt>
      <trkpt lat="45.31157" lon="4.67902">
        <ele>662.79998779297</ele>
        <time>2026-05-12T13:08:04.000Z</time>
      </trkpt>
      <trkpt lat="45.31156" lon="4.679">
        <ele>663</ele>
        <time>2026-05-12T13:08:05.000Z</time>
      </trkpt>
      <trkpt lat="45.31155" lon="4.67898">
        <ele>663.40002441406</ele>
        <time>2026-05-12T13:08:06.000Z</time>
      </trkpt>
      <trkpt lat="45.31154" lon="4.67895">
        <ele>663.59997558594</ele>
        <time>2026-05-12T13:08:07.000Z</time>
      </trkpt>
      <trkpt lat="45.31154" lon="4.67892">
        <ele>664</ele>
        <time>2026-05-12T13:08:08.000Z</time>
      </trkpt>
      <trkpt lat="45.31154" lon="4.6789">
        <ele>664</ele>
        <time>2026-05-12T13:08:09.000Z</time>
      </trkpt>
      <trkpt lat="45.31153" lon="4.67887">
        <ele>664.20001220703</ele>
        <time>2026-05-12T13:08:10.000Z</time>
      </trkpt>
      <trkpt lat="45.31153" lon="4.67884">
        <ele>664.40002441406</ele>
        <time>2026-05-12T13:08:11.000Z</time>
      </trkpt>
      <trkpt lat="45.31153" lon="4.67881">
        <ele>664.59997558594</ele>
        <time>2026-05-12T13:08:12.000Z</time>
      </trkpt>
      <trkpt lat="45.31153" lon="4.67878">
        <ele>664.79998779297</ele>
        <time>2026-05-12T13:08:13.000Z</time>
      </trkpt>
      <trkpt lat="45.31153" lon="4.67875">
        <ele>665</ele>
        <time>2026-05-12T13:08:14.000Z</time>
      </trkpt>
      <trkpt lat="45.31153" lon="4.67873">
        <ele>665.40002441406</ele>
        <time>2026-05-12T13:08:15.000Z</time>
      </trkpt>
      <trkpt lat="45.31152" lon="4.6787">
        <ele>665.59997558594</ele>
        <time>2026-05-12T13:08:16.000Z</time>
      </trkpt>
      <trkpt lat="45.31152" lon="4.67867">
        <ele>665.79998779297</ele>
        <time>2026-05-12T13:08:17.000Z</time>
      </trkpt>
      <trkpt lat="45.31152" lon="4.67864">
        <ele>666</ele>
        <time>2026-05-12T13:08:18.000Z</time>
      </trkpt>
      <trkpt lat="45.31152" lon="4.67862">
        <ele>666.20001220703</ele>
        <time>2026-05-12T13:08:19.000Z</time>
      </trkpt>
      <trkpt lat="45.31151" lon="4.67859">
        <ele>666.20001220703</ele>
        <time>2026-05-12T13:08:20.000Z</time>
      </trkpt>
      <trkpt lat="45.31151" lon="4.67856">
        <ele>666.40002441406</ele>
        <time>2026-05-12T13:08:21.000Z</time>
      </trkpt>
      <trkpt lat="45.31151" lon="4.67854">
        <ele>666.59997558594</ele>
        <time>2026-05-12T13:08:22.000Z</time>
      </trkpt>
      <trkpt lat="45.31151" lon="4.67851">
        <ele>666.79998779297</ele>
        <time>2026-05-12T13:08:23.000Z</time>
      </trkpt>
      <trkpt lat="45.3115" lon="4.67848">
        <ele>666.79998779297</ele>
        <time>2026-05-12T13:08:24.000Z</time>
      </trkpt>
      <trkpt lat="45.3115" lon="4.67846">
        <ele>667</ele>
        <time>2026-05-12T13:08:25.000Z</time>
      </trkpt>
      <trkpt lat="45.3115" lon="4.67843">
        <ele>667</ele>
        <time>2026-05-12T13:08:26.000Z</time>
      </trkpt>
      <trkpt lat="45.3115" lon="4.6784">
        <ele>667</ele>
        <time>2026-05-12T13:08:27.000Z</time>
      </trkpt>
      <trkpt lat="45.3115" lon="4.67838">
        <ele>667.20001220703</ele>
        <time>2026-05-12T13:08:28.000Z</time>
      </trkpt>
      <trkpt lat="45.31149" lon="4.67835">
        <ele>667.59997558594</ele>
        <time>2026-05-12T13:08:29.000Z</time>
      </trkpt>
      <trkpt lat="45.31148" lon="4.67833">
        <ele>667.79998779297</ele>
        <time>2026-05-12T13:08:30.000Z</time>
      </trkpt>
      <trkpt lat="45.31148" lon="4.67831">
        <ele>668</ele>
        <time>2026-05-12T13:08:31.000Z</time>
      </trkpt>
      <trkpt lat="45.31148" lon="4.67829">
        <ele>668.20001220703</ele>
        <time>2026-05-12T13:08:32.000Z</time>
      </trkpt>
      <trkpt lat="45.31149" lon="4.67827">
        <ele>668.40002441406</ele>
        <time>2026-05-12T13:08:33.000Z</time>
      </trkpt>
      <trkpt lat="45.31149" lon="4.67826">
        <ele>668.40002441406</ele>
        <time>2026-05-12T13:08:34.000Z</time>
      </trkpt>
      <trkpt lat="45.31149" lon="4.67826">
        <ele>668.59997558594</ele>
        <time>2026-05-12T13:08:35.000Z</time>
      </trkpt>
      <trkpt lat="45.31148" lon="4.67809">
        <ele>669.20001220703</ele>
        <time>2026-05-12T13:13:09.000Z</time>
      </trkpt>
      <trkpt lat="45.31148" lon="4.67807">
        <ele>669.20001220703</ele>
        <time>2026-05-12T13:13:10.000Z</time>
      </trkpt>
      <trkpt lat="45.31148" lon="4.67805">
        <ele>669.20001220703</ele>
        <time>2026-05-12T13:13:11.000Z</time>
      </trkpt>
      <trkpt lat="45.31148" lon="4.67802">
        <ele>669.20001220703</ele>
        <time>2026-05-12T13:13:12.000Z</time>
      </trkpt>
      <trkpt lat="45.31148" lon="4.678">
        <ele>669.40002441406</ele>
        <time>2026-05-12T13:13:13.000Z</time>
      </trkpt>
      <trkpt lat="45.31147" lon="4.67798">
        <ele>669.59997558594</ele>
        <time>2026-05-12T13:13:14.000Z</time>
      </trkpt>
      <trkpt lat="45.31147" lon="4.67795">
        <ele>669.79998779297</ele>
        <time>2026-05-12T13:13:15.000Z</time>
      </trkpt>
      <trkpt lat="45.31147" lon="4.67792">
        <ele>670</ele>
        <time>2026-05-12T13:13:16.000Z</time>
      </trkpt>
      <trkpt lat="45.31146" lon="4.6779">
        <ele>670.20001220703</ele>
        <time>2026-05-12T13:13:17.000Z</time>
      </trkpt>
      <trkpt lat="45.31146" lon="4.67787">
        <ele>670.59997558594</ele>
        <time>2026-05-12T13:13:18.000Z</time>
      </trkpt>
      <trkpt lat="45.31146" lon="4.67784">
        <ele>670.79998779297</ele>
        <time>2026-05-12T13:13:19.000Z</time>
      </trkpt>
      <trkpt lat="45.31146" lon="4.67781">
        <ele>671</ele>
        <time>2026-05-12T13:13:20.000Z</time>
      </trkpt>
      <trkpt lat="45.31146" lon="4.67778">
        <ele>671.20001220703</ele>
        <time>2026-05-12T13:13:21.000Z</time>
      </trkpt>
      <trkpt lat="45.31145" lon="4.67776">
        <ele>671.40002441406</ele>
        <time>2026-05-12T13:13:22.000Z</time>
      </trkpt>
      <trkpt lat="45.31145" lon="4.67773">
        <ele>671.59997558594</ele>
        <time>2026-05-12T13:13:23.000Z</time>
      </trkpt>
      <trkpt lat="45.31145" lon="4.6777">
        <ele>671.79998779297</ele>
        <time>2026-05-12T13:13:24.000Z</time>
      </trkpt>
      <trkpt lat="45.31145" lon="4.67767">
        <ele>671.79998779297</ele>
        <time>2026-05-12T13:13:25.000Z</time>
      </trkpt>
      <trkpt lat="45.31144" lon="4.67764">
        <ele>672</ele>
        <time>2026-05-12T13:13:26.000Z</time>
      </trkpt>
      <trkpt lat="45.31144" lon="4.67761">
        <ele>672.20001220703</ele>
        <time>2026-05-12T13:13:27.000Z</time>
      </trkpt>
      <trkpt lat="45.31144" lon="4.67759">
        <ele>672.20001220703</ele>
        <time>2026-05-12T13:13:28.000Z</time>
      </trkpt>
      <trkpt lat="45.31144" lon="4.67756">
        <ele>672.40002441406</ele>
        <time>2026-05-12T13:13:29.000Z</time>
      </trkpt>
      <trkpt lat="45.31144" lon="4.67753">
        <ele>672.59997558594</ele>
        <time>2026-05-12T13:13:30.000Z</time>
      </trkpt>
      <trkpt lat="45.31144" lon="4.67751">
        <ele>672.79998779297</ele>
        <time>2026-05-12T13:13:31.000Z</time>
      </trkpt>
      <trkpt lat="45.31144" lon="4.67748">
        <ele>673</ele>
        <time>2026-05-12T13:13:32.000Z</time>
      </trkpt>
      <trkpt lat="45.31145" lon="4.67746">
        <ele>673.20001220703</ele>
        <time>2026-05-12T13:13:33.000Z</time>
      </trkpt>
      <trkpt lat="45.31145" lon="4.67743">
        <ele>673.40002441406</ele>
        <time>2026-05-12T13:13:34.000Z</time>
      </trkpt>
      <trkpt lat="45.31145" lon="4.6774">
        <ele>673.59997558594</ele>
        <time>2026-05-12T13:13:35.000Z</time>
      </trkpt>
      <trkpt lat="45.31145" lon="4.67738">
        <ele>673.79998779297</ele>
        <time>2026-05-12T13:13:36.000Z</time>
      </trkpt>
      <trkpt lat="45.31145" lon="4.67735">
        <ele>674</ele>
        <time>2026-05-12T13:13:37.000Z</time>
      </trkpt>
      <trkpt lat="45.31145" lon="4.67733">
        <ele>674.20001220703</ele>
        <time>2026-05-12T13:13:38.000Z</time>
      </trkpt>
      <trkpt lat="45.31145" lon="4.6773">
        <ele>674.40002441406</ele>
        <time>2026-05-12T13:13:39.000Z</time>
      </trkpt>
      <trkpt lat="45.31145" lon="4.67727">
        <ele>674.40002441406</ele>
        <time>2026-05-12T13:13:40.000Z</time>
      </trkpt>
      <trkpt lat="45.31145" lon="4.67725">
        <ele>674.59997558594</ele>
        <time>2026-05-12T13:13:41.000Z</time>
      </trkpt>
      <trkpt lat="45.31146" lon="4.67723">
        <ele>674.79998779297</ele>
        <time>2026-05-12T13:13:42.000Z</time>
      </trkpt>
      <trkpt lat="45.31146" lon="4.6772">
        <ele>675</ele>
        <time>2026-05-12T13:13:43.000Z</time>
      </trkpt>
      <trkpt lat="45.31147" lon="4.67718">
        <ele>675.20001220703</ele>
        <time>2026-05-12T13:13:44.000Z</time>
      </trkpt>
      <trkpt lat="45.31147" lon="4.67716">
        <ele>675.20001220703</ele>
        <time>2026-05-12T13:13:45.000Z</time>
      </trkpt>
      <trkpt lat="45.31147" lon="4.67714">
        <ele>675.40002441406</ele>
        <time>2026-05-12T13:13:46.000Z</time>
      </trkpt>
      <trkpt lat="45.31147" lon="4.67712">
        <ele>675.59997558594</ele>
        <time>2026-05-12T13:13:47.000Z</time>
      </trkpt>
      <trkpt lat="45.31147" lon="4.67709">
        <ele>675.59997558594</ele>
        <time>2026-05-12T13:13:48.000Z</time>
      </trkpt>
      <trkpt lat="45.31147" lon="4.67707">
        <ele>675.79998779297</ele>
        <time>2026-05-12T13:13:49.000Z</time>
      </trkpt>
      <trkpt lat="45.31148" lon="4.67704">
        <ele>676</ele>
        <time>2026-05-12T13:13:50.000Z</time>
      </trkpt>
      <trkpt lat="45.31148" lon="4.67702">
        <ele>676</ele>
        <time>2026-05-12T13:13:51.000Z</time>
      </trkpt>
      <trkpt lat="45.31148" lon="4.67699">
        <ele>676.20001220703</ele>
        <time>2026-05-12T13:13:52.000Z</time>
      </trkpt>
      <trkpt lat="45.31149" lon="4.67697">
        <ele>676.20001220703</ele>
        <time>2026-05-12T13:13:53.000Z</time>
      </trkpt>
      <trkpt lat="45.31149" lon="4.67694">
        <ele>676.40002441406</ele>
        <time>2026-05-12T13:13:54.000Z</time>
      </trkpt>
      <trkpt lat="45.31149" lon="4.67692">
        <ele>676.59997558594</ele>
        <time>2026-05-12T13:13:55.000Z</time>
      </trkpt>
      <trkpt lat="45.31149" lon="4.67689">
        <ele>676.79998779297</ele>
        <time>2026-05-12T13:13:56.000Z</time>
      </trkpt>
      <trkpt lat="45.31149" lon="4.67686">
        <ele>676.79998779297</ele>
        <time>2026-05-12T13:13:57.000Z</time>
      </trkpt>
      <trkpt lat="45.31149" lon="4.67684">
        <ele>676.79998779297</ele>
        <time>2026-05-12T13:13:58.000Z</time>
      </trkpt>
      <trkpt lat="45.3115" lon="4.67681">
        <ele>677</ele>
        <time>2026-05-12T13:13:59.000Z</time>
      </trkpt>
      <trkpt lat="45.3115" lon="4.67679">
        <ele>677</ele>
        <time>2026-05-12T13:14:00.000Z</time>
      </trkpt>
      <trkpt lat="45.31151" lon="4.67676">
        <ele>677.20001220703</ele>
        <time>2026-05-12T13:14:01.000Z</time>
      </trkpt>
      <trkpt lat="45.31151" lon="4.67673">
        <ele>677.20001220703</ele>
        <time>2026-05-12T13:14:02.000Z</time>
      </trkpt>
      <trkpt lat="45.31151" lon="4.67671">
        <ele>677.40002441406</ele>
        <time>2026-05-12T13:14:03.000Z</time>
      </trkpt>
      <trkpt lat="45.31152" lon="4.67669">
        <ele>677.40002441406</ele>
        <time>2026-05-12T13:14:04.000Z</time>
      </trkpt>
      <trkpt lat="45.31152" lon="4.67666">
        <ele>677.59997558594</ele>
        <time>2026-05-12T13:14:05.000Z</time>
      </trkpt>
      <trkpt lat="45.31153" lon="4.67664">
        <ele>677.59997558594</ele>
        <time>2026-05-12T13:14:06.000Z</time>
      </trkpt>
      <trkpt lat="45.31154" lon="4.67661">
        <ele>677.79998779297</ele>
        <time>2026-05-12T13:14:07.000Z</time>
      </trkpt>
      <trkpt lat="45.31155" lon="4.67659">
        <ele>677.79998779297</ele>
        <time>2026-05-12T13:14:08.000Z</time>
      </trkpt>
      <trkpt lat="45.31156" lon="4.67657">
        <ele>678</ele>
        <time>2026-05-12T13:14:09.000Z</time>
      </trkpt>
      <trkpt lat="45.31157" lon="4.67654">
        <ele>678.20001220703</ele>
        <time>2026-05-12T13:14:10.000Z</time>
      </trkpt>
      <trkpt lat="45.31157" lon="4.67652">
        <ele>678.20001220703</ele>
        <time>2026-05-12T13:14:11.000Z</time>
      </trkpt>
      <trkpt lat="45.31158" lon="4.6765">
        <ele>678.40002441406</ele>
        <time>2026-05-12T13:14:12.000Z</time>
      </trkpt>
      <trkpt lat="45.31159" lon="4.67648">
        <ele>678.59997558594</ele>
        <time>2026-05-12T13:14:13.000Z</time>
      </trkpt>
      <trkpt lat="45.31159" lon="4.67645">
        <ele>678.59997558594</ele>
        <time>2026-05-12T13:14:14.000Z</time>
      </trkpt>
      <trkpt lat="45.3116" lon="4.67643">
        <ele>678.79998779297</ele>
        <time>2026-05-12T13:14:15.000Z</time>
      </trkpt>
      <trkpt lat="45.31161" lon="4.6764">
        <ele>679</ele>
        <time>2026-05-12T13:14:16.000Z</time>
      </trkpt>
      <trkpt lat="45.31162" lon="4.67638">
        <ele>679.20001220703</ele>
        <time>2026-05-12T13:14:17.000Z</time>
      </trkpt>
      <trkpt lat="45.31162" lon="4.67636">
        <ele>679.40002441406</ele>
        <time>2026-05-12T13:14:18.000Z</time>
      </trkpt>
      <trkpt lat="45.31163" lon="4.67633">
        <ele>679.40002441406</ele>
        <time>2026-05-12T13:14:19.000Z</time>
      </trkpt>
      <trkpt lat="45.31164" lon="4.67631">
        <ele>679.59997558594</ele>
        <time>2026-05-12T13:14:20.000Z</time>
      </trkpt>
      <trkpt lat="45.31165" lon="4.67628">
        <ele>679.79998779297</ele>
        <time>2026-05-12T13:14:21.000Z</time>
      </trkpt>
      <trkpt lat="45.31166" lon="4.67626">
        <ele>679.79998779297</ele>
        <time>2026-05-12T13:14:22.000Z</time>
      </trkpt>
      <trkpt lat="45.31167" lon="4.67623">
        <ele>680</ele>
        <time>2026-05-12T13:14:23.000Z</time>
      </trkpt>
      <trkpt lat="45.31168" lon="4.67622">
        <ele>680</ele>
        <time>2026-05-12T13:14:24.000Z</time>
      </trkpt>
      <trkpt lat="45.31169" lon="4.67619">
        <ele>680</ele>
        <time>2026-05-12T13:14:25.000Z</time>
      </trkpt>
      <trkpt lat="45.31169" lon="4.67617">
        <ele>680.20001220703</ele>
        <time>2026-05-12T13:14:26.000Z</time>
      </trkpt>
      <trkpt lat="45.3117" lon="4.67613">
        <ele>680.20001220703</ele>
        <time>2026-05-12T13:14:27.000Z</time>
      </trkpt>
      <trkpt lat="45.3117" lon="4.67611">
        <ele>680.40002441406</ele>
        <time>2026-05-12T13:14:28.000Z</time>
      </trkpt>
      <trkpt lat="45.31171" lon="4.67609">
        <ele>680.40002441406</ele>
        <time>2026-05-12T13:14:29.000Z</time>
      </trkpt>
      <trkpt lat="45.31172" lon="4.67607">
        <ele>680.59997558594</ele>
        <time>2026-05-12T13:14:30.000Z</time>
      </trkpt>
      <trkpt lat="45.31173" lon="4.67604">
        <ele>681</ele>
        <time>2026-05-12T13:14:31.000Z</time>
      </trkpt>
      <trkpt lat="45.31174" lon="4.67602">
        <ele>681.20001220703</ele>
        <time>2026-05-12T13:14:32.000Z</time>
      </trkpt>
      <trkpt lat="45.31175" lon="4.676">
        <ele>681.40002441406</ele>
        <time>2026-05-12T13:14:33.000Z</time>
      </trkpt>
      <trkpt lat="45.31175" lon="4.67598">
        <ele>681.59997558594</ele>
        <time>2026-05-12T13:14:34.000Z</time>
      </trkpt>
      <trkpt lat="45.31176" lon="4.67595">
        <ele>681.79998779297</ele>
        <time>2026-05-12T13:14:35.000Z</time>
      </trkpt>
      <trkpt lat="45.31177" lon="4.67593">
        <ele>682</ele>
        <time>2026-05-12T13:14:36.000Z</time>
      </trkpt>
      <trkpt lat="45.31177" lon="4.67591">
        <ele>682.20001220703</ele>
        <time>2026-05-12T13:14:37.000Z</time>
      </trkpt>
      <trkpt lat="45.31178" lon="4.67589">
        <ele>682.40002441406</ele>
        <time>2026-05-12T13:14:38.000Z</time>
      </trkpt>
      <trkpt lat="45.31179" lon="4.67587">
        <ele>682.59997558594</ele>
        <time>2026-05-12T13:14:39.000Z</time>
      </trkpt>
      <trkpt lat="45.3118" lon="4.67585">
        <ele>682.79998779297</ele>
        <time>2026-05-12T13:14:40.000Z</time>
      </trkpt>
      <trkpt lat="45.31181" lon="4.67582">
        <ele>683</ele>
        <time>2026-05-12T13:14:41.000Z</time>
      </trkpt>
      <trkpt lat="45.31182" lon="4.6758">
        <ele>683.40002441406</ele>
        <time>2026-05-12T13:14:42.000Z</time>
      </trkpt>
      <trkpt lat="45.31183" lon="4.67578">
        <ele>683.40002441406</ele>
        <time>2026-05-12T13:14:43.000Z</time>
      </trkpt>
      <trkpt lat="45.31185" lon="4.67578">
        <ele>683.59997558594</ele>
        <time>2026-05-12T13:14:44.000Z</time>
      </trkpt>
      <trkpt lat="45.31186" lon="4.6758">
        <ele>683.79998779297</ele>
        <time>2026-05-12T13:14:45.000Z</time>
      </trkpt>
      <trkpt lat="45.31187" lon="4.67582">
        <ele>684</ele>
        <time>2026-05-12T13:14:46.000Z</time>
      </trkpt>
      <trkpt lat="45.31188" lon="4.67585">
        <ele>684.20001220703</ele>
        <time>2026-05-12T13:14:47.000Z</time>
      </trkpt>
      <trkpt lat="45.31188" lon="4.67587">
        <ele>684.40002441406</ele>
        <time>2026-05-12T13:14:48.000Z</time>
      </trkpt>
      <trkpt lat="45.31188" lon="4.6759">
        <ele>684.59997558594</ele>
        <time>2026-05-12T13:14:49.000Z</time>
      </trkpt>
      <trkpt lat="45.31187" lon="4.67592">
        <ele>684.79998779297</ele>
        <time>2026-05-12T13:14:50.000Z</time>
      </trkpt>
      <trkpt lat="45.31188" lon="4.67595">
        <ele>685</ele>
        <time>2026-05-12T13:14:51.000Z</time>
      </trkpt>
      <trkpt lat="45.31188" lon="4.67598">
        <ele>685.40002441406</ele>
        <time>2026-05-12T13:14:52.000Z</time>
      </trkpt>
      <trkpt lat="45.31188" lon="4.67601">
        <ele>685.59997558594</ele>
        <time>2026-05-12T13:14:53.000Z</time>
      </trkpt>
      <trkpt lat="45.31189" lon="4.67603">
        <ele>685.79998779297</ele>
        <time>2026-05-12T13:14:54.000Z</time>
      </trkpt>
      <trkpt lat="45.3119" lon="4.67606">
        <ele>686.20001220703</ele>
        <time>2026-05-12T13:14:55.000Z</time>
      </trkpt>
      <trkpt lat="45.31191" lon="4.67609">
        <ele>686.40002441406</ele>
        <time>2026-05-12T13:14:56.000Z</time>
      </trkpt>
      <trkpt lat="45.31192" lon="4.67611">
        <ele>686.59997558594</ele>
        <time>2026-05-12T13:14:57.000Z</time>
      </trkpt>
      <trkpt lat="45.31193" lon="4.67613">
        <ele>687</ele>
        <time>2026-05-12T13:14:58.000Z</time>
      </trkpt>
      <trkpt lat="45.31194" lon="4.67616">
        <ele>687.40002441406</ele>
        <time>2026-05-12T13:14:59.000Z</time>
      </trkpt>
      <trkpt lat="45.31195" lon="4.67618">
        <ele>687.79998779297</ele>
        <time>2026-05-12T13:15:00.000Z</time>
      </trkpt>
      <trkpt lat="45.31195" lon="4.6762">
        <ele>688.40002441406</ele>
        <time>2026-05-12T13:15:01.000Z</time>
      </trkpt>
      <trkpt lat="45.31196" lon="4.67622">
        <ele>688.79998779297</ele>
        <time>2026-05-12T13:15:02.000Z</time>
      </trkpt>
      <trkpt lat="45.31197" lon="4.67625">
        <ele>689.20001220703</ele>
        <time>2026-05-12T13:15:03.000Z</time>
      </trkpt>
      <trkpt lat="45.31197" lon="4.67627">
        <ele>689.79998779297</ele>
        <time>2026-05-12T13:15:04.000Z</time>
      </trkpt>
      <trkpt lat="45.31198" lon="4.67629">
        <ele>690.20001220703</ele>
        <time>2026-05-12T13:15:05.000Z</time>
      </trkpt>
      <trkpt lat="45.31199" lon="4.67632">
        <ele>690.59997558594</ele>
        <time>2026-05-12T13:15:06.000Z</time>
      </trkpt>
      <trkpt lat="45.312" lon="4.67634">
        <ele>691</ele>
        <time>2026-05-12T13:15:07.000Z</time>
      </trkpt>
      <trkpt lat="45.31201" lon="4.67636">
        <ele>691.20001220703</ele>
        <time>2026-05-12T13:15:08.000Z</time>
      </trkpt>
      <trkpt lat="45.31202" lon="4.67639">
        <ele>691.40002441406</ele>
        <time>2026-05-12T13:15:09.000Z</time>
      </trkpt>
      <trkpt lat="45.31203" lon="4.67641">
        <ele>691.59997558594</ele>
        <time>2026-05-12T13:15:10.000Z</time>
      </trkpt>
      <trkpt lat="45.31204" lon="4.67643">
        <ele>691.79998779297</ele>
        <time>2026-05-12T13:15:11.000Z</time>
      </trkpt>
      <trkpt lat="45.31205" lon="4.67646">
        <ele>692</ele>
        <time>2026-05-12T13:15:12.000Z</time>
      </trkpt>
      <trkpt lat="45.31206" lon="4.67648">
        <ele>692</ele>
        <time>2026-05-12T13:15:13.000Z</time>
      </trkpt>
      <trkpt lat="45.31207" lon="4.6765">
        <ele>692</ele>
        <time>2026-05-12T13:15:14.000Z</time>
      </trkpt>
      <trkpt lat="45.31208" lon="4.67652">
        <ele>692</ele>
        <time>2026-05-12T13:15:15.000Z</time>
      </trkpt>
      <trkpt lat="45.31208" lon="4.67654">
        <ele>692.20001220703</ele>
        <time>2026-05-12T13:15:16.000Z</time>
      </trkpt>
      <trkpt lat="45.31209" lon="4.67657">
        <ele>692.20001220703</ele>
        <time>2026-05-12T13:15:17.000Z</time>
      </trkpt>
      <trkpt lat="45.3121" lon="4.67659">
        <ele>692.40002441406</ele>
        <time>2026-05-12T13:15:18.000Z</time>
      </trkpt>
      <trkpt lat="45.31211" lon="4.67662">
        <ele>692.40002441406</ele>
        <time>2026-05-12T13:15:19.000Z</time>
      </trkpt>
      <trkpt lat="45.31212" lon="4.67664">
        <ele>692.59997558594</ele>
        <time>2026-05-12T13:15:20.000Z</time>
      </trkpt>
      <trkpt lat="45.31213" lon="4.67666">
        <ele>692.79998779297</ele>
        <time>2026-05-12T13:15:21.000Z</time>
      </trkpt>
      <trkpt lat="45.31214" lon="4.67669">
        <ele>693</ele>
        <time>2026-05-12T13:15:22.000Z</time>
      </trkpt>
      <trkpt lat="45.31215" lon="4.67671">
        <ele>693</ele>
        <time>2026-05-12T13:15:23.000Z</time>
      </trkpt>
      <trkpt lat="45.31216" lon="4.67673">
        <ele>693.20001220703</ele>
        <time>2026-05-12T13:15:24.000Z</time>
      </trkpt>
      <trkpt lat="45.31217" lon="4.67676">
        <ele>693.20001220703</ele>
        <time>2026-05-12T13:15:25.000Z</time>
      </trkpt>
      <trkpt lat="45.31218" lon="4.67677">
        <ele>693.20001220703</ele>
        <time>2026-05-12T13:15:26.000Z</time>
      </trkpt>
      <trkpt lat="45.31219" lon="4.67679">
        <ele>693.40002441406</ele>
        <time>2026-05-12T13:15:27.000Z</time>
      </trkpt>
      <trkpt lat="45.3122" lon="4.67682">
        <ele>693.59997558594</ele>
        <time>2026-05-12T13:15:28.000Z</time>
      </trkpt>
      <trkpt lat="45.31221" lon="4.67684">
        <ele>693.59997558594</ele>
        <time>2026-05-12T13:15:29.000Z</time>
      </trkpt>
      <trkpt lat="45.31223" lon="4.67686">
        <ele>693.79998779297</ele>
        <time>2026-05-12T13:15:30.000Z</time>
      </trkpt>
      <trkpt lat="45.31224" lon="4.67688">
        <ele>694</ele>
        <time>2026-05-12T13:15:31.000Z</time>
      </trkpt>
      <trkpt lat="45.31225" lon="4.6769">
        <ele>694.20001220703</ele>
        <time>2026-05-12T13:15:32.000Z</time>
      </trkpt>
      <trkpt lat="45.31226" lon="4.67692">
        <ele>694.20001220703</ele>
        <time>2026-05-12T13:15:33.000Z</time>
      </trkpt>
      <trkpt lat="45.31227" lon="4.67694">
        <ele>694.40002441406</ele>
        <time>2026-05-12T13:15:34.000Z</time>
      </trkpt>
      <trkpt lat="45.31228" lon="4.67696">
        <ele>694.59997558594</ele>
        <time>2026-05-12T13:15:35.000Z</time>
      </trkpt>
      <trkpt lat="45.31229" lon="4.67698">
        <ele>694.59997558594</ele>
        <time>2026-05-12T13:15:36.000Z</time>
      </trkpt>
      <trkpt lat="45.31231" lon="4.677">
        <ele>694.79998779297</ele>
        <time>2026-05-12T13:15:37.000Z</time>
      </trkpt>
      <trkpt lat="45.31232" lon="4.67702">
        <ele>695.20001220703</ele>
        <time>2026-05-12T13:15:38.000Z</time>
      </trkpt>
      <trkpt lat="45.31233" lon="4.67704">
        <ele>695.40002441406</ele>
        <time>2026-05-12T13:15:39.000Z</time>
      </trkpt>
      <trkpt lat="45.31235" lon="4.67705">
        <ele>695.59997558594</ele>
        <time>2026-05-12T13:15:40.000Z</time>
      </trkpt>
      <trkpt lat="45.31236" lon="4.67707">
        <ele>695.79998779297</ele>
        <time>2026-05-12T13:15:41.000Z</time>
      </trkpt>
      <trkpt lat="45.31237" lon="4.67709">
        <ele>696</ele>
        <time>2026-05-12T13:15:42.000Z</time>
      </trkpt>
      <trkpt lat="45.31238" lon="4.67711">
        <ele>696.20001220703</ele>
        <time>2026-05-12T13:15:43.000Z</time>
      </trkpt>
      <trkpt lat="45.3124" lon="4.67713">
        <ele>696.20001220703</ele>
        <time>2026-05-12T13:15:44.000Z</time>
      </trkpt>
      <trkpt lat="45.31241" lon="4.67715">
        <ele>696.40002441406</ele>
        <time>2026-05-12T13:15:45.000Z</time>
      </trkpt>
      <trkpt lat="45.31242" lon="4.67717">
        <ele>696.40002441406</ele>
        <time>2026-05-12T13:15:46.000Z</time>
      </trkpt>
      <trkpt lat="45.31244" lon="4.67719">
        <ele>696.59997558594</ele>
        <time>2026-05-12T13:15:47.000Z</time>
      </trkpt>
      <trkpt lat="45.31245" lon="4.6772">
        <ele>696.79998779297</ele>
        <time>2026-05-12T13:15:48.000Z</time>
      </trkpt>
      <trkpt lat="45.31246" lon="4.67721">
        <ele>697</ele>
        <time>2026-05-12T13:15:49.000Z</time>
      </trkpt>
      <trkpt lat="45.31248" lon="4.67723">
        <ele>697.20001220703</ele>
        <time>2026-05-12T13:15:50.000Z</time>
      </trkpt>
      <trkpt lat="45.31249" lon="4.67724">
        <ele>697.40002441406</ele>
        <time>2026-05-12T13:15:51.000Z</time>
      </trkpt>
      <trkpt lat="45.3125" lon="4.67726">
        <ele>697.59997558594</ele>
        <time>2026-05-12T13:15:52.000Z</time>
      </trkpt>
      <trkpt lat="45.31251" lon="4.67728">
        <ele>697.59997558594</ele>
        <time>2026-05-12T13:15:53.000Z</time>
      </trkpt>
      <trkpt lat="45.31252" lon="4.6773">
        <ele>697.79998779297</ele>
        <time>2026-05-12T13:15:54.000Z</time>
      </trkpt>
      <trkpt lat="45.31253" lon="4.67732">
        <ele>698</ele>
        <time>2026-05-12T13:15:55.000Z</time>
      </trkpt>
      <trkpt lat="45.31255" lon="4.67733">
        <ele>698</ele>
        <time>2026-05-12T13:15:56.000Z</time>
      </trkpt>
      <trkpt lat="45.31256" lon="4.67735">
        <ele>698.20001220703</ele>
        <time>2026-05-12T13:15:57.000Z</time>
      </trkpt>
      <trkpt lat="45.31257" lon="4.67737">
        <ele>698.40002441406</ele>
        <time>2026-05-12T13:15:58.000Z</time>
      </trkpt>
      <trkpt lat="45.31258" lon="4.67739">
        <ele>698.59997558594</ele>
        <time>2026-05-12T13:15:59.000Z</time>
      </trkpt>
      <trkpt lat="45.3126" lon="4.67741">
        <ele>698.79998779297</ele>
        <time>2026-05-12T13:16:00.000Z</time>
      </trkpt>
      <trkpt lat="45.31261" lon="4.67743">
        <ele>698.79998779297</ele>
        <time>2026-05-12T13:16:01.000Z</time>
      </trkpt>
      <trkpt lat="45.31262" lon="4.67745">
        <ele>699</ele>
        <time>2026-05-12T13:16:02.000Z</time>
      </trkpt>
      <trkpt lat="45.31263" lon="4.67747">
        <ele>699</ele>
        <time>2026-05-12T13:16:03.000Z</time>
      </trkpt>
      <trkpt lat="45.31264" lon="4.67749">
        <ele>699.20001220703</ele>
        <time>2026-05-12T13:16:04.000Z</time>
      </trkpt>
      <trkpt lat="45.31265" lon="4.67751">
        <ele>699.20001220703</ele>
        <time>2026-05-12T13:16:05.000Z</time>
      </trkpt>
      <trkpt lat="45.31266" lon="4.67753">
        <ele>699.20001220703</ele>
        <time>2026-05-12T13:16:06.000Z</time>
      </trkpt>
      <trkpt lat="45.31267" lon="4.67754">
        <ele>699.40002441406</ele>
        <time>2026-05-12T13:16:07.000Z</time>
      </trkpt>
      <trkpt lat="45.31269" lon="4.67756">
        <ele>699.40002441406</ele>
        <time>2026-05-12T13:16:08.000Z</time>
      </trkpt>
      <trkpt lat="45.3127" lon="4.67757">
        <ele>699.40002441406</ele>
        <time>2026-05-12T13:16:09.000Z</time>
      </trkpt>
      <trkpt lat="45.31271" lon="4.67759">
        <ele>699.40002441406</ele>
        <time>2026-05-12T13:16:10.000Z</time>
      </trkpt>
      <trkpt lat="45.31272" lon="4.67761">
        <ele>699.40002441406</ele>
        <time>2026-05-12T13:16:11.000Z</time>
      </trkpt>
      <trkpt lat="45.31274" lon="4.67763">
        <ele>699.40002441406</ele>
        <time>2026-05-12T13:16:12.000Z</time>
      </trkpt>
      <trkpt lat="45.31275" lon="4.67765">
        <ele>699.59997558594</ele>
        <time>2026-05-12T13:16:13.000Z</time>
      </trkpt>
      <trkpt lat="45.31276" lon="4.67766">
        <ele>699.79998779297</ele>
        <time>2026-05-12T13:16:14.000Z</time>
      </trkpt>
      <trkpt lat="45.31278" lon="4.67768">
        <ele>700</ele>
        <time>2026-05-12T13:16:15.000Z</time>
      </trkpt>
      <trkpt lat="45.31279" lon="4.67769">
        <ele>700.20001220703</ele>
        <time>2026-05-12T13:16:16.000Z</time>
      </trkpt>
      <trkpt lat="45.31281" lon="4.67771">
        <ele>700.20001220703</ele>
        <time>2026-05-12T13:16:17.000Z</time>
      </trkpt>
      <trkpt lat="45.31282" lon="4.67772">
        <ele>700.40002441406</ele>
        <time>2026-05-12T13:16:18.000Z</time>
      </trkpt>
      <trkpt lat="45.31283" lon="4.67774">
        <ele>700.40002441406</ele>
        <time>2026-05-12T13:16:19.000Z</time>
      </trkpt>
      <trkpt lat="45.31285" lon="4.67775">
        <ele>700.59997558594</ele>
        <time>2026-05-12T13:16:20.000Z</time>
      </trkpt>
      <trkpt lat="45.31286" lon="4.67776">
        <ele>700.59997558594</ele>
        <time>2026-05-12T13:16:21.000Z</time>
      </trkpt>
      <trkpt lat="45.31288" lon="4.67777">
        <ele>700.79998779297</ele>
        <time>2026-05-12T13:16:22.000Z</time>
      </trkpt>
      <trkpt lat="45.31289" lon="4.67779">
        <ele>701</ele>
        <time>2026-05-12T13:16:23.000Z</time>
      </trkpt>
      <trkpt lat="45.31291" lon="4.6778">
        <ele>701.20001220703</ele>
        <time>2026-05-12T13:16:24.000Z</time>
      </trkpt>
      <trkpt lat="45.31293" lon="4.67781">
        <ele>701.20001220703</ele>
        <time>2026-05-12T13:16:25.000Z</time>
      </trkpt>
      <trkpt lat="45.31295" lon="4.67782">
        <ele>701.40002441406</ele>
        <time>2026-05-12T13:16:26.000Z</time>
      </trkpt>
      <trkpt lat="45.31296" lon="4.67783">
        <ele>701.59997558594</ele>
        <time>2026-05-12T13:16:27.000Z</time>
      </trkpt>
      <trkpt lat="45.31298" lon="4.67784">
        <ele>701.59997558594</ele>
        <time>2026-05-12T13:16:28.000Z</time>
      </trkpt>
      <trkpt lat="45.313" lon="4.67785">
        <ele>701.79998779297</ele>
        <time>2026-05-12T13:16:29.000Z</time>
      </trkpt>
      <trkpt lat="45.31301" lon="4.67785">
        <ele>702</ele>
        <time>2026-05-12T13:16:30.000Z</time>
      </trkpt>
      <trkpt lat="45.31303" lon="4.67786">
        <ele>702</ele>
        <time>2026-05-12T13:16:31.000Z</time>
      </trkpt>
      <trkpt lat="45.31305" lon="4.67787">
        <ele>702.20001220703</ele>
        <time>2026-05-12T13:16:32.000Z</time>
      </trkpt>
      <trkpt lat="45.31306" lon="4.67788">
        <ele>702.20001220703</ele>
        <time>2026-05-12T13:16:33.000Z</time>
      </trkpt>
      <trkpt lat="45.31308" lon="4.67789">
        <ele>702.20001220703</ele>
        <time>2026-05-12T13:16:34.000Z</time>
      </trkpt>
      <trkpt lat="45.3131" lon="4.6779">
        <ele>702.40002441406</ele>
        <time>2026-05-12T13:16:35.000Z</time>
      </trkpt>
      <trkpt lat="45.31312" lon="4.67791">
        <ele>702.59997558594</ele>
        <time>2026-05-12T13:16:36.000Z</time>
      </trkpt>
      <trkpt lat="45.31313" lon="4.67792">
        <ele>702.59997558594</ele>
        <time>2026-05-12T13:16:37.000Z</time>
      </trkpt>
      <trkpt lat="45.31315" lon="4.67793">
        <ele>702.79998779297</ele>
        <time>2026-05-12T13:16:38.000Z</time>
      </trkpt>
      <trkpt lat="45.31317" lon="4.67794">
        <ele>703</ele>
        <time>2026-05-12T13:16:39.000Z</time>
      </trkpt>
      <trkpt lat="45.31319" lon="4.67794">
        <ele>703.20001220703</ele>
        <time>2026-05-12T13:16:40.000Z</time>
      </trkpt>
      <trkpt lat="45.3132" lon="4.67795">
        <ele>703.59997558594</ele>
        <time>2026-05-12T13:16:41.000Z</time>
      </trkpt>
      <trkpt lat="45.31322" lon="4.67796">
        <ele>703.79998779297</ele>
        <time>2026-05-12T13:16:42.000Z</time>
      </trkpt>
      <trkpt lat="45.31324" lon="4.67797">
        <ele>704</ele>
        <time>2026-05-12T13:16:43.000Z</time>
      </trkpt>
      <trkpt lat="45.31325" lon="4.67797">
        <ele>704.20001220703</ele>
        <time>2026-05-12T13:16:44.000Z</time>
      </trkpt>
      <trkpt lat="45.31327" lon="4.67798">
        <ele>704.59997558594</ele>
        <time>2026-05-12T13:16:45.000Z</time>
      </trkpt>
      <trkpt lat="45.31328" lon="4.67798">
        <ele>704.79998779297</ele>
        <time>2026-05-12T13:16:46.000Z</time>
      </trkpt>
      <trkpt lat="45.31329" lon="4.67799">
        <ele>705</ele>
        <time>2026-05-12T13:16:47.000Z</time>
      </trkpt>
      <trkpt lat="45.31331" lon="4.678">
        <ele>705.40002441406</ele>
        <time>2026-05-12T13:16:48.000Z</time>
      </trkpt>
      <trkpt lat="45.31332" lon="4.67801">
        <ele>705.59997558594</ele>
        <time>2026-05-12T13:16:49.000Z</time>
      </trkpt>
      <trkpt lat="45.31333" lon="4.67802">
        <ele>705.79998779297</ele>
        <time>2026-05-12T13:16:50.000Z</time>
      </trkpt>
      <trkpt lat="45.31335" lon="4.67802">
        <ele>706.20001220703</ele>
        <time>2026-05-12T13:16:51.000Z</time>
      </trkpt>
      <trkpt lat="45.31336" lon="4.67803">
        <ele>706.20001220703</ele>
        <time>2026-05-12T13:16:52.000Z</time>
      </trkpt>
      <trkpt lat="45.31338" lon="4.67803">
        <ele>706.40002441406</ele>
        <time>2026-05-12T13:16:53.000Z</time>
      </trkpt>
      <trkpt lat="45.31339" lon="4.67804">
        <ele>706.40002441406</ele>
        <time>2026-05-12T13:16:54.000Z</time>
      </trkpt>
      <trkpt lat="45.31341" lon="4.67805">
        <ele>706.40002441406</ele>
        <time>2026-05-12T13:16:55.000Z</time>
      </trkpt>
      <trkpt lat="45.31343" lon="4.67805">
        <ele>706.59997558594</ele>
        <time>2026-05-12T13:16:56.000Z</time>
      </trkpt>
      <trkpt lat="45.31344" lon="4.67806">
        <ele>706.59997558594</ele>
        <time>2026-05-12T13:16:57.000Z</time>
      </trkpt>
      <trkpt lat="45.31346" lon="4.67807">
        <ele>706.79998779297</ele>
        <time>2026-05-12T13:16:58.000Z</time>
      </trkpt>
      <trkpt lat="45.31348" lon="4.67808">
        <ele>706.79998779297</ele>
        <time>2026-05-12T13:16:59.000Z</time>
      </trkpt>
      <trkpt lat="45.3135" lon="4.67808">
        <ele>707.20001220703</ele>
        <time>2026-05-12T13:17:00.000Z</time>
      </trkpt>
      <trkpt lat="45.31352" lon="4.67809">
        <ele>707.40002441406</ele>
        <time>2026-05-12T13:17:01.000Z</time>
      </trkpt>
      <trkpt lat="45.31354" lon="4.6781">
        <ele>707.59997558594</ele>
        <time>2026-05-12T13:17:02.000Z</time>
      </trkpt>
      <trkpt lat="45.31355" lon="4.6781">
        <ele>707.79998779297</ele>
        <time>2026-05-12T13:17:03.000Z</time>
      </trkpt>
      <trkpt lat="45.31357" lon="4.67811">
        <ele>707.79998779297</ele>
        <time>2026-05-12T13:17:04.000Z</time>
      </trkpt>
      <trkpt lat="45.31359" lon="4.67812">
        <ele>708</ele>
        <time>2026-05-12T13:17:05.000Z</time>
      </trkpt>
      <trkpt lat="45.31361" lon="4.67813">
        <ele>708</ele>
        <time>2026-05-12T13:17:06.000Z</time>
      </trkpt>
      <trkpt lat="45.31363" lon="4.67813">
        <ele>708.20001220703</ele>
        <time>2026-05-12T13:17:07.000Z</time>
      </trkpt>
      <trkpt lat="45.31364" lon="4.67814">
        <ele>708.20001220703</ele>
        <time>2026-05-12T13:17:08.000Z</time>
      </trkpt>
      <trkpt lat="45.31366" lon="4.67814">
        <ele>708.20001220703</ele>
        <time>2026-05-12T13:17:09.000Z</time>
      </trkpt>
      <trkpt lat="45.31368" lon="4.67815">
        <ele>708.40002441406</ele>
        <time>2026-05-12T13:17:10.000Z</time>
      </trkpt>
      <trkpt lat="45.3137" lon="4.67816">
        <ele>708.59997558594</ele>
        <time>2026-05-12T13:17:11.000Z</time>
      </trkpt>
      <trkpt lat="45.31372" lon="4.67817">
        <ele>708.79998779297</ele>
        <time>2026-05-12T13:17:12.000Z</time>
      </trkpt>
      <trkpt lat="45.31374" lon="4.67818">
        <ele>709</ele>
        <time>2026-05-12T13:17:13.000Z</time>
      </trkpt>
      <trkpt lat="45.31376" lon="4.67818">
        <ele>709.40002441406</ele>
        <time>2026-05-12T13:17:14.000Z</time>
      </trkpt>
      <trkpt lat="45.31377" lon="4.67819">
        <ele>709.59997558594</ele>
        <time>2026-05-12T13:17:15.000Z</time>
      </trkpt>
      <trkpt lat="45.31379" lon="4.6782">
        <ele>709.79998779297</ele>
        <time>2026-05-12T13:17:16.000Z</time>
      </trkpt>
      <trkpt lat="45.31381" lon="4.6782">
        <ele>710</ele>
        <time>2026-05-12T13:17:17.000Z</time>
      </trkpt>
      <trkpt lat="45.31382" lon="4.67821">
        <ele>710</ele>
        <time>2026-05-12T13:17:18.000Z</time>
      </trkpt>
      <trkpt lat="45.31384" lon="4.67823">
        <ele>710.20001220703</ele>
        <time>2026-05-12T13:17:19.000Z</time>
      </trkpt>
      <trkpt lat="45.31385" lon="4.67823">
        <ele>710.40002441406</ele>
        <time>2026-05-12T13:17:20.000Z</time>
      </trkpt>
      <trkpt lat="45.31387" lon="4.67824">
        <ele>710.40002441406</ele>
        <time>2026-05-12T13:17:21.000Z</time>
      </trkpt>
      <trkpt lat="45.31389" lon="4.67824">
        <ele>710.59997558594</ele>
        <time>2026-05-12T13:17:22.000Z</time>
      </trkpt>
      <trkpt lat="45.3139" lon="4.67825">
        <ele>710.59997558594</ele>
        <time>2026-05-12T13:17:23.000Z</time>
      </trkpt>
      <trkpt lat="45.31392" lon="4.67826">
        <ele>710.79998779297</ele>
        <time>2026-05-12T13:17:24.000Z</time>
      </trkpt>
      <trkpt lat="45.31393" lon="4.67826">
        <ele>711</ele>
        <time>2026-05-12T13:17:25.000Z</time>
      </trkpt>
      <trkpt lat="45.31395" lon="4.67827">
        <ele>711</ele>
        <time>2026-05-12T13:17:26.000Z</time>
      </trkpt>
      <trkpt lat="45.31396" lon="4.67827">
        <ele>711.20001220703</ele>
        <time>2026-05-12T13:17:27.000Z</time>
      </trkpt>
      <trkpt lat="45.31398" lon="4.67828">
        <ele>711.40002441406</ele>
        <time>2026-05-12T13:17:28.000Z</time>
      </trkpt>
      <trkpt lat="45.31399" lon="4.67828">
        <ele>711.59997558594</ele>
        <time>2026-05-12T13:17:29.000Z</time>
      </trkpt>
      <trkpt lat="45.31401" lon="4.67829">
        <ele>711.59997558594</ele>
        <time>2026-05-12T13:17:30.000Z</time>
      </trkpt>
      <trkpt lat="45.31402" lon="4.67829">
        <ele>711.79998779297</ele>
        <time>2026-05-12T13:17:31.000Z</time>
      </trkpt>
      <trkpt lat="45.31404" lon="4.67829">
        <ele>711.79998779297</ele>
        <time>2026-05-12T13:17:32.000Z</time>
      </trkpt>
      <trkpt lat="45.31406" lon="4.67829">
        <ele>712</ele>
        <time>2026-05-12T13:17:33.000Z</time>
      </trkpt>
      <trkpt lat="45.31408" lon="4.67829">
        <ele>712.20001220703</ele>
        <time>2026-05-12T13:17:34.000Z</time>
      </trkpt>
      <trkpt lat="45.3141" lon="4.67829">
        <ele>712.40002441406</ele>
        <time>2026-05-12T13:17:35.000Z</time>
      </trkpt>
      <trkpt lat="45.31412" lon="4.6783">
        <ele>712.59997558594</ele>
        <time>2026-05-12T13:17:36.000Z</time>
      </trkpt>
      <trkpt lat="45.31414" lon="4.6783">
        <ele>712.59997558594</ele>
        <time>2026-05-12T13:17:37.000Z</time>
      </trkpt>
      <trkpt lat="45.31416" lon="4.6783">
        <ele>712.79998779297</ele>
        <time>2026-05-12T13:17:38.000Z</time>
      </trkpt>
      <trkpt lat="45.31419" lon="4.67831">
        <ele>713</ele>
        <time>2026-05-12T13:17:39.000Z</time>
      </trkpt>
      <trkpt lat="45.31421" lon="4.67831">
        <ele>713.40002441406</ele>
        <time>2026-05-12T13:17:40.000Z</time>
      </trkpt>
      <trkpt lat="45.31422" lon="4.67833">
        <ele>713.59997558594</ele>
        <time>2026-05-12T13:17:41.000Z</time>
      </trkpt>
      <trkpt lat="45.31424" lon="4.67834">
        <ele>713.79998779297</ele>
        <time>2026-05-12T13:17:42.000Z</time>
      </trkpt>
      <trkpt lat="45.31425" lon="4.67833">
        <ele>714</ele>
        <time>2026-05-12T13:17:43.000Z</time>
      </trkpt>
      <trkpt lat="45.31428" lon="4.67832">
        <ele>714.20001220703</ele>
        <time>2026-05-12T13:17:44.000Z</time>
      </trkpt>
      <trkpt lat="45.3143" lon="4.67832">
        <ele>714.40002441406</ele>
        <time>2026-05-12T13:17:45.000Z</time>
      </trkpt>
      <trkpt lat="45.31432" lon="4.67832">
        <ele>714.59997558594</ele>
        <time>2026-05-12T13:17:46.000Z</time>
      </trkpt>
      <trkpt lat="45.31434" lon="4.67832">
        <ele>714.79998779297</ele>
        <time>2026-05-12T13:17:47.000Z</time>
      </trkpt>
      <trkpt lat="45.31435" lon="4.67832">
        <ele>715</ele>
        <time>2026-05-12T13:17:48.000Z</time>
      </trkpt>
      <trkpt lat="45.31437" lon="4.67833">
        <ele>715.20001220703</ele>
        <time>2026-05-12T13:17:49.000Z</time>
      </trkpt>
      <trkpt lat="45.31439" lon="4.67833">
        <ele>715.40002441406</ele>
        <time>2026-05-12T13:17:50.000Z</time>
      </trkpt>
      <trkpt lat="45.31441" lon="4.67835">
        <ele>715.40002441406</ele>
        <time>2026-05-12T13:17:51.000Z</time>
      </trkpt>
      <trkpt lat="45.31443" lon="4.67836">
        <ele>715.59997558594</ele>
        <time>2026-05-12T13:17:52.000Z</time>
      </trkpt>
      <trkpt lat="45.31446" lon="4.67837">
        <ele>715.79998779297</ele>
        <time>2026-05-12T13:17:53.000Z</time>
      </trkpt>
      <trkpt lat="45.31448" lon="4.67838">
        <ele>715.79998779297</ele>
        <time>2026-05-12T13:17:54.000Z</time>
      </trkpt>
      <trkpt lat="45.3145" lon="4.67839">
        <ele>716</ele>
        <time>2026-05-12T13:17:55.000Z</time>
      </trkpt>
      <trkpt lat="45.31452" lon="4.67839">
        <ele>716</ele>
        <time>2026-05-12T13:17:56.000Z</time>
      </trkpt>
      <trkpt lat="45.31454" lon="4.67838">
        <ele>716.20001220703</ele>
        <time>2026-05-12T13:17:57.000Z</time>
      </trkpt>
      <trkpt lat="45.31456" lon="4.67838">
        <ele>716.40002441406</ele>
        <time>2026-05-12T13:17:58.000Z</time>
      </trkpt>
      <trkpt lat="45.31458" lon="4.67837">
        <ele>716.40002441406</ele>
        <time>2026-05-12T13:17:59.000Z</time>
      </trkpt>
      <trkpt lat="45.3146" lon="4.67837">
        <ele>716.59997558594</ele>
        <time>2026-05-12T13:18:00.000Z</time>
      </trkpt>
      <trkpt lat="45.31462" lon="4.67837">
        <ele>716.59997558594</ele>
        <time>2026-05-12T13:18:01.000Z</time>
      </trkpt>
      <trkpt lat="45.31463" lon="4.67837">
        <ele>716.79998779297</ele>
        <time>2026-05-12T13:18:02.000Z</time>
      </trkpt>
      <trkpt lat="45.31465" lon="4.67837">
        <ele>716.79998779297</ele>
        <time>2026-05-12T13:18:03.000Z</time>
      </trkpt>
      <trkpt lat="45.31467" lon="4.67838">
        <ele>717</ele>
        <time>2026-05-12T13:18:04.000Z</time>
      </trkpt>
      <trkpt lat="45.31469" lon="4.67839">
        <ele>717</ele>
        <time>2026-05-12T13:18:05.000Z</time>
      </trkpt>
      <trkpt lat="45.3147" lon="4.67839">
        <ele>717.20001220703</ele>
        <time>2026-05-12T13:18:06.000Z</time>
      </trkpt>
      <trkpt lat="45.31472" lon="4.67838">
        <ele>717.20001220703</ele>
        <time>2026-05-12T13:18:07.000Z</time>
      </trkpt>
      <trkpt lat="45.31473" lon="4.67838">
        <ele>717.40002441406</ele>
        <time>2026-05-12T13:18:08.000Z</time>
      </trkpt>
      <trkpt lat="45.31474" lon="4.67838">
        <ele>717.59997558594</ele>
        <time>2026-05-12T13:18:09.000Z</time>
      </trkpt>
      <trkpt lat="45.31476" lon="4.67838">
        <ele>717.79998779297</ele>
        <time>2026-05-12T13:18:10.000Z</time>
      </trkpt>
      <trkpt lat="45.31477" lon="4.67838">
        <ele>718</ele>
        <time>2026-05-12T13:18:11.000Z</time>
      </trkpt>
      <trkpt lat="45.31478" lon="4.67837">
        <ele>718.20001220703</ele>
        <time>2026-05-12T13:18:12.000Z</time>
      </trkpt>
      <trkpt lat="45.3148" lon="4.67838">
        <ele>718.40002441406</ele>
        <time>2026-05-12T13:18:13.000Z</time>
      </trkpt>
      <trkpt lat="45.31481" lon="4.67838">
        <ele>718.59997558594</ele>
        <time>2026-05-12T13:18:14.000Z</time>
      </trkpt>
      <trkpt lat="45.31483" lon="4.67838">
        <ele>718.79998779297</ele>
        <time>2026-05-12T13:18:15.000Z</time>
      </trkpt>
      <trkpt lat="45.31484" lon="4.67838">
        <ele>719</ele>
        <time>2026-05-12T13:18:16.000Z</time>
      </trkpt>
      <trkpt lat="45.31486" lon="4.67838">
        <ele>719.20001220703</ele>
        <time>2026-05-12T13:18:17.000Z</time>
      </trkpt>
      <trkpt lat="45.31488" lon="4.67838">
        <ele>719.40002441406</ele>
        <time>2026-05-12T13:18:18.000Z</time>
      </trkpt>
      <trkpt lat="45.31489" lon="4.67838">
        <ele>719.59997558594</ele>
        <time>2026-05-12T13:18:19.000Z</time>
      </trkpt>
      <trkpt lat="45.31491" lon="4.67838">
        <ele>719.79998779297</ele>
        <time>2026-05-12T13:18:20.000Z</time>
      </trkpt>
      <trkpt lat="45.31493" lon="4.67838">
        <ele>719.79998779297</ele>
        <time>2026-05-12T13:18:21.000Z</time>
      </trkpt>
      <trkpt lat="45.31495" lon="4.67838">
        <ele>720</ele>
        <time>2026-05-12T13:18:22.000Z</time>
      </trkpt>
      <trkpt lat="45.31497" lon="4.67838">
        <ele>720.20001220703</ele>
        <time>2026-05-12T13:18:23.000Z</time>
      </trkpt>
      <trkpt lat="45.31499" lon="4.67838">
        <ele>720.40002441406</ele>
        <time>2026-05-12T13:18:24.000Z</time>
      </trkpt>
      <trkpt lat="45.315" lon="4.67838">
        <ele>720.59997558594</ele>
        <time>2026-05-12T13:18:25.000Z</time>
      </trkpt>
      <trkpt lat="45.31502" lon="4.67838">
        <ele>720.59997558594</ele>
        <time>2026-05-12T13:18:26.000Z</time>
      </trkpt>
      <trkpt lat="45.31504" lon="4.67838">
        <ele>720.79998779297</ele>
        <time>2026-05-12T13:18:27.000Z</time>
      </trkpt>
      <trkpt lat="45.31506" lon="4.67837">
        <ele>721</ele>
        <time>2026-05-12T13:18:28.000Z</time>
      </trkpt>
      <trkpt lat="45.31507" lon="4.67837">
        <ele>721.20001220703</ele>
        <time>2026-05-12T13:18:29.000Z</time>
      </trkpt>
      <trkpt lat="45.31509" lon="4.67837">
        <ele>721.40002441406</ele>
        <time>2026-05-12T13:18:30.000Z</time>
      </trkpt>
      <trkpt lat="45.31511" lon="4.67836">
        <ele>721.59997558594</ele>
        <time>2026-05-12T13:18:31.000Z</time>
      </trkpt>
      <trkpt lat="45.31513" lon="4.67836">
        <ele>721.79998779297</ele>
        <time>2026-05-12T13:18:32.000Z</time>
      </trkpt>
      <trkpt lat="45.31514" lon="4.67837">
        <ele>722.20001220703</ele>
        <time>2026-05-12T13:18:33.000Z</time>
      </trkpt>
      <trkpt lat="45.31516" lon="4.67837">
        <ele>722.40002441406</ele>
        <time>2026-05-12T13:18:34.000Z</time>
      </trkpt>
      <trkpt lat="45.31517" lon="4.67839">
        <ele>722.59997558594</ele>
        <time>2026-05-12T13:18:35.000Z</time>
      </trkpt>
      <trkpt lat="45.31519" lon="4.6784">
        <ele>722.79998779297</ele>
        <time>2026-05-12T13:18:36.000Z</time>
      </trkpt>
      <trkpt lat="45.3152" lon="4.67841">
        <ele>723</ele>
        <time>2026-05-12T13:18:37.000Z</time>
      </trkpt>
      <trkpt lat="45.31522" lon="4.67841">
        <ele>723</ele>
        <time>2026-05-12T13:18:38.000Z</time>
      </trkpt>
      <trkpt lat="45.31524" lon="4.6784">
        <ele>723</ele>
        <time>2026-05-12T13:18:39.000Z</time>
      </trkpt>
      <trkpt lat="45.31525" lon="4.6784">
        <ele>723</ele>
        <time>2026-05-12T13:18:40.000Z</time>
      </trkpt>
      <trkpt lat="45.31527" lon="4.6784">
        <ele>723.20001220703</ele>
        <time>2026-05-12T13:18:41.000Z</time>
      </trkpt>
      <trkpt lat="45.3153" lon="4.67839">
        <ele>723.40002441406</ele>
        <time>2026-05-12T13:18:42.000Z</time>
      </trkpt>
      <trkpt lat="45.31532" lon="4.67839">
        <ele>723.59997558594</ele>
        <time>2026-05-12T13:18:43.000Z</time>
      </trkpt>
      <trkpt lat="45.31534" lon="4.6784">
        <ele>723.79998779297</ele>
        <time>2026-05-12T13:18:44.000Z</time>
      </trkpt>
      <trkpt lat="45.31536" lon="4.67842">
        <ele>724</ele>
        <time>2026-05-12T13:18:45.000Z</time>
      </trkpt>
      <trkpt lat="45.31538" lon="4.67842">
        <ele>724.20001220703</ele>
        <time>2026-05-12T13:18:46.000Z</time>
      </trkpt>
      <trkpt lat="45.31541" lon="4.67842">
        <ele>724.40002441406</ele>
        <time>2026-05-12T13:18:47.000Z</time>
      </trkpt>
      <trkpt lat="45.31543" lon="4.67843">
        <ele>724.59997558594</ele>
        <time>2026-05-12T13:18:48.000Z</time>
      </trkpt>
      <trkpt lat="45.31546" lon="4.67841">
        <ele>724.79998779297</ele>
        <time>2026-05-12T13:18:49.000Z</time>
      </trkpt>
      <trkpt lat="45.31548" lon="4.67842">
        <ele>725</ele>
        <time>2026-05-12T13:18:50.000Z</time>
      </trkpt>
      <trkpt lat="45.3155" lon="4.67842">
        <ele>725.20001220703</ele>
        <time>2026-05-12T13:18:51.000Z</time>
      </trkpt>
      <trkpt lat="45.31551" lon="4.67841">
        <ele>725.40002441406</ele>
        <time>2026-05-12T13:18:52.000Z</time>
      </trkpt>
      <trkpt lat="45.31553" lon="4.67842">
        <ele>725.59997558594</ele>
        <time>2026-05-12T13:18:53.000Z</time>
      </trkpt>
      <trkpt lat="45.31555" lon="4.67843">
        <ele>725.79998779297</ele>
        <time>2026-05-12T13:18:54.000Z</time>
      </trkpt>
      <trkpt lat="45.31556" lon="4.67843">
        <ele>726</ele>
        <time>2026-05-12T13:18:55.000Z</time>
      </trkpt>
      <trkpt lat="45.31557" lon="4.67843">
        <ele>726.20001220703</ele>
        <time>2026-05-12T13:18:56.000Z</time>
      </trkpt>
      <trkpt lat="45.31559" lon="4.67843">
        <ele>726.40002441406</ele>
        <time>2026-05-12T13:18:57.000Z</time>
      </trkpt>
      <trkpt lat="45.3156" lon="4.67842">
        <ele>726.59997558594</ele>
        <time>2026-05-12T13:18:58.000Z</time>
      </trkpt>
      <trkpt lat="45.31561" lon="4.67843">
        <ele>727</ele>
        <time>2026-05-12T13:18:59.000Z</time>
      </trkpt>
      <trkpt lat="45.31563" lon="4.67843">
        <ele>727.20001220703</ele>
        <time>2026-05-12T13:19:00.000Z</time>
      </trkpt>
      <trkpt lat="45.31565" lon="4.67842">
        <ele>727.59997558594</ele>
        <time>2026-05-12T13:19:01.000Z</time>
      </trkpt>
      <trkpt lat="45.31567" lon="4.67842">
        <ele>727.79998779297</ele>
        <time>2026-05-12T13:19:02.000Z</time>
      </trkpt>
      <trkpt lat="45.31569" lon="4.67841">
        <ele>728.20001220703</ele>
        <time>2026-05-12T13:19:03.000Z</time>
      </trkpt>
      <trkpt lat="45.31571" lon="4.6784">
        <ele>728.59997558594</ele>
        <time>2026-05-12T13:19:04.000Z</time>
      </trkpt>
      <trkpt lat="45.31573" lon="4.67838">
        <ele>729</ele>
        <time>2026-05-12T13:19:05.000Z</time>
      </trkpt>
      <trkpt lat="45.31575" lon="4.67836">
        <ele>729.59997558594</ele>
        <time>2026-05-12T13:19:06.000Z</time>
      </trkpt>
      <trkpt lat="45.31576" lon="4.67834">
        <ele>730</ele>
        <time>2026-05-12T13:19:07.000Z</time>
      </trkpt>
      <trkpt lat="45.31577" lon="4.67831">
        <ele>730.40002441406</ele>
        <time>2026-05-12T13:19:08.000Z</time>
      </trkpt>
      <trkpt lat="45.31578" lon="4.67828">
        <ele>730.79998779297</ele>
        <time>2026-05-12T13:19:09.000Z</time>
      </trkpt>
      <trkpt lat="45.31578" lon="4.67826">
        <ele>731.20001220703</ele>
        <time>2026-05-12T13:19:10.000Z</time>
      </trkpt>
      <trkpt lat="45.3158" lon="4.67824">
        <ele>731.40002441406</ele>
        <time>2026-05-12T13:19:11.000Z</time>
      </trkpt>
      <trkpt lat="45.31581" lon="4.67822">
        <ele>731.59997558594</ele>
        <time>2026-05-12T13:19:12.000Z</time>
      </trkpt>
      <trkpt lat="45.31582" lon="4.6782">
        <ele>731.79998779297</ele>
        <time>2026-05-12T13:19:13.000Z</time>
      </trkpt>
      <trkpt lat="45.31584" lon="4.67819">
        <ele>732</ele>
        <time>2026-05-12T13:19:14.000Z</time>
      </trkpt>
      <trkpt lat="45.31586" lon="4.67817">
        <ele>732.20001220703</ele>
        <time>2026-05-12T13:19:15.000Z</time>
      </trkpt>
      <trkpt lat="45.31587" lon="4.67814">
        <ele>732.40002441406</ele>
        <time>2026-05-12T13:19:16.000Z</time>
      </trkpt>
      <trkpt lat="45.31588" lon="4.67812">
        <ele>732.59997558594</ele>
        <time>2026-05-12T13:19:17.000Z</time>
      </trkpt>
      <trkpt lat="45.3159" lon="4.6781">
        <ele>732.79998779297</ele>
        <time>2026-05-12T13:19:18.000Z</time>
      </trkpt>
      <trkpt lat="45.31591" lon="4.67809">
        <ele>733</ele>
        <time>2026-05-12T13:19:19.000Z</time>
      </trkpt>
      <trkpt lat="45.31593" lon="4.67808">
        <ele>733</ele>
        <time>2026-05-12T13:19:20.000Z</time>
      </trkpt>
      <trkpt lat="45.31595" lon="4.67806">
        <ele>733.20001220703</ele>
        <time>2026-05-12T13:19:21.000Z</time>
      </trkpt>
      <trkpt lat="45.31596" lon="4.67806">
        <ele>733.20001220703</ele>
        <time>2026-05-12T13:19:22.000Z</time>
      </trkpt>
      <trkpt lat="45.31598" lon="4.67805">
        <ele>733.20001220703</ele>
        <time>2026-05-12T13:19:23.000Z</time>
      </trkpt>
      <trkpt lat="45.31599" lon="4.67806">
        <ele>733.40002441406</ele>
        <time>2026-05-12T13:19:24.000Z</time>
      </trkpt>
      <trkpt lat="45.316" lon="4.67807">
        <ele>733.59997558594</ele>
        <time>2026-05-12T13:19:25.000Z</time>
      </trkpt>
      <trkpt lat="45.31601" lon="4.67808">
        <ele>733.59997558594</ele>
        <time>2026-05-12T13:19:26.000Z</time>
      </trkpt>
      <trkpt lat="45.31601" lon="4.6781">
        <ele>733.59997558594</ele>
        <time>2026-05-12T13:19:27.000Z</time>
      </trkpt>
      <trkpt lat="45.31602" lon="4.67812">
        <ele>733.59997558594</ele>
        <time>2026-05-12T13:19:28.000Z</time>
      </trkpt>
      <trkpt lat="45.31602" lon="4.67814">
        <ele>733.59997558594</ele>
        <time>2026-05-12T13:19:29.000Z</time>
      </trkpt>
      <trkpt lat="45.31603" lon="4.67816">
        <ele>733.59997558594</ele>
        <time>2026-05-12T13:19:30.000Z</time>
      </trkpt>
      <trkpt lat="45.31603" lon="4.67818">
        <ele>733.40002441406</ele>
        <time>2026-05-12T13:19:31.000Z</time>
      </trkpt>
      <trkpt lat="45.31604" lon="4.6782">
        <ele>733.40002441406</ele>
        <time>2026-05-12T13:19:32.000Z</time>
      </trkpt>
      <trkpt lat="45.31604" lon="4.67821">
        <ele>733.40002441406</ele>
        <time>2026-05-12T13:19:33.000Z</time>
      </trkpt>
      <trkpt lat="45.31605" lon="4.67822">
        <ele>733.40002441406</ele>
        <time>2026-05-12T13:19:34.000Z</time>
      </trkpt>
      <trkpt lat="45.31605" lon="4.67823">
        <ele>733.40002441406</ele>
        <time>2026-05-12T13:19:35.000Z</time>
      </trkpt>
      <trkpt lat="45.31605" lon="4.67823">
        <ele>733.59997558594</ele>
        <time>2026-05-12T13:19:36.000Z</time>
      </trkpt>
      <trkpt lat="45.31607" lon="4.67839">
        <ele>732</ele>
        <time>2026-05-12T13:21:35.000Z</time>
      </trkpt>
      <trkpt lat="45.31607" lon="4.67841">
        <ele>732</ele>
        <time>2026-05-12T13:21:36.000Z</time>
      </trkpt>
      <trkpt lat="45.31608" lon="4.67844">
        <ele>731.79998779297</ele>
        <time>2026-05-12T13:21:37.000Z</time>
      </trkpt>
      <trkpt lat="45.31609" lon="4.67847">
        <ele>731.79998779297</ele>
        <time>2026-05-12T13:21:38.000Z</time>
      </trkpt>
      <trkpt lat="45.3161" lon="4.6785">
        <ele>731.79998779297</ele>
        <time>2026-05-12T13:21:39.000Z</time>
      </trkpt>
      <trkpt lat="45.3161" lon="4.67853">
        <ele>732</ele>
        <time>2026-05-12T13:21:40.000Z</time>
      </trkpt>
      <trkpt lat="45.31611" lon="4.67857">
        <ele>732.20001220703</ele>
        <time>2026-05-12T13:21:41.000Z</time>
      </trkpt>
      <trkpt lat="45.31611" lon="4.6786">
        <ele>732.20001220703</ele>
        <time>2026-05-12T13:21:42.000Z</time>
      </trkpt>
      <trkpt lat="45.31612" lon="4.67863">
        <ele>732.40002441406</ele>
        <time>2026-05-12T13:21:43.000Z</time>
      </trkpt>
      <trkpt lat="45.31612" lon="4.67866">
        <ele>732.59997558594</ele>
        <time>2026-05-12T13:21:44.000Z</time>
      </trkpt>
      <trkpt lat="45.31613" lon="4.6787">
        <ele>732.59997558594</ele>
        <time>2026-05-12T13:21:45.000Z</time>
      </trkpt>
      <trkpt lat="45.31614" lon="4.67873">
        <ele>732.79998779297</ele>
        <time>2026-05-12T13:21:46.000Z</time>
      </trkpt>
      <trkpt lat="45.31614" lon="4.67876">
        <ele>732.79998779297</ele>
        <time>2026-05-12T13:21:47.000Z</time>
      </trkpt>
      <trkpt lat="45.31615" lon="4.67879">
        <ele>733</ele>
        <time>2026-05-12T13:21:48.000Z</time>
      </trkpt>
      <trkpt lat="45.31615" lon="4.67882">
        <ele>733</ele>
        <time>2026-05-12T13:21:49.000Z</time>
      </trkpt>
      <trkpt lat="45.31615" lon="4.67885">
        <ele>733</ele>
        <time>2026-05-12T13:21:50.000Z</time>
      </trkpt>
      <trkpt lat="45.31616" lon="4.67888">
        <ele>733</ele>
        <time>2026-05-12T13:21:51.000Z</time>
      </trkpt>
      <trkpt lat="45.31617" lon="4.67891">
        <ele>733</ele>
        <time>2026-05-12T13:21:52.000Z</time>
      </trkpt>
      <trkpt lat="45.31617" lon="4.67895">
        <ele>733.20001220703</ele>
        <time>2026-05-12T13:21:53.000Z</time>
      </trkpt>
      <trkpt lat="45.31618" lon="4.67898">
        <ele>733.20001220703</ele>
        <time>2026-05-12T13:21:54.000Z</time>
      </trkpt>
      <trkpt lat="45.31618" lon="4.67901">
        <ele>733.40002441406</ele>
        <time>2026-05-12T13:21:55.000Z</time>
      </trkpt>
      <trkpt lat="45.31618" lon="4.67905">
        <ele>733.40002441406</ele>
        <time>2026-05-12T13:21:56.000Z</time>
      </trkpt>
      <trkpt lat="45.31619" lon="4.67908">
        <ele>733.59997558594</ele>
        <time>2026-05-12T13:21:57.000Z</time>
      </trkpt>
      <trkpt lat="45.31619" lon="4.67911">
        <ele>733.59997558594</ele>
        <time>2026-05-12T13:21:58.000Z</time>
      </trkpt>
      <trkpt lat="45.31619" lon="4.67915">
        <ele>733.59997558594</ele>
        <time>2026-05-12T13:21:59.000Z</time>
      </trkpt>
      <trkpt lat="45.3162" lon="4.67918">
        <ele>733.79998779297</ele>
        <time>2026-05-12T13:22:00.000Z</time>
      </trkpt>
      <trkpt lat="45.31621" lon="4.67923">
        <ele>733.79998779297</ele>
        <time>2026-05-12T13:22:01.000Z</time>
      </trkpt>
      <trkpt lat="45.31621" lon="4.67927">
        <ele>733.79998779297</ele>
        <time>2026-05-12T13:22:02.000Z</time>
      </trkpt>
      <trkpt lat="45.31622" lon="4.6793">
        <ele>734</ele>
        <time>2026-05-12T13:22:03.000Z</time>
      </trkpt>
      <trkpt lat="45.31623" lon="4.67934">
        <ele>734</ele>
        <time>2026-05-12T13:22:04.000Z</time>
      </trkpt>
      <trkpt lat="45.31624" lon="4.67939">
        <ele>734</ele>
        <time>2026-05-12T13:22:05.000Z</time>
      </trkpt>
      <trkpt lat="45.31625" lon="4.67943">
        <ele>733.79998779297</ele>
        <time>2026-05-12T13:22:06.000Z</time>
      </trkpt>
      <trkpt lat="45.31626" lon="4.67948">
        <ele>733.79998779297</ele>
        <time>2026-05-12T13:22:07.000Z</time>
      </trkpt>
      <trkpt lat="45.31627" lon="4.67952">
        <ele>733.79998779297</ele>
        <time>2026-05-12T13:22:08.000Z</time>
      </trkpt>
      <trkpt lat="45.31628" lon="4.67957">
        <ele>734</ele>
        <time>2026-05-12T13:22:09.000Z</time>
      </trkpt>
      <trkpt lat="45.31628" lon="4.67962">
        <ele>734</ele>
        <time>2026-05-12T13:22:10.000Z</time>
      </trkpt>
      <trkpt lat="45.31629" lon="4.67967">
        <ele>734.20001220703</ele>
        <time>2026-05-12T13:22:11.000Z</time>
      </trkpt>
      <trkpt lat="45.31629" lon="4.67973">
        <ele>734.20001220703</ele>
        <time>2026-05-12T13:22:12.000Z</time>
      </trkpt>
      <trkpt lat="45.3163" lon="4.67978">
        <ele>734.20001220703</ele>
        <time>2026-05-12T13:22:13.000Z</time>
      </trkpt>
      <trkpt lat="45.3163" lon="4.67984">
        <ele>734.20001220703</ele>
        <time>2026-05-12T13:22:14.000Z</time>
      </trkpt>
      <trkpt lat="45.31631" lon="4.6799">
        <ele>734.20001220703</ele>
        <time>2026-05-12T13:22:15.000Z</time>
      </trkpt>
      <trkpt lat="45.31631" lon="4.67995">
        <ele>734.20001220703</ele>
        <time>2026-05-12T13:22:16.000Z</time>
      </trkpt>
      <trkpt lat="45.31632" lon="4.68001">
        <ele>734.20001220703</ele>
        <time>2026-05-12T13:22:17.000Z</time>
      </trkpt>
      <trkpt lat="45.31633" lon="4.68006">
        <ele>734.20001220703</ele>
        <time>2026-05-12T13:22:18.000Z</time>
      </trkpt>
      <trkpt lat="45.31633" lon="4.6801">
        <ele>734</ele>
        <time>2026-05-12T13:22:19.000Z</time>
      </trkpt>
      <trkpt lat="45.31634" lon="4.68015">
        <ele>734</ele>
        <time>2026-05-12T13:22:20.000Z</time>
      </trkpt>
      <trkpt lat="45.31635" lon="4.6802">
        <ele>733.79998779297</ele>
        <time>2026-05-12T13:22:21.000Z</time>
      </trkpt>
      <trkpt lat="45.31636" lon="4.68024">
        <ele>733.79998779297</ele>
        <time>2026-05-12T13:22:22.000Z</time>
      </trkpt>
      <trkpt lat="45.31637" lon="4.68029">
        <ele>734</ele>
        <time>2026-05-12T13:22:23.000Z</time>
      </trkpt>
      <trkpt lat="45.31638" lon="4.68034">
        <ele>733.79998779297</ele>
        <time>2026-05-12T13:22:24.000Z</time>
      </trkpt>
      <trkpt lat="45.31639" lon="4.68038">
        <ele>733.79998779297</ele>
        <time>2026-05-12T13:22:25.000Z</time>
      </trkpt>
      <trkpt lat="45.3164" lon="4.68042">
        <ele>733.59997558594</ele>
        <time>2026-05-12T13:22:26.000Z</time>
      </trkpt>
      <trkpt lat="45.31641" lon="4.68047">
        <ele>733.59997558594</ele>
        <time>2026-05-12T13:22:27.000Z</time>
      </trkpt>
      <trkpt lat="45.31642" lon="4.6805">
        <ele>733.40002441406</ele>
        <time>2026-05-12T13:22:28.000Z</time>
      </trkpt>
      <trkpt lat="45.31642" lon="4.68054">
        <ele>733.40002441406</ele>
        <time>2026-05-12T13:22:29.000Z</time>
      </trkpt>
      <trkpt lat="45.31643" lon="4.68058">
        <ele>733.59997558594</ele>
        <time>2026-05-12T13:22:30.000Z</time>
      </trkpt>
      <trkpt lat="45.31645" lon="4.68063">
        <ele>733.59997558594</ele>
        <time>2026-05-12T13:22:31.000Z</time>
      </trkpt>
      <trkpt lat="45.31647" lon="4.68068">
        <ele>733.40002441406</ele>
        <time>2026-05-12T13:22:32.000Z</time>
      </trkpt>
      <trkpt lat="45.31649" lon="4.68073">
        <ele>733.20001220703</ele>
        <time>2026-05-12T13:22:33.000Z</time>
      </trkpt>
      <trkpt lat="45.31652" lon="4.68079">
        <ele>732.79998779297</ele>
        <time>2026-05-12T13:22:34.000Z</time>
      </trkpt>
      <trkpt lat="45.31654" lon="4.68085">
        <ele>732.40002441406</ele>
        <time>2026-05-12T13:22:35.000Z</time>
      </trkpt>
      <trkpt lat="45.31657" lon="4.68092">
        <ele>732</ele>
        <time>2026-05-12T13:22:36.000Z</time>
      </trkpt>
      <trkpt lat="45.3166" lon="4.68098">
        <ele>731.40002441406</ele>
        <time>2026-05-12T13:22:37.000Z</time>
      </trkpt>
      <trkpt lat="45.31664" lon="4.68104">
        <ele>731</ele>
        <time>2026-05-12T13:22:38.000Z</time>
      </trkpt>
      <trkpt lat="45.31668" lon="4.68109">
        <ele>730.40002441406</ele>
        <time>2026-05-12T13:22:39.000Z</time>
      </trkpt>
      <trkpt lat="45.31672" lon="4.68114">
        <ele>729.59997558594</ele>
        <time>2026-05-12T13:22:40.000Z</time>
      </trkpt>
      <trkpt lat="45.31675" lon="4.68118">
        <ele>729</ele>
        <time>2026-05-12T13:22:41.000Z</time>
      </trkpt>
      <trkpt lat="45.31678" lon="4.68122">
        <ele>728.40002441406</ele>
        <time>2026-05-12T13:22:42.000Z</time>
      </trkpt>
      <trkpt lat="45.31682" lon="4.68127">
        <ele>727.79998779297</ele>
        <time>2026-05-12T13:22:43.000Z</time>
      </trkpt>
      <trkpt lat="45.31687" lon="4.68131">
        <ele>727.20001220703</ele>
        <time>2026-05-12T13:22:44.000Z</time>
      </trkpt>
      <trkpt lat="45.31692" lon="4.68136">
        <ele>726.59997558594</ele>
        <time>2026-05-12T13:22:45.000Z</time>
      </trkpt>
      <trkpt lat="45.31696" lon="4.68141">
        <ele>726</ele>
        <time>2026-05-12T13:22:46.000Z</time>
      </trkpt>
      <trkpt lat="45.317" lon="4.68146">
        <ele>725.40002441406</ele>
        <time>2026-05-12T13:22:47.000Z</time>
      </trkpt>
      <trkpt lat="45.31706" lon="4.6815">
        <ele>725</ele>
        <time>2026-05-12T13:22:48.000Z</time>
      </trkpt>
      <trkpt lat="45.31711" lon="4.68153">
        <ele>724.59997558594</ele>
        <time>2026-05-12T13:22:49.000Z</time>
      </trkpt>
      <trkpt lat="45.31716" lon="4.68155">
        <ele>724.40002441406</ele>
        <time>2026-05-12T13:22:50.000Z</time>
      </trkpt>
      <trkpt lat="45.3172" lon="4.68157">
        <ele>724.20001220703</ele>
        <time>2026-05-12T13:22:51.000Z</time>
      </trkpt>
      <trkpt lat="45.31724" lon="4.68159">
        <ele>723.79998779297</ele>
        <time>2026-05-12T13:22:52.000Z</time>
      </trkpt>
      <trkpt lat="45.31729" lon="4.6816">
        <ele>723.59997558594</ele>
        <time>2026-05-12T13:22:53.000Z</time>
      </trkpt>
      <trkpt lat="45.31733" lon="4.68163">
        <ele>723.20001220703</ele>
        <time>2026-05-12T13:22:54.000Z</time>
      </trkpt>
      <trkpt lat="45.31738" lon="4.68166">
        <ele>722.79998779297</ele>
        <time>2026-05-12T13:22:55.000Z</time>
      </trkpt>
      <trkpt lat="45.31742" lon="4.68167">
        <ele>722.40002441406</ele>
        <time>2026-05-12T13:22:56.000Z</time>
      </trkpt>
      <trkpt lat="45.31745" lon="4.68169">
        <ele>722</ele>
        <time>2026-05-12T13:22:57.000Z</time>
      </trkpt>
      <trkpt lat="45.31748" lon="4.68171">
        <ele>721.59997558594</ele>
        <time>2026-05-12T13:22:58.000Z</time>
      </trkpt>
      <trkpt lat="45.31751" lon="4.68172">
        <ele>721.20001220703</ele>
        <time>2026-05-12T13:22:59.000Z</time>
      </trkpt>
      <trkpt lat="45.31756" lon="4.68174">
        <ele>720.59997558594</ele>
        <time>2026-05-12T13:23:00.000Z</time>
      </trkpt>
      <trkpt lat="45.31763" lon="4.68176">
        <ele>719.79998779297</ele>
        <time>2026-05-12T13:23:01.000Z</time>
      </trkpt>
      <trkpt lat="45.3177" lon="4.68178">
        <ele>719.20001220703</ele>
        <time>2026-05-12T13:23:02.000Z</time>
      </trkpt>
      <trkpt lat="45.31774" lon="4.68181">
        <ele>718.59997558594</ele>
        <time>2026-05-12T13:23:03.000Z</time>
      </trkpt>
      <trkpt lat="45.3178" lon="4.68183">
        <ele>717.79998779297</ele>
        <time>2026-05-12T13:23:04.000Z</time>
      </trkpt>
      <trkpt lat="45.31786" lon="4.68185">
        <ele>716.79998779297</ele>
        <time>2026-05-12T13:23:05.000Z</time>
      </trkpt>
      <trkpt lat="45.31795" lon="4.68188">
        <ele>716</ele>
        <time>2026-05-12T13:23:06.000Z</time>
      </trkpt>
      <trkpt lat="45.31804" lon="4.68189">
        <ele>715.20001220703</ele>
        <time>2026-05-12T13:23:07.000Z</time>
      </trkpt>
      <trkpt lat="45.31809" lon="4.6819">
        <ele>714.20001220703</ele>
        <time>2026-05-12T13:23:08.000Z</time>
      </trkpt>
      <trkpt lat="45.31816" lon="4.6819">
        <ele>713.20001220703</ele>
        <time>2026-05-12T13:23:09.000Z</time>
      </trkpt>
      <trkpt lat="45.31824" lon="4.68192">
        <ele>712</ele>
        <time>2026-05-12T13:23:10.000Z</time>
      </trkpt>
      <trkpt lat="45.31832" lon="4.68194">
        <ele>710.79998779297</ele>
        <time>2026-05-12T13:23:11.000Z</time>
      </trkpt>
      <trkpt lat="45.3184" lon="4.68195">
        <ele>709.59997558594</ele>
        <time>2026-05-12T13:23:12.000Z</time>
      </trkpt>
      <trkpt lat="45.31849" lon="4.68197">
        <ele>708.40002441406</ele>
        <time>2026-05-12T13:23:13.000Z</time>
      </trkpt>
      <trkpt lat="45.31857" lon="4.68201">
        <ele>707.20001220703</ele>
        <time>2026-05-12T13:23:14.000Z</time>
      </trkpt>
      <trkpt lat="45.31863" lon="4.68203">
        <ele>706</ele>
        <time>2026-05-12T13:23:15.000Z</time>
      </trkpt>
      <trkpt lat="45.31871" lon="4.68205">
        <ele>705.20001220703</ele>
        <time>2026-05-12T13:23:16.000Z</time>
      </trkpt>
      <trkpt lat="45.31878" lon="4.68208">
        <ele>704.20001220703</ele>
        <time>2026-05-12T13:23:17.000Z</time>
      </trkpt>
      <trkpt lat="45.31885" lon="4.6821">
        <ele>703.59997558594</ele>
        <time>2026-05-12T13:23:18.000Z</time>
      </trkpt>
      <trkpt lat="45.31891" lon="4.68211">
        <ele>703</ele>
        <time>2026-05-12T13:23:19.000Z</time>
      </trkpt>
      <trkpt lat="45.31898" lon="4.68214">
        <ele>702.59997558594</ele>
        <time>2026-05-12T13:23:20.000Z</time>
      </trkpt>
      <trkpt lat="45.31903" lon="4.68218">
        <ele>702.20001220703</ele>
        <time>2026-05-12T13:23:21.000Z</time>
      </trkpt>
      <trkpt lat="45.31908" lon="4.6822">
        <ele>701.79998779297</ele>
        <time>2026-05-12T13:23:22.000Z</time>
      </trkpt>
      <trkpt lat="45.31912" lon="4.6822">
        <ele>701.40002441406</ele>
        <time>2026-05-12T13:23:23.000Z</time>
      </trkpt>
      <trkpt lat="45.31918" lon="4.6822">
        <ele>701</ele>
        <time>2026-05-12T13:23:24.000Z</time>
      </trkpt>
      <trkpt lat="45.31923" lon="4.68218">
        <ele>700.59997558594</ele>
        <time>2026-05-12T13:23:25.000Z</time>
      </trkpt>
      <trkpt lat="45.31927" lon="4.68217">
        <ele>700.20001220703</ele>
        <time>2026-05-12T13:23:26.000Z</time>
      </trkpt>
      <trkpt lat="45.31932" lon="4.68213">
        <ele>699.59997558594</ele>
        <time>2026-05-12T13:23:27.000Z</time>
      </trkpt>
      <trkpt lat="45.31938" lon="4.6821">
        <ele>699.20001220703</ele>
        <time>2026-05-12T13:23:28.000Z</time>
      </trkpt>
      <trkpt lat="45.31944" lon="4.68208">
        <ele>698.59997558594</ele>
        <time>2026-05-12T13:23:29.000Z</time>
      </trkpt>
      <trkpt lat="45.31949" lon="4.68207">
        <ele>698.20001220703</ele>
        <time>2026-05-12T13:23:30.000Z</time>
      </trkpt>
      <trkpt lat="45.31954" lon="4.68207">
        <ele>697.79998779297</ele>
        <time>2026-05-12T13:23:31.000Z</time>
      </trkpt>
      <trkpt lat="45.31958" lon="4.68206">
        <ele>697.20001220703</ele>
        <time>2026-05-12T13:23:32.000Z</time>
      </trkpt>
      <trkpt lat="45.31962" lon="4.68207">
        <ele>697</ele>
        <time>2026-05-12T13:23:33.000Z</time>
      </trkpt>
      <trkpt lat="45.31966" lon="4.68206">
        <ele>696.59997558594</ele>
        <time>2026-05-12T13:23:34.000Z</time>
      </trkpt>
      <trkpt lat="45.31971" lon="4.68206">
        <ele>696</ele>
        <time>2026-05-12T13:23:35.000Z</time>
      </trkpt>
      <trkpt lat="45.31976" lon="4.68207">
        <ele>695.59997558594</ele>
        <time>2026-05-12T13:23:36.000Z</time>
      </trkpt>
      <trkpt lat="45.3198" lon="4.68207">
        <ele>695.20001220703</ele>
        <time>2026-05-12T13:23:37.000Z</time>
      </trkpt>
      <trkpt lat="45.31986" lon="4.68209">
        <ele>694.59997558594</ele>
        <time>2026-05-12T13:23:38.000Z</time>
      </trkpt>
      <trkpt lat="45.31991" lon="4.68213">
        <ele>694.20001220703</ele>
        <time>2026-05-12T13:23:39.000Z</time>
      </trkpt>
      <trkpt lat="45.31996" lon="4.68216">
        <ele>693.79998779297</ele>
        <time>2026-05-12T13:23:40.000Z</time>
      </trkpt>
      <trkpt lat="45.32001" lon="4.6822">
        <ele>693.59997558594</ele>
        <time>2026-05-12T13:23:41.000Z</time>
      </trkpt>
      <trkpt lat="45.32004" lon="4.68223">
        <ele>693.40002441406</ele>
        <time>2026-05-12T13:23:42.000Z</time>
      </trkpt>
      <trkpt lat="45.32008" lon="4.68224">
        <ele>693.40002441406</ele>
        <time>2026-05-12T13:23:43.000Z</time>
      </trkpt>
      <trkpt lat="45.32012" lon="4.68224">
        <ele>693.40002441406</ele>
        <time>2026-05-12T13:23:44.000Z</time>
      </trkpt>
      <trkpt lat="45.32015" lon="4.68222">
        <ele>693.20001220703</ele>
        <time>2026-05-12T13:23:45.000Z</time>
      </trkpt>
      <trkpt lat="45.32018" lon="4.68219">
        <ele>693</ele>
        <time>2026-05-12T13:23:46.000Z</time>
      </trkpt>
      <trkpt lat="45.32019" lon="4.68214">
        <ele>692.59997558594</ele>
        <time>2026-05-12T13:23:47.000Z</time>
      </trkpt>
      <trkpt lat="45.32019" lon="4.68209">
        <ele>692.20001220703</ele>
        <time>2026-05-12T13:23:48.000Z</time>
      </trkpt>
      <trkpt lat="45.32018" lon="4.68205">
        <ele>691.79998779297</ele>
        <time>2026-05-12T13:23:49.000Z</time>
      </trkpt>
      <trkpt lat="45.32016" lon="4.68201">
        <ele>691.20001220703</ele>
        <time>2026-05-12T13:23:50.000Z</time>
      </trkpt>
      <trkpt lat="45.32012" lon="4.68198">
        <ele>690.59997558594</ele>
        <time>2026-05-12T13:23:51.000Z</time>
      </trkpt>
      <trkpt lat="45.32008" lon="4.68195">
        <ele>690</ele>
        <time>2026-05-12T13:23:52.000Z</time>
      </trkpt>
      <trkpt lat="45.32004" lon="4.68192">
        <ele>689.20001220703</ele>
        <time>2026-05-12T13:23:53.000Z</time>
      </trkpt>
      <trkpt lat="45.31999" lon="4.68188">
        <ele>688.59997558594</ele>
        <time>2026-05-12T13:23:54.000Z</time>
      </trkpt>
      <trkpt lat="45.31995" lon="4.68184">
        <ele>688</ele>
        <time>2026-05-12T13:23:55.000Z</time>
      </trkpt>
      <trkpt lat="45.31991" lon="4.68179">
        <ele>687.40002441406</ele>
        <time>2026-05-12T13:23:56.000Z</time>
      </trkpt>
      <trkpt lat="45.31986" lon="4.68173">
        <ele>686.59997558594</ele>
        <time>2026-05-12T13:23:57.000Z</time>
      </trkpt>
      <trkpt lat="45.31983" lon="4.68166">
        <ele>685.79998779297</ele>
        <time>2026-05-12T13:23:58.000Z</time>
      </trkpt>
      <trkpt lat="45.31979" lon="4.68161">
        <ele>685.20001220703</ele>
        <time>2026-05-12T13:23:59.000Z</time>
      </trkpt>
      <trkpt lat="45.31975" lon="4.68155">
        <ele>684.40002441406</ele>
        <time>2026-05-12T13:24:00.000Z</time>
      </trkpt>
      <trkpt lat="45.31972" lon="4.6815">
        <ele>683.79998779297</ele>
        <time>2026-05-12T13:24:01.000Z</time>
      </trkpt>
      <trkpt lat="45.31969" lon="4.68145">
        <ele>683.20001220703</ele>
        <time>2026-05-12T13:24:02.000Z</time>
      </trkpt>
      <trkpt lat="45.31966" lon="4.6814">
        <ele>682.79998779297</ele>
        <time>2026-05-12T13:24:03.000Z</time>
      </trkpt>
      <trkpt lat="45.31964" lon="4.68135">
        <ele>682.40002441406</ele>
        <time>2026-05-12T13:24:04.000Z</time>
      </trkpt>
      <trkpt lat="45.31962" lon="4.68131">
        <ele>682.20001220703</ele>
        <time>2026-05-12T13:24:05.000Z</time>
      </trkpt>
      <trkpt lat="45.3196" lon="4.68127">
        <ele>681.79998779297</ele>
        <time>2026-05-12T13:24:06.000Z</time>
      </trkpt>
      <trkpt lat="45.31958" lon="4.68123">
        <ele>681.40002441406</ele>
        <time>2026-05-12T13:24:07.000Z</time>
      </trkpt>
      <trkpt lat="45.31957" lon="4.68119">
        <ele>681.20001220703</ele>
        <time>2026-05-12T13:24:08.000Z</time>
      </trkpt>
      <trkpt lat="45.31957" lon="4.68114">
        <ele>680.79998779297</ele>
        <time>2026-05-12T13:24:09.000Z</time>
      </trkpt>
      <trkpt lat="45.31957" lon="4.68109">
        <ele>680.40002441406</ele>
        <time>2026-05-12T13:24:10.000Z</time>
      </trkpt>
      <trkpt lat="45.31959" lon="4.68101">
        <ele>679.59997558594</ele>
        <time>2026-05-12T13:24:11.000Z</time>
      </trkpt>
      <trkpt lat="45.3196" lon="4.68093">
        <ele>678.79998779297</ele>
        <time>2026-05-12T13:24:12.000Z</time>
      </trkpt>
      <trkpt lat="45.31962" lon="4.68086">
        <ele>678.20001220703</ele>
        <time>2026-05-12T13:24:13.000Z</time>
      </trkpt>
      <trkpt lat="45.31964" lon="4.68077">
        <ele>677.59997558594</ele>
        <time>2026-05-12T13:24:14.000Z</time>
      </trkpt>
      <trkpt lat="45.31967" lon="4.68067">
        <ele>676.79998779297</ele>
        <time>2026-05-12T13:24:15.000Z</time>
      </trkpt>
      <trkpt lat="45.3197" lon="4.68058">
        <ele>676.20001220703</ele>
        <time>2026-05-12T13:24:16.000Z</time>
      </trkpt>
      <trkpt lat="45.31973" lon="4.6805">
        <ele>675.79998779297</ele>
        <time>2026-05-12T13:24:17.000Z</time>
      </trkpt>
      <trkpt lat="45.31978" lon="4.68041">
        <ele>675.20001220703</ele>
        <time>2026-05-12T13:24:18.000Z</time>
      </trkpt>
      <trkpt lat="45.31981" lon="4.68033">
        <ele>674.79998779297</ele>
        <time>2026-05-12T13:24:19.000Z</time>
      </trkpt>
      <trkpt lat="45.31985" lon="4.68026">
        <ele>674.40002441406</ele>
        <time>2026-05-12T13:24:20.000Z</time>
      </trkpt>
      <trkpt lat="45.3199" lon="4.68019">
        <ele>674.20001220703</ele>
        <time>2026-05-12T13:24:21.000Z</time>
      </trkpt>
      <trkpt lat="45.31995" lon="4.68012">
        <ele>674.20001220703</ele>
        <time>2026-05-12T13:24:22.000Z</time>
      </trkpt>
      <trkpt lat="45.31998" lon="4.68006">
        <ele>674.20001220703</ele>
        <time>2026-05-12T13:24:23.000Z</time>
      </trkpt>
      <trkpt lat="45.32002" lon="4.68">
        <ele>674.40002441406</ele>
        <time>2026-05-12T13:24:24.000Z</time>
      </trkpt>
      <trkpt lat="45.32005" lon="4.67995">
        <ele>674.59997558594</ele>
        <time>2026-05-12T13:24:25.000Z</time>
      </trkpt>
      <trkpt lat="45.32006" lon="4.67991">
        <ele>674.79998779297</ele>
        <time>2026-05-12T13:24:26.000Z</time>
      </trkpt>
      <trkpt lat="45.3201" lon="4.67986">
        <ele>674.79998779297</ele>
        <time>2026-05-12T13:24:27.000Z</time>
      </trkpt>
      <trkpt lat="45.32014" lon="4.67982">
        <ele>675</ele>
        <time>2026-05-12T13:24:28.000Z</time>
      </trkpt>
      <trkpt lat="45.32018" lon="4.67977">
        <ele>675.20001220703</ele>
        <time>2026-05-12T13:24:29.000Z</time>
      </trkpt>
      <trkpt lat="45.3202" lon="4.67973">
        <ele>675.20001220703</ele>
        <time>2026-05-12T13:24:30.000Z</time>
      </trkpt>
      <trkpt lat="45.32023" lon="4.67968">
        <ele>675.40002441406</ele>
        <time>2026-05-12T13:24:31.000Z</time>
      </trkpt>
      <trkpt lat="45.32027" lon="4.67964">
        <ele>675.40002441406</ele>
        <time>2026-05-12T13:24:32.000Z</time>
      </trkpt>
      <trkpt lat="45.32031" lon="4.67959">
        <ele>675.20001220703</ele>
        <time>2026-05-12T13:24:33.000Z</time>
      </trkpt>
      <trkpt lat="45.32036" lon="4.67953">
        <ele>675</ele>
        <time>2026-05-12T13:24:34.000Z</time>
      </trkpt>
      <trkpt lat="45.3204" lon="4.67947">
        <ele>674.59997558594</ele>
        <time>2026-05-12T13:24:35.000Z</time>
      </trkpt>
      <trkpt lat="45.32043" lon="4.67941">
        <ele>674</ele>
        <time>2026-05-12T13:24:36.000Z</time>
      </trkpt>
      <trkpt lat="45.32044" lon="4.67934">
        <ele>673.40002441406</ele>
        <time>2026-05-12T13:24:37.000Z</time>
      </trkpt>
      <trkpt lat="45.32047" lon="4.67927">
        <ele>672.79998779297</ele>
        <time>2026-05-12T13:24:38.000Z</time>
      </trkpt>
      <trkpt lat="45.32051" lon="4.6792">
        <ele>672.40002441406</ele>
        <time>2026-05-12T13:24:39.000Z</time>
      </trkpt>
      <trkpt lat="45.32056" lon="4.67914">
        <ele>671.79998779297</ele>
        <time>2026-05-12T13:24:40.000Z</time>
      </trkpt>
      <trkpt lat="45.32061" lon="4.67909">
        <ele>671.20001220703</ele>
        <time>2026-05-12T13:24:41.000Z</time>
      </trkpt>
      <trkpt lat="45.32065" lon="4.67903">
        <ele>670.59997558594</ele>
        <time>2026-05-12T13:24:42.000Z</time>
      </trkpt>
      <trkpt lat="45.3207" lon="4.67898">
        <ele>670</ele>
        <time>2026-05-12T13:24:43.000Z</time>
      </trkpt>
      <trkpt lat="45.32075" lon="4.67893">
        <ele>669.40002441406</ele>
        <time>2026-05-12T13:24:44.000Z</time>
      </trkpt>
      <trkpt lat="45.3208" lon="4.67888">
        <ele>668.79998779297</ele>
        <time>2026-05-12T13:24:45.000Z</time>
      </trkpt>
      <trkpt lat="45.32084" lon="4.67883">
        <ele>668.20001220703</ele>
        <time>2026-05-12T13:24:46.000Z</time>
      </trkpt>
      <trkpt lat="45.32087" lon="4.67877">
        <ele>667.79998779297</ele>
        <time>2026-05-12T13:24:47.000Z</time>
      </trkpt>
      <trkpt lat="45.3209" lon="4.6787">
        <ele>667.40002441406</ele>
        <time>2026-05-12T13:24:48.000Z</time>
      </trkpt>
      <trkpt lat="45.32091" lon="4.67862">
        <ele>667</ele>
        <time>2026-05-12T13:24:49.000Z</time>
      </trkpt>
      <trkpt lat="45.32091" lon="4.67854">
        <ele>666.59997558594</ele>
        <time>2026-05-12T13:24:50.000Z</time>
      </trkpt>
      <trkpt lat="45.32091" lon="4.67846">
        <ele>666</ele>
        <time>2026-05-12T13:24:51.000Z</time>
      </trkpt>
      <trkpt lat="45.3209" lon="4.67837">
        <ele>665.40002441406</ele>
        <time>2026-05-12T13:24:52.000Z</time>
      </trkpt>
      <trkpt lat="45.32089" lon="4.67828">
        <ele>665</ele>
        <time>2026-05-12T13:24:53.000Z</time>
      </trkpt>
      <trkpt lat="45.32088" lon="4.67818">
        <ele>664.40002441406</ele>
        <time>2026-05-12T13:24:54.000Z</time>
      </trkpt>
      <trkpt lat="45.32087" lon="4.67808">
        <ele>664</ele>
        <time>2026-05-12T13:24:55.000Z</time>
      </trkpt>
      <trkpt lat="45.32085" lon="4.67797">
        <ele>663.40002441406</ele>
        <time>2026-05-12T13:24:56.000Z</time>
      </trkpt>
      <trkpt lat="45.32083" lon="4.67785">
        <ele>662.59997558594</ele>
        <time>2026-05-12T13:24:57.000Z</time>
      </trkpt>
      <trkpt lat="45.32081" lon="4.67773">
        <ele>661.79998779297</ele>
        <time>2026-05-12T13:24:58.000Z</time>
      </trkpt>
      <trkpt lat="45.32079" lon="4.67761">
        <ele>660.79998779297</ele>
        <time>2026-05-12T13:24:59.000Z</time>
      </trkpt>
      <trkpt lat="45.32077" lon="4.67749">
        <ele>660</ele>
        <time>2026-05-12T13:25:00.000Z</time>
      </trkpt>
      <trkpt lat="45.32075" lon="4.67737">
        <ele>659.20001220703</ele>
        <time>2026-05-12T13:25:01.000Z</time>
      </trkpt>
      <trkpt lat="45.32073" lon="4.67727">
        <ele>658.40002441406</ele>
        <time>2026-05-12T13:25:02.000Z</time>
      </trkpt>
      <trkpt lat="45.32071" lon="4.67716">
        <ele>657.79998779297</ele>
        <time>2026-05-12T13:25:03.000Z</time>
      </trkpt>
      <trkpt lat="45.3207" lon="4.67705">
        <ele>657.20001220703</ele>
        <time>2026-05-12T13:25:04.000Z</time>
      </trkpt>
      <trkpt lat="45.32069" lon="4.67694">
        <ele>656.59997558594</ele>
        <time>2026-05-12T13:25:05.000Z</time>
      </trkpt>
      <trkpt lat="45.32068" lon="4.67683">
        <ele>656</ele>
        <time>2026-05-12T13:25:06.000Z</time>
      </trkpt>
      <trkpt lat="45.32068" lon="4.67674">
        <ele>655.59997558594</ele>
        <time>2026-05-12T13:25:07.000Z</time>
      </trkpt>
      <trkpt lat="45.32069" lon="4.67665">
        <ele>655</ele>
        <time>2026-05-12T13:25:08.000Z</time>
      </trkpt>
      <trkpt lat="45.32072" lon="4.67658">
        <ele>654.59997558594</ele>
        <time>2026-05-12T13:25:09.000Z</time>
      </trkpt>
      <trkpt lat="45.32076" lon="4.67651">
        <ele>654</ele>
        <time>2026-05-12T13:25:10.000Z</time>
      </trkpt>
      <trkpt lat="45.3208" lon="4.67645">
        <ele>653.59997558594</ele>
        <time>2026-05-12T13:25:11.000Z</time>
      </trkpt>
      <trkpt lat="45.32085" lon="4.67638">
        <ele>653.20001220703</ele>
        <time>2026-05-12T13:25:12.000Z</time>
      </trkpt>
      <trkpt lat="45.32088" lon="4.6763">
        <ele>652.79998779297</ele>
        <time>2026-05-12T13:25:13.000Z</time>
      </trkpt>
      <trkpt lat="45.32091" lon="4.67622">
        <ele>652.40002441406</ele>
        <time>2026-05-12T13:25:14.000Z</time>
      </trkpt>
      <trkpt lat="45.32093" lon="4.67614">
        <ele>652</ele>
        <time>2026-05-12T13:25:15.000Z</time>
      </trkpt>
      <trkpt lat="45.32094" lon="4.67605">
        <ele>651.59997558594</ele>
        <time>2026-05-12T13:25:16.000Z</time>
      </trkpt>
      <trkpt lat="45.32096" lon="4.67596">
        <ele>651</ele>
        <time>2026-05-12T13:25:17.000Z</time>
      </trkpt>
      <trkpt lat="45.32096" lon="4.67586">
        <ele>650.40002441406</ele>
        <time>2026-05-12T13:25:18.000Z</time>
      </trkpt>
      <trkpt lat="45.32096" lon="4.67575">
        <ele>649.79998779297</ele>
        <time>2026-05-12T13:25:19.000Z</time>
      </trkpt>
      <trkpt lat="45.32096" lon="4.67566">
        <ele>649.20001220703</ele>
        <time>2026-05-12T13:25:20.000Z</time>
      </trkpt>
      <trkpt lat="45.32095" lon="4.67556">
        <ele>648.59997558594</ele>
        <time>2026-05-12T13:25:21.000Z</time>
      </trkpt>
      <trkpt lat="45.32096" lon="4.67546">
        <ele>648</ele>
        <time>2026-05-12T13:25:22.000Z</time>
      </trkpt>
      <trkpt lat="45.32095" lon="4.67537">
        <ele>647.40002441406</ele>
        <time>2026-05-12T13:25:23.000Z</time>
      </trkpt>
      <trkpt lat="45.32092" lon="4.67528">
        <ele>646.59997558594</ele>
        <time>2026-05-12T13:25:24.000Z</time>
      </trkpt>
      <trkpt lat="45.32089" lon="4.6752">
        <ele>646.20001220703</ele>
        <time>2026-05-12T13:25:25.000Z</time>
      </trkpt>
      <trkpt lat="45.32085" lon="4.67512">
        <ele>645.59997558594</ele>
        <time>2026-05-12T13:25:26.000Z</time>
      </trkpt>
      <trkpt lat="45.32081" lon="4.67506">
        <ele>645.20001220703</ele>
        <time>2026-05-12T13:25:27.000Z</time>
      </trkpt>
      <trkpt lat="45.32077" lon="4.67498">
        <ele>644.59997558594</ele>
        <time>2026-05-12T13:25:28.000Z</time>
      </trkpt>
      <trkpt lat="45.32074" lon="4.67493">
        <ele>644.20001220703</ele>
        <time>2026-05-12T13:25:29.000Z</time>
      </trkpt>
      <trkpt lat="45.3207" lon="4.67488">
        <ele>643.79998779297</ele>
        <time>2026-05-12T13:25:30.000Z</time>
      </trkpt>
      <trkpt lat="45.32065" lon="4.67481">
        <ele>643.40002441406</ele>
        <time>2026-05-12T13:25:31.000Z</time>
      </trkpt>
      <trkpt lat="45.32061" lon="4.67476">
        <ele>643</ele>
        <time>2026-05-12T13:25:32.000Z</time>
      </trkpt>
      <trkpt lat="45.32058" lon="4.67471">
        <ele>642.79998779297</ele>
        <time>2026-05-12T13:25:33.000Z</time>
      </trkpt>
      <trkpt lat="45.32056" lon="4.67466">
        <ele>642.40002441406</ele>
        <time>2026-05-12T13:25:34.000Z</time>
      </trkpt>
      <trkpt lat="45.32055" lon="4.67461">
        <ele>642.20001220703</ele>
        <time>2026-05-12T13:25:35.000Z</time>
      </trkpt>
      <trkpt lat="45.32054" lon="4.67456">
        <ele>642</ele>
        <time>2026-05-12T13:25:36.000Z</time>
      </trkpt>
      <trkpt lat="45.32055" lon="4.67451">
        <ele>641.79998779297</ele>
        <time>2026-05-12T13:25:37.000Z</time>
      </trkpt>
      <trkpt lat="45.32057" lon="4.67447">
        <ele>641.59997558594</ele>
        <time>2026-05-12T13:25:38.000Z</time>
      </trkpt>
      <trkpt lat="45.3206" lon="4.67444">
        <ele>641.20001220703</ele>
        <time>2026-05-12T13:25:39.000Z</time>
      </trkpt>
      <trkpt lat="45.32063" lon="4.67441">
        <ele>640.79998779297</ele>
        <time>2026-05-12T13:25:40.000Z</time>
      </trkpt>
      <trkpt lat="45.32065" lon="4.67438">
        <ele>640.40002441406</ele>
        <time>2026-05-12T13:25:41.000Z</time>
      </trkpt>
      <trkpt lat="45.32068" lon="4.67434">
        <ele>640</ele>
        <time>2026-05-12T13:25:42.000Z</time>
      </trkpt>
      <trkpt lat="45.32071" lon="4.67428">
        <ele>639.59997558594</ele>
        <time>2026-05-12T13:25:43.000Z</time>
      </trkpt>
      <trkpt lat="45.32073" lon="4.67422">
        <ele>639</ele>
        <time>2026-05-12T13:25:44.000Z</time>
      </trkpt>
      <trkpt lat="45.32075" lon="4.67415">
        <ele>638.59997558594</ele>
        <time>2026-05-12T13:25:45.000Z</time>
      </trkpt>
      <trkpt lat="45.32074" lon="4.67407">
        <ele>638</ele>
        <time>2026-05-12T13:25:46.000Z</time>
      </trkpt>
      <trkpt lat="45.32072" lon="4.67399">
        <ele>637.59997558594</ele>
        <time>2026-05-12T13:25:47.000Z</time>
      </trkpt>
      <trkpt lat="45.3207" lon="4.67391">
        <ele>637</ele>
        <time>2026-05-12T13:25:48.000Z</time>
      </trkpt>
      <trkpt lat="45.32067" lon="4.67383">
        <ele>636.20001220703</ele>
        <time>2026-05-12T13:25:49.000Z</time>
      </trkpt>
      <trkpt lat="45.32064" lon="4.67374">
        <ele>635.59997558594</ele>
        <time>2026-05-12T13:25:50.000Z</time>
      </trkpt>
      <trkpt lat="45.32061" lon="4.67366">
        <ele>634.79998779297</ele>
        <time>2026-05-12T13:25:51.000Z</time>
      </trkpt>
      <trkpt lat="45.32057" lon="4.67359">
        <ele>634</ele>
        <time>2026-05-12T13:25:52.000Z</time>
      </trkpt>
      <trkpt lat="45.32054" lon="4.67354">
        <ele>633.40002441406</ele>
        <time>2026-05-12T13:25:53.000Z</time>
      </trkpt>
      <trkpt lat="45.32048" lon="4.67348">
        <ele>632.79998779297</ele>
        <time>2026-05-12T13:25:54.000Z</time>
      </trkpt>
      <trkpt lat="45.32044" lon="4.67343">
        <ele>632.40002441406</ele>
        <time>2026-05-12T13:25:55.000Z</time>
      </trkpt>
      <trkpt lat="45.3204" lon="4.67338">
        <ele>632.20001220703</ele>
        <time>2026-05-12T13:25:56.000Z</time>
      </trkpt>
      <trkpt lat="45.32036" lon="4.67334">
        <ele>632</ele>
        <time>2026-05-12T13:25:57.000Z</time>
      </trkpt>
      <trkpt lat="45.32034" lon="4.67328">
        <ele>631.79998779297</ele>
        <time>2026-05-12T13:25:58.000Z</time>
      </trkpt>
      <trkpt lat="45.32033" lon="4.67322">
        <ele>631.40002441406</ele>
        <time>2026-05-12T13:25:59.000Z</time>
      </trkpt>
      <trkpt lat="45.32034" lon="4.67315">
        <ele>630.79998779297</ele>
        <time>2026-05-12T13:26:00.000Z</time>
      </trkpt>
      <trkpt lat="45.32034" lon="4.67308">
        <ele>630.20001220703</ele>
        <time>2026-05-12T13:26:01.000Z</time>
      </trkpt>
      <trkpt lat="45.32036" lon="4.673">
        <ele>629.59997558594</ele>
        <time>2026-05-12T13:26:02.000Z</time>
      </trkpt>
      <trkpt lat="45.32039" lon="4.67293">
        <ele>629</ele>
        <time>2026-05-12T13:26:03.000Z</time>
      </trkpt>
      <trkpt lat="45.32042" lon="4.67286">
        <ele>628.59997558594</ele>
        <time>2026-05-12T13:26:04.000Z</time>
      </trkpt>
      <trkpt lat="45.32046" lon="4.67281">
        <ele>628.20001220703</ele>
        <time>2026-05-12T13:26:05.000Z</time>
      </trkpt>
      <trkpt lat="45.3205" lon="4.67274">
        <ele>627.79998779297</ele>
        <time>2026-05-12T13:26:06.000Z</time>
      </trkpt>
      <trkpt lat="45.32054" lon="4.67266">
        <ele>627.40002441406</ele>
        <time>2026-05-12T13:26:07.000Z</time>
      </trkpt>
      <trkpt lat="45.32056" lon="4.67258">
        <ele>627</ele>
        <time>2026-05-12T13:26:08.000Z</time>
      </trkpt>
      <trkpt lat="45.32057" lon="4.6725">
        <ele>626.40002441406</ele>
        <time>2026-05-12T13:26:09.000Z</time>
      </trkpt>
      <trkpt lat="45.32057" lon="4.6724">
        <ele>625.79998779297</ele>
        <time>2026-05-12T13:26:10.000Z</time>
      </trkpt>
      <trkpt lat="45.32057" lon="4.6723">
        <ele>625.40002441406</ele>
        <time>2026-05-12T13:26:11.000Z</time>
      </trkpt>
      <trkpt lat="45.32058" lon="4.67221">
        <ele>624.79998779297</ele>
        <time>2026-05-12T13:26:12.000Z</time>
      </trkpt>
      <trkpt lat="45.32059" lon="4.67211">
        <ele>624.20001220703</ele>
        <time>2026-05-12T13:26:13.000Z</time>
      </trkpt>
      <trkpt lat="45.32059" lon="4.67202">
        <ele>623.59997558594</ele>
        <time>2026-05-12T13:26:14.000Z</time>
      </trkpt>
      <trkpt lat="45.32058" lon="4.67193">
        <ele>623</ele>
        <time>2026-05-12T13:26:15.000Z</time>
      </trkpt>
      <trkpt lat="45.32058" lon="4.67183">
        <ele>622.40002441406</ele>
        <time>2026-05-12T13:26:16.000Z</time>
      </trkpt>
      <trkpt lat="45.32059" lon="4.67172">
        <ele>621.79998779297</ele>
        <time>2026-05-12T13:26:17.000Z</time>
      </trkpt>
      <trkpt lat="45.3206" lon="4.67162">
        <ele>621</ele>
        <time>2026-05-12T13:26:18.000Z</time>
      </trkpt>
      <trkpt lat="45.32061" lon="4.67151">
        <ele>620.20001220703</ele>
        <time>2026-05-12T13:26:19.000Z</time>
      </trkpt>
      <trkpt lat="45.32063" lon="4.6714">
        <ele>619.40002441406</ele>
        <time>2026-05-12T13:26:20.000Z</time>
      </trkpt>
      <trkpt lat="45.32064" lon="4.6713">
        <ele>618.59997558594</ele>
        <time>2026-05-12T13:26:21.000Z</time>
      </trkpt>
      <trkpt lat="45.32066" lon="4.67119">
        <ele>617.79998779297</ele>
        <time>2026-05-12T13:26:22.000Z</time>
      </trkpt>
      <trkpt lat="45.32067" lon="4.67107">
        <ele>617</ele>
        <time>2026-05-12T13:26:23.000Z</time>
      </trkpt>
      <trkpt lat="45.32068" lon="4.67098">
        <ele>616.59997558594</ele>
        <time>2026-05-12T13:26:24.000Z</time>
      </trkpt>
      <trkpt lat="45.32069" lon="4.67088">
        <ele>616</ele>
        <time>2026-05-12T13:26:25.000Z</time>
      </trkpt>
      <trkpt lat="45.3207" lon="4.67078">
        <ele>615.59997558594</ele>
        <time>2026-05-12T13:26:26.000Z</time>
      </trkpt>
      <trkpt lat="45.32071" lon="4.67067">
        <ele>615.20001220703</ele>
        <time>2026-05-12T13:26:27.000Z</time>
      </trkpt>
      <trkpt lat="45.32071" lon="4.67057">
        <ele>614.79998779297</ele>
        <time>2026-05-12T13:26:28.000Z</time>
      </trkpt>
      <trkpt lat="45.3207" lon="4.67048">
        <ele>614.40002441406</ele>
        <time>2026-05-12T13:26:29.000Z</time>
      </trkpt>
      <trkpt lat="45.32069" lon="4.67038">
        <ele>614</ele>
        <time>2026-05-12T13:26:30.000Z</time>
      </trkpt>
      <trkpt lat="45.32067" lon="4.67029">
        <ele>613.40002441406</ele>
        <time>2026-05-12T13:26:31.000Z</time>
      </trkpt>
      <trkpt lat="45.32064" lon="4.6702">
        <ele>612.79998779297</ele>
        <time>2026-05-12T13:26:32.000Z</time>
      </trkpt>
      <trkpt lat="45.32061" lon="4.67012">
        <ele>612.40002441406</ele>
        <time>2026-05-12T13:26:33.000Z</time>
      </trkpt>
      <trkpt lat="45.32058" lon="4.67004">
        <ele>611.79998779297</ele>
        <time>2026-05-12T13:26:34.000Z</time>
      </trkpt>
      <trkpt lat="45.32055" lon="4.66996">
        <ele>611.20001220703</ele>
        <time>2026-05-12T13:26:35.000Z</time>
      </trkpt>
      <trkpt lat="45.32051" lon="4.66988">
        <ele>610.59997558594</ele>
        <time>2026-05-12T13:26:36.000Z</time>
      </trkpt>
      <trkpt lat="45.32048" lon="4.66981">
        <ele>610.20001220703</ele>
        <time>2026-05-12T13:26:37.000Z</time>
      </trkpt>
      <trkpt lat="45.32044" lon="4.66974">
        <ele>609.59997558594</ele>
        <time>2026-05-12T13:26:38.000Z</time>
      </trkpt>
      <trkpt lat="45.32039" lon="4.66964">
        <ele>609</ele>
        <time>2026-05-12T13:26:39.000Z</time>
      </trkpt>
      <trkpt lat="45.32035" lon="4.66956">
        <ele>608.40002441406</ele>
        <time>2026-05-12T13:26:40.000Z</time>
      </trkpt>
      <trkpt lat="45.32032" lon="4.66949">
        <ele>607.79998779297</ele>
        <time>2026-05-12T13:26:41.000Z</time>
      </trkpt>
      <trkpt lat="45.32029" lon="4.66939">
        <ele>607.20001220703</ele>
        <time>2026-05-12T13:26:42.000Z</time>
      </trkpt>
      <trkpt lat="45.32026" lon="4.66929">
        <ele>606.59997558594</ele>
        <time>2026-05-12T13:26:43.000Z</time>
      </trkpt>
      <trkpt lat="45.32023" lon="4.6692">
        <ele>606</ele>
        <time>2026-05-12T13:26:44.000Z</time>
      </trkpt>
      <trkpt lat="45.3202" lon="4.66912">
        <ele>605.59997558594</ele>
        <time>2026-05-12T13:26:45.000Z</time>
      </trkpt>
      <trkpt lat="45.32017" lon="4.66904">
        <ele>605.20001220703</ele>
        <time>2026-05-12T13:26:46.000Z</time>
      </trkpt>
      <trkpt lat="45.32014" lon="4.66895">
        <ele>604.59997558594</ele>
        <time>2026-05-12T13:26:47.000Z</time>
      </trkpt>
      <trkpt lat="45.32012" lon="4.66889">
        <ele>604.20001220703</ele>
        <time>2026-05-12T13:26:48.000Z</time>
      </trkpt>
      <trkpt lat="45.32009" lon="4.66879">
        <ele>603.59997558594</ele>
        <time>2026-05-12T13:26:49.000Z</time>
      </trkpt>
      <trkpt lat="45.32007" lon="4.66868">
        <ele>603</ele>
        <time>2026-05-12T13:26:50.000Z</time>
      </trkpt>
      <trkpt lat="45.32005" lon="4.6686">
        <ele>602.40002441406</ele>
        <time>2026-05-12T13:26:51.000Z</time>
      </trkpt>
      <trkpt lat="45.32003" lon="4.66852">
        <ele>601.79998779297</ele>
        <time>2026-05-12T13:26:52.000Z</time>
      </trkpt>
      <trkpt lat="45.32001" lon="4.66843">
        <ele>601.20001220703</ele>
        <time>2026-05-12T13:26:53.000Z</time>
      </trkpt>
      <trkpt lat="45.31999" lon="4.66835">
        <ele>600.59997558594</ele>
        <time>2026-05-12T13:26:54.000Z</time>
      </trkpt>
      <trkpt lat="45.31996" lon="4.66826">
        <ele>600.20001220703</ele>
        <time>2026-05-12T13:26:55.000Z</time>
      </trkpt>
      <trkpt lat="45.31993" lon="4.66818">
        <ele>599.59997558594</ele>
        <time>2026-05-12T13:26:56.000Z</time>
      </trkpt>
      <trkpt lat="45.3199" lon="4.66811">
        <ele>599.20001220703</ele>
        <time>2026-05-12T13:26:57.000Z</time>
      </trkpt>
      <trkpt lat="45.31986" lon="4.66804">
        <ele>598.59997558594</ele>
        <time>2026-05-12T13:26:58.000Z</time>
      </trkpt>
      <trkpt lat="45.31982" lon="4.66797">
        <ele>598.20001220703</ele>
        <time>2026-05-12T13:26:59.000Z</time>
      </trkpt>
      <trkpt lat="45.31977" lon="4.66791">
        <ele>597.79998779297</ele>
        <time>2026-05-12T13:27:00.000Z</time>
      </trkpt>
      <trkpt lat="45.31972" lon="4.66786">
        <ele>597.40002441406</ele>
        <time>2026-05-12T13:27:01.000Z</time>
      </trkpt>
      <trkpt lat="45.31968" lon="4.66782">
        <ele>596.79998779297</ele>
        <time>2026-05-12T13:27:02.000Z</time>
      </trkpt>
      <trkpt lat="45.31964" lon="4.66778">
        <ele>596.59997558594</ele>
        <time>2026-05-12T13:27:03.000Z</time>
      </trkpt>
      <trkpt lat="45.31959" lon="4.66773">
        <ele>596.20001220703</ele>
        <time>2026-05-12T13:27:04.000Z</time>
      </trkpt>
      <trkpt lat="45.31956" lon="4.66768">
        <ele>595.79998779297</ele>
        <time>2026-05-12T13:27:05.000Z</time>
      </trkpt>
      <trkpt lat="45.31953" lon="4.66762">
        <ele>595.40002441406</ele>
        <time>2026-05-12T13:27:06.000Z</time>
      </trkpt>
      <trkpt lat="45.31949" lon="4.66752">
        <ele>595</ele>
        <time>2026-05-12T13:27:07.000Z</time>
      </trkpt>
      <trkpt lat="45.31948" lon="4.66746">
        <ele>594.59997558594</ele>
        <time>2026-05-12T13:27:08.000Z</time>
      </trkpt>
      <trkpt lat="45.31946" lon="4.66736">
        <ele>594.20001220703</ele>
        <time>2026-05-12T13:27:09.000Z</time>
      </trkpt>
      <trkpt lat="45.31946" lon="4.66731">
        <ele>593.79998779297</ele>
        <time>2026-05-12T13:27:10.000Z</time>
      </trkpt>
      <trkpt lat="45.31947" lon="4.66722">
        <ele>593.20001220703</ele>
        <time>2026-05-12T13:27:11.000Z</time>
      </trkpt>
      <trkpt lat="45.3195" lon="4.66715">
        <ele>592.79998779297</ele>
        <time>2026-05-12T13:27:12.000Z</time>
      </trkpt>
      <trkpt lat="45.31955" lon="4.66709">
        <ele>592.40002441406</ele>
        <time>2026-05-12T13:27:13.000Z</time>
      </trkpt>
      <trkpt lat="45.31959" lon="4.66705">
        <ele>591.79998779297</ele>
        <time>2026-05-12T13:27:14.000Z</time>
      </trkpt>
      <trkpt lat="45.31963" lon="4.66699">
        <ele>591.40002441406</ele>
        <time>2026-05-12T13:27:15.000Z</time>
      </trkpt>
      <trkpt lat="45.31968" lon="4.66694">
        <ele>590.79998779297</ele>
        <time>2026-05-12T13:27:16.000Z</time>
      </trkpt>
      <trkpt lat="45.31972" lon="4.66688">
        <ele>590.40002441406</ele>
        <time>2026-05-12T13:27:17.000Z</time>
      </trkpt>
      <trkpt lat="45.31976" lon="4.66683">
        <ele>589.79998779297</ele>
        <time>2026-05-12T13:27:18.000Z</time>
      </trkpt>
      <trkpt lat="45.31981" lon="4.66676">
        <ele>589.40002441406</ele>
        <time>2026-05-12T13:27:19.000Z</time>
      </trkpt>
      <trkpt lat="45.31985" lon="4.66668">
        <ele>588.79998779297</ele>
        <time>2026-05-12T13:27:20.000Z</time>
      </trkpt>
      <trkpt lat="45.3199" lon="4.6666">
        <ele>588.20001220703</ele>
        <time>2026-05-12T13:27:21.000Z</time>
      </trkpt>
      <trkpt lat="45.31994" lon="4.66651">
        <ele>587.79998779297</ele>
        <time>2026-05-12T13:27:22.000Z</time>
      </trkpt>
      <trkpt lat="45.31996" lon="4.66644">
        <ele>587.20001220703</ele>
        <time>2026-05-12T13:27:23.000Z</time>
      </trkpt>
      <trkpt lat="45.31999" lon="4.66636">
        <ele>586.79998779297</ele>
        <time>2026-05-12T13:27:24.000Z</time>
      </trkpt>
      <trkpt lat="45.32001" lon="4.66628">
        <ele>586.40002441406</ele>
        <time>2026-05-12T13:27:25.000Z</time>
      </trkpt>
      <trkpt lat="45.32001" lon="4.66621">
        <ele>585.79998779297</ele>
        <time>2026-05-12T13:27:26.000Z</time>
      </trkpt>
      <trkpt lat="45.32002" lon="4.66613">
        <ele>585.59997558594</ele>
        <time>2026-05-12T13:27:27.000Z</time>
      </trkpt>
      <trkpt lat="45.32002" lon="4.66605">
        <ele>585.20001220703</ele>
        <time>2026-05-12T13:27:28.000Z</time>
      </trkpt>
      <trkpt lat="45.32001" lon="4.66598">
        <ele>584.59997558594</ele>
        <time>2026-05-12T13:27:29.000Z</time>
      </trkpt>
      <trkpt lat="45.31999" lon="4.6659">
        <ele>584.40002441406</ele>
        <time>2026-05-12T13:27:30.000Z</time>
      </trkpt>
      <trkpt lat="45.31997" lon="4.66582">
        <ele>584</ele>
        <time>2026-05-12T13:27:31.000Z</time>
      </trkpt>
      <trkpt lat="45.31994" lon="4.66576">
        <ele>583.59997558594</ele>
        <time>2026-05-12T13:27:32.000Z</time>
      </trkpt>
      <trkpt lat="45.31992" lon="4.66569">
        <ele>583.20001220703</ele>
        <time>2026-05-12T13:27:33.000Z</time>
      </trkpt>
      <trkpt lat="45.31988" lon="4.66563">
        <ele>582.79998779297</ele>
        <time>2026-05-12T13:27:34.000Z</time>
      </trkpt>
      <trkpt lat="45.31985" lon="4.66557">
        <ele>582.40002441406</ele>
        <time>2026-05-12T13:27:35.000Z</time>
      </trkpt>
      <trkpt lat="45.31983" lon="4.66552">
        <ele>582.20001220703</ele>
        <time>2026-05-12T13:27:36.000Z</time>
      </trkpt>
      <trkpt lat="45.31981" lon="4.66547">
        <ele>581.79998779297</ele>
        <time>2026-05-12T13:27:37.000Z</time>
      </trkpt>
      <trkpt lat="45.31979" lon="4.6654">
        <ele>581.59997558594</ele>
        <time>2026-05-12T13:27:38.000Z</time>
      </trkpt>
      <trkpt lat="45.31977" lon="4.66532">
        <ele>581.40002441406</ele>
        <time>2026-05-12T13:27:39.000Z</time>
      </trkpt>
      <trkpt lat="45.31975" lon="4.66525">
        <ele>581</ele>
        <time>2026-05-12T13:27:40.000Z</time>
      </trkpt>
      <trkpt lat="45.31974" lon="4.6652">
        <ele>581</ele>
        <time>2026-05-12T13:27:41.000Z</time>
      </trkpt>
      <trkpt lat="45.31972" lon="4.66513">
        <ele>581</ele>
        <time>2026-05-12T13:27:42.000Z</time>
      </trkpt>
      <trkpt lat="45.3197" lon="4.66509">
        <ele>581</ele>
        <time>2026-05-12T13:27:43.000Z</time>
      </trkpt>
      <trkpt lat="45.31969" lon="4.66506">
        <ele>581.20001220703</ele>
        <time>2026-05-12T13:27:44.000Z</time>
      </trkpt>
      <trkpt lat="45.31968" lon="4.66503">
        <ele>581.40002441406</ele>
        <time>2026-05-12T13:27:45.000Z</time>
      </trkpt>
      <trkpt lat="45.31967" lon="4.665">
        <ele>581.79998779297</ele>
        <time>2026-05-12T13:27:46.000Z</time>
      </trkpt>
      <trkpt lat="45.31965" lon="4.66497">
        <ele>582</ele>
        <time>2026-05-12T13:27:47.000Z</time>
      </trkpt>
      <trkpt lat="45.31964" lon="4.66494">
        <ele>582.20001220703</ele>
        <time>2026-05-12T13:27:48.000Z</time>
      </trkpt>
      <trkpt lat="45.31962" lon="4.66491">
        <ele>582.40002441406</ele>
        <time>2026-05-12T13:27:49.000Z</time>
      </trkpt>
      <trkpt lat="45.3196" lon="4.66489">
        <ele>582.59997558594</ele>
        <time>2026-05-12T13:27:50.000Z</time>
      </trkpt>
      <trkpt lat="45.31958" lon="4.66486">
        <ele>582.79998779297</ele>
        <time>2026-05-12T13:27:51.000Z</time>
      </trkpt>
      <trkpt lat="45.31956" lon="4.66483">
        <ele>583</ele>
        <time>2026-05-12T13:27:52.000Z</time>
      </trkpt>
      <trkpt lat="45.31954" lon="4.66481">
        <ele>583.20001220703</ele>
        <time>2026-05-12T13:27:53.000Z</time>
      </trkpt>
      <trkpt lat="45.31953" lon="4.66478">
        <ele>583.40002441406</ele>
        <time>2026-05-12T13:27:54.000Z</time>
      </trkpt>
      <trkpt lat="45.31952" lon="4.66475">
        <ele>583.59997558594</ele>
        <time>2026-05-12T13:27:55.000Z</time>
      </trkpt>
      <trkpt lat="45.3195" lon="4.66472">
        <ele>583.79998779297</ele>
        <time>2026-05-12T13:27:56.000Z</time>
      </trkpt>
      <trkpt lat="45.31948" lon="4.6647">
        <ele>584</ele>
        <time>2026-05-12T13:27:57.000Z</time>
      </trkpt>
      <trkpt lat="45.31946" lon="4.66469">
        <ele>584.20001220703</ele>
        <time>2026-05-12T13:27:58.000Z</time>
      </trkpt>
      <trkpt lat="45.31945" lon="4.66467">
        <ele>584.40002441406</ele>
        <time>2026-05-12T13:27:59.000Z</time>
      </trkpt>
      <trkpt lat="45.31944" lon="4.66465">
        <ele>584.59997558594</ele>
        <time>2026-05-12T13:28:00.000Z</time>
      </trkpt>
      <trkpt lat="45.31943" lon="4.66462">
        <ele>584.79998779297</ele>
        <time>2026-05-12T13:28:01.000Z</time>
      </trkpt>
      <trkpt lat="45.31942" lon="4.66459">
        <ele>585</ele>
        <time>2026-05-12T13:28:02.000Z</time>
      </trkpt>
      <trkpt lat="45.3194" lon="4.66457">
        <ele>585</ele>
        <time>2026-05-12T13:28:03.000Z</time>
      </trkpt>
      <trkpt lat="45.31938" lon="4.66454">
        <ele>585.20001220703</ele>
        <time>2026-05-12T13:28:04.000Z</time>
      </trkpt>
      <trkpt lat="45.31937" lon="4.66451">
        <ele>585.40002441406</ele>
        <time>2026-05-12T13:28:05.000Z</time>
      </trkpt>
      <trkpt lat="45.31935" lon="4.66449">
        <ele>585.59997558594</ele>
        <time>2026-05-12T13:28:06.000Z</time>
      </trkpt>
      <trkpt lat="45.31934" lon="4.66446">
        <ele>585.79998779297</ele>
        <time>2026-05-12T13:28:07.000Z</time>
      </trkpt>
      <trkpt lat="45.31933" lon="4.66444">
        <ele>586</ele>
        <time>2026-05-12T13:28:08.000Z</time>
      </trkpt>
      <trkpt lat="45.31931" lon="4.66441">
        <ele>586.20001220703</ele>
        <time>2026-05-12T13:28:09.000Z</time>
      </trkpt>
      <trkpt lat="45.31929" lon="4.6644">
        <ele>586.40002441406</ele>
        <time>2026-05-12T13:28:10.000Z</time>
      </trkpt>
      <trkpt lat="45.31928" lon="4.66438">
        <ele>586.59997558594</ele>
        <time>2026-05-12T13:28:11.000Z</time>
      </trkpt>
      <trkpt lat="45.31926" lon="4.66435">
        <ele>586.79998779297</ele>
        <time>2026-05-12T13:28:12.000Z</time>
      </trkpt>
      <trkpt lat="45.31926" lon="4.66433">
        <ele>587</ele>
        <time>2026-05-12T13:28:13.000Z</time>
      </trkpt>
      <trkpt lat="45.31924" lon="4.66431">
        <ele>587.20001220703</ele>
        <time>2026-05-12T13:28:14.000Z</time>
      </trkpt>
      <trkpt lat="45.31922" lon="4.66428">
        <ele>587.40002441406</ele>
        <time>2026-05-12T13:28:15.000Z</time>
      </trkpt>
      <trkpt lat="45.3192" lon="4.66426">
        <ele>587.59997558594</ele>
        <time>2026-05-12T13:28:16.000Z</time>
      </trkpt>
      <trkpt lat="45.31918" lon="4.66424">
        <ele>587.79998779297</ele>
        <time>2026-05-12T13:28:17.000Z</time>
      </trkpt>
      <trkpt lat="45.31917" lon="4.66421">
        <ele>587.79998779297</ele>
        <time>2026-05-12T13:28:18.000Z</time>
      </trkpt>
      <trkpt lat="45.31916" lon="4.66417">
        <ele>588</ele>
        <time>2026-05-12T13:28:19.000Z</time>
      </trkpt>
      <trkpt lat="45.31915" lon="4.66415">
        <ele>588.20001220703</ele>
        <time>2026-05-12T13:28:20.000Z</time>
      </trkpt>
      <trkpt lat="45.31914" lon="4.66412">
        <ele>588.40002441406</ele>
        <time>2026-05-12T13:28:21.000Z</time>
      </trkpt>
      <trkpt lat="45.31913" lon="4.66408">
        <ele>588.59997558594</ele>
        <time>2026-05-12T13:28:22.000Z</time>
      </trkpt>
      <trkpt lat="45.31913" lon="4.66406">
        <ele>588.79998779297</ele>
        <time>2026-05-12T13:28:23.000Z</time>
      </trkpt>
      <trkpt lat="45.31912" lon="4.66403">
        <ele>589</ele>
        <time>2026-05-12T13:28:24.000Z</time>
      </trkpt>
      <trkpt lat="45.31912" lon="4.664">
        <ele>589.20001220703</ele>
        <time>2026-05-12T13:28:25.000Z</time>
      </trkpt>
      <trkpt lat="45.31911" lon="4.66399">
        <ele>589.59997558594</ele>
        <time>2026-05-12T13:28:26.000Z</time>
      </trkpt>
      <trkpt lat="45.31911" lon="4.66396">
        <ele>589.79998779297</ele>
        <time>2026-05-12T13:28:27.000Z</time>
      </trkpt>
      <trkpt lat="45.3191" lon="4.66393">
        <ele>590</ele>
        <time>2026-05-12T13:28:28.000Z</time>
      </trkpt>
      <trkpt lat="45.31909" lon="4.66391">
        <ele>590.20001220703</ele>
        <time>2026-05-12T13:28:29.000Z</time>
      </trkpt>
      <trkpt lat="45.31909" lon="4.66389">
        <ele>590.40002441406</ele>
        <time>2026-05-12T13:28:30.000Z</time>
      </trkpt>
      <trkpt lat="45.31909" lon="4.66387">
        <ele>590.59997558594</ele>
        <time>2026-05-12T13:28:31.000Z</time>
      </trkpt>
      <trkpt lat="45.31909" lon="4.66385">
        <ele>590.79998779297</ele>
        <time>2026-05-12T13:28:32.000Z</time>
      </trkpt>
      <trkpt lat="45.31908" lon="4.66383">
        <ele>591</ele>
        <time>2026-05-12T13:28:33.000Z</time>
      </trkpt>
      <trkpt lat="45.31907" lon="4.66381">
        <ele>591.20001220703</ele>
        <time>2026-05-12T13:28:34.000Z</time>
      </trkpt>
      <trkpt lat="45.31905" lon="4.66379">
        <ele>591.59997558594</ele>
        <time>2026-05-12T13:28:35.000Z</time>
      </trkpt>
      <trkpt lat="45.31904" lon="4.66377">
        <ele>591.79998779297</ele>
        <time>2026-05-12T13:28:36.000Z</time>
      </trkpt>
      <trkpt lat="45.31902" lon="4.66375">
        <ele>592</ele>
        <time>2026-05-12T13:28:37.000Z</time>
      </trkpt>
      <trkpt lat="45.31902" lon="4.66373">
        <ele>592.20001220703</ele>
        <time>2026-05-12T13:28:38.000Z</time>
      </trkpt>
      <trkpt lat="45.31902" lon="4.6637">
        <ele>592.40002441406</ele>
        <time>2026-05-12T13:28:39.000Z</time>
      </trkpt>
      <trkpt lat="45.319" lon="4.66367">
        <ele>592.40002441406</ele>
        <time>2026-05-12T13:28:40.000Z</time>
      </trkpt>
      <trkpt lat="45.31899" lon="4.66364">
        <ele>592.59997558594</ele>
        <time>2026-05-12T13:28:41.000Z</time>
      </trkpt>
      <trkpt lat="45.31897" lon="4.66361">
        <ele>592.79998779297</ele>
        <time>2026-05-12T13:28:42.000Z</time>
      </trkpt>
      <trkpt lat="45.31896" lon="4.66359">
        <ele>593</ele>
        <time>2026-05-12T13:28:43.000Z</time>
      </trkpt>
      <trkpt lat="45.31893" lon="4.66356">
        <ele>593.20001220703</ele>
        <time>2026-05-12T13:28:44.000Z</time>
      </trkpt>
      <trkpt lat="45.31892" lon="4.66353">
        <ele>593.20001220703</ele>
        <time>2026-05-12T13:28:45.000Z</time>
      </trkpt>
      <trkpt lat="45.3189" lon="4.66349">
        <ele>593.40002441406</ele>
        <time>2026-05-12T13:28:46.000Z</time>
      </trkpt>
      <trkpt lat="45.31888" lon="4.66346">
        <ele>593.40002441406</ele>
        <time>2026-05-12T13:28:47.000Z</time>
      </trkpt>
      <trkpt lat="45.31887" lon="4.66343">
        <ele>593.59997558594</ele>
        <time>2026-05-12T13:28:48.000Z</time>
      </trkpt>
      <trkpt lat="45.31886" lon="4.6634">
        <ele>593.79998779297</ele>
        <time>2026-05-12T13:28:49.000Z</time>
      </trkpt>
      <trkpt lat="45.31885" lon="4.66337">
        <ele>594</ele>
        <time>2026-05-12T13:28:50.000Z</time>
      </trkpt>
      <trkpt lat="45.31883" lon="4.66334">
        <ele>594.20001220703</ele>
        <time>2026-05-12T13:28:51.000Z</time>
      </trkpt>
      <trkpt lat="45.31882" lon="4.66331">
        <ele>594.40002441406</ele>
        <time>2026-05-12T13:28:52.000Z</time>
      </trkpt>
      <trkpt lat="45.31881" lon="4.66327">
        <ele>594.59997558594</ele>
        <time>2026-05-12T13:28:53.000Z</time>
      </trkpt>
      <trkpt lat="45.31881" lon="4.66325">
        <ele>594.79998779297</ele>
        <time>2026-05-12T13:28:54.000Z</time>
      </trkpt>
      <trkpt lat="45.31879" lon="4.66321">
        <ele>594.79998779297</ele>
        <time>2026-05-12T13:28:55.000Z</time>
      </trkpt>
      <trkpt lat="45.31877" lon="4.66319">
        <ele>595</ele>
        <time>2026-05-12T13:28:56.000Z</time>
      </trkpt>
      <trkpt lat="45.31876" lon="4.66316">
        <ele>595.20001220703</ele>
        <time>2026-05-12T13:28:57.000Z</time>
      </trkpt>
      <trkpt lat="45.31875" lon="4.66313">
        <ele>595.40002441406</ele>
        <time>2026-05-12T13:28:58.000Z</time>
      </trkpt>
      <trkpt lat="45.31874" lon="4.66311">
        <ele>595.79998779297</ele>
        <time>2026-05-12T13:28:59.000Z</time>
      </trkpt>
      <trkpt lat="45.31874" lon="4.66308">
        <ele>596.20001220703</ele>
        <time>2026-05-12T13:29:00.000Z</time>
      </trkpt>
      <trkpt lat="45.31874" lon="4.66305">
        <ele>596.59997558594</ele>
        <time>2026-05-12T13:29:01.000Z</time>
      </trkpt>
      <trkpt lat="45.31874" lon="4.66302">
        <ele>596.79998779297</ele>
        <time>2026-05-12T13:29:02.000Z</time>
      </trkpt>
      <trkpt lat="45.31873" lon="4.66299">
        <ele>597</ele>
        <time>2026-05-12T13:29:03.000Z</time>
      </trkpt>
      <trkpt lat="45.31874" lon="4.66297">
        <ele>597.20001220703</ele>
        <time>2026-05-12T13:29:04.000Z</time>
      </trkpt>
      <trkpt lat="45.31874" lon="4.66294">
        <ele>597.20001220703</ele>
        <time>2026-05-12T13:29:05.000Z</time>
      </trkpt>
      <trkpt lat="45.31874" lon="4.66291">
        <ele>597.40002441406</ele>
        <time>2026-05-12T13:29:06.000Z</time>
      </trkpt>
      <trkpt lat="45.31875" lon="4.66288">
        <ele>597.59997558594</ele>
        <time>2026-05-12T13:29:07.000Z</time>
      </trkpt>
      <trkpt lat="45.31877" lon="4.66286">
        <ele>597.59997558594</ele>
        <time>2026-05-12T13:29:08.000Z</time>
      </trkpt>
      <trkpt lat="45.31879" lon="4.66284">
        <ele>597.59997558594</ele>
        <time>2026-05-12T13:29:09.000Z</time>
      </trkpt>
      <trkpt lat="45.3188" lon="4.66282">
        <ele>597.79998779297</ele>
        <time>2026-05-12T13:29:10.000Z</time>
      </trkpt>
      <trkpt lat="45.31881" lon="4.66281">
        <ele>597.79998779297</ele>
        <time>2026-05-12T13:29:11.000Z</time>
      </trkpt>
      <trkpt lat="45.31883" lon="4.6628">
        <ele>598</ele>
        <time>2026-05-12T13:29:12.000Z</time>
      </trkpt>
      <trkpt lat="45.31884" lon="4.6628">
        <ele>598</ele>
        <time>2026-05-12T13:29:13.000Z</time>
      </trkpt>
      <trkpt lat="45.31889" lon="4.6628">
        <ele>598.40002441406</ele>
        <time>2026-05-12T13:29:16.000Z</time>
      </trkpt>
      <trkpt lat="45.31891" lon="4.6628">
        <ele>598.40002441406</ele>
        <time>2026-05-12T13:29:17.000Z</time>
      </trkpt>
      <trkpt lat="45.31893" lon="4.6628">
        <ele>598.59997558594</ele>
        <time>2026-05-12T13:29:18.000Z</time>
      </trkpt>
      <trkpt lat="45.31895" lon="4.6628">
        <ele>598.79998779297</ele>
        <time>2026-05-12T13:29:19.000Z</time>
      </trkpt>
      <trkpt lat="45.31897" lon="4.6628">
        <ele>599</ele>
        <time>2026-05-12T13:29:20.000Z</time>
      </trkpt>
      <trkpt lat="45.31899" lon="4.66281">
        <ele>599.20001220703</ele>
        <time>2026-05-12T13:29:21.000Z</time>
      </trkpt>
      <trkpt lat="45.31902" lon="4.6628">
        <ele>599.40002441406</ele>
        <time>2026-05-12T13:29:22.000Z</time>
      </trkpt>
      <trkpt lat="45.31905" lon="4.66281">
        <ele>599.59997558594</ele>
        <time>2026-05-12T13:29:23.000Z</time>
      </trkpt>
      <trkpt lat="45.31907" lon="4.66281">
        <ele>599.59997558594</ele>
        <time>2026-05-12T13:29:24.000Z</time>
      </trkpt>
      <trkpt lat="45.3191" lon="4.66281">
        <ele>599.79998779297</ele>
        <time>2026-05-12T13:29:25.000Z</time>
      </trkpt>
      <trkpt lat="45.31913" lon="4.66282">
        <ele>599.79998779297</ele>
        <time>2026-05-12T13:29:26.000Z</time>
      </trkpt>
      <trkpt lat="45.31916" lon="4.66283">
        <ele>599.79998779297</ele>
        <time>2026-05-12T13:29:27.000Z</time>
      </trkpt>
      <trkpt lat="45.31918" lon="4.66284">
        <ele>600</ele>
        <time>2026-05-12T13:29:28.000Z</time>
      </trkpt>
      <trkpt lat="45.31921" lon="4.66284">
        <ele>600</ele>
        <time>2026-05-12T13:29:29.000Z</time>
      </trkpt>
      <trkpt lat="45.31923" lon="4.66284">
        <ele>600.20001220703</ele>
        <time>2026-05-12T13:29:30.000Z</time>
      </trkpt>
      <trkpt lat="45.31926" lon="4.66283">
        <ele>600.40002441406</ele>
        <time>2026-05-12T13:29:31.000Z</time>
      </trkpt>
      <trkpt lat="45.31928" lon="4.66283">
        <ele>600.59997558594</ele>
        <time>2026-05-12T13:29:32.000Z</time>
      </trkpt>
      <trkpt lat="45.3193" lon="4.66284">
        <ele>600.79998779297</ele>
        <time>2026-05-12T13:29:33.000Z</time>
      </trkpt>
      <trkpt lat="45.31932" lon="4.66285">
        <ele>601.20001220703</ele>
        <time>2026-05-12T13:29:34.000Z</time>
      </trkpt>
      <trkpt lat="45.31934" lon="4.66286">
        <ele>601.40002441406</ele>
        <time>2026-05-12T13:29:35.000Z</time>
      </trkpt>
      <trkpt lat="45.31937" lon="4.66287">
        <ele>601.59997558594</ele>
        <time>2026-05-12T13:29:36.000Z</time>
      </trkpt>
      <trkpt lat="45.31939" lon="4.66288">
        <ele>601.79998779297</ele>
        <time>2026-05-12T13:29:37.000Z</time>
      </trkpt>
      <trkpt lat="45.31942" lon="4.66288">
        <ele>602</ele>
        <time>2026-05-12T13:29:38.000Z</time>
      </trkpt>
      <trkpt lat="45.31943" lon="4.66289">
        <ele>602</ele>
        <time>2026-05-12T13:29:39.000Z</time>
      </trkpt>
      <trkpt lat="45.31946" lon="4.6629">
        <ele>602.20001220703</ele>
        <time>2026-05-12T13:29:40.000Z</time>
      </trkpt>
      <trkpt lat="45.31948" lon="4.66291">
        <ele>602.40002441406</ele>
        <time>2026-05-12T13:29:41.000Z</time>
      </trkpt>
      <trkpt lat="45.3195" lon="4.66294">
        <ele>602.59997558594</ele>
        <time>2026-05-12T13:29:42.000Z</time>
      </trkpt>
      <trkpt lat="45.31952" lon="4.66293">
        <ele>602.79998779297</ele>
        <time>2026-05-12T13:29:43.000Z</time>
      </trkpt>
      <trkpt lat="45.31955" lon="4.66293">
        <ele>603</ele>
        <time>2026-05-12T13:29:44.000Z</time>
      </trkpt>
      <trkpt lat="45.31958" lon="4.66293">
        <ele>603.20001220703</ele>
        <time>2026-05-12T13:29:45.000Z</time>
      </trkpt>
      <trkpt lat="45.31961" lon="4.66295">
        <ele>603.40002441406</ele>
        <time>2026-05-12T13:29:46.000Z</time>
      </trkpt>
      <trkpt lat="45.31965" lon="4.66294">
        <ele>603.40002441406</ele>
        <time>2026-05-12T13:29:47.000Z</time>
      </trkpt>
      <trkpt lat="45.31969" lon="4.66294">
        <ele>603.59997558594</ele>
        <time>2026-05-12T13:29:48.000Z</time>
      </trkpt>
      <trkpt lat="45.31972" lon="4.66293">
        <ele>603.79998779297</ele>
        <time>2026-05-12T13:29:49.000Z</time>
      </trkpt>
      <trkpt lat="45.31975" lon="4.66292">
        <ele>603.79998779297</ele>
        <time>2026-05-12T13:29:50.000Z</time>
      </trkpt>
      <trkpt lat="45.31978" lon="4.66292">
        <ele>604</ele>
        <time>2026-05-12T13:29:51.000Z</time>
      </trkpt>
      <trkpt lat="45.3198" lon="4.66293">
        <ele>604.20001220703</ele>
        <time>2026-05-12T13:29:52.000Z</time>
      </trkpt>
      <trkpt lat="45.31983" lon="4.66291">
        <ele>604.59997558594</ele>
        <time>2026-05-12T13:29:53.000Z</time>
      </trkpt>
      <trkpt lat="45.31987" lon="4.6629">
        <ele>604.79998779297</ele>
        <time>2026-05-12T13:29:54.000Z</time>
      </trkpt>
      <trkpt lat="45.31989" lon="4.66291">
        <ele>605</ele>
        <time>2026-05-12T13:29:55.000Z</time>
      </trkpt>
      <trkpt lat="45.3199" lon="4.6629">
        <ele>605.20001220703</ele>
        <time>2026-05-12T13:29:56.000Z</time>
      </trkpt>
      <trkpt lat="45.31992" lon="4.66289">
        <ele>605.40002441406</ele>
        <time>2026-05-12T13:29:57.000Z</time>
      </trkpt>
      <trkpt lat="45.31993" lon="4.66288">
        <ele>605.59997558594</ele>
        <time>2026-05-12T13:29:58.000Z</time>
      </trkpt>
      <trkpt lat="45.31995" lon="4.66287">
        <ele>605.79998779297</ele>
        <time>2026-05-12T13:29:59.000Z</time>
      </trkpt>
      <trkpt lat="45.31997" lon="4.66286">
        <ele>606</ele>
        <time>2026-05-12T13:30:00.000Z</time>
      </trkpt>
      <trkpt lat="45.31998" lon="4.66285">
        <ele>606</ele>
        <time>2026-05-12T13:30:01.000Z</time>
      </trkpt>
      <trkpt lat="45.32" lon="4.66284">
        <ele>606.20001220703</ele>
        <time>2026-05-12T13:30:02.000Z</time>
      </trkpt>
      <trkpt lat="45.32002" lon="4.66282">
        <ele>606.40002441406</ele>
        <time>2026-05-12T13:30:03.000Z</time>
      </trkpt>
      <trkpt lat="45.32005" lon="4.66281">
        <ele>606.59997558594</ele>
        <time>2026-05-12T13:30:04.000Z</time>
      </trkpt>
      <trkpt lat="45.32007" lon="4.6628">
        <ele>606.79998779297</ele>
        <time>2026-05-12T13:30:05.000Z</time>
      </trkpt>
      <trkpt lat="45.32009" lon="4.66278">
        <ele>607</ele>
        <time>2026-05-12T13:30:06.000Z</time>
      </trkpt>
      <trkpt lat="45.32011" lon="4.66277">
        <ele>607.20001220703</ele>
        <time>2026-05-12T13:30:07.000Z</time>
      </trkpt>
      <trkpt lat="45.32013" lon="4.66276">
        <ele>607.20001220703</ele>
        <time>2026-05-12T13:30:08.000Z</time>
      </trkpt>
      <trkpt lat="45.32015" lon="4.66275">
        <ele>607.40002441406</ele>
        <time>2026-05-12T13:30:09.000Z</time>
      </trkpt>
      <trkpt lat="45.32017" lon="4.66275">
        <ele>607.59997558594</ele>
        <time>2026-05-12T13:30:10.000Z</time>
      </trkpt>
      <trkpt lat="45.32018" lon="4.66274">
        <ele>607.59997558594</ele>
        <time>2026-05-12T13:30:11.000Z</time>
      </trkpt>
      <trkpt lat="45.32021" lon="4.66274">
        <ele>607.79998779297</ele>
        <time>2026-05-12T13:30:12.000Z</time>
      </trkpt>
      <trkpt lat="45.32023" lon="4.66273">
        <ele>607.79998779297</ele>
        <time>2026-05-12T13:30:13.000Z</time>
      </trkpt>
      <trkpt lat="45.32026" lon="4.66272">
        <ele>608</ele>
        <time>2026-05-12T13:30:14.000Z</time>
      </trkpt>
      <trkpt lat="45.32028" lon="4.66271">
        <ele>608.20001220703</ele>
        <time>2026-05-12T13:30:15.000Z</time>
      </trkpt>
      <trkpt lat="45.3203" lon="4.6627">
        <ele>608.40002441406</ele>
        <time>2026-05-12T13:30:16.000Z</time>
      </trkpt>
      <trkpt lat="45.32032" lon="4.66269">
        <ele>608.59997558594</ele>
        <time>2026-05-12T13:30:17.000Z</time>
      </trkpt>
      <trkpt lat="45.32035" lon="4.66269">
        <ele>608.79998779297</ele>
        <time>2026-05-12T13:30:18.000Z</time>
      </trkpt>
      <trkpt lat="45.32037" lon="4.66268">
        <ele>608.79998779297</ele>
        <time>2026-05-12T13:30:19.000Z</time>
      </trkpt>
      <trkpt lat="45.32039" lon="4.66267">
        <ele>609</ele>
        <time>2026-05-12T13:30:20.000Z</time>
      </trkpt>
      <trkpt lat="45.32041" lon="4.66266">
        <ele>609.20001220703</ele>
        <time>2026-05-12T13:30:21.000Z</time>
      </trkpt>
      <trkpt lat="45.32043" lon="4.66265">
        <ele>609.20001220703</ele>
        <time>2026-05-12T13:30:22.000Z</time>
      </trkpt>
      <trkpt lat="45.32045" lon="4.66263">
        <ele>609.40002441406</ele>
        <time>2026-05-12T13:30:23.000Z</time>
      </trkpt>
      <trkpt lat="45.32047" lon="4.66262">
        <ele>609.59997558594</ele>
        <time>2026-05-12T13:30:24.000Z</time>
      </trkpt>
      <trkpt lat="45.32049" lon="4.6626">
        <ele>609.79998779297</ele>
        <time>2026-05-12T13:30:25.000Z</time>
      </trkpt>
      <trkpt lat="45.32052" lon="4.6626">
        <ele>609.79998779297</ele>
        <time>2026-05-12T13:30:26.000Z</time>
      </trkpt>
      <trkpt lat="45.32054" lon="4.66259">
        <ele>610</ele>
        <time>2026-05-12T13:30:27.000Z</time>
      </trkpt>
      <trkpt lat="45.32056" lon="4.66259">
        <ele>610.20001220703</ele>
        <time>2026-05-12T13:30:28.000Z</time>
      </trkpt>
      <trkpt lat="45.32058" lon="4.66258">
        <ele>610.20001220703</ele>
        <time>2026-05-12T13:30:29.000Z</time>
      </trkpt>
      <trkpt lat="45.3206" lon="4.66257">
        <ele>610.40002441406</ele>
        <time>2026-05-12T13:30:30.000Z</time>
      </trkpt>
      <trkpt lat="45.32062" lon="4.66256">
        <ele>610.59997558594</ele>
        <time>2026-05-12T13:30:31.000Z</time>
      </trkpt>
      <trkpt lat="45.32064" lon="4.66256">
        <ele>610.59997558594</ele>
        <time>2026-05-12T13:30:32.000Z</time>
      </trkpt>
      <trkpt lat="45.32067" lon="4.66254">
        <ele>610.79998779297</ele>
        <time>2026-05-12T13:30:33.000Z</time>
      </trkpt>
      <trkpt lat="45.32069" lon="4.66254">
        <ele>611</ele>
        <time>2026-05-12T13:30:34.000Z</time>
      </trkpt>
      <trkpt lat="45.32071" lon="4.66253">
        <ele>611.20001220703</ele>
        <time>2026-05-12T13:30:35.000Z</time>
      </trkpt>
      <trkpt lat="45.32073" lon="4.66252">
        <ele>611.40002441406</ele>
        <time>2026-05-12T13:30:36.000Z</time>
      </trkpt>
      <trkpt lat="45.32074" lon="4.6625">
        <ele>611.59997558594</ele>
        <time>2026-05-12T13:30:37.000Z</time>
      </trkpt>
      <trkpt lat="45.32076" lon="4.66249">
        <ele>611.79998779297</ele>
        <time>2026-05-12T13:30:38.000Z</time>
      </trkpt>
      <trkpt lat="45.32078" lon="4.66247">
        <ele>611.79998779297</ele>
        <time>2026-05-12T13:30:39.000Z</time>
      </trkpt>
      <trkpt lat="45.32079" lon="4.66245">
        <ele>612</ele>
        <time>2026-05-12T13:30:40.000Z</time>
      </trkpt>
      <trkpt lat="45.3208" lon="4.66243">
        <ele>612.20001220703</ele>
        <time>2026-05-12T13:30:41.000Z</time>
      </trkpt>
      <trkpt lat="45.32082" lon="4.66241">
        <ele>612.40002441406</ele>
        <time>2026-05-12T13:30:42.000Z</time>
      </trkpt>
      <trkpt lat="45.32084" lon="4.6624">
        <ele>612.59997558594</ele>
        <time>2026-05-12T13:30:43.000Z</time>
      </trkpt>
      <trkpt lat="45.32086" lon="4.6624">
        <ele>612.79998779297</ele>
        <time>2026-05-12T13:30:44.000Z</time>
      </trkpt>
      <trkpt lat="45.32088" lon="4.66238">
        <ele>613</ele>
        <time>2026-05-12T13:30:45.000Z</time>
      </trkpt>
      <trkpt lat="45.32091" lon="4.66237">
        <ele>613.20001220703</ele>
        <time>2026-05-12T13:30:46.000Z</time>
      </trkpt>
      <trkpt lat="45.32093" lon="4.66235">
        <ele>613.40002441406</ele>
        <time>2026-05-12T13:30:47.000Z</time>
      </trkpt>
      <trkpt lat="45.32095" lon="4.66233">
        <ele>613.59997558594</ele>
        <time>2026-05-12T13:30:48.000Z</time>
      </trkpt>
      <trkpt lat="45.32097" lon="4.66231">
        <ele>613.79998779297</ele>
        <time>2026-05-12T13:30:49.000Z</time>
      </trkpt>
      <trkpt lat="45.32099" lon="4.6623">
        <ele>614</ele>
        <time>2026-05-12T13:30:50.000Z</time>
      </trkpt>
      <trkpt lat="45.321" lon="4.66228">
        <ele>614</ele>
        <time>2026-05-12T13:30:51.000Z</time>
      </trkpt>
      <trkpt lat="45.32102" lon="4.66227">
        <ele>614.20001220703</ele>
        <time>2026-05-12T13:30:52.000Z</time>
      </trkpt>
      <trkpt lat="45.32104" lon="4.66224">
        <ele>614.40002441406</ele>
        <time>2026-05-12T13:30:53.000Z</time>
      </trkpt>
      <trkpt lat="45.32106" lon="4.66222">
        <ele>614.59997558594</ele>
        <time>2026-05-12T13:30:54.000Z</time>
      </trkpt>
      <trkpt lat="45.32109" lon="4.6622">
        <ele>614.79998779297</ele>
        <time>2026-05-12T13:30:55.000Z</time>
      </trkpt>
      <trkpt lat="45.32111" lon="4.66219">
        <ele>614.79998779297</ele>
        <time>2026-05-12T13:30:56.000Z</time>
      </trkpt>
      <trkpt lat="45.32112" lon="4.66218">
        <ele>615</ele>
        <time>2026-05-12T13:30:57.000Z</time>
      </trkpt>
      <trkpt lat="45.32113" lon="4.66217">
        <ele>615</ele>
        <time>2026-05-12T13:30:58.000Z</time>
      </trkpt>
      <trkpt lat="45.32115" lon="4.66215">
        <ele>615.20001220703</ele>
        <time>2026-05-12T13:30:59.000Z</time>
      </trkpt>
      <trkpt lat="45.32118" lon="4.66214">
        <ele>615.20001220703</ele>
        <time>2026-05-12T13:31:00.000Z</time>
      </trkpt>
      <trkpt lat="45.32119" lon="4.66213">
        <ele>615.40002441406</ele>
        <time>2026-05-12T13:31:01.000Z</time>
      </trkpt>
      <trkpt lat="45.3212" lon="4.66211">
        <ele>615.59997558594</ele>
        <time>2026-05-12T13:31:02.000Z</time>
      </trkpt>
      <trkpt lat="45.32122" lon="4.6621">
        <ele>615.59997558594</ele>
        <time>2026-05-12T13:31:03.000Z</time>
      </trkpt>
      <trkpt lat="45.32124" lon="4.66208">
        <ele>615.79998779297</ele>
        <time>2026-05-12T13:31:04.000Z</time>
      </trkpt>
      <trkpt lat="45.32126" lon="4.66207">
        <ele>616</ele>
        <time>2026-05-12T13:31:05.000Z</time>
      </trkpt>
      <trkpt lat="45.32129" lon="4.66206">
        <ele>616.20001220703</ele>
        <time>2026-05-12T13:31:06.000Z</time>
      </trkpt>
      <trkpt lat="45.3213" lon="4.66204">
        <ele>616.20001220703</ele>
        <time>2026-05-12T13:31:07.000Z</time>
      </trkpt>
      <trkpt lat="45.32132" lon="4.66202">
        <ele>616.40002441406</ele>
        <time>2026-05-12T13:31:08.000Z</time>
      </trkpt>
      <trkpt lat="45.32134" lon="4.66201">
        <ele>616.40002441406</ele>
        <time>2026-05-12T13:31:09.000Z</time>
      </trkpt>
      <trkpt lat="45.32135" lon="4.66199">
        <ele>616.59997558594</ele>
        <time>2026-05-12T13:31:10.000Z</time>
      </trkpt>
      <trkpt lat="45.32137" lon="4.66197">
        <ele>616.79998779297</ele>
        <time>2026-05-12T13:31:11.000Z</time>
      </trkpt>
      <trkpt lat="45.32138" lon="4.66194">
        <ele>616.79998779297</ele>
        <time>2026-05-12T13:31:12.000Z</time>
      </trkpt>
      <trkpt lat="45.32139" lon="4.66191">
        <ele>617</ele>
        <time>2026-05-12T13:31:13.000Z</time>
      </trkpt>
      <trkpt lat="45.3214" lon="4.66188">
        <ele>617.20001220703</ele>
        <time>2026-05-12T13:31:14.000Z</time>
      </trkpt>
      <trkpt lat="45.32141" lon="4.66186">
        <ele>617.20001220703</ele>
        <time>2026-05-12T13:31:15.000Z</time>
      </trkpt>
      <trkpt lat="45.32143" lon="4.66183">
        <ele>617.40002441406</ele>
        <time>2026-05-12T13:31:16.000Z</time>
      </trkpt>
      <trkpt lat="45.32144" lon="4.6618">
        <ele>617.59997558594</ele>
        <time>2026-05-12T13:31:17.000Z</time>
      </trkpt>
      <trkpt lat="45.32145" lon="4.66177">
        <ele>617.79998779297</ele>
        <time>2026-05-12T13:31:18.000Z</time>
      </trkpt>
      <trkpt lat="45.32147" lon="4.66175">
        <ele>618</ele>
        <time>2026-05-12T13:31:19.000Z</time>
      </trkpt>
      <trkpt lat="45.32148" lon="4.66172">
        <ele>618.20001220703</ele>
        <time>2026-05-12T13:31:20.000Z</time>
      </trkpt>
      <trkpt lat="45.3215" lon="4.6617">
        <ele>618.20001220703</ele>
        <time>2026-05-12T13:31:21.000Z</time>
      </trkpt>
      <trkpt lat="45.32151" lon="4.66167">
        <ele>618.40002441406</ele>
        <time>2026-05-12T13:31:22.000Z</time>
      </trkpt>
      <trkpt lat="45.32152" lon="4.66164">
        <ele>618.40002441406</ele>
        <time>2026-05-12T13:31:23.000Z</time>
      </trkpt>
      <trkpt lat="45.32153" lon="4.66161">
        <ele>618.59997558594</ele>
        <time>2026-05-12T13:31:24.000Z</time>
      </trkpt>
      <trkpt lat="45.32154" lon="4.66159">
        <ele>618.59997558594</ele>
        <time>2026-05-12T13:31:25.000Z</time>
      </trkpt>
      <trkpt lat="45.32155" lon="4.66156">
        <ele>618.79998779297</ele>
        <time>2026-05-12T13:31:26.000Z</time>
      </trkpt>
      <trkpt lat="45.32156" lon="4.66153">
        <ele>618.79998779297</ele>
        <time>2026-05-12T13:31:27.000Z</time>
      </trkpt>
      <trkpt lat="45.32156" lon="4.6615">
        <ele>619</ele>
        <time>2026-05-12T13:31:28.000Z</time>
      </trkpt>
      <trkpt lat="45.32157" lon="4.66147">
        <ele>619</ele>
        <time>2026-05-12T13:31:29.000Z</time>
      </trkpt>
      <trkpt lat="45.32156" lon="4.66144">
        <ele>619.20001220703</ele>
        <time>2026-05-12T13:31:30.000Z</time>
      </trkpt>
      <trkpt lat="45.32156" lon="4.66141">
        <ele>619.20001220703</ele>
        <time>2026-05-12T13:31:31.000Z</time>
      </trkpt>
      <trkpt lat="45.32155" lon="4.66138">
        <ele>619.40002441406</ele>
        <time>2026-05-12T13:31:32.000Z</time>
      </trkpt>
      <trkpt lat="45.32154" lon="4.66135">
        <ele>619.40002441406</ele>
        <time>2026-05-12T13:31:33.000Z</time>
      </trkpt>
      <trkpt lat="45.32154" lon="4.66132">
        <ele>619.59997558594</ele>
        <time>2026-05-12T13:31:34.000Z</time>
      </trkpt>
      <trkpt lat="45.32153" lon="4.66129">
        <ele>619.79998779297</ele>
        <time>2026-05-12T13:31:35.000Z</time>
      </trkpt>
      <trkpt lat="45.32152" lon="4.66127">
        <ele>620</ele>
        <time>2026-05-12T13:31:36.000Z</time>
      </trkpt>
      <trkpt lat="45.32151" lon="4.66124">
        <ele>620.20001220703</ele>
        <time>2026-05-12T13:31:37.000Z</time>
      </trkpt>
      <trkpt lat="45.32151" lon="4.66121">
        <ele>620.20001220703</ele>
        <time>2026-05-12T13:31:38.000Z</time>
      </trkpt>
      <trkpt lat="45.3215" lon="4.66119">
        <ele>620.40002441406</ele>
        <time>2026-05-12T13:31:39.000Z</time>
      </trkpt>
      <trkpt lat="45.32149" lon="4.66116">
        <ele>620.59997558594</ele>
        <time>2026-05-12T13:31:40.000Z</time>
      </trkpt>
      <trkpt lat="45.32148" lon="4.66114">
        <ele>620.59997558594</ele>
        <time>2026-05-12T13:31:41.000Z</time>
      </trkpt>
      <trkpt lat="45.32148" lon="4.66111">
        <ele>620.79998779297</ele>
        <time>2026-05-12T13:31:42.000Z</time>
      </trkpt>
      <trkpt lat="45.32147" lon="4.66109">
        <ele>621</ele>
        <time>2026-05-12T13:31:43.000Z</time>
      </trkpt>
      <trkpt lat="45.32146" lon="4.66106">
        <ele>621.20001220703</ele>
        <time>2026-05-12T13:31:44.000Z</time>
      </trkpt>
      <trkpt lat="45.32144" lon="4.66103">
        <ele>621.40002441406</ele>
        <time>2026-05-12T13:31:45.000Z</time>
      </trkpt>
      <trkpt lat="45.32143" lon="4.66101">
        <ele>621.59997558594</ele>
        <time>2026-05-12T13:31:46.000Z</time>
      </trkpt>
      <trkpt lat="45.32142" lon="4.66098">
        <ele>621.79998779297</ele>
        <time>2026-05-12T13:31:47.000Z</time>
      </trkpt>
      <trkpt lat="45.32141" lon="4.66096">
        <ele>622</ele>
        <time>2026-05-12T13:31:48.000Z</time>
      </trkpt>
      <trkpt lat="45.3214" lon="4.66094">
        <ele>622.20001220703</ele>
        <time>2026-05-12T13:31:49.000Z</time>
      </trkpt>
      <trkpt lat="45.32139" lon="4.66092">
        <ele>622.40002441406</ele>
        <time>2026-05-12T13:31:50.000Z</time>
      </trkpt>
      <trkpt lat="45.32137" lon="4.6609">
        <ele>622.59997558594</ele>
        <time>2026-05-12T13:31:51.000Z</time>
      </trkpt>
      <trkpt lat="45.32136" lon="4.66088">
        <ele>622.59997558594</ele>
        <time>2026-05-12T13:31:52.000Z</time>
      </trkpt>
      <trkpt lat="45.32135" lon="4.66086">
        <ele>622.79998779297</ele>
        <time>2026-05-12T13:31:53.000Z</time>
      </trkpt>
      <trkpt lat="45.32133" lon="4.66084">
        <ele>623</ele>
        <time>2026-05-12T13:31:54.000Z</time>
      </trkpt>
      <trkpt lat="45.32133" lon="4.66081">
        <ele>623.20001220703</ele>
        <time>2026-05-12T13:31:55.000Z</time>
      </trkpt>
      <trkpt lat="45.32132" lon="4.66079">
        <ele>623.40002441406</ele>
        <time>2026-05-12T13:31:56.000Z</time>
      </trkpt>
      <trkpt lat="45.3213" lon="4.66077">
        <ele>623.59997558594</ele>
        <time>2026-05-12T13:31:57.000Z</time>
      </trkpt>
      <trkpt lat="45.32128" lon="4.66074">
        <ele>623.59997558594</ele>
        <time>2026-05-12T13:31:58.000Z</time>
      </trkpt>
      <trkpt lat="45.32127" lon="4.66072">
        <ele>623.79998779297</ele>
        <time>2026-05-12T13:31:59.000Z</time>
      </trkpt>
      <trkpt lat="45.32126" lon="4.6607">
        <ele>623.79998779297</ele>
        <time>2026-05-12T13:32:00.000Z</time>
      </trkpt>
      <trkpt lat="45.32125" lon="4.66067">
        <ele>623.79998779297</ele>
        <time>2026-05-12T13:32:01.000Z</time>
      </trkpt>
      <trkpt lat="45.32123" lon="4.66065">
        <ele>624</ele>
        <time>2026-05-12T13:32:02.000Z</time>
      </trkpt>
      <trkpt lat="45.32122" lon="4.66063">
        <ele>624.20001220703</ele>
        <time>2026-05-12T13:32:03.000Z</time>
      </trkpt>
      <trkpt lat="45.3212" lon="4.66061">
        <ele>624.20001220703</ele>
        <time>2026-05-12T13:32:04.000Z</time>
      </trkpt>
      <trkpt lat="45.32119" lon="4.66059">
        <ele>624.40002441406</ele>
        <time>2026-05-12T13:32:05.000Z</time>
      </trkpt>
      <trkpt lat="45.32118" lon="4.66057">
        <ele>624.59997558594</ele>
        <time>2026-05-12T13:32:06.000Z</time>
      </trkpt>
      <trkpt lat="45.32117" lon="4.66055">
        <ele>624.59997558594</ele>
        <time>2026-05-12T13:32:07.000Z</time>
      </trkpt>
      <trkpt lat="45.32115" lon="4.66053">
        <ele>624.79998779297</ele>
        <time>2026-05-12T13:32:08.000Z</time>
      </trkpt>
      <trkpt lat="45.32114" lon="4.66051">
        <ele>625</ele>
        <time>2026-05-12T13:32:09.000Z</time>
      </trkpt>
      <trkpt lat="45.32112" lon="4.66049">
        <ele>625.20001220703</ele>
        <time>2026-05-12T13:32:10.000Z</time>
      </trkpt>
      <trkpt lat="45.32111" lon="4.66047">
        <ele>625.40002441406</ele>
        <time>2026-05-12T13:32:11.000Z</time>
      </trkpt>
      <trkpt lat="45.3211" lon="4.66044">
        <ele>625.59997558594</ele>
        <time>2026-05-12T13:32:12.000Z</time>
      </trkpt>
      <trkpt lat="45.32109" lon="4.66042">
        <ele>625.79998779297</ele>
        <time>2026-05-12T13:32:13.000Z</time>
      </trkpt>
      <trkpt lat="45.32108" lon="4.66039">
        <ele>626</ele>
        <time>2026-05-12T13:32:14.000Z</time>
      </trkpt>
      <trkpt lat="45.32106" lon="4.66037">
        <ele>626.20001220703</ele>
        <time>2026-05-12T13:32:15.000Z</time>
      </trkpt>
      <trkpt lat="45.32104" lon="4.66035">
        <ele>626.40002441406</ele>
        <time>2026-05-12T13:32:16.000Z</time>
      </trkpt>
      <trkpt lat="45.32102" lon="4.66034">
        <ele>626.40002441406</ele>
        <time>2026-05-12T13:32:17.000Z</time>
      </trkpt>
      <trkpt lat="45.321" lon="4.66033">
        <ele>626.59997558594</ele>
        <time>2026-05-12T13:32:18.000Z</time>
      </trkpt>
      <trkpt lat="45.321" lon="4.66032">
        <ele>626.79998779297</ele>
        <time>2026-05-12T13:32:19.000Z</time>
      </trkpt>
      <trkpt lat="45.32098" lon="4.66031">
        <ele>627</ele>
        <time>2026-05-12T13:32:20.000Z</time>
      </trkpt>
      <trkpt lat="45.32096" lon="4.66029">
        <ele>627.20001220703</ele>
        <time>2026-05-12T13:32:21.000Z</time>
      </trkpt>
      <trkpt lat="45.32095" lon="4.66027">
        <ele>627.20001220703</ele>
        <time>2026-05-12T13:32:22.000Z</time>
      </trkpt>
      <trkpt lat="45.32093" lon="4.66025">
        <ele>627.40002441406</ele>
        <time>2026-05-12T13:32:23.000Z</time>
      </trkpt>
      <trkpt lat="45.32091" lon="4.66024">
        <ele>627.40002441406</ele>
        <time>2026-05-12T13:32:24.000Z</time>
      </trkpt>
      <trkpt lat="45.3209" lon="4.66022">
        <ele>627.59997558594</ele>
        <time>2026-05-12T13:32:25.000Z</time>
      </trkpt>
      <trkpt lat="45.32089" lon="4.6602">
        <ele>627.59997558594</ele>
        <time>2026-05-12T13:32:26.000Z</time>
      </trkpt>
      <trkpt lat="45.32088" lon="4.66018">
        <ele>627.79998779297</ele>
        <time>2026-05-12T13:32:27.000Z</time>
      </trkpt>
      <trkpt lat="45.32086" lon="4.66017">
        <ele>628</ele>
        <time>2026-05-12T13:32:28.000Z</time>
      </trkpt>
      <trkpt lat="45.32085" lon="4.66016">
        <ele>628</ele>
        <time>2026-05-12T13:32:29.000Z</time>
      </trkpt>
      <trkpt lat="45.32084" lon="4.66014">
        <ele>628.20001220703</ele>
        <time>2026-05-12T13:32:30.000Z</time>
      </trkpt>
      <trkpt lat="45.32082" lon="4.66013">
        <ele>628.40002441406</ele>
        <time>2026-05-12T13:32:31.000Z</time>
      </trkpt>
      <trkpt lat="45.32081" lon="4.66012">
        <ele>628.59997558594</ele>
        <time>2026-05-12T13:32:32.000Z</time>
      </trkpt>
      <trkpt lat="45.3208" lon="4.6601">
        <ele>628.79998779297</ele>
        <time>2026-05-12T13:32:33.000Z</time>
      </trkpt>
      <trkpt lat="45.32079" lon="4.66009">
        <ele>629</ele>
        <time>2026-05-12T13:32:34.000Z</time>
      </trkpt>
      <trkpt lat="45.32079" lon="4.66008">
        <ele>629.20001220703</ele>
        <time>2026-05-12T13:32:35.000Z</time>
      </trkpt>
      <trkpt lat="45.32077" lon="4.66005">
        <ele>629.40002441406</ele>
        <time>2026-05-12T13:32:36.000Z</time>
      </trkpt>
      <trkpt lat="45.32076" lon="4.66003">
        <ele>629.59997558594</ele>
        <time>2026-05-12T13:32:37.000Z</time>
      </trkpt>
      <trkpt lat="45.32073" lon="4.66">
        <ele>629.59997558594</ele>
        <time>2026-05-12T13:32:38.000Z</time>
      </trkpt>
      <trkpt lat="45.32072" lon="4.65998">
        <ele>629.79998779297</ele>
        <time>2026-05-12T13:32:39.000Z</time>
      </trkpt>
      <trkpt lat="45.32071" lon="4.65996">
        <ele>629.79998779297</ele>
        <time>2026-05-12T13:32:40.000Z</time>
      </trkpt>
      <trkpt lat="45.32069" lon="4.65994">
        <ele>630</ele>
        <time>2026-05-12T13:32:41.000Z</time>
      </trkpt>
      <trkpt lat="45.32069" lon="4.65991">
        <ele>630</ele>
        <time>2026-05-12T13:32:42.000Z</time>
      </trkpt>
      <trkpt lat="45.32067" lon="4.65988">
        <ele>630</ele>
        <time>2026-05-12T13:32:43.000Z</time>
      </trkpt>
      <trkpt lat="45.32068" lon="4.65986">
        <ele>630</ele>
        <time>2026-05-12T13:32:44.000Z</time>
      </trkpt>
      <trkpt lat="45.32068" lon="4.65982">
        <ele>630</ele>
        <time>2026-05-12T13:32:45.000Z</time>
      </trkpt>
      <trkpt lat="45.32068" lon="4.6598">
        <ele>630.20001220703</ele>
        <time>2026-05-12T13:32:46.000Z</time>
      </trkpt>
      <trkpt lat="45.32068" lon="4.65978">
        <ele>630.40002441406</ele>
        <time>2026-05-12T13:32:47.000Z</time>
      </trkpt>
      <trkpt lat="45.32067" lon="4.65975">
        <ele>630.59997558594</ele>
        <time>2026-05-12T13:32:48.000Z</time>
      </trkpt>
      <trkpt lat="45.32067" lon="4.65973">
        <ele>630.79998779297</ele>
        <time>2026-05-12T13:32:49.000Z</time>
      </trkpt>
      <trkpt lat="45.32068" lon="4.65971">
        <ele>631</ele>
        <time>2026-05-12T13:32:50.000Z</time>
      </trkpt>
      <trkpt lat="45.32068" lon="4.65968">
        <ele>631.20001220703</ele>
        <time>2026-05-12T13:32:51.000Z</time>
      </trkpt>
      <trkpt lat="45.32069" lon="4.65966">
        <ele>631.20001220703</ele>
        <time>2026-05-12T13:32:52.000Z</time>
      </trkpt>
      <trkpt lat="45.32069" lon="4.65963">
        <ele>631.40002441406</ele>
        <time>2026-05-12T13:32:53.000Z</time>
      </trkpt>
      <trkpt lat="45.3207" lon="4.65961">
        <ele>631.40002441406</ele>
        <time>2026-05-12T13:32:54.000Z</time>
      </trkpt>
      <trkpt lat="45.3207" lon="4.65958">
        <ele>631.59997558594</ele>
        <time>2026-05-12T13:32:55.000Z</time>
      </trkpt>
      <trkpt lat="45.32071" lon="4.65955">
        <ele>631.59997558594</ele>
        <time>2026-05-12T13:32:56.000Z</time>
      </trkpt>
      <trkpt lat="45.32072" lon="4.65952">
        <ele>631.79998779297</ele>
        <time>2026-05-12T13:32:57.000Z</time>
      </trkpt>
      <trkpt lat="45.32072" lon="4.65949">
        <ele>632</ele>
        <time>2026-05-12T13:32:58.000Z</time>
      </trkpt>
      <trkpt lat="45.32072" lon="4.65946">
        <ele>632.20001220703</ele>
        <time>2026-05-12T13:32:59.000Z</time>
      </trkpt>
      <trkpt lat="45.32072" lon="4.65944">
        <ele>632.20001220703</ele>
        <time>2026-05-12T13:33:00.000Z</time>
      </trkpt>
      <trkpt lat="45.32072" lon="4.65942">
        <ele>632.40002441406</ele>
        <time>2026-05-12T13:33:01.000Z</time>
      </trkpt>
      <trkpt lat="45.32073" lon="4.65939">
        <ele>632.40002441406</ele>
        <time>2026-05-12T13:33:02.000Z</time>
      </trkpt>
      <trkpt lat="45.32073" lon="4.65936">
        <ele>632.59997558594</ele>
        <time>2026-05-12T13:33:03.000Z</time>
      </trkpt>
      <trkpt lat="45.32074" lon="4.65933">
        <ele>632.59997558594</ele>
        <time>2026-05-12T13:33:04.000Z</time>
      </trkpt>
      <trkpt lat="45.32074" lon="4.6593">
        <ele>632.79998779297</ele>
        <time>2026-05-12T13:33:05.000Z</time>
      </trkpt>
      <trkpt lat="45.32075" lon="4.65926">
        <ele>632.79998779297</ele>
        <time>2026-05-12T13:33:06.000Z</time>
      </trkpt>
      <trkpt lat="45.32075" lon="4.65923">
        <ele>632.79998779297</ele>
        <time>2026-05-12T13:33:07.000Z</time>
      </trkpt>
      <trkpt lat="45.32075" lon="4.6592">
        <ele>633</ele>
        <time>2026-05-12T13:33:08.000Z</time>
      </trkpt>
      <trkpt lat="45.32075" lon="4.65917">
        <ele>633.20001220703</ele>
        <time>2026-05-12T13:33:09.000Z</time>
      </trkpt>
      <trkpt lat="45.32076" lon="4.65914">
        <ele>633.40002441406</ele>
        <time>2026-05-12T13:33:10.000Z</time>
      </trkpt>
      <trkpt lat="45.32076" lon="4.65912">
        <ele>633.59997558594</ele>
        <time>2026-05-12T13:33:11.000Z</time>
      </trkpt>
      <trkpt lat="45.32076" lon="4.65909">
        <ele>633.79998779297</ele>
        <time>2026-05-12T13:33:12.000Z</time>
      </trkpt>
      <trkpt lat="45.32077" lon="4.65905">
        <ele>634</ele>
        <time>2026-05-12T13:33:13.000Z</time>
      </trkpt>
      <trkpt lat="45.32077" lon="4.65901">
        <ele>634.20001220703</ele>
        <time>2026-05-12T13:33:14.000Z</time>
      </trkpt>
      <trkpt lat="45.32078" lon="4.65898">
        <ele>634.20001220703</ele>
        <time>2026-05-12T13:33:15.000Z</time>
      </trkpt>
      <trkpt lat="45.32078" lon="4.65895">
        <ele>634.40002441406</ele>
        <time>2026-05-12T13:33:16.000Z</time>
      </trkpt>
      <trkpt lat="45.32079" lon="4.65892">
        <ele>634.40002441406</ele>
        <time>2026-05-12T13:33:17.000Z</time>
      </trkpt>
      <trkpt lat="45.32079" lon="4.6589">
        <ele>634.40002441406</ele>
        <time>2026-05-12T13:33:18.000Z</time>
      </trkpt>
      <trkpt lat="45.3208" lon="4.65887">
        <ele>634.40002441406</ele>
        <time>2026-05-12T13:33:19.000Z</time>
      </trkpt>
      <trkpt lat="45.32081" lon="4.65884">
        <ele>634.59997558594</ele>
        <time>2026-05-12T13:33:20.000Z</time>
      </trkpt>
      <trkpt lat="45.32081" lon="4.65881">
        <ele>634.59997558594</ele>
        <time>2026-05-12T13:33:21.000Z</time>
      </trkpt>
      <trkpt lat="45.32081" lon="4.65878">
        <ele>634.79998779297</ele>
        <time>2026-05-12T13:33:22.000Z</time>
      </trkpt>
      <trkpt lat="45.32082" lon="4.65874">
        <ele>634.79998779297</ele>
        <time>2026-05-12T13:33:23.000Z</time>
      </trkpt>
      <trkpt lat="45.32083" lon="4.65871">
        <ele>635</ele>
        <time>2026-05-12T13:33:24.000Z</time>
      </trkpt>
      <trkpt lat="45.32084" lon="4.65868">
        <ele>635.20001220703</ele>
        <time>2026-05-12T13:33:25.000Z</time>
      </trkpt>
      <trkpt lat="45.32084" lon="4.65865">
        <ele>635.20001220703</ele>
        <time>2026-05-12T13:33:26.000Z</time>
      </trkpt>
      <trkpt lat="45.32085" lon="4.65862">
        <ele>635.40002441406</ele>
        <time>2026-05-12T13:33:27.000Z</time>
      </trkpt>
      <trkpt lat="45.32085" lon="4.65859">
        <ele>635.40002441406</ele>
        <time>2026-05-12T13:33:28.000Z</time>
      </trkpt>
      <trkpt lat="45.32085" lon="4.65856">
        <ele>635.59997558594</ele>
        <time>2026-05-12T13:33:29.000Z</time>
      </trkpt>
      <trkpt lat="45.32085" lon="4.65853">
        <ele>635.79998779297</ele>
        <time>2026-05-12T13:33:30.000Z</time>
      </trkpt>
      <trkpt lat="45.32086" lon="4.6585">
        <ele>635.79998779297</ele>
        <time>2026-05-12T13:33:31.000Z</time>
      </trkpt>
      <trkpt lat="45.32086" lon="4.65848">
        <ele>636</ele>
        <time>2026-05-12T13:33:32.000Z</time>
      </trkpt>
      <trkpt lat="45.32086" lon="4.65845">
        <ele>636.20001220703</ele>
        <time>2026-05-12T13:33:33.000Z</time>
      </trkpt>
      <trkpt lat="45.32087" lon="4.65841">
        <ele>636.20001220703</ele>
        <time>2026-05-12T13:33:34.000Z</time>
      </trkpt>
      <trkpt lat="45.32087" lon="4.65839">
        <ele>636.40002441406</ele>
        <time>2026-05-12T13:33:35.000Z</time>
      </trkpt>
      <trkpt lat="45.32087" lon="4.65835">
        <ele>636.59997558594</ele>
        <time>2026-05-12T13:33:36.000Z</time>
      </trkpt>
      <trkpt lat="45.32087" lon="4.65832">
        <ele>636.79998779297</ele>
        <time>2026-05-12T13:33:37.000Z</time>
      </trkpt>
      <trkpt lat="45.32087" lon="4.65829">
        <ele>637</ele>
        <time>2026-05-12T13:33:38.000Z</time>
      </trkpt>
      <trkpt lat="45.32087" lon="4.65827">
        <ele>637.20001220703</ele>
        <time>2026-05-12T13:33:39.000Z</time>
      </trkpt>
      <trkpt lat="45.32087" lon="4.65824">
        <ele>637.40002441406</ele>
        <time>2026-05-12T13:33:40.000Z</time>
      </trkpt>
      <trkpt lat="45.32087" lon="4.65821">
        <ele>637.59997558594</ele>
        <time>2026-05-12T13:33:41.000Z</time>
      </trkpt>
      <trkpt lat="45.32087" lon="4.65819">
        <ele>637.79998779297</ele>
        <time>2026-05-12T13:33:42.000Z</time>
      </trkpt>
      <trkpt lat="45.32087" lon="4.65815">
        <ele>638</ele>
        <time>2026-05-12T13:33:43.000Z</time>
      </trkpt>
      <trkpt lat="45.32087" lon="4.65812">
        <ele>638</ele>
        <time>2026-05-12T13:33:44.000Z</time>
      </trkpt>
      <trkpt lat="45.32087" lon="4.6581">
        <ele>638.20001220703</ele>
        <time>2026-05-12T13:33:45.000Z</time>
      </trkpt>
      <trkpt lat="45.32087" lon="4.65807">
        <ele>638.20001220703</ele>
        <time>2026-05-12T13:33:46.000Z</time>
      </trkpt>
      <trkpt lat="45.32087" lon="4.65804">
        <ele>638.20001220703</ele>
        <time>2026-05-12T13:33:47.000Z</time>
      </trkpt>
      <trkpt lat="45.32087" lon="4.65801">
        <ele>638.40002441406</ele>
        <time>2026-05-12T13:33:48.000Z</time>
      </trkpt>
      <trkpt lat="45.32086" lon="4.65798">
        <ele>638.40002441406</ele>
        <time>2026-05-12T13:33:49.000Z</time>
      </trkpt>
      <trkpt lat="45.32086" lon="4.65795">
        <ele>638.59997558594</ele>
        <time>2026-05-12T13:33:50.000Z</time>
      </trkpt>
      <trkpt lat="45.32086" lon="4.65792">
        <ele>638.59997558594</ele>
        <time>2026-05-12T13:33:51.000Z</time>
      </trkpt>
      <trkpt lat="45.32086" lon="4.65789">
        <ele>638.79998779297</ele>
        <time>2026-05-12T13:33:52.000Z</time>
      </trkpt>
      <trkpt lat="45.32086" lon="4.65786">
        <ele>639</ele>
        <time>2026-05-12T13:33:53.000Z</time>
      </trkpt>
      <trkpt lat="45.32087" lon="4.65783">
        <ele>639</ele>
        <time>2026-05-12T13:33:54.000Z</time>
      </trkpt>
      <trkpt lat="45.32086" lon="4.6578">
        <ele>639.20001220703</ele>
        <time>2026-05-12T13:33:55.000Z</time>
      </trkpt>
      <trkpt lat="45.32086" lon="4.65776">
        <ele>639.20001220703</ele>
        <time>2026-05-12T13:33:56.000Z</time>
      </trkpt>
      <trkpt lat="45.32086" lon="4.65773">
        <ele>639.40002441406</ele>
        <time>2026-05-12T13:33:57.000Z</time>
      </trkpt>
      <trkpt lat="45.32086" lon="4.6577">
        <ele>639.59997558594</ele>
        <time>2026-05-12T13:33:58.000Z</time>
      </trkpt>
      <trkpt lat="45.32085" lon="4.65768">
        <ele>639.79998779297</ele>
        <time>2026-05-12T13:33:59.000Z</time>
      </trkpt>
      <trkpt lat="45.32085" lon="4.65765">
        <ele>640</ele>
        <time>2026-05-12T13:34:00.000Z</time>
      </trkpt>
      <trkpt lat="45.32085" lon="4.65761">
        <ele>640.20001220703</ele>
        <time>2026-05-12T13:34:01.000Z</time>
      </trkpt>
      <trkpt lat="45.32084" lon="4.65758">
        <ele>640.20001220703</ele>
        <time>2026-05-12T13:34:02.000Z</time>
      </trkpt>
      <trkpt lat="45.32084" lon="4.65755">
        <ele>640.20001220703</ele>
        <time>2026-05-12T13:34:03.000Z</time>
      </trkpt>
      <trkpt lat="45.32083" lon="4.65752">
        <ele>640.40002441406</ele>
        <time>2026-05-12T13:34:04.000Z</time>
      </trkpt>
      <trkpt lat="45.32083" lon="4.65749">
        <ele>640.40002441406</ele>
        <time>2026-05-12T13:34:05.000Z</time>
      </trkpt>
      <trkpt lat="45.32082" lon="4.65746">
        <ele>640.40002441406</ele>
        <time>2026-05-12T13:34:06.000Z</time>
      </trkpt>
      <trkpt lat="45.32081" lon="4.65743">
        <ele>640.59997558594</ele>
        <time>2026-05-12T13:34:07.000Z</time>
      </trkpt>
      <trkpt lat="45.32081" lon="4.6574">
        <ele>640.59997558594</ele>
        <time>2026-05-12T13:34:08.000Z</time>
      </trkpt>
      <trkpt lat="45.3208" lon="4.65738">
        <ele>640.79998779297</ele>
        <time>2026-05-12T13:34:09.000Z</time>
      </trkpt>
      <trkpt lat="45.32079" lon="4.65735">
        <ele>640.79998779297</ele>
        <time>2026-05-12T13:34:10.000Z</time>
      </trkpt>
      <trkpt lat="45.32079" lon="4.65732">
        <ele>641</ele>
        <time>2026-05-12T13:34:11.000Z</time>
      </trkpt>
      <trkpt lat="45.32078" lon="4.65729">
        <ele>641</ele>
        <time>2026-05-12T13:34:12.000Z</time>
      </trkpt>
      <trkpt lat="45.32077" lon="4.65726">
        <ele>641.20001220703</ele>
        <time>2026-05-12T13:34:13.000Z</time>
      </trkpt>
      <trkpt lat="45.32076" lon="4.65723">
        <ele>641.20001220703</ele>
        <time>2026-05-12T13:34:14.000Z</time>
      </trkpt>
      <trkpt lat="45.32075" lon="4.6572">
        <ele>641.40002441406</ele>
        <time>2026-05-12T13:34:15.000Z</time>
      </trkpt>
      <trkpt lat="45.32074" lon="4.65716">
        <ele>641.40002441406</ele>
        <time>2026-05-12T13:34:16.000Z</time>
      </trkpt>
      <trkpt lat="45.32073" lon="4.65713">
        <ele>641.40002441406</ele>
        <time>2026-05-12T13:34:17.000Z</time>
      </trkpt>
      <trkpt lat="45.32073" lon="4.65709">
        <ele>641.59997558594</ele>
        <time>2026-05-12T13:34:18.000Z</time>
      </trkpt>
      <trkpt lat="45.32072" lon="4.65705">
        <ele>641.59997558594</ele>
        <time>2026-05-12T13:34:19.000Z</time>
      </trkpt>
      <trkpt lat="45.32071" lon="4.65701">
        <ele>641.59997558594</ele>
        <time>2026-05-12T13:34:20.000Z</time>
      </trkpt>
      <trkpt lat="45.32071" lon="4.65697">
        <ele>641.79998779297</ele>
        <time>2026-05-12T13:34:21.000Z</time>
      </trkpt>
      <trkpt lat="45.3207" lon="4.65694">
        <ele>641.79998779297</ele>
        <time>2026-05-12T13:34:22.000Z</time>
      </trkpt>
      <trkpt lat="45.32069" lon="4.65691">
        <ele>642</ele>
        <time>2026-05-12T13:34:23.000Z</time>
      </trkpt>
      <trkpt lat="45.32069" lon="4.65689">
        <ele>642</ele>
        <time>2026-05-12T13:34:24.000Z</time>
      </trkpt>
      <trkpt lat="45.32068" lon="4.65687">
        <ele>642.20001220703</ele>
        <time>2026-05-12T13:34:25.000Z</time>
      </trkpt>
      <trkpt lat="45.32068" lon="4.65684">
        <ele>642.20001220703</ele>
        <time>2026-05-12T13:34:26.000Z</time>
      </trkpt>
      <trkpt lat="45.32067" lon="4.6568">
        <ele>642.20001220703</ele>
        <time>2026-05-12T13:34:27.000Z</time>
      </trkpt>
      <trkpt lat="45.32066" lon="4.65676">
        <ele>642</ele>
        <time>2026-05-12T13:34:28.000Z</time>
      </trkpt>
      <trkpt lat="45.32066" lon="4.65673">
        <ele>642</ele>
        <time>2026-05-12T13:34:29.000Z</time>
      </trkpt>
      <trkpt lat="45.32065" lon="4.65669">
        <ele>642</ele>
        <time>2026-05-12T13:34:30.000Z</time>
      </trkpt>
      <trkpt lat="45.32064" lon="4.65666">
        <ele>642</ele>
        <time>2026-05-12T13:34:31.000Z</time>
      </trkpt>
      <trkpt lat="45.32063" lon="4.65662">
        <ele>642</ele>
        <time>2026-05-12T13:34:32.000Z</time>
      </trkpt>
      <trkpt lat="45.32063" lon="4.65658">
        <ele>642</ele>
        <time>2026-05-12T13:34:33.000Z</time>
      </trkpt>
      <trkpt lat="45.32062" lon="4.65653">
        <ele>641.79998779297</ele>
        <time>2026-05-12T13:34:34.000Z</time>
      </trkpt>
      <trkpt lat="45.32061" lon="4.65648">
        <ele>641.79998779297</ele>
        <time>2026-05-12T13:34:35.000Z</time>
      </trkpt>
      <trkpt lat="45.3206" lon="4.65643">
        <ele>641.59997558594</ele>
        <time>2026-05-12T13:34:36.000Z</time>
      </trkpt>
      <trkpt lat="45.32058" lon="4.65639">
        <ele>641.59997558594</ele>
        <time>2026-05-12T13:34:37.000Z</time>
      </trkpt>
      <trkpt lat="45.32057" lon="4.65634">
        <ele>641.40002441406</ele>
        <time>2026-05-12T13:34:38.000Z</time>
      </trkpt>
      <trkpt lat="45.32056" lon="4.65629">
        <ele>641.20001220703</ele>
        <time>2026-05-12T13:34:39.000Z</time>
      </trkpt>
      <trkpt lat="45.32055" lon="4.65624">
        <ele>641.20001220703</ele>
        <time>2026-05-12T13:34:40.000Z</time>
      </trkpt>
      <trkpt lat="45.32054" lon="4.65619">
        <ele>641</ele>
        <time>2026-05-12T13:34:41.000Z</time>
      </trkpt>
      <trkpt lat="45.32053" lon="4.65614">
        <ele>641</ele>
        <time>2026-05-12T13:34:42.000Z</time>
      </trkpt>
      <trkpt lat="45.32052" lon="4.65608">
        <ele>640.79998779297</ele>
        <time>2026-05-12T13:34:43.000Z</time>
      </trkpt>
      <trkpt lat="45.3205" lon="4.65603">
        <ele>640.79998779297</ele>
        <time>2026-05-12T13:34:44.000Z</time>
      </trkpt>
      <trkpt lat="45.32048" lon="4.65598">
        <ele>640.79998779297</ele>
        <time>2026-05-12T13:34:45.000Z</time>
      </trkpt>
      <trkpt lat="45.32046" lon="4.65593">
        <ele>640.59997558594</ele>
        <time>2026-05-12T13:34:46.000Z</time>
      </trkpt>
      <trkpt lat="45.32045" lon="4.65588">
        <ele>640.59997558594</ele>
        <time>2026-05-12T13:34:47.000Z</time>
      </trkpt>
      <trkpt lat="45.32044" lon="4.65583">
        <ele>640.40002441406</ele>
        <time>2026-05-12T13:34:48.000Z</time>
      </trkpt>
      <trkpt lat="45.32043" lon="4.65579">
        <ele>640.20001220703</ele>
        <time>2026-05-12T13:34:49.000Z</time>
      </trkpt>
      <trkpt lat="45.32043" lon="4.65574">
        <ele>640.20001220703</ele>
        <time>2026-05-12T13:34:50.000Z</time>
      </trkpt>
      <trkpt lat="45.32042" lon="4.65569">
        <ele>640.20001220703</ele>
        <time>2026-05-12T13:34:51.000Z</time>
      </trkpt>
      <trkpt lat="45.32041" lon="4.65565">
        <ele>640</ele>
        <time>2026-05-12T13:34:52.000Z</time>
      </trkpt>
      <trkpt lat="45.32041" lon="4.6556">
        <ele>639.79998779297</ele>
        <time>2026-05-12T13:34:53.000Z</time>
      </trkpt>
      <trkpt lat="45.3204" lon="4.65556">
        <ele>639.79998779297</ele>
        <time>2026-05-12T13:34:54.000Z</time>
      </trkpt>
      <trkpt lat="45.3204" lon="4.65553">
        <ele>639.79998779297</ele>
        <time>2026-05-12T13:34:55.000Z</time>
      </trkpt>
      <trkpt lat="45.32039" lon="4.65549">
        <ele>639.79998779297</ele>
        <time>2026-05-12T13:34:56.000Z</time>
      </trkpt>
      <trkpt lat="45.32039" lon="4.65546">
        <ele>639.79998779297</ele>
        <time>2026-05-12T13:34:57.000Z</time>
      </trkpt>
      <trkpt lat="45.32038" lon="4.65544">
        <ele>639.79998779297</ele>
        <time>2026-05-12T13:34:58.000Z</time>
      </trkpt>
      <trkpt lat="45.32038" lon="4.65541">
        <ele>639.79998779297</ele>
        <time>2026-05-12T13:34:59.000Z</time>
      </trkpt>
      <trkpt lat="45.32037" lon="4.65539">
        <ele>639.79998779297</ele>
        <time>2026-05-12T13:35:00.000Z</time>
      </trkpt>
      <trkpt lat="45.32037" lon="4.65536">
        <ele>639.79998779297</ele>
        <time>2026-05-12T13:35:01.000Z</time>
      </trkpt>
      <trkpt lat="45.32037" lon="4.65533">
        <ele>639.79998779297</ele>
        <time>2026-05-12T13:35:02.000Z</time>
      </trkpt>
      <trkpt lat="45.32036" lon="4.6553">
        <ele>639.59997558594</ele>
        <time>2026-05-12T13:35:03.000Z</time>
      </trkpt>
      <trkpt lat="45.32035" lon="4.65527">
        <ele>639.59997558594</ele>
        <time>2026-05-12T13:35:04.000Z</time>
      </trkpt>
      <trkpt lat="45.32035" lon="4.65524">
        <ele>639.59997558594</ele>
        <time>2026-05-12T13:35:05.000Z</time>
      </trkpt>
      <trkpt lat="45.32034" lon="4.65521">
        <ele>639.59997558594</ele>
        <time>2026-05-12T13:35:06.000Z</time>
      </trkpt>
      <trkpt lat="45.32034" lon="4.65519">
        <ele>639.79998779297</ele>
        <time>2026-05-12T13:35:07.000Z</time>
      </trkpt>
      <trkpt lat="45.32034" lon="4.65517">
        <ele>639.79998779297</ele>
        <time>2026-05-12T13:35:08.000Z</time>
      </trkpt>
      <trkpt lat="45.32033" lon="4.65515">
        <ele>639.79998779297</ele>
        <time>2026-05-12T13:35:09.000Z</time>
      </trkpt>
      <trkpt lat="45.32033" lon="4.65513">
        <ele>639.79998779297</ele>
        <time>2026-05-12T13:35:10.000Z</time>
      </trkpt>
      <trkpt lat="45.32033" lon="4.6551">
        <ele>639.79998779297</ele>
        <time>2026-05-12T13:35:11.000Z</time>
      </trkpt>
      <trkpt lat="45.32032" lon="4.65508">
        <ele>639.79998779297</ele>
        <time>2026-05-12T13:35:12.000Z</time>
      </trkpt>
      <trkpt lat="45.32032" lon="4.65505">
        <ele>639.59997558594</ele>
        <time>2026-05-12T13:35:13.000Z</time>
      </trkpt>
      <trkpt lat="45.32032" lon="4.65502">
        <ele>639.59997558594</ele>
        <time>2026-05-12T13:35:14.000Z</time>
      </trkpt>
      <trkpt lat="45.32032" lon="4.65499">
        <ele>639.59997558594</ele>
        <time>2026-05-12T13:35:15.000Z</time>
      </trkpt>
      <trkpt lat="45.32031" lon="4.65496">
        <ele>639.59997558594</ele>
        <time>2026-05-12T13:35:16.000Z</time>
      </trkpt>
      <trkpt lat="45.32029" lon="4.65493">
        <ele>639.59997558594</ele>
        <time>2026-05-12T13:35:17.000Z</time>
      </trkpt>
      <trkpt lat="45.32028" lon="4.65489">
        <ele>639.59997558594</ele>
        <time>2026-05-12T13:35:18.000Z</time>
      </trkpt>
      <trkpt lat="45.32027" lon="4.65486">
        <ele>639.59997558594</ele>
        <time>2026-05-12T13:35:19.000Z</time>
      </trkpt>
      <trkpt lat="45.32026" lon="4.65483">
        <ele>639.59997558594</ele>
        <time>2026-05-12T13:35:20.000Z</time>
      </trkpt>
      <trkpt lat="45.32025" lon="4.65479">
        <ele>639.59997558594</ele>
        <time>2026-05-12T13:35:21.000Z</time>
      </trkpt>
      <trkpt lat="45.32023" lon="4.65476">
        <ele>639.59997558594</ele>
        <time>2026-05-12T13:35:22.000Z</time>
      </trkpt>
      <trkpt lat="45.32022" lon="4.65472">
        <ele>639.59997558594</ele>
        <time>2026-05-12T13:35:23.000Z</time>
      </trkpt>
      <trkpt lat="45.3202" lon="4.65469">
        <ele>639.59997558594</ele>
        <time>2026-05-12T13:35:24.000Z</time>
      </trkpt>
      <trkpt lat="45.32019" lon="4.65465">
        <ele>639.59997558594</ele>
        <time>2026-05-12T13:35:25.000Z</time>
      </trkpt>
      <trkpt lat="45.32017" lon="4.65462">
        <ele>639.59997558594</ele>
        <time>2026-05-12T13:35:26.000Z</time>
      </trkpt>
      <trkpt lat="45.32016" lon="4.65458">
        <ele>639.59997558594</ele>
        <time>2026-05-12T13:35:27.000Z</time>
      </trkpt>
      <trkpt lat="45.32014" lon="4.65453">
        <ele>639.40002441406</ele>
        <time>2026-05-12T13:35:28.000Z</time>
      </trkpt>
      <trkpt lat="45.32012" lon="4.6545">
        <ele>639.40002441406</ele>
        <time>2026-05-12T13:35:29.000Z</time>
      </trkpt>
      <trkpt lat="45.3201" lon="4.65446">
        <ele>639.40002441406</ele>
        <time>2026-05-12T13:35:30.000Z</time>
      </trkpt>
      <trkpt lat="45.32008" lon="4.65442">
        <ele>639.40002441406</ele>
        <time>2026-05-12T13:35:31.000Z</time>
      </trkpt>
      <trkpt lat="45.32006" lon="4.65438">
        <ele>639.40002441406</ele>
        <time>2026-05-12T13:35:32.000Z</time>
      </trkpt>
      <trkpt lat="45.32004" lon="4.65434">
        <ele>639.40002441406</ele>
        <time>2026-05-12T13:35:33.000Z</time>
      </trkpt>
      <trkpt lat="45.32002" lon="4.6543">
        <ele>639.40002441406</ele>
        <time>2026-05-12T13:35:34.000Z</time>
      </trkpt>
      <trkpt lat="45.32" lon="4.65426">
        <ele>639.59997558594</ele>
        <time>2026-05-12T13:35:35.000Z</time>
      </trkpt>
      <trkpt lat="45.31997" lon="4.65423">
        <ele>639.59997558594</ele>
        <time>2026-05-12T13:35:36.000Z</time>
      </trkpt>
      <trkpt lat="45.31995" lon="4.65419">
        <ele>639.79998779297</ele>
        <time>2026-05-12T13:35:37.000Z</time>
      </trkpt>
      <trkpt lat="45.31993" lon="4.65415">
        <ele>639.79998779297</ele>
        <time>2026-05-12T13:35:38.000Z</time>
      </trkpt>
      <trkpt lat="45.3199" lon="4.65411">
        <ele>639.79998779297</ele>
        <time>2026-05-12T13:35:39.000Z</time>
      </trkpt>
      <trkpt lat="45.31988" lon="4.65407">
        <ele>639.79998779297</ele>
        <time>2026-05-12T13:35:40.000Z</time>
      </trkpt>
      <trkpt lat="45.31986" lon="4.65404">
        <ele>639.79998779297</ele>
        <time>2026-05-12T13:35:41.000Z</time>
      </trkpt>
      <trkpt lat="45.31983" lon="4.654">
        <ele>640</ele>
        <time>2026-05-12T13:35:42.000Z</time>
      </trkpt>
      <trkpt lat="45.31981" lon="4.65396">
        <ele>640</ele>
        <time>2026-05-12T13:35:43.000Z</time>
      </trkpt>
      <trkpt lat="45.31978" lon="4.65392">
        <ele>640</ele>
        <time>2026-05-12T13:35:44.000Z</time>
      </trkpt>
      <trkpt lat="45.31976" lon="4.65388">
        <ele>640</ele>
        <time>2026-05-12T13:35:45.000Z</time>
      </trkpt>
      <trkpt lat="45.31973" lon="4.65384">
        <ele>640.20001220703</ele>
        <time>2026-05-12T13:35:46.000Z</time>
      </trkpt>
      <trkpt lat="45.31971" lon="4.6538">
        <ele>640.20001220703</ele>
        <time>2026-05-12T13:35:47.000Z</time>
      </trkpt>
      <trkpt lat="45.31968" lon="4.65377">
        <ele>640.20001220703</ele>
        <time>2026-05-12T13:35:48.000Z</time>
      </trkpt>
      <trkpt lat="45.31966" lon="4.65373">
        <ele>640.40002441406</ele>
        <time>2026-05-12T13:35:49.000Z</time>
      </trkpt>
      <trkpt lat="45.31964" lon="4.6537">
        <ele>640.40002441406</ele>
        <time>2026-05-12T13:35:50.000Z</time>
      </trkpt>
      <trkpt lat="45.31962" lon="4.65368">
        <ele>640.40002441406</ele>
        <time>2026-05-12T13:35:51.000Z</time>
      </trkpt>
      <trkpt lat="45.31959" lon="4.65365">
        <ele>640.59997558594</ele>
        <time>2026-05-12T13:35:52.000Z</time>
      </trkpt>
      <trkpt lat="45.31957" lon="4.65361">
        <ele>640.59997558594</ele>
        <time>2026-05-12T13:35:53.000Z</time>
      </trkpt>
      <trkpt lat="45.31955" lon="4.65357">
        <ele>640.59997558594</ele>
        <time>2026-05-12T13:35:54.000Z</time>
      </trkpt>
      <trkpt lat="45.31953" lon="4.65354">
        <ele>640.59997558594</ele>
        <time>2026-05-12T13:35:55.000Z</time>
      </trkpt>
      <trkpt lat="45.31951" lon="4.6535">
        <ele>640.59997558594</ele>
        <time>2026-05-12T13:35:56.000Z</time>
      </trkpt>
      <trkpt lat="45.31949" lon="4.65347">
        <ele>640.59997558594</ele>
        <time>2026-05-12T13:35:57.000Z</time>
      </trkpt>
      <trkpt lat="45.31947" lon="4.65343">
        <ele>640.59997558594</ele>
        <time>2026-05-12T13:35:58.000Z</time>
      </trkpt>
      <trkpt lat="45.31944" lon="4.6534">
        <ele>640.79998779297</ele>
        <time>2026-05-12T13:35:59.000Z</time>
      </trkpt>
      <trkpt lat="45.31942" lon="4.65336">
        <ele>641</ele>
        <time>2026-05-12T13:36:00.000Z</time>
      </trkpt>
      <trkpt lat="45.3194" lon="4.65333">
        <ele>641</ele>
        <time>2026-05-12T13:36:01.000Z</time>
      </trkpt>
      <trkpt lat="45.31938" lon="4.6533">
        <ele>641.20001220703</ele>
        <time>2026-05-12T13:36:02.000Z</time>
      </trkpt>
      <trkpt lat="45.31936" lon="4.65326">
        <ele>641.40002441406</ele>
        <time>2026-05-12T13:36:03.000Z</time>
      </trkpt>
      <trkpt lat="45.31934" lon="4.65323">
        <ele>641.59997558594</ele>
        <time>2026-05-12T13:36:04.000Z</time>
      </trkpt>
      <trkpt lat="45.31932" lon="4.65319">
        <ele>641.59997558594</ele>
        <time>2026-05-12T13:36:05.000Z</time>
      </trkpt>
      <trkpt lat="45.31931" lon="4.65317">
        <ele>641.79998779297</ele>
        <time>2026-05-12T13:36:06.000Z</time>
      </trkpt>
      <trkpt lat="45.31929" lon="4.65315">
        <ele>641.79998779297</ele>
        <time>2026-05-12T13:36:07.000Z</time>
      </trkpt>
      <trkpt lat="45.31928" lon="4.65313">
        <ele>642</ele>
        <time>2026-05-12T13:36:08.000Z</time>
      </trkpt>
      <trkpt lat="45.31927" lon="4.6531">
        <ele>642.20001220703</ele>
        <time>2026-05-12T13:36:09.000Z</time>
      </trkpt>
      <trkpt lat="45.31926" lon="4.65308">
        <ele>642.20001220703</ele>
        <time>2026-05-12T13:36:10.000Z</time>
      </trkpt>
      <trkpt lat="45.31925" lon="4.65305">
        <ele>642.40002441406</ele>
        <time>2026-05-12T13:36:11.000Z</time>
      </trkpt>
      <trkpt lat="45.31924" lon="4.65303">
        <ele>642.40002441406</ele>
        <time>2026-05-12T13:36:12.000Z</time>
      </trkpt>
      <trkpt lat="45.31923" lon="4.653">
        <ele>642.40002441406</ele>
        <time>2026-05-12T13:36:13.000Z</time>
      </trkpt>
      <trkpt lat="45.31924" lon="4.65298">
        <ele>642.40002441406</ele>
        <time>2026-05-12T13:36:14.000Z</time>
      </trkpt>
      <trkpt lat="45.31925" lon="4.65296">
        <ele>642.20001220703</ele>
        <time>2026-05-12T13:36:15.000Z</time>
      </trkpt>
      <trkpt lat="45.31927" lon="4.65296">
        <ele>642.20001220703</ele>
        <time>2026-05-12T13:36:16.000Z</time>
      </trkpt>
      <trkpt lat="45.3193" lon="4.65297">
        <ele>642</ele>
        <time>2026-05-12T13:36:17.000Z</time>
      </trkpt>
      <trkpt lat="45.31932" lon="4.65297">
        <ele>642</ele>
        <time>2026-05-12T13:36:18.000Z</time>
      </trkpt>
      <trkpt lat="45.31935" lon="4.65297">
        <ele>642</ele>
        <time>2026-05-12T13:36:19.000Z</time>
      </trkpt>
      <trkpt lat="45.31938" lon="4.65297">
        <ele>642.20001220703</ele>
        <time>2026-05-12T13:36:20.000Z</time>
      </trkpt>
      <trkpt lat="45.31941" lon="4.65297">
        <ele>642.40002441406</ele>
        <time>2026-05-12T13:36:21.000Z</time>
      </trkpt>
      <trkpt lat="45.31944" lon="4.65297">
        <ele>642.59997558594</ele>
        <time>2026-05-12T13:36:22.000Z</time>
      </trkpt>
      <trkpt lat="45.31947" lon="4.65296">
        <ele>642.79998779297</ele>
        <time>2026-05-12T13:36:23.000Z</time>
      </trkpt>
      <trkpt lat="45.31949" lon="4.65296">
        <ele>643</ele>
        <time>2026-05-12T13:36:24.000Z</time>
      </trkpt>
      <trkpt lat="45.31951" lon="4.65295">
        <ele>643.40002441406</ele>
        <time>2026-05-12T13:36:25.000Z</time>
      </trkpt>
      <trkpt lat="45.31953" lon="4.65294">
        <ele>643.59997558594</ele>
        <time>2026-05-12T13:36:26.000Z</time>
      </trkpt>
      <trkpt lat="45.31955" lon="4.65293">
        <ele>643.79998779297</ele>
        <time>2026-05-12T13:36:27.000Z</time>
      </trkpt>
      <trkpt lat="45.31957" lon="4.65292">
        <ele>644</ele>
        <time>2026-05-12T13:36:28.000Z</time>
      </trkpt>
      <trkpt lat="45.3196" lon="4.65291">
        <ele>644.20001220703</ele>
        <time>2026-05-12T13:36:29.000Z</time>
      </trkpt>
      <trkpt lat="45.31961" lon="4.6529">
        <ele>644.20001220703</ele>
        <time>2026-05-12T13:36:30.000Z</time>
      </trkpt>
      <trkpt lat="45.31963" lon="4.65289">
        <ele>644.40002441406</ele>
        <time>2026-05-12T13:36:31.000Z</time>
      </trkpt>
      <trkpt lat="45.31965" lon="4.65289">
        <ele>644.59997558594</ele>
        <time>2026-05-12T13:36:32.000Z</time>
      </trkpt>
      <trkpt lat="45.31967" lon="4.65288">
        <ele>644.59997558594</ele>
        <time>2026-05-12T13:36:33.000Z</time>
      </trkpt>
      <trkpt lat="45.31969" lon="4.65287">
        <ele>644.59997558594</ele>
        <time>2026-05-12T13:36:34.000Z</time>
      </trkpt>
      <trkpt lat="45.31971" lon="4.65286">
        <ele>644.79998779297</ele>
        <time>2026-05-12T13:36:35.000Z</time>
      </trkpt>
      <trkpt lat="45.31974" lon="4.65285">
        <ele>644.79998779297</ele>
        <time>2026-05-12T13:36:36.000Z</time>
      </trkpt>
      <trkpt lat="45.31976" lon="4.65284">
        <ele>645</ele>
        <time>2026-05-12T13:36:37.000Z</time>
      </trkpt>
      <trkpt lat="45.31978" lon="4.65283">
        <ele>645.20001220703</ele>
        <time>2026-05-12T13:36:38.000Z</time>
      </trkpt>
      <trkpt lat="45.3198" lon="4.65283">
        <ele>645.40002441406</ele>
        <time>2026-05-12T13:36:39.000Z</time>
      </trkpt>
      <trkpt lat="45.31983" lon="4.65282">
        <ele>645.40002441406</ele>
        <time>2026-05-12T13:36:40.000Z</time>
      </trkpt>
      <trkpt lat="45.31985" lon="4.65282">
        <ele>645.59997558594</ele>
        <time>2026-05-12T13:36:41.000Z</time>
      </trkpt>
      <trkpt lat="45.31988" lon="4.65281">
        <ele>645.79998779297</ele>
        <time>2026-05-12T13:36:42.000Z</time>
      </trkpt>
      <trkpt lat="45.3199" lon="4.6528">
        <ele>645.79998779297</ele>
        <time>2026-05-12T13:36:43.000Z</time>
      </trkpt>
      <trkpt lat="45.31993" lon="4.65279">
        <ele>646</ele>
        <time>2026-05-12T13:36:44.000Z</time>
      </trkpt>
      <trkpt lat="45.31995" lon="4.65279">
        <ele>646</ele>
        <time>2026-05-12T13:36:45.000Z</time>
      </trkpt>
      <trkpt lat="45.31998" lon="4.65278">
        <ele>646</ele>
        <time>2026-05-12T13:36:46.000Z</time>
      </trkpt>
      <trkpt lat="45.32" lon="4.65277">
        <ele>646.20001220703</ele>
        <time>2026-05-12T13:36:47.000Z</time>
      </trkpt>
      <trkpt lat="45.32003" lon="4.65276">
        <ele>646.20001220703</ele>
        <time>2026-05-12T13:36:48.000Z</time>
      </trkpt>
      <trkpt lat="45.32005" lon="4.65275">
        <ele>646.40002441406</ele>
        <time>2026-05-12T13:36:49.000Z</time>
      </trkpt>
      <trkpt lat="45.32007" lon="4.65274">
        <ele>646.59997558594</ele>
        <time>2026-05-12T13:36:50.000Z</time>
      </trkpt>
      <trkpt lat="45.3201" lon="4.65273">
        <ele>646.79998779297</ele>
        <time>2026-05-12T13:36:51.000Z</time>
      </trkpt>
      <trkpt lat="45.32012" lon="4.65272">
        <ele>646.79998779297</ele>
        <time>2026-05-12T13:36:52.000Z</time>
      </trkpt>
      <trkpt lat="45.32013" lon="4.65271">
        <ele>647</ele>
        <time>2026-05-12T13:36:53.000Z</time>
      </trkpt>
      <trkpt lat="45.32015" lon="4.6527">
        <ele>647.20001220703</ele>
        <time>2026-05-12T13:36:54.000Z</time>
      </trkpt>
      <trkpt lat="45.32017" lon="4.65269">
        <ele>647.20001220703</ele>
        <time>2026-05-12T13:36:55.000Z</time>
      </trkpt>
      <trkpt lat="45.32019" lon="4.65268">
        <ele>647.40002441406</ele>
        <time>2026-05-12T13:36:56.000Z</time>
      </trkpt>
      <trkpt lat="45.32022" lon="4.65267">
        <ele>647.40002441406</ele>
        <time>2026-05-12T13:36:57.000Z</time>
      </trkpt>
      <trkpt lat="45.32025" lon="4.65265">
        <ele>647.59997558594</ele>
        <time>2026-05-12T13:36:58.000Z</time>
      </trkpt>
      <trkpt lat="45.32027" lon="4.65264">
        <ele>647.59997558594</ele>
        <time>2026-05-12T13:36:59.000Z</time>
      </trkpt>
      <trkpt lat="45.3203" lon="4.65263">
        <ele>647.59997558594</ele>
        <time>2026-05-12T13:37:00.000Z</time>
      </trkpt>
      <trkpt lat="45.32032" lon="4.65261">
        <ele>647.79998779297</ele>
        <time>2026-05-12T13:37:01.000Z</time>
      </trkpt>
      <trkpt lat="45.32034" lon="4.6526">
        <ele>647.79998779297</ele>
        <time>2026-05-12T13:37:02.000Z</time>
      </trkpt>
      <trkpt lat="45.32036" lon="4.65259">
        <ele>647.79998779297</ele>
        <time>2026-05-12T13:37:03.000Z</time>
      </trkpt>
      <trkpt lat="45.32038" lon="4.65258">
        <ele>647.79998779297</ele>
        <time>2026-05-12T13:37:04.000Z</time>
      </trkpt>
      <trkpt lat="45.32041" lon="4.65257">
        <ele>647.79998779297</ele>
        <time>2026-05-12T13:37:05.000Z</time>
      </trkpt>
      <trkpt lat="45.32043" lon="4.65256">
        <ele>647.79998779297</ele>
        <time>2026-05-12T13:37:06.000Z</time>
      </trkpt>
      <trkpt lat="45.32046" lon="4.65255">
        <ele>647.79998779297</ele>
        <time>2026-05-12T13:37:07.000Z</time>
      </trkpt>
      <trkpt lat="45.32048" lon="4.65253">
        <ele>648</ele>
        <time>2026-05-12T13:37:08.000Z</time>
      </trkpt>
      <trkpt lat="45.32051" lon="4.65252">
        <ele>648</ele>
        <time>2026-05-12T13:37:09.000Z</time>
      </trkpt>
      <trkpt lat="45.32053" lon="4.65251">
        <ele>648</ele>
        <time>2026-05-12T13:37:10.000Z</time>
      </trkpt>
      <trkpt lat="45.32056" lon="4.6525">
        <ele>648.20001220703</ele>
        <time>2026-05-12T13:37:11.000Z</time>
      </trkpt>
      <trkpt lat="45.32058" lon="4.6525">
        <ele>648.40002441406</ele>
        <time>2026-05-12T13:37:12.000Z</time>
      </trkpt>
      <trkpt lat="45.3206" lon="4.65249">
        <ele>648.40002441406</ele>
        <time>2026-05-12T13:37:13.000Z</time>
      </trkpt>
      <trkpt lat="45.32063" lon="4.65248">
        <ele>648.59997558594</ele>
        <time>2026-05-12T13:37:14.000Z</time>
      </trkpt>
      <trkpt lat="45.32065" lon="4.65246">
        <ele>648.59997558594</ele>
        <time>2026-05-12T13:37:15.000Z</time>
      </trkpt>
      <trkpt lat="45.32067" lon="4.65245">
        <ele>648.79998779297</ele>
        <time>2026-05-12T13:37:16.000Z</time>
      </trkpt>
      <trkpt lat="45.32069" lon="4.65244">
        <ele>648.79998779297</ele>
        <time>2026-05-12T13:37:17.000Z</time>
      </trkpt>
      <trkpt lat="45.32072" lon="4.65243">
        <ele>648.79998779297</ele>
        <time>2026-05-12T13:37:18.000Z</time>
      </trkpt>
      <trkpt lat="45.32074" lon="4.65242">
        <ele>648.79998779297</ele>
        <time>2026-05-12T13:37:19.000Z</time>
      </trkpt>
      <trkpt lat="45.32077" lon="4.65241">
        <ele>648.79998779297</ele>
        <time>2026-05-12T13:37:20.000Z</time>
      </trkpt>
      <trkpt lat="45.3208" lon="4.65239">
        <ele>648.59997558594</ele>
        <time>2026-05-12T13:37:21.000Z</time>
      </trkpt>
      <trkpt lat="45.32083" lon="4.65238">
        <ele>648.79998779297</ele>
        <time>2026-05-12T13:37:22.000Z</time>
      </trkpt>
      <trkpt lat="45.32085" lon="4.65237">
        <ele>648.79998779297</ele>
        <time>2026-05-12T13:37:23.000Z</time>
      </trkpt>
      <trkpt lat="45.32088" lon="4.65236">
        <ele>649</ele>
        <time>2026-05-12T13:37:24.000Z</time>
      </trkpt>
      <trkpt lat="45.3209" lon="4.65235">
        <ele>649.20001220703</ele>
        <time>2026-05-12T13:37:25.000Z</time>
      </trkpt>
      <trkpt lat="45.32093" lon="4.65235">
        <ele>649.40002441406</ele>
        <time>2026-05-12T13:37:26.000Z</time>
      </trkpt>
      <trkpt lat="45.32095" lon="4.65234">
        <ele>649.59997558594</ele>
        <time>2026-05-12T13:37:27.000Z</time>
      </trkpt>
      <trkpt lat="45.32098" lon="4.65233">
        <ele>649.59997558594</ele>
        <time>2026-05-12T13:37:28.000Z</time>
      </trkpt>
      <trkpt lat="45.321" lon="4.65232">
        <ele>649.59997558594</ele>
        <time>2026-05-12T13:37:29.000Z</time>
      </trkpt>
      <trkpt lat="45.32102" lon="4.65231">
        <ele>649.59997558594</ele>
        <time>2026-05-12T13:37:30.000Z</time>
      </trkpt>
      <trkpt lat="45.32104" lon="4.6523">
        <ele>649.59997558594</ele>
        <time>2026-05-12T13:37:31.000Z</time>
      </trkpt>
      <trkpt lat="45.32106" lon="4.6523">
        <ele>649.79998779297</ele>
        <time>2026-05-12T13:37:32.000Z</time>
      </trkpt>
      <trkpt lat="45.32108" lon="4.65229">
        <ele>650</ele>
        <time>2026-05-12T13:37:33.000Z</time>
      </trkpt>
      <trkpt lat="45.32111" lon="4.65228">
        <ele>650</ele>
        <time>2026-05-12T13:37:34.000Z</time>
      </trkpt>
      <trkpt lat="45.32113" lon="4.65227">
        <ele>650.20001220703</ele>
        <time>2026-05-12T13:37:35.000Z</time>
      </trkpt>
      <trkpt lat="45.32115" lon="4.65226">
        <ele>650.40002441406</ele>
        <time>2026-05-12T13:37:36.000Z</time>
      </trkpt>
      <trkpt lat="45.32117" lon="4.65226">
        <ele>650.40002441406</ele>
        <time>2026-05-12T13:37:37.000Z</time>
      </trkpt>
      <trkpt lat="45.3212" lon="4.65225">
        <ele>650.59997558594</ele>
        <time>2026-05-12T13:37:38.000Z</time>
      </trkpt>
      <trkpt lat="45.32122" lon="4.65224">
        <ele>650.59997558594</ele>
        <time>2026-05-12T13:37:39.000Z</time>
      </trkpt>
      <trkpt lat="45.32124" lon="4.65223">
        <ele>650.79998779297</ele>
        <time>2026-05-12T13:37:40.000Z</time>
      </trkpt>
      <trkpt lat="45.32127" lon="4.65222">
        <ele>650.79998779297</ele>
        <time>2026-05-12T13:37:41.000Z</time>
      </trkpt>
      <trkpt lat="45.32129" lon="4.65221">
        <ele>651</ele>
        <time>2026-05-12T13:37:42.000Z</time>
      </trkpt>
      <trkpt lat="45.32131" lon="4.6522">
        <ele>651.20001220703</ele>
        <time>2026-05-12T13:37:43.000Z</time>
      </trkpt>
      <trkpt lat="45.32133" lon="4.6522">
        <ele>651.20001220703</ele>
        <time>2026-05-12T13:37:44.000Z</time>
      </trkpt>
      <trkpt lat="45.32135" lon="4.65219">
        <ele>651.40002441406</ele>
        <time>2026-05-12T13:37:45.000Z</time>
      </trkpt>
      <trkpt lat="45.32138" lon="4.65217">
        <ele>651.59997558594</ele>
        <time>2026-05-12T13:37:46.000Z</time>
      </trkpt>
      <trkpt lat="45.3214" lon="4.65216">
        <ele>651.59997558594</ele>
        <time>2026-05-12T13:37:47.000Z</time>
      </trkpt>
      <trkpt lat="45.32142" lon="4.65215">
        <ele>651.79998779297</ele>
        <time>2026-05-12T13:37:48.000Z</time>
      </trkpt>
      <trkpt lat="45.32144" lon="4.65214">
        <ele>651.79998779297</ele>
        <time>2026-05-12T13:37:49.000Z</time>
      </trkpt>
      <trkpt lat="45.32146" lon="4.65213">
        <ele>651.79998779297</ele>
        <time>2026-05-12T13:37:50.000Z</time>
      </trkpt>
      <trkpt lat="45.32149" lon="4.65212">
        <ele>651.79998779297</ele>
        <time>2026-05-12T13:37:51.000Z</time>
      </trkpt>
      <trkpt lat="45.32151" lon="4.65211">
        <ele>651.79998779297</ele>
        <time>2026-05-12T13:37:52.000Z</time>
      </trkpt>
      <trkpt lat="45.32154" lon="4.6521">
        <ele>651.79998779297</ele>
        <time>2026-05-12T13:37:53.000Z</time>
      </trkpt>
      <trkpt lat="45.32156" lon="4.65208">
        <ele>651.79998779297</ele>
        <time>2026-05-12T13:37:54.000Z</time>
      </trkpt>
      <trkpt lat="45.32159" lon="4.65207">
        <ele>652</ele>
        <time>2026-05-12T13:37:55.000Z</time>
      </trkpt>
      <trkpt lat="45.32161" lon="4.65206">
        <ele>652.20001220703</ele>
        <time>2026-05-12T13:37:56.000Z</time>
      </trkpt>
      <trkpt lat="45.32163" lon="4.65205">
        <ele>652.40002441406</ele>
        <time>2026-05-12T13:37:57.000Z</time>
      </trkpt>
      <trkpt lat="45.32166" lon="4.65205">
        <ele>652.59997558594</ele>
        <time>2026-05-12T13:37:58.000Z</time>
      </trkpt>
      <trkpt lat="45.32168" lon="4.65204">
        <ele>652.79998779297</ele>
        <time>2026-05-12T13:37:59.000Z</time>
      </trkpt>
      <trkpt lat="45.3217" lon="4.65202">
        <ele>653</ele>
        <time>2026-05-12T13:38:00.000Z</time>
      </trkpt>
      <trkpt lat="45.32172" lon="4.65201">
        <ele>653.20001220703</ele>
        <time>2026-05-12T13:38:01.000Z</time>
      </trkpt>
      <trkpt lat="45.32175" lon="4.652">
        <ele>653.20001220703</ele>
        <time>2026-05-12T13:38:02.000Z</time>
      </trkpt>
      <trkpt lat="45.32177" lon="4.65199">
        <ele>653.40002441406</ele>
        <time>2026-05-12T13:38:03.000Z</time>
      </trkpt>
      <trkpt lat="45.32179" lon="4.65198">
        <ele>653.40002441406</ele>
        <time>2026-05-12T13:38:04.000Z</time>
      </trkpt>
      <trkpt lat="45.32182" lon="4.65197">
        <ele>653.40002441406</ele>
        <time>2026-05-12T13:38:05.000Z</time>
      </trkpt>
      <trkpt lat="45.32184" lon="4.65196">
        <ele>653.40002441406</ele>
        <time>2026-05-12T13:38:06.000Z</time>
      </trkpt>
      <trkpt lat="45.32186" lon="4.65195">
        <ele>653.40002441406</ele>
        <time>2026-05-12T13:38:07.000Z</time>
      </trkpt>
      <trkpt lat="45.32189" lon="4.65194">
        <ele>653.59997558594</ele>
        <time>2026-05-12T13:38:08.000Z</time>
      </trkpt>
      <trkpt lat="45.32191" lon="4.65192">
        <ele>653.59997558594</ele>
        <time>2026-05-12T13:38:09.000Z</time>
      </trkpt>
      <trkpt lat="45.32194" lon="4.65191">
        <ele>653.59997558594</ele>
        <time>2026-05-12T13:38:10.000Z</time>
      </trkpt>
      <trkpt lat="45.32196" lon="4.6519">
        <ele>653.59997558594</ele>
        <time>2026-05-12T13:38:11.000Z</time>
      </trkpt>
      <trkpt lat="45.32198" lon="4.65189">
        <ele>653.79998779297</ele>
        <time>2026-05-12T13:38:12.000Z</time>
      </trkpt>
      <trkpt lat="45.322" lon="4.65187">
        <ele>653.79998779297</ele>
        <time>2026-05-12T13:38:13.000Z</time>
      </trkpt>
      <trkpt lat="45.32202" lon="4.65186">
        <ele>653.79998779297</ele>
        <time>2026-05-12T13:38:14.000Z</time>
      </trkpt>
      <trkpt lat="45.32204" lon="4.65185">
        <ele>654</ele>
        <time>2026-05-12T13:38:15.000Z</time>
      </trkpt>
      <trkpt lat="45.32206" lon="4.65184">
        <ele>654</ele>
        <time>2026-05-12T13:38:16.000Z</time>
      </trkpt>
      <trkpt lat="45.32208" lon="4.65183">
        <ele>654</ele>
        <time>2026-05-12T13:38:17.000Z</time>
      </trkpt>
      <trkpt lat="45.32211" lon="4.65181">
        <ele>654</ele>
        <time>2026-05-12T13:38:18.000Z</time>
      </trkpt>
      <trkpt lat="45.32212" lon="4.65179">
        <ele>654.20001220703</ele>
        <time>2026-05-12T13:38:19.000Z</time>
      </trkpt>
      <trkpt lat="45.32214" lon="4.65176">
        <ele>654.20001220703</ele>
        <time>2026-05-12T13:38:20.000Z</time>
      </trkpt>
      <trkpt lat="45.32217" lon="4.65174">
        <ele>654.20001220703</ele>
        <time>2026-05-12T13:38:21.000Z</time>
      </trkpt>
      <trkpt lat="45.32219" lon="4.65173">
        <ele>654.40002441406</ele>
        <time>2026-05-12T13:38:22.000Z</time>
      </trkpt>
      <trkpt lat="45.32221" lon="4.65171">
        <ele>654.40002441406</ele>
        <time>2026-05-12T13:38:23.000Z</time>
      </trkpt>
      <trkpt lat="45.32223" lon="4.65169">
        <ele>654.59997558594</ele>
        <time>2026-05-12T13:38:24.000Z</time>
      </trkpt>
      <trkpt lat="45.32226" lon="4.65168">
        <ele>654.59997558594</ele>
        <time>2026-05-12T13:38:25.000Z</time>
      </trkpt>
      <trkpt lat="45.32228" lon="4.65166">
        <ele>654.79998779297</ele>
        <time>2026-05-12T13:38:26.000Z</time>
      </trkpt>
      <trkpt lat="45.32231" lon="4.65165">
        <ele>654.79998779297</ele>
        <time>2026-05-12T13:38:27.000Z</time>
      </trkpt>
      <trkpt lat="45.32234" lon="4.65165">
        <ele>654.79998779297</ele>
        <time>2026-05-12T13:38:28.000Z</time>
      </trkpt>
      <trkpt lat="45.32237" lon="4.65164">
        <ele>654.79998779297</ele>
        <time>2026-05-12T13:38:29.000Z</time>
      </trkpt>
      <trkpt lat="45.3224" lon="4.65163">
        <ele>654.79998779297</ele>
        <time>2026-05-12T13:38:30.000Z</time>
      </trkpt>
      <trkpt lat="45.32242" lon="4.65162">
        <ele>654.79998779297</ele>
        <time>2026-05-12T13:38:31.000Z</time>
      </trkpt>
      <trkpt lat="45.32244" lon="4.65161">
        <ele>654.79998779297</ele>
        <time>2026-05-12T13:38:32.000Z</time>
      </trkpt>
      <trkpt lat="45.32247" lon="4.6516">
        <ele>654.59997558594</ele>
        <time>2026-05-12T13:38:33.000Z</time>
      </trkpt>
      <trkpt lat="45.3225" lon="4.6516">
        <ele>654.79998779297</ele>
        <time>2026-05-12T13:38:34.000Z</time>
      </trkpt>
      <trkpt lat="45.32252" lon="4.65159">
        <ele>654.79998779297</ele>
        <time>2026-05-12T13:38:35.000Z</time>
      </trkpt>
      <trkpt lat="45.32255" lon="4.65158">
        <ele>655</ele>
        <time>2026-05-12T13:38:36.000Z</time>
      </trkpt>
      <trkpt lat="45.32258" lon="4.65157">
        <ele>655.20001220703</ele>
        <time>2026-05-12T13:38:37.000Z</time>
      </trkpt>
      <trkpt lat="45.32261" lon="4.65156">
        <ele>655.40002441406</ele>
        <time>2026-05-12T13:38:38.000Z</time>
      </trkpt>
      <trkpt lat="45.32263" lon="4.65155">
        <ele>655.59997558594</ele>
        <time>2026-05-12T13:38:39.000Z</time>
      </trkpt>
      <trkpt lat="45.32266" lon="4.65154">
        <ele>655.59997558594</ele>
        <time>2026-05-12T13:38:40.000Z</time>
      </trkpt>
      <trkpt lat="45.32269" lon="4.65154">
        <ele>655.59997558594</ele>
        <time>2026-05-12T13:38:41.000Z</time>
      </trkpt>
      <trkpt lat="45.32271" lon="4.65153">
        <ele>655.59997558594</ele>
        <time>2026-05-12T13:38:42.000Z</time>
      </trkpt>
      <trkpt lat="45.32273" lon="4.65153">
        <ele>655.59997558594</ele>
        <time>2026-05-12T13:38:43.000Z</time>
      </trkpt>
      <trkpt lat="45.32275" lon="4.65153">
        <ele>655.59997558594</ele>
        <time>2026-05-12T13:38:44.000Z</time>
      </trkpt>
      <trkpt lat="45.32277" lon="4.65153">
        <ele>655.59997558594</ele>
        <time>2026-05-12T13:38:45.000Z</time>
      </trkpt>
      <trkpt lat="45.32279" lon="4.65153">
        <ele>655.40002441406</ele>
        <time>2026-05-12T13:38:46.000Z</time>
      </trkpt>
      <trkpt lat="45.32281" lon="4.65152">
        <ele>655.40002441406</ele>
        <time>2026-05-12T13:38:47.000Z</time>
      </trkpt>
      <trkpt lat="45.32283" lon="4.65152">
        <ele>655.40002441406</ele>
        <time>2026-05-12T13:38:48.000Z</time>
      </trkpt>
      <trkpt lat="45.32286" lon="4.65152">
        <ele>655.40002441406</ele>
        <time>2026-05-12T13:38:49.000Z</time>
      </trkpt>
      <trkpt lat="45.32288" lon="4.65151">
        <ele>655.40002441406</ele>
        <time>2026-05-12T13:38:50.000Z</time>
      </trkpt>
      <trkpt lat="45.3229" lon="4.65151">
        <ele>655.20001220703</ele>
        <time>2026-05-12T13:38:51.000Z</time>
      </trkpt>
      <trkpt lat="45.32292" lon="4.65151">
        <ele>655.20001220703</ele>
        <time>2026-05-12T13:38:52.000Z</time>
      </trkpt>
      <trkpt lat="45.32294" lon="4.65151">
        <ele>655</ele>
        <time>2026-05-12T13:38:53.000Z</time>
      </trkpt>
      <trkpt lat="45.32296" lon="4.65151">
        <ele>655</ele>
        <time>2026-05-12T13:38:54.000Z</time>
      </trkpt>
      <trkpt lat="45.32299" lon="4.65151">
        <ele>654.79998779297</ele>
        <time>2026-05-12T13:38:55.000Z</time>
      </trkpt>
      <trkpt lat="45.32301" lon="4.6515">
        <ele>654.59997558594</ele>
        <time>2026-05-12T13:38:56.000Z</time>
      </trkpt>
      <trkpt lat="45.32304" lon="4.65149">
        <ele>654.40002441406</ele>
        <time>2026-05-12T13:38:57.000Z</time>
      </trkpt>
      <trkpt lat="45.32306" lon="4.65148">
        <ele>654.40002441406</ele>
        <time>2026-05-12T13:38:58.000Z</time>
      </trkpt>
      <trkpt lat="45.32308" lon="4.65145">
        <ele>654.40002441406</ele>
        <time>2026-05-12T13:38:59.000Z</time>
      </trkpt>
      <trkpt lat="45.3231" lon="4.65142">
        <ele>654.59997558594</ele>
        <time>2026-05-12T13:39:00.000Z</time>
      </trkpt>
      <trkpt lat="45.32311" lon="4.65138">
        <ele>654.79998779297</ele>
        <time>2026-05-12T13:39:01.000Z</time>
      </trkpt>
      <trkpt lat="45.32311" lon="4.65134">
        <ele>655</ele>
        <time>2026-05-12T13:39:02.000Z</time>
      </trkpt>
      <trkpt lat="45.32311" lon="4.65131">
        <ele>655.20001220703</ele>
        <time>2026-05-12T13:39:03.000Z</time>
      </trkpt>
      <trkpt lat="45.32312" lon="4.65127">
        <ele>655.59997558594</ele>
        <time>2026-05-12T13:39:04.000Z</time>
      </trkpt>
      <trkpt lat="45.32311" lon="4.65124">
        <ele>655.79998779297</ele>
        <time>2026-05-12T13:39:05.000Z</time>
      </trkpt>
      <trkpt lat="45.32311" lon="4.65121">
        <ele>656.20001220703</ele>
        <time>2026-05-12T13:39:06.000Z</time>
      </trkpt>
      <trkpt lat="45.32311" lon="4.65117">
        <ele>656.59997558594</ele>
        <time>2026-05-12T13:39:07.000Z</time>
      </trkpt>
      <trkpt lat="45.32311" lon="4.65114">
        <ele>657</ele>
        <time>2026-05-12T13:39:08.000Z</time>
      </trkpt>
      <trkpt lat="45.32311" lon="4.65111">
        <ele>657.40002441406</ele>
        <time>2026-05-12T13:39:09.000Z</time>
      </trkpt>
      <trkpt lat="45.32311" lon="4.65108">
        <ele>657.79998779297</ele>
        <time>2026-05-12T13:39:10.000Z</time>
      </trkpt>
      <trkpt lat="45.3231" lon="4.65105">
        <ele>658</ele>
        <time>2026-05-12T13:39:11.000Z</time>
      </trkpt>
      <trkpt lat="45.3231" lon="4.65101">
        <ele>658.40002441406</ele>
        <time>2026-05-12T13:39:12.000Z</time>
      </trkpt>
      <trkpt lat="45.3231" lon="4.65098">
        <ele>658.59997558594</ele>
        <time>2026-05-12T13:39:13.000Z</time>
      </trkpt>
      <trkpt lat="45.32309" lon="4.65094">
        <ele>659</ele>
        <time>2026-05-12T13:39:14.000Z</time>
      </trkpt>
      <trkpt lat="45.32308" lon="4.6509">
        <ele>659.20001220703</ele>
        <time>2026-05-12T13:39:15.000Z</time>
      </trkpt>
      <trkpt lat="45.32308" lon="4.65087">
        <ele>659.20001220703</ele>
        <time>2026-05-12T13:39:16.000Z</time>
      </trkpt>
      <trkpt lat="45.32307" lon="4.65083">
        <ele>659.40002441406</ele>
        <time>2026-05-12T13:39:17.000Z</time>
      </trkpt>
      <trkpt lat="45.32307" lon="4.65079">
        <ele>659.59997558594</ele>
        <time>2026-05-12T13:39:18.000Z</time>
      </trkpt>
      <trkpt lat="45.32306" lon="4.65075">
        <ele>659.59997558594</ele>
        <time>2026-05-12T13:39:19.000Z</time>
      </trkpt>
      <trkpt lat="45.32306" lon="4.65071">
        <ele>659.79998779297</ele>
        <time>2026-05-12T13:39:20.000Z</time>
      </trkpt>
      <trkpt lat="45.32305" lon="4.65068">
        <ele>660</ele>
        <time>2026-05-12T13:39:21.000Z</time>
      </trkpt>
      <trkpt lat="45.32305" lon="4.65065">
        <ele>660</ele>
        <time>2026-05-12T13:39:22.000Z</time>
      </trkpt>
      <trkpt lat="45.32305" lon="4.65063">
        <ele>660</ele>
        <time>2026-05-12T13:39:23.000Z</time>
      </trkpt>
      <trkpt lat="45.32305" lon="4.6506">
        <ele>660</ele>
        <time>2026-05-12T13:39:24.000Z</time>
      </trkpt>
      <trkpt lat="45.32305" lon="4.65058">
        <ele>660.20001220703</ele>
        <time>2026-05-12T13:39:25.000Z</time>
      </trkpt>
      <trkpt lat="45.32304" lon="4.65055">
        <ele>660</ele>
        <time>2026-05-12T13:39:26.000Z</time>
      </trkpt>
      <trkpt lat="45.32304" lon="4.65052">
        <ele>660</ele>
        <time>2026-05-12T13:39:27.000Z</time>
      </trkpt>
      <trkpt lat="45.32303" lon="4.65049">
        <ele>659.79998779297</ele>
        <time>2026-05-12T13:39:28.000Z</time>
      </trkpt>
      <trkpt lat="45.32303" lon="4.65045">
        <ele>659.79998779297</ele>
        <time>2026-05-12T13:39:29.000Z</time>
      </trkpt>
      <trkpt lat="45.32303" lon="4.65041">
        <ele>659.59997558594</ele>
        <time>2026-05-12T13:39:30.000Z</time>
      </trkpt>
      <trkpt lat="45.32302" lon="4.65036">
        <ele>659.40002441406</ele>
        <time>2026-05-12T13:39:31.000Z</time>
      </trkpt>
      <trkpt lat="45.32302" lon="4.65032">
        <ele>659.20001220703</ele>
        <time>2026-05-12T13:39:32.000Z</time>
      </trkpt>
      <trkpt lat="45.32301" lon="4.65027">
        <ele>659</ele>
        <time>2026-05-12T13:39:33.000Z</time>
      </trkpt>
      <trkpt lat="45.32301" lon="4.65023">
        <ele>658.79998779297</ele>
        <time>2026-05-12T13:39:34.000Z</time>
      </trkpt>
      <trkpt lat="45.323" lon="4.65018">
        <ele>658.59997558594</ele>
        <time>2026-05-12T13:39:35.000Z</time>
      </trkpt>
      <trkpt lat="45.323" lon="4.65013">
        <ele>658.40002441406</ele>
        <time>2026-05-12T13:39:36.000Z</time>
      </trkpt>
      <trkpt lat="45.323" lon="4.65007">
        <ele>658.20001220703</ele>
        <time>2026-05-12T13:39:37.000Z</time>
      </trkpt>
      <trkpt lat="45.32299" lon="4.65002">
        <ele>657.79998779297</ele>
        <time>2026-05-12T13:39:38.000Z</time>
      </trkpt>
      <trkpt lat="45.32299" lon="4.64997">
        <ele>657.59997558594</ele>
        <time>2026-05-12T13:39:39.000Z</time>
      </trkpt>
      <trkpt lat="45.32299" lon="4.64992">
        <ele>657.59997558594</ele>
        <time>2026-05-12T13:39:40.000Z</time>
      </trkpt>
      <trkpt lat="45.32299" lon="4.64987">
        <ele>657.20001220703</ele>
        <time>2026-05-12T13:39:41.000Z</time>
      </trkpt>
      <trkpt lat="45.32298" lon="4.64981">
        <ele>657</ele>
        <time>2026-05-12T13:39:42.000Z</time>
      </trkpt>
      <trkpt lat="45.32297" lon="4.64975">
        <ele>656.79998779297</ele>
        <time>2026-05-12T13:39:43.000Z</time>
      </trkpt>
      <trkpt lat="45.32297" lon="4.64969">
        <ele>656.40002441406</ele>
        <time>2026-05-12T13:39:44.000Z</time>
      </trkpt>
      <trkpt lat="45.32296" lon="4.64963">
        <ele>656.20001220703</ele>
        <time>2026-05-12T13:39:45.000Z</time>
      </trkpt>
      <trkpt lat="45.32297" lon="4.64958">
        <ele>655.79998779297</ele>
        <time>2026-05-12T13:39:46.000Z</time>
      </trkpt>
      <trkpt lat="45.32297" lon="4.64953">
        <ele>655.40002441406</ele>
        <time>2026-05-12T13:39:47.000Z</time>
      </trkpt>
      <trkpt lat="45.32298" lon="4.64948">
        <ele>655.20001220703</ele>
        <time>2026-05-12T13:39:48.000Z</time>
      </trkpt>
      <trkpt lat="45.32298" lon="4.64944">
        <ele>655</ele>
        <time>2026-05-12T13:39:49.000Z</time>
      </trkpt>
      <trkpt lat="45.32297" lon="4.6494">
        <ele>655</ele>
        <time>2026-05-12T13:39:50.000Z</time>
      </trkpt>
      <trkpt lat="45.32296" lon="4.64936">
        <ele>654.79998779297</ele>
        <time>2026-05-12T13:39:51.000Z</time>
      </trkpt>
      <trkpt lat="45.32295" lon="4.64932">
        <ele>654.59997558594</ele>
        <time>2026-05-12T13:39:52.000Z</time>
      </trkpt>
      <trkpt lat="45.32293" lon="4.64928">
        <ele>654.40002441406</ele>
        <time>2026-05-12T13:39:53.000Z</time>
      </trkpt>
      <trkpt lat="45.32292" lon="4.64923">
        <ele>654.20001220703</ele>
        <time>2026-05-12T13:39:54.000Z</time>
      </trkpt>
      <trkpt lat="45.32291" lon="4.64919">
        <ele>654</ele>
        <time>2026-05-12T13:39:55.000Z</time>
      </trkpt>
      <trkpt lat="45.32289" lon="4.64916">
        <ele>653.79998779297</ele>
        <time>2026-05-12T13:39:56.000Z</time>
      </trkpt>
      <trkpt lat="45.32288" lon="4.64912">
        <ele>653.40002441406</ele>
        <time>2026-05-12T13:39:57.000Z</time>
      </trkpt>
      <trkpt lat="45.32288" lon="4.64908">
        <ele>653.20001220703</ele>
        <time>2026-05-12T13:39:58.000Z</time>
      </trkpt>
      <trkpt lat="45.32287" lon="4.64904">
        <ele>652.79998779297</ele>
        <time>2026-05-12T13:39:59.000Z</time>
      </trkpt>
      <trkpt lat="45.32287" lon="4.64901">
        <ele>652.59997558594</ele>
        <time>2026-05-12T13:40:00.000Z</time>
      </trkpt>
      <trkpt lat="45.32286" lon="4.64897">
        <ele>652.20001220703</ele>
        <time>2026-05-12T13:40:01.000Z</time>
      </trkpt>
      <trkpt lat="45.32286" lon="4.64894">
        <ele>651.79998779297</ele>
        <time>2026-05-12T13:40:02.000Z</time>
      </trkpt>
      <trkpt lat="45.32286" lon="4.64892">
        <ele>651.40002441406</ele>
        <time>2026-05-12T13:40:03.000Z</time>
      </trkpt>
      <trkpt lat="45.32286" lon="4.6489">
        <ele>651</ele>
        <time>2026-05-12T13:40:04.000Z</time>
      </trkpt>
      <trkpt lat="45.32286" lon="4.64888">
        <ele>650.79998779297</ele>
        <time>2026-05-12T13:40:05.000Z</time>
      </trkpt>
      <trkpt lat="45.32285" lon="4.64886">
        <ele>650.40002441406</ele>
        <time>2026-05-12T13:40:06.000Z</time>
      </trkpt>
      <trkpt lat="45.32284" lon="4.64883">
        <ele>650.20001220703</ele>
        <time>2026-05-12T13:40:07.000Z</time>
      </trkpt>
      <trkpt lat="45.32284" lon="4.6488">
        <ele>650</ele>
        <time>2026-05-12T13:40:08.000Z</time>
      </trkpt>
      <trkpt lat="45.32284" lon="4.64877">
        <ele>649.59997558594</ele>
        <time>2026-05-12T13:40:09.000Z</time>
      </trkpt>
      <trkpt lat="45.32284" lon="4.64874">
        <ele>649.20001220703</ele>
        <time>2026-05-12T13:40:10.000Z</time>
      </trkpt>
      <trkpt lat="45.32284" lon="4.6487">
        <ele>649</ele>
        <time>2026-05-12T13:40:11.000Z</time>
      </trkpt>
      <trkpt lat="45.32285" lon="4.64866">
        <ele>648.59997558594</ele>
        <time>2026-05-12T13:40:12.000Z</time>
      </trkpt>
      <trkpt lat="45.32285" lon="4.64863">
        <ele>648.20001220703</ele>
        <time>2026-05-12T13:40:13.000Z</time>
      </trkpt>
      <trkpt lat="45.32285" lon="4.64859">
        <ele>647.79998779297</ele>
        <time>2026-05-12T13:40:14.000Z</time>
      </trkpt>
      <trkpt lat="45.32285" lon="4.64855">
        <ele>647.40002441406</ele>
        <time>2026-05-12T13:40:15.000Z</time>
      </trkpt>
      <trkpt lat="45.32286" lon="4.64851">
        <ele>647</ele>
        <time>2026-05-12T13:40:16.000Z</time>
      </trkpt>
      <trkpt lat="45.32286" lon="4.64847">
        <ele>646.40002441406</ele>
        <time>2026-05-12T13:40:17.000Z</time>
      </trkpt>
      <trkpt lat="45.32287" lon="4.64844">
        <ele>646</ele>
        <time>2026-05-12T13:40:18.000Z</time>
      </trkpt>
      <trkpt lat="45.32287" lon="4.6484">
        <ele>645.79998779297</ele>
        <time>2026-05-12T13:40:19.000Z</time>
      </trkpt>
      <trkpt lat="45.32287" lon="4.64838">
        <ele>645.40002441406</ele>
        <time>2026-05-12T13:40:20.000Z</time>
      </trkpt>
      <trkpt lat="45.32288" lon="4.64835">
        <ele>645</ele>
        <time>2026-05-12T13:40:21.000Z</time>
      </trkpt>
      <trkpt lat="45.32288" lon="4.64831">
        <ele>644.79998779297</ele>
        <time>2026-05-12T13:40:22.000Z</time>
      </trkpt>
      <trkpt lat="45.32289" lon="4.64828">
        <ele>644.40002441406</ele>
        <time>2026-05-12T13:40:23.000Z</time>
      </trkpt>
      <trkpt lat="45.3229" lon="4.64825">
        <ele>644.20001220703</ele>
        <time>2026-05-12T13:40:24.000Z</time>
      </trkpt>
      <trkpt lat="45.32291" lon="4.64822">
        <ele>644</ele>
        <time>2026-05-12T13:40:25.000Z</time>
      </trkpt>
      <trkpt lat="45.32292" lon="4.64819">
        <ele>643.79998779297</ele>
        <time>2026-05-12T13:40:26.000Z</time>
      </trkpt>
      <trkpt lat="45.32292" lon="4.64816">
        <ele>643.59997558594</ele>
        <time>2026-05-12T13:40:27.000Z</time>
      </trkpt>
      <trkpt lat="45.32293" lon="4.64814">
        <ele>643.40002441406</ele>
        <time>2026-05-12T13:40:28.000Z</time>
      </trkpt>
      <trkpt lat="45.32293" lon="4.64811">
        <ele>643.20001220703</ele>
        <time>2026-05-12T13:40:29.000Z</time>
      </trkpt>
      <trkpt lat="45.32294" lon="4.64809">
        <ele>643</ele>
        <time>2026-05-12T13:40:30.000Z</time>
      </trkpt>
      <trkpt lat="45.32294" lon="4.64806">
        <ele>642.79998779297</ele>
        <time>2026-05-12T13:40:31.000Z</time>
      </trkpt>
      <trkpt lat="45.32295" lon="4.64803">
        <ele>642.59997558594</ele>
        <time>2026-05-12T13:40:32.000Z</time>
      </trkpt>
      <trkpt lat="45.32295" lon="4.648">
        <ele>642.40002441406</ele>
        <time>2026-05-12T13:40:33.000Z</time>
      </trkpt>
      <trkpt lat="45.32295" lon="4.64797">
        <ele>642.20001220703</ele>
        <time>2026-05-12T13:40:34.000Z</time>
      </trkpt>
      <trkpt lat="45.32295" lon="4.64793">
        <ele>642</ele>
        <time>2026-05-12T13:40:35.000Z</time>
      </trkpt>
      <trkpt lat="45.32295" lon="4.64789">
        <ele>641.79998779297</ele>
        <time>2026-05-12T13:40:36.000Z</time>
      </trkpt>
      <trkpt lat="45.32294" lon="4.64785">
        <ele>641.59997558594</ele>
        <time>2026-05-12T13:40:37.000Z</time>
      </trkpt>
      <trkpt lat="45.32293" lon="4.64781">
        <ele>641.20001220703</ele>
        <time>2026-05-12T13:40:38.000Z</time>
      </trkpt>
      <trkpt lat="45.32293" lon="4.64776">
        <ele>640.79998779297</ele>
        <time>2026-05-12T13:40:39.000Z</time>
      </trkpt>
      <trkpt lat="45.32291" lon="4.64771">
        <ele>640.40002441406</ele>
        <time>2026-05-12T13:40:40.000Z</time>
      </trkpt>
      <trkpt lat="45.32289" lon="4.64765">
        <ele>639.79998779297</ele>
        <time>2026-05-12T13:40:41.000Z</time>
      </trkpt>
      <trkpt lat="45.32287" lon="4.6476">
        <ele>639.40002441406</ele>
        <time>2026-05-12T13:40:42.000Z</time>
      </trkpt>
      <trkpt lat="45.32285" lon="4.64754">
        <ele>638.79998779297</ele>
        <time>2026-05-12T13:40:43.000Z</time>
      </trkpt>
      <trkpt lat="45.32282" lon="4.64748">
        <ele>638.40002441406</ele>
        <time>2026-05-12T13:40:44.000Z</time>
      </trkpt>
      <trkpt lat="45.32281" lon="4.64743">
        <ele>638</ele>
        <time>2026-05-12T13:40:45.000Z</time>
      </trkpt>
      <trkpt lat="45.32279" lon="4.64737">
        <ele>637.59997558594</ele>
        <time>2026-05-12T13:40:46.000Z</time>
      </trkpt>
      <trkpt lat="45.32277" lon="4.64731">
        <ele>637.20001220703</ele>
        <time>2026-05-12T13:40:47.000Z</time>
      </trkpt>
      <trkpt lat="45.32277" lon="4.64726">
        <ele>637</ele>
        <time>2026-05-12T13:40:48.000Z</time>
      </trkpt>
      <trkpt lat="45.32276" lon="4.6472">
        <ele>636.59997558594</ele>
        <time>2026-05-12T13:40:49.000Z</time>
      </trkpt>
      <trkpt lat="45.32275" lon="4.64715">
        <ele>636.40002441406</ele>
        <time>2026-05-12T13:40:50.000Z</time>
      </trkpt>
      <trkpt lat="45.32274" lon="4.6471">
        <ele>636.20001220703</ele>
        <time>2026-05-12T13:40:51.000Z</time>
      </trkpt>
      <trkpt lat="45.32273" lon="4.64706">
        <ele>636.20001220703</ele>
        <time>2026-05-12T13:40:52.000Z</time>
      </trkpt>
      <trkpt lat="45.32273" lon="4.64703">
        <ele>636</ele>
        <time>2026-05-12T13:40:53.000Z</time>
      </trkpt>
      <trkpt lat="45.32272" lon="4.647">
        <ele>635.79998779297</ele>
        <time>2026-05-12T13:40:54.000Z</time>
      </trkpt>
      <trkpt lat="45.32272" lon="4.64697">
        <ele>635.79998779297</ele>
        <time>2026-05-12T13:40:55.000Z</time>
      </trkpt>
      <trkpt lat="45.32271" lon="4.64695">
        <ele>635.59997558594</ele>
        <time>2026-05-12T13:40:56.000Z</time>
      </trkpt>
      <trkpt lat="45.3227" lon="4.64693">
        <ele>635.59997558594</ele>
        <time>2026-05-12T13:40:57.000Z</time>
      </trkpt>
      <trkpt lat="45.3227" lon="4.64691">
        <ele>635.40002441406</ele>
        <time>2026-05-12T13:40:58.000Z</time>
      </trkpt>
      <trkpt lat="45.32269" lon="4.6469">
        <ele>635.40002441406</ele>
        <time>2026-05-12T13:40:59.000Z</time>
      </trkpt>
      <trkpt lat="45.32268" lon="4.64688">
        <ele>635.20001220703</ele>
        <time>2026-05-12T13:41:00.000Z</time>
      </trkpt>
      <trkpt lat="45.32268" lon="4.64687">
        <ele>635.20001220703</ele>
        <time>2026-05-12T13:41:01.000Z</time>
      </trkpt>
      <trkpt lat="45.32266" lon="4.64686">
        <ele>635</ele>
        <time>2026-05-12T13:41:02.000Z</time>
      </trkpt>
      <trkpt lat="45.32265" lon="4.64686">
        <ele>634.79998779297</ele>
        <time>2026-05-12T13:41:03.000Z</time>
      </trkpt>
      <trkpt lat="45.32263" lon="4.64687">
        <ele>634.59997558594</ele>
        <time>2026-05-12T13:41:04.000Z</time>
      </trkpt>
      <trkpt lat="45.32262" lon="4.6469">
        <ele>634.40002441406</ele>
        <time>2026-05-12T13:41:05.000Z</time>
      </trkpt>
      <trkpt lat="45.32261" lon="4.64693">
        <ele>634.20001220703</ele>
        <time>2026-05-12T13:41:06.000Z</time>
      </trkpt>
      <trkpt lat="45.3226" lon="4.64696">
        <ele>634</ele>
        <time>2026-05-12T13:41:07.000Z</time>
      </trkpt>
      <trkpt lat="45.32259" lon="4.64699">
        <ele>633.79998779297</ele>
        <time>2026-05-12T13:41:08.000Z</time>
      </trkpt>
      <trkpt lat="45.32258" lon="4.64702">
        <ele>633.79998779297</ele>
        <time>2026-05-12T13:41:09.000Z</time>
      </trkpt>
      <trkpt lat="45.32257" lon="4.64706">
        <ele>633.79998779297</ele>
        <time>2026-05-12T13:41:10.000Z</time>
      </trkpt>
      <trkpt lat="45.32257" lon="4.6471">
        <ele>633.79998779297</ele>
        <time>2026-05-12T13:41:11.000Z</time>
      </trkpt>
      <trkpt lat="45.32257" lon="4.64715">
        <ele>633.59997558594</ele>
        <time>2026-05-12T13:41:12.000Z</time>
      </trkpt>
      <trkpt lat="45.32257" lon="4.64721">
        <ele>633.40002441406</ele>
        <time>2026-05-12T13:41:13.000Z</time>
      </trkpt>
      <trkpt lat="45.32257" lon="4.64727">
        <ele>633.40002441406</ele>
        <time>2026-05-12T13:41:14.000Z</time>
      </trkpt>
      <trkpt lat="45.32258" lon="4.64732">
        <ele>633.20001220703</ele>
        <time>2026-05-12T13:41:15.000Z</time>
      </trkpt>
      <trkpt lat="45.32258" lon="4.64738">
        <ele>633</ele>
        <time>2026-05-12T13:41:16.000Z</time>
      </trkpt>
      <trkpt lat="45.32258" lon="4.64744">
        <ele>633</ele>
        <time>2026-05-12T13:41:17.000Z</time>
      </trkpt>
      <trkpt lat="45.32259" lon="4.6475">
        <ele>633</ele>
        <time>2026-05-12T13:41:18.000Z</time>
      </trkpt>
      <trkpt lat="45.32259" lon="4.64755">
        <ele>633</ele>
        <time>2026-05-12T13:41:19.000Z</time>
      </trkpt>
      <trkpt lat="45.32259" lon="4.64759">
        <ele>633</ele>
        <time>2026-05-12T13:41:20.000Z</time>
      </trkpt>
      <trkpt lat="45.32257" lon="4.64763">
        <ele>633</ele>
        <time>2026-05-12T13:41:21.000Z</time>
      </trkpt>
      <trkpt lat="45.32254" lon="4.64766">
        <ele>632.79998779297</ele>
        <time>2026-05-12T13:41:22.000Z</time>
      </trkpt>
      <trkpt lat="45.32251" lon="4.64767">
        <ele>632.79998779297</ele>
        <time>2026-05-12T13:41:23.000Z</time>
      </trkpt>
      <trkpt lat="45.32249" lon="4.64766">
        <ele>632.59997558594</ele>
        <time>2026-05-12T13:41:24.000Z</time>
      </trkpt>
      <trkpt lat="45.32246" lon="4.64764">
        <ele>632.40002441406</ele>
        <time>2026-05-12T13:41:25.000Z</time>
      </trkpt>
      <trkpt lat="45.32243" lon="4.64761">
        <ele>632.20001220703</ele>
        <time>2026-05-12T13:41:26.000Z</time>
      </trkpt>
      <trkpt lat="45.32241" lon="4.64758">
        <ele>632</ele>
        <time>2026-05-12T13:41:27.000Z</time>
      </trkpt>
      <trkpt lat="45.32238" lon="4.64754">
        <ele>631.79998779297</ele>
        <time>2026-05-12T13:41:28.000Z</time>
      </trkpt>
      <trkpt lat="45.32235" lon="4.6475">
        <ele>631.40002441406</ele>
        <time>2026-05-12T13:41:29.000Z</time>
      </trkpt>
      <trkpt lat="45.32233" lon="4.64746">
        <ele>631</ele>
        <time>2026-05-12T13:41:30.000Z</time>
      </trkpt>
      <trkpt lat="45.3223" lon="4.64742">
        <ele>630.59997558594</ele>
        <time>2026-05-12T13:41:31.000Z</time>
      </trkpt>
      <trkpt lat="45.32227" lon="4.64739">
        <ele>630</ele>
        <time>2026-05-12T13:41:32.000Z</time>
      </trkpt>
      <trkpt lat="45.32224" lon="4.64737">
        <ele>629.59997558594</ele>
        <time>2026-05-12T13:41:33.000Z</time>
      </trkpt>
      <trkpt lat="45.32221" lon="4.64734">
        <ele>629</ele>
        <time>2026-05-12T13:41:34.000Z</time>
      </trkpt>
      <trkpt lat="45.32219" lon="4.6473">
        <ele>628.59997558594</ele>
        <time>2026-05-12T13:41:35.000Z</time>
      </trkpt>
      <trkpt lat="45.32217" lon="4.64727">
        <ele>628.20001220703</ele>
        <time>2026-05-12T13:41:36.000Z</time>
      </trkpt>
      <trkpt lat="45.32217" lon="4.64722">
        <ele>627.59997558594</ele>
        <time>2026-05-12T13:41:37.000Z</time>
      </trkpt>
      <trkpt lat="45.32217" lon="4.64718">
        <ele>627.20001220703</ele>
        <time>2026-05-12T13:41:38.000Z</time>
      </trkpt>
      <trkpt lat="45.32218" lon="4.64713">
        <ele>626.79998779297</ele>
        <time>2026-05-12T13:41:39.000Z</time>
      </trkpt>
      <trkpt lat="45.32219" lon="4.64709">
        <ele>626.20001220703</ele>
        <time>2026-05-12T13:41:40.000Z</time>
      </trkpt>
      <trkpt lat="45.32219" lon="4.64704">
        <ele>625.59997558594</ele>
        <time>2026-05-12T13:41:41.000Z</time>
      </trkpt>
      <trkpt lat="45.32219" lon="4.64699">
        <ele>625</ele>
        <time>2026-05-12T13:41:42.000Z</time>
      </trkpt>
      <trkpt lat="45.32218" lon="4.64694">
        <ele>624.20001220703</ele>
        <time>2026-05-12T13:41:43.000Z</time>
      </trkpt>
      <trkpt lat="45.32216" lon="4.64689">
        <ele>623.59997558594</ele>
        <time>2026-05-12T13:41:44.000Z</time>
      </trkpt>
      <trkpt lat="45.32214" lon="4.64685">
        <ele>622.79998779297</ele>
        <time>2026-05-12T13:41:45.000Z</time>
      </trkpt>
      <trkpt lat="45.32211" lon="4.64681">
        <ele>622</ele>
        <time>2026-05-12T13:41:46.000Z</time>
      </trkpt>
      <trkpt lat="45.32208" lon="4.64677">
        <ele>621.40002441406</ele>
        <time>2026-05-12T13:41:47.000Z</time>
      </trkpt>
      <trkpt lat="45.32203" lon="4.64671">
        <ele>620.40002441406</ele>
        <time>2026-05-12T13:41:48.000Z</time>
      </trkpt>
      <trkpt lat="45.32199" lon="4.64666">
        <ele>619.59997558594</ele>
        <time>2026-05-12T13:41:49.000Z</time>
      </trkpt>
      <trkpt lat="45.32193" lon="4.6466">
        <ele>618.59997558594</ele>
        <time>2026-05-12T13:41:50.000Z</time>
      </trkpt>
      <trkpt lat="45.32186" lon="4.64655">
        <ele>617.79998779297</ele>
        <time>2026-05-12T13:41:51.000Z</time>
      </trkpt>
      <trkpt lat="45.3218" lon="4.6465">
        <ele>616.79998779297</ele>
        <time>2026-05-12T13:41:52.000Z</time>
      </trkpt>
      <trkpt lat="45.32173" lon="4.64646">
        <ele>616</ele>
        <time>2026-05-12T13:41:53.000Z</time>
      </trkpt>
      <trkpt lat="45.32167" lon="4.64643">
        <ele>615.40002441406</ele>
        <time>2026-05-12T13:41:54.000Z</time>
      </trkpt>
      <trkpt lat="45.3216" lon="4.6464">
        <ele>614.79998779297</ele>
        <time>2026-05-12T13:41:55.000Z</time>
      </trkpt>
      <trkpt lat="45.32154" lon="4.64637">
        <ele>614.20001220703</ele>
        <time>2026-05-12T13:41:56.000Z</time>
      </trkpt>
      <trkpt lat="45.32147" lon="4.64635">
        <ele>613.79998779297</ele>
        <time>2026-05-12T13:41:57.000Z</time>
      </trkpt>
      <trkpt lat="45.32141" lon="4.64634">
        <ele>613.20001220703</ele>
        <time>2026-05-12T13:41:58.000Z</time>
      </trkpt>
      <trkpt lat="45.32134" lon="4.64632">
        <ele>612.79998779297</ele>
        <time>2026-05-12T13:41:59.000Z</time>
      </trkpt>
      <trkpt lat="45.32127" lon="4.6463">
        <ele>612.40002441406</ele>
        <time>2026-05-12T13:42:00.000Z</time>
      </trkpt>
      <trkpt lat="45.32121" lon="4.64629">
        <ele>612</ele>
        <time>2026-05-12T13:42:01.000Z</time>
      </trkpt>
      <trkpt lat="45.32114" lon="4.64627">
        <ele>611.79998779297</ele>
        <time>2026-05-12T13:42:02.000Z</time>
      </trkpt>
      <trkpt lat="45.32108" lon="4.64625">
        <ele>611.79998779297</ele>
        <time>2026-05-12T13:42:03.000Z</time>
      </trkpt>
      <trkpt lat="45.32102" lon="4.64624">
        <ele>611.79998779297</ele>
        <time>2026-05-12T13:42:04.000Z</time>
      </trkpt>
      <trkpt lat="45.32097" lon="4.64622">
        <ele>611.79998779297</ele>
        <time>2026-05-12T13:42:05.000Z</time>
      </trkpt>
      <trkpt lat="45.32092" lon="4.64622">
        <ele>612.20001220703</ele>
        <time>2026-05-12T13:42:06.000Z</time>
      </trkpt>
      <trkpt lat="45.32088" lon="4.64621">
        <ele>612.59997558594</ele>
        <time>2026-05-12T13:42:07.000Z</time>
      </trkpt>
      <trkpt lat="45.32085" lon="4.64621">
        <ele>613</ele>
        <time>2026-05-12T13:42:08.000Z</time>
      </trkpt>
      <trkpt lat="45.32083" lon="4.64621">
        <ele>613.59997558594</ele>
        <time>2026-05-12T13:42:09.000Z</time>
      </trkpt>
      <trkpt lat="45.32081" lon="4.64621">
        <ele>614.20001220703</ele>
        <time>2026-05-12T13:42:10.000Z</time>
      </trkpt>
      <trkpt lat="45.32079" lon="4.64622">
        <ele>614.59997558594</ele>
        <time>2026-05-12T13:42:11.000Z</time>
      </trkpt>
      <trkpt lat="45.32077" lon="4.64622">
        <ele>615</ele>
        <time>2026-05-12T13:42:12.000Z</time>
      </trkpt>
      <trkpt lat="45.32075" lon="4.64622">
        <ele>615.40002441406</ele>
        <time>2026-05-12T13:42:13.000Z</time>
      </trkpt>
      <trkpt lat="45.32073" lon="4.64622">
        <ele>615.59997558594</ele>
        <time>2026-05-12T13:42:14.000Z</time>
      </trkpt>
      <trkpt lat="45.3207" lon="4.64622">
        <ele>615.79998779297</ele>
        <time>2026-05-12T13:42:15.000Z</time>
      </trkpt>
      <trkpt lat="45.32068" lon="4.64623">
        <ele>616.20001220703</ele>
        <time>2026-05-12T13:42:16.000Z</time>
      </trkpt>
      <trkpt lat="45.32066" lon="4.64623">
        <ele>616.40002441406</ele>
        <time>2026-05-12T13:42:17.000Z</time>
      </trkpt>
      <trkpt lat="45.32064" lon="4.64624">
        <ele>616.59997558594</ele>
        <time>2026-05-12T13:42:18.000Z</time>
      </trkpt>
      <trkpt lat="45.32062" lon="4.64624">
        <ele>616.79998779297</ele>
        <time>2026-05-12T13:42:19.000Z</time>
      </trkpt>
      <trkpt lat="45.32059" lon="4.64625">
        <ele>617</ele>
        <time>2026-05-12T13:42:20.000Z</time>
      </trkpt>
      <trkpt lat="45.32057" lon="4.64626">
        <ele>617.20001220703</ele>
        <time>2026-05-12T13:42:21.000Z</time>
      </trkpt>
      <trkpt lat="45.32055" lon="4.64626">
        <ele>617.40002441406</ele>
        <time>2026-05-12T13:42:22.000Z</time>
      </trkpt>
      <trkpt lat="45.32053" lon="4.64627">
        <ele>617.59997558594</ele>
        <time>2026-05-12T13:42:23.000Z</time>
      </trkpt>
      <trkpt lat="45.32051" lon="4.64627">
        <ele>617.79998779297</ele>
        <time>2026-05-12T13:42:24.000Z</time>
      </trkpt>
      <trkpt lat="45.3205" lon="4.64628">
        <ele>618</ele>
        <time>2026-05-12T13:42:25.000Z</time>
      </trkpt>
      <trkpt lat="45.32048" lon="4.64628">
        <ele>618.20001220703</ele>
        <time>2026-05-12T13:42:26.000Z</time>
      </trkpt>
      <trkpt lat="45.32046" lon="4.64628">
        <ele>618.40002441406</ele>
        <time>2026-05-12T13:42:27.000Z</time>
      </trkpt>
      <trkpt lat="45.32044" lon="4.64627">
        <ele>618.40002441406</ele>
        <time>2026-05-12T13:42:28.000Z</time>
      </trkpt>
      <trkpt lat="45.32042" lon="4.64625">
        <ele>618.40002441406</ele>
        <time>2026-05-12T13:42:29.000Z</time>
      </trkpt>
      <trkpt lat="45.3204" lon="4.64623">
        <ele>618.40002441406</ele>
        <time>2026-05-12T13:42:30.000Z</time>
      </trkpt>
      <trkpt lat="45.32038" lon="4.6462">
        <ele>618.20001220703</ele>
        <time>2026-05-12T13:42:31.000Z</time>
      </trkpt>
      <trkpt lat="45.32037" lon="4.64618">
        <ele>618</ele>
        <time>2026-05-12T13:42:32.000Z</time>
      </trkpt>
      <trkpt lat="45.32034" lon="4.64616">
        <ele>617.59997558594</ele>
        <time>2026-05-12T13:42:33.000Z</time>
      </trkpt>
      <trkpt lat="45.32032" lon="4.64614">
        <ele>617.40002441406</ele>
        <time>2026-05-12T13:42:34.000Z</time>
      </trkpt>
      <trkpt lat="45.3203" lon="4.64613">
        <ele>617</ele>
        <time>2026-05-12T13:42:35.000Z</time>
      </trkpt>
      <trkpt lat="45.32027" lon="4.64611">
        <ele>616.59997558594</ele>
        <time>2026-05-12T13:42:36.000Z</time>
      </trkpt>
      <trkpt lat="45.32025" lon="4.64609">
        <ele>616.20001220703</ele>
        <time>2026-05-12T13:42:37.000Z</time>
      </trkpt>
      <trkpt lat="45.32023" lon="4.64607">
        <ele>615.79998779297</ele>
        <time>2026-05-12T13:42:38.000Z</time>
      </trkpt>
      <trkpt lat="45.32021" lon="4.64605">
        <ele>615.40002441406</ele>
        <time>2026-05-12T13:42:39.000Z</time>
      </trkpt>
      <trkpt lat="45.32019" lon="4.64602">
        <ele>615</ele>
        <time>2026-05-12T13:42:40.000Z</time>
      </trkpt>
      <trkpt lat="45.32016" lon="4.64599">
        <ele>614.40002441406</ele>
        <time>2026-05-12T13:42:41.000Z</time>
      </trkpt>
      <trkpt lat="45.32013" lon="4.64595">
        <ele>614</ele>
        <time>2026-05-12T13:42:42.000Z</time>
      </trkpt>
      <trkpt lat="45.32011" lon="4.64591">
        <ele>613.40002441406</ele>
        <time>2026-05-12T13:42:43.000Z</time>
      </trkpt>
      <trkpt lat="45.32009" lon="4.64587">
        <ele>612.79998779297</ele>
        <time>2026-05-12T13:42:44.000Z</time>
      </trkpt>
      <trkpt lat="45.32007" lon="4.64583">
        <ele>612.20001220703</ele>
        <time>2026-05-12T13:42:45.000Z</time>
      </trkpt>
      <trkpt lat="45.32006" lon="4.64579">
        <ele>611.79998779297</ele>
        <time>2026-05-12T13:42:46.000Z</time>
      </trkpt>
      <trkpt lat="45.32004" lon="4.64575">
        <ele>611.20001220703</ele>
        <time>2026-05-12T13:42:47.000Z</time>
      </trkpt>
      <trkpt lat="45.32002" lon="4.6457">
        <ele>610.59997558594</ele>
        <time>2026-05-12T13:42:48.000Z</time>
      </trkpt>
      <trkpt lat="45.32001" lon="4.64566">
        <ele>610.20001220703</ele>
        <time>2026-05-12T13:42:49.000Z</time>
      </trkpt>
      <trkpt lat="45.31999" lon="4.64562">
        <ele>609.79998779297</ele>
        <time>2026-05-12T13:42:50.000Z</time>
      </trkpt>
      <trkpt lat="45.31997" lon="4.64557">
        <ele>609.59997558594</ele>
        <time>2026-05-12T13:42:51.000Z</time>
      </trkpt>
      <trkpt lat="45.31996" lon="4.64553">
        <ele>609.20001220703</ele>
        <time>2026-05-12T13:42:52.000Z</time>
      </trkpt>
      <trkpt lat="45.31994" lon="4.64549">
        <ele>608.79998779297</ele>
        <time>2026-05-12T13:42:53.000Z</time>
      </trkpt>
      <trkpt lat="45.31991" lon="4.64545">
        <ele>608.40002441406</ele>
        <time>2026-05-12T13:42:54.000Z</time>
      </trkpt>
      <trkpt lat="45.31989" lon="4.6454">
        <ele>608</ele>
        <time>2026-05-12T13:42:55.000Z</time>
      </trkpt>
      <trkpt lat="45.31987" lon="4.64536">
        <ele>607.79998779297</ele>
        <time>2026-05-12T13:42:56.000Z</time>
      </trkpt>
      <trkpt lat="45.31986" lon="4.64532">
        <ele>607.40002441406</ele>
        <time>2026-05-12T13:42:57.000Z</time>
      </trkpt>
      <trkpt lat="45.31984" lon="4.64529">
        <ele>607.20001220703</ele>
        <time>2026-05-12T13:42:58.000Z</time>
      </trkpt>
      <trkpt lat="45.31982" lon="4.64525">
        <ele>606.79998779297</ele>
        <time>2026-05-12T13:42:59.000Z</time>
      </trkpt>
      <trkpt lat="45.3198" lon="4.64521">
        <ele>606.40002441406</ele>
        <time>2026-05-12T13:43:00.000Z</time>
      </trkpt>
      <trkpt lat="45.31978" lon="4.64518">
        <ele>606</ele>
        <time>2026-05-12T13:43:01.000Z</time>
      </trkpt>
      <trkpt lat="45.31976" lon="4.64514">
        <ele>605.59997558594</ele>
        <time>2026-05-12T13:43:02.000Z</time>
      </trkpt>
      <trkpt lat="45.31974" lon="4.64509">
        <ele>605.20001220703</ele>
        <time>2026-05-12T13:43:03.000Z</time>
      </trkpt>
      <trkpt lat="45.31971" lon="4.64504">
        <ele>604.79998779297</ele>
        <time>2026-05-12T13:43:04.000Z</time>
      </trkpt>
      <trkpt lat="45.31969" lon="4.645">
        <ele>604.40002441406</ele>
        <time>2026-05-12T13:43:05.000Z</time>
      </trkpt>
      <trkpt lat="45.31967" lon="4.64496">
        <ele>604</ele>
        <time>2026-05-12T13:43:06.000Z</time>
      </trkpt>
      <trkpt lat="45.31965" lon="4.64493">
        <ele>603.59997558594</ele>
        <time>2026-05-12T13:43:07.000Z</time>
      </trkpt>
      <trkpt lat="45.31963" lon="4.64489">
        <ele>603.20001220703</ele>
        <time>2026-05-12T13:43:08.000Z</time>
      </trkpt>
      <trkpt lat="45.31961" lon="4.64486">
        <ele>602.79998779297</ele>
        <time>2026-05-12T13:43:09.000Z</time>
      </trkpt>
      <trkpt lat="45.3196" lon="4.64482">
        <ele>602.40002441406</ele>
        <time>2026-05-12T13:43:10.000Z</time>
      </trkpt>
      <trkpt lat="45.31958" lon="4.64478">
        <ele>602.20001220703</ele>
        <time>2026-05-12T13:43:11.000Z</time>
      </trkpt>
      <trkpt lat="45.31956" lon="4.64476">
        <ele>601.79998779297</ele>
        <time>2026-05-12T13:43:12.000Z</time>
      </trkpt>
      <trkpt lat="45.31954" lon="4.64473">
        <ele>601.40002441406</ele>
        <time>2026-05-12T13:43:13.000Z</time>
      </trkpt>
      <trkpt lat="45.31952" lon="4.64471">
        <ele>601.20001220703</ele>
        <time>2026-05-12T13:43:14.000Z</time>
      </trkpt>
      <trkpt lat="45.3195" lon="4.64468">
        <ele>600.79998779297</ele>
        <time>2026-05-12T13:43:15.000Z</time>
      </trkpt>
      <trkpt lat="45.31949" lon="4.64466">
        <ele>600.59997558594</ele>
        <time>2026-05-12T13:43:16.000Z</time>
      </trkpt>
      <trkpt lat="45.31947" lon="4.64463">
        <ele>600.40002441406</ele>
        <time>2026-05-12T13:43:17.000Z</time>
      </trkpt>
      <trkpt lat="45.31946" lon="4.6446">
        <ele>600.20001220703</ele>
        <time>2026-05-12T13:43:18.000Z</time>
      </trkpt>
      <trkpt lat="45.31945" lon="4.64457">
        <ele>600</ele>
        <time>2026-05-12T13:43:19.000Z</time>
      </trkpt>
      <trkpt lat="45.31944" lon="4.64453">
        <ele>599.79998779297</ele>
        <time>2026-05-12T13:43:20.000Z</time>
      </trkpt>
      <trkpt lat="45.31942" lon="4.64449">
        <ele>599.59997558594</ele>
        <time>2026-05-12T13:43:21.000Z</time>
      </trkpt>
      <trkpt lat="45.3194" lon="4.64445">
        <ele>599.20001220703</ele>
        <time>2026-05-12T13:43:22.000Z</time>
      </trkpt>
      <trkpt lat="45.31938" lon="4.6444">
        <ele>599</ele>
        <time>2026-05-12T13:43:23.000Z</time>
      </trkpt>
      <trkpt lat="45.31936" lon="4.64435">
        <ele>598.59997558594</ele>
        <time>2026-05-12T13:43:24.000Z</time>
      </trkpt>
      <trkpt lat="45.31933" lon="4.6443">
        <ele>598.20001220703</ele>
        <time>2026-05-12T13:43:25.000Z</time>
      </trkpt>
      <trkpt lat="45.31931" lon="4.64425">
        <ele>597.79998779297</ele>
        <time>2026-05-12T13:43:26.000Z</time>
      </trkpt>
      <trkpt lat="45.31928" lon="4.64419">
        <ele>597.59997558594</ele>
        <time>2026-05-12T13:43:27.000Z</time>
      </trkpt>
      <trkpt lat="45.31925" lon="4.64412">
        <ele>597.20001220703</ele>
        <time>2026-05-12T13:43:28.000Z</time>
      </trkpt>
      <trkpt lat="45.31923" lon="4.64407">
        <ele>597</ele>
        <time>2026-05-12T13:43:29.000Z</time>
      </trkpt>
      <trkpt lat="45.3192" lon="4.64401">
        <ele>596.59997558594</ele>
        <time>2026-05-12T13:43:30.000Z</time>
      </trkpt>
      <trkpt lat="45.31917" lon="4.64396">
        <ele>596.40002441406</ele>
        <time>2026-05-12T13:43:31.000Z</time>
      </trkpt>
      <trkpt lat="45.31915" lon="4.64392">
        <ele>596.20001220703</ele>
        <time>2026-05-12T13:43:32.000Z</time>
      </trkpt>
      <trkpt lat="45.31913" lon="4.64387">
        <ele>596</ele>
        <time>2026-05-12T13:43:33.000Z</time>
      </trkpt>
      <trkpt lat="45.3191" lon="4.64384">
        <ele>595.79998779297</ele>
        <time>2026-05-12T13:43:34.000Z</time>
      </trkpt>
      <trkpt lat="45.31908" lon="4.6438">
        <ele>595.59997558594</ele>
        <time>2026-05-12T13:43:35.000Z</time>
      </trkpt>
      <trkpt lat="45.31906" lon="4.64376">
        <ele>595.59997558594</ele>
        <time>2026-05-12T13:43:36.000Z</time>
      </trkpt>
      <trkpt lat="45.31904" lon="4.64373">
        <ele>595.59997558594</ele>
        <time>2026-05-12T13:43:37.000Z</time>
      </trkpt>
      <trkpt lat="45.31902" lon="4.64369">
        <ele>595.40002441406</ele>
        <time>2026-05-12T13:43:38.000Z</time>
      </trkpt>
      <trkpt lat="45.319" lon="4.64365">
        <ele>595.20001220703</ele>
        <time>2026-05-12T13:43:39.000Z</time>
      </trkpt>
      <trkpt lat="45.31898" lon="4.64361">
        <ele>595.20001220703</ele>
        <time>2026-05-12T13:43:40.000Z</time>
      </trkpt>
      <trkpt lat="45.31896" lon="4.64357">
        <ele>595</ele>
        <time>2026-05-12T13:43:41.000Z</time>
      </trkpt>
      <trkpt lat="45.31895" lon="4.64352">
        <ele>595</ele>
        <time>2026-05-12T13:43:42.000Z</time>
      </trkpt>
      <trkpt lat="45.31894" lon="4.64348">
        <ele>594.79998779297</ele>
        <time>2026-05-12T13:43:43.000Z</time>
      </trkpt>
      <trkpt lat="45.31893" lon="4.64344">
        <ele>594.79998779297</ele>
        <time>2026-05-12T13:43:44.000Z</time>
      </trkpt>
      <trkpt lat="45.31893" lon="4.6434">
        <ele>594.79998779297</ele>
        <time>2026-05-12T13:43:45.000Z</time>
      </trkpt>
      <trkpt lat="45.31892" lon="4.64335">
        <ele>594.59997558594</ele>
        <time>2026-05-12T13:43:46.000Z</time>
      </trkpt>
      <trkpt lat="45.31892" lon="4.64331">
        <ele>594.59997558594</ele>
        <time>2026-05-12T13:43:47.000Z</time>
      </trkpt>
      <trkpt lat="45.31893" lon="4.64327">
        <ele>594.40002441406</ele>
        <time>2026-05-12T13:43:48.000Z</time>
      </trkpt>
      <trkpt lat="45.31893" lon="4.64323">
        <ele>594.20001220703</ele>
        <time>2026-05-12T13:43:49.000Z</time>
      </trkpt>
      <trkpt lat="45.31893" lon="4.64319">
        <ele>594.20001220703</ele>
        <time>2026-05-12T13:43:50.000Z</time>
      </trkpt>
      <trkpt lat="45.31893" lon="4.64315">
        <ele>594</ele>
        <time>2026-05-12T13:43:51.000Z</time>
      </trkpt>
      <trkpt lat="45.31893" lon="4.64311">
        <ele>594</ele>
        <time>2026-05-12T13:43:52.000Z</time>
      </trkpt>
      <trkpt lat="45.31893" lon="4.64307">
        <ele>593.79998779297</ele>
        <time>2026-05-12T13:43:53.000Z</time>
      </trkpt>
      <trkpt lat="45.31893" lon="4.64303">
        <ele>593.79998779297</ele>
        <time>2026-05-12T13:43:54.000Z</time>
      </trkpt>
      <trkpt lat="45.31893" lon="4.64299">
        <ele>593.79998779297</ele>
        <time>2026-05-12T13:43:55.000Z</time>
      </trkpt>
      <trkpt lat="45.31892" lon="4.64295">
        <ele>593.79998779297</ele>
        <time>2026-05-12T13:43:56.000Z</time>
      </trkpt>
      <trkpt lat="45.31892" lon="4.64292">
        <ele>593.59997558594</ele>
        <time>2026-05-12T13:43:57.000Z</time>
      </trkpt>
      <trkpt lat="45.31892" lon="4.64288">
        <ele>593.59997558594</ele>
        <time>2026-05-12T13:43:58.000Z</time>
      </trkpt>
      <trkpt lat="45.31892" lon="4.64285">
        <ele>593.40002441406</ele>
        <time>2026-05-12T13:43:59.000Z</time>
      </trkpt>
      <trkpt lat="45.31892" lon="4.64281">
        <ele>593.40002441406</ele>
        <time>2026-05-12T13:44:00.000Z</time>
      </trkpt>
      <trkpt lat="45.31892" lon="4.64276">
        <ele>593.20001220703</ele>
        <time>2026-05-12T13:44:01.000Z</time>
      </trkpt>
      <trkpt lat="45.31892" lon="4.64272">
        <ele>593</ele>
        <time>2026-05-12T13:44:02.000Z</time>
      </trkpt>
      <trkpt lat="45.31892" lon="4.64267">
        <ele>593</ele>
        <time>2026-05-12T13:44:03.000Z</time>
      </trkpt>
      <trkpt lat="45.31892" lon="4.64263">
        <ele>593</ele>
        <time>2026-05-12T13:44:04.000Z</time>
      </trkpt>
      <trkpt lat="45.31891" lon="4.64258">
        <ele>592.79998779297</ele>
        <time>2026-05-12T13:44:05.000Z</time>
      </trkpt>
      <trkpt lat="45.31891" lon="4.64254">
        <ele>592.79998779297</ele>
        <time>2026-05-12T13:44:06.000Z</time>
      </trkpt>
      <trkpt lat="45.31891" lon="4.64249">
        <ele>593</ele>
        <time>2026-05-12T13:44:07.000Z</time>
      </trkpt>
      <trkpt lat="45.3189" lon="4.64244">
        <ele>593</ele>
        <time>2026-05-12T13:44:08.000Z</time>
      </trkpt>
      <trkpt lat="45.3189" lon="4.6424">
        <ele>593</ele>
        <time>2026-05-12T13:44:09.000Z</time>
      </trkpt>
      <trkpt lat="45.31889" lon="4.64235">
        <ele>593</ele>
        <time>2026-05-12T13:44:10.000Z</time>
      </trkpt>
      <trkpt lat="45.31889" lon="4.64231">
        <ele>593</ele>
        <time>2026-05-12T13:44:11.000Z</time>
      </trkpt>
      <trkpt lat="45.31889" lon="4.64226">
        <ele>593</ele>
        <time>2026-05-12T13:44:12.000Z</time>
      </trkpt>
      <trkpt lat="45.31888" lon="4.64222">
        <ele>593</ele>
        <time>2026-05-12T13:44:13.000Z</time>
      </trkpt>
      <trkpt lat="45.31888" lon="4.64218">
        <ele>592.79998779297</ele>
        <time>2026-05-12T13:44:14.000Z</time>
      </trkpt>
      <trkpt lat="45.31887" lon="4.64214">
        <ele>592.79998779297</ele>
        <time>2026-05-12T13:44:15.000Z</time>
      </trkpt>
      <trkpt lat="45.31887" lon="4.6421">
        <ele>592.79998779297</ele>
        <time>2026-05-12T13:44:16.000Z</time>
      </trkpt>
      <trkpt lat="45.31886" lon="4.64206">
        <ele>592.79998779297</ele>
        <time>2026-05-12T13:44:17.000Z</time>
      </trkpt>
      <trkpt lat="45.31885" lon="4.64202">
        <ele>592.79998779297</ele>
        <time>2026-05-12T13:44:18.000Z</time>
      </trkpt>
      <trkpt lat="45.31885" lon="4.64198">
        <ele>592.79998779297</ele>
        <time>2026-05-12T13:44:19.000Z</time>
      </trkpt>
      <trkpt lat="45.31884" lon="4.64194">
        <ele>592.79998779297</ele>
        <time>2026-05-12T13:44:20.000Z</time>
      </trkpt>
      <trkpt lat="45.31883" lon="4.6419">
        <ele>592.79998779297</ele>
        <time>2026-05-12T13:44:21.000Z</time>
      </trkpt>
      <trkpt lat="45.31883" lon="4.64186">
        <ele>592.79998779297</ele>
        <time>2026-05-12T13:44:22.000Z</time>
      </trkpt>
      <trkpt lat="45.31882" lon="4.64182">
        <ele>592.79998779297</ele>
        <time>2026-05-12T13:44:23.000Z</time>
      </trkpt>
      <trkpt lat="45.31881" lon="4.64178">
        <ele>592.59997558594</ele>
        <time>2026-05-12T13:44:24.000Z</time>
      </trkpt>
      <trkpt lat="45.3188" lon="4.64174">
        <ele>592.59997558594</ele>
        <time>2026-05-12T13:44:25.000Z</time>
      </trkpt>
      <trkpt lat="45.31879" lon="4.6417">
        <ele>592.59997558594</ele>
        <time>2026-05-12T13:44:26.000Z</time>
      </trkpt>
      <trkpt lat="45.31878" lon="4.64166">
        <ele>592.59997558594</ele>
        <time>2026-05-12T13:44:27.000Z</time>
      </trkpt>
      <trkpt lat="45.31877" lon="4.64162">
        <ele>592.59997558594</ele>
        <time>2026-05-12T13:44:28.000Z</time>
      </trkpt>
      <trkpt lat="45.31875" lon="4.64158">
        <ele>592.59997558594</ele>
        <time>2026-05-12T13:44:29.000Z</time>
      </trkpt>
      <trkpt lat="45.31874" lon="4.64154">
        <ele>592.59997558594</ele>
        <time>2026-05-12T13:44:30.000Z</time>
      </trkpt>
      <trkpt lat="45.31873" lon="4.6415">
        <ele>592.59997558594</ele>
        <time>2026-05-12T13:44:31.000Z</time>
      </trkpt>
      <trkpt lat="45.31871" lon="4.64147">
        <ele>592.59997558594</ele>
        <time>2026-05-12T13:44:32.000Z</time>
      </trkpt>
      <trkpt lat="45.3187" lon="4.64145">
        <ele>592.59997558594</ele>
        <time>2026-05-12T13:44:33.000Z</time>
      </trkpt>
      <trkpt lat="45.31868" lon="4.64141">
        <ele>592.59997558594</ele>
        <time>2026-05-12T13:44:34.000Z</time>
      </trkpt>
      <trkpt lat="45.31866" lon="4.64138">
        <ele>592.59997558594</ele>
        <time>2026-05-12T13:44:35.000Z</time>
      </trkpt>
      <trkpt lat="45.31865" lon="4.64135">
        <ele>592.59997558594</ele>
        <time>2026-05-12T13:44:36.000Z</time>
      </trkpt>
      <trkpt lat="45.31863" lon="4.64131">
        <ele>592.59997558594</ele>
        <time>2026-05-12T13:44:37.000Z</time>
      </trkpt>
      <trkpt lat="45.31861" lon="4.64128">
        <ele>592.59997558594</ele>
        <time>2026-05-12T13:44:38.000Z</time>
      </trkpt>
      <trkpt lat="45.31859" lon="4.64125">
        <ele>592.59997558594</ele>
        <time>2026-05-12T13:44:39.000Z</time>
      </trkpt>
      <trkpt lat="45.31857" lon="4.64123">
        <ele>592.59997558594</ele>
        <time>2026-05-12T13:44:40.000Z</time>
      </trkpt>
      <trkpt lat="45.31855" lon="4.6412">
        <ele>592.59997558594</ele>
        <time>2026-05-12T13:44:41.000Z</time>
      </trkpt>
      <trkpt lat="45.31853" lon="4.64118">
        <ele>592.59997558594</ele>
        <time>2026-05-12T13:44:42.000Z</time>
      </trkpt>
      <trkpt lat="45.31852" lon="4.64114">
        <ele>592.59997558594</ele>
        <time>2026-05-12T13:44:43.000Z</time>
      </trkpt>
      <trkpt lat="45.3185" lon="4.64111">
        <ele>592.79998779297</ele>
        <time>2026-05-12T13:44:44.000Z</time>
      </trkpt>
      <trkpt lat="45.31849" lon="4.64107">
        <ele>592.79998779297</ele>
        <time>2026-05-12T13:44:45.000Z</time>
      </trkpt>
      <trkpt lat="45.31847" lon="4.64104">
        <ele>592.79998779297</ele>
        <time>2026-05-12T13:44:46.000Z</time>
      </trkpt>
      <trkpt lat="45.31846" lon="4.641">
        <ele>592.79998779297</ele>
        <time>2026-05-12T13:44:47.000Z</time>
      </trkpt>
      <trkpt lat="45.31845" lon="4.64097">
        <ele>593</ele>
        <time>2026-05-12T13:44:48.000Z</time>
      </trkpt>
      <trkpt lat="45.31844" lon="4.64093">
        <ele>593</ele>
        <time>2026-05-12T13:44:49.000Z</time>
      </trkpt>
      <trkpt lat="45.31843" lon="4.6409">
        <ele>593</ele>
        <time>2026-05-12T13:44:50.000Z</time>
      </trkpt>
      <trkpt lat="45.31842" lon="4.64087">
        <ele>593</ele>
        <time>2026-05-12T13:44:51.000Z</time>
      </trkpt>
      <trkpt lat="45.31842" lon="4.64083">
        <ele>593.20001220703</ele>
        <time>2026-05-12T13:44:52.000Z</time>
      </trkpt>
      <trkpt lat="45.31842" lon="4.6408">
        <ele>593.20001220703</ele>
        <time>2026-05-12T13:44:53.000Z</time>
      </trkpt>
      <trkpt lat="45.31842" lon="4.64077">
        <ele>593.20001220703</ele>
        <time>2026-05-12T13:44:54.000Z</time>
      </trkpt>
      <trkpt lat="45.31842" lon="4.64074">
        <ele>593.40002441406</ele>
        <time>2026-05-12T13:44:55.000Z</time>
      </trkpt>
      <trkpt lat="45.31842" lon="4.64071">
        <ele>593.40002441406</ele>
        <time>2026-05-12T13:44:56.000Z</time>
      </trkpt>
      <trkpt lat="45.31843" lon="4.64068">
        <ele>593.59997558594</ele>
        <time>2026-05-12T13:44:57.000Z</time>
      </trkpt>
      <trkpt lat="45.31843" lon="4.64064">
        <ele>593.59997558594</ele>
        <time>2026-05-12T13:44:58.000Z</time>
      </trkpt>
      <trkpt lat="45.31843" lon="4.64061">
        <ele>593.79998779297</ele>
        <time>2026-05-12T13:44:59.000Z</time>
      </trkpt>
      <trkpt lat="45.31843" lon="4.64058">
        <ele>593.79998779297</ele>
        <time>2026-05-12T13:45:00.000Z</time>
      </trkpt>
      <trkpt lat="45.31843" lon="4.64055">
        <ele>594</ele>
        <time>2026-05-12T13:45:01.000Z</time>
      </trkpt>
      <trkpt lat="45.31843" lon="4.64053">
        <ele>594</ele>
        <time>2026-05-12T13:45:02.000Z</time>
      </trkpt>
      <trkpt lat="45.31843" lon="4.6405">
        <ele>594.20001220703</ele>
        <time>2026-05-12T13:45:03.000Z</time>
      </trkpt>
      <trkpt lat="45.31843" lon="4.64048">
        <ele>594.20001220703</ele>
        <time>2026-05-12T13:45:04.000Z</time>
      </trkpt>
      <trkpt lat="45.31841" lon="4.64045">
        <ele>594.20001220703</ele>
        <time>2026-05-12T13:45:05.000Z</time>
      </trkpt>
      <trkpt lat="45.3184" lon="4.64041">
        <ele>594.20001220703</ele>
        <time>2026-05-12T13:45:06.000Z</time>
      </trkpt>
      <trkpt lat="45.31839" lon="4.64038">
        <ele>594.20001220703</ele>
        <time>2026-05-12T13:45:07.000Z</time>
      </trkpt>
      <trkpt lat="45.31838" lon="4.64035">
        <ele>594.20001220703</ele>
        <time>2026-05-12T13:45:08.000Z</time>
      </trkpt>
      <trkpt lat="45.31837" lon="4.64032">
        <ele>594.20001220703</ele>
        <time>2026-05-12T13:45:09.000Z</time>
      </trkpt>
      <trkpt lat="45.31836" lon="4.64029">
        <ele>594.20001220703</ele>
        <time>2026-05-12T13:45:10.000Z</time>
      </trkpt>
      <trkpt lat="45.31836" lon="4.64026">
        <ele>594.20001220703</ele>
        <time>2026-05-12T13:45:11.000Z</time>
      </trkpt>
      <trkpt lat="45.31835" lon="4.64022">
        <ele>594.20001220703</ele>
        <time>2026-05-12T13:45:12.000Z</time>
      </trkpt>
      <trkpt lat="45.31834" lon="4.64018">
        <ele>594.20001220703</ele>
        <time>2026-05-12T13:45:13.000Z</time>
      </trkpt>
      <trkpt lat="45.31833" lon="4.64014">
        <ele>594</ele>
        <time>2026-05-12T13:45:14.000Z</time>
      </trkpt>
      <trkpt lat="45.31832" lon="4.6401">
        <ele>594.20001220703</ele>
        <time>2026-05-12T13:45:15.000Z</time>
      </trkpt>
      <trkpt lat="45.31831" lon="4.64006">
        <ele>594</ele>
        <time>2026-05-12T13:45:16.000Z</time>
      </trkpt>
      <trkpt lat="45.31831" lon="4.64002">
        <ele>594</ele>
        <time>2026-05-12T13:45:17.000Z</time>
      </trkpt>
      <trkpt lat="45.3183" lon="4.63998">
        <ele>594</ele>
        <time>2026-05-12T13:45:18.000Z</time>
      </trkpt>
      <trkpt lat="45.31829" lon="4.63995">
        <ele>594</ele>
        <time>2026-05-12T13:45:19.000Z</time>
      </trkpt>
      <trkpt lat="45.31828" lon="4.63992">
        <ele>594.20001220703</ele>
        <time>2026-05-12T13:45:20.000Z</time>
      </trkpt>
      <trkpt lat="45.31827" lon="4.63989">
        <ele>594.20001220703</ele>
        <time>2026-05-12T13:45:21.000Z</time>
      </trkpt>
      <trkpt lat="45.31826" lon="4.63986">
        <ele>594.20001220703</ele>
        <time>2026-05-12T13:45:22.000Z</time>
      </trkpt>
      <trkpt lat="45.31826" lon="4.63983">
        <ele>594.20001220703</ele>
        <time>2026-05-12T13:45:23.000Z</time>
      </trkpt>
      <trkpt lat="45.31825" lon="4.6398">
        <ele>594.20001220703</ele>
        <time>2026-05-12T13:45:24.000Z</time>
      </trkpt>
      <trkpt lat="45.31824" lon="4.63976">
        <ele>594.20001220703</ele>
        <time>2026-05-12T13:45:25.000Z</time>
      </trkpt>
      <trkpt lat="45.31823" lon="4.63972">
        <ele>594.20001220703</ele>
        <time>2026-05-12T13:45:26.000Z</time>
      </trkpt>
      <trkpt lat="45.31823" lon="4.63968">
        <ele>594.20001220703</ele>
        <time>2026-05-12T13:45:27.000Z</time>
      </trkpt>
      <trkpt lat="45.31822" lon="4.63963">
        <ele>594.20001220703</ele>
        <time>2026-05-12T13:45:28.000Z</time>
      </trkpt>
      <trkpt lat="45.31821" lon="4.63958">
        <ele>594.20001220703</ele>
        <time>2026-05-12T13:45:29.000Z</time>
      </trkpt>
      <trkpt lat="45.3182" lon="4.63954">
        <ele>594.20001220703</ele>
        <time>2026-05-12T13:45:30.000Z</time>
      </trkpt>
      <trkpt lat="45.31819" lon="4.63949">
        <ele>594.20001220703</ele>
        <time>2026-05-12T13:45:31.000Z</time>
      </trkpt>
      <trkpt lat="45.31818" lon="4.63945">
        <ele>594</ele>
        <time>2026-05-12T13:45:32.000Z</time>
      </trkpt>
      <trkpt lat="45.31818" lon="4.6394">
        <ele>594</ele>
        <time>2026-05-12T13:45:33.000Z</time>
      </trkpt>
      <trkpt lat="45.31817" lon="4.63936">
        <ele>593.79998779297</ele>
        <time>2026-05-12T13:45:34.000Z</time>
      </trkpt>
      <trkpt lat="45.31816" lon="4.63932">
        <ele>593.79998779297</ele>
        <time>2026-05-12T13:45:35.000Z</time>
      </trkpt>
      <trkpt lat="45.31816" lon="4.63927">
        <ele>593.59997558594</ele>
        <time>2026-05-12T13:45:36.000Z</time>
      </trkpt>
      <trkpt lat="45.31815" lon="4.63923">
        <ele>593.59997558594</ele>
        <time>2026-05-12T13:45:37.000Z</time>
      </trkpt>
      <trkpt lat="45.31814" lon="4.63919">
        <ele>593.59997558594</ele>
        <time>2026-05-12T13:45:38.000Z</time>
      </trkpt>
      <trkpt lat="45.31814" lon="4.63914">
        <ele>593.59997558594</ele>
        <time>2026-05-12T13:45:39.000Z</time>
      </trkpt>
      <trkpt lat="45.31813" lon="4.6391">
        <ele>593.59997558594</ele>
        <time>2026-05-12T13:45:40.000Z</time>
      </trkpt>
      <trkpt lat="45.31813" lon="4.63905">
        <ele>593.40002441406</ele>
        <time>2026-05-12T13:45:41.000Z</time>
      </trkpt>
      <trkpt lat="45.31812" lon="4.639">
        <ele>593.40002441406</ele>
        <time>2026-05-12T13:45:42.000Z</time>
      </trkpt>
      <trkpt lat="45.31812" lon="4.63896">
        <ele>593.20001220703</ele>
        <time>2026-05-12T13:45:43.000Z</time>
      </trkpt>
      <trkpt lat="45.31811" lon="4.63891">
        <ele>593</ele>
        <time>2026-05-12T13:45:44.000Z</time>
      </trkpt>
      <trkpt lat="45.3181" lon="4.63886">
        <ele>593</ele>
        <time>2026-05-12T13:45:45.000Z</time>
      </trkpt>
      <trkpt lat="45.3181" lon="4.63882">
        <ele>592.79998779297</ele>
        <time>2026-05-12T13:45:46.000Z</time>
      </trkpt>
      <trkpt lat="45.31809" lon="4.63879">
        <ele>592.79998779297</ele>
        <time>2026-05-12T13:45:47.000Z</time>
      </trkpt>
      <trkpt lat="45.31809" lon="4.63875">
        <ele>592.79998779297</ele>
        <time>2026-05-12T13:45:48.000Z</time>
      </trkpt>
      <trkpt lat="45.31809" lon="4.63872">
        <ele>592.79998779297</ele>
        <time>2026-05-12T13:45:49.000Z</time>
      </trkpt>
      <trkpt lat="45.31808" lon="4.63868">
        <ele>592.79998779297</ele>
        <time>2026-05-12T13:45:50.000Z</time>
      </trkpt>
      <trkpt lat="45.31808" lon="4.63864">
        <ele>592.59997558594</ele>
        <time>2026-05-12T13:45:51.000Z</time>
      </trkpt>
      <trkpt lat="45.31807" lon="4.63859">
        <ele>592.59997558594</ele>
        <time>2026-05-12T13:45:52.000Z</time>
      </trkpt>
      <trkpt lat="45.31807" lon="4.63855">
        <ele>592.40002441406</ele>
        <time>2026-05-12T13:45:53.000Z</time>
      </trkpt>
      <trkpt lat="45.31807" lon="4.6385">
        <ele>592.20001220703</ele>
        <time>2026-05-12T13:45:54.000Z</time>
      </trkpt>
      <trkpt lat="45.31806" lon="4.63845">
        <ele>592.20001220703</ele>
        <time>2026-05-12T13:45:55.000Z</time>
      </trkpt>
      <trkpt lat="45.31806" lon="4.63841">
        <ele>592</ele>
        <time>2026-05-12T13:45:56.000Z</time>
      </trkpt>
      <trkpt lat="45.31805" lon="4.63836">
        <ele>592</ele>
        <time>2026-05-12T13:45:57.000Z</time>
      </trkpt>
      <trkpt lat="45.31804" lon="4.63831">
        <ele>591.79998779297</ele>
        <time>2026-05-12T13:45:58.000Z</time>
      </trkpt>
      <trkpt lat="45.31804" lon="4.63825">
        <ele>591.59997558594</ele>
        <time>2026-05-12T13:45:59.000Z</time>
      </trkpt>
      <trkpt lat="45.31803" lon="4.6382">
        <ele>591.59997558594</ele>
        <time>2026-05-12T13:46:00.000Z</time>
      </trkpt>
      <trkpt lat="45.31802" lon="4.63815">
        <ele>591.40002441406</ele>
        <time>2026-05-12T13:46:01.000Z</time>
      </trkpt>
      <trkpt lat="45.31802" lon="4.6381">
        <ele>591.40002441406</ele>
        <time>2026-05-12T13:46:02.000Z</time>
      </trkpt>
      <trkpt lat="45.31801" lon="4.63805">
        <ele>591.40002441406</ele>
        <time>2026-05-12T13:46:03.000Z</time>
      </trkpt>
      <trkpt lat="45.31801" lon="4.638">
        <ele>591.20001220703</ele>
        <time>2026-05-12T13:46:04.000Z</time>
      </trkpt>
      <trkpt lat="45.31801" lon="4.63795">
        <ele>591</ele>
        <time>2026-05-12T13:46:05.000Z</time>
      </trkpt>
      <trkpt lat="45.318" lon="4.63789">
        <ele>590.79998779297</ele>
        <time>2026-05-12T13:46:06.000Z</time>
      </trkpt>
      <trkpt lat="45.318" lon="4.63784">
        <ele>590.59997558594</ele>
        <time>2026-05-12T13:46:07.000Z</time>
      </trkpt>
      <trkpt lat="45.318" lon="4.63777">
        <ele>590.20001220703</ele>
        <time>2026-05-12T13:46:08.000Z</time>
      </trkpt>
      <trkpt lat="45.31799" lon="4.63771">
        <ele>590</ele>
        <time>2026-05-12T13:46:09.000Z</time>
      </trkpt>
      <trkpt lat="45.31799" lon="4.63765">
        <ele>589.59997558594</ele>
        <time>2026-05-12T13:46:10.000Z</time>
      </trkpt>
      <trkpt lat="45.31799" lon="4.63758">
        <ele>589.40002441406</ele>
        <time>2026-05-12T13:46:11.000Z</time>
      </trkpt>
      <trkpt lat="45.31799" lon="4.63752">
        <ele>589</ele>
        <time>2026-05-12T13:46:12.000Z</time>
      </trkpt>
      <trkpt lat="45.318" lon="4.63746">
        <ele>588.59997558594</ele>
        <time>2026-05-12T13:46:13.000Z</time>
      </trkpt>
      <trkpt lat="45.318" lon="4.6374">
        <ele>588.20001220703</ele>
        <time>2026-05-12T13:46:14.000Z</time>
      </trkpt>
      <trkpt lat="45.318" lon="4.63734">
        <ele>587.79998779297</ele>
        <time>2026-05-12T13:46:15.000Z</time>
      </trkpt>
      <trkpt lat="45.318" lon="4.63729">
        <ele>587.40002441406</ele>
        <time>2026-05-12T13:46:16.000Z</time>
      </trkpt>
      <trkpt lat="45.31801" lon="4.63723">
        <ele>587.20001220703</ele>
        <time>2026-05-12T13:46:17.000Z</time>
      </trkpt>
      <trkpt lat="45.31801" lon="4.63717">
        <ele>586.79998779297</ele>
        <time>2026-05-12T13:46:18.000Z</time>
      </trkpt>
      <trkpt lat="45.31801" lon="4.63712">
        <ele>586.40002441406</ele>
        <time>2026-05-12T13:46:19.000Z</time>
      </trkpt>
      <trkpt lat="45.31802" lon="4.63707">
        <ele>586</ele>
        <time>2026-05-12T13:46:20.000Z</time>
      </trkpt>
      <trkpt lat="45.31802" lon="4.63701">
        <ele>585.59997558594</ele>
        <time>2026-05-12T13:46:21.000Z</time>
      </trkpt>
      <trkpt lat="45.31802" lon="4.63696">
        <ele>585.20001220703</ele>
        <time>2026-05-12T13:46:22.000Z</time>
      </trkpt>
      <trkpt lat="45.31803" lon="4.63691">
        <ele>585</ele>
        <time>2026-05-12T13:46:23.000Z</time>
      </trkpt>
      <trkpt lat="45.31803" lon="4.63685">
        <ele>584.40002441406</ele>
        <time>2026-05-12T13:46:24.000Z</time>
      </trkpt>
      <trkpt lat="45.31804" lon="4.63679">
        <ele>584.20001220703</ele>
        <time>2026-05-12T13:46:25.000Z</time>
      </trkpt>
      <trkpt lat="45.31805" lon="4.63674">
        <ele>583.59997558594</ele>
        <time>2026-05-12T13:46:26.000Z</time>
      </trkpt>
      <trkpt lat="45.31806" lon="4.63668">
        <ele>583.20001220703</ele>
        <time>2026-05-12T13:46:27.000Z</time>
      </trkpt>
      <trkpt lat="45.31806" lon="4.63663">
        <ele>582.79998779297</ele>
        <time>2026-05-12T13:46:28.000Z</time>
      </trkpt>
      <trkpt lat="45.31807" lon="4.63658">
        <ele>582.40002441406</ele>
        <time>2026-05-12T13:46:29.000Z</time>
      </trkpt>
      <trkpt lat="45.31808" lon="4.63653">
        <ele>582</ele>
        <time>2026-05-12T13:46:30.000Z</time>
      </trkpt>
      <trkpt lat="45.31809" lon="4.63648">
        <ele>581.59997558594</ele>
        <time>2026-05-12T13:46:31.000Z</time>
      </trkpt>
      <trkpt lat="45.3181" lon="4.63643">
        <ele>581.20001220703</ele>
        <time>2026-05-12T13:46:32.000Z</time>
      </trkpt>
      <trkpt lat="45.31811" lon="4.63637">
        <ele>580.79998779297</ele>
        <time>2026-05-12T13:46:33.000Z</time>
      </trkpt>
      <trkpt lat="45.31812" lon="4.63632">
        <ele>580.40002441406</ele>
        <time>2026-05-12T13:46:34.000Z</time>
      </trkpt>
      <trkpt lat="45.31813" lon="4.63627">
        <ele>580</ele>
        <time>2026-05-12T13:46:35.000Z</time>
      </trkpt>
      <trkpt lat="45.31815" lon="4.63622">
        <ele>579.59997558594</ele>
        <time>2026-05-12T13:46:36.000Z</time>
      </trkpt>
      <trkpt lat="45.31816" lon="4.63617">
        <ele>579.40002441406</ele>
        <time>2026-05-12T13:46:37.000Z</time>
      </trkpt>
      <trkpt lat="45.31818" lon="4.63613">
        <ele>579</ele>
        <time>2026-05-12T13:46:38.000Z</time>
      </trkpt>
      <trkpt lat="45.31819" lon="4.63609">
        <ele>578.59997558594</ele>
        <time>2026-05-12T13:46:39.000Z</time>
      </trkpt>
      <trkpt lat="45.3182" lon="4.63606">
        <ele>578.20001220703</ele>
        <time>2026-05-12T13:46:40.000Z</time>
      </trkpt>
      <trkpt lat="45.31821" lon="4.63603">
        <ele>578</ele>
        <time>2026-05-12T13:46:41.000Z</time>
      </trkpt>
      <trkpt lat="45.31822" lon="4.63598">
        <ele>577.59997558594</ele>
        <time>2026-05-12T13:46:42.000Z</time>
      </trkpt>
      <trkpt lat="45.31824" lon="4.63594">
        <ele>577.20001220703</ele>
        <time>2026-05-12T13:46:43.000Z</time>
      </trkpt>
      <trkpt lat="45.31825" lon="4.63589">
        <ele>576.79998779297</ele>
        <time>2026-05-12T13:46:44.000Z</time>
      </trkpt>
      <trkpt lat="45.31826" lon="4.63585">
        <ele>576.40002441406</ele>
        <time>2026-05-12T13:46:45.000Z</time>
      </trkpt>
      <trkpt lat="45.31826" lon="4.6358">
        <ele>576</ele>
        <time>2026-05-12T13:46:46.000Z</time>
      </trkpt>
      <trkpt lat="45.31827" lon="4.63576">
        <ele>575.79998779297</ele>
        <time>2026-05-12T13:46:47.000Z</time>
      </trkpt>
      <trkpt lat="45.31828" lon="4.63571">
        <ele>575.40002441406</ele>
        <time>2026-05-12T13:46:48.000Z</time>
      </trkpt>
      <trkpt lat="45.31828" lon="4.63567">
        <ele>575</ele>
        <time>2026-05-12T13:46:49.000Z</time>
      </trkpt>
      <trkpt lat="45.31829" lon="4.63562">
        <ele>574.59997558594</ele>
        <time>2026-05-12T13:46:50.000Z</time>
      </trkpt>
      <trkpt lat="45.3183" lon="4.63557">
        <ele>574.40002441406</ele>
        <time>2026-05-12T13:46:51.000Z</time>
      </trkpt>
      <trkpt lat="45.3183" lon="4.63553">
        <ele>574</ele>
        <time>2026-05-12T13:46:52.000Z</time>
      </trkpt>
      <trkpt lat="45.31831" lon="4.63548">
        <ele>573.79998779297</ele>
        <time>2026-05-12T13:46:53.000Z</time>
      </trkpt>
      <trkpt lat="45.31832" lon="4.63544">
        <ele>573.59997558594</ele>
        <time>2026-05-12T13:46:54.000Z</time>
      </trkpt>
      <trkpt lat="45.31833" lon="4.63539">
        <ele>573.20001220703</ele>
        <time>2026-05-12T13:46:55.000Z</time>
      </trkpt>
      <trkpt lat="45.31834" lon="4.63534">
        <ele>572.79998779297</ele>
        <time>2026-05-12T13:46:56.000Z</time>
      </trkpt>
      <trkpt lat="45.31836" lon="4.6353">
        <ele>572.20001220703</ele>
        <time>2026-05-12T13:46:57.000Z</time>
      </trkpt>
      <trkpt lat="45.31837" lon="4.63526">
        <ele>571.79998779297</ele>
        <time>2026-05-12T13:46:58.000Z</time>
      </trkpt>
      <trkpt lat="45.31839" lon="4.63521">
        <ele>571.40002441406</ele>
        <time>2026-05-12T13:46:59.000Z</time>
      </trkpt>
      <trkpt lat="45.3184" lon="4.63516">
        <ele>570.79998779297</ele>
        <time>2026-05-12T13:47:00.000Z</time>
      </trkpt>
      <trkpt lat="45.31842" lon="4.6351">
        <ele>570.40002441406</ele>
        <time>2026-05-12T13:47:01.000Z</time>
      </trkpt>
      <trkpt lat="45.31843" lon="4.63504">
        <ele>570</ele>
        <time>2026-05-12T13:47:02.000Z</time>
      </trkpt>
      <trkpt lat="45.31845" lon="4.63498">
        <ele>569.40002441406</ele>
        <time>2026-05-12T13:47:03.000Z</time>
      </trkpt>
      <trkpt lat="45.31846" lon="4.63491">
        <ele>568.79998779297</ele>
        <time>2026-05-12T13:47:04.000Z</time>
      </trkpt>
      <trkpt lat="45.31847" lon="4.63484">
        <ele>568.40002441406</ele>
        <time>2026-05-12T13:47:05.000Z</time>
      </trkpt>
      <trkpt lat="45.31847" lon="4.63478">
        <ele>568</ele>
        <time>2026-05-12T13:47:06.000Z</time>
      </trkpt>
      <trkpt lat="45.31848" lon="4.63471">
        <ele>567.40002441406</ele>
        <time>2026-05-12T13:47:07.000Z</time>
      </trkpt>
      <trkpt lat="45.31848" lon="4.63465">
        <ele>567</ele>
        <time>2026-05-12T13:47:08.000Z</time>
      </trkpt>
      <trkpt lat="45.31848" lon="4.63458">
        <ele>566.79998779297</ele>
        <time>2026-05-12T13:47:09.000Z</time>
      </trkpt>
      <trkpt lat="45.31848" lon="4.63451">
        <ele>566.40002441406</ele>
        <time>2026-05-12T13:47:10.000Z</time>
      </trkpt>
      <trkpt lat="45.31848" lon="4.63444">
        <ele>566</ele>
        <time>2026-05-12T13:47:11.000Z</time>
      </trkpt>
      <trkpt lat="45.31848" lon="4.63438">
        <ele>565.79998779297</ele>
        <time>2026-05-12T13:47:12.000Z</time>
      </trkpt>
      <trkpt lat="45.31848" lon="4.63432">
        <ele>565.59997558594</ele>
        <time>2026-05-12T13:47:13.000Z</time>
      </trkpt>
      <trkpt lat="45.31848" lon="4.63426">
        <ele>565.40002441406</ele>
        <time>2026-05-12T13:47:14.000Z</time>
      </trkpt>
      <trkpt lat="45.31848" lon="4.63419">
        <ele>565.20001220703</ele>
        <time>2026-05-12T13:47:15.000Z</time>
      </trkpt>
      <trkpt lat="45.31848" lon="4.63413">
        <ele>565</ele>
        <time>2026-05-12T13:47:16.000Z</time>
      </trkpt>
      <trkpt lat="45.31848" lon="4.63406">
        <ele>564.79998779297</ele>
        <time>2026-05-12T13:47:17.000Z</time>
      </trkpt>
      <trkpt lat="45.31847" lon="4.634">
        <ele>564.59997558594</ele>
        <time>2026-05-12T13:47:18.000Z</time>
      </trkpt>
      <trkpt lat="45.31847" lon="4.63393">
        <ele>564.20001220703</ele>
        <time>2026-05-12T13:47:19.000Z</time>
      </trkpt>
      <trkpt lat="45.31847" lon="4.63387">
        <ele>564</ele>
        <time>2026-05-12T13:47:20.000Z</time>
      </trkpt>
      <trkpt lat="45.31847" lon="4.63382">
        <ele>563.79998779297</ele>
        <time>2026-05-12T13:47:21.000Z</time>
      </trkpt>
      <trkpt lat="45.31847" lon="4.63377">
        <ele>563.59997558594</ele>
        <time>2026-05-12T13:47:22.000Z</time>
      </trkpt>
      <trkpt lat="45.31846" lon="4.63373">
        <ele>563.40002441406</ele>
        <time>2026-05-12T13:47:23.000Z</time>
      </trkpt>
      <trkpt lat="45.31846" lon="4.63369">
        <ele>563.40002441406</ele>
        <time>2026-05-12T13:47:24.000Z</time>
      </trkpt>
      <trkpt lat="45.31845" lon="4.63365">
        <ele>563.20001220703</ele>
        <time>2026-05-12T13:47:25.000Z</time>
      </trkpt>
      <trkpt lat="45.31844" lon="4.63362">
        <ele>563</ele>
        <time>2026-05-12T13:47:26.000Z</time>
      </trkpt>
      <trkpt lat="45.31844" lon="4.63359">
        <ele>562.79998779297</ele>
        <time>2026-05-12T13:47:27.000Z</time>
      </trkpt>
      <trkpt lat="45.31843" lon="4.63355">
        <ele>562.40002441406</ele>
        <time>2026-05-12T13:47:28.000Z</time>
      </trkpt>
      <trkpt lat="45.31843" lon="4.63351">
        <ele>562.20001220703</ele>
        <time>2026-05-12T13:47:29.000Z</time>
      </trkpt>
      <trkpt lat="45.31843" lon="4.63346">
        <ele>561.79998779297</ele>
        <time>2026-05-12T13:47:30.000Z</time>
      </trkpt>
      <trkpt lat="45.31844" lon="4.63342">
        <ele>561.59997558594</ele>
        <time>2026-05-12T13:47:31.000Z</time>
      </trkpt>
      <trkpt lat="45.31844" lon="4.63337">
        <ele>561.40002441406</ele>
        <time>2026-05-12T13:47:32.000Z</time>
      </trkpt>
      <trkpt lat="45.31845" lon="4.63333">
        <ele>561.20001220703</ele>
        <time>2026-05-12T13:47:33.000Z</time>
      </trkpt>
      <trkpt lat="45.31845" lon="4.63328">
        <ele>561</ele>
        <time>2026-05-12T13:47:34.000Z</time>
      </trkpt>
      <trkpt lat="45.31845" lon="4.63323">
        <ele>561</ele>
        <time>2026-05-12T13:47:35.000Z</time>
      </trkpt>
      <trkpt lat="45.31845" lon="4.63319">
        <ele>560.79998779297</ele>
        <time>2026-05-12T13:47:36.000Z</time>
      </trkpt>
      <trkpt lat="45.31844" lon="4.63315">
        <ele>560.59997558594</ele>
        <time>2026-05-12T13:47:37.000Z</time>
      </trkpt>
      <trkpt lat="45.31843" lon="4.63311">
        <ele>560.59997558594</ele>
        <time>2026-05-12T13:47:38.000Z</time>
      </trkpt>
      <trkpt lat="45.31843" lon="4.63309">
        <ele>560.59997558594</ele>
        <time>2026-05-12T13:47:39.000Z</time>
      </trkpt>
      <trkpt lat="45.31843" lon="4.63307">
        <ele>560.59997558594</ele>
        <time>2026-05-12T13:47:40.000Z</time>
      </trkpt>
      <trkpt lat="45.31843" lon="4.63306">
        <ele>560.59997558594</ele>
        <time>2026-05-12T13:47:41.000Z</time>
      </trkpt>
      <trkpt lat="45.31843" lon="4.63306">
        <ele>560.59997558594</ele>
        <time>2026-05-12T13:47:42.000Z</time>
      </trkpt>
      <trkpt lat="45.31843" lon="4.63301">
        <ele>560</ele>
        <time>2026-05-12T13:49:19.000Z</time>
      </trkpt>
      <trkpt lat="45.31844" lon="4.63298">
        <ele>560</ele>
        <time>2026-05-12T13:49:20.000Z</time>
      </trkpt>
      <trkpt lat="45.31845" lon="4.63295">
        <ele>560</ele>
        <time>2026-05-12T13:49:21.000Z</time>
      </trkpt>
      <trkpt lat="45.31847" lon="4.63291">
        <ele>560</ele>
        <time>2026-05-12T13:49:22.000Z</time>
      </trkpt>
      <trkpt lat="45.31848" lon="4.63287">
        <ele>559.79998779297</ele>
        <time>2026-05-12T13:49:23.000Z</time>
      </trkpt>
      <trkpt lat="45.3185" lon="4.63282">
        <ele>559.59997558594</ele>
        <time>2026-05-12T13:49:24.000Z</time>
      </trkpt>
      <trkpt lat="45.31851" lon="4.63277">
        <ele>559.40002441406</ele>
        <time>2026-05-12T13:49:25.000Z</time>
      </trkpt>
      <trkpt lat="45.31852" lon="4.63273">
        <ele>559.20001220703</ele>
        <time>2026-05-12T13:49:26.000Z</time>
      </trkpt>
      <trkpt lat="45.31853" lon="4.63268">
        <ele>559.20001220703</ele>
        <time>2026-05-12T13:49:27.000Z</time>
      </trkpt>
      <trkpt lat="45.31854" lon="4.63263">
        <ele>559.20001220703</ele>
        <time>2026-05-12T13:49:28.000Z</time>
      </trkpt>
      <trkpt lat="45.31855" lon="4.63259">
        <ele>559.20001220703</ele>
        <time>2026-05-12T13:49:29.000Z</time>
      </trkpt>
      <trkpt lat="45.31856" lon="4.63254">
        <ele>559.20001220703</ele>
        <time>2026-05-12T13:49:30.000Z</time>
      </trkpt>
      <trkpt lat="45.31856" lon="4.6325">
        <ele>559.20001220703</ele>
        <time>2026-05-12T13:49:31.000Z</time>
      </trkpt>
      <trkpt lat="45.31857" lon="4.63245">
        <ele>559.20001220703</ele>
        <time>2026-05-12T13:49:32.000Z</time>
      </trkpt>
      <trkpt lat="45.31858" lon="4.63241">
        <ele>559.20001220703</ele>
        <time>2026-05-12T13:49:33.000Z</time>
      </trkpt>
      <trkpt lat="45.31858" lon="4.63236">
        <ele>559.20001220703</ele>
        <time>2026-05-12T13:49:34.000Z</time>
      </trkpt>
      <trkpt lat="45.31859" lon="4.63231">
        <ele>559.20001220703</ele>
        <time>2026-05-12T13:49:35.000Z</time>
      </trkpt>
      <trkpt lat="45.3186" lon="4.63225">
        <ele>559.40002441406</ele>
        <time>2026-05-12T13:49:36.000Z</time>
      </trkpt>
      <trkpt lat="45.3186" lon="4.6322">
        <ele>559.40002441406</ele>
        <time>2026-05-12T13:49:37.000Z</time>
      </trkpt>
      <trkpt lat="45.31861" lon="4.63215">
        <ele>559.40002441406</ele>
        <time>2026-05-12T13:49:38.000Z</time>
      </trkpt>
      <trkpt lat="45.31861" lon="4.63211">
        <ele>559.59997558594</ele>
        <time>2026-05-12T13:49:39.000Z</time>
      </trkpt>
      <trkpt lat="45.31862" lon="4.63206">
        <ele>559.59997558594</ele>
        <time>2026-05-12T13:49:40.000Z</time>
      </trkpt>
      <trkpt lat="45.31862" lon="4.63201">
        <ele>559.59997558594</ele>
        <time>2026-05-12T13:49:41.000Z</time>
      </trkpt>
      <trkpt lat="45.31863" lon="4.63196">
        <ele>559.79998779297</ele>
        <time>2026-05-12T13:49:42.000Z</time>
      </trkpt>
      <trkpt lat="45.31863" lon="4.63191">
        <ele>559.79998779297</ele>
        <time>2026-05-12T13:49:43.000Z</time>
      </trkpt>
      <trkpt lat="45.31864" lon="4.63186">
        <ele>559.79998779297</ele>
        <time>2026-05-12T13:49:44.000Z</time>
      </trkpt>
      <trkpt lat="45.31865" lon="4.63181">
        <ele>560</ele>
        <time>2026-05-12T13:49:45.000Z</time>
      </trkpt>
      <trkpt lat="45.31865" lon="4.63176">
        <ele>560</ele>
        <time>2026-05-12T13:49:46.000Z</time>
      </trkpt>
      <trkpt lat="45.31866" lon="4.63171">
        <ele>560</ele>
        <time>2026-05-12T13:49:47.000Z</time>
      </trkpt>
      <trkpt lat="45.31867" lon="4.63166">
        <ele>560.20001220703</ele>
        <time>2026-05-12T13:49:48.000Z</time>
      </trkpt>
      <trkpt lat="45.31867" lon="4.63161">
        <ele>560.20001220703</ele>
        <time>2026-05-12T13:49:49.000Z</time>
      </trkpt>
      <trkpt lat="45.31867" lon="4.63156">
        <ele>560.40002441406</ele>
        <time>2026-05-12T13:49:50.000Z</time>
      </trkpt>
      <trkpt lat="45.31868" lon="4.63152">
        <ele>560.40002441406</ele>
        <time>2026-05-12T13:49:51.000Z</time>
      </trkpt>
      <trkpt lat="45.31868" lon="4.63147">
        <ele>560.59997558594</ele>
        <time>2026-05-12T13:49:52.000Z</time>
      </trkpt>
      <trkpt lat="45.31869" lon="4.63143">
        <ele>560.59997558594</ele>
        <time>2026-05-12T13:49:53.000Z</time>
      </trkpt>
      <trkpt lat="45.31869" lon="4.63139">
        <ele>560.79998779297</ele>
        <time>2026-05-12T13:49:54.000Z</time>
      </trkpt>
      <trkpt lat="45.3187" lon="4.63134">
        <ele>560.79998779297</ele>
        <time>2026-05-12T13:49:55.000Z</time>
      </trkpt>
      <trkpt lat="45.3187" lon="4.6313">
        <ele>561</ele>
        <time>2026-05-12T13:49:56.000Z</time>
      </trkpt>
      <trkpt lat="45.3187" lon="4.63126">
        <ele>561</ele>
        <time>2026-05-12T13:49:57.000Z</time>
      </trkpt>
      <trkpt lat="45.31871" lon="4.63121">
        <ele>561</ele>
        <time>2026-05-12T13:49:58.000Z</time>
      </trkpt>
      <trkpt lat="45.31872" lon="4.63117">
        <ele>561.20001220703</ele>
        <time>2026-05-12T13:49:59.000Z</time>
      </trkpt>
      <trkpt lat="45.31872" lon="4.63113">
        <ele>561.20001220703</ele>
        <time>2026-05-12T13:50:00.000Z</time>
      </trkpt>
      <trkpt lat="45.31873" lon="4.63109">
        <ele>561.40002441406</ele>
        <time>2026-05-12T13:50:01.000Z</time>
      </trkpt>
      <trkpt lat="45.31873" lon="4.63105">
        <ele>561.40002441406</ele>
        <time>2026-05-12T13:50:02.000Z</time>
      </trkpt>
      <trkpt lat="45.31873" lon="4.63101">
        <ele>561.59997558594</ele>
        <time>2026-05-12T13:50:03.000Z</time>
      </trkpt>
      <trkpt lat="45.31874" lon="4.63096">
        <ele>561.59997558594</ele>
        <time>2026-05-12T13:50:04.000Z</time>
      </trkpt>
      <trkpt lat="45.31874" lon="4.63092">
        <ele>561.59997558594</ele>
        <time>2026-05-12T13:50:05.000Z</time>
      </trkpt>
      <trkpt lat="45.31875" lon="4.63087">
        <ele>561.59997558594</ele>
        <time>2026-05-12T13:50:06.000Z</time>
      </trkpt>
      <trkpt lat="45.31876" lon="4.63082">
        <ele>561.79998779297</ele>
        <time>2026-05-12T13:50:07.000Z</time>
      </trkpt>
      <trkpt lat="45.31877" lon="4.63078">
        <ele>562</ele>
        <time>2026-05-12T13:50:08.000Z</time>
      </trkpt>
      <trkpt lat="45.31877" lon="4.63073">
        <ele>562</ele>
        <time>2026-05-12T13:50:09.000Z</time>
      </trkpt>
      <trkpt lat="45.31878" lon="4.63068">
        <ele>562.20001220703</ele>
        <time>2026-05-12T13:50:10.000Z</time>
      </trkpt>
      <trkpt lat="45.31879" lon="4.63063">
        <ele>562.40002441406</ele>
        <time>2026-05-12T13:50:11.000Z</time>
      </trkpt>
      <trkpt lat="45.31879" lon="4.63058">
        <ele>562.59997558594</ele>
        <time>2026-05-12T13:50:12.000Z</time>
      </trkpt>
      <trkpt lat="45.3188" lon="4.63053">
        <ele>562.79998779297</ele>
        <time>2026-05-12T13:50:13.000Z</time>
      </trkpt>
      <trkpt lat="45.3188" lon="4.63048">
        <ele>563</ele>
        <time>2026-05-12T13:50:14.000Z</time>
      </trkpt>
      <trkpt lat="45.31881" lon="4.63044">
        <ele>563.40002441406</ele>
        <time>2026-05-12T13:50:15.000Z</time>
      </trkpt>
      <trkpt lat="45.31881" lon="4.63039">
        <ele>563.40002441406</ele>
        <time>2026-05-12T13:50:16.000Z</time>
      </trkpt>
      <trkpt lat="45.31882" lon="4.63034">
        <ele>563.59997558594</ele>
        <time>2026-05-12T13:50:17.000Z</time>
      </trkpt>
      <trkpt lat="45.31883" lon="4.63029">
        <ele>563.79998779297</ele>
        <time>2026-05-12T13:50:18.000Z</time>
      </trkpt>
      <trkpt lat="45.31884" lon="4.63024">
        <ele>564</ele>
        <time>2026-05-12T13:50:19.000Z</time>
      </trkpt>
      <trkpt lat="45.31885" lon="4.6302">
        <ele>564.20001220703</ele>
        <time>2026-05-12T13:50:20.000Z</time>
      </trkpt>
      <trkpt lat="45.31885" lon="4.63015">
        <ele>564.20001220703</ele>
        <time>2026-05-12T13:50:21.000Z</time>
      </trkpt>
      <trkpt lat="45.31886" lon="4.6301">
        <ele>564.40002441406</ele>
        <time>2026-05-12T13:50:22.000Z</time>
      </trkpt>
      <trkpt lat="45.31887" lon="4.63006">
        <ele>564.40002441406</ele>
        <time>2026-05-12T13:50:23.000Z</time>
      </trkpt>
      <trkpt lat="45.31887" lon="4.63001">
        <ele>564.59997558594</ele>
        <time>2026-05-12T13:50:24.000Z</time>
      </trkpt>
      <trkpt lat="45.31888" lon="4.62996">
        <ele>564.59997558594</ele>
        <time>2026-05-12T13:50:25.000Z</time>
      </trkpt>
      <trkpt lat="45.31889" lon="4.62992">
        <ele>564.79998779297</ele>
        <time>2026-05-12T13:50:26.000Z</time>
      </trkpt>
      <trkpt lat="45.31889" lon="4.62987">
        <ele>564.79998779297</ele>
        <time>2026-05-12T13:50:27.000Z</time>
      </trkpt>
      <trkpt lat="45.3189" lon="4.62982">
        <ele>565</ele>
        <time>2026-05-12T13:50:28.000Z</time>
      </trkpt>
      <trkpt lat="45.31891" lon="4.62978">
        <ele>565</ele>
        <time>2026-05-12T13:50:29.000Z</time>
      </trkpt>
      <trkpt lat="45.31891" lon="4.62973">
        <ele>565</ele>
        <time>2026-05-12T13:50:30.000Z</time>
      </trkpt>
      <trkpt lat="45.31892" lon="4.62969">
        <ele>565.20001220703</ele>
        <time>2026-05-12T13:50:31.000Z</time>
      </trkpt>
      <trkpt lat="45.31893" lon="4.62964">
        <ele>565.20001220703</ele>
        <time>2026-05-12T13:50:32.000Z</time>
      </trkpt>
      <trkpt lat="45.31893" lon="4.62959">
        <ele>565.40002441406</ele>
        <time>2026-05-12T13:50:33.000Z</time>
      </trkpt>
      <trkpt lat="45.31894" lon="4.62955">
        <ele>565.40002441406</ele>
        <time>2026-05-12T13:50:34.000Z</time>
      </trkpt>
      <trkpt lat="45.31895" lon="4.6295">
        <ele>565.40002441406</ele>
        <time>2026-05-12T13:50:35.000Z</time>
      </trkpt>
      <trkpt lat="45.31896" lon="4.62946">
        <ele>565.59997558594</ele>
        <time>2026-05-12T13:50:36.000Z</time>
      </trkpt>
      <trkpt lat="45.31896" lon="4.62941">
        <ele>565.79998779297</ele>
        <time>2026-05-12T13:50:37.000Z</time>
      </trkpt>
      <trkpt lat="45.31897" lon="4.62936">
        <ele>565.79998779297</ele>
        <time>2026-05-12T13:50:38.000Z</time>
      </trkpt>
      <trkpt lat="45.31897" lon="4.62931">
        <ele>566</ele>
        <time>2026-05-12T13:50:39.000Z</time>
      </trkpt>
      <trkpt lat="45.31898" lon="4.62926">
        <ele>566</ele>
        <time>2026-05-12T13:50:40.000Z</time>
      </trkpt>
      <trkpt lat="45.31898" lon="4.62921">
        <ele>566.20001220703</ele>
        <time>2026-05-12T13:50:41.000Z</time>
      </trkpt>
      <trkpt lat="45.31898" lon="4.62917">
        <ele>566.40002441406</ele>
        <time>2026-05-12T13:50:42.000Z</time>
      </trkpt>
      <trkpt lat="45.31899" lon="4.62913">
        <ele>566.40002441406</ele>
        <time>2026-05-12T13:50:43.000Z</time>
      </trkpt>
      <trkpt lat="45.31899" lon="4.62908">
        <ele>566.40002441406</ele>
        <time>2026-05-12T13:50:44.000Z</time>
      </trkpt>
      <trkpt lat="45.31899" lon="4.62903">
        <ele>566.59997558594</ele>
        <time>2026-05-12T13:50:45.000Z</time>
      </trkpt>
      <trkpt lat="45.31899" lon="4.62898">
        <ele>566.59997558594</ele>
        <time>2026-05-12T13:50:46.000Z</time>
      </trkpt>
      <trkpt lat="45.31899" lon="4.62893">
        <ele>566.59997558594</ele>
        <time>2026-05-12T13:50:47.000Z</time>
      </trkpt>
      <trkpt lat="45.31899" lon="4.62888">
        <ele>566.59997558594</ele>
        <time>2026-05-12T13:50:48.000Z</time>
      </trkpt>
      <trkpt lat="45.31899" lon="4.62883">
        <ele>566.59997558594</ele>
        <time>2026-05-12T13:50:49.000Z</time>
      </trkpt>
      <trkpt lat="45.31899" lon="4.62878">
        <ele>566.79998779297</ele>
        <time>2026-05-12T13:50:50.000Z</time>
      </trkpt>
      <trkpt lat="45.31898" lon="4.62873">
        <ele>566.79998779297</ele>
        <time>2026-05-12T13:50:51.000Z</time>
      </trkpt>
      <trkpt lat="45.31898" lon="4.62868">
        <ele>567</ele>
        <time>2026-05-12T13:50:52.000Z</time>
      </trkpt>
      <trkpt lat="45.31898" lon="4.62863">
        <ele>567</ele>
        <time>2026-05-12T13:50:53.000Z</time>
      </trkpt>
      <trkpt lat="45.31897" lon="4.62858">
        <ele>567.20001220703</ele>
        <time>2026-05-12T13:50:54.000Z</time>
      </trkpt>
      <trkpt lat="45.31897" lon="4.62852">
        <ele>567.20001220703</ele>
        <time>2026-05-12T13:50:55.000Z</time>
      </trkpt>
      <trkpt lat="45.31897" lon="4.62848">
        <ele>567.40002441406</ele>
        <time>2026-05-12T13:50:56.000Z</time>
      </trkpt>
      <trkpt lat="45.31896" lon="4.62843">
        <ele>567.59997558594</ele>
        <time>2026-05-12T13:50:57.000Z</time>
      </trkpt>
      <trkpt lat="45.31896" lon="4.62838">
        <ele>567.79998779297</ele>
        <time>2026-05-12T13:50:58.000Z</time>
      </trkpt>
      <trkpt lat="45.31896" lon="4.62832">
        <ele>567.79998779297</ele>
        <time>2026-05-12T13:50:59.000Z</time>
      </trkpt>
      <trkpt lat="45.31895" lon="4.62827">
        <ele>567.79998779297</ele>
        <time>2026-05-12T13:51:00.000Z</time>
      </trkpt>
      <trkpt lat="45.31895" lon="4.62821">
        <ele>568</ele>
        <time>2026-05-12T13:51:01.000Z</time>
      </trkpt>
      <trkpt lat="45.31894" lon="4.62814">
        <ele>568</ele>
        <time>2026-05-12T13:51:02.000Z</time>
      </trkpt>
      <trkpt lat="45.31894" lon="4.62808">
        <ele>567.79998779297</ele>
        <time>2026-05-12T13:51:03.000Z</time>
      </trkpt>
      <trkpt lat="45.31893" lon="4.62802">
        <ele>567.79998779297</ele>
        <time>2026-05-12T13:51:04.000Z</time>
      </trkpt>
      <trkpt lat="45.31893" lon="4.62797">
        <ele>567.79998779297</ele>
        <time>2026-05-12T13:51:05.000Z</time>
      </trkpt>
      <trkpt lat="45.31892" lon="4.62791">
        <ele>567.59997558594</ele>
        <time>2026-05-12T13:51:06.000Z</time>
      </trkpt>
      <trkpt lat="45.31892" lon="4.62786">
        <ele>567.59997558594</ele>
        <time>2026-05-12T13:51:07.000Z</time>
      </trkpt>
      <trkpt lat="45.31891" lon="4.6278">
        <ele>567.59997558594</ele>
        <time>2026-05-12T13:51:08.000Z</time>
      </trkpt>
      <trkpt lat="45.31891" lon="4.62774">
        <ele>567.59997558594</ele>
        <time>2026-05-12T13:51:09.000Z</time>
      </trkpt>
      <trkpt lat="45.3189" lon="4.62768">
        <ele>567.59997558594</ele>
        <time>2026-05-12T13:51:10.000Z</time>
      </trkpt>
      <trkpt lat="45.3189" lon="4.62762">
        <ele>567.59997558594</ele>
        <time>2026-05-12T13:51:11.000Z</time>
      </trkpt>
      <trkpt lat="45.3189" lon="4.62755">
        <ele>567.59997558594</ele>
        <time>2026-05-12T13:51:12.000Z</time>
      </trkpt>
      <trkpt lat="45.3189" lon="4.62749">
        <ele>567.59997558594</ele>
        <time>2026-05-12T13:51:13.000Z</time>
      </trkpt>
      <trkpt lat="45.3189" lon="4.62743">
        <ele>567.59997558594</ele>
        <time>2026-05-12T13:51:14.000Z</time>
      </trkpt>
      <trkpt lat="45.3189" lon="4.62737">
        <ele>567.40002441406</ele>
        <time>2026-05-12T13:51:15.000Z</time>
      </trkpt>
      <trkpt lat="45.3189" lon="4.62731">
        <ele>567.40002441406</ele>
        <time>2026-05-12T13:51:16.000Z</time>
      </trkpt>
      <trkpt lat="45.31891" lon="4.62725">
        <ele>567.40002441406</ele>
        <time>2026-05-12T13:51:17.000Z</time>
      </trkpt>
      <trkpt lat="45.31891" lon="4.62719">
        <ele>567.40002441406</ele>
        <time>2026-05-12T13:51:18.000Z</time>
      </trkpt>
      <trkpt lat="45.31892" lon="4.62714">
        <ele>567.40002441406</ele>
        <time>2026-05-12T13:51:19.000Z</time>
      </trkpt>
      <trkpt lat="45.31893" lon="4.62708">
        <ele>567.40002441406</ele>
        <time>2026-05-12T13:51:20.000Z</time>
      </trkpt>
      <trkpt lat="45.31894" lon="4.62702">
        <ele>567.40002441406</ele>
        <time>2026-05-12T13:51:21.000Z</time>
      </trkpt>
      <trkpt lat="45.31895" lon="4.62697">
        <ele>567.40002441406</ele>
        <time>2026-05-12T13:51:22.000Z</time>
      </trkpt>
      <trkpt lat="45.31896" lon="4.62691">
        <ele>567.40002441406</ele>
        <time>2026-05-12T13:51:23.000Z</time>
      </trkpt>
      <trkpt lat="45.31897" lon="4.62686">
        <ele>567.40002441406</ele>
        <time>2026-05-12T13:51:24.000Z</time>
      </trkpt>
      <trkpt lat="45.31898" lon="4.6268">
        <ele>567.40002441406</ele>
        <time>2026-05-12T13:51:25.000Z</time>
      </trkpt>
      <trkpt lat="45.31899" lon="4.62675">
        <ele>567.40002441406</ele>
        <time>2026-05-12T13:51:26.000Z</time>
      </trkpt>
      <trkpt lat="45.31901" lon="4.6267">
        <ele>567.59997558594</ele>
        <time>2026-05-12T13:51:27.000Z</time>
      </trkpt>
      <trkpt lat="45.31902" lon="4.62664">
        <ele>567.59997558594</ele>
        <time>2026-05-12T13:51:28.000Z</time>
      </trkpt>
      <trkpt lat="45.31903" lon="4.62659">
        <ele>567.79998779297</ele>
        <time>2026-05-12T13:51:29.000Z</time>
      </trkpt>
      <trkpt lat="45.31904" lon="4.62654">
        <ele>568</ele>
        <time>2026-05-12T13:51:30.000Z</time>
      </trkpt>
      <trkpt lat="45.31905" lon="4.62649">
        <ele>568.20001220703</ele>
        <time>2026-05-12T13:51:31.000Z</time>
      </trkpt>
      <trkpt lat="45.31906" lon="4.62644">
        <ele>568.40002441406</ele>
        <time>2026-05-12T13:51:32.000Z</time>
      </trkpt>
      <trkpt lat="45.31907" lon="4.6264">
        <ele>568.59997558594</ele>
        <time>2026-05-12T13:51:33.000Z</time>
      </trkpt>
      <trkpt lat="45.31908" lon="4.62635">
        <ele>568.79998779297</ele>
        <time>2026-05-12T13:51:34.000Z</time>
      </trkpt>
      <trkpt lat="45.31909" lon="4.6263">
        <ele>569</ele>
        <time>2026-05-12T13:51:35.000Z</time>
      </trkpt>
      <trkpt lat="45.3191" lon="4.62625">
        <ele>569.20001220703</ele>
        <time>2026-05-12T13:51:36.000Z</time>
      </trkpt>
      <trkpt lat="45.31911" lon="4.6262">
        <ele>569.20001220703</ele>
        <time>2026-05-12T13:51:37.000Z</time>
      </trkpt>
      <trkpt lat="45.31912" lon="4.62615">
        <ele>569.40002441406</ele>
        <time>2026-05-12T13:51:38.000Z</time>
      </trkpt>
      <trkpt lat="45.31913" lon="4.62611">
        <ele>569.59997558594</ele>
        <time>2026-05-12T13:51:39.000Z</time>
      </trkpt>
      <trkpt lat="45.31914" lon="4.62606">
        <ele>569.79998779297</ele>
        <time>2026-05-12T13:51:40.000Z</time>
      </trkpt>
      <trkpt lat="45.31916" lon="4.62601">
        <ele>570.20001220703</ele>
        <time>2026-05-12T13:51:41.000Z</time>
      </trkpt>
      <trkpt lat="45.31917" lon="4.62596">
        <ele>570.40002441406</ele>
        <time>2026-05-12T13:51:42.000Z</time>
      </trkpt>
      <trkpt lat="45.31918" lon="4.62591">
        <ele>570.59997558594</ele>
        <time>2026-05-12T13:51:43.000Z</time>
      </trkpt>
      <trkpt lat="45.31919" lon="4.62586">
        <ele>571</ele>
        <time>2026-05-12T13:51:44.000Z</time>
      </trkpt>
      <trkpt lat="45.31921" lon="4.62582">
        <ele>571.20001220703</ele>
        <time>2026-05-12T13:51:45.000Z</time>
      </trkpt>
      <trkpt lat="45.31922" lon="4.62578">
        <ele>571.40002441406</ele>
        <time>2026-05-12T13:51:46.000Z</time>
      </trkpt>
      <trkpt lat="45.31924" lon="4.62573">
        <ele>571.59997558594</ele>
        <time>2026-05-12T13:51:47.000Z</time>
      </trkpt>
      <trkpt lat="45.31925" lon="4.62569">
        <ele>571.79998779297</ele>
        <time>2026-05-12T13:51:48.000Z</time>
      </trkpt>
      <trkpt lat="45.31927" lon="4.62565">
        <ele>572</ele>
        <time>2026-05-12T13:51:49.000Z</time>
      </trkpt>
      <trkpt lat="45.31929" lon="4.6256">
        <ele>572.20001220703</ele>
        <time>2026-05-12T13:51:50.000Z</time>
      </trkpt>
      <trkpt lat="45.31931" lon="4.62557">
        <ele>572.40002441406</ele>
        <time>2026-05-12T13:51:51.000Z</time>
      </trkpt>
      <trkpt lat="45.31934" lon="4.62553">
        <ele>572.59997558594</ele>
        <time>2026-05-12T13:51:52.000Z</time>
      </trkpt>
      <trkpt lat="45.31936" lon="4.62549">
        <ele>573</ele>
        <time>2026-05-12T13:51:53.000Z</time>
      </trkpt>
      <trkpt lat="45.31939" lon="4.62545">
        <ele>573.20001220703</ele>
        <time>2026-05-12T13:51:54.000Z</time>
      </trkpt>
      <trkpt lat="45.31941" lon="4.62542">
        <ele>573.40002441406</ele>
        <time>2026-05-12T13:51:55.000Z</time>
      </trkpt>
      <trkpt lat="45.31944" lon="4.62539">
        <ele>573.59997558594</ele>
        <time>2026-05-12T13:51:56.000Z</time>
      </trkpt>
      <trkpt lat="45.31946" lon="4.62536">
        <ele>573.79998779297</ele>
        <time>2026-05-12T13:51:57.000Z</time>
      </trkpt>
      <trkpt lat="45.31948" lon="4.62532">
        <ele>574</ele>
        <time>2026-05-12T13:51:58.000Z</time>
      </trkpt>
      <trkpt lat="45.3195" lon="4.62528">
        <ele>574.20001220703</ele>
        <time>2026-05-12T13:51:59.000Z</time>
      </trkpt>
      <trkpt lat="45.31951" lon="4.62523">
        <ele>574.20001220703</ele>
        <time>2026-05-12T13:52:00.000Z</time>
      </trkpt>
      <trkpt lat="45.31952" lon="4.62518">
        <ele>574.40002441406</ele>
        <time>2026-05-12T13:52:01.000Z</time>
      </trkpt>
      <trkpt lat="45.31953" lon="4.62513">
        <ele>574.40002441406</ele>
        <time>2026-05-12T13:52:02.000Z</time>
      </trkpt>
      <trkpt lat="45.31953" lon="4.62507">
        <ele>574.40002441406</ele>
        <time>2026-05-12T13:52:03.000Z</time>
      </trkpt>
      <trkpt lat="45.31952" lon="4.62501">
        <ele>574.40002441406</ele>
        <time>2026-05-12T13:52:04.000Z</time>
      </trkpt>
      <trkpt lat="45.3195" lon="4.62495">
        <ele>574.59997558594</ele>
        <time>2026-05-12T13:52:05.000Z</time>
      </trkpt>
      <trkpt lat="45.31949" lon="4.6249">
        <ele>574.59997558594</ele>
        <time>2026-05-12T13:52:06.000Z</time>
      </trkpt>
      <trkpt lat="45.31948" lon="4.62484">
        <ele>574.79998779297</ele>
        <time>2026-05-12T13:52:07.000Z</time>
      </trkpt>
      <trkpt lat="45.31947" lon="4.62479">
        <ele>575</ele>
        <time>2026-05-12T13:52:08.000Z</time>
      </trkpt>
      <trkpt lat="45.31947" lon="4.62475">
        <ele>575.40002441406</ele>
        <time>2026-05-12T13:52:09.000Z</time>
      </trkpt>
      <trkpt lat="45.31947" lon="4.6247">
        <ele>575.59997558594</ele>
        <time>2026-05-12T13:52:10.000Z</time>
      </trkpt>
      <trkpt lat="45.31948" lon="4.62465">
        <ele>575.79998779297</ele>
        <time>2026-05-12T13:52:11.000Z</time>
      </trkpt>
      <trkpt lat="45.31948" lon="4.6246">
        <ele>576.20001220703</ele>
        <time>2026-05-12T13:52:12.000Z</time>
      </trkpt>
      <trkpt lat="45.31949" lon="4.62455">
        <ele>576.40002441406</ele>
        <time>2026-05-12T13:52:13.000Z</time>
      </trkpt>
      <trkpt lat="45.3195" lon="4.6245">
        <ele>576.59997558594</ele>
        <time>2026-05-12T13:52:14.000Z</time>
      </trkpt>
      <trkpt lat="45.31951" lon="4.62446">
        <ele>576.79998779297</ele>
        <time>2026-05-12T13:52:15.000Z</time>
      </trkpt>
      <trkpt lat="45.31953" lon="4.62441">
        <ele>577</ele>
        <time>2026-05-12T13:52:16.000Z</time>
      </trkpt>
      <trkpt lat="45.31954" lon="4.62436">
        <ele>577.20001220703</ele>
        <time>2026-05-12T13:52:17.000Z</time>
      </trkpt>
      <trkpt lat="45.31955" lon="4.62431">
        <ele>577.40002441406</ele>
        <time>2026-05-12T13:52:18.000Z</time>
      </trkpt>
      <trkpt lat="45.31956" lon="4.62426">
        <ele>577.59997558594</ele>
        <time>2026-05-12T13:52:19.000Z</time>
      </trkpt>
      <trkpt lat="45.31958" lon="4.62421">
        <ele>577.79998779297</ele>
        <time>2026-05-12T13:52:20.000Z</time>
      </trkpt>
      <trkpt lat="45.31959" lon="4.62417">
        <ele>578</ele>
        <time>2026-05-12T13:52:21.000Z</time>
      </trkpt>
      <trkpt lat="45.31961" lon="4.62412">
        <ele>578</ele>
        <time>2026-05-12T13:52:22.000Z</time>
      </trkpt>
      <trkpt lat="45.31962" lon="4.62407">
        <ele>578.20001220703</ele>
        <time>2026-05-12T13:52:23.000Z</time>
      </trkpt>
      <trkpt lat="45.31964" lon="4.62402">
        <ele>578.40002441406</ele>
        <time>2026-05-12T13:52:24.000Z</time>
      </trkpt>
      <trkpt lat="45.31965" lon="4.62397">
        <ele>578.59997558594</ele>
        <time>2026-05-12T13:52:25.000Z</time>
      </trkpt>
      <trkpt lat="45.31967" lon="4.62391">
        <ele>578.79998779297</ele>
        <time>2026-05-12T13:52:26.000Z</time>
      </trkpt>
      <trkpt lat="45.31969" lon="4.62386">
        <ele>579</ele>
        <time>2026-05-12T13:52:27.000Z</time>
      </trkpt>
      <trkpt lat="45.3197" lon="4.62381">
        <ele>579.20001220703</ele>
        <time>2026-05-12T13:52:28.000Z</time>
      </trkpt>
      <trkpt lat="45.31972" lon="4.62376">
        <ele>579.40002441406</ele>
        <time>2026-05-12T13:52:29.000Z</time>
      </trkpt>
      <trkpt lat="45.31973" lon="4.62371">
        <ele>579.59997558594</ele>
        <time>2026-05-12T13:52:30.000Z</time>
      </trkpt>
      <trkpt lat="45.31975" lon="4.62366">
        <ele>579.79998779297</ele>
        <time>2026-05-12T13:52:31.000Z</time>
      </trkpt>
      <trkpt lat="45.31976" lon="4.62362">
        <ele>579.79998779297</ele>
        <time>2026-05-12T13:52:32.000Z</time>
      </trkpt>
      <trkpt lat="45.31978" lon="4.62358">
        <ele>580</ele>
        <time>2026-05-12T13:52:33.000Z</time>
      </trkpt>
      <trkpt lat="45.31979" lon="4.62353">
        <ele>580.20001220703</ele>
        <time>2026-05-12T13:52:34.000Z</time>
      </trkpt>
      <trkpt lat="45.31981" lon="4.62348">
        <ele>580.20001220703</ele>
        <time>2026-05-12T13:52:35.000Z</time>
      </trkpt>
      <trkpt lat="45.31982" lon="4.62343">
        <ele>580.40002441406</ele>
        <time>2026-05-12T13:52:36.000Z</time>
      </trkpt>
      <trkpt lat="45.31983" lon="4.62338">
        <ele>580.40002441406</ele>
        <time>2026-05-12T13:52:37.000Z</time>
      </trkpt>
      <trkpt lat="45.31985" lon="4.62333">
        <ele>580.59997558594</ele>
        <time>2026-05-12T13:52:38.000Z</time>
      </trkpt>
      <trkpt lat="45.31987" lon="4.62328">
        <ele>580.59997558594</ele>
        <time>2026-05-12T13:52:39.000Z</time>
      </trkpt>
      <trkpt lat="45.31988" lon="4.62323">
        <ele>580.59997558594</ele>
        <time>2026-05-12T13:52:40.000Z</time>
      </trkpt>
      <trkpt lat="45.3199" lon="4.62318">
        <ele>580.59997558594</ele>
        <time>2026-05-12T13:52:41.000Z</time>
      </trkpt>
      <trkpt lat="45.31991" lon="4.62314">
        <ele>580.59997558594</ele>
        <time>2026-05-12T13:52:42.000Z</time>
      </trkpt>
      <trkpt lat="45.31993" lon="4.6231">
        <ele>580.59997558594</ele>
        <time>2026-05-12T13:52:43.000Z</time>
      </trkpt>
      <trkpt lat="45.31994" lon="4.62305">
        <ele>580.79998779297</ele>
        <time>2026-05-12T13:52:44.000Z</time>
      </trkpt>
      <trkpt lat="45.31996" lon="4.623">
        <ele>580.79998779297</ele>
        <time>2026-05-12T13:52:45.000Z</time>
      </trkpt>
      <trkpt lat="45.31997" lon="4.62295">
        <ele>580.79998779297</ele>
        <time>2026-05-12T13:52:46.000Z</time>
      </trkpt>
      <trkpt lat="45.31999" lon="4.6229">
        <ele>580.79998779297</ele>
        <time>2026-05-12T13:52:47.000Z</time>
      </trkpt>
      <trkpt lat="45.32001" lon="4.62285">
        <ele>580.79998779297</ele>
        <time>2026-05-12T13:52:48.000Z</time>
      </trkpt>
      <trkpt lat="45.32002" lon="4.6228">
        <ele>580.79998779297</ele>
        <time>2026-05-12T13:52:49.000Z</time>
      </trkpt>
      <trkpt lat="45.32003" lon="4.62275">
        <ele>580.79998779297</ele>
        <time>2026-05-12T13:52:50.000Z</time>
      </trkpt>
      <trkpt lat="45.32005" lon="4.6227">
        <ele>580.79998779297</ele>
        <time>2026-05-12T13:52:51.000Z</time>
      </trkpt>
      <trkpt lat="45.32006" lon="4.62265">
        <ele>581</ele>
        <time>2026-05-12T13:52:52.000Z</time>
      </trkpt>
      <trkpt lat="45.32008" lon="4.6226">
        <ele>581</ele>
        <time>2026-05-12T13:52:53.000Z</time>
      </trkpt>
      <trkpt lat="45.3201" lon="4.62255">
        <ele>581</ele>
        <time>2026-05-12T13:52:54.000Z</time>
      </trkpt>
      <trkpt lat="45.32011" lon="4.6225">
        <ele>581</ele>
        <time>2026-05-12T13:52:55.000Z</time>
      </trkpt>
      <trkpt lat="45.32013" lon="4.62245">
        <ele>581</ele>
        <time>2026-05-12T13:52:56.000Z</time>
      </trkpt>
      <trkpt lat="45.32014" lon="4.6224">
        <ele>581.20001220703</ele>
        <time>2026-05-12T13:52:57.000Z</time>
      </trkpt>
      <trkpt lat="45.32016" lon="4.62235">
        <ele>581.20001220703</ele>
        <time>2026-05-12T13:52:58.000Z</time>
      </trkpt>
      <trkpt lat="45.32018" lon="4.6223">
        <ele>581.20001220703</ele>
        <time>2026-05-12T13:52:59.000Z</time>
      </trkpt>
      <trkpt lat="45.32019" lon="4.62225">
        <ele>581.20001220703</ele>
        <time>2026-05-12T13:53:00.000Z</time>
      </trkpt>
      <trkpt lat="45.32021" lon="4.62219">
        <ele>581.40002441406</ele>
        <time>2026-05-12T13:53:01.000Z</time>
      </trkpt>
      <trkpt lat="45.32023" lon="4.62214">
        <ele>581.40002441406</ele>
        <time>2026-05-12T13:53:02.000Z</time>
      </trkpt>
      <trkpt lat="45.32025" lon="4.6221">
        <ele>581.40002441406</ele>
        <time>2026-05-12T13:53:03.000Z</time>
      </trkpt>
      <trkpt lat="45.32026" lon="4.62205">
        <ele>581.59997558594</ele>
        <time>2026-05-12T13:53:04.000Z</time>
      </trkpt>
      <trkpt lat="45.32028" lon="4.622">
        <ele>581.59997558594</ele>
        <time>2026-05-12T13:53:05.000Z</time>
      </trkpt>
      <trkpt lat="45.32029" lon="4.62195">
        <ele>581.79998779297</ele>
        <time>2026-05-12T13:53:06.000Z</time>
      </trkpt>
      <trkpt lat="45.32031" lon="4.6219">
        <ele>581.79998779297</ele>
        <time>2026-05-12T13:53:07.000Z</time>
      </trkpt>
      <trkpt lat="45.32032" lon="4.62184">
        <ele>581.79998779297</ele>
        <time>2026-05-12T13:53:08.000Z</time>
      </trkpt>
      <trkpt lat="45.32034" lon="4.62179">
        <ele>581.79998779297</ele>
        <time>2026-05-12T13:53:09.000Z</time>
      </trkpt>
      <trkpt lat="45.32036" lon="4.62173">
        <ele>581.79998779297</ele>
        <time>2026-05-12T13:53:10.000Z</time>
      </trkpt>
      <trkpt lat="45.32038" lon="4.62167">
        <ele>581.79998779297</ele>
        <time>2026-05-12T13:53:11.000Z</time>
      </trkpt>
      <trkpt lat="45.3204" lon="4.62161">
        <ele>581.79998779297</ele>
        <time>2026-05-12T13:53:12.000Z</time>
      </trkpt>
      <trkpt lat="45.32042" lon="4.62155">
        <ele>581.79998779297</ele>
        <time>2026-05-12T13:53:13.000Z</time>
      </trkpt>
      <trkpt lat="45.32043" lon="4.6215">
        <ele>581.79998779297</ele>
        <time>2026-05-12T13:53:14.000Z</time>
      </trkpt>
      <trkpt lat="45.32045" lon="4.62144">
        <ele>582</ele>
        <time>2026-05-12T13:53:15.000Z</time>
      </trkpt>
      <trkpt lat="45.32046" lon="4.6214">
        <ele>582</ele>
        <time>2026-05-12T13:53:16.000Z</time>
      </trkpt>
      <trkpt lat="45.32048" lon="4.62135">
        <ele>582.20001220703</ele>
        <time>2026-05-12T13:53:17.000Z</time>
      </trkpt>
      <trkpt lat="45.32049" lon="4.62131">
        <ele>582.20001220703</ele>
        <time>2026-05-12T13:53:18.000Z</time>
      </trkpt>
      <trkpt lat="45.3205" lon="4.62126">
        <ele>582.40002441406</ele>
        <time>2026-05-12T13:53:19.000Z</time>
      </trkpt>
      <trkpt lat="45.32052" lon="4.62122">
        <ele>582.40002441406</ele>
        <time>2026-05-12T13:53:20.000Z</time>
      </trkpt>
      <trkpt lat="45.32053" lon="4.62118">
        <ele>582.40002441406</ele>
        <time>2026-05-12T13:53:21.000Z</time>
      </trkpt>
      <trkpt lat="45.32054" lon="4.62113">
        <ele>582.59997558594</ele>
        <time>2026-05-12T13:53:22.000Z</time>
      </trkpt>
      <trkpt lat="45.32056" lon="4.62107">
        <ele>582.59997558594</ele>
        <time>2026-05-12T13:53:23.000Z</time>
      </trkpt>
      <trkpt lat="45.32057" lon="4.62103">
        <ele>582.59997558594</ele>
        <time>2026-05-12T13:53:24.000Z</time>
      </trkpt>
      <trkpt lat="45.3206" lon="4.62096">
        <ele>582.59997558594</ele>
        <time>2026-05-12T13:53:25.000Z</time>
      </trkpt>
      <trkpt lat="45.32061" lon="4.62091">
        <ele>582.79998779297</ele>
        <time>2026-05-12T13:53:26.000Z</time>
      </trkpt>
      <trkpt lat="45.32063" lon="4.62085">
        <ele>582.79998779297</ele>
        <time>2026-05-12T13:53:27.000Z</time>
      </trkpt>
      <trkpt lat="45.32065" lon="4.6208">
        <ele>583</ele>
        <time>2026-05-12T13:53:28.000Z</time>
      </trkpt>
      <trkpt lat="45.32067" lon="4.62074">
        <ele>583</ele>
        <time>2026-05-12T13:53:29.000Z</time>
      </trkpt>
      <trkpt lat="45.32069" lon="4.62069">
        <ele>583</ele>
        <time>2026-05-12T13:53:30.000Z</time>
      </trkpt>
      <trkpt lat="45.3207" lon="4.62063">
        <ele>583.20001220703</ele>
        <time>2026-05-12T13:53:31.000Z</time>
      </trkpt>
      <trkpt lat="45.32072" lon="4.62057">
        <ele>583.20001220703</ele>
        <time>2026-05-12T13:53:32.000Z</time>
      </trkpt>
      <trkpt lat="45.32074" lon="4.62051">
        <ele>583.20001220703</ele>
        <time>2026-05-12T13:53:33.000Z</time>
      </trkpt>
      <trkpt lat="45.32076" lon="4.62046">
        <ele>583.20001220703</ele>
        <time>2026-05-12T13:53:34.000Z</time>
      </trkpt>
      <trkpt lat="45.32077" lon="4.6204">
        <ele>583.40002441406</ele>
        <time>2026-05-12T13:53:35.000Z</time>
      </trkpt>
      <trkpt lat="45.32079" lon="4.62035">
        <ele>583.59997558594</ele>
        <time>2026-05-12T13:53:36.000Z</time>
      </trkpt>
      <trkpt lat="45.32081" lon="4.6203">
        <ele>583.59997558594</ele>
        <time>2026-05-12T13:53:37.000Z</time>
      </trkpt>
      <trkpt lat="45.32082" lon="4.62025">
        <ele>583.79998779297</ele>
        <time>2026-05-12T13:53:38.000Z</time>
      </trkpt>
      <trkpt lat="45.32084" lon="4.6202">
        <ele>584</ele>
        <time>2026-05-12T13:53:39.000Z</time>
      </trkpt>
      <trkpt lat="45.32085" lon="4.62015">
        <ele>584</ele>
        <time>2026-05-12T13:53:40.000Z</time>
      </trkpt>
      <trkpt lat="45.32087" lon="4.62009">
        <ele>584.20001220703</ele>
        <time>2026-05-12T13:53:41.000Z</time>
      </trkpt>
      <trkpt lat="45.32088" lon="4.62004">
        <ele>584.20001220703</ele>
        <time>2026-05-12T13:53:42.000Z</time>
      </trkpt>
      <trkpt lat="45.3209" lon="4.61998">
        <ele>584.40002441406</ele>
        <time>2026-05-12T13:53:43.000Z</time>
      </trkpt>
      <trkpt lat="45.32091" lon="4.61993">
        <ele>584.40002441406</ele>
        <time>2026-05-12T13:53:44.000Z</time>
      </trkpt>
      <trkpt lat="45.32092" lon="4.61987">
        <ele>584.40002441406</ele>
        <time>2026-05-12T13:53:45.000Z</time>
      </trkpt>
      <trkpt lat="45.32094" lon="4.61981">
        <ele>584.40002441406</ele>
        <time>2026-05-12T13:53:46.000Z</time>
      </trkpt>
      <trkpt lat="45.32094" lon="4.61975">
        <ele>584.40002441406</ele>
        <time>2026-05-12T13:53:47.000Z</time>
      </trkpt>
      <trkpt lat="45.32095" lon="4.61969">
        <ele>584.40002441406</ele>
        <time>2026-05-12T13:53:48.000Z</time>
      </trkpt>
      <trkpt lat="45.32096" lon="4.61964">
        <ele>584.59997558594</ele>
        <time>2026-05-12T13:53:49.000Z</time>
      </trkpt>
      <trkpt lat="45.32096" lon="4.61959">
        <ele>584.59997558594</ele>
        <time>2026-05-12T13:53:50.000Z</time>
      </trkpt>
      <trkpt lat="45.32097" lon="4.61954">
        <ele>584.79998779297</ele>
        <time>2026-05-12T13:53:51.000Z</time>
      </trkpt>
      <trkpt lat="45.32098" lon="4.61949">
        <ele>584.79998779297</ele>
        <time>2026-05-12T13:53:52.000Z</time>
      </trkpt>
      <trkpt lat="45.32098" lon="4.61944">
        <ele>585</ele>
        <time>2026-05-12T13:53:53.000Z</time>
      </trkpt>
      <trkpt lat="45.32099" lon="4.61939">
        <ele>585</ele>
        <time>2026-05-12T13:53:54.000Z</time>
      </trkpt>
      <trkpt lat="45.321" lon="4.61933">
        <ele>585</ele>
        <time>2026-05-12T13:53:55.000Z</time>
      </trkpt>
      <trkpt lat="45.32101" lon="4.61928">
        <ele>585</ele>
        <time>2026-05-12T13:53:56.000Z</time>
      </trkpt>
      <trkpt lat="45.32101" lon="4.61923">
        <ele>585</ele>
        <time>2026-05-12T13:53:57.000Z</time>
      </trkpt>
      <trkpt lat="45.32102" lon="4.61917">
        <ele>585</ele>
        <time>2026-05-12T13:53:58.000Z</time>
      </trkpt>
      <trkpt lat="45.32103" lon="4.61912">
        <ele>585.20001220703</ele>
        <time>2026-05-12T13:53:59.000Z</time>
      </trkpt>
      <trkpt lat="45.32103" lon="4.61906">
        <ele>585.20001220703</ele>
        <time>2026-05-12T13:54:00.000Z</time>
      </trkpt>
      <trkpt lat="45.32104" lon="4.619">
        <ele>585.20001220703</ele>
        <time>2026-05-12T13:54:01.000Z</time>
      </trkpt>
      <trkpt lat="45.32105" lon="4.61894">
        <ele>585.20001220703</ele>
        <time>2026-05-12T13:54:02.000Z</time>
      </trkpt>
      <trkpt lat="45.32107" lon="4.61888">
        <ele>585.20001220703</ele>
        <time>2026-05-12T13:54:03.000Z</time>
      </trkpt>
      <trkpt lat="45.32108" lon="4.61881">
        <ele>585</ele>
        <time>2026-05-12T13:54:04.000Z</time>
      </trkpt>
      <trkpt lat="45.32109" lon="4.61875">
        <ele>585</ele>
        <time>2026-05-12T13:54:05.000Z</time>
      </trkpt>
      <trkpt lat="45.3211" lon="4.61869">
        <ele>585</ele>
        <time>2026-05-12T13:54:06.000Z</time>
      </trkpt>
      <trkpt lat="45.3211" lon="4.61864">
        <ele>585</ele>
        <time>2026-05-12T13:54:07.000Z</time>
      </trkpt>
      <trkpt lat="45.32111" lon="4.61857">
        <ele>585</ele>
        <time>2026-05-12T13:54:08.000Z</time>
      </trkpt>
      <trkpt lat="45.32112" lon="4.61852">
        <ele>585</ele>
        <time>2026-05-12T13:54:09.000Z</time>
      </trkpt>
      <trkpt lat="45.32113" lon="4.61847">
        <ele>585</ele>
        <time>2026-05-12T13:54:10.000Z</time>
      </trkpt>
      <trkpt lat="45.32113" lon="4.61842">
        <ele>585</ele>
        <time>2026-05-12T13:54:11.000Z</time>
      </trkpt>
      <trkpt lat="45.32114" lon="4.61836">
        <ele>585</ele>
        <time>2026-05-12T13:54:12.000Z</time>
      </trkpt>
      <trkpt lat="45.32115" lon="4.6183">
        <ele>585</ele>
        <time>2026-05-12T13:54:13.000Z</time>
      </trkpt>
      <trkpt lat="45.32116" lon="4.61824">
        <ele>584.79998779297</ele>
        <time>2026-05-12T13:54:14.000Z</time>
      </trkpt>
      <trkpt lat="45.32116" lon="4.61818">
        <ele>584.79998779297</ele>
        <time>2026-05-12T13:54:15.000Z</time>
      </trkpt>
      <trkpt lat="45.32117" lon="4.61812">
        <ele>584.79998779297</ele>
        <time>2026-05-12T13:54:16.000Z</time>
      </trkpt>
      <trkpt lat="45.32118" lon="4.61807">
        <ele>584.79998779297</ele>
        <time>2026-05-12T13:54:17.000Z</time>
      </trkpt>
      <trkpt lat="45.32118" lon="4.61802">
        <ele>584.79998779297</ele>
        <time>2026-05-12T13:54:18.000Z</time>
      </trkpt>
      <trkpt lat="45.32119" lon="4.61797">
        <ele>585</ele>
        <time>2026-05-12T13:54:19.000Z</time>
      </trkpt>
      <trkpt lat="45.3212" lon="4.61792">
        <ele>585</ele>
        <time>2026-05-12T13:54:20.000Z</time>
      </trkpt>
      <trkpt lat="45.32122" lon="4.61787">
        <ele>584.79998779297</ele>
        <time>2026-05-12T13:54:21.000Z</time>
      </trkpt>
      <trkpt lat="45.32124" lon="4.61782">
        <ele>584.79998779297</ele>
        <time>2026-05-12T13:54:22.000Z</time>
      </trkpt>
      <trkpt lat="45.32126" lon="4.61777">
        <ele>584.79998779297</ele>
        <time>2026-05-12T13:54:23.000Z</time>
      </trkpt>
      <trkpt lat="45.32129" lon="4.61772">
        <ele>584.59997558594</ele>
        <time>2026-05-12T13:54:24.000Z</time>
      </trkpt>
      <trkpt lat="45.32132" lon="4.61767">
        <ele>584.59997558594</ele>
        <time>2026-05-12T13:54:25.000Z</time>
      </trkpt>
      <trkpt lat="45.32134" lon="4.61762">
        <ele>584.59997558594</ele>
        <time>2026-05-12T13:54:26.000Z</time>
      </trkpt>
      <trkpt lat="45.32136" lon="4.61757">
        <ele>584.59997558594</ele>
        <time>2026-05-12T13:54:27.000Z</time>
      </trkpt>
      <trkpt lat="45.32138" lon="4.61752">
        <ele>584.59997558594</ele>
        <time>2026-05-12T13:54:28.000Z</time>
      </trkpt>
      <trkpt lat="45.3214" lon="4.61748">
        <ele>584.59997558594</ele>
        <time>2026-05-12T13:54:29.000Z</time>
      </trkpt>
      <trkpt lat="45.32142" lon="4.61743">
        <ele>584.59997558594</ele>
        <time>2026-05-12T13:54:30.000Z</time>
      </trkpt>
      <trkpt lat="45.32144" lon="4.61738">
        <ele>584.59997558594</ele>
        <time>2026-05-12T13:54:31.000Z</time>
      </trkpt>
      <trkpt lat="45.32147" lon="4.61733">
        <ele>584.79998779297</ele>
        <time>2026-05-12T13:54:32.000Z</time>
      </trkpt>
      <trkpt lat="45.3215" lon="4.61729">
        <ele>584.59997558594</ele>
        <time>2026-05-12T13:54:33.000Z</time>
      </trkpt>
      <trkpt lat="45.32153" lon="4.61724">
        <ele>584.59997558594</ele>
        <time>2026-05-12T13:54:34.000Z</time>
      </trkpt>
      <trkpt lat="45.32155" lon="4.6172">
        <ele>584.59997558594</ele>
        <time>2026-05-12T13:54:35.000Z</time>
      </trkpt>
      <trkpt lat="45.32158" lon="4.61715">
        <ele>584.40002441406</ele>
        <time>2026-05-12T13:54:36.000Z</time>
      </trkpt>
      <trkpt lat="45.3216" lon="4.6171">
        <ele>584.40002441406</ele>
        <time>2026-05-12T13:54:37.000Z</time>
      </trkpt>
      <trkpt lat="45.32163" lon="4.61705">
        <ele>584.40002441406</ele>
        <time>2026-05-12T13:54:38.000Z</time>
      </trkpt>
      <trkpt lat="45.32166" lon="4.617">
        <ele>584.40002441406</ele>
        <time>2026-05-12T13:54:39.000Z</time>
      </trkpt>
      <trkpt lat="45.32168" lon="4.61695">
        <ele>584.40002441406</ele>
        <time>2026-05-12T13:54:40.000Z</time>
      </trkpt>
      <trkpt lat="45.3217" lon="4.61691">
        <ele>584.40002441406</ele>
        <time>2026-05-12T13:54:41.000Z</time>
      </trkpt>
      <trkpt lat="45.32173" lon="4.61686">
        <ele>584.40002441406</ele>
        <time>2026-05-12T13:54:42.000Z</time>
      </trkpt>
      <trkpt lat="45.32176" lon="4.61681">
        <ele>584.40002441406</ele>
        <time>2026-05-12T13:54:43.000Z</time>
      </trkpt>
      <trkpt lat="45.32179" lon="4.61677">
        <ele>584.40002441406</ele>
        <time>2026-05-12T13:54:44.000Z</time>
      </trkpt>
      <trkpt lat="45.32181" lon="4.61673">
        <ele>584.40002441406</ele>
        <time>2026-05-12T13:54:45.000Z</time>
      </trkpt>
      <trkpt lat="45.32184" lon="4.61668">
        <ele>584.40002441406</ele>
        <time>2026-05-12T13:54:46.000Z</time>
      </trkpt>
      <trkpt lat="45.32187" lon="4.61664">
        <ele>584.59997558594</ele>
        <time>2026-05-12T13:54:47.000Z</time>
      </trkpt>
      <trkpt lat="45.32189" lon="4.61659">
        <ele>584.59997558594</ele>
        <time>2026-05-12T13:54:48.000Z</time>
      </trkpt>
      <trkpt lat="45.32191" lon="4.61655">
        <ele>584.79998779297</ele>
        <time>2026-05-12T13:54:49.000Z</time>
      </trkpt>
      <trkpt lat="45.32194" lon="4.6165">
        <ele>584.79998779297</ele>
        <time>2026-05-12T13:54:50.000Z</time>
      </trkpt>
      <trkpt lat="45.32196" lon="4.61646">
        <ele>585</ele>
        <time>2026-05-12T13:54:51.000Z</time>
      </trkpt>
      <trkpt lat="45.32199" lon="4.61642">
        <ele>585</ele>
        <time>2026-05-12T13:54:52.000Z</time>
      </trkpt>
      <trkpt lat="45.322" lon="4.61638">
        <ele>585</ele>
        <time>2026-05-12T13:54:53.000Z</time>
      </trkpt>
      <trkpt lat="45.32203" lon="4.61634">
        <ele>585</ele>
        <time>2026-05-12T13:54:54.000Z</time>
      </trkpt>
      <trkpt lat="45.32205" lon="4.6163">
        <ele>585</ele>
        <time>2026-05-12T13:54:55.000Z</time>
      </trkpt>
      <trkpt lat="45.32207" lon="4.61626">
        <ele>585</ele>
        <time>2026-05-12T13:54:56.000Z</time>
      </trkpt>
      <trkpt lat="45.3221" lon="4.61622">
        <ele>584.79998779297</ele>
        <time>2026-05-12T13:54:57.000Z</time>
      </trkpt>
      <trkpt lat="45.32212" lon="4.61617">
        <ele>584.79998779297</ele>
        <time>2026-05-12T13:54:58.000Z</time>
      </trkpt>
      <trkpt lat="45.32215" lon="4.61613">
        <ele>584.59997558594</ele>
        <time>2026-05-12T13:54:59.000Z</time>
      </trkpt>
      <trkpt lat="45.32217" lon="4.61608">
        <ele>584.59997558594</ele>
        <time>2026-05-12T13:55:00.000Z</time>
      </trkpt>
      <trkpt lat="45.32218" lon="4.61603">
        <ele>584.40002441406</ele>
        <time>2026-05-12T13:55:01.000Z</time>
      </trkpt>
      <trkpt lat="45.32218" lon="4.61597">
        <ele>584.40002441406</ele>
        <time>2026-05-12T13:55:02.000Z</time>
      </trkpt>
      <trkpt lat="45.32218" lon="4.61591">
        <ele>584.40002441406</ele>
        <time>2026-05-12T13:55:03.000Z</time>
      </trkpt>
      <trkpt lat="45.32217" lon="4.61585">
        <ele>584.59997558594</ele>
        <time>2026-05-12T13:55:04.000Z</time>
      </trkpt>
      <trkpt lat="45.32216" lon="4.61579">
        <ele>584.40002441406</ele>
        <time>2026-05-12T13:55:05.000Z</time>
      </trkpt>
      <trkpt lat="45.32215" lon="4.61572">
        <ele>584.40002441406</ele>
        <time>2026-05-12T13:55:06.000Z</time>
      </trkpt>
      <trkpt lat="45.32213" lon="4.61566">
        <ele>584.40002441406</ele>
        <time>2026-05-12T13:55:07.000Z</time>
      </trkpt>
      <trkpt lat="45.32211" lon="4.6156">
        <ele>584.40002441406</ele>
        <time>2026-05-12T13:55:08.000Z</time>
      </trkpt>
      <trkpt lat="45.3221" lon="4.61555">
        <ele>584.59997558594</ele>
        <time>2026-05-12T13:55:09.000Z</time>
      </trkpt>
      <trkpt lat="45.32208" lon="4.6155">
        <ele>584.79998779297</ele>
        <time>2026-05-12T13:55:10.000Z</time>
      </trkpt>
      <trkpt lat="45.32207" lon="4.61545">
        <ele>585</ele>
        <time>2026-05-12T13:55:11.000Z</time>
      </trkpt>
      <trkpt lat="45.32206" lon="4.61541">
        <ele>585.20001220703</ele>
        <time>2026-05-12T13:55:12.000Z</time>
      </trkpt>
      <trkpt lat="45.32205" lon="4.61536">
        <ele>585.40002441406</ele>
        <time>2026-05-12T13:55:13.000Z</time>
      </trkpt>
      <trkpt lat="45.32204" lon="4.61532">
        <ele>585.59997558594</ele>
        <time>2026-05-12T13:55:14.000Z</time>
      </trkpt>
      <trkpt lat="45.32202" lon="4.61526">
        <ele>585.59997558594</ele>
        <time>2026-05-12T13:55:15.000Z</time>
      </trkpt>
      <trkpt lat="45.322" lon="4.61521">
        <ele>585.79998779297</ele>
        <time>2026-05-12T13:55:16.000Z</time>
      </trkpt>
      <trkpt lat="45.32198" lon="4.61516">
        <ele>585.79998779297</ele>
        <time>2026-05-12T13:55:17.000Z</time>
      </trkpt>
      <trkpt lat="45.32197" lon="4.61511">
        <ele>586</ele>
        <time>2026-05-12T13:55:18.000Z</time>
      </trkpt>
      <trkpt lat="45.32195" lon="4.61506">
        <ele>586.20001220703</ele>
        <time>2026-05-12T13:55:19.000Z</time>
      </trkpt>
      <trkpt lat="45.32194" lon="4.615">
        <ele>586.40002441406</ele>
        <time>2026-05-12T13:55:20.000Z</time>
      </trkpt>
      <trkpt lat="45.32192" lon="4.61495">
        <ele>586.59997558594</ele>
        <time>2026-05-12T13:55:21.000Z</time>
      </trkpt>
      <trkpt lat="45.32191" lon="4.6149">
        <ele>586.79998779297</ele>
        <time>2026-05-12T13:55:22.000Z</time>
      </trkpt>
      <trkpt lat="45.32189" lon="4.61485">
        <ele>587</ele>
        <time>2026-05-12T13:55:23.000Z</time>
      </trkpt>
      <trkpt lat="45.32188" lon="4.6148">
        <ele>587.40002441406</ele>
        <time>2026-05-12T13:55:24.000Z</time>
      </trkpt>
      <trkpt lat="45.32189" lon="4.61475">
        <ele>587.59997558594</ele>
        <time>2026-05-12T13:55:25.000Z</time>
      </trkpt>
      <trkpt lat="45.32191" lon="4.61471">
        <ele>588</ele>
        <time>2026-05-12T13:55:26.000Z</time>
      </trkpt>
      <trkpt lat="45.32194" lon="4.61467">
        <ele>588.20001220703</ele>
        <time>2026-05-12T13:55:27.000Z</time>
      </trkpt>
      <trkpt lat="45.32198" lon="4.61464">
        <ele>588.40002441406</ele>
        <time>2026-05-12T13:55:28.000Z</time>
      </trkpt>
      <trkpt lat="45.32201" lon="4.61461">
        <ele>588.40002441406</ele>
        <time>2026-05-12T13:55:29.000Z</time>
      </trkpt>
      <trkpt lat="45.32205" lon="4.61459">
        <ele>588.40002441406</ele>
        <time>2026-05-12T13:55:30.000Z</time>
      </trkpt>
      <trkpt lat="45.32208" lon="4.61457">
        <ele>588.40002441406</ele>
        <time>2026-05-12T13:55:31.000Z</time>
      </trkpt>
      <trkpt lat="45.32212" lon="4.61455">
        <ele>588.59997558594</ele>
        <time>2026-05-12T13:55:32.000Z</time>
      </trkpt>
      <trkpt lat="45.32215" lon="4.61453">
        <ele>588.59997558594</ele>
        <time>2026-05-12T13:55:33.000Z</time>
      </trkpt>
      <trkpt lat="45.32217" lon="4.61452">
        <ele>588.79998779297</ele>
        <time>2026-05-12T13:55:34.000Z</time>
      </trkpt>
      <trkpt lat="45.3222" lon="4.6145">
        <ele>589</ele>
        <time>2026-05-12T13:55:35.000Z</time>
      </trkpt>
      <trkpt lat="45.32223" lon="4.61448">
        <ele>589.20001220703</ele>
        <time>2026-05-12T13:55:36.000Z</time>
      </trkpt>
      <trkpt lat="45.32225" lon="4.61446">
        <ele>589.40002441406</ele>
        <time>2026-05-12T13:55:37.000Z</time>
      </trkpt>
      <trkpt lat="45.32228" lon="4.61444">
        <ele>589.59997558594</ele>
        <time>2026-05-12T13:55:38.000Z</time>
      </trkpt>
      <trkpt lat="45.32231" lon="4.61441">
        <ele>589.79998779297</ele>
        <time>2026-05-12T13:55:39.000Z</time>
      </trkpt>
      <trkpt lat="45.32233" lon="4.61439">
        <ele>590</ele>
        <time>2026-05-12T13:55:40.000Z</time>
      </trkpt>
      <trkpt lat="45.32235" lon="4.61437">
        <ele>590.20001220703</ele>
        <time>2026-05-12T13:55:41.000Z</time>
      </trkpt>
      <trkpt lat="45.32238" lon="4.61435">
        <ele>590.20001220703</ele>
        <time>2026-05-12T13:55:42.000Z</time>
      </trkpt>
      <trkpt lat="45.3224" lon="4.61434">
        <ele>590.40002441406</ele>
        <time>2026-05-12T13:55:43.000Z</time>
      </trkpt>
      <trkpt lat="45.32242" lon="4.61431">
        <ele>590.40002441406</ele>
        <time>2026-05-12T13:55:44.000Z</time>
      </trkpt>
      <trkpt lat="45.32244" lon="4.61429">
        <ele>590.59997558594</ele>
        <time>2026-05-12T13:55:45.000Z</time>
      </trkpt>
      <trkpt lat="45.32246" lon="4.61427">
        <ele>590.59997558594</ele>
        <time>2026-05-12T13:55:46.000Z</time>
      </trkpt>
      <trkpt lat="45.32248" lon="4.61424">
        <ele>590.79998779297</ele>
        <time>2026-05-12T13:55:47.000Z</time>
      </trkpt>
      <trkpt lat="45.3225" lon="4.61422">
        <ele>590.79998779297</ele>
        <time>2026-05-12T13:55:48.000Z</time>
      </trkpt>
      <trkpt lat="45.32252" lon="4.61419">
        <ele>590.79998779297</ele>
        <time>2026-05-12T13:55:49.000Z</time>
      </trkpt>
      <trkpt lat="45.32254" lon="4.61417">
        <ele>590.79998779297</ele>
        <time>2026-05-12T13:55:50.000Z</time>
      </trkpt>
      <trkpt lat="45.32256" lon="4.61414">
        <ele>590.79998779297</ele>
        <time>2026-05-12T13:55:51.000Z</time>
      </trkpt>
      <trkpt lat="45.32259" lon="4.61412">
        <ele>590.79998779297</ele>
        <time>2026-05-12T13:55:52.000Z</time>
      </trkpt>
      <trkpt lat="45.32261" lon="4.61409">
        <ele>591</ele>
        <time>2026-05-12T13:55:53.000Z</time>
      </trkpt>
      <trkpt lat="45.32263" lon="4.61406">
        <ele>591</ele>
        <time>2026-05-12T13:55:54.000Z</time>
      </trkpt>
      <trkpt lat="45.32266" lon="4.61403">
        <ele>591</ele>
        <time>2026-05-12T13:55:55.000Z</time>
      </trkpt>
      <trkpt lat="45.32268" lon="4.61401">
        <ele>591.20001220703</ele>
        <time>2026-05-12T13:55:56.000Z</time>
      </trkpt>
      <trkpt lat="45.3227" lon="4.61398">
        <ele>591.20001220703</ele>
        <time>2026-05-12T13:55:57.000Z</time>
      </trkpt>
      <trkpt lat="45.32272" lon="4.61396">
        <ele>591.40002441406</ele>
        <time>2026-05-12T13:55:58.000Z</time>
      </trkpt>
      <trkpt lat="45.32275" lon="4.61394">
        <ele>591.40002441406</ele>
        <time>2026-05-12T13:55:59.000Z</time>
      </trkpt>
      <trkpt lat="45.32277" lon="4.61392">
        <ele>591.59997558594</ele>
        <time>2026-05-12T13:56:00.000Z</time>
      </trkpt>
      <trkpt lat="45.32279" lon="4.61389">
        <ele>591.59997558594</ele>
        <time>2026-05-12T13:56:01.000Z</time>
      </trkpt>
      <trkpt lat="45.32281" lon="4.61386">
        <ele>591.79998779297</ele>
        <time>2026-05-12T13:56:02.000Z</time>
      </trkpt>
      <trkpt lat="45.32284" lon="4.61384">
        <ele>591.79998779297</ele>
        <time>2026-05-12T13:56:03.000Z</time>
      </trkpt>
      <trkpt lat="45.32286" lon="4.61381">
        <ele>592</ele>
        <time>2026-05-12T13:56:04.000Z</time>
      </trkpt>
      <trkpt lat="45.32289" lon="4.61378">
        <ele>592.20001220703</ele>
        <time>2026-05-12T13:56:05.000Z</time>
      </trkpt>
      <trkpt lat="45.32291" lon="4.61375">
        <ele>592.40002441406</ele>
        <time>2026-05-12T13:56:06.000Z</time>
      </trkpt>
      <trkpt lat="45.32294" lon="4.61372">
        <ele>592.59997558594</ele>
        <time>2026-05-12T13:56:07.000Z</time>
      </trkpt>
      <trkpt lat="45.32295" lon="4.6137">
        <ele>593</ele>
        <time>2026-05-12T13:56:08.000Z</time>
      </trkpt>
      <trkpt lat="45.32298" lon="4.61367">
        <ele>593.20001220703</ele>
        <time>2026-05-12T13:56:09.000Z</time>
      </trkpt>
      <trkpt lat="45.323" lon="4.61365">
        <ele>593.40002441406</ele>
        <time>2026-05-12T13:56:10.000Z</time>
      </trkpt>
      <trkpt lat="45.32303" lon="4.61362">
        <ele>593.59997558594</ele>
        <time>2026-05-12T13:56:11.000Z</time>
      </trkpt>
      <trkpt lat="45.32305" lon="4.6136">
        <ele>593.79998779297</ele>
        <time>2026-05-12T13:56:12.000Z</time>
      </trkpt>
      <trkpt lat="45.32308" lon="4.61357">
        <ele>594</ele>
        <time>2026-05-12T13:56:13.000Z</time>
      </trkpt>
      <trkpt lat="45.3231" lon="4.61355">
        <ele>594.20001220703</ele>
        <time>2026-05-12T13:56:14.000Z</time>
      </trkpt>
      <trkpt lat="45.32312" lon="4.61353">
        <ele>594.40002441406</ele>
        <time>2026-05-12T13:56:15.000Z</time>
      </trkpt>
      <trkpt lat="45.32315" lon="4.61352">
        <ele>594.59997558594</ele>
        <time>2026-05-12T13:56:16.000Z</time>
      </trkpt>
      <trkpt lat="45.32318" lon="4.61349">
        <ele>594.79998779297</ele>
        <time>2026-05-12T13:56:17.000Z</time>
      </trkpt>
      <trkpt lat="45.3232" lon="4.61347">
        <ele>595</ele>
        <time>2026-05-12T13:56:18.000Z</time>
      </trkpt>
      <trkpt lat="45.32322" lon="4.61344">
        <ele>595.20001220703</ele>
        <time>2026-05-12T13:56:19.000Z</time>
      </trkpt>
      <trkpt lat="45.32325" lon="4.61342">
        <ele>595.20001220703</ele>
        <time>2026-05-12T13:56:20.000Z</time>
      </trkpt>
      <trkpt lat="45.32327" lon="4.61339">
        <ele>595.40002441406</ele>
        <time>2026-05-12T13:56:21.000Z</time>
      </trkpt>
      <trkpt lat="45.3233" lon="4.61336">
        <ele>595.40002441406</ele>
        <time>2026-05-12T13:56:22.000Z</time>
      </trkpt>
      <trkpt lat="45.32332" lon="4.61333">
        <ele>595.40002441406</ele>
        <time>2026-05-12T13:56:23.000Z</time>
      </trkpt>
      <trkpt lat="45.32335" lon="4.61331">
        <ele>595.59997558594</ele>
        <time>2026-05-12T13:56:24.000Z</time>
      </trkpt>
      <trkpt lat="45.32337" lon="4.61328">
        <ele>595.79998779297</ele>
        <time>2026-05-12T13:56:25.000Z</time>
      </trkpt>
      <trkpt lat="45.3234" lon="4.61326">
        <ele>596</ele>
        <time>2026-05-12T13:56:26.000Z</time>
      </trkpt>
      <trkpt lat="45.32342" lon="4.61324">
        <ele>596.20001220703</ele>
        <time>2026-05-12T13:56:27.000Z</time>
      </trkpt>
      <trkpt lat="45.32344" lon="4.61321">
        <ele>596.40002441406</ele>
        <time>2026-05-12T13:56:28.000Z</time>
      </trkpt>
      <trkpt lat="45.32347" lon="4.61319">
        <ele>596.59997558594</ele>
        <time>2026-05-12T13:56:29.000Z</time>
      </trkpt>
      <trkpt lat="45.32349" lon="4.61316">
        <ele>596.59997558594</ele>
        <time>2026-05-12T13:56:30.000Z</time>
      </trkpt>
      <trkpt lat="45.32351" lon="4.61314">
        <ele>596.79998779297</ele>
        <time>2026-05-12T13:56:31.000Z</time>
      </trkpt>
      <trkpt lat="45.32353" lon="4.61312">
        <ele>597</ele>
        <time>2026-05-12T13:56:32.000Z</time>
      </trkpt>
      <trkpt lat="45.32356" lon="4.61309">
        <ele>597.20001220703</ele>
        <time>2026-05-12T13:56:33.000Z</time>
      </trkpt>
      <trkpt lat="45.32358" lon="4.61306">
        <ele>597.40002441406</ele>
        <time>2026-05-12T13:56:34.000Z</time>
      </trkpt>
      <trkpt lat="45.3236" lon="4.61304">
        <ele>597.59997558594</ele>
        <time>2026-05-12T13:56:35.000Z</time>
      </trkpt>
      <trkpt lat="45.32362" lon="4.61302">
        <ele>597.79998779297</ele>
        <time>2026-05-12T13:56:36.000Z</time>
      </trkpt>
      <trkpt lat="45.32364" lon="4.61299">
        <ele>598</ele>
        <time>2026-05-12T13:56:37.000Z</time>
      </trkpt>
      <trkpt lat="45.32366" lon="4.61297">
        <ele>598.20001220703</ele>
        <time>2026-05-12T13:56:38.000Z</time>
      </trkpt>
      <trkpt lat="45.32368" lon="4.61294">
        <ele>598.40002441406</ele>
        <time>2026-05-12T13:56:39.000Z</time>
      </trkpt>
      <trkpt lat="45.3237" lon="4.61292">
        <ele>598.59997558594</ele>
        <time>2026-05-12T13:56:40.000Z</time>
      </trkpt>
      <trkpt lat="45.32372" lon="4.61289">
        <ele>598.79998779297</ele>
        <time>2026-05-12T13:56:41.000Z</time>
      </trkpt>
      <trkpt lat="45.32375" lon="4.61287">
        <ele>599</ele>
        <time>2026-05-12T13:56:42.000Z</time>
      </trkpt>
      <trkpt lat="45.32378" lon="4.61286">
        <ele>599</ele>
        <time>2026-05-12T13:56:43.000Z</time>
      </trkpt>
      <trkpt lat="45.3238" lon="4.61284">
        <ele>599.20001220703</ele>
        <time>2026-05-12T13:56:44.000Z</time>
      </trkpt>
      <trkpt lat="45.32382" lon="4.61281">
        <ele>599.40002441406</ele>
        <time>2026-05-12T13:56:45.000Z</time>
      </trkpt>
      <trkpt lat="45.32385" lon="4.61279">
        <ele>599.59997558594</ele>
        <time>2026-05-12T13:56:46.000Z</time>
      </trkpt>
      <trkpt lat="45.32387" lon="4.61277">
        <ele>599.79998779297</ele>
        <time>2026-05-12T13:56:47.000Z</time>
      </trkpt>
      <trkpt lat="45.3239" lon="4.61274">
        <ele>599.79998779297</ele>
        <time>2026-05-12T13:56:48.000Z</time>
      </trkpt>
      <trkpt lat="45.32392" lon="4.61272">
        <ele>600</ele>
        <time>2026-05-12T13:56:49.000Z</time>
      </trkpt>
      <trkpt lat="45.32394" lon="4.61269">
        <ele>600.20001220703</ele>
        <time>2026-05-12T13:56:50.000Z</time>
      </trkpt>
      <trkpt lat="45.32397" lon="4.61267">
        <ele>600.20001220703</ele>
        <time>2026-05-12T13:56:51.000Z</time>
      </trkpt>
      <trkpt lat="45.32399" lon="4.61264">
        <ele>600.20001220703</ele>
        <time>2026-05-12T13:56:52.000Z</time>
      </trkpt>
      <trkpt lat="45.32401" lon="4.61262">
        <ele>600.40002441406</ele>
        <time>2026-05-12T13:56:53.000Z</time>
      </trkpt>
      <trkpt lat="45.32403" lon="4.61259">
        <ele>600.59997558594</ele>
        <time>2026-05-12T13:56:54.000Z</time>
      </trkpt>
      <trkpt lat="45.32406" lon="4.61257">
        <ele>600.79998779297</ele>
        <time>2026-05-12T13:56:55.000Z</time>
      </trkpt>
      <trkpt lat="45.32408" lon="4.61254">
        <ele>601</ele>
        <time>2026-05-12T13:56:56.000Z</time>
      </trkpt>
      <trkpt lat="45.3241" lon="4.61252">
        <ele>601</ele>
        <time>2026-05-12T13:56:57.000Z</time>
      </trkpt>
      <trkpt lat="45.32413" lon="4.61249">
        <ele>601</ele>
        <time>2026-05-12T13:56:58.000Z</time>
      </trkpt>
      <trkpt lat="45.32415" lon="4.61247">
        <ele>601</ele>
        <time>2026-05-12T13:56:59.000Z</time>
      </trkpt>
      <trkpt lat="45.32417" lon="4.61244">
        <ele>601.20001220703</ele>
        <time>2026-05-12T13:57:00.000Z</time>
      </trkpt>
      <trkpt lat="45.32419" lon="4.61241">
        <ele>601.20001220703</ele>
        <time>2026-05-12T13:57:01.000Z</time>
      </trkpt>
      <trkpt lat="45.32422" lon="4.61239">
        <ele>601.40002441406</ele>
        <time>2026-05-12T13:57:02.000Z</time>
      </trkpt>
      <trkpt lat="45.32424" lon="4.61236">
        <ele>601.59997558594</ele>
        <time>2026-05-12T13:57:03.000Z</time>
      </trkpt>
      <trkpt lat="45.32427" lon="4.61234">
        <ele>601.59997558594</ele>
        <time>2026-05-12T13:57:04.000Z</time>
      </trkpt>
      <trkpt lat="45.32429" lon="4.61231">
        <ele>601.79998779297</ele>
        <time>2026-05-12T13:57:05.000Z</time>
      </trkpt>
      <trkpt lat="45.32431" lon="4.61228">
        <ele>601.79998779297</ele>
        <time>2026-05-12T13:57:06.000Z</time>
      </trkpt>
      <trkpt lat="45.32433" lon="4.61225">
        <ele>601.79998779297</ele>
        <time>2026-05-12T13:57:07.000Z</time>
      </trkpt>
      <trkpt lat="45.32436" lon="4.61222">
        <ele>602</ele>
        <time>2026-05-12T13:57:08.000Z</time>
      </trkpt>
      <trkpt lat="45.32438" lon="4.61218">
        <ele>602</ele>
        <time>2026-05-12T13:57:09.000Z</time>
      </trkpt>
      <trkpt lat="45.3244" lon="4.61215">
        <ele>602</ele>
        <time>2026-05-12T13:57:10.000Z</time>
      </trkpt>
      <trkpt lat="45.32442" lon="4.61212">
        <ele>602.20001220703</ele>
        <time>2026-05-12T13:57:11.000Z</time>
      </trkpt>
      <trkpt lat="45.32444" lon="4.61209">
        <ele>602.20001220703</ele>
        <time>2026-05-12T13:57:12.000Z</time>
      </trkpt>
      <trkpt lat="45.32446" lon="4.61206">
        <ele>602.40002441406</ele>
        <time>2026-05-12T13:57:13.000Z</time>
      </trkpt>
      <trkpt lat="45.32448" lon="4.61203">
        <ele>602.59997558594</ele>
        <time>2026-05-12T13:57:14.000Z</time>
      </trkpt>
      <trkpt lat="45.3245" lon="4.612">
        <ele>602.79998779297</ele>
        <time>2026-05-12T13:57:15.000Z</time>
      </trkpt>
      <trkpt lat="45.32452" lon="4.61196">
        <ele>603</ele>
        <time>2026-05-12T13:57:16.000Z</time>
      </trkpt>
      <trkpt lat="45.32454" lon="4.61193">
        <ele>603.40002441406</ele>
        <time>2026-05-12T13:57:17.000Z</time>
      </trkpt>
      <trkpt lat="45.32456" lon="4.61191">
        <ele>603.59997558594</ele>
        <time>2026-05-12T13:57:18.000Z</time>
      </trkpt>
      <trkpt lat="45.32458" lon="4.61188">
        <ele>604</ele>
        <time>2026-05-12T13:57:19.000Z</time>
      </trkpt>
      <trkpt lat="45.3246" lon="4.61185">
        <ele>604.20001220703</ele>
        <time>2026-05-12T13:57:20.000Z</time>
      </trkpt>
      <trkpt lat="45.32462" lon="4.61182">
        <ele>604.20001220703</ele>
        <time>2026-05-12T13:57:21.000Z</time>
      </trkpt>
      <trkpt lat="45.32464" lon="4.6118">
        <ele>604.40002441406</ele>
        <time>2026-05-12T13:57:22.000Z</time>
      </trkpt>
      <trkpt lat="45.32466" lon="4.61177">
        <ele>604.59997558594</ele>
        <time>2026-05-12T13:57:23.000Z</time>
      </trkpt>
      <trkpt lat="45.32468" lon="4.61174">
        <ele>604.79998779297</ele>
        <time>2026-05-12T13:57:24.000Z</time>
      </trkpt>
      <trkpt lat="45.3247" lon="4.61171">
        <ele>605</ele>
        <time>2026-05-12T13:57:25.000Z</time>
      </trkpt>
      <trkpt lat="45.32472" lon="4.61169">
        <ele>605.20001220703</ele>
        <time>2026-05-12T13:57:26.000Z</time>
      </trkpt>
      <trkpt lat="45.32474" lon="4.61166">
        <ele>605.20001220703</ele>
        <time>2026-05-12T13:57:27.000Z</time>
      </trkpt>
      <trkpt lat="45.32475" lon="4.61164">
        <ele>605.40002441406</ele>
        <time>2026-05-12T13:57:28.000Z</time>
      </trkpt>
      <trkpt lat="45.32476" lon="4.61161">
        <ele>605.59997558594</ele>
        <time>2026-05-12T13:57:29.000Z</time>
      </trkpt>
      <trkpt lat="45.32479" lon="4.61158">
        <ele>605.79998779297</ele>
        <time>2026-05-12T13:57:30.000Z</time>
      </trkpt>
      <trkpt lat="45.3248" lon="4.61155">
        <ele>605.79998779297</ele>
        <time>2026-05-12T13:57:31.000Z</time>
      </trkpt>
      <trkpt lat="45.32482" lon="4.61151">
        <ele>606</ele>
        <time>2026-05-12T13:57:32.000Z</time>
      </trkpt>
      <trkpt lat="45.32484" lon="4.61148">
        <ele>606.20001220703</ele>
        <time>2026-05-12T13:57:33.000Z</time>
      </trkpt>
      <trkpt lat="45.32485" lon="4.61145">
        <ele>606.40002441406</ele>
        <time>2026-05-12T13:57:34.000Z</time>
      </trkpt>
      <trkpt lat="45.32486" lon="4.61142">
        <ele>606.59997558594</ele>
        <time>2026-05-12T13:57:35.000Z</time>
      </trkpt>
      <trkpt lat="45.32488" lon="4.61138">
        <ele>606.79998779297</ele>
        <time>2026-05-12T13:57:36.000Z</time>
      </trkpt>
      <trkpt lat="45.32488" lon="4.61135">
        <ele>607</ele>
        <time>2026-05-12T13:57:37.000Z</time>
      </trkpt>
      <trkpt lat="45.32489" lon="4.61132">
        <ele>607.20001220703</ele>
        <time>2026-05-12T13:57:38.000Z</time>
      </trkpt>
      <trkpt lat="45.3249" lon="4.61128">
        <ele>607.40002441406</ele>
        <time>2026-05-12T13:57:39.000Z</time>
      </trkpt>
      <trkpt lat="45.3249" lon="4.61124">
        <ele>607.59997558594</ele>
        <time>2026-05-12T13:57:40.000Z</time>
      </trkpt>
      <trkpt lat="45.32491" lon="4.61121">
        <ele>607.79998779297</ele>
        <time>2026-05-12T13:57:41.000Z</time>
      </trkpt>
      <trkpt lat="45.3249" lon="4.61117">
        <ele>608</ele>
        <time>2026-05-12T13:57:42.000Z</time>
      </trkpt>
      <trkpt lat="45.3249" lon="4.61114">
        <ele>608.20001220703</ele>
        <time>2026-05-12T13:57:43.000Z</time>
      </trkpt>
      <trkpt lat="45.32489" lon="4.6111">
        <ele>608.40002441406</ele>
        <time>2026-05-12T13:57:44.000Z</time>
      </trkpt>
      <trkpt lat="45.32488" lon="4.61107">
        <ele>608.40002441406</ele>
        <time>2026-05-12T13:57:45.000Z</time>
      </trkpt>
      <trkpt lat="45.32486" lon="4.61105">
        <ele>608.59997558594</ele>
        <time>2026-05-12T13:57:46.000Z</time>
      </trkpt>
      <trkpt lat="45.32485" lon="4.61102">
        <ele>608.79998779297</ele>
        <time>2026-05-12T13:57:47.000Z</time>
      </trkpt>
      <trkpt lat="45.32483" lon="4.611">
        <ele>609</ele>
        <time>2026-05-12T13:57:48.000Z</time>
      </trkpt>
      <trkpt lat="45.32482" lon="4.61098">
        <ele>609.20001220703</ele>
        <time>2026-05-12T13:57:49.000Z</time>
      </trkpt>
      <trkpt lat="45.32481" lon="4.61096">
        <ele>609.40002441406</ele>
        <time>2026-05-12T13:57:50.000Z</time>
      </trkpt>
      <trkpt lat="45.3248" lon="4.61094">
        <ele>609.59997558594</ele>
        <time>2026-05-12T13:57:51.000Z</time>
      </trkpt>
      <trkpt lat="45.3248" lon="4.61091">
        <ele>609.79998779297</ele>
        <time>2026-05-12T13:57:52.000Z</time>
      </trkpt>
      <trkpt lat="45.32479" lon="4.61088">
        <ele>610</ele>
        <time>2026-05-12T13:57:53.000Z</time>
      </trkpt>
      <trkpt lat="45.32478" lon="4.61086">
        <ele>610.20001220703</ele>
        <time>2026-05-12T13:57:54.000Z</time>
      </trkpt>
      <trkpt lat="45.32476" lon="4.61085">
        <ele>610.20001220703</ele>
        <time>2026-05-12T13:57:55.000Z</time>
      </trkpt>
      <trkpt lat="45.32474" lon="4.61084">
        <ele>610.40002441406</ele>
        <time>2026-05-12T13:57:56.000Z</time>
      </trkpt>
      <trkpt lat="45.32471" lon="4.61085">
        <ele>610.40002441406</ele>
        <time>2026-05-12T13:57:57.000Z</time>
      </trkpt>
      <trkpt lat="45.32468" lon="4.61085">
        <ele>610.40002441406</ele>
        <time>2026-05-12T13:57:58.000Z</time>
      </trkpt>
      <trkpt lat="45.32465" lon="4.61085">
        <ele>610.59997558594</ele>
        <time>2026-05-12T13:57:59.000Z</time>
      </trkpt>
      <trkpt lat="45.32462" lon="4.61085">
        <ele>610.79998779297</ele>
        <time>2026-05-12T13:58:00.000Z</time>
      </trkpt>
      <trkpt lat="45.32459" lon="4.61084">
        <ele>610.79998779297</ele>
        <time>2026-05-12T13:58:01.000Z</time>
      </trkpt>
      <trkpt lat="45.32456" lon="4.61083">
        <ele>611</ele>
        <time>2026-05-12T13:58:02.000Z</time>
      </trkpt>
      <trkpt lat="45.32453" lon="4.61082">
        <ele>611.20001220703</ele>
        <time>2026-05-12T13:58:03.000Z</time>
      </trkpt>
      <trkpt lat="45.3245" lon="4.61081">
        <ele>611.40002441406</ele>
        <time>2026-05-12T13:58:04.000Z</time>
      </trkpt>
      <trkpt lat="45.32448" lon="4.6108">
        <ele>611.59997558594</ele>
        <time>2026-05-12T13:58:05.000Z</time>
      </trkpt>
      <trkpt lat="45.32445" lon="4.6108">
        <ele>611.79998779297</ele>
        <time>2026-05-12T13:58:06.000Z</time>
      </trkpt>
      <trkpt lat="45.32441" lon="4.61079">
        <ele>612</ele>
        <time>2026-05-12T13:58:07.000Z</time>
      </trkpt>
      <trkpt lat="45.32438" lon="4.61079">
        <ele>612.20001220703</ele>
        <time>2026-05-12T13:58:08.000Z</time>
      </trkpt>
      <trkpt lat="45.32435" lon="4.61078">
        <ele>612.40002441406</ele>
        <time>2026-05-12T13:58:09.000Z</time>
      </trkpt>
      <trkpt lat="45.32432" lon="4.61077">
        <ele>612.59997558594</ele>
        <time>2026-05-12T13:58:10.000Z</time>
      </trkpt>
      <trkpt lat="45.32429" lon="4.61077">
        <ele>612.79998779297</ele>
        <time>2026-05-12T13:58:11.000Z</time>
      </trkpt>
      <trkpt lat="45.32426" lon="4.61076">
        <ele>613</ele>
        <time>2026-05-12T13:58:12.000Z</time>
      </trkpt>
      <trkpt lat="45.32423" lon="4.61075">
        <ele>613.20001220703</ele>
        <time>2026-05-12T13:58:13.000Z</time>
      </trkpt>
      <trkpt lat="45.3242" lon="4.61074">
        <ele>613.40002441406</ele>
        <time>2026-05-12T13:58:14.000Z</time>
      </trkpt>
      <trkpt lat="45.32417" lon="4.61073">
        <ele>613.59997558594</ele>
        <time>2026-05-12T13:58:15.000Z</time>
      </trkpt>
      <trkpt lat="45.32414" lon="4.61073">
        <ele>613.79998779297</ele>
        <time>2026-05-12T13:58:16.000Z</time>
      </trkpt>
      <trkpt lat="45.32412" lon="4.61072">
        <ele>614</ele>
        <time>2026-05-12T13:58:17.000Z</time>
      </trkpt>
      <trkpt lat="45.32409" lon="4.61072">
        <ele>614.20001220703</ele>
        <time>2026-05-12T13:58:18.000Z</time>
      </trkpt>
      <trkpt lat="45.32406" lon="4.61071">
        <ele>614.40002441406</ele>
        <time>2026-05-12T13:58:19.000Z</time>
      </trkpt>
      <trkpt lat="45.32403" lon="4.61071">
        <ele>614.59997558594</ele>
        <time>2026-05-12T13:58:20.000Z</time>
      </trkpt>
      <trkpt lat="45.324" lon="4.6107">
        <ele>614.79998779297</ele>
        <time>2026-05-12T13:58:21.000Z</time>
      </trkpt>
      <trkpt lat="45.32397" lon="4.61069">
        <ele>615</ele>
        <time>2026-05-12T13:58:22.000Z</time>
      </trkpt>
      <trkpt lat="45.32394" lon="4.61068">
        <ele>615.20001220703</ele>
        <time>2026-05-12T13:58:23.000Z</time>
      </trkpt>
      <trkpt lat="45.32391" lon="4.61067">
        <ele>615.40002441406</ele>
        <time>2026-05-12T13:58:24.000Z</time>
      </trkpt>
      <trkpt lat="45.32388" lon="4.61066">
        <ele>615.59997558594</ele>
        <time>2026-05-12T13:58:25.000Z</time>
      </trkpt>
      <trkpt lat="45.32385" lon="4.61065">
        <ele>615.79998779297</ele>
        <time>2026-05-12T13:58:26.000Z</time>
      </trkpt>
      <trkpt lat="45.32382" lon="4.61064">
        <ele>616</ele>
        <time>2026-05-12T13:58:27.000Z</time>
      </trkpt>
      <trkpt lat="45.3238" lon="4.61063">
        <ele>616.20001220703</ele>
        <time>2026-05-12T13:58:28.000Z</time>
      </trkpt>
      <trkpt lat="45.32377" lon="4.61062">
        <ele>616.40002441406</ele>
        <time>2026-05-12T13:58:29.000Z</time>
      </trkpt>
      <trkpt lat="45.32374" lon="4.6106">
        <ele>616.40002441406</ele>
        <time>2026-05-12T13:58:30.000Z</time>
      </trkpt>
      <trkpt lat="45.32371" lon="4.61059">
        <ele>616.59997558594</ele>
        <time>2026-05-12T13:58:31.000Z</time>
      </trkpt>
      <trkpt lat="45.32368" lon="4.61057">
        <ele>616.79998779297</ele>
        <time>2026-05-12T13:58:32.000Z</time>
      </trkpt>
      <trkpt lat="45.32365" lon="4.61055">
        <ele>617</ele>
        <time>2026-05-12T13:58:33.000Z</time>
      </trkpt>
      <trkpt lat="45.32362" lon="4.61053">
        <ele>617.20001220703</ele>
        <time>2026-05-12T13:58:34.000Z</time>
      </trkpt>
      <trkpt lat="45.32359" lon="4.61051">
        <ele>617.40002441406</ele>
        <time>2026-05-12T13:58:35.000Z</time>
      </trkpt>
      <trkpt lat="45.32357" lon="4.6105">
        <ele>617.59997558594</ele>
        <time>2026-05-12T13:58:36.000Z</time>
      </trkpt>
      <trkpt lat="45.32354" lon="4.61048">
        <ele>617.79998779297</ele>
        <time>2026-05-12T13:58:37.000Z</time>
      </trkpt>
      <trkpt lat="45.32351" lon="4.61047">
        <ele>618</ele>
        <time>2026-05-12T13:58:38.000Z</time>
      </trkpt>
      <trkpt lat="45.32349" lon="4.61046">
        <ele>618.20001220703</ele>
        <time>2026-05-12T13:58:39.000Z</time>
      </trkpt>
      <trkpt lat="45.32346" lon="4.61045">
        <ele>618.40002441406</ele>
        <time>2026-05-12T13:58:40.000Z</time>
      </trkpt>
      <trkpt lat="45.32343" lon="4.61043">
        <ele>618.59997558594</ele>
        <time>2026-05-12T13:58:41.000Z</time>
      </trkpt>
      <trkpt lat="45.3234" lon="4.61041">
        <ele>618.59997558594</ele>
        <time>2026-05-12T13:58:42.000Z</time>
      </trkpt>
      <trkpt lat="45.32338" lon="4.61039">
        <ele>618.79998779297</ele>
        <time>2026-05-12T13:58:43.000Z</time>
      </trkpt>
      <trkpt lat="45.32335" lon="4.61037">
        <ele>618.79998779297</ele>
        <time>2026-05-12T13:58:44.000Z</time>
      </trkpt>
      <trkpt lat="45.32332" lon="4.61035">
        <ele>619</ele>
        <time>2026-05-12T13:58:45.000Z</time>
      </trkpt>
      <trkpt lat="45.3233" lon="4.61033">
        <ele>619.20001220703</ele>
        <time>2026-05-12T13:58:46.000Z</time>
      </trkpt>
      <trkpt lat="45.32327" lon="4.61031">
        <ele>619.40002441406</ele>
        <time>2026-05-12T13:58:47.000Z</time>
      </trkpt>
      <trkpt lat="45.32325" lon="4.61028">
        <ele>619.59997558594</ele>
        <time>2026-05-12T13:58:48.000Z</time>
      </trkpt>
      <trkpt lat="45.32323" lon="4.61025">
        <ele>619.59997558594</ele>
        <time>2026-05-12T13:58:49.000Z</time>
      </trkpt>
      <trkpt lat="45.32321" lon="4.61023">
        <ele>619.79998779297</ele>
        <time>2026-05-12T13:58:50.000Z</time>
      </trkpt>
      <trkpt lat="45.32319" lon="4.6102">
        <ele>620</ele>
        <time>2026-05-12T13:58:51.000Z</time>
      </trkpt>
      <trkpt lat="45.32317" lon="4.61016">
        <ele>620</ele>
        <time>2026-05-12T13:58:52.000Z</time>
      </trkpt>
      <trkpt lat="45.32315" lon="4.61013">
        <ele>620.20001220703</ele>
        <time>2026-05-12T13:58:53.000Z</time>
      </trkpt>
      <trkpt lat="45.32314" lon="4.61009">
        <ele>620.40002441406</ele>
        <time>2026-05-12T13:58:54.000Z</time>
      </trkpt>
      <trkpt lat="45.32313" lon="4.61005">
        <ele>620.59997558594</ele>
        <time>2026-05-12T13:58:55.000Z</time>
      </trkpt>
      <trkpt lat="45.32312" lon="4.61001">
        <ele>620.79998779297</ele>
        <time>2026-05-12T13:58:56.000Z</time>
      </trkpt>
      <trkpt lat="45.3231" lon="4.60998">
        <ele>621</ele>
        <time>2026-05-12T13:58:57.000Z</time>
      </trkpt>
      <trkpt lat="45.32309" lon="4.60994">
        <ele>621.20001220703</ele>
        <time>2026-05-12T13:58:58.000Z</time>
      </trkpt>
      <trkpt lat="45.32309" lon="4.6099">
        <ele>621.59997558594</ele>
        <time>2026-05-12T13:58:59.000Z</time>
      </trkpt>
      <trkpt lat="45.32308" lon="4.60986">
        <ele>621.79998779297</ele>
        <time>2026-05-12T13:59:00.000Z</time>
      </trkpt>
      <trkpt lat="45.32308" lon="4.60982">
        <ele>622</ele>
        <time>2026-05-12T13:59:01.000Z</time>
      </trkpt>
      <trkpt lat="45.32308" lon="4.60978">
        <ele>622.40002441406</ele>
        <time>2026-05-12T13:59:02.000Z</time>
      </trkpt>
      <trkpt lat="45.32307" lon="4.60974">
        <ele>622.59997558594</ele>
        <time>2026-05-12T13:59:03.000Z</time>
      </trkpt>
      <trkpt lat="45.32307" lon="4.60969">
        <ele>622.79998779297</ele>
        <time>2026-05-12T13:59:04.000Z</time>
      </trkpt>
      <trkpt lat="45.32307" lon="4.60965">
        <ele>623</ele>
        <time>2026-05-12T13:59:05.000Z</time>
      </trkpt>
      <trkpt lat="45.32307" lon="4.60961">
        <ele>623.40002441406</ele>
        <time>2026-05-12T13:59:06.000Z</time>
      </trkpt>
      <trkpt lat="45.32308" lon="4.60958">
        <ele>623.59997558594</ele>
        <time>2026-05-12T13:59:07.000Z</time>
      </trkpt>
      <trkpt lat="45.32309" lon="4.60954">
        <ele>623.79998779297</ele>
        <time>2026-05-12T13:59:08.000Z</time>
      </trkpt>
      <trkpt lat="45.3231" lon="4.6095">
        <ele>624.20001220703</ele>
        <time>2026-05-12T13:59:09.000Z</time>
      </trkpt>
      <trkpt lat="45.32312" lon="4.60946">
        <ele>624.40002441406</ele>
        <time>2026-05-12T13:59:10.000Z</time>
      </trkpt>
      <trkpt lat="45.32313" lon="4.60943">
        <ele>624.59997558594</ele>
        <time>2026-05-12T13:59:11.000Z</time>
      </trkpt>
      <trkpt lat="45.32315" lon="4.60939">
        <ele>624.79998779297</ele>
        <time>2026-05-12T13:59:12.000Z</time>
      </trkpt>
      <trkpt lat="45.32316" lon="4.60936">
        <ele>625.20001220703</ele>
        <time>2026-05-12T13:59:13.000Z</time>
      </trkpt>
      <trkpt lat="45.32318" lon="4.60932">
        <ele>625.40002441406</ele>
        <time>2026-05-12T13:59:14.000Z</time>
      </trkpt>
      <trkpt lat="45.32319" lon="4.60929">
        <ele>625.59997558594</ele>
        <time>2026-05-12T13:59:15.000Z</time>
      </trkpt>
      <trkpt lat="45.32321" lon="4.60925">
        <ele>626</ele>
        <time>2026-05-12T13:59:16.000Z</time>
      </trkpt>
      <trkpt lat="45.32323" lon="4.60922">
        <ele>626.40002441406</ele>
        <time>2026-05-12T13:59:17.000Z</time>
      </trkpt>
      <trkpt lat="45.32325" lon="4.60919">
        <ele>626.59997558594</ele>
        <time>2026-05-12T13:59:18.000Z</time>
      </trkpt>
      <trkpt lat="45.32326" lon="4.60915">
        <ele>626.79998779297</ele>
        <time>2026-05-12T13:59:19.000Z</time>
      </trkpt>
      <trkpt lat="45.32328" lon="4.60912">
        <ele>627</ele>
        <time>2026-05-12T13:59:20.000Z</time>
      </trkpt>
      <trkpt lat="45.3233" lon="4.60908">
        <ele>627.40002441406</ele>
        <time>2026-05-12T13:59:21.000Z</time>
      </trkpt>
      <trkpt lat="45.32332" lon="4.60904">
        <ele>627.59997558594</ele>
        <time>2026-05-12T13:59:22.000Z</time>
      </trkpt>
      <trkpt lat="45.32333" lon="4.60901">
        <ele>627.79998779297</ele>
        <time>2026-05-12T13:59:23.000Z</time>
      </trkpt>
      <trkpt lat="45.32335" lon="4.60897">
        <ele>628</ele>
        <time>2026-05-12T13:59:24.000Z</time>
      </trkpt>
      <trkpt lat="45.32337" lon="4.60894">
        <ele>628.20001220703</ele>
        <time>2026-05-12T13:59:25.000Z</time>
      </trkpt>
      <trkpt lat="45.32339" lon="4.6089">
        <ele>628.59997558594</ele>
        <time>2026-05-12T13:59:26.000Z</time>
      </trkpt>
      <trkpt lat="45.3234" lon="4.60887">
        <ele>628.79998779297</ele>
        <time>2026-05-12T13:59:27.000Z</time>
      </trkpt>
      <trkpt lat="45.32342" lon="4.60884">
        <ele>629</ele>
        <time>2026-05-12T13:59:28.000Z</time>
      </trkpt>
      <trkpt lat="45.32344" lon="4.6088">
        <ele>629.20001220703</ele>
        <time>2026-05-12T13:59:29.000Z</time>
      </trkpt>
      <trkpt lat="45.32346" lon="4.60877">
        <ele>629.40002441406</ele>
        <time>2026-05-12T13:59:30.000Z</time>
      </trkpt>
      <trkpt lat="45.32348" lon="4.60873">
        <ele>629.59997558594</ele>
        <time>2026-05-12T13:59:31.000Z</time>
      </trkpt>
      <trkpt lat="45.32349" lon="4.6087">
        <ele>629.79998779297</ele>
        <time>2026-05-12T13:59:32.000Z</time>
      </trkpt>
      <trkpt lat="45.32351" lon="4.60866">
        <ele>630</ele>
        <time>2026-05-12T13:59:33.000Z</time>
      </trkpt>
      <trkpt lat="45.32353" lon="4.60863">
        <ele>630.20001220703</ele>
        <time>2026-05-12T13:59:34.000Z</time>
      </trkpt>
      <trkpt lat="45.32355" lon="4.60859">
        <ele>630.40002441406</ele>
        <time>2026-05-12T13:59:35.000Z</time>
      </trkpt>
      <trkpt lat="45.32357" lon="4.60856">
        <ele>630.79998779297</ele>
        <time>2026-05-12T13:59:36.000Z</time>
      </trkpt>
      <trkpt lat="45.32359" lon="4.60853">
        <ele>631</ele>
        <time>2026-05-12T13:59:37.000Z</time>
      </trkpt>
      <trkpt lat="45.32361" lon="4.6085">
        <ele>631.20001220703</ele>
        <time>2026-05-12T13:59:38.000Z</time>
      </trkpt>
      <trkpt lat="45.32363" lon="4.60847">
        <ele>631.40002441406</ele>
        <time>2026-05-12T13:59:39.000Z</time>
      </trkpt>
      <trkpt lat="45.32366" lon="4.60844">
        <ele>631.59997558594</ele>
        <time>2026-05-12T13:59:40.000Z</time>
      </trkpt>
      <trkpt lat="45.32368" lon="4.60841">
        <ele>632</ele>
        <time>2026-05-12T13:59:41.000Z</time>
      </trkpt>
      <trkpt lat="45.3237" lon="4.60838">
        <ele>632.20001220703</ele>
        <time>2026-05-12T13:59:42.000Z</time>
      </trkpt>
      <trkpt lat="45.32372" lon="4.60835">
        <ele>632.40002441406</ele>
        <time>2026-05-12T13:59:43.000Z</time>
      </trkpt>
      <trkpt lat="45.32375" lon="4.60832">
        <ele>632.59997558594</ele>
        <time>2026-05-12T13:59:44.000Z</time>
      </trkpt>
      <trkpt lat="45.32377" lon="4.6083">
        <ele>632.79998779297</ele>
        <time>2026-05-12T13:59:45.000Z</time>
      </trkpt>
      <trkpt lat="45.3238" lon="4.60827">
        <ele>633</ele>
        <time>2026-05-12T13:59:46.000Z</time>
      </trkpt>
      <trkpt lat="45.32382" lon="4.60825">
        <ele>633.40002441406</ele>
        <time>2026-05-12T13:59:47.000Z</time>
      </trkpt>
      <trkpt lat="45.32385" lon="4.60823">
        <ele>633.59997558594</ele>
        <time>2026-05-12T13:59:48.000Z</time>
      </trkpt>
      <trkpt lat="45.32388" lon="4.60821">
        <ele>633.79998779297</ele>
        <time>2026-05-12T13:59:49.000Z</time>
      </trkpt>
      <trkpt lat="45.3239" lon="4.60818">
        <ele>634</ele>
        <time>2026-05-12T13:59:50.000Z</time>
      </trkpt>
      <trkpt lat="45.32393" lon="4.60816">
        <ele>634.20001220703</ele>
        <time>2026-05-12T13:59:51.000Z</time>
      </trkpt>
      <trkpt lat="45.32396" lon="4.60814">
        <ele>634.40002441406</ele>
        <time>2026-05-12T13:59:52.000Z</time>
      </trkpt>
      <trkpt lat="45.32399" lon="4.60812">
        <ele>634.59997558594</ele>
        <time>2026-05-12T13:59:53.000Z</time>
      </trkpt>
      <trkpt lat="45.32401" lon="4.6081">
        <ele>634.59997558594</ele>
        <time>2026-05-12T13:59:54.000Z</time>
      </trkpt>
      <trkpt lat="45.32404" lon="4.60808">
        <ele>634.79998779297</ele>
        <time>2026-05-12T13:59:55.000Z</time>
      </trkpt>
      <trkpt lat="45.32407" lon="4.60806">
        <ele>635</ele>
        <time>2026-05-12T13:59:56.000Z</time>
      </trkpt>
      <trkpt lat="45.3241" lon="4.60803">
        <ele>635.20001220703</ele>
        <time>2026-05-12T13:59:57.000Z</time>
      </trkpt>
      <trkpt lat="45.32413" lon="4.60801">
        <ele>635.40002441406</ele>
        <time>2026-05-12T13:59:58.000Z</time>
      </trkpt>
      <trkpt lat="45.32415" lon="4.60799">
        <ele>635.59997558594</ele>
        <time>2026-05-12T13:59:59.000Z</time>
      </trkpt>
      <trkpt lat="45.32418" lon="4.60797">
        <ele>635.79998779297</ele>
        <time>2026-05-12T14:00:00.000Z</time>
      </trkpt>
      <trkpt lat="45.32421" lon="4.60795">
        <ele>636.20001220703</ele>
        <time>2026-05-12T14:00:01.000Z</time>
      </trkpt>
      <trkpt lat="45.32423" lon="4.60794">
        <ele>636.40002441406</ele>
        <time>2026-05-12T14:00:02.000Z</time>
      </trkpt>
      <trkpt lat="45.32426" lon="4.60792">
        <ele>636.59997558594</ele>
        <time>2026-05-12T14:00:03.000Z</time>
      </trkpt>
      <trkpt lat="45.32429" lon="4.60791">
        <ele>636.79998779297</ele>
        <time>2026-05-12T14:00:04.000Z</time>
      </trkpt>
      <trkpt lat="45.32432" lon="4.60789">
        <ele>637</ele>
        <time>2026-05-12T14:00:05.000Z</time>
      </trkpt>
      <trkpt lat="45.32435" lon="4.60788">
        <ele>637.20001220703</ele>
        <time>2026-05-12T14:00:06.000Z</time>
      </trkpt>
      <trkpt lat="45.32437" lon="4.60787">
        <ele>637.40002441406</ele>
        <time>2026-05-12T14:00:07.000Z</time>
      </trkpt>
      <trkpt lat="45.3244" lon="4.60785">
        <ele>637.59997558594</ele>
        <time>2026-05-12T14:00:08.000Z</time>
      </trkpt>
      <trkpt lat="45.32442" lon="4.60784">
        <ele>637.79998779297</ele>
        <time>2026-05-12T14:00:09.000Z</time>
      </trkpt>
      <trkpt lat="45.32445" lon="4.60782">
        <ele>638.20001220703</ele>
        <time>2026-05-12T14:00:10.000Z</time>
      </trkpt>
      <trkpt lat="45.32447" lon="4.60781">
        <ele>638.40002441406</ele>
        <time>2026-05-12T14:00:11.000Z</time>
      </trkpt>
      <trkpt lat="45.3245" lon="4.6078">
        <ele>638.79998779297</ele>
        <time>2026-05-12T14:00:12.000Z</time>
      </trkpt>
      <trkpt lat="45.32453" lon="4.60779">
        <ele>639</ele>
        <time>2026-05-12T14:00:13.000Z</time>
      </trkpt>
      <trkpt lat="45.32456" lon="4.60778">
        <ele>639.20001220703</ele>
        <time>2026-05-12T14:00:14.000Z</time>
      </trkpt>
      <trkpt lat="45.32458" lon="4.60777">
        <ele>639.59997558594</ele>
        <time>2026-05-12T14:00:15.000Z</time>
      </trkpt>
      <trkpt lat="45.32461" lon="4.60776">
        <ele>639.59997558594</ele>
        <time>2026-05-12T14:00:16.000Z</time>
      </trkpt>
      <trkpt lat="45.32464" lon="4.60774">
        <ele>639.79998779297</ele>
        <time>2026-05-12T14:00:17.000Z</time>
      </trkpt>
      <trkpt lat="45.32467" lon="4.60773">
        <ele>640</ele>
        <time>2026-05-12T14:00:18.000Z</time>
      </trkpt>
      <trkpt lat="45.32469" lon="4.60772">
        <ele>640.20001220703</ele>
        <time>2026-05-12T14:00:19.000Z</time>
      </trkpt>
      <trkpt lat="45.32472" lon="4.60771">
        <ele>640.20001220703</ele>
        <time>2026-05-12T14:00:20.000Z</time>
      </trkpt>
      <trkpt lat="45.32475" lon="4.6077">
        <ele>640.40002441406</ele>
        <time>2026-05-12T14:00:21.000Z</time>
      </trkpt>
      <trkpt lat="45.32478" lon="4.6077">
        <ele>640.59997558594</ele>
        <time>2026-05-12T14:00:22.000Z</time>
      </trkpt>
      <trkpt lat="45.3248" lon="4.60769">
        <ele>640.79998779297</ele>
        <time>2026-05-12T14:00:23.000Z</time>
      </trkpt>
      <trkpt lat="45.32483" lon="4.60768">
        <ele>641</ele>
        <time>2026-05-12T14:00:24.000Z</time>
      </trkpt>
      <trkpt lat="45.32486" lon="4.60767">
        <ele>641.20001220703</ele>
        <time>2026-05-12T14:00:25.000Z</time>
      </trkpt>
      <trkpt lat="45.32489" lon="4.60767">
        <ele>641.20001220703</ele>
        <time>2026-05-12T14:00:26.000Z</time>
      </trkpt>
      <trkpt lat="45.32492" lon="4.60766">
        <ele>641.59997558594</ele>
        <time>2026-05-12T14:00:27.000Z</time>
      </trkpt>
      <trkpt lat="45.32494" lon="4.60765">
        <ele>641.79998779297</ele>
        <time>2026-05-12T14:00:28.000Z</time>
      </trkpt>
      <trkpt lat="45.32497" lon="4.60764">
        <ele>642</ele>
        <time>2026-05-12T14:00:29.000Z</time>
      </trkpt>
      <trkpt lat="45.325" lon="4.60764">
        <ele>642.20001220703</ele>
        <time>2026-05-12T14:00:30.000Z</time>
      </trkpt>
      <trkpt lat="45.32503" lon="4.60763">
        <ele>642.40002441406</ele>
        <time>2026-05-12T14:00:31.000Z</time>
      </trkpt>
      <trkpt lat="45.32506" lon="4.60763">
        <ele>642.59997558594</ele>
        <time>2026-05-12T14:00:32.000Z</time>
      </trkpt>
      <trkpt lat="45.32509" lon="4.60763">
        <ele>642.59997558594</ele>
        <time>2026-05-12T14:00:33.000Z</time>
      </trkpt>
      <trkpt lat="45.32512" lon="4.60763">
        <ele>642.79998779297</ele>
        <time>2026-05-12T14:00:34.000Z</time>
      </trkpt>
      <trkpt lat="45.32515" lon="4.60763">
        <ele>643</ele>
        <time>2026-05-12T14:00:35.000Z</time>
      </trkpt>
      <trkpt lat="45.32518" lon="4.60763">
        <ele>643.20001220703</ele>
        <time>2026-05-12T14:00:36.000Z</time>
      </trkpt>
      <trkpt lat="45.3252" lon="4.60763">
        <ele>643.40002441406</ele>
        <time>2026-05-12T14:00:37.000Z</time>
      </trkpt>
      <trkpt lat="45.32524" lon="4.60764">
        <ele>643.59997558594</ele>
        <time>2026-05-12T14:00:38.000Z</time>
      </trkpt>
      <trkpt lat="45.32527" lon="4.60764">
        <ele>643.79998779297</ele>
        <time>2026-05-12T14:00:39.000Z</time>
      </trkpt>
      <trkpt lat="45.3253" lon="4.60765">
        <ele>644</ele>
        <time>2026-05-12T14:00:40.000Z</time>
      </trkpt>
      <trkpt lat="45.32533" lon="4.60765">
        <ele>644.20001220703</ele>
        <time>2026-05-12T14:00:41.000Z</time>
      </trkpt>
      <trkpt lat="45.32535" lon="4.60765">
        <ele>644.40002441406</ele>
        <time>2026-05-12T14:00:42.000Z</time>
      </trkpt>
      <trkpt lat="45.32538" lon="4.60766">
        <ele>644.59997558594</ele>
        <time>2026-05-12T14:00:43.000Z</time>
      </trkpt>
      <trkpt lat="45.32541" lon="4.60766">
        <ele>644.79998779297</ele>
        <time>2026-05-12T14:00:44.000Z</time>
      </trkpt>
      <trkpt lat="45.32543" lon="4.60767">
        <ele>645.20001220703</ele>
        <time>2026-05-12T14:00:45.000Z</time>
      </trkpt>
      <trkpt lat="45.32546" lon="4.60767">
        <ele>645.40002441406</ele>
        <time>2026-05-12T14:00:46.000Z</time>
      </trkpt>
      <trkpt lat="45.32549" lon="4.60768">
        <ele>645.59997558594</ele>
        <time>2026-05-12T14:00:47.000Z</time>
      </trkpt>
      <trkpt lat="45.32552" lon="4.60768">
        <ele>645.79998779297</ele>
        <time>2026-05-12T14:00:48.000Z</time>
      </trkpt>
      <trkpt lat="45.32555" lon="4.60769">
        <ele>646</ele>
        <time>2026-05-12T14:00:49.000Z</time>
      </trkpt>
      <trkpt lat="45.32557" lon="4.60769">
        <ele>646.20001220703</ele>
        <time>2026-05-12T14:00:50.000Z</time>
      </trkpt>
      <trkpt lat="45.3256" lon="4.60769">
        <ele>646.20001220703</ele>
        <time>2026-05-12T14:00:51.000Z</time>
      </trkpt>
      <trkpt lat="45.32563" lon="4.60769">
        <ele>646.40002441406</ele>
        <time>2026-05-12T14:00:52.000Z</time>
      </trkpt>
      <trkpt lat="45.32566" lon="4.60768">
        <ele>646.59997558594</ele>
        <time>2026-05-12T14:00:53.000Z</time>
      </trkpt>
      <trkpt lat="45.32569" lon="4.60768">
        <ele>646.79998779297</ele>
        <time>2026-05-12T14:00:54.000Z</time>
      </trkpt>
      <trkpt lat="45.32571" lon="4.60767">
        <ele>647</ele>
        <time>2026-05-12T14:00:55.000Z</time>
      </trkpt>
      <trkpt lat="45.32574" lon="4.60766">
        <ele>647.20001220703</ele>
        <time>2026-05-12T14:00:56.000Z</time>
      </trkpt>
      <trkpt lat="45.32577" lon="4.60765">
        <ele>647.40002441406</ele>
        <time>2026-05-12T14:00:57.000Z</time>
      </trkpt>
      <trkpt lat="45.3258" lon="4.60764">
        <ele>647.59997558594</ele>
        <time>2026-05-12T14:00:58.000Z</time>
      </trkpt>
      <trkpt lat="45.32583" lon="4.60763">
        <ele>647.79998779297</ele>
        <time>2026-05-12T14:00:59.000Z</time>
      </trkpt>
      <trkpt lat="45.32585" lon="4.60761">
        <ele>648</ele>
        <time>2026-05-12T14:01:00.000Z</time>
      </trkpt>
      <trkpt lat="45.32588" lon="4.60759">
        <ele>648.20001220703</ele>
        <time>2026-05-12T14:01:01.000Z</time>
      </trkpt>
      <trkpt lat="45.32591" lon="4.60757">
        <ele>648.40002441406</ele>
        <time>2026-05-12T14:01:02.000Z</time>
      </trkpt>
      <trkpt lat="45.32594" lon="4.60754">
        <ele>648.79998779297</ele>
        <time>2026-05-12T14:01:03.000Z</time>
      </trkpt>
      <trkpt lat="45.32597" lon="4.60752">
        <ele>649</ele>
        <time>2026-05-12T14:01:04.000Z</time>
      </trkpt>
      <trkpt lat="45.32599" lon="4.6075">
        <ele>649.20001220703</ele>
        <time>2026-05-12T14:01:05.000Z</time>
      </trkpt>
      <trkpt lat="45.32602" lon="4.60748">
        <ele>649.40002441406</ele>
        <time>2026-05-12T14:01:06.000Z</time>
      </trkpt>
      <trkpt lat="45.32604" lon="4.60746">
        <ele>649.59997558594</ele>
        <time>2026-05-12T14:01:07.000Z</time>
      </trkpt>
      <trkpt lat="45.32607" lon="4.60744">
        <ele>649.79998779297</ele>
        <time>2026-05-12T14:01:08.000Z</time>
      </trkpt>
      <trkpt lat="45.3261" lon="4.60741">
        <ele>650</ele>
        <time>2026-05-12T14:01:09.000Z</time>
      </trkpt>
      <trkpt lat="45.32612" lon="4.60739">
        <ele>650.40002441406</ele>
        <time>2026-05-12T14:01:10.000Z</time>
      </trkpt>
      <trkpt lat="45.32614" lon="4.60737">
        <ele>650.59997558594</ele>
        <time>2026-05-12T14:01:11.000Z</time>
      </trkpt>
      <trkpt lat="45.32617" lon="4.60734">
        <ele>650.79998779297</ele>
        <time>2026-05-12T14:01:12.000Z</time>
      </trkpt>
      <trkpt lat="45.3262" lon="4.60731">
        <ele>651</ele>
        <time>2026-05-12T14:01:13.000Z</time>
      </trkpt>
      <trkpt lat="45.32622" lon="4.60728">
        <ele>651.20001220703</ele>
        <time>2026-05-12T14:01:14.000Z</time>
      </trkpt>
      <trkpt lat="45.32623" lon="4.60725">
        <ele>651.40002441406</ele>
        <time>2026-05-12T14:01:15.000Z</time>
      </trkpt>
      <trkpt lat="45.32625" lon="4.60721">
        <ele>651.59997558594</ele>
        <time>2026-05-12T14:01:16.000Z</time>
      </trkpt>
      <trkpt lat="45.32627" lon="4.60718">
        <ele>651.79998779297</ele>
        <time>2026-05-12T14:01:17.000Z</time>
      </trkpt>
      <trkpt lat="45.32629" lon="4.60713">
        <ele>652.20001220703</ele>
        <time>2026-05-12T14:01:18.000Z</time>
      </trkpt>
      <trkpt lat="45.3263" lon="4.60709">
        <ele>652.40002441406</ele>
        <time>2026-05-12T14:01:19.000Z</time>
      </trkpt>
      <trkpt lat="45.32631" lon="4.60705">
        <ele>652.79998779297</ele>
        <time>2026-05-12T14:01:20.000Z</time>
      </trkpt>
      <trkpt lat="45.32632" lon="4.60701">
        <ele>653</ele>
        <time>2026-05-12T14:01:21.000Z</time>
      </trkpt>
      <trkpt lat="45.32633" lon="4.60697">
        <ele>653.20001220703</ele>
        <time>2026-05-12T14:01:22.000Z</time>
      </trkpt>
      <trkpt lat="45.32634" lon="4.60693">
        <ele>653.40002441406</ele>
        <time>2026-05-12T14:01:23.000Z</time>
      </trkpt>
      <trkpt lat="45.32635" lon="4.60688">
        <ele>653.59997558594</ele>
        <time>2026-05-12T14:01:24.000Z</time>
      </trkpt>
      <trkpt lat="45.32635" lon="4.60684">
        <ele>654</ele>
        <time>2026-05-12T14:01:25.000Z</time>
      </trkpt>
      <trkpt lat="45.32636" lon="4.6068">
        <ele>654.20001220703</ele>
        <time>2026-05-12T14:01:26.000Z</time>
      </trkpt>
      <trkpt lat="45.32637" lon="4.60675">
        <ele>654.40002441406</ele>
        <time>2026-05-12T14:01:27.000Z</time>
      </trkpt>
      <trkpt lat="45.32637" lon="4.60672">
        <ele>654.59997558594</ele>
        <time>2026-05-12T14:01:28.000Z</time>
      </trkpt>
      <trkpt lat="45.32637" lon="4.60668">
        <ele>654.79998779297</ele>
        <time>2026-05-12T14:01:29.000Z</time>
      </trkpt>
      <trkpt lat="45.32637" lon="4.60663">
        <ele>655</ele>
        <time>2026-05-12T14:01:30.000Z</time>
      </trkpt>
      <trkpt lat="45.32637" lon="4.60659">
        <ele>655.20001220703</ele>
        <time>2026-05-12T14:01:31.000Z</time>
      </trkpt>
      <trkpt lat="45.32638" lon="4.60654">
        <ele>655.40002441406</ele>
        <time>2026-05-12T14:01:32.000Z</time>
      </trkpt>
      <trkpt lat="45.32638" lon="4.6065">
        <ele>655.59997558594</ele>
        <time>2026-05-12T14:01:33.000Z</time>
      </trkpt>
      <trkpt lat="45.32638" lon="4.60646">
        <ele>655.79998779297</ele>
        <time>2026-05-12T14:01:34.000Z</time>
      </trkpt>
      <trkpt lat="45.32637" lon="4.60641">
        <ele>656</ele>
        <time>2026-05-12T14:01:35.000Z</time>
      </trkpt>
      <trkpt lat="45.32637" lon="4.60636">
        <ele>656.20001220703</ele>
        <time>2026-05-12T14:01:36.000Z</time>
      </trkpt>
      <trkpt lat="45.32637" lon="4.60632">
        <ele>656.40002441406</ele>
        <time>2026-05-12T14:01:37.000Z</time>
      </trkpt>
      <trkpt lat="45.32637" lon="4.60627">
        <ele>656.59997558594</ele>
        <time>2026-05-12T14:01:38.000Z</time>
      </trkpt>
      <trkpt lat="45.32637" lon="4.60623">
        <ele>656.79998779297</ele>
        <time>2026-05-12T14:01:39.000Z</time>
      </trkpt>
      <trkpt lat="45.32638" lon="4.60619">
        <ele>657</ele>
        <time>2026-05-12T14:01:40.000Z</time>
      </trkpt>
      <trkpt lat="45.32638" lon="4.60614">
        <ele>657.40002441406</ele>
        <time>2026-05-12T14:01:41.000Z</time>
      </trkpt>
      <trkpt lat="45.32638" lon="4.6061">
        <ele>657.59997558594</ele>
        <time>2026-05-12T14:01:42.000Z</time>
      </trkpt>
      <trkpt lat="45.32638" lon="4.60605">
        <ele>657.79998779297</ele>
        <time>2026-05-12T14:01:43.000Z</time>
      </trkpt>
      <trkpt lat="45.32638" lon="4.60602">
        <ele>658</ele>
        <time>2026-05-12T14:01:44.000Z</time>
      </trkpt>
      <trkpt lat="45.32639" lon="4.60596">
        <ele>658.20001220703</ele>
        <time>2026-05-12T14:01:45.000Z</time>
      </trkpt>
      <trkpt lat="45.32639" lon="4.60592">
        <ele>658.59997558594</ele>
        <time>2026-05-12T14:01:46.000Z</time>
      </trkpt>
      <trkpt lat="45.3264" lon="4.60588">
        <ele>658.79998779297</ele>
        <time>2026-05-12T14:01:47.000Z</time>
      </trkpt>
      <trkpt lat="45.32641" lon="4.60583">
        <ele>659</ele>
        <time>2026-05-12T14:01:48.000Z</time>
      </trkpt>
      <trkpt lat="45.32642" lon="4.6058">
        <ele>659.40002441406</ele>
        <time>2026-05-12T14:01:49.000Z</time>
      </trkpt>
      <trkpt lat="45.32644" lon="4.60575">
        <ele>659.79998779297</ele>
        <time>2026-05-12T14:01:50.000Z</time>
      </trkpt>
      <trkpt lat="45.32645" lon="4.60571">
        <ele>660</ele>
        <time>2026-05-12T14:01:51.000Z</time>
      </trkpt>
      <trkpt lat="45.32647" lon="4.60568">
        <ele>660.40002441406</ele>
        <time>2026-05-12T14:01:52.000Z</time>
      </trkpt>
      <trkpt lat="45.32649" lon="4.60565">
        <ele>660.59997558594</ele>
        <time>2026-05-12T14:01:53.000Z</time>
      </trkpt>
      <trkpt lat="45.32651" lon="4.60563">
        <ele>661</ele>
        <time>2026-05-12T14:01:54.000Z</time>
      </trkpt>
      <trkpt lat="45.32653" lon="4.6056">
        <ele>661.20001220703</ele>
        <time>2026-05-12T14:01:55.000Z</time>
      </trkpt>
      <trkpt lat="45.32655" lon="4.60557">
        <ele>661.59997558594</ele>
        <time>2026-05-12T14:01:56.000Z</time>
      </trkpt>
      <trkpt lat="45.32656" lon="4.60554">
        <ele>661.79998779297</ele>
        <time>2026-05-12T14:01:57.000Z</time>
      </trkpt>
      <trkpt lat="45.32655" lon="4.60551">
        <ele>662.20001220703</ele>
        <time>2026-05-12T14:01:58.000Z</time>
      </trkpt>
      <trkpt lat="45.32654" lon="4.6055">
        <ele>662.40002441406</ele>
        <time>2026-05-12T14:01:59.000Z</time>
      </trkpt>
      <trkpt lat="45.32652" lon="4.6055">
        <ele>662.79998779297</ele>
        <time>2026-05-12T14:02:00.000Z</time>
      </trkpt>
      <trkpt lat="45.3265" lon="4.60548">
        <ele>663.20001220703</ele>
        <time>2026-05-12T14:02:01.000Z</time>
      </trkpt>
      <trkpt lat="45.32648" lon="4.60547">
        <ele>663.40002441406</ele>
        <time>2026-05-12T14:02:02.000Z</time>
      </trkpt>
      <trkpt lat="45.32646" lon="4.60545">
        <ele>663.79998779297</ele>
        <time>2026-05-12T14:02:03.000Z</time>
      </trkpt>
      <trkpt lat="45.32643" lon="4.60545">
        <ele>664</ele>
        <time>2026-05-12T14:02:04.000Z</time>
      </trkpt>
      <trkpt lat="45.32641" lon="4.60545">
        <ele>664.40002441406</ele>
        <time>2026-05-12T14:02:05.000Z</time>
      </trkpt>
      <trkpt lat="45.32638" lon="4.60545">
        <ele>664.79998779297</ele>
        <time>2026-05-12T14:02:06.000Z</time>
      </trkpt>
      <trkpt lat="45.32635" lon="4.60545">
        <ele>665</ele>
        <time>2026-05-12T14:02:07.000Z</time>
      </trkpt>
      <trkpt lat="45.32632" lon="4.60546">
        <ele>665.40002441406</ele>
        <time>2026-05-12T14:02:08.000Z</time>
      </trkpt>
      <trkpt lat="45.32629" lon="4.60547">
        <ele>665.79998779297</ele>
        <time>2026-05-12T14:02:09.000Z</time>
      </trkpt>
      <trkpt lat="45.32628" lon="4.60549">
        <ele>666.20001220703</ele>
        <time>2026-05-12T14:02:10.000Z</time>
      </trkpt>
      <trkpt lat="45.32626" lon="4.60551">
        <ele>666.40002441406</ele>
        <time>2026-05-12T14:02:11.000Z</time>
      </trkpt>
      <trkpt lat="45.32625" lon="4.60555">
        <ele>666.79998779297</ele>
        <time>2026-05-12T14:02:12.000Z</time>
      </trkpt>
      <trkpt lat="45.32623" lon="4.60558">
        <ele>667</ele>
        <time>2026-05-12T14:02:13.000Z</time>
      </trkpt>
      <trkpt lat="45.32622" lon="4.60561">
        <ele>667.40002441406</ele>
        <time>2026-05-12T14:02:14.000Z</time>
      </trkpt>
      <trkpt lat="45.32621" lon="4.60564">
        <ele>667.79998779297</ele>
        <time>2026-05-12T14:02:15.000Z</time>
      </trkpt>
      <trkpt lat="45.3262" lon="4.60567">
        <ele>668.20001220703</ele>
        <time>2026-05-12T14:02:16.000Z</time>
      </trkpt>
      <trkpt lat="45.32619" lon="4.6057">
        <ele>668.40002441406</ele>
        <time>2026-05-12T14:02:17.000Z</time>
      </trkpt>
      <trkpt lat="45.32618" lon="4.60574">
        <ele>668.79998779297</ele>
        <time>2026-05-12T14:02:18.000Z</time>
      </trkpt>
      <trkpt lat="45.32617" lon="4.60577">
        <ele>669.20001220703</ele>
        <time>2026-05-12T14:02:19.000Z</time>
      </trkpt>
      <trkpt lat="45.32615" lon="4.60579">
        <ele>669.40002441406</ele>
        <time>2026-05-12T14:02:20.000Z</time>
      </trkpt>
      <trkpt lat="45.32614" lon="4.60582">
        <ele>669.79998779297</ele>
        <time>2026-05-12T14:02:21.000Z</time>
      </trkpt>
      <trkpt lat="45.32613" lon="4.60585">
        <ele>670.20001220703</ele>
        <time>2026-05-12T14:02:22.000Z</time>
      </trkpt>
      <trkpt lat="45.32612" lon="4.60588">
        <ele>670.59997558594</ele>
        <time>2026-05-12T14:02:23.000Z</time>
      </trkpt>
      <trkpt lat="45.32611" lon="4.6059">
        <ele>671</ele>
        <time>2026-05-12T14:02:24.000Z</time>
      </trkpt>
      <trkpt lat="45.32609" lon="4.60593">
        <ele>671.40002441406</ele>
        <time>2026-05-12T14:02:25.000Z</time>
      </trkpt>
      <trkpt lat="45.32608" lon="4.60595">
        <ele>671.59997558594</ele>
        <time>2026-05-12T14:02:26.000Z</time>
      </trkpt>
      <trkpt lat="45.32606" lon="4.60598">
        <ele>672</ele>
        <time>2026-05-12T14:02:27.000Z</time>
      </trkpt>
      <trkpt lat="45.32605" lon="4.606">
        <ele>672.20001220703</ele>
        <time>2026-05-12T14:02:28.000Z</time>
      </trkpt>
      <trkpt lat="45.32603" lon="4.60603">
        <ele>672.40002441406</ele>
        <time>2026-05-12T14:02:29.000Z</time>
      </trkpt>
      <trkpt lat="45.32601" lon="4.60605">
        <ele>672.79998779297</ele>
        <time>2026-05-12T14:02:30.000Z</time>
      </trkpt>
      <trkpt lat="45.32599" lon="4.60607">
        <ele>673</ele>
        <time>2026-05-12T14:02:31.000Z</time>
      </trkpt>
      <trkpt lat="45.32598" lon="4.60609">
        <ele>673.20001220703</ele>
        <time>2026-05-12T14:02:32.000Z</time>
      </trkpt>
      <trkpt lat="45.32596" lon="4.6061">
        <ele>673.40002441406</ele>
        <time>2026-05-12T14:02:33.000Z</time>
      </trkpt>
      <trkpt lat="45.32594" lon="4.60612">
        <ele>673.59997558594</ele>
        <time>2026-05-12T14:02:34.000Z</time>
      </trkpt>
      <trkpt lat="45.32592" lon="4.60612">
        <ele>673.79998779297</ele>
        <time>2026-05-12T14:02:35.000Z</time>
      </trkpt>
      <trkpt lat="45.3259" lon="4.60613">
        <ele>674</ele>
        <time>2026-05-12T14:02:36.000Z</time>
      </trkpt>
      <trkpt lat="45.32587" lon="4.60613">
        <ele>674.40002441406</ele>
        <time>2026-05-12T14:02:37.000Z</time>
      </trkpt>
      <trkpt lat="45.32585" lon="4.60613">
        <ele>674.59997558594</ele>
        <time>2026-05-12T14:02:38.000Z</time>
      </trkpt>
      <trkpt lat="45.32583" lon="4.60612">
        <ele>675</ele>
        <time>2026-05-12T14:02:39.000Z</time>
      </trkpt>
      <trkpt lat="45.32581" lon="4.6061">
        <ele>675.20001220703</ele>
        <time>2026-05-12T14:02:40.000Z</time>
      </trkpt>
      <trkpt lat="45.32579" lon="4.60608">
        <ele>675.40002441406</ele>
        <time>2026-05-12T14:02:41.000Z</time>
      </trkpt>
      <trkpt lat="45.32577" lon="4.60606">
        <ele>675.59997558594</ele>
        <time>2026-05-12T14:02:42.000Z</time>
      </trkpt>
      <trkpt lat="45.32576" lon="4.60603">
        <ele>675.79998779297</ele>
        <time>2026-05-12T14:02:43.000Z</time>
      </trkpt>
      <trkpt lat="45.32573" lon="4.60599">
        <ele>676</ele>
        <time>2026-05-12T14:02:44.000Z</time>
      </trkpt>
      <trkpt lat="45.32572" lon="4.60596">
        <ele>676</ele>
        <time>2026-05-12T14:02:45.000Z</time>
      </trkpt>
      <trkpt lat="45.3257" lon="4.60593">
        <ele>676</ele>
        <time>2026-05-12T14:02:46.000Z</time>
      </trkpt>
      <trkpt lat="45.32569" lon="4.60589">
        <ele>676</ele>
        <time>2026-05-12T14:02:47.000Z</time>
      </trkpt>
      <trkpt lat="45.32567" lon="4.60586">
        <ele>676</ele>
        <time>2026-05-12T14:02:48.000Z</time>
      </trkpt>
      <trkpt lat="45.32565" lon="4.60583">
        <ele>676</ele>
        <time>2026-05-12T14:02:49.000Z</time>
      </trkpt>
      <trkpt lat="45.32563" lon="4.6058">
        <ele>676.20001220703</ele>
        <time>2026-05-12T14:02:50.000Z</time>
      </trkpt>
      <trkpt lat="45.32561" lon="4.60577">
        <ele>676.20001220703</ele>
        <time>2026-05-12T14:02:51.000Z</time>
      </trkpt>
      <trkpt lat="45.3256" lon="4.60575">
        <ele>676.20001220703</ele>
        <time>2026-05-12T14:02:52.000Z</time>
      </trkpt>
      <trkpt lat="45.32558" lon="4.60573">
        <ele>676.40002441406</ele>
        <time>2026-05-12T14:02:53.000Z</time>
      </trkpt>
      <trkpt lat="45.32556" lon="4.60571">
        <ele>676.40002441406</ele>
        <time>2026-05-12T14:02:54.000Z</time>
      </trkpt>
      <trkpt lat="45.32554" lon="4.60569">
        <ele>676.40002441406</ele>
        <time>2026-05-12T14:02:55.000Z</time>
      </trkpt>
      <trkpt lat="45.32552" lon="4.60567">
        <ele>676.20001220703</ele>
        <time>2026-05-12T14:02:56.000Z</time>
      </trkpt>
      <trkpt lat="45.32549" lon="4.60565">
        <ele>676.20001220703</ele>
        <time>2026-05-12T14:02:57.000Z</time>
      </trkpt>
      <trkpt lat="45.32546" lon="4.60562">
        <ele>676</ele>
        <time>2026-05-12T14:02:58.000Z</time>
      </trkpt>
      <trkpt lat="45.32543" lon="4.6056">
        <ele>676</ele>
        <time>2026-05-12T14:02:59.000Z</time>
      </trkpt>
      <trkpt lat="45.32541" lon="4.60558">
        <ele>676</ele>
        <time>2026-05-12T14:03:00.000Z</time>
      </trkpt>
      <trkpt lat="45.32539" lon="4.60556">
        <ele>676</ele>
        <time>2026-05-12T14:03:01.000Z</time>
      </trkpt>
      <trkpt lat="45.32536" lon="4.60554">
        <ele>676.20001220703</ele>
        <time>2026-05-12T14:03:02.000Z</time>
      </trkpt>
      <trkpt lat="45.32533" lon="4.60552">
        <ele>676.20001220703</ele>
        <time>2026-05-12T14:03:03.000Z</time>
      </trkpt>
      <trkpt lat="45.32531" lon="4.60551">
        <ele>676.40002441406</ele>
        <time>2026-05-12T14:03:04.000Z</time>
      </trkpt>
      <trkpt lat="45.32528" lon="4.60549">
        <ele>676.40002441406</ele>
        <time>2026-05-12T14:03:05.000Z</time>
      </trkpt>
      <trkpt lat="45.32525" lon="4.60547">
        <ele>676.59997558594</ele>
        <time>2026-05-12T14:03:06.000Z</time>
      </trkpt>
      <trkpt lat="45.32522" lon="4.60545">
        <ele>676.59997558594</ele>
        <time>2026-05-12T14:03:07.000Z</time>
      </trkpt>
      <trkpt lat="45.32519" lon="4.60543">
        <ele>676.79998779297</ele>
        <time>2026-05-12T14:03:08.000Z</time>
      </trkpt>
      <trkpt lat="45.32517" lon="4.60542">
        <ele>676.79998779297</ele>
        <time>2026-05-12T14:03:09.000Z</time>
      </trkpt>
      <trkpt lat="45.32514" lon="4.6054">
        <ele>676.79998779297</ele>
        <time>2026-05-12T14:03:10.000Z</time>
      </trkpt>
      <trkpt lat="45.32511" lon="4.60539">
        <ele>676.79998779297</ele>
        <time>2026-05-12T14:03:11.000Z</time>
      </trkpt>
      <trkpt lat="45.32509" lon="4.60537">
        <ele>676.79998779297</ele>
        <time>2026-05-12T14:03:12.000Z</time>
      </trkpt>
      <trkpt lat="45.32506" lon="4.60535">
        <ele>676.59997558594</ele>
        <time>2026-05-12T14:03:13.000Z</time>
      </trkpt>
      <trkpt lat="45.32504" lon="4.60534">
        <ele>676.59997558594</ele>
        <time>2026-05-12T14:03:14.000Z</time>
      </trkpt>
      <trkpt lat="45.32501" lon="4.60533">
        <ele>676.59997558594</ele>
        <time>2026-05-12T14:03:15.000Z</time>
      </trkpt>
      <trkpt lat="45.32499" lon="4.60532">
        <ele>676.59997558594</ele>
        <time>2026-05-12T14:03:16.000Z</time>
      </trkpt>
      <trkpt lat="45.32496" lon="4.60531">
        <ele>676.59997558594</ele>
        <time>2026-05-12T14:03:17.000Z</time>
      </trkpt>
      <trkpt lat="45.32494" lon="4.60531">
        <ele>676.40002441406</ele>
        <time>2026-05-12T14:03:18.000Z</time>
      </trkpt>
      <trkpt lat="45.32492" lon="4.6053">
        <ele>676.40002441406</ele>
        <time>2026-05-12T14:03:19.000Z</time>
      </trkpt>
      <trkpt lat="45.32489" lon="4.6053">
        <ele>676.40002441406</ele>
        <time>2026-05-12T14:03:20.000Z</time>
      </trkpt>
      <trkpt lat="45.32487" lon="4.60529">
        <ele>676.40002441406</ele>
        <time>2026-05-12T14:03:21.000Z</time>
      </trkpt>
      <trkpt lat="45.32485" lon="4.60528">
        <ele>676.20001220703</ele>
        <time>2026-05-12T14:03:22.000Z</time>
      </trkpt>
      <trkpt lat="45.32483" lon="4.60527">
        <ele>676.20001220703</ele>
        <time>2026-05-12T14:03:23.000Z</time>
      </trkpt>
      <trkpt lat="45.32481" lon="4.60527">
        <ele>676.20001220703</ele>
        <time>2026-05-12T14:03:24.000Z</time>
      </trkpt>
      <trkpt lat="45.32479" lon="4.60527">
        <ele>676.20001220703</ele>
        <time>2026-05-12T14:03:25.000Z</time>
      </trkpt>
      <trkpt lat="45.32476" lon="4.60526">
        <ele>676.20001220703</ele>
        <time>2026-05-12T14:03:26.000Z</time>
      </trkpt>
      <trkpt lat="45.32474" lon="4.60525">
        <ele>676.20001220703</ele>
        <time>2026-05-12T14:03:27.000Z</time>
      </trkpt>
      <trkpt lat="45.32472" lon="4.60524">
        <ele>676.20001220703</ele>
        <time>2026-05-12T14:03:28.000Z</time>
      </trkpt>
      <trkpt lat="45.32469" lon="4.60524">
        <ele>676.20001220703</ele>
        <time>2026-05-12T14:03:29.000Z</time>
      </trkpt>
      <trkpt lat="45.32467" lon="4.60523">
        <ele>676.20001220703</ele>
        <time>2026-05-12T14:03:30.000Z</time>
      </trkpt>
      <trkpt lat="45.32464" lon="4.60522">
        <ele>676</ele>
        <time>2026-05-12T14:03:31.000Z</time>
      </trkpt>
      <trkpt lat="45.32461" lon="4.60521">
        <ele>676</ele>
        <time>2026-05-12T14:03:32.000Z</time>
      </trkpt>
      <trkpt lat="45.32457" lon="4.6052">
        <ele>676</ele>
        <time>2026-05-12T14:03:33.000Z</time>
      </trkpt>
      <trkpt lat="45.32454" lon="4.60518">
        <ele>676</ele>
        <time>2026-05-12T14:03:34.000Z</time>
      </trkpt>
      <trkpt lat="45.32451" lon="4.60517">
        <ele>676</ele>
        <time>2026-05-12T14:03:35.000Z</time>
      </trkpt>
      <trkpt lat="45.32447" lon="4.60515">
        <ele>676</ele>
        <time>2026-05-12T14:03:36.000Z</time>
      </trkpt>
      <trkpt lat="45.32444" lon="4.60514">
        <ele>676</ele>
        <time>2026-05-12T14:03:37.000Z</time>
      </trkpt>
      <trkpt lat="45.3244" lon="4.60513">
        <ele>676.20001220703</ele>
        <time>2026-05-12T14:03:38.000Z</time>
      </trkpt>
      <trkpt lat="45.32437" lon="4.60512">
        <ele>676.20001220703</ele>
        <time>2026-05-12T14:03:39.000Z</time>
      </trkpt>
      <trkpt lat="45.32434" lon="4.60512">
        <ele>676.20001220703</ele>
        <time>2026-05-12T14:03:40.000Z</time>
      </trkpt>
      <trkpt lat="45.32431" lon="4.60511">
        <ele>676.20001220703</ele>
        <time>2026-05-12T14:03:41.000Z</time>
      </trkpt>
      <trkpt lat="45.32427" lon="4.6051">
        <ele>676.40002441406</ele>
        <time>2026-05-12T14:03:42.000Z</time>
      </trkpt>
      <trkpt lat="45.32424" lon="4.60509">
        <ele>676.40002441406</ele>
        <time>2026-05-12T14:03:43.000Z</time>
      </trkpt>
      <trkpt lat="45.32421" lon="4.60508">
        <ele>676.59997558594</ele>
        <time>2026-05-12T14:03:44.000Z</time>
      </trkpt>
      <trkpt lat="45.32417" lon="4.60507">
        <ele>676.59997558594</ele>
        <time>2026-05-12T14:03:45.000Z</time>
      </trkpt>
      <trkpt lat="45.32414" lon="4.60506">
        <ele>676.79998779297</ele>
        <time>2026-05-12T14:03:46.000Z</time>
      </trkpt>
      <trkpt lat="45.3241" lon="4.60504">
        <ele>676.79998779297</ele>
        <time>2026-05-12T14:03:47.000Z</time>
      </trkpt>
      <trkpt lat="45.32407" lon="4.60502">
        <ele>677</ele>
        <time>2026-05-12T14:03:48.000Z</time>
      </trkpt>
      <trkpt lat="45.32404" lon="4.60501">
        <ele>677.20001220703</ele>
        <time>2026-05-12T14:03:49.000Z</time>
      </trkpt>
      <trkpt lat="45.32401" lon="4.60499">
        <ele>677.59997558594</ele>
        <time>2026-05-12T14:03:50.000Z</time>
      </trkpt>
      <trkpt lat="45.32398" lon="4.60496">
        <ele>677.79998779297</ele>
        <time>2026-05-12T14:03:51.000Z</time>
      </trkpt>
      <trkpt lat="45.32395" lon="4.60494">
        <ele>678</ele>
        <time>2026-05-12T14:03:52.000Z</time>
      </trkpt>
      <trkpt lat="45.32392" lon="4.60491">
        <ele>678.20001220703</ele>
        <time>2026-05-12T14:03:53.000Z</time>
      </trkpt>
      <trkpt lat="45.32389" lon="4.60489">
        <ele>678.40002441406</ele>
        <time>2026-05-12T14:03:54.000Z</time>
      </trkpt>
      <trkpt lat="45.32386" lon="4.60486">
        <ele>678.40002441406</ele>
        <time>2026-05-12T14:03:55.000Z</time>
      </trkpt>
      <trkpt lat="45.32383" lon="4.60484">
        <ele>678.59997558594</ele>
        <time>2026-05-12T14:03:56.000Z</time>
      </trkpt>
      <trkpt lat="45.32381" lon="4.60481">
        <ele>678.59997558594</ele>
        <time>2026-05-12T14:03:57.000Z</time>
      </trkpt>
      <trkpt lat="45.32379" lon="4.60479">
        <ele>678.79998779297</ele>
        <time>2026-05-12T14:03:58.000Z</time>
      </trkpt>
      <trkpt lat="45.32377" lon="4.60477">
        <ele>678.79998779297</ele>
        <time>2026-05-12T14:03:59.000Z</time>
      </trkpt>
      <trkpt lat="45.32375" lon="4.60475">
        <ele>679</ele>
        <time>2026-05-12T14:04:00.000Z</time>
      </trkpt>
      <trkpt lat="45.32374" lon="4.60474">
        <ele>679</ele>
        <time>2026-05-12T14:04:01.000Z</time>
      </trkpt>
      <trkpt lat="45.32372" lon="4.60472">
        <ele>679.20001220703</ele>
        <time>2026-05-12T14:04:02.000Z</time>
      </trkpt>
      <trkpt lat="45.3237" lon="4.6047">
        <ele>679.20001220703</ele>
        <time>2026-05-12T14:04:03.000Z</time>
      </trkpt>
      <trkpt lat="45.32368" lon="4.60468">
        <ele>679.20001220703</ele>
        <time>2026-05-12T14:04:04.000Z</time>
      </trkpt>
      <trkpt lat="45.32366" lon="4.60467">
        <ele>679.20001220703</ele>
        <time>2026-05-12T14:04:05.000Z</time>
      </trkpt>
      <trkpt lat="45.32365" lon="4.60465">
        <ele>679</ele>
        <time>2026-05-12T14:04:06.000Z</time>
      </trkpt>
      <trkpt lat="45.32363" lon="4.60464">
        <ele>678.59997558594</ele>
        <time>2026-05-12T14:04:07.000Z</time>
      </trkpt>
      <trkpt lat="45.32362" lon="4.60462">
        <ele>678.40002441406</ele>
        <time>2026-05-12T14:04:08.000Z</time>
      </trkpt>
      <trkpt lat="45.3236" lon="4.60461">
        <ele>678</ele>
        <time>2026-05-12T14:04:09.000Z</time>
      </trkpt>
      <trkpt lat="45.32358" lon="4.6046">
        <ele>677.59997558594</ele>
        <time>2026-05-12T14:04:10.000Z</time>
      </trkpt>
      <trkpt lat="45.32357" lon="4.60459">
        <ele>677.40002441406</ele>
        <time>2026-05-12T14:04:11.000Z</time>
      </trkpt>
      <trkpt lat="45.32355" lon="4.60459">
        <ele>677</ele>
        <time>2026-05-12T14:04:12.000Z</time>
      </trkpt>
      <trkpt lat="45.32353" lon="4.60461">
        <ele>676.79998779297</ele>
        <time>2026-05-12T14:04:13.000Z</time>
      </trkpt>
      <trkpt lat="45.32353" lon="4.60463">
        <ele>676.59997558594</ele>
        <time>2026-05-12T14:04:14.000Z</time>
      </trkpt>
      <trkpt lat="45.32353" lon="4.60466">
        <ele>676.20001220703</ele>
        <time>2026-05-12T14:04:15.000Z</time>
      </trkpt>
      <trkpt lat="45.32354" lon="4.60469">
        <ele>676</ele>
        <time>2026-05-12T14:04:16.000Z</time>
      </trkpt>
      <trkpt lat="45.32355" lon="4.60472">
        <ele>675.59997558594</ele>
        <time>2026-05-12T14:04:17.000Z</time>
      </trkpt>
      <trkpt lat="45.32354" lon="4.60474">
        <ele>675.20001220703</ele>
        <time>2026-05-12T14:04:18.000Z</time>
      </trkpt>
      <trkpt lat="45.32353" lon="4.60476">
        <ele>674.79998779297</ele>
        <time>2026-05-12T14:04:19.000Z</time>
      </trkpt>
      <trkpt lat="45.32353" lon="4.60478">
        <ele>674.40002441406</ele>
        <time>2026-05-12T14:04:20.000Z</time>
      </trkpt>
      <trkpt lat="45.32353" lon="4.60479">
        <ele>674</ele>
        <time>2026-05-12T14:04:21.000Z</time>
      </trkpt>
      <trkpt lat="45.32352" lon="4.60481">
        <ele>673.79998779297</ele>
        <time>2026-05-12T14:04:22.000Z</time>
      </trkpt>
      <trkpt lat="45.32352" lon="4.60483">
        <ele>673.59997558594</ele>
        <time>2026-05-12T14:04:23.000Z</time>
      </trkpt>
      <trkpt lat="45.32352" lon="4.60486">
        <ele>673.40002441406</ele>
        <time>2026-05-12T14:04:24.000Z</time>
      </trkpt>
      <trkpt lat="45.32352" lon="4.60488">
        <ele>673.40002441406</ele>
        <time>2026-05-12T14:04:25.000Z</time>
      </trkpt>
      <trkpt lat="45.3235" lon="4.60489">
        <ele>673.20001220703</ele>
        <time>2026-05-12T14:04:26.000Z</time>
      </trkpt>
      <trkpt lat="45.32349" lon="4.60488">
        <ele>673.20001220703</ele>
        <time>2026-05-12T14:04:27.000Z</time>
      </trkpt>
      <trkpt lat="45.32349" lon="4.60488">
        <ele>673</ele>
        <time>2026-05-12T14:04:28.000Z</time>
      </trkpt>
      <trkpt lat="45.32349" lon="4.60488">
        <ele>672.79998779297</ele>
        <time>2026-05-12T14:04:29.000Z</time>
      </trkpt>
    </trkseg>
  </trk>
</gpx>